<?xml version='1.0' encoding='UTF-8'?><gpx version="1.1" creator="JPX - https://github.com/jenetics/jpx" xmlns="http://www.topografix.com/GPX/1/1"><trk><trkseg><trkpt lat="43.8406261441222" lon="11.181979361256918"><ele>47.0</ele><time>2026-04-04T08:20:52.822Z</time></trkpt><trkpt lat="43.840558935500674" lon="11.181923399316066"><ele>47.0</ele><time>2026-04-04T08:20:59Z</time></trkpt><trkpt lat="43.840480427086256" lon="11.181945180571327"><ele>47.0</ele><time>2026-04-04T08:21:01Z</time></trkpt><trkpt lat="43.84036407206844" lon="11.182088231365979"><ele>47.0</ele><time>2026-04-04T08:21:03Z</time></trkpt><trkpt lat="43.840310010295966" lon="11.182203310410637"><ele>47.0</ele><time>2026-04-04T08:21:04Z</time></trkpt><trkpt lat="43.84025552764315" lon="11.182298804594334"><ele>47.0</ele><time>2026-04-04T08:21:05Z</time></trkpt><trkpt lat="43.8401972255238" lon="11.182423891427476"><ele>47.0</ele><time>2026-04-04T08:21:06Z</time></trkpt><trkpt lat="43.84013211137742" lon="11.182554388464927"><ele>47.0</ele><time>2026-04-04T08:21:07Z</time></trkpt><trkpt lat="43.8400477262957" lon="11.182693580279723"><ele>47.0</ele><time>2026-04-04T08:21:08Z</time></trkpt><trkpt lat="43.839967615694" lon="11.18282615577323"><ele>47.0</ele><time>2026-04-04T08:21:09Z</time></trkpt><trkpt lat="43.83989099277383" lon="11.182954007405929"><ele>47.0</ele><time>2026-04-04T08:21:10Z</time></trkpt><trkpt lat="43.83979855450187" lon="11.183093476760249"><ele>47.0</ele><time>2026-04-04T08:21:11Z</time></trkpt><trkpt lat="43.83970012651817" lon="11.183241582683367"><ele>47.0</ele><time>2026-04-04T08:21:12Z</time></trkpt><trkpt lat="43.83959914984625" lon="11.183405672429899"><ele>47.0</ele><time>2026-04-04T08:21:13Z</time></trkpt><trkpt lat="43.83950107457578" lon="11.183555393896064"><ele>47.0</ele><time>2026-04-04T08:21:14Z</time></trkpt><trkpt lat="43.83941306254132" lon="11.183697006605124"><ele>47.0</ele><time>2026-04-04T08:21:15Z</time></trkpt><trkpt lat="43.83933569161863" lon="11.183812938560163"><ele>47.0</ele><time>2026-04-04T08:21:16Z</time></trkpt><trkpt lat="43.83926282075347" lon="11.183913513259744"><ele>47.25</ele><time>2026-04-04T08:21:17Z</time></trkpt><trkpt lat="43.83919367145037" lon="11.184021504910831"><ele>47.5</ele><time>2026-04-04T08:21:18Z</time></trkpt><trkpt lat="43.839114825232684" lon="11.18414126882547"><ele>47.75</ele><time>2026-04-04T08:21:19Z</time></trkpt><trkpt lat="43.83903556149534" lon="11.184271599199818"><ele>48.0</ele><time>2026-04-04T08:21:20Z</time></trkpt><trkpt lat="43.83895464833378" lon="11.184409628771512"><ele>48.0</ele><time>2026-04-04T08:21:21Z</time></trkpt><trkpt lat="43.8388700332067" lon="11.184542347209947"><ele>48.0</ele><time>2026-04-04T08:21:22Z</time></trkpt><trkpt lat="43.83877881541624" lon="11.184673788396982"><ele>48.0</ele><time>2026-04-04T08:21:23Z</time></trkpt><trkpt lat="43.83869296592056" lon="11.184806965918579"><ele>48.0</ele><time>2026-04-04T08:21:24Z</time></trkpt><trkpt lat="43.83864690138421" lon="11.184927095783792"><ele>48.166666666666664</ele><time>2026-04-04T08:21:25Z</time></trkpt><trkpt lat="43.83857929911914" lon="11.18503077224031"><ele>48.33333333333333</ele><time>2026-04-04T08:21:26Z</time></trkpt><trkpt lat="43.83851948527714" lon="11.185129733077861"><ele>48.5</ele><time>2026-04-04T08:21:27Z</time></trkpt><trkpt lat="43.83845999255516" lon="11.185215398316442"><ele>48.666666666666664</ele><time>2026-04-04T08:21:28Z</time></trkpt><trkpt lat="43.83840972192676" lon="11.18529661373206"><ele>48.83333333333333</ele><time>2026-04-04T08:21:29Z</time></trkpt><trkpt lat="43.83836520991158" lon="11.185367990793663"><ele>49.0</ele><time>2026-04-04T08:21:30Z</time></trkpt><trkpt lat="43.83829670413193" lon="11.185484467995833"><ele>48.99999999999999</ele><time>2026-04-04T08:21:32Z</time></trkpt><trkpt lat="43.838260942139705" lon="11.185620118905415"><ele>49.0</ele><time>2026-04-04T08:21:34Z</time></trkpt><trkpt lat="43.83833960247392" lon="11.185698509684741"><ele>49.0</ele><time>2026-04-04T08:21:35Z</time></trkpt><trkpt lat="43.83840481816567" lon="11.185755099218628"><ele>49.0</ele><time>2026-04-04T08:21:36Z</time></trkpt><trkpt lat="43.83847124868811" lon="11.185809341628275"><ele>48.99999999999999</ele><time>2026-04-04T08:21:37Z</time></trkpt><trkpt lat="43.838546555687444" lon="11.185873065207533"><ele>49.0</ele><time>2026-04-04T08:21:38Z</time></trkpt><trkpt lat="43.83861572271636" lon="11.185944602702424"><ele>49.666666666666664</ele><time>2026-04-04T08:21:39Z</time></trkpt><trkpt lat="43.83868978790663" lon="11.186011425066772"><ele>50.33333333333333</ele><time>2026-04-04T08:21:40Z</time></trkpt><trkpt lat="43.83876035111984" lon="11.186073625875007"><ele>51.0</ele><time>2026-04-04T08:21:41Z</time></trkpt><trkpt lat="43.83882977720588" lon="11.186136942041754"><ele>51.66666666666667</ele><time>2026-04-04T08:21:42Z</time></trkpt><trkpt lat="43.83890284512518" lon="11.186206578640336"><ele>52.333333333333336</ele><time>2026-04-04T08:21:43Z</time></trkpt><trkpt lat="43.83897602140707" lon="11.186277068533462"><ele>53.0</ele><time>2026-04-04T08:21:44Z</time></trkpt><trkpt lat="43.83902930183839" lon="11.186334733172737"><ele>53.0</ele><time>2026-04-04T08:21:45Z</time></trkpt><trkpt lat="43.83911624196636" lon="11.186425860324595"><ele>53.0</ele><time>2026-04-04T08:21:47Z</time></trkpt><trkpt lat="43.83918285593361" lon="11.1865155129387"><ele>53.0</ele><time>2026-04-04T08:21:49Z</time></trkpt><trkpt lat="43.83917945946388" lon="11.186770850968228"><ele>53.0</ele><time>2026-04-04T08:21:51Z</time></trkpt><trkpt lat="43.839183073183705" lon="11.186883488040126"><ele>52.833333333333336</ele><time>2026-04-04T08:21:52Z</time></trkpt><trkpt lat="43.83919906128817" lon="11.18699904386915"><ele>52.66666666666667</ele><time>2026-04-04T08:21:53Z</time></trkpt><trkpt lat="43.83922787769399" lon="11.187115122273385"><ele>52.5</ele><time>2026-04-04T08:21:54Z</time></trkpt><trkpt lat="43.83927403978035" lon="11.187243027379678"><ele>52.33333333333333</ele><time>2026-04-04T08:21:55Z</time></trkpt><trkpt lat="43.83930465390189" lon="11.18736174344549"><ele>52.166666666666664</ele><time>2026-04-04T08:21:56Z</time></trkpt><trkpt lat="43.83931875742789" lon="11.187462469374267"><ele>52.0</ele><time>2026-04-04T08:21:57Z</time></trkpt><trkpt lat="43.839338800602285" lon="11.187552118540985"><ele>52.0</ele><time>2026-04-04T08:21:57.999Z</time></trkpt><trkpt lat="43.83936061931724" lon="11.187643439253545"><ele>52.0</ele><time>2026-04-04T08:21:58.999Z</time></trkpt><trkpt lat="43.839381494802346" lon="11.187728952736807"><ele>52.0</ele><time>2026-04-04T08:21:59.999Z</time></trkpt><trkpt lat="43.83939474371322" lon="11.187817626284476"><ele>52.0</ele><time>2026-04-04T08:22:00.999Z</time></trkpt><trkpt lat="43.83940032787527" lon="11.18791004196784"><ele>52.0</ele><time>2026-04-04T08:22:01.999Z</time></trkpt><trkpt lat="43.839394064724914" lon="11.18800519713263"><ele>52.0</ele><time>2026-04-04T08:22:02.999Z</time></trkpt><trkpt lat="43.83932018231734" lon="11.188077668725219"><ele>52.0</ele><time>2026-04-04T08:22:03.999Z</time></trkpt><trkpt lat="43.839219280912836" lon="11.188199418916032"><ele>51.666666666666664</ele><time>2026-04-04T08:22:04.999Z</time></trkpt><trkpt lat="43.83910328166213" lon="11.188356246060746"><ele>51.33333333333333</ele><time>2026-04-04T08:22:05.999Z</time></trkpt><trkpt lat="43.83898803968852" lon="11.188524794551576"><ele>51.0</ele><time>2026-04-04T08:22:06.999Z</time></trkpt><trkpt lat="43.83886607442142" lon="11.18870743112184"><ele>51.0</ele><time>2026-04-04T08:22:07.999Z</time></trkpt><trkpt lat="43.83874745825955" lon="11.188910514403608"><ele>51.0</ele><time>2026-04-04T08:22:08.999Z</time></trkpt><trkpt lat="43.83861215504553" lon="11.189085048639015"><ele>51.0</ele><time>2026-04-04T08:22:09.999Z</time></trkpt><trkpt lat="43.83848433830145" lon="11.189284923026259"><ele>51.66666666666667</ele><time>2026-04-04T08:22:10.999Z</time></trkpt><trkpt lat="43.83835260326821" lon="11.189479308849608"><ele>52.333333333333336</ele><time>2026-04-04T08:22:11.999Z</time></trkpt><trkpt lat="43.83822122220005" lon="11.189664852281537"><ele>53.0</ele><time>2026-04-04T08:22:12.999Z</time></trkpt><trkpt lat="43.838107643205916" lon="11.189841130277973"><ele>53.333333333333336</ele><time>2026-04-04T08:22:13.999Z</time></trkpt><trkpt lat="43.83799603709846" lon="11.19000085374704"><ele>53.66666666666667</ele><time>2026-04-04T08:22:14.999Z</time></trkpt><trkpt lat="43.83787921905345" lon="11.190170689750726"><ele>54.0</ele><time>2026-04-04T08:22:15.999Z</time></trkpt><trkpt lat="43.83775910240562" lon="11.190347043281802"><ele>54.0</ele><time>2026-04-04T08:22:16.999Z</time></trkpt><trkpt lat="43.837638052911366" lon="11.190529452745944"><ele>54.0</ele><time>2026-04-04T08:22:17.999Z</time></trkpt><trkpt lat="43.83752283241874" lon="11.19070590463519"><ele>54.0</ele><time>2026-04-04T08:22:18.999Z</time></trkpt><trkpt lat="43.83742378864312" lon="11.190856916099772"><ele>54.2</ele><time>2026-04-04T08:22:19.999Z</time></trkpt><trkpt lat="43.83733496936057" lon="11.190987821692788"><ele>54.400000000000006</ele><time>2026-04-04T08:22:20.999Z</time></trkpt><trkpt lat="43.83725230965057" lon="11.19110767124561"><ele>54.6</ele><time>2026-04-04T08:22:21.999Z</time></trkpt><trkpt lat="43.83717860608792" lon="11.191213016678212"><ele>54.8</ele><time>2026-04-04T08:22:22.999Z</time></trkpt><trkpt lat="43.83712158857586" lon="11.191294126948783"><ele>55.0</ele><time>2026-04-04T08:22:23.999Z</time></trkpt><trkpt lat="43.8370741921803" lon="11.191359258592959"><ele>55.0</ele><time>2026-04-04T08:22:24.999Z</time></trkpt><trkpt lat="43.83701248306072" lon="11.191442713152467"><ele>55.0</ele><time>2026-04-04T08:22:26.999Z</time></trkpt><trkpt lat="43.83685823612726" lon="11.191342879863969"><ele>55.0</ele><time>2026-04-04T08:22:29.999Z</time></trkpt><trkpt lat="43.83676764344458" lon="11.191266797437148"><ele>55.0</ele><time>2026-04-04T08:22:30.999Z</time></trkpt><trkpt lat="43.83668757856542" lon="11.191168970334155"><ele>54.5</ele><time>2026-04-04T08:22:31.999Z</time></trkpt><trkpt lat="43.83659245208164" lon="11.191074886576361"><ele>54.0</ele><time>2026-04-04T08:22:32.999Z</time></trkpt><trkpt lat="43.8364929233796" lon="11.190966583585517"><ele>53.5</ele><time>2026-04-04T08:22:33.999Z</time></trkpt><trkpt lat="43.836396857650286" lon="11.19086003514087"><ele>53.0</ele><time>2026-04-04T08:22:34.999Z</time></trkpt><trkpt lat="43.83629259347776" lon="11.190761203684293"><ele>53.25</ele><time>2026-04-04T08:22:35.999Z</time></trkpt><trkpt lat="43.836192154008735" lon="11.190656198260559"><ele>53.5</ele><time>2026-04-04T08:22:36.999Z</time></trkpt><trkpt lat="43.83608004369776" lon="11.190542644912965"><ele>53.75</ele><time>2026-04-04T08:22:37.999Z</time></trkpt><trkpt lat="43.83596559090161" lon="11.190428299417857"><ele>54.0</ele><time>2026-04-04T08:22:38.999Z</time></trkpt><trkpt lat="43.8358556675731" lon="11.190315805796146"><ele>53.5</ele><time>2026-04-04T08:22:39.999Z</time></trkpt><trkpt lat="43.8357506680834" lon="11.190213027907612"><ele>53.0</ele><time>2026-04-04T08:22:40.999Z</time></trkpt><trkpt lat="43.83565711502975" lon="11.190109953112962"><ele>52.5</ele><time>2026-04-04T08:22:41.999Z</time></trkpt><trkpt lat="43.83556402249255" lon="11.190011198943797"><ele>52.0</ele><time>2026-04-04T08:22:42.999Z</time></trkpt><trkpt lat="43.835474944152146" lon="11.189915827079085"><ele>52.0</ele><time>2026-04-04T08:22:43.999Z</time></trkpt><trkpt lat="43.835390522644246" lon="11.189826165509455"><ele>52.0</ele><time>2026-04-04T08:22:44.999Z</time></trkpt><trkpt lat="43.835307099325846" lon="11.189728067267302"><ele>52.0</ele><time>2026-04-04T08:22:45.999Z</time></trkpt><trkpt lat="43.83521975075356" lon="11.189623268905464"><ele>52.0</ele><time>2026-04-04T08:22:46.999Z</time></trkpt><trkpt lat="43.83514243003513" lon="11.189522639201263"><ele>52.0</ele><time>2026-04-04T08:22:47.999Z</time></trkpt><trkpt lat="43.835075776939796" lon="11.189418597517134"><ele>51.666666666666664</ele><time>2026-04-04T08:22:48.999Z</time></trkpt><trkpt lat="43.83501018686331" lon="11.189316455833469"><ele>51.33333333333333</ele><time>2026-04-04T08:22:49.999Z</time></trkpt><trkpt lat="43.834942581605944" lon="11.189219568106441"><ele>51.0</ele><time>2026-04-04T08:22:50.999Z</time></trkpt><trkpt lat="43.834882757500026" lon="11.189157002071205"><ele>50.66666666666667</ele><time>2026-04-04T08:22:51.999Z</time></trkpt><trkpt lat="43.834830282353266" lon="11.189089641682683"><ele>50.333333333333336</ele><time>2026-04-04T08:22:52.999Z</time></trkpt><trkpt lat="43.834783601082094" lon="11.189025924559418"><ele>50.0</ele><time>2026-04-04T08:22:53.999Z</time></trkpt><trkpt lat="43.83472425394514" lon="11.188939241812704"><ele>50.0</ele><time>2026-04-04T08:22:55.999Z</time></trkpt><trkpt lat="43.83466959324336" lon="11.188869715755315"><ele>50.0</ele><time>2026-04-04T08:22:57.999Z</time></trkpt><trkpt lat="43.8345881130688" lon="11.188744353413973"><ele>50.0</ele><time>2026-04-04T08:22:59.999Z</time></trkpt><trkpt lat="43.834533251462254" lon="11.18867086801407"><ele>50.0</ele><time>2026-04-04T08:23:00.999Z</time></trkpt><trkpt lat="43.8344781606054" lon="11.188586321171652"><ele>50.0</ele><time>2026-04-04T08:23:01.999Z</time></trkpt><trkpt lat="43.834421124188616" lon="11.188470464129693"><ele>50.0</ele><time>2026-04-04T08:23:02.999Z</time></trkpt><trkpt lat="43.83434417741357" lon="11.188352931282793"><ele>50.0</ele><time>2026-04-04T08:23:04Z</time></trkpt><trkpt lat="43.83426132632343" lon="11.188228056446576"><ele>50.0</ele><time>2026-04-04T08:23:05Z</time></trkpt><trkpt lat="43.8341871371562" lon="11.188116237030796"><ele>50.0</ele><time>2026-04-04T08:23:06Z</time></trkpt><trkpt lat="43.834115694084296" lon="11.188034560614271"><ele>50.0</ele><time>2026-04-04T08:23:07Z</time></trkpt><trkpt lat="43.83407646391494" lon="11.18791717507594"><ele>49.8</ele><time>2026-04-04T08:23:08Z</time></trkpt><trkpt lat="43.83405660660284" lon="11.187775650167769"><ele>49.6</ele><time>2026-04-04T08:23:09Z</time></trkpt><trkpt lat="43.83405236031671" lon="11.1876312207108"><ele>49.400000000000006</ele><time>2026-04-04T08:23:10Z</time></trkpt><trkpt lat="43.834050986507876" lon="11.187510019348887"><ele>49.2</ele><time>2026-04-04T08:23:11Z</time></trkpt><trkpt lat="43.83401898727931" lon="11.187412022122956"><ele>49.0</ele><time>2026-04-04T08:23:12Z</time></trkpt><trkpt lat="43.83397316906979" lon="11.1873243787295"><ele>49.0</ele><time>2026-04-04T08:23:13Z</time></trkpt><trkpt lat="43.833875033864615" lon="11.187324134186756"><ele>49.0</ele><time>2026-04-04T08:23:14Z</time></trkpt><trkpt lat="43.833797817878555" lon="11.187354709040767"><ele>49.0</ele><time>2026-04-04T08:23:15Z</time></trkpt><trkpt lat="43.83372966494822" lon="11.187431288930261"><ele>49.0</ele><time>2026-04-04T08:23:16Z</time></trkpt><trkpt lat="43.83366712160055" lon="11.187555839858858"><ele>49.0</ele><time>2026-04-04T08:23:17Z</time></trkpt><trkpt lat="43.83361571391924" lon="11.187700832812602"><ele>49.0</ele><time>2026-04-04T08:23:18Z</time></trkpt><trkpt lat="43.833548001406605" lon="11.187849834279115"><ele>49.0</ele><time>2026-04-04T08:23:19Z</time></trkpt><trkpt lat="43.83345885759308" lon="11.1879957272788"><ele>49.0</ele><time>2026-04-04T08:23:20Z</time></trkpt><trkpt lat="43.83336894731398" lon="11.188150629469517"><ele>49.0</ele><time>2026-04-04T08:23:21Z</time></trkpt><trkpt lat="43.833258291366114" lon="11.188282842340854"><ele>49.0</ele><time>2026-04-04T08:23:22Z</time></trkpt><trkpt lat="43.83314318979556" lon="11.188424810779008"><ele>49.0</ele><time>2026-04-04T08:23:23Z</time></trkpt><trkpt lat="43.83302145424439" lon="11.188575877947683"><ele>49.0</ele><time>2026-04-04T08:23:24Z</time></trkpt><trkpt lat="43.83291862437951" lon="11.188732740127596"><ele>49.0</ele><time>2026-04-04T08:23:25Z</time></trkpt><trkpt lat="43.832807065598395" lon="11.188866397531894"><ele>49.0</ele><time>2026-04-04T08:23:26Z</time></trkpt><trkpt lat="43.83268194280687" lon="11.189000200530176"><ele>49.0</ele><time>2026-04-04T08:23:27Z</time></trkpt><trkpt lat="43.83256947808215" lon="11.189160641218983"><ele>49.0</ele><time>2026-04-04T08:23:28Z</time></trkpt><trkpt lat="43.832447007141575" lon="11.189296062665573"><ele>49.0</ele><time>2026-04-04T08:23:29Z</time></trkpt><trkpt lat="43.83234568420361" lon="11.189446244831183"><ele>49.0</ele><time>2026-04-04T08:23:30Z</time></trkpt><trkpt lat="43.83225948069739" lon="11.189590998218742"><ele>49.0</ele><time>2026-04-04T08:23:31Z</time></trkpt><trkpt lat="43.83218054698004" lon="11.189715228011009"><ele>49.0</ele><time>2026-04-04T08:23:32Z</time></trkpt><trkpt lat="43.83211092794735" lon="11.189823200756399"><ele>49.0</ele><time>2026-04-04T08:23:33Z</time></trkpt><trkpt lat="43.83204932083387" lon="11.189927332274664"><ele>49.0</ele><time>2026-04-04T08:23:34Z</time></trkpt><trkpt lat="43.83198523261696" lon="11.190027139320701"><ele>49.0</ele><time>2026-04-04T08:23:35Z</time></trkpt><trkpt lat="43.83190612613838" lon="11.190117312492204"><ele>49.0</ele><time>2026-04-04T08:23:36Z</time></trkpt><trkpt lat="43.83182907487163" lon="11.190231498449261"><ele>49.0</ele><time>2026-04-04T08:23:37Z</time></trkpt><trkpt lat="43.83174034945414" lon="11.190362828711143"><ele>49.0</ele><time>2026-04-04T08:23:38Z</time></trkpt><trkpt lat="43.83164146667056" lon="11.190510684050553"><ele>49.0</ele><time>2026-04-04T08:23:39Z</time></trkpt><trkpt lat="43.831535850369306" lon="11.190668399973"><ele>49.0</ele><time>2026-04-04T08:23:40Z</time></trkpt><trkpt lat="43.83143221280488" lon="11.190849422774209"><ele>49.33333333333333</ele><time>2026-04-04T08:23:41Z</time></trkpt><trkpt lat="43.83131946443614" lon="11.191013674219553"><ele>49.66666666666667</ele><time>2026-04-04T08:23:42Z</time></trkpt><trkpt lat="43.83120769740177" lon="11.191182201098536"><ele>50.0</ele><time>2026-04-04T08:23:43Z</time></trkpt><trkpt lat="43.83109863392842" lon="11.191349551735811"><ele>50.0</ele><time>2026-04-04T08:23:44Z</time></trkpt><trkpt lat="43.83098866287335" lon="11.19151954885205"><ele>50.0</ele><time>2026-04-04T08:23:45Z</time></trkpt><trkpt lat="43.83088239263125" lon="11.191700915888427"><ele>50.0</ele><time>2026-04-04T08:23:46Z</time></trkpt><trkpt lat="43.830778816852224" lon="11.191881280992158"><ele>50.0</ele><time>2026-04-04T08:23:47Z</time></trkpt><trkpt lat="43.83067215144089" lon="11.192057257621348"><ele>50.0</ele><time>2026-04-04T08:23:48Z</time></trkpt><trkpt lat="43.8305700971286" lon="11.19223346677235"><ele>50.0</ele><time>2026-04-04T08:23:49Z</time></trkpt><trkpt lat="43.830467430682305" lon="11.192404626882187"><ele>50.0</ele><time>2026-04-04T08:23:50Z</time></trkpt><trkpt lat="43.83036650529776" lon="11.192579719225705"><ele>50.0</ele><time>2026-04-04T08:23:51Z</time></trkpt><trkpt lat="43.830270954533894" lon="11.192740409418217"><ele>50.0</ele><time>2026-04-04T08:23:52Z</time></trkpt><trkpt lat="43.8301748889911" lon="11.192872006332468"><ele>50.0</ele><time>2026-04-04T08:23:53Z</time></trkpt><trkpt lat="43.83007806608953" lon="11.193000745066817"><ele>50.0</ele><time>2026-04-04T08:23:53.999Z</time></trkpt><trkpt lat="43.82998952279681" lon="11.193121582342652"><ele>50.0</ele><time>2026-04-04T08:23:54.999Z</time></trkpt><trkpt lat="43.829915706342845" lon="11.19325194755753"><ele>50.0</ele><time>2026-04-04T08:23:55.999Z</time></trkpt><trkpt lat="43.829854514355375" lon="11.193401056615293"><ele>50.0</ele><time>2026-04-04T08:23:56.999Z</time></trkpt><trkpt lat="43.829780259553374" lon="11.193565154074486"><ele>50.0</ele><time>2026-04-04T08:23:57.999Z</time></trkpt><trkpt lat="43.82967325632524" lon="11.193715565812287"><ele>50.0</ele><time>2026-04-04T08:23:58.999Z</time></trkpt><trkpt lat="43.82957570529898" lon="11.193891590689086"><ele>50.0</ele><time>2026-04-04T08:23:59.999Z</time></trkpt><trkpt lat="43.82948219858824" lon="11.194070368652035"><ele>50.333333333333336</ele><time>2026-04-04T08:24:00.999Z</time></trkpt><trkpt lat="43.82937986156489" lon="11.194250885915364"><ele>50.66666666666667</ele><time>2026-04-04T08:24:01.999Z</time></trkpt><trkpt lat="43.8292766254311" lon="11.194434080022287"><ele>51.0</ele><time>2026-04-04T08:24:02.999Z</time></trkpt><trkpt lat="43.829170055529254" lon="11.194618653140429"><ele>50.66666666666667</ele><time>2026-04-04T08:24:03.999Z</time></trkpt><trkpt lat="43.829052997618405" lon="11.194802140559716"><ele>50.333333333333336</ele><time>2026-04-04T08:24:04.999Z</time></trkpt><trkpt lat="43.828938042749364" lon="11.194997333071635"><ele>50.0</ele><time>2026-04-04T08:24:05.999Z</time></trkpt><trkpt lat="43.82882426110585" lon="11.195193447705352"><ele>50.0</ele><time>2026-04-04T08:24:06.999Z</time></trkpt><trkpt lat="43.82871087650449" lon="11.195392290146849"><ele>50.0</ele><time>2026-04-04T08:24:07.999Z</time></trkpt><trkpt lat="43.82859447686371" lon="11.19559059007993"><ele>50.0</ele><time>2026-04-04T08:24:08.999Z</time></trkpt><trkpt lat="43.82848020469051" lon="11.195794905987063"><ele>49.66666666666667</ele><time>2026-04-04T08:24:09.999Z</time></trkpt><trkpt lat="43.828365978825026" lon="11.195973322550913"><ele>49.33333333333333</ele><time>2026-04-04T08:24:10.999Z</time></trkpt><trkpt lat="43.82827233450759" lon="11.196155834023008"><ele>49.0</ele><time>2026-04-04T08:24:11.999Z</time></trkpt><trkpt lat="43.82819795346411" lon="11.196341354687462"><ele>50.33333333333333</ele><time>2026-04-04T08:24:12.999Z</time></trkpt><trkpt lat="43.828107605679016" lon="11.196511738090177"><ele>51.66666666666667</ele><time>2026-04-04T08:24:13.999Z</time></trkpt><trkpt lat="43.82801997978332" lon="11.196685352994788"><ele>53.0</ele><time>2026-04-04T08:24:14.999Z</time></trkpt><trkpt lat="43.82794561218648" lon="11.19685718897135"><ele>53.0</ele><time>2026-04-04T08:24:15.999Z</time></trkpt><trkpt lat="43.82786695300508" lon="11.197008889615562"><ele>53.0</ele><time>2026-04-04T08:24:16.999Z</time></trkpt><trkpt lat="43.82778616537807" lon="11.197143684447454"><ele>53.0</ele><time>2026-04-04T08:24:17.999Z</time></trkpt><trkpt lat="43.82772326383416" lon="11.197273304662902"><ele>53.0</ele><time>2026-04-04T08:24:18.999Z</time></trkpt><trkpt lat="43.82767208079081" lon="11.197396641940196"><ele>52.333333333333336</ele><time>2026-04-04T08:24:19.999Z</time></trkpt><trkpt lat="43.827618140542654" lon="11.197506572414204"><ele>51.66666666666667</ele><time>2026-04-04T08:24:20.999Z</time></trkpt><trkpt lat="43.82756308247736" lon="11.197609725765888"><ele>51.0</ele><time>2026-04-04T08:24:21.999Z</time></trkpt><trkpt lat="43.827512021508845" lon="11.197714227343303"><ele>50.33333333333333</ele><time>2026-04-04T08:24:22.999Z</time></trkpt><trkpt lat="43.82746363137878" lon="11.197802355917956"><ele>49.666666666666664</ele><time>2026-04-04T08:24:23.999Z</time></trkpt><trkpt lat="43.82742112346013" lon="11.197887445573063"><ele>49.0</ele><time>2026-04-04T08:24:24.999Z</time></trkpt><trkpt lat="43.827374208552186" lon="11.19796996761067"><ele>48.99999999999999</ele><time>2026-04-04T08:24:25.999Z</time></trkpt><trkpt lat="43.82732607716954" lon="11.198049388198218"><ele>49.0</ele><time>2026-04-04T08:24:26.999Z</time></trkpt><trkpt lat="43.82727206022301" lon="11.198121255893899"><ele>49.0</ele><time>2026-04-04T08:24:27.999Z</time></trkpt><trkpt lat="43.82721240459941" lon="11.198199384068571"><ele>49.0</ele><time>2026-04-04T08:24:28.999Z</time></trkpt><trkpt lat="43.82715324115674" lon="11.198268345308975"><ele>48.99999999999999</ele><time>2026-04-04T08:24:29.999Z</time></trkpt><trkpt lat="43.82709283475185" lon="11.198332052727272"><ele>49.0</ele><time>2026-04-04T08:24:30.999Z</time></trkpt><trkpt lat="43.82703282433253" lon="11.198378448915737"><ele>49.2</ele><time>2026-04-04T08:24:31.999Z</time></trkpt><trkpt lat="43.82697121903858" lon="11.198418582289623"><ele>49.400000000000006</ele><time>2026-04-04T08:24:32.999Z</time></trkpt><trkpt lat="43.82688815998507" lon="11.198478022416719"><ele>49.6</ele><time>2026-04-04T08:24:33.999Z</time></trkpt><trkpt lat="43.826789129989365" lon="11.198492829344977"><ele>49.8</ele><time>2026-04-04T08:24:34.999Z</time></trkpt><trkpt lat="43.826673808041434" lon="11.19843039701764"><ele>50.0</ele><time>2026-04-04T08:24:35.999Z</time></trkpt><trkpt lat="43.82655718449835" lon="11.198370033743554"><ele>50.0</ele><time>2026-04-04T08:24:36.999Z</time></trkpt><trkpt lat="43.826440635315095" lon="11.198279842286686"><ele>50.0</ele><time>2026-04-04T08:24:37.999Z</time></trkpt><trkpt lat="43.82632263165024" lon="11.198163295756636"><ele>50.0</ele><time>2026-04-04T08:24:38.999Z</time></trkpt><trkpt lat="43.82619538264811" lon="11.198033968169105"><ele>50.0</ele><time>2026-04-04T08:24:39.999Z</time></trkpt><trkpt lat="43.826074151648676" lon="11.197883883477598"><ele>49.66666666666667</ele><time>2026-04-04T08:24:40.999Z</time></trkpt><trkpt lat="43.82593187589636" lon="11.197761517981762"><ele>49.33333333333333</ele><time>2026-04-04T08:24:41.999Z</time></trkpt><trkpt lat="43.82580983958214" lon="11.19760512183899"><ele>49.0</ele><time>2026-04-04T08:24:42.999Z</time></trkpt><trkpt lat="43.825663742679005" lon="11.197477897112693"><ele>48.33333333333333</ele><time>2026-04-04T08:24:43.999Z</time></trkpt><trkpt lat="43.825528854499666" lon="11.197325903978808"><ele>47.666666666666664</ele><time>2026-04-04T08:24:44.999Z</time></trkpt><trkpt lat="43.82539855639783" lon="11.19716709639678"><ele>47.0</ele><time>2026-04-04T08:24:45.999Z</time></trkpt><trkpt lat="43.82527030128153" lon="11.196997683447623"><ele>47.0</ele><time>2026-04-04T08:24:46.999Z</time></trkpt><trkpt lat="43.82515452902593" lon="11.196812853879676"><ele>47.0</ele><time>2026-04-04T08:24:47.999Z</time></trkpt><trkpt lat="43.82505786312939" lon="11.196620555843198"><ele>47.0</ele><time>2026-04-04T08:24:48.999Z</time></trkpt><trkpt lat="43.82497967867823" lon="11.196430732553496"><ele>47.33333333333333</ele><time>2026-04-04T08:24:49.999Z</time></trkpt><trkpt lat="43.82491403458475" lon="11.196235481696451"><ele>47.666666666666664</ele><time>2026-04-04T08:24:50.999Z</time></trkpt><trkpt lat="43.82485749907264" lon="11.1960268150684"><ele>48.0</ele><time>2026-04-04T08:24:51.999Z</time></trkpt><trkpt lat="43.82481249986533" lon="11.195818195768194"><ele>47.666666666666664</ele><time>2026-04-04T08:24:52.999Z</time></trkpt><trkpt lat="43.82477172399077" lon="11.195602654522585"><ele>47.33333333333333</ele><time>2026-04-04T08:24:53.999Z</time></trkpt><trkpt lat="43.824730096532306" lon="11.19539342618172"><ele>47.0</ele><time>2026-04-04T08:24:54.999Z</time></trkpt><trkpt lat="43.82468812755224" lon="11.1951883769056"><ele>47.0</ele><time>2026-04-04T08:24:55.999Z</time></trkpt><trkpt lat="43.82463930668704" lon="11.194979796774904"><ele>47.0</ele><time>2026-04-04T08:24:56.999Z</time></trkpt><trkpt lat="43.82459153905693" lon="11.194771797120282"><ele>47.0</ele><time>2026-04-04T08:24:57.999Z</time></trkpt><trkpt lat="43.8245471319323" lon="11.194561137996054"><ele>46.25</ele><time>2026-04-04T08:24:58.999Z</time></trkpt><trkpt lat="43.82449711213777" lon="11.194361658019242"><ele>45.5</ele><time>2026-04-04T08:24:59.999Z</time></trkpt><trkpt lat="43.824440653313054" lon="11.194173547185587"><ele>44.75</ele><time>2026-04-04T08:25:00.999Z</time></trkpt><trkpt lat="43.82437613231103" lon="11.194001419743717"><ele>44.0</ele><time>2026-04-04T08:25:01.999Z</time></trkpt><trkpt lat="43.82430588825796" lon="11.193844874578547"><ele>43.6</ele><time>2026-04-04T08:25:02.999Z</time></trkpt><trkpt lat="43.82424298093834" lon="11.193703903479658"><ele>43.2</ele><time>2026-04-04T08:25:03.999Z</time></trkpt><trkpt lat="43.8241926341908" lon="11.193575017016803"><ele>42.800000000000004</ele><time>2026-04-04T08:25:04.999Z</time></trkpt><trkpt lat="43.8241562777666" lon="11.19345193112704"><ele>42.400000000000006</ele><time>2026-04-04T08:25:05.999Z</time></trkpt><trkpt lat="43.824146643703855" lon="11.193323418794657"><ele>42.0</ele><time>2026-04-04T08:25:06.999Z</time></trkpt><trkpt lat="43.824157919811185" lon="11.193184964927804"><ele>41.4</ele><time>2026-04-04T08:25:07.999Z</time></trkpt><trkpt lat="43.82419254348483" lon="11.193046244244975"><ele>40.800000000000004</ele><time>2026-04-04T08:25:09Z</time></trkpt><trkpt lat="43.82425532874492" lon="11.192922868256415"><ele>40.2</ele><time>2026-04-04T08:25:10Z</time></trkpt><trkpt lat="43.82431679852594" lon="11.192807340749662"><ele>39.6</ele><time>2026-04-04T08:25:11Z</time></trkpt><trkpt lat="43.824337938298605" lon="11.192675114299215"><ele>39.0</ele><time>2026-04-04T08:25:12Z</time></trkpt><trkpt lat="43.82432142322984" lon="11.192544696798487"><ele>39.0</ele><time>2026-04-04T08:25:13Z</time></trkpt><trkpt lat="43.82428608522039" lon="11.192414549531865"><ele>39.0</ele><time>2026-04-04T08:25:14Z</time></trkpt><trkpt lat="43.82420484007965" lon="11.192327278292932"><ele>39.0</ele><time>2026-04-04T08:25:15Z</time></trkpt><trkpt lat="43.82409230517995" lon="11.19229171421814"><ele>39.0</ele><time>2026-04-04T08:25:16Z</time></trkpt><trkpt lat="43.82398201866526" lon="11.192373716845434"><ele>39.0</ele><time>2026-04-04T08:25:17Z</time></trkpt><trkpt lat="43.82388268626737" lon="11.192428472863387"><ele>39.0</ele><time>2026-04-04T08:25:18Z</time></trkpt><trkpt lat="43.823772154825576" lon="11.192452608375607"><ele>39.0</ele><time>2026-04-04T08:25:19Z</time></trkpt><trkpt lat="43.82364163815185" lon="11.192454864788871"><ele>39.0</ele><time>2026-04-04T08:25:20Z</time></trkpt><trkpt lat="43.82348865124603" lon="11.1924283673028"><ele>39.0</ele><time>2026-04-04T08:25:21Z</time></trkpt><trkpt lat="43.823331430449926" lon="11.192397724715134"><ele>38.333333333333336</ele><time>2026-04-04T08:25:22Z</time></trkpt><trkpt lat="43.82318137828504" lon="11.19233835229598"><ele>37.66666666666667</ele><time>2026-04-04T08:25:23Z</time></trkpt><trkpt lat="43.82302671124979" lon="11.19223584385893"><ele>37.0</ele><time>2026-04-04T08:25:24Z</time></trkpt><trkpt lat="43.822885594833934" lon="11.192094580967105"><ele>37.0</ele><time>2026-04-04T08:25:25Z</time></trkpt><trkpt lat="43.82275206612375" lon="11.191930314141953"><ele>37.0</ele><time>2026-04-04T08:25:26Z</time></trkpt><trkpt lat="43.822624788232744" lon="11.191751997151082"><ele>37.0</ele><time>2026-04-04T08:25:27Z</time></trkpt><trkpt lat="43.82248354407893" lon="11.191794217937677"><ele>37.25</ele><time>2026-04-04T08:25:28Z</time></trkpt><trkpt lat="43.82237319698499" lon="11.191701752021046"><ele>37.5</ele><time>2026-04-04T08:25:29Z</time></trkpt><trkpt lat="43.82225830189367" lon="11.19162963579407"><ele>37.75</ele><time>2026-04-04T08:25:30Z</time></trkpt><trkpt lat="43.82215889007143" lon="11.19153464306254"><ele>38.0</ele><time>2026-04-04T08:25:31Z</time></trkpt><trkpt lat="43.822063698520914" lon="11.19145751319094"><ele>38.0</ele><time>2026-04-04T08:25:32Z</time></trkpt><trkpt lat="43.821970821525404" lon="11.191379437507736"><ele>38.0</ele><time>2026-04-04T08:25:33Z</time></trkpt><trkpt lat="43.82188135189413" lon="11.191309807979836"><ele>38.0</ele><time>2026-04-04T08:25:34Z</time></trkpt><trkpt lat="43.82179542217738" lon="11.191239103223406"><ele>38.0</ele><time>2026-04-04T08:25:35Z</time></trkpt><trkpt lat="43.82171497807367" lon="11.191170986873066"><ele>38.0</ele><time>2026-04-04T08:25:36Z</time></trkpt><trkpt lat="43.82163457413335" lon="11.19110525153422"><ele>38.0</ele><time>2026-04-04T08:25:37Z</time></trkpt><trkpt lat="43.821541828106795" lon="11.191033561566405"><ele>38.0</ele><time>2026-04-04T08:25:38Z</time></trkpt><trkpt lat="43.821442391113564" lon="11.190953259438752"><ele>38.0</ele><time>2026-04-04T08:25:39Z</time></trkpt><trkpt lat="43.82134099007056" lon="11.190840100446003"><ele>38.0</ele><time>2026-04-04T08:25:40Z</time></trkpt><trkpt lat="43.82122142134397" lon="11.190739715039966"><ele>37.666666666666664</ele><time>2026-04-04T08:25:41Z</time></trkpt><trkpt lat="43.82108845617273" lon="11.190628082477822"><ele>37.333333333333336</ele><time>2026-04-04T08:25:42Z</time></trkpt><trkpt lat="43.82095337436827" lon="11.190510769275598"><ele>37.0</ele><time>2026-04-04T08:25:43Z</time></trkpt><trkpt lat="43.82081610595422" lon="11.19039125043227"><ele>38.333333333333336</ele><time>2026-04-04T08:25:44Z</time></trkpt><trkpt lat="43.8206711103221" lon="11.190265003602018"><ele>39.666666666666664</ele><time>2026-04-04T08:25:45Z</time></trkpt><trkpt lat="43.82051569380301" lon="11.190129683347878"><ele>41.0</ele><time>2026-04-04T08:25:46Z</time></trkpt><trkpt lat="43.82035755314251" lon="11.190014715873744"><ele>41.0</ele><time>2026-04-04T08:25:47Z</time></trkpt><trkpt lat="43.82020928738815" lon="11.1898628970569"><ele>41.0</ele><time>2026-04-04T08:25:48Z</time></trkpt><trkpt lat="43.82006966986377" lon="11.18974132208716"><ele>41.0</ele><time>2026-04-04T08:25:49Z</time></trkpt><trkpt lat="43.8199461002327" lon="11.189633706060368"><ele>40.33333333333333</ele><time>2026-04-04T08:25:50Z</time></trkpt><trkpt lat="43.8198267039925" lon="11.18952972462418"><ele>39.666666666666664</ele><time>2026-04-04T08:25:51Z</time></trkpt><trkpt lat="43.819695399517116" lon="11.1894403687198"><ele>39.0</ele><time>2026-04-04T08:25:52Z</time></trkpt><trkpt lat="43.81955673887708" lon="11.189316536588043"><ele>39.0</ele><time>2026-04-04T08:25:53Z</time></trkpt><trkpt lat="43.819416856218226" lon="11.189170450896174"><ele>39.0</ele><time>2026-04-04T08:25:54Z</time></trkpt><trkpt lat="43.81926339699326" lon="11.189034810692783"><ele>39.0</ele><time>2026-04-04T08:25:55Z</time></trkpt><trkpt lat="43.81908792484343" lon="11.188921441934191"><ele>38.666666666666664</ele><time>2026-04-04T08:25:56Z</time></trkpt><trkpt lat="43.81892694779184" lon="11.188777247615937"><ele>38.33333333333333</ele><time>2026-04-04T08:25:57Z</time></trkpt><trkpt lat="43.81876489673585" lon="11.188620908762058"><ele>38.0</ele><time>2026-04-04T08:25:58Z</time></trkpt><trkpt lat="43.81860557175039" lon="11.188472312256001"><ele>38.0</ele><time>2026-04-04T08:25:59Z</time></trkpt><trkpt lat="43.81844050703959" lon="11.188325316603587"><ele>38.0</ele><time>2026-04-04T08:26:00Z</time></trkpt><trkpt lat="43.81827566105271" lon="11.18818135669355"><ele>38.0</ele><time>2026-04-04T08:26:01Z</time></trkpt><trkpt lat="43.818113613934706" lon="11.188040532602292"><ele>37.33333333333333</ele><time>2026-04-04T08:26:02Z</time></trkpt><trkpt lat="43.81795525086081" lon="11.18790081349877"><ele>36.666666666666664</ele><time>2026-04-04T08:26:03Z</time></trkpt><trkpt lat="43.81780966416292" lon="11.18776702227021"><ele>36.0</ele><time>2026-04-04T08:26:03.999Z</time></trkpt><trkpt lat="43.81767079691736" lon="11.187642351673006"><ele>36.0</ele><time>2026-04-04T08:26:04.999Z</time></trkpt><trkpt lat="43.81753967770875" lon="11.187525478161533"><ele>36.0</ele><time>2026-04-04T08:26:05.999Z</time></trkpt><trkpt lat="43.81741348801674" lon="11.187400374285458"><ele>36.0</ele><time>2026-04-04T08:26:06.999Z</time></trkpt><trkpt lat="43.81728837757834" lon="11.187259839753791"><ele>36.333333333333336</ele><time>2026-04-04T08:26:07.999Z</time></trkpt><trkpt lat="43.81716606099505" lon="11.18710449250742"><ele>36.66666666666667</ele><time>2026-04-04T08:26:08.999Z</time></trkpt><trkpt lat="43.81704310387289" lon="11.186935524943141"><ele>37.0</ele><time>2026-04-04T08:26:09.999Z</time></trkpt><trkpt lat="43.816921761268034" lon="11.18675937314225"><ele>37.333333333333336</ele><time>2026-04-04T08:26:10.999Z</time></trkpt><trkpt lat="43.8167981900848" lon="11.186574227598584"><ele>37.666666666666664</ele><time>2026-04-04T08:26:11.999Z</time></trkpt><trkpt lat="43.81666874072625" lon="11.186385743283648"><ele>38.0</ele><time>2026-04-04T08:26:12.999Z</time></trkpt><trkpt lat="43.816539571416634" lon="11.186212227301572"><ele>37.0</ele><time>2026-04-04T08:26:13.999Z</time></trkpt><trkpt lat="43.81641402155518" lon="11.186057338562"><ele>36.0</ele><time>2026-04-04T08:26:14.999Z</time></trkpt><trkpt lat="43.81627508657636" lon="11.185915830853428"><ele>35.0</ele><time>2026-04-04T08:26:15.999Z</time></trkpt><trkpt lat="43.816117616816705" lon="11.185784005510344"><ele>35.0</ele><time>2026-04-04T08:26:16.999Z</time></trkpt><trkpt lat="43.81595539122726" lon="11.185654485933684"><ele>35.0</ele><time>2026-04-04T08:26:17.999Z</time></trkpt><trkpt lat="43.815802230659784" lon="11.185536678417316"><ele>35.0</ele><time>2026-04-04T08:26:18.999Z</time></trkpt><trkpt lat="43.81566225982426" lon="11.185426079984193"><ele>35.0</ele><time>2026-04-04T08:26:19.999Z</time></trkpt><trkpt lat="43.815542360487626" lon="11.185290436613432"><ele>35.0</ele><time>2026-04-04T08:26:20.999Z</time></trkpt><trkpt lat="43.815417201384946" lon="11.185194052832633"><ele>35.0</ele><time>2026-04-04T08:26:21.999Z</time></trkpt><trkpt lat="43.81528983996936" lon="11.185102195073293"><ele>35.0</ele><time>2026-04-04T08:26:22.999Z</time></trkpt><trkpt lat="43.815073869710446" lon="11.185274344269674"><ele>35.666666666666664</ele><time>2026-04-04T08:26:23.999Z</time></trkpt><trkpt lat="43.81488959713911" lon="11.185358779508082"><ele>36.333333333333336</ele><time>2026-04-04T08:26:24.999Z</time></trkpt><trkpt lat="43.81472736386806" lon="11.185464668870297"><ele>37.0</ele><time>2026-04-04T08:26:25.999Z</time></trkpt><trkpt lat="43.81456168395639" lon="11.185549444968348"><ele>37.0</ele><time>2026-04-04T08:26:26.999Z</time></trkpt><trkpt lat="43.81441556484086" lon="11.185620975129684"><ele>37.0</ele><time>2026-04-04T08:26:27.999Z</time></trkpt><trkpt lat="43.814282850802485" lon="11.185691796395783"><ele>37.0</ele><time>2026-04-04T08:26:28.999Z</time></trkpt><trkpt lat="43.814172961037826" lon="11.18574934877146"><ele>37.0</ele><time>2026-04-04T08:26:29.999Z</time></trkpt><trkpt lat="43.81406576849678" lon="11.185797984244967"><ele>37.5</ele><time>2026-04-04T08:26:30.999Z</time></trkpt><trkpt lat="43.81396245561711" lon="11.185805450524512"><ele>38.0</ele><time>2026-04-04T08:26:31.999Z</time></trkpt><trkpt lat="43.813853069839965" lon="11.185766578213851"><ele>38.5</ele><time>2026-04-04T08:26:32.999Z</time></trkpt><trkpt lat="43.81374133799584" lon="11.185667760588533"><ele>39.0</ele><time>2026-04-04T08:26:33.999Z</time></trkpt><trkpt lat="43.813647185324484" lon="11.185496499512196"><ele>39.0</ele><time>2026-04-04T08:26:34.999Z</time></trkpt><trkpt lat="43.813551065477" lon="11.185297120115907"><ele>39.0</ele><time>2026-04-04T08:26:35.999Z</time></trkpt><trkpt lat="43.81344713069482" lon="11.185092881417537"><ele>39.0</ele><time>2026-04-04T08:26:36.999Z</time></trkpt><trkpt lat="43.813338988867095" lon="11.18489165687136"><ele>38.333333333333336</ele><time>2026-04-04T08:26:37.999Z</time></trkpt><trkpt lat="43.81322110397689" lon="11.184668758300502"><ele>37.66666666666667</ele><time>2026-04-04T08:26:38.999Z</time></trkpt><trkpt lat="43.813105600911584" lon="11.184432731815413"><ele>37.0</ele><time>2026-04-04T08:26:39.999Z</time></trkpt><trkpt lat="43.81299187091085" lon="11.184213428823039"><ele>37.0</ele><time>2026-04-04T08:26:40.999Z</time></trkpt><trkpt lat="43.81288454778313" lon="11.184002939025866"><ele>37.0</ele><time>2026-04-04T08:26:41.999Z</time></trkpt><trkpt lat="43.81277804662489" lon="11.183797676494551"><ele>37.0</ele><time>2026-04-04T08:26:42.999Z</time></trkpt><trkpt lat="43.812677588929354" lon="11.183608060569242"><ele>37.333333333333336</ele><time>2026-04-04T08:26:43.999Z</time></trkpt><trkpt lat="43.81257272107064" lon="11.183419334442023"><ele>37.666666666666664</ele><time>2026-04-04T08:26:44.999Z</time></trkpt><trkpt lat="43.8124563958018" lon="11.18324214339333"><ele>38.0</ele><time>2026-04-04T08:26:45.999Z</time></trkpt><trkpt lat="43.81231351006321" lon="11.183070825502424"><ele>38.666666666666664</ele><time>2026-04-04T08:26:46.999Z</time></trkpt><trkpt lat="43.81216111856806" lon="11.182908711612573"><ele>39.333333333333336</ele><time>2026-04-04T08:26:47.999Z</time></trkpt><trkpt lat="43.81201775512689" lon="11.182732497728122"><ele>40.0</ele><time>2026-04-04T08:26:48.999Z</time></trkpt><trkpt lat="43.811867176565855" lon="11.18256090491854"><ele>39.0</ele><time>2026-04-04T08:26:49.999Z</time></trkpt><trkpt lat="43.811722804567694" lon="11.182387471710074"><ele>38.0</ele><time>2026-04-04T08:26:50.999Z</time></trkpt><trkpt lat="43.811589607528035" lon="11.182224196929313"><ele>37.0</ele><time>2026-04-04T08:26:51.999Z</time></trkpt><trkpt lat="43.811457932527375" lon="11.182073916762269"><ele>37.0</ele><time>2026-04-04T08:26:52.999Z</time></trkpt><trkpt lat="43.8113355807104" lon="11.181925581458357"><ele>37.0</ele><time>2026-04-04T08:26:53.999Z</time></trkpt><trkpt lat="43.81122119692107" lon="11.181789629782822"><ele>37.0</ele><time>2026-04-04T08:26:54.999Z</time></trkpt><trkpt lat="43.811108724465036" lon="11.181649388910861"><ele>37.0</ele><time>2026-04-04T08:26:55.999Z</time></trkpt><trkpt lat="43.81099807151332" lon="11.181516005450147"><ele>37.0</ele><time>2026-04-04T08:26:56.999Z</time></trkpt><trkpt lat="43.81089289061993" lon="11.181393899040321"><ele>37.0</ele><time>2026-04-04T08:26:57.999Z</time></trkpt><trkpt lat="43.8107952662176" lon="11.181278115713926"><ele>37.0</ele><time>2026-04-04T08:26:58.999Z</time></trkpt><trkpt lat="43.810695443023576" lon="11.181166613913186"><ele>37.4</ele><time>2026-04-04T08:26:59.999Z</time></trkpt><trkpt lat="43.81059996291863" lon="11.181069110613544"><ele>37.800000000000004</ele><time>2026-04-04T08:27:00.999Z</time></trkpt><trkpt lat="43.81051111655771" lon="11.180974577968437"><ele>38.2</ele><time>2026-04-04T08:27:01.999Z</time></trkpt><trkpt lat="43.81042881183491" lon="11.180889856761874"><ele>38.6</ele><time>2026-04-04T08:27:02.999Z</time></trkpt><trkpt lat="43.810357036411126" lon="11.180817915850572"><ele>39.0</ele><time>2026-04-04T08:27:03.999Z</time></trkpt><trkpt lat="43.81029103567901" lon="11.18075707236573"><ele>39.0</ele><time>2026-04-04T08:27:04.999Z</time></trkpt><trkpt lat="43.81022933554505" lon="11.1807020144019"><ele>39.0</ele><time>2026-04-04T08:27:05.999Z</time></trkpt><trkpt lat="43.81017456090902" lon="11.180648903795682"><ele>39.0</ele><time>2026-04-04T08:27:06.999Z</time></trkpt><trkpt lat="43.810082319792905" lon="11.180556782521261"><ele>39.0</ele><time>2026-04-04T08:27:08.999Z</time></trkpt><trkpt lat="43.81000742474264" lon="11.180489793455486"><ele>39.0</ele><time>2026-04-04T08:27:10.999Z</time></trkpt><trkpt lat="43.809939542846976" lon="11.180434973346797"><ele>39.0</ele><time>2026-04-04T08:27:12.999Z</time></trkpt><trkpt lat="43.80987982877371" lon="11.18038700576519"><ele>39.0</ele><time>2026-04-04T08:27:15Z</time></trkpt><trkpt lat="43.80980271092173" lon="11.180333691018797"><ele>39.0</ele><time>2026-04-04T08:27:27Z</time></trkpt><trkpt lat="43.80973322104168" lon="11.180292171043018"><ele>39.0</ele><time>2026-04-04T08:27:29Z</time></trkpt><trkpt lat="43.80965207466663" lon="11.180464975842655"><ele>39.0</ele><time>2026-04-04T08:27:30Z</time></trkpt><trkpt lat="43.8096669431514" lon="11.180550745663282"><ele>39.0</ele><time>2026-04-04T08:27:31Z</time></trkpt><trkpt lat="43.8097130192142" lon="11.180638830853209"><ele>38.25</ele><time>2026-04-04T08:27:32Z</time></trkpt><trkpt lat="43.809771613111494" lon="11.18074000139105"><ele>37.5</ele><time>2026-04-04T08:27:33Z</time></trkpt><trkpt lat="43.80988887723994" lon="11.180804109758734"><ele>36.75</ele><time>2026-04-04T08:27:34Z</time></trkpt><trkpt lat="43.80999007063524" lon="11.180895843026278"><ele>36.0</ele><time>2026-04-04T08:27:35Z</time></trkpt><trkpt lat="43.8101069088101" lon="11.180999748424531"><ele>37.0</ele><time>2026-04-04T08:27:36Z</time></trkpt><trkpt lat="43.810241709750834" lon="11.181084825394187"><ele>38.0</ele><time>2026-04-04T08:27:37Z</time></trkpt><trkpt lat="43.81039920033974" lon="11.18114980380823"><ele>39.0</ele><time>2026-04-04T08:27:38Z</time></trkpt><trkpt lat="43.81055448117038" lon="11.181227357165398"><ele>39.0</ele><time>2026-04-04T08:27:39Z</time></trkpt><trkpt lat="43.81070537869778" lon="11.181345022610934"><ele>39.0</ele><time>2026-04-04T08:27:40Z</time></trkpt><trkpt lat="43.81085831798996" lon="11.181483310873817"><ele>39.0</ele><time>2026-04-04T08:27:41Z</time></trkpt><trkpt lat="43.81099992713751" lon="11.18165153842524"><ele>38.333333333333336</ele><time>2026-04-04T08:27:42Z</time></trkpt><trkpt lat="43.81114054615377" lon="11.181817527373"><ele>37.66666666666667</ele><time>2026-04-04T08:27:43Z</time></trkpt><trkpt lat="43.81128199793852" lon="11.181984741095746"><ele>37.0</ele><time>2026-04-04T08:27:44Z</time></trkpt><trkpt lat="43.81141967133471" lon="11.182149665698477"><ele>37.0</ele><time>2026-04-04T08:27:45Z</time></trkpt><trkpt lat="43.81155104051529" lon="11.182309885555808"><ele>37.0</ele><time>2026-04-04T08:27:46Z</time></trkpt><trkpt lat="43.8115824209324" lon="11.182580261737593"><ele>37.0</ele><time>2026-04-04T08:27:47Z</time></trkpt><trkpt lat="43.81163882960116" lon="11.182799181077314"><ele>37.0</ele><time>2026-04-04T08:27:48Z</time></trkpt><trkpt lat="43.811678061273405" lon="11.183039594215886"><ele>37.0</ele><time>2026-04-04T08:27:49Z</time></trkpt><trkpt lat="43.81169466131981" lon="11.183290300970626"><ele>37.0</ele><time>2026-04-04T08:27:50Z</time></trkpt><trkpt lat="43.8116834202846" lon="11.183536150745578"><ele>37.0</ele><time>2026-04-04T08:27:51Z</time></trkpt><trkpt lat="43.81164412662766" lon="11.183781792031048"><ele>37.0</ele><time>2026-04-04T08:27:52Z</time></trkpt><trkpt lat="43.8115834988482" lon="11.184023726928196"><ele>37.0</ele><time>2026-04-04T08:27:53Z</time></trkpt><trkpt lat="43.811501010938294" lon="11.184256019016352"><ele>37.0</ele><time>2026-04-04T08:27:54Z</time></trkpt><trkpt lat="43.811404307430635" lon="11.184488530872118"><ele>37.0</ele><time>2026-04-04T08:27:55Z</time></trkpt><trkpt lat="43.81129413745514" lon="11.184715440637872"><ele>37.0</ele><time>2026-04-04T08:27:56Z</time></trkpt><trkpt lat="43.81116205411071" lon="11.184937159948884"><ele>37.333333333333336</ele><time>2026-04-04T08:27:57Z</time></trkpt><trkpt lat="43.81102481419954" lon="11.185163596497537"><ele>37.666666666666664</ele><time>2026-04-04T08:27:58Z</time></trkpt><trkpt lat="43.81088363543257" lon="11.185387484623996"><ele>38.0</ele><time>2026-04-04T08:27:59Z</time></trkpt><trkpt lat="43.810742069399765" lon="11.185616731678596"><ele>37.0</ele><time>2026-04-04T08:28:00Z</time></trkpt><trkpt lat="43.81059956321474" lon="11.185858229936414"><ele>36.0</ele><time>2026-04-04T08:28:01Z</time></trkpt><trkpt lat="43.81045635813162" lon="11.186102812674395"><ele>36.0</ele><time>2026-04-04T08:28:02Z</time></trkpt><trkpt lat="43.81031251463001" lon="11.186348445129822"><ele>36.0</ele><time>2026-04-04T08:28:03Z</time></trkpt><trkpt lat="43.81016483297991" lon="11.18659801914147"><ele>36.5</ele><time>2026-04-04T08:28:04Z</time></trkpt><trkpt lat="43.810011562516884" lon="11.186847391110243"><ele>37.0</ele><time>2026-04-04T08:28:05Z</time></trkpt><trkpt lat="43.80985419523161" lon="11.18709066347151"><ele>37.0</ele><time>2026-04-04T08:28:06Z</time></trkpt><trkpt lat="43.809695610668506" lon="11.187328992322936"><ele>37.0</ele><time>2026-04-04T08:28:07Z</time></trkpt><trkpt lat="43.809539356507734" lon="11.187573240314293"><ele>37.0</ele><time>2026-04-04T08:28:08Z</time></trkpt><trkpt lat="43.80938180841514" lon="11.187810826074623"><ele>37.0</ele><time>2026-04-04T08:28:09Z</time></trkpt><trkpt lat="43.80922255978466" lon="11.188048235585036"><ele>37.5</ele><time>2026-04-04T08:28:10Z</time></trkpt><trkpt lat="43.80906791530201" lon="11.188290023271907"><ele>38.0</ele><time>2026-04-04T08:28:10.999Z</time></trkpt><trkpt lat="43.80891346942196" lon="11.188532588703804"><ele>38.0</ele><time>2026-04-04T08:28:11.999Z</time></trkpt><trkpt lat="43.80875951656621" lon="11.188777350058023"><ele>38.0</ele><time>2026-04-04T08:28:12.999Z</time></trkpt><trkpt lat="43.80860135317168" lon="11.189022083812379"><ele>37.0</ele><time>2026-04-04T08:28:13.999Z</time></trkpt><trkpt lat="43.808441012505185" lon="11.189266118191489"><ele>36.0</ele><time>2026-04-04T08:28:14.999Z</time></trkpt><trkpt lat="43.808276740759155" lon="11.189516493666906"><ele>36.0</ele><time>2026-04-04T08:28:15.999Z</time></trkpt><trkpt lat="43.80811656982061" lon="11.189768329958767"><ele>36.0</ele><time>2026-04-04T08:28:16.999Z</time></trkpt><trkpt lat="43.80795464636043" lon="11.190023266388925"><ele>37.0</ele><time>2026-04-04T08:28:17.999Z</time></trkpt><trkpt lat="43.80778808474723" lon="11.190280802520716"><ele>38.0</ele><time>2026-04-04T08:28:18.999Z</time></trkpt><trkpt lat="43.807621056456966" lon="11.190536331903303"><ele>38.0</ele><time>2026-04-04T08:28:19.999Z</time></trkpt><trkpt lat="43.80745587037369" lon="11.190794145253651"><ele>38.0</ele><time>2026-04-04T08:28:20.999Z</time></trkpt><trkpt lat="43.807289793931744" lon="11.191054033349484"><ele>38.0</ele><time>2026-04-04T08:28:21.999Z</time></trkpt><trkpt lat="43.80711979721929" lon="11.191317755692047"><ele>38.0</ele><time>2026-04-04T08:28:22.999Z</time></trkpt><trkpt lat="43.806947729918384" lon="11.191581798618198"><ele>37.5</ele><time>2026-04-04T08:28:23.999Z</time></trkpt><trkpt lat="43.80677453399493" lon="11.191845066297057"><ele>37.0</ele><time>2026-04-04T08:28:24.999Z</time></trkpt><trkpt lat="43.80660140176069" lon="11.192109345045354"><ele>36.5</ele><time>2026-04-04T08:28:25.999Z</time></trkpt><trkpt lat="43.806429409317055" lon="11.192375212084615"><ele>36.0</ele><time>2026-04-04T08:28:26.999Z</time></trkpt><trkpt lat="43.80625773346403" lon="11.192643418938667"><ele>36.0</ele><time>2026-04-04T08:28:27.999Z</time></trkpt><trkpt lat="43.80608747091108" lon="11.192908105570005"><ele>36.0</ele><time>2026-04-04T08:28:28.999Z</time></trkpt><trkpt lat="43.80591666172292" lon="11.19317331833642"><ele>36.0</ele><time>2026-04-04T08:28:29.999Z</time></trkpt><trkpt lat="43.8057463222201" lon="11.193437416937375"><ele>36.0</ele><time>2026-04-04T08:28:30.999Z</time></trkpt><trkpt lat="43.80557733557675" lon="11.193699689796729"><ele>36.0</ele><time>2026-04-04T08:28:31.999Z</time></trkpt><trkpt lat="43.80540753387056" lon="11.19396056471988"><ele>36.0</ele><time>2026-04-04T08:28:32.999Z</time></trkpt><trkpt lat="43.805234910502854" lon="11.194227429960671"><ele>36.5</ele><time>2026-04-04T08:28:33.999Z</time></trkpt><trkpt lat="43.805061708640295" lon="11.19449333432506"><ele>37.0</ele><time>2026-04-04T08:28:34.999Z</time></trkpt><trkpt lat="43.80488809593429" lon="11.194760818670025"><ele>36.0</ele><time>2026-04-04T08:28:35.999Z</time></trkpt><trkpt lat="43.80471415231053" lon="11.19502975431026"><ele>35.0</ele><time>2026-04-04T08:28:36.999Z</time></trkpt><trkpt lat="43.80454217284421" lon="11.195297863509193"><ele>35.0</ele><time>2026-04-04T08:28:37.999Z</time></trkpt><trkpt lat="43.804364925328535" lon="11.19557046070291"><ele>35.0</ele><time>2026-04-04T08:28:38.999Z</time></trkpt><trkpt lat="43.804187886076775" lon="11.1958509776389"><ele>36.5</ele><time>2026-04-04T08:28:39.999Z</time></trkpt><trkpt lat="43.804008622907695" lon="11.196136922904914"><ele>38.0</ele><time>2026-04-04T08:28:40.999Z</time></trkpt><trkpt lat="43.803831823821824" lon="11.196419090814063"><ele>38.0</ele><time>2026-04-04T08:28:41.999Z</time></trkpt><trkpt lat="43.8036562438546" lon="11.196693291628362"><ele>38.0</ele><time>2026-04-04T08:28:42.999Z</time></trkpt><trkpt lat="43.803479411888496" lon="11.19696810660917"><ele>37.5</ele><time>2026-04-04T08:28:43.999Z</time></trkpt><trkpt lat="43.80330552461115" lon="11.19724232963099"><ele>37.0</ele><time>2026-04-04T08:28:44.999Z</time></trkpt><trkpt lat="43.80313483872854" lon="11.197509113312133"><ele>37.0</ele><time>2026-04-04T08:28:45.999Z</time></trkpt><trkpt lat="43.80296877963261" lon="11.197764222503924"><ele>37.0</ele><time>2026-04-04T08:28:46.999Z</time></trkpt><trkpt lat="43.8028075969636" lon="11.198010298574046"><ele>37.0</ele><time>2026-04-04T08:28:47.999Z</time></trkpt><trkpt lat="43.802649672677425" lon="11.198256086770854"><ele>37.0</ele><time>2026-04-04T08:28:48.999Z</time></trkpt><trkpt lat="43.80249565411521" lon="11.198494532915701"><ele>37.0</ele><time>2026-04-04T08:28:49.999Z</time></trkpt><trkpt lat="43.80234170269718" lon="11.198729153638581"><ele>37.0</ele><time>2026-04-04T08:28:50.999Z</time></trkpt><trkpt lat="43.80218950300697" lon="11.19897201537474"><ele>37.0</ele><time>2026-04-04T08:28:51.999Z</time></trkpt><trkpt lat="43.80204715639165" lon="11.199202557202257"><ele>37.0</ele><time>2026-04-04T08:28:52.999Z</time></trkpt><trkpt lat="43.8019078915486" lon="11.199432050541215"><ele>37.0</ele><time>2026-04-04T08:28:53.999Z</time></trkpt><trkpt lat="43.80176840520659" lon="11.199661492690268"><ele>37.333333333333336</ele><time>2026-04-04T08:28:54.999Z</time></trkpt><trkpt lat="43.80163704088524" lon="11.199878725208134"><ele>37.666666666666664</ele><time>2026-04-04T08:28:55.999Z</time></trkpt><trkpt lat="43.80151405806808" lon="11.200086830820863"><ele>38.0</ele><time>2026-04-04T08:28:56.999Z</time></trkpt><trkpt lat="43.80139939361367" lon="11.200287153985593"><ele>38.0</ele><time>2026-04-04T08:28:57.999Z</time></trkpt><trkpt lat="43.80128752532852" lon="11.20047896281386"><ele>38.0</ele><time>2026-04-04T08:28:58.999Z</time></trkpt><trkpt lat="43.801183649670136" lon="11.200672233984681"><ele>38.0</ele><time>2026-04-04T08:28:59.999Z</time></trkpt><trkpt lat="43.80105300798534" lon="11.200840870469625"><ele>38.0</ele><time>2026-04-04T08:29:00.999Z</time></trkpt><trkpt lat="43.8009521363683" lon="11.20103395816985"><ele>38.0</ele><time>2026-04-04T08:29:01.999Z</time></trkpt><trkpt lat="43.80083938372662" lon="11.20123800760973"><ele>38.0</ele><time>2026-04-04T08:29:02.999Z</time></trkpt><trkpt lat="43.80073205751095" lon="11.201421509197521"><ele>38.0</ele><time>2026-04-04T08:29:03.999Z</time></trkpt><trkpt lat="43.80063504160478" lon="11.201589665566273"><ele>38.0</ele><time>2026-04-04T08:29:04.999Z</time></trkpt><trkpt lat="43.8005395375401" lon="11.20174001445867"><ele>38.0</ele><time>2026-04-04T08:29:05.999Z</time></trkpt><trkpt lat="43.80044699509132" lon="11.201888904340166"><ele>38.0</ele><time>2026-04-04T08:29:06.999Z</time></trkpt><trkpt lat="43.80037355021841" lon="11.202030209663265"><ele>38.0</ele><time>2026-04-04T08:29:07.999Z</time></trkpt><trkpt lat="43.80029063064376" lon="11.202171050404113"><ele>38.0</ele><time>2026-04-04T08:29:08.999Z</time></trkpt><trkpt lat="43.800231696014706" lon="11.202354330217329"><ele>38.0</ele><time>2026-04-04T08:29:09.999Z</time></trkpt><trkpt lat="43.80019636829983" lon="11.20254334143508"><ele>38.0</ele><time>2026-04-04T08:29:10.999Z</time></trkpt><trkpt lat="43.800172821530346" lon="11.202730358787708"><ele>38.0</ele><time>2026-04-04T08:29:11.999Z</time></trkpt><trkpt lat="43.800136832006196" lon="11.202928577347354"><ele>38.0</ele><time>2026-04-04T08:29:12.999Z</time></trkpt><trkpt lat="43.80008092916358" lon="11.20310944700559"><ele>38.0</ele><time>2026-04-04T08:29:13.999Z</time></trkpt><trkpt lat="43.80001318631236" lon="11.203258999378791"><ele>38.0</ele><time>2026-04-04T08:29:14.999Z</time></trkpt><trkpt lat="43.79991678033767" lon="11.203399905691981"><ele>38.0</ele><time>2026-04-04T08:29:15.999Z</time></trkpt><trkpt lat="43.799792325342416" lon="11.203534521998098"><ele>38.0</ele><time>2026-04-04T08:29:16.999Z</time></trkpt><trkpt lat="43.79965488239751" lon="11.203671312097306"><ele>38.0</ele><time>2026-04-04T08:29:17.999Z</time></trkpt><trkpt lat="43.79952301319652" lon="11.203816193761302"><ele>38.0</ele><time>2026-04-04T08:29:18.999Z</time></trkpt><trkpt lat="43.79938505755978" lon="11.203924165548463"><ele>38.0</ele><time>2026-04-04T08:29:20Z</time></trkpt><trkpt lat="43.79924741587152" lon="11.203975822320956"><ele>38.0</ele><time>2026-04-04T08:29:21Z</time></trkpt><trkpt lat="43.799094003841944" lon="11.203985064911254"><ele>38.0</ele><time>2026-04-04T08:29:22Z</time></trkpt><trkpt lat="43.798933915572384" lon="11.203943101005759"><ele>38.0</ele><time>2026-04-04T08:29:23Z</time></trkpt><trkpt lat="43.79877641812997" lon="11.203910507736202"><ele>38.0</ele><time>2026-04-04T08:29:24Z</time></trkpt><trkpt lat="43.7986081495195" lon="11.203874387257633"><ele>38.33333333333333</ele><time>2026-04-04T08:29:25Z</time></trkpt><trkpt lat="43.7984304442245" lon="11.203837011573611"><ele>38.666666666666664</ele><time>2026-04-04T08:29:26Z</time></trkpt><trkpt lat="43.79825810773205" lon="11.203795768214402"><ele>39.0</ele><time>2026-04-04T08:29:27Z</time></trkpt><trkpt lat="43.7980879998819" lon="11.203752021343227"><ele>39.0</ele><time>2026-04-04T08:29:28Z</time></trkpt><trkpt lat="43.79791268288441" lon="11.203711712730284"><ele>39.0</ele><time>2026-04-04T08:29:29Z</time></trkpt><trkpt lat="43.7977341047836" lon="11.203672306654818"><ele>39.0</ele><time>2026-04-04T08:29:30Z</time></trkpt><trkpt lat="43.79755339538806" lon="11.203626975006632"><ele>39.0</ele><time>2026-04-04T08:29:31Z</time></trkpt><trkpt lat="43.797371623176254" lon="11.203576560184993"><ele>39.0</ele><time>2026-04-04T08:29:32Z</time></trkpt><trkpt lat="43.797189524785814" lon="11.20351147025114"><ele>39.0</ele><time>2026-04-04T08:29:33Z</time></trkpt><trkpt lat="43.79700801750773" lon="11.20342946784838"><ele>39.666666666666664</ele><time>2026-04-04T08:29:34Z</time></trkpt><trkpt lat="43.79682516194241" lon="11.203347387620704"><ele>40.33333333333333</ele><time>2026-04-04T08:29:35Z</time></trkpt><trkpt lat="43.79664618139157" lon="11.203270937079772"><ele>41.0</ele><time>2026-04-04T08:29:36Z</time></trkpt><trkpt lat="43.796472135112786" lon="11.203196907022717"><ele>40.666666666666664</ele><time>2026-04-04T08:29:37Z</time></trkpt><trkpt lat="43.796307504260675" lon="11.20310579438079"><ele>40.333333333333336</ele><time>2026-04-04T08:29:38Z</time></trkpt><trkpt lat="43.796167656903506" lon="11.202953808470516"><ele>40.0</ele><time>2026-04-04T08:29:39Z</time></trkpt><trkpt lat="43.79603416157394" lon="11.202795116339853"><ele>40.0</ele><time>2026-04-04T08:29:40Z</time></trkpt><trkpt lat="43.795923734861375" lon="11.202619268133416"><ele>40.0</ele><time>2026-04-04T08:29:41Z</time></trkpt><trkpt lat="43.7958130383256" lon="11.202408433876734"><ele>40.0</ele><time>2026-04-04T08:29:42Z</time></trkpt><trkpt lat="43.79569031352736" lon="11.202191113097074"><ele>40.0</ele><time>2026-04-04T08:29:43Z</time></trkpt><trkpt lat="43.79557164712479" lon="11.201952201154716"><ele>40.0</ele><time>2026-04-04T08:29:44Z</time></trkpt><trkpt lat="43.7954442776647" lon="11.201710629651842"><ele>40.0</ele><time>2026-04-04T08:29:45Z</time></trkpt><trkpt lat="43.79531605240824" lon="11.201458116106929"><ele>39.0</ele><time>2026-04-04T08:29:46Z</time></trkpt><trkpt lat="43.795188218760025" lon="11.201205193500071"><ele>38.0</ele><time>2026-04-04T08:29:47Z</time></trkpt><trkpt lat="43.7950560598369" lon="11.200949692113706"><ele>40.5</ele><time>2026-04-04T08:29:48Z</time></trkpt><trkpt lat="43.79492206858947" lon="11.200693920144516"><ele>43.0</ele><time>2026-04-04T08:29:49Z</time></trkpt><trkpt lat="43.794789309401075" lon="11.200436282331339"><ele>43.0</ele><time>2026-04-04T08:29:50Z</time></trkpt><trkpt lat="43.79465450168816" lon="11.200176446649534"><ele>43.0</ele><time>2026-04-04T08:29:51Z</time></trkpt><trkpt lat="43.79451927757586" lon="11.19992007627729"><ele>42.0</ele><time>2026-04-04T08:29:52Z</time></trkpt><trkpt lat="43.79437872203221" lon="11.199670701630069"><ele>41.0</ele><time>2026-04-04T08:29:53Z</time></trkpt><trkpt lat="43.794222979051696" lon="11.199435592473998"><ele>40.0</ele><time>2026-04-04T08:29:54Z</time></trkpt><trkpt lat="43.79405821016817" lon="11.1992156239472"><ele>39.0</ele><time>2026-04-04T08:29:55Z</time></trkpt><trkpt lat="43.79388409339119" lon="11.19901630674927"><ele>39.0</ele><time>2026-04-04T08:29:56Z</time></trkpt><trkpt lat="43.7937099745171" lon="11.19884736991252"><ele>39.0</ele><time>2026-04-04T08:29:57Z</time></trkpt><trkpt lat="43.79353816322499" lon="11.198693742813466"><ele>39.0</ele><time>2026-04-04T08:29:58Z</time></trkpt><trkpt lat="43.79335778142844" lon="11.198552991439843"><ele>39.333333333333336</ele><time>2026-04-04T08:29:59Z</time></trkpt><trkpt lat="43.79317792104401" lon="11.198420658888875"><ele>39.66666666666667</ele><time>2026-04-04T08:30:00Z</time></trkpt><trkpt lat="43.79301535710898" lon="11.19829081816604"><ele>40.0</ele><time>2026-04-04T08:30:01Z</time></trkpt><trkpt lat="43.79285713483548" lon="11.198169460657738"><ele>39.66666666666667</ele><time>2026-04-04T08:30:02Z</time></trkpt><trkpt lat="43.792710732733475" lon="11.198053316677656"><ele>39.333333333333336</ele><time>2026-04-04T08:30:03Z</time></trkpt><trkpt lat="43.79256889352817" lon="11.197945411118477"><ele>39.0</ele><time>2026-04-04T08:30:04Z</time></trkpt><trkpt lat="43.79244073853604" lon="11.197849148171581"><ele>39.75</ele><time>2026-04-04T08:30:05Z</time></trkpt><trkpt lat="43.79231913269929" lon="11.197761305297888"><ele>40.5</ele><time>2026-04-04T08:30:06Z</time></trkpt><trkpt lat="43.79219776297013" lon="11.197674518990771"><ele>41.25</ele><time>2026-04-04T08:30:07Z</time></trkpt><trkpt lat="43.792071550915296" lon="11.197591124421246"><ele>42.0</ele><time>2026-04-04T08:30:08Z</time></trkpt><trkpt lat="43.79193466511611" lon="11.197497273210741"><ele>41.0</ele><time>2026-04-04T08:30:09Z</time></trkpt><trkpt lat="43.79178881648502" lon="11.197384285332598"><ele>40.0</ele><time>2026-04-04T08:30:10Z</time></trkpt><trkpt lat="43.79164203046082" lon="11.197277793767014"><ele>39.0</ele><time>2026-04-04T08:30:11Z</time></trkpt><trkpt lat="43.79149973067595" lon="11.197167574546414"><ele>39.0</ele><time>2026-04-04T08:30:12Z</time></trkpt><trkpt lat="43.79136284224682" lon="11.197069845260026"><ele>39.0</ele><time>2026-04-04T08:30:13Z</time></trkpt><trkpt lat="43.79121847016371" lon="11.196966740373151"><ele>39.0</ele><time>2026-04-04T08:30:14Z</time></trkpt><trkpt lat="43.791070110056395" lon="11.196860282752773"><ele>36.333333333333336</ele><time>2026-04-04T08:30:15Z</time></trkpt><trkpt lat="43.79091840074835" lon="11.196750195225528"><ele>33.66666666666667</ele><time>2026-04-04T08:30:16Z</time></trkpt><trkpt lat="43.79076020047771" lon="11.19663688501089"><ele>31.0</ele><time>2026-04-04T08:30:17Z</time></trkpt><trkpt lat="43.79060645925572" lon="11.196523677420176"><ele>32.0</ele><time>2026-04-04T08:30:18Z</time></trkpt><trkpt lat="43.79044814895262" lon="11.196395635762471"><ele>33.0</ele><time>2026-04-04T08:30:18.999Z</time></trkpt><trkpt lat="43.79028696333102" lon="11.196269298809652"><ele>34.0</ele><time>2026-04-04T08:30:19.999Z</time></trkpt><trkpt lat="43.79012114561086" lon="11.19615507965402"><ele>32.0</ele><time>2026-04-04T08:30:20.999Z</time></trkpt><trkpt lat="43.789959800902786" lon="11.196042529745126"><ele>30.0</ele><time>2026-04-04T08:30:21.999Z</time></trkpt><trkpt lat="43.78979500487729" lon="11.19592343580568"><ele>28.0</ele><time>2026-04-04T08:30:22.999Z</time></trkpt><trkpt lat="43.78963199676269" lon="11.195805013551347"><ele>28.0</ele><time>2026-04-04T08:30:23.999Z</time></trkpt><trkpt lat="43.78947375283059" lon="11.195692622904547"><ele>28.0</ele><time>2026-04-04T08:30:24.999Z</time></trkpt><trkpt lat="43.78932026183564" lon="11.195582944599044"><ele>28.0</ele><time>2026-04-04T08:30:25.999Z</time></trkpt><trkpt lat="43.789177449183576" lon="11.195479469137439"><ele>32.333333333333336</ele><time>2026-04-04T08:30:26.999Z</time></trkpt><trkpt lat="43.78903976670227" lon="11.195377603881374"><ele>36.666666666666664</ele><time>2026-04-04T08:30:27.999Z</time></trkpt><trkpt lat="43.788900018882735" lon="11.1952818517998"><ele>41.0</ele><time>2026-04-04T08:30:28.999Z</time></trkpt><trkpt lat="43.7887484391981" lon="11.195173006544008"><ele>41.0</ele><time>2026-04-04T08:30:29.999Z</time></trkpt><trkpt lat="43.788586251408695" lon="11.195050608925671"><ele>41.0</ele><time>2026-04-04T08:30:30.999Z</time></trkpt><trkpt lat="43.78842425392006" lon="11.194914923675961"><ele>41.0</ele><time>2026-04-04T08:30:31.999Z</time></trkpt><trkpt lat="43.78827143947136" lon="11.19479817537258"><ele>40.33333333333333</ele><time>2026-04-04T08:30:32.999Z</time></trkpt><trkpt lat="43.788118786664626" lon="11.19469175960258"><ele>39.666666666666664</ele><time>2026-04-04T08:30:33.999Z</time></trkpt><trkpt lat="43.78797603384364" lon="11.194585712991632"><ele>39.0</ele><time>2026-04-04T08:30:34.999Z</time></trkpt><trkpt lat="43.787825701883996" lon="11.194476932858144"><ele>38.666666666666664</ele><time>2026-04-04T08:30:35.999Z</time></trkpt><trkpt lat="43.78766945227456" lon="11.194366252216584"><ele>38.33333333333333</ele><time>2026-04-04T08:30:36.999Z</time></trkpt><trkpt lat="43.78750707106088" lon="11.194249565683382"><ele>38.0</ele><time>2026-04-04T08:30:37.999Z</time></trkpt><trkpt lat="43.787336908155524" lon="11.194137757111974"><ele>38.0</ele><time>2026-04-04T08:30:38.999Z</time></trkpt><trkpt lat="43.78717761962602" lon="11.194026750658631"><ele>38.0</ele><time>2026-04-04T08:30:39.999Z</time></trkpt><trkpt lat="43.78702114289192" lon="11.193913977335047"><ele>38.0</ele><time>2026-04-04T08:30:40.999Z</time></trkpt><trkpt lat="43.786864786108886" lon="11.193792317606388"><ele>38.0</ele><time>2026-04-04T08:30:41.999Z</time></trkpt><trkpt lat="43.786703358568154" lon="11.193654181946625"><ele>38.0</ele><time>2026-04-04T08:30:42.999Z</time></trkpt><trkpt lat="43.7865508556064" lon="11.19350679179399"><ele>38.0</ele><time>2026-04-04T08:30:43.999Z</time></trkpt><trkpt lat="43.7864093155973" lon="11.193364251959482"><ele>38.0</ele><time>2026-04-04T08:30:44.999Z</time></trkpt><trkpt lat="43.78627166724712" lon="11.193219635578291"><ele>38.0</ele><time>2026-04-04T08:30:45.999Z</time></trkpt><trkpt lat="43.78614357192416" lon="11.193070751528978"><ele>38.0</ele><time>2026-04-04T08:30:46.999Z</time></trkpt><trkpt lat="43.78601370724012" lon="11.192914283272515"><ele>38.33333333333333</ele><time>2026-04-04T08:30:47.999Z</time></trkpt><trkpt lat="43.785881654152206" lon="11.192742156229462"><ele>38.666666666666664</ele><time>2026-04-04T08:30:48.999Z</time></trkpt><trkpt lat="43.78575343047922" lon="11.192557698187544"><ele>39.0</ele><time>2026-04-04T08:30:49.999Z</time></trkpt><trkpt lat="43.78562923260259" lon="11.192362046941819"><ele>39.0</ele><time>2026-04-04T08:30:50.999Z</time></trkpt><trkpt lat="43.78552255329789" lon="11.192169468405952"><ele>39.0</ele><time>2026-04-04T08:30:51.999Z</time></trkpt><trkpt lat="43.78542392498716" lon="11.191985072701943"><ele>39.0</ele><time>2026-04-04T08:30:52.999Z</time></trkpt><trkpt lat="43.78533182753415" lon="11.191807866676278"><ele>39.0</ele><time>2026-04-04T08:30:53.999Z</time></trkpt><trkpt lat="43.78525867192946" lon="11.191641705068413"><ele>39.0</ele><time>2026-04-04T08:30:54.999Z</time></trkpt><trkpt lat="43.78519738423626" lon="11.191506994482255"><ele>39.0</ele><time>2026-04-04T08:30:55.999Z</time></trkpt><trkpt lat="43.7851409663237" lon="11.191376614228254"><ele>39.0</ele><time>2026-04-04T08:30:56.999Z</time></trkpt><trkpt lat="43.785085704741704" lon="11.191252085730499"><ele>39.0</ele><time>2026-04-04T08:30:57.999Z</time></trkpt><trkpt lat="43.78503702784416" lon="11.191132177586415"><ele>39.0</ele><time>2026-04-04T08:30:58.999Z</time></trkpt><trkpt lat="43.7849820474315" lon="11.191011053262864"><ele>39.0</ele><time>2026-04-04T08:30:59.999Z</time></trkpt><trkpt lat="43.7849134886022" lon="11.190864199651976"><ele>39.0</ele><time>2026-04-04T08:31:00.999Z</time></trkpt><trkpt lat="43.78484143348961" lon="11.190698398687678"><ele>38.75</ele><time>2026-04-04T08:31:01.999Z</time></trkpt><trkpt lat="43.784779345385566" lon="11.190550235677735"><ele>38.5</ele><time>2026-04-04T08:31:02.999Z</time></trkpt><trkpt lat="43.784713787476846" lon="11.19039688225762"><ele>38.25</ele><time>2026-04-04T08:31:03.999Z</time></trkpt><trkpt lat="43.78465122985187" lon="11.190241850215706"><ele>38.0</ele><time>2026-04-04T08:31:04.999Z</time></trkpt><trkpt lat="43.78458917367674" lon="11.19008343134351"><ele>38.0</ele><time>2026-04-04T08:31:05.999Z</time></trkpt><trkpt lat="43.784520743833006" lon="11.18992762486035"><ele>38.0</ele><time>2026-04-04T08:31:06.999Z</time></trkpt><trkpt lat="43.78445066200918" lon="11.1897657731708"><ele>38.0</ele><time>2026-04-04T08:31:07.999Z</time></trkpt><trkpt lat="43.784373296056216" lon="11.18961330018335"><ele>38.0</ele><time>2026-04-04T08:31:08.999Z</time></trkpt><trkpt lat="43.784311197451615" lon="11.189465057545284"><ele>38.75</ele><time>2026-04-04T08:31:09.999Z</time></trkpt><trkpt lat="43.78424045255976" lon="11.18933772131921"><ele>39.5</ele><time>2026-04-04T08:31:10.999Z</time></trkpt><trkpt lat="43.78416979235087" lon="11.18922915442159"><ele>40.25</ele><time>2026-04-04T08:31:11.999Z</time></trkpt><trkpt lat="43.78409295134366" lon="11.189119428068782"><ele>41.0</ele><time>2026-04-04T08:31:12.999Z</time></trkpt><trkpt lat="43.78400564505745" lon="11.18900849152329"><ele>41.25</ele><time>2026-04-04T08:31:13.999Z</time></trkpt><trkpt lat="43.78390884617509" lon="11.188890064596853"><ele>41.5</ele><time>2026-04-04T08:31:14.999Z</time></trkpt><trkpt lat="43.78380291787241" lon="11.188771146890295"><ele>41.75</ele><time>2026-04-04T08:31:15.999Z</time></trkpt><trkpt lat="43.78369019127059" lon="11.188660308657363"><ele>42.0</ele><time>2026-04-04T08:31:16.999Z</time></trkpt><trkpt lat="43.78355953244609" lon="11.188540155418082"><ele>42.0</ele><time>2026-04-04T08:31:17.999Z</time></trkpt><trkpt lat="43.78341041267774" lon="11.188409107967814"><ele>42.0</ele><time>2026-04-04T08:31:18.999Z</time></trkpt><trkpt lat="43.78324440781781" lon="11.188260087777246"><ele>42.0</ele><time>2026-04-04T08:31:19.999Z</time></trkpt><trkpt lat="43.783071527562115" lon="11.188115621005474"><ele>41.666666666666664</ele><time>2026-04-04T08:31:20.999Z</time></trkpt><trkpt lat="43.78288914963918" lon="11.18795789561181"><ele>41.33333333333333</ele><time>2026-04-04T08:31:21.999Z</time></trkpt><trkpt lat="43.78269655180281" lon="11.18781475467693"><ele>41.0</ele><time>2026-04-04T08:31:22.999Z</time></trkpt><trkpt lat="43.782510591138376" lon="11.187661913270464"><ele>40.666666666666664</ele><time>2026-04-04T08:31:23.999Z</time></trkpt><trkpt lat="43.782322220205806" lon="11.187500080825348"><ele>40.333333333333336</ele><time>2026-04-04T08:31:24.999Z</time></trkpt><trkpt lat="43.782131303520515" lon="11.187347081331412"><ele>40.0</ele><time>2026-04-04T08:31:26Z</time></trkpt><trkpt lat="43.78194172911366" lon="11.187189033177747"><ele>39.5</ele><time>2026-04-04T08:31:27Z</time></trkpt><trkpt lat="43.78175805070878" lon="11.187010832743313"><ele>39.0</ele><time>2026-04-04T08:31:28Z</time></trkpt><trkpt lat="43.78155134132447" lon="11.186837996531262"><ele>39.0</ele><time>2026-04-04T08:31:29Z</time></trkpt><trkpt lat="43.78135366184964" lon="11.186672562806601"><ele>39.0</ele><time>2026-04-04T08:31:30Z</time></trkpt><trkpt lat="43.7811611932873" lon="11.186537265376108"><ele>39.0</ele><time>2026-04-04T08:31:31Z</time></trkpt><trkpt lat="43.780973449946494" lon="11.18638247744446"><ele>38.666666666666664</ele><time>2026-04-04T08:31:32Z</time></trkpt><trkpt lat="43.780791681559656" lon="11.186207376914172"><ele>38.33333333333333</ele><time>2026-04-04T08:31:33Z</time></trkpt><trkpt lat="43.78058792198826" lon="11.186076600405826"><ele>38.0</ele><time>2026-04-04T08:31:34Z</time></trkpt><trkpt lat="43.78039110577287" lon="11.185946741622478"><ele>38.0</ele><time>2026-04-04T08:31:35Z</time></trkpt><trkpt lat="43.78018494196657" lon="11.185836040526397"><ele>38.0</ele><time>2026-04-04T08:31:36Z</time></trkpt><trkpt lat="43.7799779713184" lon="11.18573646436309"><ele>38.0</ele><time>2026-04-04T08:31:37Z</time></trkpt><trkpt lat="43.779750489898106" lon="11.185705554265802"><ele>38.0</ele><time>2026-04-04T08:31:38Z</time></trkpt><trkpt lat="43.77952183861119" lon="11.18566005711352"><ele>38.0</ele><time>2026-04-04T08:31:39Z</time></trkpt><trkpt lat="43.77929171264127" lon="11.185665348064385"><ele>37.5</ele><time>2026-04-04T08:31:40Z</time></trkpt><trkpt lat="43.77906500685106" lon="11.185702114393765"><ele>37.0</ele><time>2026-04-04T08:31:41Z</time></trkpt><trkpt lat="43.77884328596641" lon="11.185795499814805"><ele>37.0</ele><time>2026-04-04T08:31:42Z</time></trkpt><trkpt lat="43.77862422434908" lon="11.18589117489813"><ele>37.0</ele><time>2026-04-04T08:31:43Z</time></trkpt><trkpt lat="43.778401175188485" lon="11.186020154615253"><ele>36.5</ele><time>2026-04-04T08:31:44Z</time></trkpt><trkpt lat="43.77817083762261" lon="11.186134292139084"><ele>36.0</ele><time>2026-04-04T08:31:45Z</time></trkpt><trkpt lat="43.77794900608609" lon="11.186273120481314"><ele>36.0</ele><time>2026-04-04T08:31:46Z</time></trkpt><trkpt lat="43.77773263258401" lon="11.186402226566656"><ele>36.0</ele><time>2026-04-04T08:31:47Z</time></trkpt><trkpt lat="43.77751592381658" lon="11.186522869722179"><ele>37.0</ele><time>2026-04-04T08:31:48Z</time></trkpt><trkpt lat="43.77728730891091" lon="11.186624517482368"><ele>38.0</ele><time>2026-04-04T08:31:49Z</time></trkpt><trkpt lat="43.77705451270734" lon="11.186696896097988"><ele>36.5</ele><time>2026-04-04T08:31:50Z</time></trkpt><trkpt lat="43.776813936418804" lon="11.186756241217783"><ele>35.0</ele><time>2026-04-04T08:31:51Z</time></trkpt><trkpt lat="43.776564461086664" lon="11.186793687161048"><ele>35.0</ele><time>2026-04-04T08:31:52Z</time></trkpt><trkpt lat="43.77631821046803" lon="11.186801516825364"><ele>35.0</ele><time>2026-04-04T08:31:53Z</time></trkpt><trkpt lat="43.77606828633573" lon="11.186789931111921"><ele>36.0</ele><time>2026-04-04T08:31:54Z</time></trkpt><trkpt lat="43.775817742498894" lon="11.186769463605197"><ele>37.0</ele><time>2026-04-04T08:31:55Z</time></trkpt><trkpt lat="43.77556462714315" lon="11.186744915385878"><ele>37.0</ele><time>2026-04-04T08:31:56Z</time></trkpt><trkpt lat="43.775316885726234" lon="11.186721623777816"><ele>37.0</ele><time>2026-04-04T08:31:57Z</time></trkpt><trkpt lat="43.77506598255056" lon="11.186730479420742"><ele>37.0</ele><time>2026-04-04T08:31:58Z</time></trkpt><trkpt lat="43.77482206624428" lon="11.186704738459692"><ele>37.0</ele><time>2026-04-04T08:31:59Z</time></trkpt><trkpt lat="43.77458549019033" lon="11.18667614303113"><ele>37.0</ele><time>2026-04-04T08:32:00Z</time></trkpt><trkpt lat="43.7743467734607" lon="11.186637427669629"><ele>37.0</ele><time>2026-04-04T08:32:01Z</time></trkpt><trkpt lat="43.77411257264041" lon="11.186597332407691"><ele>37.0</ele><time>2026-04-04T08:32:02Z</time></trkpt><trkpt lat="43.773879828569456" lon="11.186540816976636"><ele>37.0</ele><time>2026-04-04T08:32:03Z</time></trkpt><trkpt lat="43.77364721761295" lon="11.18651136508857"><ele>37.0</ele><time>2026-04-04T08:32:04Z</time></trkpt><trkpt lat="43.77341340644144" lon="11.186496535376527"><ele>37.0</ele><time>2026-04-04T08:32:05Z</time></trkpt><trkpt lat="43.773194531926336" lon="11.186471761717904"><ele>37.0</ele><time>2026-04-04T08:32:06Z</time></trkpt><trkpt lat="43.77298582740512" lon="11.186447033327063"><ele>37.0</ele><time>2026-04-04T08:32:07Z</time></trkpt><trkpt lat="43.77278564019549" lon="11.186427107350092"><ele>37.0</ele><time>2026-04-04T08:32:08Z</time></trkpt><trkpt lat="43.77259333364619" lon="11.186386104558036"><ele>37.333333333333336</ele><time>2026-04-04T08:32:09Z</time></trkpt><trkpt lat="43.77239895649161" lon="11.186445470554787"><ele>37.666666666666664</ele><time>2026-04-04T08:32:10Z</time></trkpt><trkpt lat="43.77221192483682" lon="11.186501577921318"><ele>38.0</ele><time>2026-04-04T08:32:11Z</time></trkpt><trkpt lat="43.77202665878837" lon="11.18658305213749"><ele>38.33333333333333</ele><time>2026-04-04T08:32:12Z</time></trkpt><trkpt lat="43.77182272184492" lon="11.186674065661496"><ele>38.666666666666664</ele><time>2026-04-04T08:32:13Z</time></trkpt><trkpt lat="43.77161844449689" lon="11.186785423096607"><ele>39.0</ele><time>2026-04-04T08:32:14Z</time></trkpt><trkpt lat="43.77140932297709" lon="11.186907469473972"><ele>39.0</ele><time>2026-04-04T08:32:15Z</time></trkpt><trkpt lat="43.77121360701209" lon="11.187023883483464"><ele>39.0</ele><time>2026-04-04T08:32:16Z</time></trkpt><trkpt lat="43.77101901707423" lon="11.187133485666262"><ele>39.0</ele><time>2026-04-04T08:32:17Z</time></trkpt><trkpt lat="43.7708235073844" lon="11.187246676658186"><ele>38.666666666666664</ele><time>2026-04-04T08:32:18Z</time></trkpt><trkpt lat="43.77062424840846" lon="11.187375551405996"><ele>38.33333333333333</ele><time>2026-04-04T08:32:19Z</time></trkpt><trkpt lat="43.77042314979058" lon="11.187510653271156"><ele>38.0</ele><time>2026-04-04T08:32:20Z</time></trkpt><trkpt lat="43.77022978683393" lon="11.187631857084202"><ele>37.666666666666664</ele><time>2026-04-04T08:32:21Z</time></trkpt><trkpt lat="43.77004358394984" lon="11.187757723424605"><ele>37.333333333333336</ele><time>2026-04-04T08:32:21.999Z</time></trkpt><trkpt lat="43.76985181067801" lon="11.187882186630251"><ele>37.0</ele><time>2026-04-04T08:32:22.999Z</time></trkpt><trkpt lat="43.769657509398186" lon="11.188004552898152"><ele>37.0</ele><time>2026-04-04T08:32:23.999Z</time></trkpt><trkpt lat="43.769476178520925" lon="11.18811702961897"><ele>37.0</ele><time>2026-04-04T08:32:24.999Z</time></trkpt><trkpt lat="43.7693047634729" lon="11.188225357344466"><ele>37.0</ele><time>2026-04-04T08:32:25.999Z</time></trkpt><trkpt lat="43.76913892224504" lon="11.188324340215239"><ele>37.66666666666667</ele><time>2026-04-04T08:32:26.999Z</time></trkpt><trkpt lat="43.768990451235766" lon="11.188411993966609"><ele>38.333333333333336</ele><time>2026-04-04T08:32:27.999Z</time></trkpt><trkpt lat="43.768853429028425" lon="11.188490432934971"><ele>39.0</ele><time>2026-04-04T08:32:28.999Z</time></trkpt><trkpt lat="43.768730111525095" lon="11.188583474503748"><ele>39.0</ele><time>2026-04-04T08:32:29.999Z</time></trkpt><trkpt lat="43.768634777335" lon="11.188706759576469"><ele>39.0</ele><time>2026-04-04T08:32:30.999Z</time></trkpt><trkpt lat="43.76857917845855" lon="11.188865113870438"><ele>39.0</ele><time>2026-04-04T08:32:31.999Z</time></trkpt><trkpt lat="43.76856685443747" lon="11.189032389703046"><ele>39.0</ele><time>2026-04-04T08:32:32.999Z</time></trkpt><trkpt lat="43.76859944620909" lon="11.189197051031393"><ele>39.333333333333336</ele><time>2026-04-04T08:32:33.999Z</time></trkpt><trkpt lat="43.768673390868884" lon="11.189365793630252"><ele>39.66666666666667</ele><time>2026-04-04T08:32:34.999Z</time></trkpt><trkpt lat="43.7688194424051" lon="11.189489656921442"><ele>40.0</ele><time>2026-04-04T08:32:35.999Z</time></trkpt><trkpt lat="43.76895911901382" lon="11.189580623308206"><ele>40.0</ele><time>2026-04-04T08:32:36.999Z</time></trkpt><trkpt lat="43.76907850129598" lon="11.189664140718856"><ele>40.0</ele><time>2026-04-04T08:32:37.999Z</time></trkpt><trkpt lat="43.76916911664756" lon="11.18975025762695"><ele>40.0</ele><time>2026-04-04T08:32:38.999Z</time></trkpt><trkpt lat="43.76924097272547" lon="11.189850873843685"><ele>40.0</ele><time>2026-04-04T08:32:39.999Z</time></trkpt><trkpt lat="43.76926815241395" lon="11.189971058787664"><ele>40.0</ele><time>2026-04-04T08:32:40.999Z</time></trkpt><trkpt lat="43.76926253720226" lon="11.19009133173086"><ele>40.2</ele><time>2026-04-04T08:32:41.999Z</time></trkpt><trkpt lat="43.76922020366359" lon="11.190198701952998"><ele>40.4</ele><time>2026-04-04T08:32:42.999Z</time></trkpt><trkpt lat="43.76916504346366" lon="11.190264277835265"><ele>40.599999999999994</ele><time>2026-04-04T08:32:43.999Z</time></trkpt><trkpt lat="43.769053912694844" lon="11.190314857727563"><ele>40.8</ele><time>2026-04-04T08:32:45.999Z</time></trkpt><trkpt lat="43.76891659299049" lon="11.19026856918586"><ele>41.0</ele><time>2026-04-04T08:32:47.999Z</time></trkpt><trkpt lat="43.768849022669414" lon="11.190182346858434"><ele>41.0</ele><time>2026-04-04T08:32:48.999Z</time></trkpt><trkpt lat="43.76879269907477" lon="11.190051933604169"><ele>41.0</ele><time>2026-04-04T08:32:49.999Z</time></trkpt><trkpt lat="43.76872766184315" lon="11.189883950404091"><ele>41.0</ele><time>2026-04-04T08:32:50.999Z</time></trkpt><trkpt lat="43.768645644920056" lon="11.189701629251795"><ele>41.0</ele><time>2026-04-04T08:32:51.999Z</time></trkpt><trkpt lat="43.768564426594786" lon="11.189537407616346"><ele>40.75</ele><time>2026-04-04T08:32:52.999Z</time></trkpt><trkpt lat="43.76848056805645" lon="11.18936974901421"><ele>40.5</ele><time>2026-04-04T08:32:53.999Z</time></trkpt><trkpt lat="43.76840098837617" lon="11.189215055113692"><ele>40.25</ele><time>2026-04-04T08:32:54.999Z</time></trkpt><trkpt lat="43.7683337900211" lon="11.189091586241858"><ele>40.0</ele><time>2026-04-04T08:32:55.999Z</time></trkpt><trkpt lat="43.76828055691421" lon="11.188996315655414"><ele>40.0</ele><time>2026-04-04T08:32:56.999Z</time></trkpt><trkpt lat="43.768242262106206" lon="11.188925815631864"><ele>40.0</ele><time>2026-04-04T08:32:57.999Z</time></trkpt><trkpt lat="43.768194609502984" lon="11.18884969819469"><ele>40.0</ele><time>2026-04-04T08:32:59.999Z</time></trkpt><trkpt lat="43.768152481766315" lon="11.188770789292423"><ele>40.0</ele><time>2026-04-04T08:33:03.999Z</time></trkpt><trkpt lat="43.76806815835628" lon="11.188663472710175"><ele>40.0</ele><time>2026-04-04T08:33:40Z</time></trkpt><trkpt lat="43.76802065047301" lon="11.188580863702708"><ele>40.0</ele><time>2026-04-04T08:33:41Z</time></trkpt><trkpt lat="43.767964430991626" lon="11.188473095259948"><ele>40.0</ele><time>2026-04-04T08:33:42Z</time></trkpt><trkpt lat="43.767938132461545" lon="11.18830750275824"><ele>40.0</ele><time>2026-04-04T08:33:43Z</time></trkpt><trkpt lat="43.76788276738612" lon="11.188198948068269"><ele>40.0</ele><time>2026-04-04T08:33:44Z</time></trkpt><trkpt lat="43.76784628205238" lon="11.188127410260241"><ele>40.0</ele><time>2026-04-04T08:33:45Z</time></trkpt><trkpt lat="43.76780420414988" lon="11.188044907824748"><ele>40.0</ele><time>2026-04-04T08:33:47Z</time></trkpt><trkpt lat="43.76768205747668" lon="11.188066941162125"><ele>40.0</ele><time>2026-04-04T08:33:49Z</time></trkpt><trkpt lat="43.76762260715997" lon="11.188124309247906"><ele>40.0</ele><time>2026-04-04T08:33:50Z</time></trkpt><trkpt lat="43.76753901865709" lon="11.188202316300062"><ele>40.0</ele><time>2026-04-04T08:33:51Z</time></trkpt><trkpt lat="43.767447661197295" lon="11.18828546009759"><ele>40.0</ele><time>2026-04-04T08:33:52Z</time></trkpt><trkpt lat="43.76737599672446" lon="11.18837497325205"><ele>40.0</ele><time>2026-04-04T08:33:53Z</time></trkpt><trkpt lat="43.767307857823845" lon="11.188426101758267"><ele>40.2</ele><time>2026-04-04T08:33:54Z</time></trkpt><trkpt lat="43.76720746933135" lon="11.188503690641868"><ele>40.4</ele><time>2026-04-04T08:33:56Z</time></trkpt><trkpt lat="43.76714748703565" lon="11.18853934001056"><ele>40.599999999999994</ele><time>2026-04-04T08:33:58Z</time></trkpt><trkpt lat="43.7670647950688" lon="11.18858964558663"><ele>40.8</ele><time>2026-04-04T08:34:03Z</time></trkpt><trkpt lat="43.766993381422694" lon="11.188428769358877"><ele>41.0</ele><time>2026-04-04T08:34:06Z</time></trkpt><trkpt lat="43.76695586594372" lon="11.188300953283804"><ele>41.0</ele><time>2026-04-04T08:34:07Z</time></trkpt><trkpt lat="43.76691477751669" lon="11.188158186335293"><ele>41.0</ele><time>2026-04-04T08:34:08Z</time></trkpt><trkpt lat="43.76686079379054" lon="11.188002969425025"><ele>41.0</ele><time>2026-04-04T08:34:09Z</time></trkpt><trkpt lat="43.76679937074714" lon="11.187851630607826"><ele>41.0</ele><time>2026-04-04T08:34:10Z</time></trkpt><trkpt lat="43.76673454044893" lon="11.187701066996059"><ele>41.0</ele><time>2026-04-04T08:34:11Z</time></trkpt><trkpt lat="43.7666674847964" lon="11.18754830113514"><ele>41.0</ele><time>2026-04-04T08:34:12Z</time></trkpt><trkpt lat="43.76660569999876" lon="11.187407543262939"><ele>41.0</ele><time>2026-04-04T08:34:13Z</time></trkpt><trkpt lat="43.76653505214069" lon="11.18728261539784"><ele>41.0</ele><time>2026-04-04T08:34:14Z</time></trkpt><trkpt lat="43.76647906734419" lon="11.187152823481965"><ele>40.8</ele><time>2026-04-04T08:34:15Z</time></trkpt><trkpt lat="43.76642165851005" lon="11.187024405088598"><ele>40.599999999999994</ele><time>2026-04-04T08:34:16Z</time></trkpt><trkpt lat="43.76637052038649" lon="11.18690774361644"><ele>40.4</ele><time>2026-04-04T08:34:17Z</time></trkpt><trkpt lat="43.76634504858924" lon="11.186804311338564"><ele>40.2</ele><time>2026-04-04T08:34:18Z</time></trkpt><trkpt lat="43.766296666319256" lon="11.186690715886774"><ele>40.0</ele><time>2026-04-04T08:34:20Z</time></trkpt><trkpt lat="43.76626358185361" lon="11.186608820439094"><ele>40.0</ele><time>2026-04-04T08:34:25Z</time></trkpt><trkpt lat="43.76622511191612" lon="11.1865128991379"><ele>40.0</ele><time>2026-04-04T08:34:27.999Z</time></trkpt><trkpt lat="43.766096687891185" lon="11.186489293969993"><ele>40.0</ele><time>2026-04-04T08:34:29.999Z</time></trkpt><trkpt lat="43.766018550233724" lon="11.186527414304058"><ele>40.0</ele><time>2026-04-04T08:34:30.999Z</time></trkpt><trkpt lat="43.765937190325246" lon="11.186594793962469"><ele>40.0</ele><time>2026-04-04T08:34:31.999Z</time></trkpt><trkpt lat="43.765865996514314" lon="11.186672378322577"><ele>40.4</ele><time>2026-04-04T08:34:32.999Z</time></trkpt><trkpt lat="43.76581203592365" lon="11.186746486214236"><ele>40.8</ele><time>2026-04-04T08:34:33.999Z</time></trkpt><trkpt lat="43.76572081757116" lon="11.186871757628605"><ele>41.2</ele><time>2026-04-04T08:34:35.999Z</time></trkpt><trkpt lat="43.76566329994696" lon="11.186950053636528"><ele>41.6</ele><time>2026-04-04T08:34:36.999Z</time></trkpt><trkpt lat="43.76561336083489" lon="11.18701803334597"><ele>42.0</ele><time>2026-04-04T08:34:37.999Z</time></trkpt><trkpt lat="43.76554795903842" lon="11.187128855840255"><ele>42.0</ele><time>2026-04-04T08:34:39.999Z</time></trkpt><trkpt lat="43.765489020791826" lon="11.187207315702844"><ele>42.0</ele><time>2026-04-04T08:34:40.999Z</time></trkpt><trkpt lat="43.765414037901955" lon="11.187311765359675"><ele>42.0</ele><time>2026-04-04T08:34:41.999Z</time></trkpt><trkpt lat="43.76532747192888" lon="11.187433436589268"><ele>42.0</ele><time>2026-04-04T08:34:42.999Z</time></trkpt><trkpt lat="43.76523603890821" lon="11.187561945723706"><ele>42.0</ele><time>2026-04-04T08:34:43.999Z</time></trkpt><trkpt lat="43.765155294758756" lon="11.187675337324245"><ele>42.2</ele><time>2026-04-04T08:34:44.999Z</time></trkpt><trkpt lat="43.7650765403577" lon="11.187785934677716"><ele>42.400000000000006</ele><time>2026-04-04T08:34:45.999Z</time></trkpt><trkpt lat="43.76499330192747" lon="11.187902829061395"><ele>42.599999999999994</ele><time>2026-04-04T08:34:46.999Z</time></trkpt><trkpt lat="43.764918397796755" lon="11.18800794552156"><ele>42.8</ele><time>2026-04-04T08:34:47.999Z</time></trkpt><trkpt lat="43.76484510830458" lon="11.188107503406602"><ele>43.0</ele><time>2026-04-04T08:34:48.999Z</time></trkpt><trkpt lat="43.764765042822035" lon="11.18821436388493"><ele>43.0</ele><time>2026-04-04T08:34:49.999Z</time></trkpt><trkpt lat="43.764667390850555" lon="11.18834469639729"><ele>43.0</ele><time>2026-04-04T08:34:50.999Z</time></trkpt><trkpt lat="43.76456545233029" lon="11.1884807499858"><ele>43.0</ele><time>2026-04-04T08:34:51.999Z</time></trkpt><trkpt lat="43.76445559928735" lon="11.188624389540102"><ele>43.0</ele><time>2026-04-04T08:34:52.999Z</time></trkpt><trkpt lat="43.76434589160096" lon="11.188761866797064"><ele>43.0</ele><time>2026-04-04T08:34:53.999Z</time></trkpt><trkpt lat="43.764228777537845" lon="11.188909782768498"><ele>43.0</ele><time>2026-04-04T08:34:54.999Z</time></trkpt><trkpt lat="43.764111423551505" lon="11.189058552893764"><ele>43.0</ele><time>2026-04-04T08:34:55.999Z</time></trkpt><trkpt lat="43.76399196236215" lon="11.189209994285529"><ele>42.66666666666667</ele><time>2026-04-04T08:34:56.999Z</time></trkpt><trkpt lat="43.76387513717186" lon="11.189358094048961"><ele>42.333333333333336</ele><time>2026-04-04T08:34:57.999Z</time></trkpt><trkpt lat="43.763763584406995" lon="11.189499509940436"><ele>42.0</ele><time>2026-04-04T08:34:58.999Z</time></trkpt><trkpt lat="43.763665427405904" lon="11.18964256169869"><ele>42.0</ele><time>2026-04-04T08:34:59.999Z</time></trkpt><trkpt lat="43.76357120014328" lon="11.189769701793907"><ele>42.0</ele><time>2026-04-04T08:35:00.999Z</time></trkpt><trkpt lat="43.76346932246897" lon="11.189871086807994"><ele>42.0</ele><time>2026-04-04T08:35:01.999Z</time></trkpt><trkpt lat="43.76338137097761" lon="11.189971385181588"><ele>42.0</ele><time>2026-04-04T08:35:02.999Z</time></trkpt><trkpt lat="43.76329210765821" lon="11.190066315476706"><ele>41.833333333333336</ele><time>2026-04-04T08:35:03.999Z</time></trkpt><trkpt lat="43.763211708237854" lon="11.190138517779769"><ele>41.666666666666664</ele><time>2026-04-04T08:35:04.999Z</time></trkpt><trkpt lat="43.76310740143772" lon="11.190142485471506"><ele>41.5</ele><time>2026-04-04T08:35:05.999Z</time></trkpt><trkpt lat="43.76301579939195" lon="11.190145314373769"><ele>41.33333333333333</ele><time>2026-04-04T08:35:06.999Z</time></trkpt><trkpt lat="43.76293351342611" lon="11.190137207596521"><ele>41.166666666666664</ele><time>2026-04-04T08:35:07.999Z</time></trkpt><trkpt lat="43.76286964463886" lon="11.190125030196437"><ele>41.0</ele><time>2026-04-04T08:35:08.999Z</time></trkpt><trkpt lat="43.76277182723027" lon="11.190017778867599"><ele>41.0</ele><time>2026-04-04T08:35:10.999Z</time></trkpt><trkpt lat="43.7626650067765" lon="11.189928248885645"><ele>41.0</ele><time>2026-04-04T08:35:12.999Z</time></trkpt><trkpt lat="43.76260621587884" lon="11.189879202935638"><ele>41.0</ele><time>2026-04-04T08:35:13.999Z</time></trkpt><trkpt lat="43.76252655255273" lon="11.189812742818967"><ele>41.0</ele><time>2026-04-04T08:35:15.999Z</time></trkpt><trkpt lat="43.76246231242279" lon="11.189851587848528"><ele>41.0</ele><time>2026-04-04T08:35:16.999Z</time></trkpt><trkpt lat="43.762353816098106" lon="11.189928656419413"><ele>41.0</ele><time>2026-04-04T08:35:18.999Z</time></trkpt><trkpt lat="43.762278804006584" lon="11.190070146674426"><ele>41.0</ele><time>2026-04-04T08:35:20.999Z</time></trkpt><trkpt lat="43.76226989193541" lon="11.190233156987803"><ele>41.0</ele><time>2026-04-04T08:35:22.999Z</time></trkpt><trkpt lat="43.76228814155822" lon="11.190340193903445"><ele>41.0</ele><time>2026-04-04T08:35:23.999Z</time></trkpt><trkpt lat="43.762370024096995" lon="11.190421117302053"><ele>41.0</ele><time>2026-04-04T08:35:24.999Z</time></trkpt><trkpt lat="43.76242920022985" lon="11.190509038034106"><ele>41.0</ele><time>2026-04-04T08:35:25.999Z</time></trkpt><trkpt lat="43.76248004103553" lon="11.190565243857273"><ele>41.0</ele><time>2026-04-04T08:35:26.999Z</time></trkpt><trkpt lat="43.76251221512863" lon="11.190692371088344"><ele>41.0</ele><time>2026-04-04T08:35:28.999Z</time></trkpt><trkpt lat="43.7625405967924" lon="11.190821086225439"><ele>41.0</ele><time>2026-04-04T08:35:30.999Z</time></trkpt><trkpt lat="43.762557419509605" lon="11.190905492980175"><ele>41.0</ele><time>2026-04-04T08:35:31.999Z</time></trkpt><trkpt lat="43.76257640502522" lon="11.191004204547644"><ele>41.0</ele><time>2026-04-04T08:35:32.999Z</time></trkpt><trkpt lat="43.76260498070949" lon="11.19110236093859"><ele>41.0</ele><time>2026-04-04T08:35:33.999Z</time></trkpt><trkpt lat="43.7626240162354" lon="11.191217388834588"><ele>41.0</ele><time>2026-04-04T08:35:34.999Z</time></trkpt><trkpt lat="43.7626429171181" lon="11.191343453118538"><ele>41.0</ele><time>2026-04-04T08:35:35.999Z</time></trkpt><trkpt lat="43.76266461543797" lon="11.191467313973043"><ele>41.0</ele><time>2026-04-04T08:35:37Z</time></trkpt><trkpt lat="43.762685967672496" lon="11.191594042547392"><ele>41.0</ele><time>2026-04-04T08:35:38Z</time></trkpt><trkpt lat="43.762712203138754" lon="11.191725632645657"><ele>40.8</ele><time>2026-04-04T08:35:39Z</time></trkpt><trkpt lat="43.762733896308625" lon="11.191860663792552"><ele>40.599999999999994</ele><time>2026-04-04T08:35:40Z</time></trkpt><trkpt lat="43.76276091148112" lon="11.192004197664446"><ele>40.4</ele><time>2026-04-04T08:35:41Z</time></trkpt><trkpt lat="43.762789100738594" lon="11.192153255101369"><ele>40.2</ele><time>2026-04-04T08:35:42Z</time></trkpt><trkpt lat="43.76282072288005" lon="11.1923157484861"><ele>40.0</ele><time>2026-04-04T08:35:43Z</time></trkpt><trkpt lat="43.762846675518716" lon="11.192487440856695"><ele>40.0</ele><time>2026-04-04T08:35:44Z</time></trkpt><trkpt lat="43.76287370883987" lon="11.192668713980439"><ele>40.0</ele><time>2026-04-04T08:35:45Z</time></trkpt><trkpt lat="43.7629045159045" lon="11.192872241131143"><ele>40.0</ele><time>2026-04-04T08:35:46Z</time></trkpt><trkpt lat="43.76293149223452" lon="11.19309144327875"><ele>40.0</ele><time>2026-04-04T08:35:47Z</time></trkpt><trkpt lat="43.76296304021292" lon="11.193321878289577"><ele>40.66666666666667</ele><time>2026-04-04T08:35:48Z</time></trkpt><trkpt lat="43.76299940990311" lon="11.193549892599215"><ele>41.333333333333336</ele><time>2026-04-04T08:35:49Z</time></trkpt><trkpt lat="43.76303090209819" lon="11.19376663649427"><ele>42.0</ele><time>2026-04-04T08:35:50Z</time></trkpt><trkpt lat="43.76305922816128" lon="11.193973105892315"><ele>42.0</ele><time>2026-04-04T08:35:51Z</time></trkpt><trkpt lat="43.763089866508686" lon="11.194172869256628"><ele>42.0</ele><time>2026-04-04T08:35:52Z</time></trkpt><trkpt lat="43.763120343570975" lon="11.194367651405702"><ele>42.0</ele><time>2026-04-04T08:35:53Z</time></trkpt><trkpt lat="43.76315993372519" lon="11.194553776009501"><ele>42.0</ele><time>2026-04-04T08:35:54Z</time></trkpt><trkpt lat="43.76320896365363" lon="11.19472719296306"><ele>41.75</ele><time>2026-04-04T08:35:55Z</time></trkpt><trkpt lat="43.76325350469886" lon="11.194895478972244"><ele>41.5</ele><time>2026-04-04T08:35:56Z</time></trkpt><trkpt lat="43.76329731850195" lon="11.19505708215133"><ele>41.25</ele><time>2026-04-04T08:35:57Z</time></trkpt><trkpt lat="43.76333776401634" lon="11.19521530227128"><ele>41.0</ele><time>2026-04-04T08:35:58Z</time></trkpt><trkpt lat="43.763381880823054" lon="11.195368729925764"><ele>41.0</ele><time>2026-04-04T08:35:59Z</time></trkpt><trkpt lat="43.76342203091418" lon="11.195515647222596"><ele>41.0</ele><time>2026-04-04T08:36:00Z</time></trkpt><trkpt lat="43.763455002656194" lon="11.195656657115698"><ele>41.0</ele><time>2026-04-04T08:36:01Z</time></trkpt><trkpt lat="43.76347604818815" lon="11.19578790168971"><ele>41.0</ele><time>2026-04-04T08:36:02Z</time></trkpt><trkpt lat="43.7634767511615" lon="11.195911648628417"><ele>41.0</ele><time>2026-04-04T08:36:03Z</time></trkpt><trkpt lat="43.7634686748261" lon="11.196027381001954"><ele>41.0</ele><time>2026-04-04T08:36:04Z</time></trkpt><trkpt lat="43.76344981088118" lon="11.196133674712206"><ele>41.0</ele><time>2026-04-04T08:36:05Z</time></trkpt><trkpt lat="43.76341951496589" lon="11.196242535792926"><ele>41.0</ele><time>2026-04-04T08:36:06Z</time></trkpt><trkpt lat="43.76338812342274" lon="11.196374099992848"><ele>41.0</ele><time>2026-04-04T08:36:07Z</time></trkpt><trkpt lat="43.76335275893997" lon="11.196515309401995"><ele>41.0</ele><time>2026-04-04T08:36:08Z</time></trkpt><trkpt lat="43.763322850671706" lon="11.196672048510818"><ele>40.75</ele><time>2026-04-04T08:36:09Z</time></trkpt><trkpt lat="43.763269198542844" lon="11.196790221043356"><ele>40.5</ele><time>2026-04-04T08:36:10Z</time></trkpt><trkpt lat="43.76321549979012" lon="11.196914770647638"><ele>40.25</ele><time>2026-04-04T08:36:11Z</time></trkpt><trkpt lat="43.76314657345264" lon="11.197052650194356"><ele>40.0</ele><time>2026-04-04T08:36:12Z</time></trkpt><trkpt lat="43.76305466962143" lon="11.19719845102547"><ele>40.333333333333336</ele><time>2026-04-04T08:36:13Z</time></trkpt><trkpt lat="43.762991499276474" lon="11.197398165714075"><ele>40.666666666666664</ele><time>2026-04-04T08:36:14Z</time></trkpt><trkpt lat="43.762895412104726" lon="11.197563642883994"><ele>41.0</ele><time>2026-04-04T08:36:15Z</time></trkpt><trkpt lat="43.762783093883606" lon="11.197713248792487"><ele>41.0</ele><time>2026-04-04T08:36:16Z</time></trkpt><trkpt lat="43.76267376449451" lon="11.197877480580209"><ele>41.0</ele><time>2026-04-04T08:36:17Z</time></trkpt><trkpt lat="43.762559301843055" lon="11.198045770816183"><ele>41.0</ele><time>2026-04-04T08:36:18Z</time></trkpt><trkpt lat="43.762458573133344" lon="11.19822455118203"><ele>41.0</ele><time>2026-04-04T08:36:19Z</time></trkpt><trkpt lat="43.76235007683479" lon="11.198390415007085"><ele>41.0</ele><time>2026-04-04T08:36:20Z</time></trkpt><trkpt lat="43.76224595545964" lon="11.198552127297969"><ele>41.0</ele><time>2026-04-04T08:36:21Z</time></trkpt><trkpt lat="43.762141998465886" lon="11.19870270494063"><ele>41.0</ele><time>2026-04-04T08:36:22Z</time></trkpt><trkpt lat="43.762034403764986" lon="11.198842886128169"><ele>41.0</ele><time>2026-04-04T08:36:23Z</time></trkpt><trkpt lat="43.761931661651154" lon="11.198991898638344"><ele>41.0</ele><time>2026-04-04T08:36:24Z</time></trkpt><trkpt lat="43.76182859239635" lon="11.19915116873882"><ele>41.25</ele><time>2026-04-04T08:36:25Z</time></trkpt><trkpt lat="43.7617307107869" lon="11.199295826478195"><ele>41.5</ele><time>2026-04-04T08:36:25.999Z</time></trkpt><trkpt lat="43.76163464042317" lon="11.199442412067754"><ele>41.75</ele><time>2026-04-04T08:36:26.999Z</time></trkpt><trkpt lat="43.761543022687064" lon="11.199576167869253"><ele>42.0</ele><time>2026-04-04T08:36:27.999Z</time></trkpt><trkpt lat="43.76144023426809" lon="11.199693847032488"><ele>42.0</ele><time>2026-04-04T08:36:28.999Z</time></trkpt><trkpt lat="43.76135405440388" lon="11.199819606152856"><ele>42.0</ele><time>2026-04-04T08:36:29.999Z</time></trkpt><trkpt lat="43.7612829036544" lon="11.199951228267315"><ele>42.0</ele><time>2026-04-04T08:36:30.999Z</time></trkpt><trkpt lat="43.7612091284089" lon="11.200067011950802"><ele>42.0</ele><time>2026-04-04T08:36:31.999Z</time></trkpt><trkpt lat="43.76113726955983" lon="11.200172289494557"><ele>42.0</ele><time>2026-04-04T08:36:32.999Z</time></trkpt><trkpt lat="43.761052831858194" lon="11.200244203705665"><ele>42.0</ele><time>2026-04-04T08:36:33.999Z</time></trkpt><trkpt lat="43.76095817624623" lon="11.20031410770729"><ele>42.0</ele><time>2026-04-04T08:36:34.999Z</time></trkpt><trkpt lat="43.760873690546504" lon="11.200423693168775"><ele>42.0</ele><time>2026-04-04T08:36:35.999Z</time></trkpt><trkpt lat="43.76080127637514" lon="11.200569762547302"><ele>41.75</ele><time>2026-04-04T08:36:36.999Z</time></trkpt><trkpt lat="43.76071787169681" lon="11.200713888569254"><ele>41.5</ele><time>2026-04-04T08:36:37.999Z</time></trkpt><trkpt lat="43.76060411600817" lon="11.200845457865833"><ele>41.25</ele><time>2026-04-04T08:36:38.999Z</time></trkpt><trkpt lat="43.760488319910216" lon="11.200982562783857"><ele>41.0</ele><time>2026-04-04T08:36:39.999Z</time></trkpt><trkpt lat="43.76039202656346" lon="11.201142387630036"><ele>41.0</ele><time>2026-04-04T08:36:40.999Z</time></trkpt><trkpt lat="43.76032970088082" lon="11.201329755456227"><ele>41.0</ele><time>2026-04-04T08:36:41.999Z</time></trkpt><trkpt lat="43.76029761362788" lon="11.201532612436665"><ele>41.0</ele><time>2026-04-04T08:36:42.999Z</time></trkpt><trkpt lat="43.76028998402015" lon="11.20173644420136"><ele>41.0</ele><time>2026-04-04T08:36:43.999Z</time></trkpt><trkpt lat="43.760291050224545" lon="11.201922157631808"><ele>41.75</ele><time>2026-04-04T08:36:44.999Z</time></trkpt><trkpt lat="43.760307433202364" lon="11.20210253584038"><ele>42.5</ele><time>2026-04-04T08:36:45.999Z</time></trkpt><trkpt lat="43.76031245118901" lon="11.202272501155493"><ele>43.25</ele><time>2026-04-04T08:36:46.999Z</time></trkpt><trkpt lat="43.760312981544224" lon="11.202428237363897"><ele>44.0</ele><time>2026-04-04T08:36:47.999Z</time></trkpt><trkpt lat="43.76030845849212" lon="11.202561030526518"><ele>44.0</ele><time>2026-04-04T08:36:48.999Z</time></trkpt><trkpt lat="43.76029485384541" lon="11.202682647825872"><ele>44.0</ele><time>2026-04-04T08:36:49.999Z</time></trkpt><trkpt lat="43.76025982930091" lon="11.202798963607542"><ele>44.0</ele><time>2026-04-04T08:36:50.999Z</time></trkpt><trkpt lat="43.760205222146" lon="11.202890325940734"><ele>44.0</ele><time>2026-04-04T08:36:51.999Z</time></trkpt><trkpt lat="43.760157352351065" lon="11.202968931077313"><ele>44.0</ele><time>2026-04-04T08:36:52.999Z</time></trkpt><trkpt lat="43.76011838053944" lon="11.203045286923128"><ele>44.0</ele><time>2026-04-04T08:36:53.999Z</time></trkpt><trkpt lat="43.76002513577496" lon="11.203073410370136"><ele>44.166666666666664</ele><time>2026-04-04T08:36:54.999Z</time></trkpt><trkpt lat="43.7599317394156" lon="11.203091339859228"><ele>44.33333333333333</ele><time>2026-04-04T08:36:55.999Z</time></trkpt><trkpt lat="43.759841754839314" lon="11.203088386863492"><ele>44.5</ele><time>2026-04-04T08:36:56.999Z</time></trkpt><trkpt lat="43.75975815914668" lon="11.203090539220154"><ele>44.666666666666664</ele><time>2026-04-04T08:36:57.999Z</time></trkpt><trkpt lat="43.75967256382259" lon="11.20309561177755"><ele>44.833333333333336</ele><time>2026-04-04T08:36:58.999Z</time></trkpt><trkpt lat="43.75959350490312" lon="11.203105917983764"><ele>45.0</ele><time>2026-04-04T08:36:59.999Z</time></trkpt><trkpt lat="43.759519394109034" lon="11.203111279635927"><ele>45.0</ele><time>2026-04-04T08:37:00.999Z</time></trkpt><trkpt lat="43.75941037723663" lon="11.20311857824244"><ele>45.0</ele><time>2026-04-04T08:37:02.999Z</time></trkpt><trkpt lat="43.759340610351146" lon="11.203119862309045"><ele>45.0</ele><time>2026-04-04T08:37:04.999Z</time></trkpt><trkpt lat="43.759244717390054" lon="11.203111587818732"><ele>45.0</ele><time>2026-04-04T08:37:07.999Z</time></trkpt><trkpt lat="43.75914801234306" lon="11.202988147804977"><ele>45.0</ele><time>2026-04-04T08:37:09.999Z</time></trkpt><trkpt lat="43.759104945284925" lon="11.202885640927743"><ele>45.4</ele><time>2026-04-04T08:37:10.999Z</time></trkpt><trkpt lat="43.75905665109955" lon="11.20277565709846"><ele>45.8</ele><time>2026-04-04T08:37:11.999Z</time></trkpt><trkpt lat="43.75900943839677" lon="11.20266524233612"><ele>46.2</ele><time>2026-04-04T08:37:12.999Z</time></trkpt><trkpt lat="43.75897729271348" lon="11.202552429612453"><ele>46.6</ele><time>2026-04-04T08:37:13.999Z</time></trkpt><trkpt lat="43.75893689998152" lon="11.20243033313449"><ele>47.0</ele><time>2026-04-04T08:37:14.999Z</time></trkpt><trkpt lat="43.75888754812085" lon="11.202293643306822"><ele>47.25</ele><time>2026-04-04T08:37:15.999Z</time></trkpt><trkpt lat="43.75884306070067" lon="11.202150388867317"><ele>47.5</ele><time>2026-04-04T08:37:16.999Z</time></trkpt><trkpt lat="43.75879287264433" lon="11.201987829549891"><ele>47.75</ele><time>2026-04-04T08:37:17.999Z</time></trkpt><trkpt lat="43.75874068667455" lon="11.201820706887302"><ele>48.0</ele><time>2026-04-04T08:37:18.999Z</time></trkpt><trkpt lat="43.758694119728894" lon="11.201666985583826"><ele>48.0</ele><time>2026-04-04T08:37:19.999Z</time></trkpt><trkpt lat="43.758647369974334" lon="11.20151935134034"><ele>48.0</ele><time>2026-04-04T08:37:20.999Z</time></trkpt><trkpt lat="43.758591503503744" lon="11.201387450779691"><ele>48.0</ele><time>2026-04-04T08:37:21.999Z</time></trkpt><trkpt lat="43.75852274244098" lon="11.201269606041647"><ele>48.0</ele><time>2026-04-04T08:37:22.999Z</time></trkpt><trkpt lat="43.75843805039556" lon="11.201150344151063"><ele>48.0</ele><time>2026-04-04T08:37:23.999Z</time></trkpt><trkpt lat="43.75833440591969" lon="11.201025250890613"><ele>48.0</ele><time>2026-04-04T08:37:24.999Z</time></trkpt><trkpt lat="43.758221295652625" lon="11.200899526659631"><ele>48.0</ele><time>2026-04-04T08:37:25.999Z</time></trkpt><trkpt lat="43.75809984285704" lon="11.20077044871649"><ele>48.0</ele><time>2026-04-04T08:37:26.999Z</time></trkpt><trkpt lat="43.75798779828817" lon="11.20063550653224"><ele>47.599999999999994</ele><time>2026-04-04T08:37:27.999Z</time></trkpt><trkpt lat="43.7578910008061" lon="11.20052329002536"><ele>47.199999999999996</ele><time>2026-04-04T08:37:28.999Z</time></trkpt><trkpt lat="43.75779828038633" lon="11.200430795434347"><ele>46.8</ele><time>2026-04-04T08:37:29.999Z</time></trkpt><trkpt lat="43.75773024767101" lon="11.200331084146276"><ele>46.4</ele><time>2026-04-04T08:37:30.999Z</time></trkpt><trkpt lat="43.75769522850897" lon="11.200197753723584"><ele>46.0</ele><time>2026-04-04T08:37:31.999Z</time></trkpt><trkpt lat="43.75763277504726" lon="11.2000710375918"><ele>46.0</ele><time>2026-04-04T08:37:32.999Z</time></trkpt><trkpt lat="43.75756617767614" lon="11.199931037857283"><ele>46.0</ele><time>2026-04-04T08:37:33.999Z</time></trkpt><trkpt lat="43.75749782660463" lon="11.199786879903833"><ele>46.0</ele><time>2026-04-04T08:37:34.999Z</time></trkpt><trkpt lat="43.757442165039976" lon="11.19966531447954"><ele>46.0</ele><time>2026-04-04T08:37:35.999Z</time></trkpt><trkpt lat="43.757389332968664" lon="11.199545129224699"><ele>46.16666666666667</ele><time>2026-04-04T08:37:36.999Z</time></trkpt><trkpt lat="43.75734143268585" lon="11.199423090053259"><ele>46.333333333333336</ele><time>2026-04-04T08:37:37.999Z</time></trkpt><trkpt lat="43.75729532652353" lon="11.199306389422816"><ele>46.5</ele><time>2026-04-04T08:37:38.999Z</time></trkpt><trkpt lat="43.75725504637139" lon="11.19920481343166"><ele>46.666666666666664</ele><time>2026-04-04T08:37:39.999Z</time></trkpt><trkpt lat="43.757222703474" lon="11.199123214379561"><ele>46.83333333333333</ele><time>2026-04-04T08:37:40.999Z</time></trkpt><trkpt lat="43.75717591226866" lon="11.19900516317135"><ele>47.0</ele><time>2026-04-04T08:37:43Z</time></trkpt><trkpt lat="43.75713135406447" lon="11.198899672910665"><ele>47.2</ele><time>2026-04-04T08:37:46Z</time></trkpt><trkpt lat="43.75709265208991" lon="11.198808917077228"><ele>47.400000000000006</ele><time>2026-04-04T08:37:49Z</time></trkpt><trkpt lat="43.757055553029375" lon="11.198721920050197"><ele>47.599999999999994</ele><time>2026-04-04T08:37:52Z</time></trkpt><trkpt lat="43.75700945801082" lon="11.198632010403106"><ele>47.8</ele><time>2026-04-04T08:37:56Z</time></trkpt><trkpt lat="43.75695479573116" lon="11.198550986159791"><ele>48.0</ele><time>2026-04-04T08:37:59Z</time></trkpt><trkpt lat="43.756785690983584" lon="11.198732972969571"><ele>48.0</ele><time>2026-04-04T08:38:00Z</time></trkpt><trkpt lat="43.75671688954209" lon="11.198799486702667"><ele>48.0</ele><time>2026-04-04T08:38:01Z</time></trkpt><trkpt lat="43.75664604984062" lon="11.198881975220706"><ele>48.0</ele><time>2026-04-04T08:38:02Z</time></trkpt><trkpt lat="43.75657143364986" lon="11.19897020082933"><ele>48.0</ele><time>2026-04-04T08:38:03Z</time></trkpt><trkpt lat="43.75651888962724" lon="11.199056791524404"><ele>48.0</ele><time>2026-04-04T08:38:04Z</time></trkpt><trkpt lat="43.75643709778468" lon="11.199159468258234"><ele>47.75</ele><time>2026-04-04T08:38:05Z</time></trkpt><trkpt lat="43.75634599148034" lon="11.199275707080574"><ele>47.5</ele><time>2026-04-04T08:38:06Z</time></trkpt><trkpt lat="43.75625630565804" lon="11.199406676739654"><ele>47.25</ele><time>2026-04-04T08:38:07Z</time></trkpt><trkpt lat="43.756148333722344" lon="11.199538821208108"><ele>47.0</ele><time>2026-04-04T08:38:08Z</time></trkpt><trkpt lat="43.75604229184607" lon="11.199669022191943"><ele>47.25</ele><time>2026-04-04T08:38:09Z</time></trkpt><trkpt lat="43.75593984924693" lon="11.199797333540642"><ele>47.5</ele><time>2026-04-04T08:38:10Z</time></trkpt><trkpt lat="43.75583937429101" lon="11.199923647243729"><ele>47.75</ele><time>2026-04-04T08:38:11Z</time></trkpt><trkpt lat="43.7557209850946" lon="11.2000210285653"><ele>48.0</ele><time>2026-04-04T08:38:12Z</time></trkpt><trkpt lat="43.75561456886755" lon="11.200092956006946"><ele>48.0</ele><time>2026-04-04T08:38:13Z</time></trkpt><trkpt lat="43.75549518666418" lon="11.200152325783257"><ele>48.0</ele><time>2026-04-04T08:38:13.999Z</time></trkpt><trkpt lat="43.755377008851006" lon="11.200209970830747"><ele>48.0</ele><time>2026-04-04T08:38:14.999Z</time></trkpt><trkpt lat="43.75525607543981" lon="11.200268165138933"><ele>48.0</ele><time>2026-04-04T08:38:15.999Z</time></trkpt><trkpt lat="43.75512604365238" lon="11.200334147618085"><ele>48.0</ele><time>2026-04-04T08:38:16.999Z</time></trkpt><trkpt lat="43.75498900808938" lon="11.200410634000315"><ele>48.0</ele><time>2026-04-04T08:38:17.999Z</time></trkpt><trkpt lat="43.7548507162482" lon="11.200496735027432"><ele>48.0</ele><time>2026-04-04T08:38:18.999Z</time></trkpt><trkpt lat="43.75472544199819" lon="11.200578796839212"><ele>48.0</ele><time>2026-04-04T08:38:19.999Z</time></trkpt><trkpt lat="43.75461093438128" lon="11.20064863117131"><ele>48.25</ele><time>2026-04-04T08:38:20.999Z</time></trkpt><trkpt lat="43.75450191347624" lon="11.200695024619023"><ele>48.5</ele><time>2026-04-04T08:38:21.999Z</time></trkpt><trkpt lat="43.75438946018567" lon="11.200717952529972"><ele>48.75</ele><time>2026-04-04T08:38:22.999Z</time></trkpt><trkpt lat="43.754256118230664" lon="11.2007136835122"><ele>49.0</ele><time>2026-04-04T08:38:23.999Z</time></trkpt><trkpt lat="43.75410163045222" lon="11.20070217082868"><ele>50.25</ele><time>2026-04-04T08:38:24.999Z</time></trkpt><trkpt lat="43.7539461539997" lon="11.200701902732494"><ele>51.5</ele><time>2026-04-04T08:38:25.999Z</time></trkpt><trkpt lat="43.75379825799556" lon="11.200730440699315"><ele>52.75</ele><time>2026-04-04T08:38:26.999Z</time></trkpt><trkpt lat="43.753677848847175" lon="11.200793189108937"><ele>54.0</ele><time>2026-04-04T08:38:27.999Z</time></trkpt><trkpt lat="43.753570283067056" lon="11.20087286634172"><ele>53.6</ele><time>2026-04-04T08:38:28.999Z</time></trkpt><trkpt lat="43.753471909801625" lon="11.200953947483198"><ele>53.2</ele><time>2026-04-04T08:38:29.999Z</time></trkpt><trkpt lat="43.753382887283024" lon="11.201029961299293"><ele>52.800000000000004</ele><time>2026-04-04T08:38:30.999Z</time></trkpt><trkpt lat="43.75330901841038" lon="11.201108734247699"><ele>52.400000000000006</ele><time>2026-04-04T08:38:31.999Z</time></trkpt><trkpt lat="43.7532378587" lon="11.201209374878161"><ele>52.0</ele><time>2026-04-04T08:38:32.999Z</time></trkpt><trkpt lat="43.75318129654784" lon="11.2013243258216"><ele>52.0</ele><time>2026-04-04T08:38:33.999Z</time></trkpt><trkpt lat="43.753138733094836" lon="11.201458083868095"><ele>52.0</ele><time>2026-04-04T08:38:34.999Z</time></trkpt><trkpt lat="43.75308593593312" lon="11.201607062741685"><ele>52.0</ele><time>2026-04-04T08:38:35.999Z</time></trkpt><trkpt lat="43.753041525743946" lon="11.201783460169521"><ele>52.0</ele><time>2026-04-04T08:38:36.999Z</time></trkpt><trkpt lat="43.75299203256388" lon="11.201980047251814"><ele>52.75</ele><time>2026-04-04T08:38:37.999Z</time></trkpt><trkpt lat="43.75296215455814" lon="11.202165727303704"><ele>53.5</ele><time>2026-04-04T08:38:38.999Z</time></trkpt><trkpt lat="43.75292198754533" lon="11.202316749499538"><ele>54.25</ele><time>2026-04-04T08:38:39.999Z</time></trkpt><trkpt lat="43.75288721573441" lon="11.202456183027953"><ele>55.0</ele><time>2026-04-04T08:38:40.999Z</time></trkpt><trkpt lat="43.75284267546492" lon="11.202587266742428"><ele>55.0</ele><time>2026-04-04T08:38:41.999Z</time></trkpt><trkpt lat="43.752759074131326" lon="11.20268595297731"><ele>55.0</ele><time>2026-04-04T08:38:42.999Z</time></trkpt><trkpt lat="43.752660649443854" lon="11.202739041697892"><ele>55.0</ele><time>2026-04-04T08:38:43.999Z</time></trkpt><trkpt lat="43.752570641516655" lon="11.202801271679947"><ele>55.0</ele><time>2026-04-04T08:38:44.999Z</time></trkpt><trkpt lat="43.752484768220064" lon="11.20285938927469"><ele>55.0</ele><time>2026-04-04T08:38:45.999Z</time></trkpt><trkpt lat="43.752400328494645" lon="11.202916536645894"><ele>54.8</ele><time>2026-04-04T08:38:46.999Z</time></trkpt><trkpt lat="43.75232504584612" lon="11.202977380691951"><ele>54.6</ele><time>2026-04-04T08:38:47.999Z</time></trkpt><trkpt lat="43.752249795929636" lon="11.20307556830525"><ele>54.400000000000006</ele><time>2026-04-04T08:38:48.999Z</time></trkpt><trkpt lat="43.75219716749911" lon="11.203222485720422"><ele>54.2</ele><time>2026-04-04T08:38:49.999Z</time></trkpt><trkpt lat="43.75214188617435" lon="11.203373141784517"><ele>54.0</ele><time>2026-04-04T08:38:50.999Z</time></trkpt><trkpt lat="43.752097664301644" lon="11.203536037032304"><ele>54.0</ele><time>2026-04-04T08:38:51.999Z</time></trkpt><trkpt lat="43.752056799911635" lon="11.203688075478075"><ele>54.0</ele><time>2026-04-04T08:38:52.999Z</time></trkpt><trkpt lat="43.75202017967233" lon="11.2038359381126"><ele>54.0</ele><time>2026-04-04T08:38:53.999Z</time></trkpt><trkpt lat="43.751991258081695" lon="11.203987613063989"><ele>54.0</ele><time>2026-04-04T08:38:54.999Z</time></trkpt><trkpt lat="43.75196207045556" lon="11.204148739806428"><ele>52.75</ele><time>2026-04-04T08:38:55.999Z</time></trkpt><trkpt lat="43.75194896837293" lon="11.20431145797801"><ele>51.5</ele><time>2026-04-04T08:38:56.999Z</time></trkpt><trkpt lat="43.75193053724263" lon="11.204472504669493"><ele>50.25</ele><time>2026-04-04T08:38:57.999Z</time></trkpt><trkpt lat="43.751905040719194" lon="11.204632530494395"><ele>49.0</ele><time>2026-04-04T08:38:58.999Z</time></trkpt><trkpt lat="43.751852361858354" lon="11.204788708817828"><ele>50.0</ele><time>2026-04-04T08:38:59.999Z</time></trkpt><trkpt lat="43.75182512586705" lon="11.204963100454838"><ele>51.0</ele><time>2026-04-04T08:39:00.999Z</time></trkpt><trkpt lat="43.751747301366365" lon="11.205105443696862"><ele>52.0</ele><time>2026-04-04T08:39:01.999Z</time></trkpt><trkpt lat="43.7516762825711" lon="11.20526385033525"><ele>53.0</ele><time>2026-04-04T08:39:02.999Z</time></trkpt><trkpt lat="43.75159769492641" lon="11.205437457595933"><ele>53.0</ele><time>2026-04-04T08:39:03.999Z</time></trkpt><trkpt lat="43.751510121029355" lon="11.205624779676105"><ele>53.0</ele><time>2026-04-04T08:39:04.999Z</time></trkpt><trkpt lat="43.75142338826842" lon="11.205799406756112"><ele>53.0</ele><time>2026-04-04T08:39:05.999Z</time></trkpt><trkpt lat="43.75134322357457" lon="11.205957042733939"><ele>54.5</ele><time>2026-04-04T08:39:06.999Z</time></trkpt><trkpt lat="43.75126513412811" lon="11.206106143772333"><ele>56.0</ele><time>2026-04-04T08:39:07.999Z</time></trkpt><trkpt lat="43.75118969677774" lon="11.20624631164916"><ele>57.5</ele><time>2026-04-04T08:39:08.999Z</time></trkpt><trkpt lat="43.751120242713185" lon="11.206371123639217"><ele>59.0</ele><time>2026-04-04T08:39:09.999Z</time></trkpt><trkpt lat="43.75105339492491" lon="11.206483061331474"><ele>58.16666666666667</ele><time>2026-04-04T08:39:10.999Z</time></trkpt><trkpt lat="43.750981409396566" lon="11.206567823444958"><ele>57.333333333333336</ele><time>2026-04-04T08:39:11.999Z</time></trkpt><trkpt lat="43.75090527825135" lon="11.20663722907155"><ele>56.5</ele><time>2026-04-04T08:39:12.999Z</time></trkpt><trkpt lat="43.750826298167176" lon="11.206687393522124"><ele>55.66666666666667</ele><time>2026-04-04T08:39:13.999Z</time></trkpt><trkpt lat="43.750751982057224" lon="11.206735249454598"><ele>54.833333333333336</ele><time>2026-04-04T08:39:14.999Z</time></trkpt><trkpt lat="43.75067430628033" lon="11.206786136210996"><ele>54.0</ele><time>2026-04-04T08:39:15.999Z</time></trkpt><trkpt lat="43.75058919653836" lon="11.206842090712815"><ele>54.0</ele><time>2026-04-04T08:39:16.999Z</time></trkpt><trkpt lat="43.75051890626964" lon="11.20688830230952"><ele>54.00000000000001</ele><time>2026-04-04T08:39:17.999Z</time></trkpt><trkpt lat="43.750462209347745" lon="11.206926526754849"><ele>54.00000000000001</ele><time>2026-04-04T08:39:18.999Z</time></trkpt><trkpt lat="43.75035046291752" lon="11.207004064822117"><ele>54.0</ele><time>2026-04-04T08:39:20.999Z</time></trkpt><trkpt lat="43.75027172553455" lon="11.207061059269188"><ele>54.0</ele><time>2026-04-04T08:39:21.999Z</time></trkpt><trkpt lat="43.750177442124276" lon="11.207130699738704"><ele>52.33333333333333</ele><time>2026-04-04T08:39:22.999Z</time></trkpt><trkpt lat="43.75006348731504" lon="11.207213147079496"><ele>50.666666666666664</ele><time>2026-04-04T08:39:23.999Z</time></trkpt><trkpt lat="43.74992860095655" lon="11.20731250660516"><ele>49.0</ele><time>2026-04-04T08:39:24.999Z</time></trkpt><trkpt lat="43.749765828488336" lon="11.207433594744472"><ele>49.33333333333333</ele><time>2026-04-04T08:39:25.999Z</time></trkpt><trkpt lat="43.74959698350007" lon="11.207557023047974"><ele>49.66666666666667</ele><time>2026-04-04T08:39:26.999Z</time></trkpt><trkpt lat="43.749431464200455" lon="11.207671771014665"><ele>50.0</ele><time>2026-04-04T08:39:27.999Z</time></trkpt><trkpt lat="43.74927902521231" lon="11.207773298893033"><ele>50.0</ele><time>2026-04-04T08:39:28.999Z</time></trkpt><trkpt lat="43.74913871028196" lon="11.207853230720023"><ele>50.0</ele><time>2026-04-04T08:39:29.999Z</time></trkpt><trkpt lat="43.748998093129394" lon="11.207906136539165"><ele>50.0</ele><time>2026-04-04T08:39:30.999Z</time></trkpt><trkpt lat="43.74885179607241" lon="11.207940715387863"><ele>50.0</ele><time>2026-04-04T08:39:31.999Z</time></trkpt><trkpt lat="43.74867891476301" lon="11.207979458126928"><ele>50.0</ele><time>2026-04-04T08:39:32.999Z</time></trkpt><trkpt lat="43.74846904603317" lon="11.208026489752697"><ele>50.0</ele><time>2026-04-04T08:39:33.999Z</time></trkpt><trkpt lat="43.74823123674153" lon="11.208084414124494"><ele>50.0</ele><time>2026-04-04T08:39:34.999Z</time></trkpt><trkpt lat="43.74799006862234" lon="11.20814354628446"><ele>50.0</ele><time>2026-04-04T08:39:35.999Z</time></trkpt><trkpt lat="43.74773564379243" lon="11.208206678163188"><ele>51.5</ele><time>2026-04-04T08:39:36.999Z</time></trkpt><trkpt lat="43.74747776652077" lon="11.208294142303023"><ele>53.0</ele><time>2026-04-04T08:39:37.999Z</time></trkpt><trkpt lat="43.747211054148444" lon="11.208367111717592"><ele>53.0</ele><time>2026-04-04T08:39:38.999Z</time></trkpt><trkpt lat="43.746961280688396" lon="11.208410073459874"><ele>53.0</ele><time>2026-04-04T08:39:39.999Z</time></trkpt><trkpt lat="43.746736176187454" lon="11.208467071794272"><ele>52.0</ele><time>2026-04-04T08:39:40.999Z</time></trkpt><trkpt lat="43.746522958329614" lon="11.208543769451172"><ele>51.0</ele><time>2026-04-04T08:39:41.999Z</time></trkpt><trkpt lat="43.74631930868732" lon="11.208594699090664"><ele>50.0</ele><time>2026-04-04T08:39:42.999Z</time></trkpt><trkpt lat="43.746123734378756" lon="11.208660529146291"><ele>50.66666666666667</ele><time>2026-04-04T08:39:43.999Z</time></trkpt><trkpt lat="43.745933416913104" lon="11.208764798931547"><ele>51.33333333333333</ele><time>2026-04-04T08:39:44.998Z</time></trkpt><trkpt lat="43.74576240875608" lon="11.208884651201803"><ele>52.0</ele><time>2026-04-04T08:39:45.998Z</time></trkpt><trkpt lat="43.745612931193094" lon="11.2089669147301"><ele>51.75</ele><time>2026-04-04T08:39:46.998Z</time></trkpt><trkpt lat="43.745490965507" lon="11.209083799910028"><ele>51.5</ele><time>2026-04-04T08:39:48Z</time></trkpt><trkpt lat="43.745378839177064" lon="11.209194515142359"><ele>51.25</ele><time>2026-04-04T08:39:49Z</time></trkpt><trkpt lat="43.745267924311854" lon="11.209306435850717"><ele>51.0</ele><time>2026-04-04T08:39:50Z</time></trkpt><trkpt lat="43.74519831268806" lon="11.209467380475331"><ele>51.33333333333333</ele><time>2026-04-04T08:39:51Z</time></trkpt><trkpt lat="43.745110790671546" lon="11.20963393740162"><ele>51.666666666666664</ele><time>2026-04-04T08:39:52Z</time></trkpt><trkpt lat="43.745025510617864" lon="11.209848404941036"><ele>52.0</ele><time>2026-04-04T08:39:53Z</time></trkpt><trkpt lat="43.74493659670102" lon="11.210085626153703"><ele>52.0</ele><time>2026-04-04T08:39:54Z</time></trkpt><trkpt lat="43.744838217470694" lon="11.21034851200116"><ele>52.0</ele><time>2026-04-04T08:39:55Z</time></trkpt><trkpt lat="43.74475111930074" lon="11.21062323589447"><ele>52.0</ele><time>2026-04-04T08:39:56Z</time></trkpt><trkpt lat="43.74464788361218" lon="11.210903788526066"><ele>53.5</ele><time>2026-04-04T08:39:57Z</time></trkpt><trkpt lat="43.744530713554354" lon="11.211197315875001"><ele>55.0</ele><time>2026-04-04T08:39:58Z</time></trkpt><trkpt lat="43.744418814134555" lon="11.21149230031473"><ele>54.5</ele><time>2026-04-04T08:39:59Z</time></trkpt><trkpt lat="43.744322634823895" lon="11.211805652750254"><ele>54.0</ele><time>2026-04-04T08:40:00Z</time></trkpt><trkpt lat="43.74421444517632" lon="11.212080221876377"><ele>57.0</ele><time>2026-04-04T08:40:01Z</time></trkpt><trkpt lat="43.74412718826424" lon="11.212339265840965"><ele>60.0</ele><time>2026-04-04T08:40:02Z</time></trkpt><trkpt lat="43.744042722564366" lon="11.212582293931948"><ele>63.0</ele><time>2026-04-04T08:40:03Z</time></trkpt><trkpt lat="43.743952675564856" lon="11.212816042945398"><ele>63.0</ele><time>2026-04-04T08:40:04Z</time></trkpt><trkpt lat="43.74383777556228" lon="11.213045527932522"><ele>63.0</ele><time>2026-04-04T08:40:05Z</time></trkpt><trkpt lat="43.743721166600935" lon="11.213267719858633"><ele>63.0</ele><time>2026-04-04T08:40:06Z</time></trkpt><trkpt lat="43.74361165900326" lon="11.213470991622911"><ele>60.33333333333333</ele><time>2026-04-04T08:40:07Z</time></trkpt><trkpt lat="43.7435074626049" lon="11.213674068253749"><ele>57.666666666666664</ele><time>2026-04-04T08:40:08Z</time></trkpt><trkpt lat="43.74338522602494" lon="11.21383196591423"><ele>55.0</ele><time>2026-04-04T08:40:09Z</time></trkpt><trkpt lat="43.74327716626435" lon="11.213978501702764"><ele>55.49999999999999</ele><time>2026-04-04T08:40:10Z</time></trkpt><trkpt lat="43.74318244105414" lon="11.214083993657493"><ele>56.0</ele><time>2026-04-04T08:40:11Z</time></trkpt><trkpt lat="43.74311016571381" lon="11.214154989451611"><ele>56.5</ele><time>2026-04-04T08:40:12Z</time></trkpt><trkpt lat="43.74304435099113" lon="11.214230727098926"><ele>57.0</ele><time>2026-04-04T08:40:13Z</time></trkpt><trkpt lat="43.74300328570793" lon="11.214315247539808"><ele>57.49999999999999</ele><time>2026-04-04T08:40:14Z</time></trkpt><trkpt lat="43.74298537856503" lon="11.214403927126808"><ele>58.0</ele><time>2026-04-04T08:40:15Z</time></trkpt><trkpt lat="43.74299379436642" lon="11.21451605644562"><ele>57.99999999999999</ele><time>2026-04-04T08:40:16Z</time></trkpt><trkpt lat="43.74302272266453" lon="11.214613366859835"><ele>58.0</ele><time>2026-04-04T08:40:18Z</time></trkpt><trkpt lat="43.74304726312089" lon="11.214700635690802"><ele>58.0</ele><time>2026-04-04T08:40:21Z</time></trkpt><trkpt lat="43.74306909785698" lon="11.214800770890236"><ele>58.0</ele><time>2026-04-04T08:40:22.999Z</time></trkpt><trkpt lat="43.743083813257485" lon="11.214930565178907"><ele>57.99999999999999</ele><time>2026-04-04T08:40:24.999Z</time></trkpt><trkpt lat="43.743115397716316" lon="11.21508225462105"><ele>58.0</ele><time>2026-04-04T08:40:26.999Z</time></trkpt><trkpt lat="43.74314068763558" lon="11.2152077456118"><ele>58.49999999999999</ele><time>2026-04-04T08:40:28.999Z</time></trkpt><trkpt lat="43.74315715118864" lon="11.215306802728845"><ele>59.0</ele><time>2026-04-04T08:40:29.999Z</time></trkpt><trkpt lat="43.74317010112984" lon="11.215425215755833"><ele>59.5</ele><time>2026-04-04T08:40:30.999Z</time></trkpt><trkpt lat="43.74317712979536" lon="11.215539259698188"><ele>60.0</ele><time>2026-04-04T08:40:31.999Z</time></trkpt><trkpt lat="43.74317836776811" lon="11.215654786126562"><ele>60.49999999999999</ele><time>2026-04-04T08:40:32.999Z</time></trkpt><trkpt lat="43.7431766782121" lon="11.215759799778354"><ele>61.0</ele><time>2026-04-04T08:40:33.999Z</time></trkpt><trkpt lat="43.74316477702341" lon="11.215940437050651"><ele>61.99999999999999</ele><time>2026-04-04T08:40:35.999Z</time></trkpt><trkpt lat="43.74315620009422" lon="11.216049721855068"><ele>63.0</ele><time>2026-04-04T08:40:36.999Z</time></trkpt><trkpt lat="43.743146007220716" lon="11.216167128893577"><ele>64.0</ele><time>2026-04-04T08:40:37.999Z</time></trkpt><trkpt lat="43.74313254553828" lon="11.21629355554266"><ele>65.0</ele><time>2026-04-04T08:40:38.999Z</time></trkpt><trkpt lat="43.74311891591233" lon="11.216423157335825"><ele>66.0</ele><time>2026-04-04T08:40:39.999Z</time></trkpt><trkpt lat="43.74310582630558" lon="11.216543471563387"><ele>67.0</ele><time>2026-04-04T08:40:40.999Z</time></trkpt><trkpt lat="43.743092428225964" lon="11.216662931511626"><ele>68.0</ele><time>2026-04-04T08:40:41.999Z</time></trkpt><trkpt lat="43.74307948381127" lon="11.216778346555373"><ele>69.0</ele><time>2026-04-04T08:40:42.999Z</time></trkpt><trkpt lat="43.74306651794683" lon="11.216885958140548"><ele>70.0</ele><time>2026-04-04T08:40:43.999Z</time></trkpt><trkpt lat="43.7430529238494" lon="11.216996859851639"><ele>71.0</ele><time>2026-04-04T08:40:44.999Z</time></trkpt><trkpt lat="43.74303889172567" lon="11.217111336140341"><ele>72.0</ele><time>2026-04-04T08:40:45.999Z</time></trkpt><trkpt lat="43.743025126462825" lon="11.21722363588212"><ele>73.0</ele><time>2026-04-04T08:40:46.999Z</time></trkpt><trkpt lat="43.7430125107997" lon="11.217326556963883"><ele>73.4</ele><time>2026-04-04T08:40:47.999Z</time></trkpt><trkpt lat="43.7430464474158" lon="11.217427009740533"><ele>73.8</ele><time>2026-04-04T08:40:48.999Z</time></trkpt><trkpt lat="43.743043403453704" lon="11.21757287609393"><ele>74.2</ele><time>2026-04-04T08:40:50.999Z</time></trkpt><trkpt lat="43.74304734561839" lon="11.217728302892326"><ele>74.6</ele><time>2026-04-04T08:40:52.999Z</time></trkpt><trkpt lat="43.74305490971889" lon="11.217855393335439"><ele>75.0</ele><time>2026-04-04T08:40:54.999Z</time></trkpt><trkpt lat="43.743064849889336" lon="11.21799181482856"><ele>75.0</ele><time>2026-04-04T08:40:56.999Z</time></trkpt><trkpt lat="43.743076292833464" lon="11.218120760444178"><ele>75.0</ele><time>2026-04-04T08:40:58.999Z</time></trkpt><trkpt lat="43.74308888446055" lon="11.218234110431778"><ele>75.0</ele><time>2026-04-04T08:41:00.999Z</time></trkpt><trkpt lat="43.743107049184225" lon="11.21840383473221"><ele>75.0</ele><time>2026-04-04T08:41:02.999Z</time></trkpt><trkpt lat="43.743120184168916" lon="11.218508850344568"><ele>75.0</ele><time>2026-04-04T08:41:03.999Z</time></trkpt><trkpt lat="43.74312389635999" lon="11.218612563525287"><ele>74.33333333333333</ele><time>2026-04-04T08:41:04.999Z</time></trkpt><trkpt lat="43.74312074121714" lon="11.218719878704183"><ele>73.66666666666667</ele><time>2026-04-04T08:41:05.999Z</time></trkpt><trkpt lat="43.7431127492881" lon="11.218822310890701"><ele>73.0</ele><time>2026-04-04T08:41:06.999Z</time></trkpt><trkpt lat="43.74310280309346" lon="11.218913150733993"><ele>72.33333333333334</ele><time>2026-04-04T08:41:07.999Z</time></trkpt><trkpt lat="43.74308045782432" lon="11.219051963716964"><ele>71.66666666666667</ele><time>2026-04-04T08:41:09.999Z</time></trkpt><trkpt lat="43.74301107184391" lon="11.219113174124226"><ele>71.0</ele><time>2026-04-04T08:41:11.999Z</time></trkpt><trkpt lat="43.74297257856674" lon="11.219187114267022"><ele>70.6</ele><time>2026-04-04T08:41:14.999Z</time></trkpt><trkpt lat="43.74293008753191" lon="11.219252539162978"><ele>70.19999999999999</ele><time>2026-04-04T08:41:18.999Z</time></trkpt><trkpt lat="43.74286403158407" lon="11.219305588261982"><ele>69.80000000000001</ele><time>2026-04-04T08:41:24.999Z</time></trkpt><trkpt lat="43.74273255996603" lon="11.219232571364017"><ele>69.4</ele><time>2026-04-04T08:41:26.999Z</time></trkpt><trkpt lat="43.742659139386305" lon="11.219186520153627"><ele>69.0</ele><time>2026-04-04T08:41:27.999Z</time></trkpt><trkpt lat="43.74256199584515" lon="11.219209207722995"><ele>69.8</ele><time>2026-04-04T08:41:28.999Z</time></trkpt><trkpt lat="43.742471287154736" lon="11.219279656947093"><ele>70.60000000000001</ele><time>2026-04-04T08:41:29.999Z</time></trkpt><trkpt lat="43.74241693888419" lon="11.219381959525887"><ele>71.4</ele><time>2026-04-04T08:41:30.999Z</time></trkpt><trkpt lat="43.74238861194995" lon="11.219507299786647"><ele>72.2</ele><time>2026-04-04T08:41:31.999Z</time></trkpt><trkpt lat="43.742356551831186" lon="11.219652571008375"><ele>73.0</ele><time>2026-04-04T08:41:32.999Z</time></trkpt><trkpt lat="43.74243770122177" lon="11.21971948804792"><ele>72.33333333333333</ele><time>2026-04-04T08:41:33.999Z</time></trkpt><trkpt lat="43.74247084976334" lon="11.219892247485433"><ele>71.66666666666667</ele><time>2026-04-04T08:41:34.999Z</time></trkpt><trkpt lat="43.74250288116425" lon="11.220114981125501"><ele>71.0</ele><time>2026-04-04T08:41:35.999Z</time></trkpt><trkpt lat="43.74247315676073" lon="11.220362043636493"><ele>71.0</ele><time>2026-04-04T08:41:36.999Z</time></trkpt><trkpt lat="43.74246072806156" lon="11.220633816323454"><ele>71.0</ele><time>2026-04-04T08:41:37.999Z</time></trkpt><trkpt lat="43.74244700762768" lon="11.220926238934407"><ele>71.0</ele><time>2026-04-04T08:41:38.999Z</time></trkpt><trkpt lat="43.74243333527104" lon="11.22121934022721"><ele>76.66666666666667</ele><time>2026-04-04T08:41:39.999Z</time></trkpt><trkpt lat="43.742419840224755" lon="11.221509545386885"><ele>82.33333333333333</ele><time>2026-04-04T08:41:40.999Z</time></trkpt><trkpt lat="43.74240643463854" lon="11.22179782713821"><ele>88.0</ele><time>2026-04-04T08:41:41.999Z</time></trkpt><trkpt lat="43.74239309945168" lon="11.222085977867597"><ele>89.33333333333333</ele><time>2026-04-04T08:41:42.999Z</time></trkpt><trkpt lat="43.74238090014281" lon="11.22237465065442"><ele>90.66666666666667</ele><time>2026-04-04T08:41:43.999Z</time></trkpt><trkpt lat="43.74236756813329" lon="11.222681711518417"><ele>92.0</ele><time>2026-04-04T08:41:45.066Z</time></trkpt><trkpt lat="43.74235502337232" lon="11.222970640540819"><ele>76.0</ele><time>2026-04-04T08:41:46.069Z</time></trkpt><trkpt lat="43.74222314491939" lon="11.224357440790067"><ele>76.0</ele><time>2026-04-04T08:41:51.999Z</time></trkpt><trkpt lat="43.7422098823172" lon="11.224465972730808"><ele>76.0</ele><time>2026-04-04T08:41:52.999Z</time></trkpt><trkpt lat="43.742227784473265" lon="11.224593445232996"><ele>76.0</ele><time>2026-04-04T08:41:53.999Z</time></trkpt><trkpt lat="43.742192602010334" lon="11.224708103185627"><ele>76.0</ele><time>2026-04-04T08:41:55.998Z</time></trkpt><trkpt lat="43.74215256190923" lon="11.224780637932337"><ele>76.0</ele><time>2026-04-04T08:41:58Z</time></trkpt><trkpt lat="43.74205951523946" lon="11.224841361440008"><ele>76.0</ele><time>2026-04-04T08:42:00Z</time></trkpt><trkpt lat="43.74198174421165" lon="11.224862956269455"><ele>75.39999999999999</ele><time>2026-04-04T08:42:01Z</time></trkpt><trkpt lat="43.74191355805273" lon="11.22485879879514"><ele>74.8</ele><time>2026-04-04T08:42:02Z</time></trkpt><trkpt lat="43.74177850992414" lon="11.224836318853402"><ele>74.19999999999999</ele><time>2026-04-04T08:42:04Z</time></trkpt><trkpt lat="43.74170794412142" lon="11.224811190892352"><ele>73.6</ele><time>2026-04-04T08:42:05Z</time></trkpt><trkpt lat="43.74160313505424" lon="11.22475594340545"><ele>73.0</ele><time>2026-04-04T08:42:07Z</time></trkpt><trkpt lat="43.74154278302869" lon="11.22472744114083"><ele>72.33333333333333</ele><time>2026-04-04T08:42:08Z</time></trkpt><trkpt lat="43.741465627840356" lon="11.224688613173484"><ele>71.66666666666666</ele><time>2026-04-04T08:42:09Z</time></trkpt><trkpt lat="43.741390930420806" lon="11.224653441161957"><ele>71.0</ele><time>2026-04-04T08:42:10Z</time></trkpt><trkpt lat="43.7413154783681" lon="11.224620192887553"><ele>70.33333333333333</ele><time>2026-04-04T08:42:11Z</time></trkpt><trkpt lat="43.741232457060946" lon="11.224583579868389"><ele>69.66666666666667</ele><time>2026-04-04T08:42:12Z</time></trkpt><trkpt lat="43.74115256731616" lon="11.22455731687997"><ele>69.0</ele><time>2026-04-04T08:42:13Z</time></trkpt><trkpt lat="43.74107730570119" lon="11.22453570318949"><ele>68.60000000000001</ele><time>2026-04-04T08:42:14Z</time></trkpt><trkpt lat="43.740989377220586" lon="11.224508132250502"><ele>68.2</ele><time>2026-04-04T08:42:15Z</time></trkpt><trkpt lat="43.74089967405777" lon="11.224486930255797"><ele>67.80000000000001</ele><time>2026-04-04T08:42:16Z</time></trkpt><trkpt lat="43.74082216087043" lon="11.22447828244794"><ele>67.4</ele><time>2026-04-04T08:42:17Z</time></trkpt><trkpt lat="43.74075240019802" lon="11.224467480737975"><ele>67.0</ele><time>2026-04-04T08:42:18Z</time></trkpt><trkpt lat="43.74063182601446" lon="11.224428435223716"><ele>67.0</ele><time>2026-04-04T08:42:20Z</time></trkpt><trkpt lat="43.740569331437776" lon="11.224392495039245"><ele>67.0</ele><time>2026-04-04T08:42:21Z</time></trkpt><trkpt lat="43.74048622613436" lon="11.22436136705107"><ele>67.0</ele><time>2026-04-04T08:42:22Z</time></trkpt><trkpt lat="43.74039443055067" lon="11.224382100861066"><ele>67.0</ele><time>2026-04-04T08:42:23Z</time></trkpt><trkpt lat="43.74029750074175" lon="11.224407755112"><ele>67.0</ele><time>2026-04-04T08:42:24Z</time></trkpt><trkpt lat="43.74020745446663" lon="11.22440130770759"><ele>67.0</ele><time>2026-04-04T08:42:25Z</time></trkpt><trkpt lat="43.7401193744297" lon="11.224394986426317"><ele>66.4</ele><time>2026-04-04T08:42:26Z</time></trkpt><trkpt lat="43.74003257413977" lon="11.224388756985864"><ele>65.80000000000001</ele><time>2026-04-04T08:42:27Z</time></trkpt><trkpt lat="43.739927387480655" lon="11.224381286800947"><ele>65.2</ele><time>2026-04-04T08:42:28Z</time></trkpt><trkpt lat="43.739831380883416" lon="11.224374705950408"><ele>64.60000000000001</ele><time>2026-04-04T08:42:29Z</time></trkpt><trkpt lat="43.7397473916207" lon="11.224371350655426"><ele>64.0</ele><time>2026-04-04T08:42:30Z</time></trkpt><trkpt lat="43.739667597204296" lon="11.224371841469377"><ele>64.0</ele><time>2026-04-04T08:42:31Z</time></trkpt><trkpt lat="43.73955331825037" lon="11.224375532247436"><ele>64.0</ele><time>2026-04-04T08:42:33Z</time></trkpt><trkpt lat="43.73948349127125" lon="11.22437841969228"><ele>64.0</ele><time>2026-04-04T08:42:35Z</time></trkpt><trkpt lat="43.7393674816602" lon="11.22440117321677"><ele>64.0</ele><time>2026-04-04T08:42:51.999Z</time></trkpt><trkpt lat="43.73928031973784" lon="11.224409517763416"><ele>64.0</ele><time>2026-04-04T08:42:52.999Z</time></trkpt><trkpt lat="43.73918226984616" lon="11.22441991762793"><ele>63.75</ele><time>2026-04-04T08:42:53.999Z</time></trkpt><trkpt lat="43.73907214421443" lon="11.224432295049478"><ele>63.5</ele><time>2026-04-04T08:42:54.999Z</time></trkpt><trkpt lat="43.738956599236936" lon="11.224452265657698"><ele>63.25</ele><time>2026-04-04T08:42:55.999Z</time></trkpt><trkpt lat="43.73883196739645" lon="11.224470034186098"><ele>63.0</ele><time>2026-04-04T08:42:56.999Z</time></trkpt><trkpt lat="43.73871724385841" lon="11.224487775495016"><ele>63.0</ele><time>2026-04-04T08:42:57.999Z</time></trkpt><trkpt lat="43.73860864280514" lon="11.224501004802592"><ele>63.0</ele><time>2026-04-04T08:42:58.999Z</time></trkpt><trkpt lat="43.73849540346087" lon="11.224518393350408"><ele>63.0</ele><time>2026-04-04T08:42:59.999Z</time></trkpt><trkpt lat="43.738378659123214" lon="11.224536196644225"><ele>63.0</ele><time>2026-04-04T08:43:00.999Z</time></trkpt><trkpt lat="43.73826092358637" lon="11.224550499680083"><ele>63.2</ele><time>2026-04-04T08:43:01.999Z</time></trkpt><trkpt lat="43.738152709868814" lon="11.224569691219767"><ele>63.4</ele><time>2026-04-04T08:43:02.999Z</time></trkpt><trkpt lat="43.73805355847387" lon="11.22458879162881"><ele>63.60000000000001</ele><time>2026-04-04T08:43:03.999Z</time></trkpt><trkpt lat="43.73795791264162" lon="11.22460711416615"><ele>63.800000000000004</ele><time>2026-04-04T08:43:04.999Z</time></trkpt><trkpt lat="43.737866172639706" lon="11.224618888290777"><ele>64.0</ele><time>2026-04-04T08:43:05.999Z</time></trkpt><trkpt lat="43.73777202870655" lon="11.224636396903104"><ele>63.800000000000004</ele><time>2026-04-04T08:43:06.999Z</time></trkpt><trkpt lat="43.73767921512285" lon="11.224653390581118"><ele>63.60000000000001</ele><time>2026-04-04T08:43:07.999Z</time></trkpt><trkpt lat="43.73759720733995" lon="11.224663126091889"><ele>63.4</ele><time>2026-04-04T08:43:08.999Z</time></trkpt><trkpt lat="43.73753061842133" lon="11.224665793851765"><ele>63.2</ele><time>2026-04-04T08:43:09.999Z</time></trkpt><trkpt lat="43.73741470992695" lon="11.224589643538867"><ele>63.0</ele><time>2026-04-04T08:43:11.999Z</time></trkpt><trkpt lat="43.737348181596936" lon="11.224518312119503"><ele>63.0</ele><time>2026-04-04T08:43:12.999Z</time></trkpt><trkpt lat="43.7372477567291" lon="11.224418721223016"><ele>63.0</ele><time>2026-04-04T08:43:13.999Z</time></trkpt><trkpt lat="43.73714616099479" lon="11.224326610249383"><ele>63.0</ele><time>2026-04-04T08:43:14.999Z</time></trkpt><trkpt lat="43.737050479977874" lon="11.224236833639896"><ele>63.0</ele><time>2026-04-04T08:43:15.999Z</time></trkpt><trkpt lat="43.73696654659589" lon="11.224158324223824"><ele>63.0</ele><time>2026-04-04T08:43:16.999Z</time></trkpt><trkpt lat="43.73689819271045" lon="11.224094414561762"><ele>63.0</ele><time>2026-04-04T08:43:17.999Z</time></trkpt><trkpt lat="43.73682830235552" lon="11.224035207818028"><ele>63.0</ele><time>2026-04-04T08:43:19.999Z</time></trkpt><trkpt lat="43.73676826996031" lon="11.223986473466011"><ele>63.0</ele><time>2026-04-04T08:43:23.999Z</time></trkpt><trkpt lat="43.73671292697179" lon="11.223943471554641"><ele>63.0</ele><time>2026-04-04T08:43:26.999Z</time></trkpt><trkpt lat="43.73662297688196" lon="11.223841757918919"><ele>63.0</ele><time>2026-04-04T08:43:28.999Z</time></trkpt><trkpt lat="43.73655270587983" lon="11.22377215832708"><ele>63.0</ele><time>2026-04-04T08:43:30.999Z</time></trkpt><trkpt lat="43.73649675165984" lon="11.223713398488915"><ele>63.0</ele><time>2026-04-04T08:43:32.999Z</time></trkpt><trkpt lat="43.73638848687749" lon="11.223617086854329"><ele>63.0</ele><time>2026-04-04T08:43:34.999Z</time></trkpt><trkpt lat="43.73632416491618" lon="11.22356524430035"><ele>63.0</ele><time>2026-04-04T08:43:35.999Z</time></trkpt><trkpt lat="43.73626273600817" lon="11.223506992820006"><ele>63.0</ele><time>2026-04-04T08:43:36.999Z</time></trkpt><trkpt lat="43.73620432878745" lon="11.223454751740974"><ele>63.0</ele><time>2026-04-04T08:43:37.999Z</time></trkpt><trkpt lat="43.73612955702661" lon="11.223393578356754"><ele>63.0</ele><time>2026-04-04T08:43:38.999Z</time></trkpt><trkpt lat="43.7360576726835" lon="11.22332335169291"><ele>63.0</ele><time>2026-04-04T08:43:39.999Z</time></trkpt><trkpt lat="43.735982801997636" lon="11.223251487041747"><ele>63.0</ele><time>2026-04-04T08:43:40.999Z</time></trkpt><trkpt lat="43.73590559716143" lon="11.223176842592153"><ele>63.0</ele><time>2026-04-04T08:43:41.999Z</time></trkpt><trkpt lat="43.73582917085734" lon="11.223111869314872"><ele>63.0</ele><time>2026-04-04T08:43:42.999Z</time></trkpt><trkpt lat="43.73576087845928" lon="11.223048064411392"><ele>63.0</ele><time>2026-04-04T08:43:43.999Z</time></trkpt><trkpt lat="43.73569701861606" lon="11.222993210662723"><ele>62.833333333333336</ele><time>2026-04-04T08:43:44.999Z</time></trkpt><trkpt lat="43.73563671404421" lon="11.222936647836407"><ele>62.66666666666667</ele><time>2026-04-04T08:43:45.999Z</time></trkpt><trkpt lat="43.735574634807904" lon="11.222876821302474"><ele>62.5</ele><time>2026-04-04T08:43:46.999Z</time></trkpt><trkpt lat="43.735502508173106" lon="11.222813068427104"><ele>62.333333333333336</ele><time>2026-04-04T08:43:47.999Z</time></trkpt><trkpt lat="43.735441311190094" lon="11.222753776125785"><ele>62.16666666666667</ele><time>2026-04-04T08:43:48.999Z</time></trkpt><trkpt lat="43.735387845787855" lon="11.222702281979894"><ele>62.0</ele><time>2026-04-04T08:43:49.999Z</time></trkpt><trkpt lat="43.735297726219926" lon="11.222619092133883"><ele>62.00000000000001</ele><time>2026-04-04T08:43:51.999Z</time></trkpt><trkpt lat="43.73523889158013" lon="11.222566005581104"><ele>62.0</ele><time>2026-04-04T08:43:54.999Z</time></trkpt><trkpt lat="43.735204462256895" lon="11.222468388843094"><ele>62.0</ele><time>2026-04-04T08:49:27.999Z</time></trkpt><trkpt lat="43.73515599306371" lon="11.222412073117228"><ele>62.0</ele><time>2026-04-04T08:49:28.999Z</time></trkpt><trkpt lat="43.73508144257103" lon="11.222345985616768"><ele>62.00000000000001</ele><time>2026-04-04T08:49:29.999Z</time></trkpt><trkpt lat="43.735006770431546" lon="11.222258819112003"><ele>62.0</ele><time>2026-04-04T08:49:30.999Z</time></trkpt><trkpt lat="43.73492575023321" lon="11.222162631533058"><ele>61.8</ele><time>2026-04-04T08:49:31.999Z</time></trkpt><trkpt lat="43.73485729885445" lon="11.222070804264765"><ele>61.6</ele><time>2026-04-04T08:49:32.999Z</time></trkpt><trkpt lat="43.73479747566338" lon="11.221965943197858"><ele>61.39999999999999</ele><time>2026-04-04T08:49:33.999Z</time></trkpt><trkpt lat="43.73473195858322" lon="11.221872224852557"><ele>61.199999999999996</ele><time>2026-04-04T08:49:34.999Z</time></trkpt><trkpt lat="43.73467482892395" lon="11.221778372956107"><ele>61.0</ele><time>2026-04-04T08:49:35.999Z</time></trkpt><trkpt lat="43.734637464675906" lon="11.221660085070692"><ele>61.0</ele><time>2026-04-04T08:49:36.999Z</time></trkpt><trkpt lat="43.73459155286447" lon="11.221538362430378"><ele>61.0</ele><time>2026-04-04T08:49:37.999Z</time></trkpt><trkpt lat="43.73454412362089" lon="11.221404252177393"><ele>61.0</ele><time>2026-04-04T08:49:38.999Z</time></trkpt><trkpt lat="43.73445839842208" lon="11.221249773285122"><ele>61.0</ele><time>2026-04-04T08:49:39.999Z</time></trkpt><trkpt lat="43.734389395182866" lon="11.221082216881259"><ele>60.0</ele><time>2026-04-04T08:49:40.999Z</time></trkpt><trkpt lat="43.73431271694834" lon="11.220915433320997"><ele>59.0</ele><time>2026-04-04T08:49:41.999Z</time></trkpt><trkpt lat="43.734229124743365" lon="11.220770644748917"><ele>58.0</ele><time>2026-04-04T08:49:42.999Z</time></trkpt><trkpt lat="43.73416860919067" lon="11.220638752870016"><ele>57.0</ele><time>2026-04-04T08:49:43.999Z</time></trkpt><trkpt lat="43.73411350452219" lon="11.220518364588086"><ele>56.8</ele><time>2026-04-04T08:49:44.999Z</time></trkpt><trkpt lat="43.7340552610165" lon="11.22040401830037"><ele>56.6</ele><time>2026-04-04T08:49:45.999Z</time></trkpt><trkpt lat="43.73399704724659" lon="11.220295508706116"><ele>56.39999999999999</ele><time>2026-04-04T08:49:46.999Z</time></trkpt><trkpt lat="43.733927751459014" lon="11.220173958779593"><ele>56.199999999999996</ele><time>2026-04-04T08:49:47.999Z</time></trkpt><trkpt lat="43.73386190000419" lon="11.220047657355543"><ele>56.0</ele><time>2026-04-04T08:49:48.999Z</time></trkpt><trkpt lat="43.7338129310171" lon="11.219925344678503"><ele>56.0</ele><time>2026-04-04T08:49:49.999Z</time></trkpt><trkpt lat="43.733744059780996" lon="11.21980498422852"><ele>56.0</ele><time>2026-04-04T08:49:50.999Z</time></trkpt><trkpt lat="43.733667362235636" lon="11.219673339619384"><ele>56.0</ele><time>2026-04-04T08:49:51.999Z</time></trkpt><trkpt lat="43.733577141609366" lon="11.21955487697519"><ele>56.0</ele><time>2026-04-04T08:49:52.999Z</time></trkpt><trkpt lat="43.73350816322667" lon="11.219422145206359"><ele>56.599999999999994</ele><time>2026-04-04T08:49:53.999Z</time></trkpt><trkpt lat="43.73346091153346" lon="11.219292861734639"><ele>57.199999999999996</ele><time>2026-04-04T08:49:54.999Z</time></trkpt><trkpt lat="43.73340058089563" lon="11.219191196849291"><ele>57.800000000000004</ele><time>2026-04-04T08:49:55.999Z</time></trkpt><trkpt lat="43.73335304963321" lon="11.219071024620451"><ele>58.400000000000006</ele><time>2026-04-04T08:49:56.999Z</time></trkpt><trkpt lat="43.733305529448586" lon="11.218930374729966"><ele>59.0</ele><time>2026-04-04T08:49:57.999Z</time></trkpt><trkpt lat="43.73325544496032" lon="11.218785651695132"><ele>59.5</ele><time>2026-04-04T08:49:58.999Z</time></trkpt><trkpt lat="43.73320015404906" lon="11.21863420633501"><ele>60.0</ele><time>2026-04-04T08:49:59.999Z</time></trkpt><trkpt lat="43.733108563379496" lon="11.218489127877588"><ele>60.5</ele><time>2026-04-04T08:50:00.999Z</time></trkpt><trkpt lat="43.733007860024095" lon="11.218328604652616"><ele>61.0</ele><time>2026-04-04T08:50:01.999Z</time></trkpt><trkpt lat="43.73292974375408" lon="11.218177308962632"><ele>61.5</ele><time>2026-04-04T08:50:02.999Z</time></trkpt><trkpt lat="43.73285857353716" lon="11.218013074504055"><ele>62.0</ele><time>2026-04-04T08:50:03.999Z</time></trkpt><trkpt lat="43.7327812722439" lon="11.217865683555646"><ele>62.5</ele><time>2026-04-04T08:50:04.999Z</time></trkpt><trkpt lat="43.73269125805767" lon="11.217730561631894"><ele>63.0</ele><time>2026-04-04T08:50:05.999Z</time></trkpt><trkpt lat="43.73262624466706" lon="11.217583103092437"><ele>64.25</ele><time>2026-04-04T08:50:06.999Z</time></trkpt><trkpt lat="43.7325599109469" lon="11.21745181955911"><ele>65.5</ele><time>2026-04-04T08:50:07.999Z</time></trkpt><trkpt lat="43.732496500354976" lon="11.217319562932209"><ele>66.75</ele><time>2026-04-04T08:50:08.999Z</time></trkpt><trkpt lat="43.73243471876578" lon="11.217186688109857"><ele>68.0</ele><time>2026-04-04T08:50:09.999Z</time></trkpt><trkpt lat="43.732396825607076" lon="11.217049841954127"><ele>69.0</ele><time>2026-04-04T08:50:10.999Z</time></trkpt><trkpt lat="43.7323529741619" lon="11.21693729285931"><ele>70.0</ele><time>2026-04-04T08:50:11.999Z</time></trkpt><trkpt lat="43.732305595017934" lon="11.216814230304655"><ele>71.0</ele><time>2026-04-04T08:50:12.999Z</time></trkpt><trkpt lat="43.73230108249175" lon="11.216665578739919"><ele>72.0</ele><time>2026-04-04T08:50:13.999Z</time></trkpt><trkpt lat="43.73231323928593" lon="11.21651340037527"><ele>73.0</ele><time>2026-04-04T08:50:14.999Z</time></trkpt><trkpt lat="43.7323469456492" lon="11.216360743798797"><ele>74.75</ele><time>2026-04-04T08:50:15.999Z</time></trkpt><trkpt lat="43.73240648577071" lon="11.216207787969799"><ele>76.5</ele><time>2026-04-04T08:50:16.999Z</time></trkpt><trkpt lat="43.73247180386125" lon="11.216054721030584"><ele>78.25</ele><time>2026-04-04T08:50:17.999Z</time></trkpt><trkpt lat="43.73253657493926" lon="11.215883995664923"><ele>80.0</ele><time>2026-04-04T08:50:18.999Z</time></trkpt><trkpt lat="43.73260447320208" lon="11.21572662226576"><ele>82.8</ele><time>2026-04-04T08:50:19.999Z</time></trkpt><trkpt lat="43.732659975038274" lon="11.215586089362507"><ele>85.6</ele><time>2026-04-04T08:50:21Z</time></trkpt><trkpt lat="43.732687693445264" lon="11.215492024543593"><ele>88.4</ele><time>2026-04-04T08:50:22Z</time></trkpt><trkpt lat="43.73270891135222" lon="11.215391564964618"><ele>91.2</ele><time>2026-04-04T08:50:23Z</time></trkpt><trkpt lat="43.73269985472043" lon="11.215273028361517"><ele>94.0</ele><time>2026-04-04T08:50:24Z</time></trkpt><trkpt lat="43.73265706494414" lon="11.215127692569489"><ele>94.0</ele><time>2026-04-04T08:50:25Z</time></trkpt><trkpt lat="43.73259292589366" lon="11.214965466011344"><ele>94.0</ele><time>2026-04-04T08:50:26Z</time></trkpt><trkpt lat="43.73252617972489" lon="11.21480922734436"><ele>94.0</ele><time>2026-04-04T08:50:27Z</time></trkpt><trkpt lat="43.73247848328602" lon="11.214688521704291"><ele>94.0</ele><time>2026-04-04T08:50:28Z</time></trkpt><trkpt lat="43.732437190627515" lon="11.214595114501128"><ele>94.0</ele><time>2026-04-04T08:50:29Z</time></trkpt><trkpt lat="43.732359770548825" lon="11.214499885037998"><ele>94.0</ele><time>2026-04-04T08:50:31Z</time></trkpt><trkpt lat="43.73229006363296" lon="11.214503137548142"><ele>94.0</ele><time>2026-04-04T08:50:32Z</time></trkpt><trkpt lat="43.73221067687893" lon="11.214588833096798"><ele>94.0</ele><time>2026-04-04T08:50:33Z</time></trkpt><trkpt lat="43.73217126975803" lon="11.214719300478817"><ele>94.0</ele><time>2026-04-04T08:50:34Z</time></trkpt><trkpt lat="43.7321171983813" lon="11.214855349110247"><ele>94.0</ele><time>2026-04-04T08:50:35Z</time></trkpt><trkpt lat="43.73206454856043" lon="11.214981619900898"><ele>94.0</ele><time>2026-04-04T08:50:36Z</time></trkpt><trkpt lat="43.73201110021895" lon="11.215066342064889"><ele>94.0</ele><time>2026-04-04T08:50:37Z</time></trkpt><trkpt lat="43.73194391010042" lon="11.215132969971135"><ele>94.0</ele><time>2026-04-04T08:50:38Z</time></trkpt><trkpt lat="43.73184316680505" lon="11.215148155609274"><ele>94.0</ele><time>2026-04-04T08:50:39Z</time></trkpt><trkpt lat="43.73173095370814" lon="11.215133298195628"><ele>94.0</ele><time>2026-04-04T08:50:40Z</time></trkpt><trkpt lat="43.73159968322731" lon="11.21510806796791"><ele>95.6</ele><time>2026-04-04T08:50:41Z</time></trkpt><trkpt lat="43.73146306329845" lon="11.215082283381737"><ele>97.2</ele><time>2026-04-04T08:50:42Z</time></trkpt><trkpt lat="43.731338738820625" lon="11.215057272468588"><ele>98.8</ele><time>2026-04-04T08:50:43Z</time></trkpt><trkpt lat="43.73124577854946" lon="11.21502901192199"><ele>100.39999999999999</ele><time>2026-04-04T08:50:44Z</time></trkpt><trkpt lat="43.73117256696456" lon="11.214988512955834"><ele>102.0</ele><time>2026-04-04T08:50:45Z</time></trkpt><trkpt lat="43.73111504367867" lon="11.214921813368958"><ele>102.0</ele><time>2026-04-04T08:50:46Z</time></trkpt><trkpt lat="43.73106470147773" lon="11.214845255074097"><ele>102.0</ele><time>2026-04-04T08:50:47Z</time></trkpt><trkpt lat="43.73105780636418" lon="11.214730836353736"><ele>102.0</ele><time>2026-04-04T08:50:48Z</time></trkpt><trkpt lat="43.73110172051812" lon="11.214623777560506"><ele>102.0</ele><time>2026-04-04T08:50:49Z</time></trkpt><trkpt lat="43.73118989140763" lon="11.214554509348025"><ele>102.0</ele><time>2026-04-04T08:50:50Z</time></trkpt><trkpt lat="43.73129089661688" lon="11.214563427957463"><ele>102.0</ele><time>2026-04-04T08:50:51Z</time></trkpt><trkpt lat="43.73141459791404" lon="11.214595305552526"><ele>104.19999999999999</ele><time>2026-04-04T08:50:52Z</time></trkpt><trkpt lat="43.731528357687246" lon="11.21462355756977"><ele>106.4</ele><time>2026-04-04T08:50:53Z</time></trkpt><trkpt lat="43.73163707380604" lon="11.21464216773015"><ele>108.60000000000001</ele><time>2026-04-04T08:50:54Z</time></trkpt><trkpt lat="43.731726325217075" lon="11.214623040585453"><ele>110.80000000000001</ele><time>2026-04-04T08:50:55Z</time></trkpt><trkpt lat="43.73179086983744" lon="11.214561399213583"><ele>113.0</ele><time>2026-04-04T08:50:56Z</time></trkpt><trkpt lat="43.731830971411945" lon="11.214463236786136"><ele>113.0</ele><time>2026-04-04T08:50:57Z</time></trkpt><trkpt lat="43.73185906662824" lon="11.214331738615682"><ele>113.0</ele><time>2026-04-04T08:50:58Z</time></trkpt><trkpt lat="43.731871058358294" lon="11.214178565101617"><ele>113.0</ele><time>2026-04-04T08:50:59Z</time></trkpt><trkpt lat="43.7318840785824" lon="11.214001665613505"><ele>113.0</ele><time>2026-04-04T08:51:00Z</time></trkpt><trkpt lat="43.73190195925054" lon="11.213829398460158"><ele>113.83333333333333</ele><time>2026-04-04T08:51:01Z</time></trkpt><trkpt lat="43.7319266388756" lon="11.213691896375375"><ele>114.66666666666666</ele><time>2026-04-04T08:51:01.999Z</time></trkpt><trkpt lat="43.731947932610545" lon="11.213582402511118"><ele>115.5</ele><time>2026-04-04T08:51:02.999Z</time></trkpt><trkpt lat="43.731949665034385" lon="11.213490845251341"><ele>116.33333333333334</ele><time>2026-04-04T08:51:03.999Z</time></trkpt><trkpt lat="43.73191253446422" lon="11.213403813018589"><ele>117.16666666666667</ele><time>2026-04-04T08:51:04.999Z</time></trkpt><trkpt lat="43.73184009010232" lon="11.213352424619918"><ele>118.0</ele><time>2026-04-04T08:51:05.999Z</time></trkpt><trkpt lat="43.73176099865201" lon="11.213329600148906"><ele>119.60000000000001</ele><time>2026-04-04T08:51:06.999Z</time></trkpt><trkpt lat="43.73167859953914" lon="11.21343981782763"><ele>121.20000000000002</ele><time>2026-04-04T08:51:07.999Z</time></trkpt><trkpt lat="43.73158400552686" lon="11.213515920235698"><ele>122.8</ele><time>2026-04-04T08:51:08.999Z</time></trkpt><trkpt lat="43.73148625936903" lon="11.213623535600966"><ele>124.4</ele><time>2026-04-04T08:51:09.999Z</time></trkpt><trkpt lat="43.73141147622093" lon="11.213707606680808"><ele>126.0</ele><time>2026-04-04T08:51:10.999Z</time></trkpt><trkpt lat="43.7313534987943" lon="11.213754244519132"><ele>126.0</ele><time>2026-04-04T08:51:11.999Z</time></trkpt><trkpt lat="43.73128260167406" lon="11.213774389258422"><ele>126.0</ele><time>2026-04-04T08:51:12.999Z</time></trkpt><trkpt lat="43.731208288318584" lon="11.213726265364674"><ele>126.0</ele><time>2026-04-04T08:51:13.999Z</time></trkpt><trkpt lat="43.7311327975396" lon="11.21363694133656"><ele>126.0</ele><time>2026-04-04T08:51:14.999Z</time></trkpt><trkpt lat="43.73104661943653" lon="11.213522811474421"><ele>126.0</ele><time>2026-04-04T08:51:15.999Z</time></trkpt><trkpt lat="43.7309509882228" lon="11.213400080938081"><ele>127.19999999999999</ele><time>2026-04-04T08:51:16.999Z</time></trkpt><trkpt lat="43.73083563872789" lon="11.21330494142254"><ele>128.39999999999998</ele><time>2026-04-04T08:51:17.999Z</time></trkpt><trkpt lat="43.7307401176975" lon="11.213197877223953"><ele>129.6</ele><time>2026-04-04T08:51:18.999Z</time></trkpt><trkpt lat="43.73064517966367" lon="11.21315220167753"><ele>130.79999999999998</ele><time>2026-04-04T08:51:19.999Z</time></trkpt><trkpt lat="43.73056338217356" lon="11.213131441601261"><ele>132.0</ele><time>2026-04-04T08:51:20.999Z</time></trkpt><trkpt lat="43.73048738229781" lon="11.213132088199306"><ele>132.0</ele><time>2026-04-04T08:51:21.999Z</time></trkpt><trkpt lat="43.730406589890734" lon="11.21321172049495"><ele>132.0</ele><time>2026-04-04T08:51:23.999Z</time></trkpt><trkpt lat="43.73033595043676" lon="11.213256125943547"><ele>132.0</ele><time>2026-04-04T08:52:53Z</time></trkpt><trkpt lat="43.730240243653505" lon="11.213279937709455"><ele>132.0</ele><time>2026-04-04T08:52:55Z</time></trkpt><trkpt lat="43.73018098247523" lon="11.213234202521297"><ele>132.0</ele><time>2026-04-04T08:52:56Z</time></trkpt><trkpt lat="43.73017472402893" lon="11.213139733669038"><ele>132.0</ele><time>2026-04-04T08:52:57Z</time></trkpt><trkpt lat="43.73018972171396" lon="11.213024107763433"><ele>135.0</ele><time>2026-04-04T08:52:58Z</time></trkpt><trkpt lat="43.73021676906989" lon="11.212914608693117"><ele>138.0</ele><time>2026-04-04T08:52:59Z</time></trkpt><trkpt lat="43.73027613316594" lon="11.212842492289719"><ele>141.0</ele><time>2026-04-04T08:53:00Z</time></trkpt><trkpt lat="43.73036412101637" lon="11.21280021026938"><ele>144.0</ele><time>2026-04-04T08:53:01Z</time></trkpt><trkpt lat="43.73048165268599" lon="11.212784057061372"><ele>147.0</ele><time>2026-04-04T08:53:01.999Z</time></trkpt><trkpt lat="43.730596862789355" lon="11.212773246791855"><ele>147.0</ele><time>2026-04-04T08:53:02.999Z</time></trkpt><trkpt lat="43.73070585291677" lon="11.212755871996183"><ele>147.0</ele><time>2026-04-04T08:53:03.999Z</time></trkpt><trkpt lat="43.73081073645308" lon="11.212723921124438"><ele>147.0</ele><time>2026-04-04T08:53:04.999Z</time></trkpt><trkpt lat="43.73092334722601" lon="11.212675131065815"><ele>147.0</ele><time>2026-04-04T08:53:05.999Z</time></trkpt><trkpt lat="43.731027868614994" lon="11.212618267075683"><ele>147.0</ele><time>2026-04-04T08:53:06.999Z</time></trkpt><trkpt lat="43.73111285879377" lon="11.21256361863079"><ele>147.5</ele><time>2026-04-04T08:53:07.999Z</time></trkpt><trkpt lat="43.73119361225104" lon="11.212499597812501"><ele>148.0</ele><time>2026-04-04T08:53:08.999Z</time></trkpt><trkpt lat="43.73127072240736" lon="11.212381843829391"><ele>148.5</ele><time>2026-04-04T08:53:09.999Z</time></trkpt><trkpt lat="43.73134148946662" lon="11.21223184996738"><ele>149.0</ele><time>2026-04-04T08:53:10.999Z</time></trkpt><trkpt lat="43.731398337834186" lon="11.21205659884073"><ele>149.0</ele><time>2026-04-04T08:53:11.999Z</time></trkpt><trkpt lat="43.73145307534614" lon="11.211863016150748"><ele>149.0</ele><time>2026-04-04T08:53:12.999Z</time></trkpt><trkpt lat="43.73150905437405" lon="11.211635259527089"><ele>149.0</ele><time>2026-04-04T08:53:13.999Z</time></trkpt><trkpt lat="43.73157051307334" lon="11.211385990075872"><ele>152.66666666666666</ele><time>2026-04-04T08:53:14.999Z</time></trkpt><trkpt lat="43.731627711213115" lon="11.211135461552288"><ele>156.33333333333334</ele><time>2026-04-04T08:53:15.999Z</time></trkpt><trkpt lat="43.73168891769329" lon="11.210869090291729"><ele>160.0</ele><time>2026-04-04T08:53:16.999Z</time></trkpt><trkpt lat="43.731748642696864" lon="11.21061347825241"><ele>161.0</ele><time>2026-04-04T08:53:17.999Z</time></trkpt><trkpt lat="43.73180632826949" lon="11.210370405369638"><ele>162.0</ele><time>2026-04-04T08:53:18.999Z</time></trkpt><trkpt lat="43.73186534085894" lon="11.210143960113868"><ele>163.0</ele><time>2026-04-04T08:53:19.999Z</time></trkpt><trkpt lat="43.73191927590232" lon="11.209925646426969"><ele>169.0</ele><time>2026-04-04T08:53:20.999Z</time></trkpt><trkpt lat="43.73196923711626" lon="11.209699814817125"><ele>175.0</ele><time>2026-04-04T08:53:21.999Z</time></trkpt><trkpt lat="43.732007650409045" lon="11.20947339817967"><ele>181.0</ele><time>2026-04-04T08:53:22.999Z</time></trkpt><trkpt lat="43.732038293451446" lon="11.209259954902112"><ele>181.0</ele><time>2026-04-04T08:53:23.999Z</time></trkpt><trkpt lat="43.73207246674831" lon="11.20903209503191"><ele>181.0</ele><time>2026-04-04T08:53:24.999Z</time></trkpt><trkpt lat="43.732104533357514" lon="11.208787462937035"><ele>181.0</ele><time>2026-04-04T08:53:25.999Z</time></trkpt><trkpt lat="43.73213369347112" lon="11.20854397120357"><ele>181.75</ele><time>2026-04-04T08:53:26.999Z</time></trkpt><trkpt lat="43.73215941296977" lon="11.208318287270531"><ele>182.5</ele><time>2026-04-04T08:53:27.999Z</time></trkpt><trkpt lat="43.73217807572354" lon="11.20812308055919"><ele>183.25</ele><time>2026-04-04T08:53:28.999Z</time></trkpt><trkpt lat="43.73219543470783" lon="11.207964568929915"><ele>184.0</ele><time>2026-04-04T08:53:29.999Z</time></trkpt><trkpt lat="43.73221192945534" lon="11.207815618648857"><ele>184.0</ele><time>2026-04-04T08:53:30.999Z</time></trkpt><trkpt lat="43.7322026650972" lon="11.207667610884311"><ele>184.0</ele><time>2026-04-04T08:53:31.999Z</time></trkpt><trkpt lat="43.73216438599023" lon="11.207526320256571"><ele>184.0</ele><time>2026-04-04T08:53:32.999Z</time></trkpt><trkpt lat="43.73210534785817" lon="11.207392163143076"><ele>184.0</ele><time>2026-04-04T08:53:33.999Z</time></trkpt><trkpt lat="43.732034588577534" lon="11.207268140985448"><ele>184.0</ele><time>2026-04-04T08:53:34.999Z</time></trkpt><trkpt lat="43.73185541775525" lon="11.207101235064073"><ele>184.0</ele><time>2026-04-04T08:53:35.999Z</time></trkpt><trkpt lat="43.73171849290317" lon="11.207037751939799"><ele>184.0</ele><time>2026-04-04T08:53:36.999Z</time></trkpt><trkpt lat="43.731616497288115" lon="11.206967533254812"><ele>184.0</ele><time>2026-04-04T08:53:37.999Z</time></trkpt><trkpt lat="43.73153765815215" lon="11.206897967084396"><ele>184.0</ele><time>2026-04-04T08:53:38.999Z</time></trkpt><trkpt lat="43.731472162933315" lon="11.206806854583201"><ele>184.0</ele><time>2026-04-04T08:53:39.999Z</time></trkpt><trkpt lat="43.731410162067974" lon="11.206674498089761"><ele>184.0</ele><time>2026-04-04T08:53:40.999Z</time></trkpt><trkpt lat="43.731341614799" lon="11.206498181518613"><ele>184.0</ele><time>2026-04-04T08:53:41.999Z</time></trkpt><trkpt lat="43.731284923665065" lon="11.206280002733086"><ele>184.0</ele><time>2026-04-04T08:53:42.999Z</time></trkpt><trkpt lat="43.73118908774522" lon="11.206070834123542"><ele>184.0</ele><time>2026-04-04T08:53:43.999Z</time></trkpt><trkpt lat="43.731084620253554" lon="11.205882312632424"><ele>184.0</ele><time>2026-04-04T08:53:44.999Z</time></trkpt><trkpt lat="43.73099944056513" lon="11.205693064697234"><ele>184.0</ele><time>2026-04-04T08:53:45.999Z</time></trkpt><trkpt lat="43.73089590271382" lon="11.205517411477514"><ele>184.0</ele><time>2026-04-04T08:53:46.999Z</time></trkpt><trkpt lat="43.730774128192294" lon="11.20536257241933"><ele>184.0</ele><time>2026-04-04T08:53:47.999Z</time></trkpt><trkpt lat="43.730629242114105" lon="11.205238374972634"><ele>184.0</ele><time>2026-04-04T08:53:48.999Z</time></trkpt><trkpt lat="43.730464044417076" lon="11.205128447247958"><ele>184.0</ele><time>2026-04-04T08:53:49.999Z</time></trkpt><trkpt lat="43.730333917410434" lon="11.204985296439082"><ele>184.0</ele><time>2026-04-04T08:53:50.999Z</time></trkpt><trkpt lat="43.730198515036115" lon="11.20482665937673"><ele>184.0</ele><time>2026-04-04T08:53:51.999Z</time></trkpt><trkpt lat="43.730062378544865" lon="11.204663676017546"><ele>180.66666666666669</ele><time>2026-04-04T08:53:52.999Z</time></trkpt><trkpt lat="43.72992490936611" lon="11.204525268319529"><ele>177.33333333333334</ele><time>2026-04-04T08:53:53.999Z</time></trkpt><trkpt lat="43.72981307747757" lon="11.204363281792528"><ele>174.0</ele><time>2026-04-04T08:53:54.999Z</time></trkpt><trkpt lat="43.72969400354014" lon="11.204217093890314"><ele>174.0</ele><time>2026-04-04T08:53:55.999Z</time></trkpt><trkpt lat="43.7295793451197" lon="11.204065425148755"><ele>174.0</ele><time>2026-04-04T08:53:56.999Z</time></trkpt><trkpt lat="43.72947008293182" lon="11.203902439467777"><ele>174.0</ele><time>2026-04-04T08:53:57.999Z</time></trkpt><trkpt lat="43.72935627789042" lon="11.20373197271336"><ele>171.66666666666666</ele><time>2026-04-04T08:53:58.999Z</time></trkpt><trkpt lat="43.729236252374015" lon="11.203552960275701"><ele>169.33333333333331</ele><time>2026-04-04T08:53:59.999Z</time></trkpt><trkpt lat="43.72911270480826" lon="11.203370094380395"><ele>167.0</ele><time>2026-04-04T08:54:00.999Z</time></trkpt><trkpt lat="43.72899177457161" lon="11.203199842243658"><ele>165.33333333333331</ele><time>2026-04-04T08:54:01.999Z</time></trkpt><trkpt lat="43.72884461521212" lon="11.203053871301647"><ele>163.66666666666666</ele><time>2026-04-04T08:54:02.999Z</time></trkpt><trkpt lat="43.72869034167747" lon="11.20289866615193"><ele>162.0</ele><time>2026-04-04T08:54:03.999Z</time></trkpt><trkpt lat="43.72853027489702" lon="11.2027190212019"><ele>162.0</ele><time>2026-04-04T08:54:04.999Z</time></trkpt><trkpt lat="43.72835785631656" lon="11.202549375836508"><ele>162.0</ele><time>2026-04-04T08:54:05.999Z</time></trkpt><trkpt lat="43.728173239041666" lon="11.202367730301363"><ele>162.0</ele><time>2026-04-04T08:54:06.999Z</time></trkpt><trkpt lat="43.727988611252286" lon="11.202161178603378"><ele>161.33333333333334</ele><time>2026-04-04T08:54:07.999Z</time></trkpt><trkpt lat="43.72781919619564" lon="11.201955835823993"><ele>160.66666666666669</ele><time>2026-04-04T08:54:08.999Z</time></trkpt><trkpt lat="43.72765531577769" lon="11.201752588161101"><ele>160.0</ele><time>2026-04-04T08:54:09.999Z</time></trkpt><trkpt lat="43.72749115049388" lon="11.201542333138455"><ele>166.33333333333334</ele><time>2026-04-04T08:54:10.999Z</time></trkpt><trkpt lat="43.72734165470472" lon="11.201351435595283"><ele>172.66666666666666</ele><time>2026-04-04T08:54:11.999Z</time></trkpt><trkpt lat="43.72719245743432" lon="11.201182078742494"><ele>179.0</ele><time>2026-04-04T08:54:12.999Z</time></trkpt><trkpt lat="43.72705389481524" lon="11.201044462054767"><ele>179.0</ele><time>2026-04-04T08:54:13.999Z</time></trkpt><trkpt lat="43.72691593343353" lon="11.200921254727598"><ele>179.0</ele><time>2026-04-04T08:54:14.999Z</time></trkpt><trkpt lat="43.72679265644762" lon="11.20081438375214"><ele>179.0</ele><time>2026-04-04T08:54:15.999Z</time></trkpt><trkpt lat="43.726674453000676" lon="11.200719189454068"><ele>179.0</ele><time>2026-04-04T08:54:16.999Z</time></trkpt><trkpt lat="43.72654018135829" lon="11.200636128715573"><ele>179.0</ele><time>2026-04-04T08:54:17.999Z</time></trkpt><trkpt lat="43.726389429091135" lon="11.20055746890448"><ele>179.0</ele><time>2026-04-04T08:54:18.999Z</time></trkpt><trkpt lat="43.72623741317096" lon="11.20047885553991"><ele>179.0</ele><time>2026-04-04T08:54:19.999Z</time></trkpt><trkpt lat="43.726091422527624" lon="11.20038381054271"><ele>178.66666666666666</ele><time>2026-04-04T08:54:20.999Z</time></trkpt><trkpt lat="43.72594189986072" lon="11.200261068285482"><ele>178.33333333333334</ele><time>2026-04-04T08:54:21.999Z</time></trkpt><trkpt lat="43.725791281131876" lon="11.200111623401261"><ele>178.0</ele><time>2026-04-04T08:54:22.999Z</time></trkpt><trkpt lat="43.72563624835312" lon="11.199945555054395"><ele>178.0</ele><time>2026-04-04T08:54:23.999Z</time></trkpt><trkpt lat="43.72547720507715" lon="11.199771829061438"><ele>178.0</ele><time>2026-04-04T08:54:24.999Z</time></trkpt><trkpt lat="43.725317169759116" lon="11.199599697920847"><ele>178.0</ele><time>2026-04-04T08:54:25.999Z</time></trkpt><trkpt lat="43.72516658429527" lon="11.199440658569207"><ele>178.0</ele><time>2026-04-04T08:54:26.999Z</time></trkpt><trkpt lat="43.72502977321037" lon="11.199296375700108"><ele>178.0</ele><time>2026-04-04T08:54:27.998Z</time></trkpt><trkpt lat="43.72488910304975" lon="11.199173678162925"><ele>178.0</ele><time>2026-04-04T08:54:28.998Z</time></trkpt><trkpt lat="43.72478089121416" lon="11.19900870878373"><ele>179.25</ele><time>2026-04-04T08:54:29.998Z</time></trkpt><trkpt lat="43.72466620878109" lon="11.198888656026524"><ele>180.5</ele><time>2026-04-04T08:54:30.998Z</time></trkpt><trkpt lat="43.72455905221447" lon="11.198780556725994"><ele>181.75</ele><time>2026-04-04T08:54:31.998Z</time></trkpt><trkpt lat="43.724432622242674" lon="11.198725114730186"><ele>183.0</ele><time>2026-04-04T08:54:33Z</time></trkpt><trkpt lat="43.72427623512263" lon="11.198724281735648"><ele>183.0</ele><time>2026-04-04T08:54:34Z</time></trkpt><trkpt lat="43.7241107600093" lon="11.198715398367332"><ele>183.0</ele><time>2026-04-04T08:54:35Z</time></trkpt><trkpt lat="43.72394430354557" lon="11.198735197255099"><ele>183.0</ele><time>2026-04-04T08:54:36Z</time></trkpt><trkpt lat="43.72379139497624" lon="11.198758898414694"><ele>183.0</ele><time>2026-04-04T08:54:37Z</time></trkpt><trkpt lat="43.72363862690548" lon="11.198796849468888"><ele>183.0</ele><time>2026-04-04T08:54:38Z</time></trkpt><trkpt lat="43.72347765628644" lon="11.19887194534745"><ele>183.0</ele><time>2026-04-04T08:54:39Z</time></trkpt><trkpt lat="43.72329707468141" lon="11.198970425912679"><ele>180.66666666666666</ele><time>2026-04-04T08:54:40Z</time></trkpt><trkpt lat="43.72310674856233" lon="11.199074019260218"><ele>178.33333333333331</ele><time>2026-04-04T08:54:41Z</time></trkpt><trkpt lat="43.722922917157966" lon="11.199167068589315"><ele>176.0</ele><time>2026-04-04T08:54:42Z</time></trkpt><trkpt lat="43.72275517683039" lon="11.199226898446586"><ele>174.0</ele><time>2026-04-04T08:54:43Z</time></trkpt><trkpt lat="43.722586596315494" lon="11.199256360268832"><ele>172.0</ele><time>2026-04-04T08:54:44Z</time></trkpt><trkpt lat="43.7224019787332" lon="11.19925387745386"><ele>170.0</ele><time>2026-04-04T08:54:45Z</time></trkpt><trkpt lat="43.722203125427576" lon="11.199242178770751"><ele>170.0</ele><time>2026-04-04T08:54:46Z</time></trkpt><trkpt lat="43.72202033151079" lon="11.1992322183127"><ele>170.0</ele><time>2026-04-04T08:54:47Z</time></trkpt><trkpt lat="43.72186038650068" lon="11.199219393938112"><ele>170.0</ele><time>2026-04-04T08:54:48Z</time></trkpt><trkpt lat="43.72171439576354" lon="11.199188038872542"><ele>170.66666666666666</ele><time>2026-04-04T08:54:49Z</time></trkpt><trkpt lat="43.72157599862545" lon="11.199119888720091"><ele>171.33333333333334</ele><time>2026-04-04T08:54:50Z</time></trkpt><trkpt lat="43.72143900180014" lon="11.199005169190038"><ele>172.0</ele><time>2026-04-04T08:54:51Z</time></trkpt><trkpt lat="43.72133814148703" lon="11.198827201887964"><ele>172.33333333333334</ele><time>2026-04-04T08:54:52Z</time></trkpt><trkpt lat="43.72125532955375" lon="11.198592375472437"><ele>172.66666666666666</ele><time>2026-04-04T08:54:53Z</time></trkpt><trkpt lat="43.721175221742094" lon="11.198334079118965"><ele>173.0</ele><time>2026-04-04T08:54:54Z</time></trkpt><trkpt lat="43.72111507145604" lon="11.198044554879676"><ele>174.66666666666666</ele><time>2026-04-04T08:54:55Z</time></trkpt><trkpt lat="43.72105845156405" lon="11.197753828768434"><ele>176.33333333333334</ele><time>2026-04-04T08:54:56Z</time></trkpt><trkpt lat="43.72099311539771" lon="11.197454623211833"><ele>178.0</ele><time>2026-04-04T08:54:57Z</time></trkpt><trkpt lat="43.720926855680666" lon="11.197142722406157"><ele>178.0</ele><time>2026-04-04T08:54:58Z</time></trkpt><trkpt lat="43.72085818586759" lon="11.196811694376017"><ele>178.0</ele><time>2026-04-04T08:54:59Z</time></trkpt><trkpt lat="43.72078749381215" lon="11.196486223740436"><ele>177.0</ele><time>2026-04-04T08:55:00Z</time></trkpt><trkpt lat="43.7207198814251" lon="11.196183590087287"><ele>176.0</ele><time>2026-04-04T08:55:00.999Z</time></trkpt><trkpt lat="43.72065938379676" lon="11.195913735942412"><ele>175.0</ele><time>2026-04-04T08:55:01.999Z</time></trkpt><trkpt lat="43.72060372498616" lon="11.1956628013514"><ele>174.33333333333334</ele><time>2026-04-04T08:55:02.999Z</time></trkpt><trkpt lat="43.72055289743421" lon="11.195421438735401"><ele>173.66666666666666</ele><time>2026-04-04T08:55:03.999Z</time></trkpt><trkpt lat="43.720514651551184" lon="11.195200429407018"><ele>173.0</ele><time>2026-04-04T08:55:04.999Z</time></trkpt><trkpt lat="43.72049423742268" lon="11.194989732864133"><ele>174.66666666666666</ele><time>2026-04-04T08:55:05.999Z</time></trkpt><trkpt lat="43.72049151623416" lon="11.194770094969758"><ele>176.33333333333334</ele><time>2026-04-04T08:55:06.999Z</time></trkpt><trkpt lat="43.72050954621437" lon="11.194536259289794"><ele>178.0</ele><time>2026-04-04T08:55:07.999Z</time></trkpt><trkpt lat="43.7205533334152" lon="11.19430438033853"><ele>178.0</ele><time>2026-04-04T08:55:08.999Z</time></trkpt><trkpt lat="43.720625143006586" lon="11.194092560268352"><ele>178.0</ele><time>2026-04-04T08:55:09.999Z</time></trkpt><trkpt lat="43.72070059568916" lon="11.193894961662133"><ele>178.0</ele><time>2026-04-04T08:55:10.999Z</time></trkpt><trkpt lat="43.720766281159364" lon="11.193706732794663"><ele>179.5</ele><time>2026-04-04T08:55:11.999Z</time></trkpt><trkpt lat="43.72081414380935" lon="11.193523582522719"><ele>181.0</ele><time>2026-04-04T08:55:12.999Z</time></trkpt><trkpt lat="43.720843924540205" lon="11.193350801299706"><ele>182.5</ele><time>2026-04-04T08:55:13.999Z</time></trkpt><trkpt lat="43.72083952763999" lon="11.193183087729581"><ele>184.0</ele><time>2026-04-04T08:55:14.999Z</time></trkpt><trkpt lat="43.72079986796783" lon="11.19302354607584"><ele>184.0</ele><time>2026-04-04T08:55:15.999Z</time></trkpt><trkpt lat="43.72072633488287" lon="11.1928798720963"><ele>184.0</ele><time>2026-04-04T08:55:16.999Z</time></trkpt><trkpt lat="43.72062403999659" lon="11.192776468364011"><ele>184.0</ele><time>2026-04-04T08:55:17.999Z</time></trkpt><trkpt lat="43.720496634369546" lon="11.1927247770127"><ele>184.0</ele><time>2026-04-04T08:55:18.999Z</time></trkpt><trkpt lat="43.720354637874706" lon="11.192735266930887"><ele>182.0</ele><time>2026-04-04T08:55:19.999Z</time></trkpt><trkpt lat="43.7202083690657" lon="11.192804457893345"><ele>180.0</ele><time>2026-04-04T08:55:20.999Z</time></trkpt><trkpt lat="43.7200587768475" lon="11.19292319559429"><ele>178.0</ele><time>2026-04-04T08:55:21.999Z</time></trkpt><trkpt lat="43.7199004575973" lon="11.193072414629963"><ele>183.5</ele><time>2026-04-04T08:55:22.999Z</time></trkpt><trkpt lat="43.71969659157724" lon="11.19321597148341"><ele>189.0</ele><time>2026-04-04T08:55:23.999Z</time></trkpt><trkpt lat="43.71950253454326" lon="11.193370217569502"><ele>186.0</ele><time>2026-04-04T08:55:24.999Z</time></trkpt><trkpt lat="43.71931467755684" lon="11.19351995794584"><ele>183.0</ele><time>2026-04-04T08:55:25.999Z</time></trkpt><trkpt lat="43.71915017502639" lon="11.193656716352011"><ele>180.0</ele><time>2026-04-04T08:55:26.999Z</time></trkpt><trkpt lat="43.71900582588623" lon="11.19377672013932"><ele>180.0</ele><time>2026-04-04T08:55:27.999Z</time></trkpt><trkpt lat="43.718871841822256" lon="11.19388695645628"><ele>180.0</ele><time>2026-04-04T08:55:28.999Z</time></trkpt><trkpt lat="43.71874881018113" lon="11.193985149689931"><ele>180.0</ele><time>2026-04-04T08:55:29.999Z</time></trkpt><trkpt lat="43.718644995199895" lon="11.194066992089121"><ele>180.0</ele><time>2026-04-04T08:55:30.999Z</time></trkpt><trkpt lat="43.71856137334911" lon="11.194128508253836"><ele>180.25</ele><time>2026-04-04T08:55:31.999Z</time></trkpt><trkpt lat="43.7184812814056" lon="11.19414834360485"><ele>180.5</ele><time>2026-04-04T08:55:32.999Z</time></trkpt><trkpt lat="43.71839244719009" lon="11.194092970831285"><ele>180.75</ele><time>2026-04-04T08:55:33.999Z</time></trkpt><trkpt lat="43.71826204002376" lon="11.194012573637321"><ele>181.0</ele><time>2026-04-04T08:55:34.999Z</time></trkpt><trkpt lat="43.71809782581311" lon="11.193904052400486"><ele>180.66666666666669</ele><time>2026-04-04T08:55:35.999Z</time></trkpt><trkpt lat="43.71792295882594" lon="11.19378393667648"><ele>180.33333333333334</ele><time>2026-04-04T08:55:36.999Z</time></trkpt><trkpt lat="43.717751080766654" lon="11.193665394943029"><ele>180.0</ele><time>2026-04-04T08:55:37.999Z</time></trkpt><trkpt lat="43.71758375126578" lon="11.193547335319959"><ele>180.0</ele><time>2026-04-04T08:55:38.999Z</time></trkpt><trkpt lat="43.717423933689716" lon="11.19343575813825"><ele>180.0</ele><time>2026-04-04T08:55:39.999Z</time></trkpt><trkpt lat="43.71726728583196" lon="11.193305430465026"><ele>180.0</ele><time>2026-04-04T08:55:40.999Z</time></trkpt><trkpt lat="43.71710841420057" lon="11.193138066761394"><ele>180.33333333333334</ele><time>2026-04-04T08:55:41.999Z</time></trkpt><trkpt lat="43.716949219155765" lon="11.192955549124424"><ele>180.66666666666669</ele><time>2026-04-04T08:55:42.999Z</time></trkpt><trkpt lat="43.716811509081" lon="11.192782631367287"><ele>181.0</ele><time>2026-04-04T08:55:43.999Z</time></trkpt><trkpt lat="43.71668423810482" lon="11.192607895786587"><ele>180.33333333333334</ele><time>2026-04-04T08:55:44.999Z</time></trkpt><trkpt lat="43.71657430184196" lon="11.192428556359852"><ele>179.66666666666666</ele><time>2026-04-04T08:55:45.999Z</time></trkpt><trkpt lat="43.7164781752958" lon="11.192263201740536"><ele>179.0</ele><time>2026-04-04T08:55:46.999Z</time></trkpt><trkpt lat="43.71637844646696" lon="11.192124546219636"><ele>179.0</ele><time>2026-04-04T08:55:47.999Z</time></trkpt><trkpt lat="43.71631599470343" lon="11.191968591229271"><ele>179.0</ele><time>2026-04-04T08:55:48.999Z</time></trkpt><trkpt lat="43.71624523735534" lon="11.191845725008838"><ele>179.0</ele><time>2026-04-04T08:55:49.999Z</time></trkpt><trkpt lat="43.7162165934997" lon="11.191698390193954"><ele>179.0</ele><time>2026-04-04T08:55:50.999Z</time></trkpt><trkpt lat="43.71621707133233" lon="11.191539970488765"><ele>179.0</ele><time>2026-04-04T08:55:51.999Z</time></trkpt><trkpt lat="43.716257173363424" lon="11.191368119971438"><ele>179.0</ele><time>2026-04-04T08:55:52.999Z</time></trkpt><trkpt lat="43.71633612519824" lon="11.191199239278172"><ele>179.0</ele><time>2026-04-04T08:55:53.999Z</time></trkpt><trkpt lat="43.71641535039676" lon="11.191002524113806"><ele>179.0</ele><time>2026-04-04T08:55:54.999Z</time></trkpt><trkpt lat="43.71648128187662" lon="11.19079137574639"><ele>179.0</ele><time>2026-04-04T08:55:55.999Z</time></trkpt><trkpt lat="43.716519549195276" lon="11.190567325344883"><ele>179.0</ele><time>2026-04-04T08:55:56.999Z</time></trkpt><trkpt lat="43.71651777729875" lon="11.190324275114795"><ele>179.0</ele><time>2026-04-04T08:55:57.999Z</time></trkpt><trkpt lat="43.71650384446606" lon="11.190067464569855"><ele>179.0</ele><time>2026-04-04T08:55:58.999Z</time></trkpt><trkpt lat="43.716486722628254" lon="11.189848905658208"><ele>179.0</ele><time>2026-04-04T08:55:59.999Z</time></trkpt><trkpt lat="43.716468221559715" lon="11.189652183019664"><ele>179.0</ele><time>2026-04-04T08:56:00.999Z</time></trkpt><trkpt lat="43.71643375245619" lon="11.189481922237805"><ele>179.0</ele><time>2026-04-04T08:56:01.999Z</time></trkpt><trkpt lat="43.71635562971476" lon="11.18932086544944"><ele>179.0</ele><time>2026-04-04T08:56:02.999Z</time></trkpt><trkpt lat="43.7162445563234" lon="11.189177103737817"><ele>179.0</ele><time>2026-04-04T08:56:03.999Z</time></trkpt><trkpt lat="43.716118308249065" lon="11.189036659539115"><ele>179.0</ele><time>2026-04-04T08:56:04.999Z</time></trkpt><trkpt lat="43.716003520492656" lon="11.188860892717548"><ele>183.0</ele><time>2026-04-04T08:56:05.999Z</time></trkpt><trkpt lat="43.71589845461997" lon="11.188677949437988"><ele>187.0</ele><time>2026-04-04T08:56:06.999Z</time></trkpt><trkpt lat="43.71576758712844" lon="11.188482876198814"><ele>191.0</ele><time>2026-04-04T08:56:07.999Z</time></trkpt><trkpt lat="43.715602214195975" lon="11.188340104425293"><ele>191.0</ele><time>2026-04-04T08:56:08.999Z</time></trkpt><trkpt lat="43.715423143077324" lon="11.188186815586343"><ele>191.0</ele><time>2026-04-04T08:56:09.999Z</time></trkpt><trkpt lat="43.7152471196768" lon="11.188013579119046"><ele>191.0</ele><time>2026-04-04T08:56:10.999Z</time></trkpt><trkpt lat="43.715063550967685" lon="11.187858840698997"><ele>192.0</ele><time>2026-04-04T08:56:11.999Z</time></trkpt><trkpt lat="43.71490715628634" lon="11.187727008783996"><ele>193.0</ele><time>2026-04-04T08:56:12.999Z</time></trkpt><trkpt lat="43.71476611021606" lon="11.187608114694802"><ele>194.0</ele><time>2026-04-04T08:56:13.999Z</time></trkpt><trkpt lat="43.714638446241096" lon="11.187503597345003"><ele>194.0</ele><time>2026-04-04T08:56:14.999Z</time></trkpt><trkpt lat="43.71450900188487" lon="11.187430114417314"><ele>194.0</ele><time>2026-04-04T08:56:15.999Z</time></trkpt><trkpt lat="43.71437355076704" lon="11.187346764997761"><ele>194.0</ele><time>2026-04-04T08:56:16.999Z</time></trkpt><trkpt lat="43.71420258881425" lon="11.187343122391466"><ele>195.33333333333334</ele><time>2026-04-04T08:56:17.999Z</time></trkpt><trkpt lat="43.714013692779" lon="11.18734982388547"><ele>196.66666666666669</ele><time>2026-04-04T08:56:18.999Z</time></trkpt><trkpt lat="43.71382353844104" lon="11.187333126626475"><ele>198.0</ele><time>2026-04-04T08:56:19.999Z</time></trkpt><trkpt lat="43.713644031042016" lon="11.187355593675388"><ele>201.75</ele><time>2026-04-04T08:56:20.999Z</time></trkpt><trkpt lat="43.71348455899074" lon="11.187394377326317"><ele>205.5</ele><time>2026-04-04T08:56:21.999Z</time></trkpt><trkpt lat="43.713338038982144" lon="11.187437871115312"><ele>209.25</ele><time>2026-04-04T08:56:22.999Z</time></trkpt><trkpt lat="43.713216189113865" lon="11.187480318251984"><ele>213.0</ele><time>2026-04-04T08:56:23.999Z</time></trkpt><trkpt lat="43.713095381223766" lon="11.187559438362788"><ele>213.0</ele><time>2026-04-04T08:56:24.999Z</time></trkpt><trkpt lat="43.71295784578119" lon="11.187641840041453"><ele>213.0</ele><time>2026-04-04T08:56:25.999Z</time></trkpt><trkpt lat="43.712833669901" lon="11.187798578371272"><ele>213.0</ele><time>2026-04-04T08:56:26.999Z</time></trkpt><trkpt lat="43.712726791207444" lon="11.1879788477526"><ele>213.25</ele><time>2026-04-04T08:56:27.999Z</time></trkpt><trkpt lat="43.71266058434019" lon="11.188162600196732"><ele>213.5</ele><time>2026-04-04T08:56:28.998Z</time></trkpt><trkpt lat="43.712618678532685" lon="11.1883510111368"><ele>213.75</ele><time>2026-04-04T08:56:29.998Z</time></trkpt><trkpt lat="43.712587645851144" lon="11.188559311507877"><ele>214.0</ele><time>2026-04-04T08:56:30.998Z</time></trkpt><trkpt lat="43.71251710222945" lon="11.188738389788625"><ele>214.0</ele><time>2026-04-04T08:56:31.998Z</time></trkpt><trkpt lat="43.71243541701504" lon="11.188880632703533"><ele>214.0</ele><time>2026-04-04T08:56:32.998Z</time></trkpt><trkpt lat="43.71233021963197" lon="11.188997532652676"><ele>214.0</ele><time>2026-04-04T08:56:33.998Z</time></trkpt><trkpt lat="43.712196049639495" lon="11.189078684318538"><ele>214.0</ele><time>2026-04-04T08:56:34.998Z</time></trkpt><trkpt lat="43.712049012601874" lon="11.189109623839881"><ele>214.5</ele><time>2026-04-04T08:56:35.998Z</time></trkpt><trkpt lat="43.71189050473976" lon="11.189130676110768"><ele>215.0</ele><time>2026-04-04T08:56:36.998Z</time></trkpt><trkpt lat="43.71174800601213" lon="11.189157831677447"><ele>215.5</ele><time>2026-04-04T08:56:37.998Z</time></trkpt><trkpt lat="43.711624659282506" lon="11.189156462817316"><ele>216.0</ele><time>2026-04-04T08:56:39Z</time></trkpt><trkpt lat="43.711507670664176" lon="11.189184610048772"><ele>216.0</ele><time>2026-04-04T08:56:40Z</time></trkpt><trkpt lat="43.71137493197014" lon="11.189180746689026"><ele>216.0</ele><time>2026-04-04T08:56:41Z</time></trkpt><trkpt lat="43.711231667533916" lon="11.189145462459107"><ele>216.0</ele><time>2026-04-04T08:56:42Z</time></trkpt><trkpt lat="43.71108273255514" lon="11.189101851100228"><ele>216.0</ele><time>2026-04-04T08:56:43Z</time></trkpt><trkpt lat="43.71094259386773" lon="11.189080568704162"><ele>215.5</ele><time>2026-04-04T08:56:44Z</time></trkpt><trkpt lat="43.710817212650866" lon="11.189037681877597"><ele>215.0</ele><time>2026-04-04T08:56:45Z</time></trkpt><trkpt lat="43.71069761962091" lon="11.188997210484136"><ele>214.5</ele><time>2026-04-04T08:56:46Z</time></trkpt><trkpt lat="43.71058280637429" lon="11.188956576454755"><ele>214.0</ele><time>2026-04-04T08:56:47Z</time></trkpt><trkpt lat="43.7104699972747" lon="11.188892178740582"><ele>213.75</ele><time>2026-04-04T08:56:48Z</time></trkpt><trkpt lat="43.71035791411286" lon="11.18883361632023"><ele>213.5</ele><time>2026-04-04T08:56:49Z</time></trkpt><trkpt lat="43.71024917051841" lon="11.188769552219904"><ele>213.25</ele><time>2026-04-04T08:56:50Z</time></trkpt><trkpt lat="43.71015070467935" lon="11.18869955200046"><ele>213.0</ele><time>2026-04-04T08:56:51Z</time></trkpt><trkpt lat="43.71005859674137" lon="11.188627787942938"><ele>213.0</ele><time>2026-04-04T08:56:52Z</time></trkpt><trkpt lat="43.709959739008106" lon="11.188550764926138"><ele>213.0</ele><time>2026-04-04T08:56:53Z</time></trkpt><trkpt lat="43.70984162443212" lon="11.188458647230346"><ele>213.0</ele><time>2026-04-04T08:56:54Z</time></trkpt><trkpt lat="43.709713530755344" lon="11.188357723079134"><ele>213.0</ele><time>2026-04-04T08:56:55Z</time></trkpt><trkpt lat="43.70957542485462" lon="11.188246348170516"><ele>213.0</ele><time>2026-04-04T08:56:56Z</time></trkpt><trkpt lat="43.709439774567926" lon="11.188127250432911"><ele>213.0</ele><time>2026-04-04T08:56:57Z</time></trkpt><trkpt lat="43.70931725906622" lon="11.188011829874407"><ele>213.0</ele><time>2026-04-04T08:56:58Z</time></trkpt><trkpt lat="43.70919961203744" lon="11.187900106101619"><ele>213.0</ele><time>2026-04-04T08:56:59Z</time></trkpt><trkpt lat="43.70909305005175" lon="11.187797495555728"><ele>213.0</ele><time>2026-04-04T08:57:00Z</time></trkpt><trkpt lat="43.708994019735854" lon="11.187701466809413"><ele>213.0</ele><time>2026-04-04T08:57:01Z</time></trkpt><trkpt lat="43.708894818839454" lon="11.18760521203263"><ele>213.0</ele><time>2026-04-04T08:57:01.999Z</time></trkpt><trkpt lat="43.708795720287114" lon="11.187508344985206"><ele>213.0</ele><time>2026-04-04T08:57:02.999Z</time></trkpt><trkpt lat="43.708706187816915" lon="11.187420793761802"><ele>213.0</ele><time>2026-04-04T08:57:03.999Z</time></trkpt><trkpt lat="43.70862165115522" lon="11.187338129220024"><ele>213.0</ele><time>2026-04-04T08:57:04.999Z</time></trkpt><trkpt lat="43.70854109498818" lon="11.187260948113758"><ele>213.0</ele><time>2026-04-04T08:57:05.999Z</time></trkpt><trkpt lat="43.70845627102161" lon="11.187185131593719"><ele>213.0</ele><time>2026-04-04T08:57:06.999Z</time></trkpt><trkpt lat="43.708381193392086" lon="11.18712587638939"><ele>214.33333333333331</ele><time>2026-04-04T08:57:07.999Z</time></trkpt><trkpt lat="43.70819925952853" lon="11.187085684686325"><ele>215.66666666666666</ele><time>2026-04-04T08:57:08.999Z</time></trkpt><trkpt lat="43.708022175926686" lon="11.1870241760094"><ele>217.0</ele><time>2026-04-04T08:57:09.999Z</time></trkpt><trkpt lat="43.707826145657585" lon="11.186976350854401"><ele>219.0</ele><time>2026-04-04T08:57:10.999Z</time></trkpt><trkpt lat="43.70761940849656" lon="11.186927171359656"><ele>221.0</ele><time>2026-04-04T08:57:11.999Z</time></trkpt><trkpt lat="43.707421503028726" lon="11.186879103999612"><ele>223.0</ele><time>2026-04-04T08:57:12.999Z</time></trkpt><trkpt lat="43.70726336962316" lon="11.186840592364307"><ele>223.0</ele><time>2026-04-04T08:57:13.999Z</time></trkpt><trkpt lat="43.7071201285604" lon="11.186803455924347"><ele>223.0</ele><time>2026-04-04T08:57:14.999Z</time></trkpt><trkpt lat="43.70698257663922" lon="11.18675918843558"><ele>223.0</ele><time>2026-04-04T08:57:15.999Z</time></trkpt><trkpt lat="43.70685464438425" lon="11.186690572643034"><ele>223.0</ele><time>2026-04-04T08:57:16.999Z</time></trkpt><trkpt lat="43.706737137444335" lon="11.18659059218557"><ele>225.0</ele><time>2026-04-04T08:57:17.999Z</time></trkpt><trkpt lat="43.70660954526197" lon="11.186482266098793"><ele>227.0</ele><time>2026-04-04T08:57:18.999Z</time></trkpt><trkpt lat="43.70647760812273" lon="11.186417951882657"><ele>229.0</ele><time>2026-04-04T08:57:19.999Z</time></trkpt><trkpt lat="43.70635863381824" lon="11.186358695038631"><ele>231.0</ele><time>2026-04-04T08:57:20.999Z</time></trkpt><trkpt lat="43.706204937643705" lon="11.186336187534417"><ele>231.75</ele><time>2026-04-04T08:57:21.999Z</time></trkpt><trkpt lat="43.706045349998" lon="11.18631161704875"><ele>232.5</ele><time>2026-04-04T08:57:22.999Z</time></trkpt><trkpt lat="43.705908643121035" lon="11.18629056944653"><ele>233.25</ele><time>2026-04-04T08:57:23.999Z</time></trkpt><trkpt lat="43.70578721163284" lon="11.1862710222992"><ele>234.0</ele><time>2026-04-04T08:57:24.999Z</time></trkpt><trkpt lat="43.7056680123498" lon="11.18624771548694"><ele>234.0</ele><time>2026-04-04T08:57:25.999Z</time></trkpt><trkpt lat="43.70554469045972" lon="11.18621012473525"><ele>233.99999999999997</ele><time>2026-04-04T08:57:26.999Z</time></trkpt><trkpt lat="43.7054287314439" lon="11.186164849900527"><ele>233.99999999999997</ele><time>2026-04-04T08:57:27.999Z</time></trkpt><trkpt lat="43.705331139319156" lon="11.186119536328777"><ele>234.0</ele><time>2026-04-04T08:57:28.999Z</time></trkpt><trkpt lat="43.705242825316326" lon="11.186073945711689"><ele>234.0</ele><time>2026-04-04T08:57:29.999Z</time></trkpt><trkpt lat="43.70515623941115" lon="11.186026819078007"><ele>233.6</ele><time>2026-04-04T08:57:30.999Z</time></trkpt><trkpt lat="43.70507190837884" lon="11.185969314509602"><ele>233.2</ele><time>2026-04-04T08:57:31.999Z</time></trkpt><trkpt lat="43.7049976270153" lon="11.185903935531615"><ele>232.79999999999998</ele><time>2026-04-04T08:57:32.999Z</time></trkpt><trkpt lat="43.70492136834847" lon="11.18580789188678"><ele>232.39999999999998</ele><time>2026-04-04T08:57:33.999Z</time></trkpt><trkpt lat="43.70486182346668" lon="11.185661250114034"><ele>232.0</ele><time>2026-04-04T08:57:34.999Z</time></trkpt><trkpt lat="43.70478737210606" lon="11.185491935353618"><ele>232.0</ele><time>2026-04-04T08:57:35.999Z</time></trkpt><trkpt lat="43.70473817705032" lon="11.18531227255859"><ele>232.0</ele><time>2026-04-04T08:57:36.999Z</time></trkpt><trkpt lat="43.70468964571129" lon="11.18514742261202"><ele>232.0</ele><time>2026-04-04T08:57:37.999Z</time></trkpt><trkpt lat="43.70464893971913" lon="11.185005481443165"><ele>232.0</ele><time>2026-04-04T08:57:38.999Z</time></trkpt><trkpt lat="43.704611532910555" lon="11.184871332956984"><ele>232.6</ele><time>2026-04-04T08:57:39.999Z</time></trkpt><trkpt lat="43.70457216105707" lon="11.184739556251168"><ele>233.2</ele><time>2026-04-04T08:57:40.999Z</time></trkpt><trkpt lat="43.70455176553627" lon="11.184606097710333"><ele>233.8</ele><time>2026-04-04T08:57:41.999Z</time></trkpt><trkpt lat="43.70451801296549" lon="11.184485183829183"><ele>234.4</ele><time>2026-04-04T08:57:42.999Z</time></trkpt><trkpt lat="43.70448777008841" lon="11.18437553075651"><ele>235.0</ele><time>2026-04-04T08:57:43.999Z</time></trkpt><trkpt lat="43.704455823477886" lon="11.18425970018461"><ele>235.0</ele><time>2026-04-04T08:57:44.999Z</time></trkpt><trkpt lat="43.704423237956846" lon="11.18414155311057"><ele>235.0</ele><time>2026-04-04T08:57:45.999Z</time></trkpt><trkpt lat="43.70438787010605" lon="11.184016396065052"><ele>235.0</ele><time>2026-04-04T08:57:46.999Z</time></trkpt><trkpt lat="43.704345226658695" lon="11.183882711964122"><ele>235.0</ele><time>2026-04-04T08:57:47.999Z</time></trkpt><trkpt lat="43.704298357866584" lon="11.183732408010396"><ele>235.0</ele><time>2026-04-04T08:57:48.999Z</time></trkpt><trkpt lat="43.70423149691026" lon="11.183580153626243"><ele>235.0</ele><time>2026-04-04T08:57:49.999Z</time></trkpt><trkpt lat="43.70415285388828" lon="11.183429609349362"><ele>235.0</ele><time>2026-04-04T08:57:50.999Z</time></trkpt><trkpt lat="43.70406205584961" lon="11.183291110499358"><ele>235.0</ele><time>2026-04-04T08:57:51.999Z</time></trkpt><trkpt lat="43.703985965054" lon="11.183142223995596"><ele>235.0</ele><time>2026-04-04T08:57:52.999Z</time></trkpt><trkpt lat="43.70390751357323" lon="11.183012044877191"><ele>235.0</ele><time>2026-04-04T08:57:53.999Z</time></trkpt><trkpt lat="43.70386749559651" lon="11.182829135834252"><ele>235.0</ele><time>2026-04-04T08:57:54.999Z</time></trkpt><trkpt lat="43.70383361751493" lon="11.18261503422942"><ele>235.0</ele><time>2026-04-04T08:57:55.999Z</time></trkpt><trkpt lat="43.703765723174094" lon="11.18239506176773"><ele>237.66666666666666</ele><time>2026-04-04T08:57:56.999Z</time></trkpt><trkpt lat="43.703666899000694" lon="11.182166925309414"><ele>240.33333333333331</ele><time>2026-04-04T08:57:57.999Z</time></trkpt><trkpt lat="43.70357481658636" lon="11.181918670985876"><ele>243.0</ele><time>2026-04-04T08:57:58.999Z</time></trkpt><trkpt lat="43.70347453052838" lon="11.181690670569036"><ele>235.66666666666669</ele><time>2026-04-04T08:57:59.999Z</time></trkpt><trkpt lat="43.703375408366945" lon="11.181478685221574"><ele>228.33333333333334</ele><time>2026-04-04T08:58:00.999Z</time></trkpt><trkpt lat="43.703276956633346" lon="11.181271342649767"><ele>221.0</ele><time>2026-04-04T08:58:01.999Z</time></trkpt><trkpt lat="43.70318234584666" lon="11.181085149705677"><ele>221.0</ele><time>2026-04-04T08:58:02.999Z</time></trkpt><trkpt lat="43.70312693151568" lon="11.180875246233501"><ele>221.0</ele><time>2026-04-04T08:58:03.999Z</time></trkpt><trkpt lat="43.703095363602806" lon="11.180688122481595"><ele>221.0</ele><time>2026-04-04T08:58:04.999Z</time></trkpt><trkpt lat="43.70302844154377" lon="11.180519420726705"><ele>221.0</ele><time>2026-04-04T08:58:05.999Z</time></trkpt><trkpt lat="43.70290726461682" lon="11.180383414492217"><ele>223.66666666666669</ele><time>2026-04-04T08:58:06.999Z</time></trkpt><trkpt lat="43.70275093194934" lon="11.180250474981367"><ele>226.33333333333331</ele><time>2026-04-04T08:58:07.999Z</time></trkpt><trkpt lat="43.702583072631505" lon="11.180127218655658"><ele>229.0</ele><time>2026-04-04T08:58:08.999Z</time></trkpt><trkpt lat="43.702432558441295" lon="11.18001473291496"><ele>225.75</ele><time>2026-04-04T08:58:09.999Z</time></trkpt><trkpt lat="43.702301792040124" lon="11.179916871281673"><ele>222.5</ele><time>2026-04-04T08:58:10.999Z</time></trkpt><trkpt lat="43.702182674974196" lon="11.179825972999321"><ele>219.25</ele><time>2026-04-04T08:58:11.999Z</time></trkpt><trkpt lat="43.70208370855678" lon="11.179729955898319"><ele>216.0</ele><time>2026-04-04T08:58:12.999Z</time></trkpt><trkpt lat="43.702005443040804" lon="11.179633627552409"><ele>216.0</ele><time>2026-04-04T08:58:13.999Z</time></trkpt><trkpt lat="43.70196037857383" lon="11.179516697219078"><ele>216.00000000000003</ele><time>2026-04-04T08:58:14.999Z</time></trkpt><trkpt lat="43.70195655870415" lon="11.179349991278814"><ele>216.00000000000003</ele><time>2026-04-04T08:58:15.999Z</time></trkpt><trkpt lat="43.70196938429721" lon="11.17918240494346"><ele>216.0</ele><time>2026-04-04T08:58:16.999Z</time></trkpt><trkpt lat="43.701983567664605" lon="11.179033469200634"><ele>216.0</ele><time>2026-04-04T08:58:17.999Z</time></trkpt><trkpt lat="43.70196347289655" lon="11.178908048828774"><ele>214.5</ele><time>2026-04-04T08:58:18.999Z</time></trkpt><trkpt lat="43.70191365565625" lon="11.17880159552388"><ele>213.0</ele><time>2026-04-04T08:58:19.999Z</time></trkpt><trkpt lat="43.70185077378123" lon="11.178703723762268"><ele>211.5</ele><time>2026-04-04T08:58:20.999Z</time></trkpt><trkpt lat="43.70172293949723" lon="11.178684097724565"><ele>210.0</ele><time>2026-04-04T08:58:21.999Z</time></trkpt><trkpt lat="43.70157999559857" lon="11.178745412482792"><ele>210.0</ele><time>2026-04-04T08:58:22.999Z</time></trkpt><trkpt lat="43.70142490201966" lon="11.178823678048955"><ele>210.0</ele><time>2026-04-04T08:58:23.999Z</time></trkpt><trkpt lat="43.701251357409035" lon="11.178907596055085"><ele>210.0</ele><time>2026-04-04T08:58:24.999Z</time></trkpt><trkpt lat="43.701075595178175" lon="11.178979293791116"><ele>204.0</ele><time>2026-04-04T08:58:25.999Z</time></trkpt><trkpt lat="43.700912144363805" lon="11.179025218761142"><ele>198.0</ele><time>2026-04-04T08:58:26.999Z</time></trkpt><trkpt lat="43.70076346434124" lon="11.179061712541035"><ele>192.0</ele><time>2026-04-04T08:58:27.999Z</time></trkpt><trkpt lat="43.70062238980253" lon="11.179094346916264"><ele>192.0</ele><time>2026-04-04T08:58:28.999Z</time></trkpt><trkpt lat="43.7004855592119" lon="11.179125999514314"><ele>192.0</ele><time>2026-04-04T08:58:29.999Z</time></trkpt><trkpt lat="43.7003637260413" lon="11.179154182833251"><ele>192.0</ele><time>2026-04-04T08:58:30.999Z</time></trkpt><trkpt lat="43.70024582582595" lon="11.179179481665077"><ele>192.0</ele><time>2026-04-04T08:58:31.999Z</time></trkpt><trkpt lat="43.700128816307256" lon="11.179201282379156"><ele>192.0</ele><time>2026-04-04T08:58:32.999Z</time></trkpt><trkpt lat="43.7000194043237" lon="11.1791943653184"><ele>192.0</ele><time>2026-04-04T08:58:33.999Z</time></trkpt><trkpt lat="43.69992604466221" lon="11.179105969107274"><ele>192.0</ele><time>2026-04-04T08:58:34.999Z</time></trkpt><trkpt lat="43.69983591812959" lon="11.178959065297914"><ele>192.0</ele><time>2026-04-04T08:58:35.998Z</time></trkpt><trkpt lat="43.69972631893791" lon="11.178764466080368"><ele>190.0</ele><time>2026-04-04T08:58:36.998Z</time></trkpt><trkpt lat="43.69961209982888" lon="11.178549856557202"><ele>188.0</ele><time>2026-04-04T08:58:37.998Z</time></trkpt><trkpt lat="43.699505857176376" lon="11.178345230312527"><ele>186.0</ele><time>2026-04-04T08:58:38.998Z</time></trkpt><trkpt lat="43.69939939375257" lon="11.17816857551844"><ele>184.33333333333334</ele><time>2026-04-04T08:58:39.998Z</time></trkpt><trkpt lat="43.699301303132245" lon="11.177993376770017"><ele>182.66666666666669</ele><time>2026-04-04T08:58:40.998Z</time></trkpt><trkpt lat="43.69918099646751" lon="11.177862648830565"><ele>181.0</ele><time>2026-04-04T08:58:41.998Z</time></trkpt><trkpt lat="43.69903861494438" lon="11.17771336289258"><ele>181.0</ele><time>2026-04-04T08:58:42.998Z</time></trkpt><trkpt lat="43.69887902684833" lon="11.177583380078069"><ele>181.0</ele><time>2026-04-04T08:58:43.998Z</time></trkpt><trkpt lat="43.69873983265655" lon="11.177468501198568"><ele>181.0</ele><time>2026-04-04T08:58:45Z</time></trkpt><trkpt lat="43.69861667751422" lon="11.177367796361818"><ele>181.5</ele><time>2026-04-04T08:58:46Z</time></trkpt><trkpt lat="43.698512834369915" lon="11.177263489324824"><ele>182.0</ele><time>2026-04-04T08:58:47Z</time></trkpt><trkpt lat="43.69841675777807" lon="11.17711205808087"><ele>182.5</ele><time>2026-04-04T08:58:48Z</time></trkpt><trkpt lat="43.69836320536545" lon="11.176885822632801"><ele>183.0</ele><time>2026-04-04T08:58:49Z</time></trkpt><trkpt lat="43.69830525280093" lon="11.17662552080981"><ele>181.33333333333334</ele><time>2026-04-04T08:58:50Z</time></trkpt><trkpt lat="43.698219859895474" lon="11.176372357154312"><ele>179.66666666666669</ele><time>2026-04-04T08:58:51Z</time></trkpt><trkpt lat="43.698116017504326" lon="11.176114125766139"><ele>178.0</ele><time>2026-04-04T08:58:52Z</time></trkpt><trkpt lat="43.697983805524196" lon="11.17585386679338"><ele>178.5</ele><time>2026-04-04T08:58:53Z</time></trkpt><trkpt lat="43.697845284861295" lon="11.17557520041126"><ele>179.0</ele><time>2026-04-04T08:58:54Z</time></trkpt><trkpt lat="43.69772092268327" lon="11.175286790678975"><ele>179.0</ele><time>2026-04-04T08:58:55Z</time></trkpt><trkpt lat="43.6976378735493" lon="11.174991062549415"><ele>179.0</ele><time>2026-04-04T08:58:56Z</time></trkpt><trkpt lat="43.69752407843608" lon="11.17474268635799"><ele>179.0</ele><time>2026-04-04T08:58:57Z</time></trkpt><trkpt lat="43.697392923492174" lon="11.174506587644716"><ele>177.0</ele><time>2026-04-04T08:58:58Z</time></trkpt><trkpt lat="43.69724647133533" lon="11.174254757450928"><ele>175.0</ele><time>2026-04-04T08:58:59Z</time></trkpt><trkpt lat="43.69708544930046" lon="11.174016151686141"><ele>175.0</ele><time>2026-04-04T08:59:00Z</time></trkpt><trkpt lat="43.69693964919063" lon="11.173760957496118"><ele>175.0</ele><time>2026-04-04T08:59:01Z</time></trkpt><trkpt lat="43.69679311457081" lon="11.173494419079157"><ele>178.5</ele><time>2026-04-04T08:59:02Z</time></trkpt><trkpt lat="43.69663823594685" lon="11.173239796347234"><ele>182.0</ele><time>2026-04-04T08:59:03Z</time></trkpt><trkpt lat="43.696509839576926" lon="11.172988937266393"><ele>182.0</ele><time>2026-04-04T08:59:04Z</time></trkpt><trkpt lat="43.69638511515356" lon="11.172761009984864"><ele>182.0</ele><time>2026-04-04T08:59:05Z</time></trkpt><trkpt lat="43.69626617418956" lon="11.17256015569169"><ele>182.0</ele><time>2026-04-04T08:59:05.999Z</time></trkpt><trkpt lat="43.69613904565277" lon="11.172399170496279"><ele>182.2</ele><time>2026-04-04T08:59:06.999Z</time></trkpt><trkpt lat="43.6960294841441" lon="11.17231161326184"><ele>182.39999999999998</ele><time>2026-04-04T08:59:07.999Z</time></trkpt><trkpt lat="43.69595479774431" lon="11.172229182571035"><ele>182.60000000000002</ele><time>2026-04-04T08:59:08.999Z</time></trkpt><trkpt lat="43.69587512668026" lon="11.172171336157309"><ele>182.8</ele><time>2026-04-04T08:59:09.999Z</time></trkpt><trkpt lat="43.695796203921844" lon="11.17211934978502"><ele>183.0</ele><time>2026-04-04T08:59:10.999Z</time></trkpt><trkpt lat="43.69569414472903" lon="11.172052005974482"><ele>183.0</ele><time>2026-04-04T08:59:11.999Z</time></trkpt><trkpt lat="43.695572442145064" lon="11.171973402885028"><ele>183.0</ele><time>2026-04-04T08:59:12.999Z</time></trkpt><trkpt lat="43.69545082310944" lon="11.17189485379668"><ele>183.0</ele><time>2026-04-04T08:59:13.999Z</time></trkpt><trkpt lat="43.695326268418555" lon="11.17181145274262"><ele>183.0</ele><time>2026-04-04T08:59:14.999Z</time></trkpt><trkpt lat="43.69519330642757" lon="11.171718604582225"><ele>182.5</ele><time>2026-04-04T08:59:15.999Z</time></trkpt><trkpt lat="43.69508823323491" lon="11.171614628833215"><ele>182.0</ele><time>2026-04-04T08:59:16.999Z</time></trkpt><trkpt lat="43.69499692056458" lon="11.171492638870179"><ele>181.5</ele><time>2026-04-04T08:59:17.999Z</time></trkpt><trkpt lat="43.69491922933874" lon="11.171360115178867"><ele>181.0</ele><time>2026-04-04T08:59:18.999Z</time></trkpt><trkpt lat="43.694855789459325" lon="11.171233729479791"><ele>180.16666666666669</ele><time>2026-04-04T08:59:19.999Z</time></trkpt><trkpt lat="43.694799897535894" lon="11.171120204152421"><ele>179.33333333333334</ele><time>2026-04-04T08:59:20.999Z</time></trkpt><trkpt lat="43.694760887567725" lon="11.171019154882654"><ele>178.5</ele><time>2026-04-04T08:59:21.999Z</time></trkpt><trkpt lat="43.694718806459434" lon="11.170926877436184"><ele>177.66666666666666</ele><time>2026-04-04T08:59:22.999Z</time></trkpt><trkpt lat="43.69474367593905" lon="11.170816356710338"><ele>176.83333333333331</ele><time>2026-04-04T08:59:23.999Z</time></trkpt><trkpt lat="43.694782780807486" lon="11.17071096208193"><ele>176.0</ele><time>2026-04-04T08:59:24.999Z</time></trkpt><trkpt lat="43.69478308068434" lon="11.170601404919097"><ele>176.0</ele><time>2026-04-04T08:59:25.999Z</time></trkpt><trkpt lat="43.69477832286477" lon="11.170441477920196"><ele>176.0</ele><time>2026-04-04T08:59:26.999Z</time></trkpt><trkpt lat="43.694691512918276" lon="11.170299001812685"><ele>176.0</ele><time>2026-04-04T08:59:27.999Z</time></trkpt><trkpt lat="43.69462379131346" lon="11.170156823945478"><ele>176.0</ele><time>2026-04-04T08:59:28.999Z</time></trkpt><trkpt lat="43.69456495395357" lon="11.17003038188931"><ele>176.0</ele><time>2026-04-04T08:59:29.999Z</time></trkpt><trkpt lat="43.69450655107161" lon="11.169897147687365"><ele>176.0</ele><time>2026-04-04T08:59:30.999Z</time></trkpt><trkpt lat="43.69444863143174" lon="11.169765015715972"><ele>176.0</ele><time>2026-04-04T08:59:31.999Z</time></trkpt><trkpt lat="43.69439082250904" lon="11.169637316574905"><ele>176.0</ele><time>2026-04-04T08:59:32.999Z</time></trkpt><trkpt lat="43.694346353218684" lon="11.169506142653919"><ele>176.0</ele><time>2026-04-04T08:59:33.999Z</time></trkpt><trkpt lat="43.694301977365114" lon="11.169364525838207"><ele>175.25</ele><time>2026-04-04T08:59:34.999Z</time></trkpt><trkpt lat="43.694297395500584" lon="11.16919603278554"><ele>174.5</ele><time>2026-04-04T08:59:35.999Z</time></trkpt><trkpt lat="43.69431353194513" lon="11.169019479142234"><ele>173.75</ele><time>2026-04-04T08:59:36.999Z</time></trkpt><trkpt lat="43.694351199096914" lon="11.168847992906853"><ele>173.0</ele><time>2026-04-04T08:59:37.999Z</time></trkpt><trkpt lat="43.694426693788024" lon="11.168691766596679"><ele>173.0</ele><time>2026-04-04T08:59:38.999Z</time></trkpt><trkpt lat="43.69445407863274" lon="11.168529844085631"><ele>173.0</ele><time>2026-04-04T08:59:39.999Z</time></trkpt><trkpt lat="43.694485296576836" lon="11.16837416679965"><ele>173.0</ele><time>2026-04-04T08:59:40.999Z</time></trkpt><trkpt lat="43.69452354798987" lon="11.168220698900992"><ele>173.0</ele><time>2026-04-04T08:59:41.999Z</time></trkpt><trkpt lat="43.69501695563218" lon="11.168239821256629"><ele>170.66666666666666</ele><time>2026-04-04T08:59:42.999Z</time></trkpt><trkpt lat="43.69518310789027" lon="11.168159234522896"><ele>168.33333333333334</ele><time>2026-04-04T08:59:43.999Z</time></trkpt><trkpt lat="43.69534470646905" lon="11.168096797874085"><ele>166.0</ele><time>2026-04-04T08:59:44.999Z</time></trkpt><trkpt lat="43.694370387741635" lon="11.167667438995798"><ele>163.5</ele><time>2026-04-04T08:59:45.999Z</time></trkpt><trkpt lat="43.69427037458953" lon="11.16759406694051"><ele>161.0</ele><time>2026-04-04T08:59:46.999Z</time></trkpt><trkpt lat="43.69415060434063" lon="11.16758589348709"><ele>158.5</ele><time>2026-04-04T08:59:47.999Z</time></trkpt><trkpt lat="43.69402221168301" lon="11.167634252640807"><ele>156.0</ele><time>2026-04-04T08:59:48.999Z</time></trkpt><trkpt lat="43.69388221528379" lon="11.16770734218227"><ele>156.0</ele><time>2026-04-04T08:59:49.999Z</time></trkpt><trkpt lat="43.693751430438574" lon="11.16775906367581"><ele>156.0</ele><time>2026-04-04T08:59:50.999Z</time></trkpt><trkpt lat="43.69364195239336" lon="11.167784308206393"><ele>156.0</ele><time>2026-04-04T08:59:51.999Z</time></trkpt><trkpt lat="43.69353898743114" lon="11.167773501510585"><ele>156.0</ele><time>2026-04-04T08:59:52.999Z</time></trkpt><trkpt lat="43.693442573914346" lon="11.16773305568703"><ele>154.5</ele><time>2026-04-04T08:59:53.999Z</time></trkpt><trkpt lat="43.693343043007" lon="11.167661206972113"><ele>153.0</ele><time>2026-04-04T08:59:54.999Z</time></trkpt><trkpt lat="43.693219791378" lon="11.167569671121472"><ele>151.5</ele><time>2026-04-04T08:59:55.999Z</time></trkpt><trkpt lat="43.69308981079805" lon="11.167471983272414"><ele>150.0</ele><time>2026-04-04T08:59:56.999Z</time></trkpt><trkpt lat="43.692975304709634" lon="11.167386058186446"><ele>148.25</ele><time>2026-04-04T08:59:57.999Z</time></trkpt><trkpt lat="43.69286404566803" lon="11.167303268878008"><ele>146.5</ele><time>2026-04-04T08:59:58.999Z</time></trkpt><trkpt lat="43.69275728649614" lon="11.167223828318152"><ele>144.75</ele><time>2026-04-04T08:59:59.999Z</time></trkpt><trkpt lat="43.692659188623054" lon="11.167144116752054"><ele>143.0</ele><time>2026-04-04T09:00:00.999Z</time></trkpt><trkpt lat="43.69256123176393" lon="11.167062947711454"><ele>143.0</ele><time>2026-04-04T09:00:01.999Z</time></trkpt><trkpt lat="43.69244163271425" lon="11.16700604306069"><ele>143.0</ele><time>2026-04-04T09:00:02.999Z</time></trkpt><trkpt lat="43.6923426942522" lon="11.166909122018309"><ele>143.0</ele><time>2026-04-04T09:00:03.999Z</time></trkpt><trkpt lat="43.692250563267656" lon="11.166803983448721"><ele>143.0</ele><time>2026-04-04T09:00:04.999Z</time></trkpt><trkpt lat="43.69216812424307" lon="11.166681693564676"><ele>143.0</ele><time>2026-04-04T09:00:05.999Z</time></trkpt><trkpt lat="43.69214169857015" lon="11.166503629187288"><ele>143.0</ele><time>2026-04-04T09:00:06.999Z</time></trkpt><trkpt lat="43.69208467704269" lon="11.166364873308678"><ele>143.0</ele><time>2026-04-04T09:00:07.999Z</time></trkpt><trkpt lat="43.69203630525151" lon="11.166240108946763"><ele>143.0</ele><time>2026-04-04T09:00:08.999Z</time></trkpt><trkpt lat="43.691995077863126" lon="11.166123714784964"><ele>143.0</ele><time>2026-04-04T09:00:09.999Z</time></trkpt><trkpt lat="43.69194799565367" lon="11.166002103113795"><ele>141.25</ele><time>2026-04-04T09:00:10.999Z</time></trkpt><trkpt lat="43.691915749221494" lon="11.165844212613475"><ele>139.5</ele><time>2026-04-04T09:00:11.999Z</time></trkpt><trkpt lat="43.69185933449225" lon="11.165659343777056"><ele>137.75</ele><time>2026-04-04T09:00:12.999Z</time></trkpt><trkpt lat="43.691773583811994" lon="11.165452657726831"><ele>136.0</ele><time>2026-04-04T09:00:13.999Z</time></trkpt><trkpt lat="43.691649335530805" lon="11.165239820050628"><ele>135.66666666666669</ele><time>2026-04-04T09:00:14.999Z</time></trkpt><trkpt lat="43.69152388486866" lon="11.165001971138892"><ele>135.33333333333334</ele><time>2026-04-04T09:00:15.999Z</time></trkpt><trkpt lat="43.69137280650057" lon="11.164751872277124"><ele>135.0</ele><time>2026-04-04T09:00:16.999Z</time></trkpt><trkpt lat="43.69120687018376" lon="11.164482111494609"><ele>133.5</ele><time>2026-04-04T09:00:17.999Z</time></trkpt><trkpt lat="43.6910389339755" lon="11.16420597120997"><ele>132.0</ele><time>2026-04-04T09:00:18.999Z</time></trkpt><trkpt lat="43.69086575829859" lon="11.163920661698203"><ele>130.5</ele><time>2026-04-04T09:00:19.999Z</time></trkpt><trkpt lat="43.69070244918623" lon="11.163651132563936"><ele>129.0</ele><time>2026-04-04T09:00:20.999Z</time></trkpt><trkpt lat="43.69055184874572" lon="11.163402578179781"><ele>129.0</ele><time>2026-04-04T09:00:21.999Z</time></trkpt><trkpt lat="43.69041386059386" lon="11.16317120487498"><ele>129.0</ele><time>2026-04-04T09:00:22.999Z</time></trkpt><trkpt lat="43.6902820895749" lon="11.162937666238207"><ele>129.0</ele><time>2026-04-04T09:00:23.999Z</time></trkpt><trkpt lat="43.690157915305946" lon="11.162694081883945"><ele>128.66666666666666</ele><time>2026-04-04T09:00:24.999Z</time></trkpt><trkpt lat="43.690043031071525" lon="11.162452531277667"><ele>128.33333333333331</ele><time>2026-04-04T09:00:25.999Z</time></trkpt><trkpt lat="43.689938779479974" lon="11.162226380729319"><ele>128.0</ele><time>2026-04-04T09:00:26.999Z</time></trkpt><trkpt lat="43.68984492372385" lon="11.162005648850979"><ele>127.33333333333333</ele><time>2026-04-04T09:00:27.999Z</time></trkpt><trkpt lat="43.68977020870753" lon="11.16177623804555"><ele>126.66666666666666</ele><time>2026-04-04T09:00:28.999Z</time></trkpt><trkpt lat="43.6897134191559" lon="11.16152948386559"><ele>126.0</ele><time>2026-04-04T09:00:29.999Z</time></trkpt><trkpt lat="43.68967550382241" lon="11.161245093338088"><ele>125.5</ele><time>2026-04-04T09:00:30.999Z</time></trkpt><trkpt lat="43.68963464091007" lon="11.160937483538927"><ele>125.0</ele><time>2026-04-04T09:00:31.999Z</time></trkpt><trkpt lat="43.68959129547781" lon="11.160608297438774"><ele>124.66666666666666</ele><time>2026-04-04T09:00:32.999Z</time></trkpt><trkpt lat="43.68954924812078" lon="11.160295869214698"><ele>124.33333333333334</ele><time>2026-04-04T09:00:33.999Z</time></trkpt><trkpt lat="43.689517452826045" lon="11.16001207852651"><ele>124.0</ele><time>2026-04-04T09:00:34.999Z</time></trkpt><trkpt lat="43.68949799255582" lon="11.159743287416015"><ele>124.66666666666667</ele><time>2026-04-04T09:00:35.999Z</time></trkpt><trkpt lat="43.68948860686166" lon="11.159459770969075"><ele>125.33333333333334</ele><time>2026-04-04T09:00:36.999Z</time></trkpt><trkpt lat="43.68950494081734" lon="11.159207246850203"><ele>126.0</ele><time>2026-04-04T09:00:37.999Z</time></trkpt><trkpt lat="43.68951520976156" lon="11.158990284279428"><ele>125.5</ele><time>2026-04-04T09:00:38.999Z</time></trkpt><trkpt lat="43.689521933907116" lon="11.158801503142884"><ele>125.0</ele><time>2026-04-04T09:00:39.999Z</time></trkpt><trkpt lat="43.68950906629862" lon="11.158644940663232"><ele>124.5</ele><time>2026-04-04T09:00:40.998Z</time></trkpt><trkpt lat="43.68947318744231" lon="11.158470068990898"><ele>124.0</ele><time>2026-04-04T09:00:41.998Z</time></trkpt><trkpt lat="43.68937614774647" lon="11.158294146149373"><ele>124.66666666666667</ele><time>2026-04-04T09:00:42.998Z</time></trkpt><trkpt lat="43.68923063944848" lon="11.158144348284052"><ele>125.33333333333334</ele><time>2026-04-04T09:00:43.998Z</time></trkpt><trkpt lat="43.689120913285485" lon="11.157982689031362"><ele>126.0</ele><time>2026-04-04T09:00:44.998Z</time></trkpt><trkpt lat="43.68904605999402" lon="11.157822066791825"><ele>126.0</ele><time>2026-04-04T09:00:45.998Z</time></trkpt><trkpt lat="43.68900190359498" lon="11.157645474726447"><ele>126.0</ele><time>2026-04-04T09:00:46.998Z</time></trkpt><trkpt lat="43.68897939918766" lon="11.157453571463847"><ele>126.0</ele><time>2026-04-04T09:00:47.998Z</time></trkpt><trkpt lat="43.688987291185256" lon="11.157259117943163"><ele>126.0</ele><time>2026-04-04T09:00:48.998Z</time></trkpt><trkpt lat="43.68900459655812" lon="11.157053682574798"><ele>125.66666666666666</ele><time>2026-04-04T09:00:49.998Z</time></trkpt><trkpt lat="43.68900998884706" lon="11.156856246853305"><ele>125.33333333333333</ele><time>2026-04-04T09:00:51Z</time></trkpt><trkpt lat="43.68896384737622" lon="11.15665945343979"><ele>125.0</ele><time>2026-04-04T09:00:52Z</time></trkpt><trkpt lat="43.688883880892995" lon="11.156450984813775"><ele>125.5</ele><time>2026-04-04T09:00:53Z</time></trkpt><trkpt lat="43.6887798144011" lon="11.156259762203625"><ele>126.0</ele><time>2026-04-04T09:00:54Z</time></trkpt><trkpt lat="43.688701911020864" lon="11.156108331976647"><ele>126.5</ele><time>2026-04-04T09:00:55Z</time></trkpt><trkpt lat="43.68865984292328" lon="11.155981223703904"><ele>127.0</ele><time>2026-04-04T09:00:56Z</time></trkpt><trkpt lat="43.688662528273646" lon="11.155829617443294"><ele>126.0</ele><time>2026-04-04T09:00:57Z</time></trkpt><trkpt lat="43.68869129735435" lon="11.155630577174394"><ele>125.0</ele><time>2026-04-04T09:00:58Z</time></trkpt><trkpt lat="43.68875152031871" lon="11.15542001211566"><ele>124.0</ele><time>2026-04-04T09:00:59Z</time></trkpt><trkpt lat="43.68880065686495" lon="11.155238724359046"><ele>124.0</ele><time>2026-04-04T09:01:00Z</time></trkpt><trkpt lat="43.68882472051907" lon="11.15506940317318"><ele>124.0</ele><time>2026-04-04T09:01:01Z</time></trkpt><trkpt lat="43.68880212759992" lon="11.154895037161225"><ele>124.0</ele><time>2026-04-04T09:01:02Z</time></trkpt><trkpt lat="43.688727754841324" lon="11.154711081554227"><ele>124.0</ele><time>2026-04-04T09:01:03Z</time></trkpt><trkpt lat="43.68860705840841" lon="11.154532758140423"><ele>122.0</ele><time>2026-04-04T09:01:04Z</time></trkpt><trkpt lat="43.68851305987126" lon="11.154336551223466"><ele>120.0</ele><time>2026-04-04T09:01:05Z</time></trkpt><trkpt lat="43.68843151022064" lon="11.154168969939123"><ele>118.0</ele><time>2026-04-04T09:01:06Z</time></trkpt><trkpt lat="43.688366951262964" lon="11.153968310259259"><ele>118.0</ele><time>2026-04-04T09:01:07Z</time></trkpt><trkpt lat="43.688300382003284" lon="11.153726863270757"><ele>118.0</ele><time>2026-04-04T09:01:08Z</time></trkpt><trkpt lat="43.68821037578024" lon="11.153455563066244"><ele>118.0</ele><time>2026-04-04T09:01:09Z</time></trkpt><trkpt lat="43.688121809765676" lon="11.153150979837136"><ele>118.66666666666667</ele><time>2026-04-04T09:01:10Z</time></trkpt><trkpt lat="43.68801905621576" lon="11.152881026385963"><ele>119.33333333333334</ele><time>2026-04-04T09:01:11Z</time></trkpt><trkpt lat="43.6879279670151" lon="11.152631101297985"><ele>120.0</ele><time>2026-04-04T09:01:12Z</time></trkpt><trkpt lat="43.687865973859054" lon="11.152362201807712"><ele>121.0</ele><time>2026-04-04T09:01:13Z</time></trkpt><trkpt lat="43.68782074280413" lon="11.152062947400298"><ele>122.0</ele><time>2026-04-04T09:01:14Z</time></trkpt><trkpt lat="43.6877722283829" lon="11.151741703221456"><ele>118.33333333333333</ele><time>2026-04-04T09:01:15Z</time></trkpt><trkpt lat="43.68772621050068" lon="11.151448220619304"><ele>114.66666666666666</ele><time>2026-04-04T09:01:16Z</time></trkpt><trkpt lat="43.68768841895852" lon="11.151171700735519"><ele>111.0</ele><time>2026-04-04T09:01:17Z</time></trkpt><trkpt lat="43.6876770142336" lon="11.150901921199363"><ele>111.0</ele><time>2026-04-04T09:01:18Z</time></trkpt><trkpt lat="43.6876883992447" lon="11.150628051428313"><ele>111.0</ele><time>2026-04-04T09:01:18.999Z</time></trkpt><trkpt lat="43.687694730032575" lon="11.150338321443698"><ele>111.0</ele><time>2026-04-04T09:01:19.999Z</time></trkpt><trkpt lat="43.68772166331058" lon="11.150060636396075"><ele>111.33333333333334</ele><time>2026-04-04T09:01:20.999Z</time></trkpt><trkpt lat="43.68774254215482" lon="11.149811914385374"><ele>111.66666666666667</ele><time>2026-04-04T09:01:21.999Z</time></trkpt><trkpt lat="43.68776181409603" lon="11.149587319678762"><ele>112.0</ele><time>2026-04-04T09:01:22.999Z</time></trkpt><trkpt lat="43.687778110033214" lon="11.14936515912071"><ele>116.33333333333334</ele><time>2026-04-04T09:01:23.999Z</time></trkpt><trkpt lat="43.687792335770716" lon="11.149129155286797"><ele>120.66666666666666</ele><time>2026-04-04T09:01:24.999Z</time></trkpt><trkpt lat="43.68779921273579" lon="11.148900600280717"><ele>125.0</ele><time>2026-04-04T09:01:25.999Z</time></trkpt><trkpt lat="43.68777686144372" lon="11.14868467724374"><ele>120.66666666666666</ele><time>2026-04-04T09:01:26.999Z</time></trkpt><trkpt lat="43.687737650514705" lon="11.14845991198407"><ele>116.33333333333334</ele><time>2026-04-04T09:01:27.999Z</time></trkpt><trkpt lat="43.68767499042036" lon="11.148264268325558"><ele>112.0</ele><time>2026-04-04T09:01:28.999Z</time></trkpt><trkpt lat="43.68759979651588" lon="11.148057125711741"><ele>112.0</ele><time>2026-04-04T09:01:29.999Z</time></trkpt><trkpt lat="43.68752777742888" lon="11.147860715095312"><ele>112.0</ele><time>2026-04-04T09:01:30.999Z</time></trkpt><trkpt lat="43.68747174677514" lon="11.14766627922663"><ele>112.0</ele><time>2026-04-04T09:01:31.999Z</time></trkpt><trkpt lat="43.687443096822165" lon="11.147450253456721"><ele>110.33333333333334</ele><time>2026-04-04T09:01:32.999Z</time></trkpt><trkpt lat="43.687456314213705" lon="11.147197349200756"><ele>108.66666666666666</ele><time>2026-04-04T09:01:33.999Z</time></trkpt><trkpt lat="43.68751634635298" lon="11.1469484780278"><ele>107.0</ele><time>2026-04-04T09:01:34.999Z</time></trkpt><trkpt lat="43.68760540549547" lon="11.14666927523451"><ele>106.0</ele><time>2026-04-04T09:01:35.999Z</time></trkpt><trkpt lat="43.68771768939152" lon="11.146399052918778"><ele>105.0</ele><time>2026-04-04T09:01:36.999Z</time></trkpt><trkpt lat="43.68781326133212" lon="11.146148638614948"><ele>104.0</ele><time>2026-04-04T09:01:37.999Z</time></trkpt><trkpt lat="43.68788842109931" lon="11.145932180538155"><ele>107.66666666666666</ele><time>2026-04-04T09:01:38.999Z</time></trkpt><trkpt lat="43.68794890768806" lon="11.145715992171503"><ele>111.33333333333334</ele><time>2026-04-04T09:01:39.999Z</time></trkpt><trkpt lat="43.6879872133865" lon="11.145493966553236"><ele>115.0</ele><time>2026-04-04T09:01:40.999Z</time></trkpt><trkpt lat="43.68796453710351" lon="11.145249321585029"><ele>115.0</ele><time>2026-04-04T09:01:41.999Z</time></trkpt><trkpt lat="43.68790162991849" lon="11.145008418849349"><ele>115.0</ele><time>2026-04-04T09:01:42.999Z</time></trkpt><trkpt lat="43.68780191206622" lon="11.144800525019415"><ele>115.0</ele><time>2026-04-04T09:01:43.999Z</time></trkpt><trkpt lat="43.68771155406488" lon="11.14461468440047"><ele>112.25</ele><time>2026-04-04T09:01:44.999Z</time></trkpt><trkpt lat="43.687630822540584" lon="11.144461182505166"><ele>109.5</ele><time>2026-04-04T09:01:45.999Z</time></trkpt><trkpt lat="43.68757391713078" lon="11.144314364224785"><ele>106.75</ele><time>2026-04-04T09:01:46.999Z</time></trkpt><trkpt lat="43.687524287672936" lon="11.144125517195366"><ele>104.0</ele><time>2026-04-04T09:01:47.999Z</time></trkpt><trkpt lat="43.68748997577826" lon="11.14389753085792"><ele>104.0</ele><time>2026-04-04T09:01:48.999Z</time></trkpt><trkpt lat="43.68746387294816" lon="11.143665423001643"><ele>104.0</ele><time>2026-04-04T09:01:49.999Z</time></trkpt><trkpt lat="43.687454729151355" lon="11.143459488223536"><ele>104.0</ele><time>2026-04-04T09:01:50.999Z</time></trkpt><trkpt lat="43.68746025413865" lon="11.143252874830205"><ele>104.0</ele><time>2026-04-04T09:01:51.999Z</time></trkpt><trkpt lat="43.687496307539995" lon="11.143035557918338"><ele>104.0</ele><time>2026-04-04T09:01:52.999Z</time></trkpt><trkpt lat="43.68755635076059" lon="11.142784944181471"><ele>104.0</ele><time>2026-04-04T09:01:53.999Z</time></trkpt><trkpt lat="43.68765619953377" lon="11.142533122697769"><ele>105.33333333333333</ele><time>2026-04-04T09:01:54.999Z</time></trkpt><trkpt lat="43.687765671169586" lon="11.142282403863954"><ele>106.66666666666666</ele><time>2026-04-04T09:01:55.999Z</time></trkpt><trkpt lat="43.68786939330825" lon="11.142054856885864"><ele>108.0</ele><time>2026-04-04T09:01:56.999Z</time></trkpt><trkpt lat="43.687953641632724" lon="11.141841486902495"><ele>108.0</ele><time>2026-04-04T09:01:57.999Z</time></trkpt><trkpt lat="43.6880058225118" lon="11.141618944364152"><ele>108.0</ele><time>2026-04-04T09:01:58.999Z</time></trkpt><trkpt lat="43.68801956132463" lon="11.141378624946451"><ele>108.0</ele><time>2026-04-04T09:01:59.999Z</time></trkpt><trkpt lat="43.687998291997616" lon="11.1411467788271"><ele>108.0</ele><time>2026-04-04T09:02:00.999Z</time></trkpt><trkpt lat="43.687942987744904" lon="11.140910994543619"><ele>108.0</ele><time>2026-04-04T09:02:01.999Z</time></trkpt><trkpt lat="43.687893948573915" lon="11.140665156219042"><ele>108.0</ele><time>2026-04-04T09:02:02.999Z</time></trkpt><trkpt lat="43.68783871504727" lon="11.140436052551834"><ele>108.0</ele><time>2026-04-04T09:02:03.999Z</time></trkpt><trkpt lat="43.68779142105305" lon="11.140206097710445"><ele>108.0</ele><time>2026-04-04T09:02:04.999Z</time></trkpt><trkpt lat="43.68774523344156" lon="11.139956093864692"><ele>108.0</ele><time>2026-04-04T09:02:05.999Z</time></trkpt><trkpt lat="43.687696445602334" lon="11.139672100566287"><ele>103.5</ele><time>2026-04-04T09:02:06.999Z</time></trkpt><trkpt lat="43.6876224137173" lon="11.139384659598857"><ele>99.0</ele><time>2026-04-04T09:02:07.999Z</time></trkpt><trkpt lat="43.687597992998626" lon="11.139060528600082"><ele>99.0</ele><time>2026-04-04T09:02:08.999Z</time></trkpt><trkpt lat="43.68756850496272" lon="11.138743936825282"><ele>99.0</ele><time>2026-04-04T09:02:09.999Z</time></trkpt><trkpt lat="43.68754101855137" lon="11.138455666587179"><ele>99.0</ele><time>2026-04-04T09:02:10.999Z</time></trkpt><trkpt lat="43.687538614640474" lon="11.138189035886247"><ele>98.66666666666666</ele><time>2026-04-04T09:02:11.999Z</time></trkpt><trkpt lat="43.68750680188744" lon="11.137943669218737"><ele>98.33333333333333</ele><time>2026-04-04T09:02:12.999Z</time></trkpt><trkpt lat="43.68753129630987" lon="11.137680643383899"><ele>98.0</ele><time>2026-04-04T09:02:13.999Z</time></trkpt><trkpt lat="43.68755017847629" lon="11.137388947938875"><ele>98.0</ele><time>2026-04-04T09:02:14.999Z</time></trkpt><trkpt lat="43.687592425039576" lon="11.137082061418688"><ele>98.0</ele><time>2026-04-04T09:02:15.999Z</time></trkpt><trkpt lat="43.6876331675184" lon="11.136774182903109"><ele>97.5</ele><time>2026-04-04T09:02:16.999Z</time></trkpt><trkpt lat="43.68767675121991" lon="11.136445074973288"><ele>97.0</ele><time>2026-04-04T09:02:17.999Z</time></trkpt><trkpt lat="43.687718297924945" lon="11.136116246565864"><ele>100.33333333333334</ele><time>2026-04-04T09:02:18.999Z</time></trkpt><trkpt lat="43.68776034541519" lon="11.135812779444318"><ele>103.66666666666666</ele><time>2026-04-04T09:02:19.999Z</time></trkpt><trkpt lat="43.68779627784093" lon="11.135547282052737"><ele>107.0</ele><time>2026-04-04T09:02:20.999Z</time></trkpt><trkpt lat="43.68782544551247" lon="11.135308205065805"><ele>107.0</ele><time>2026-04-04T09:02:21.999Z</time></trkpt><trkpt lat="43.687831870265164" lon="11.135069398005083"><ele>107.0</ele><time>2026-04-04T09:02:22.999Z</time></trkpt><trkpt lat="43.687809360918294" lon="11.134814622946392"><ele>107.0</ele><time>2026-04-04T09:02:23.999Z</time></trkpt><trkpt lat="43.687751293395635" lon="11.134548352425798"><ele>105.0</ele><time>2026-04-04T09:02:24.999Z</time></trkpt><trkpt lat="43.68770006282595" lon="11.134291422933257"><ele>103.0</ele><time>2026-04-04T09:02:25.999Z</time></trkpt><trkpt lat="43.687619346819865" lon="11.134092156651818"><ele>101.0</ele><time>2026-04-04T09:02:26.999Z</time></trkpt><trkpt lat="43.68757343247238" lon="11.133908054863944"><ele>101.0</ele><time>2026-04-04T09:02:27.999Z</time></trkpt><trkpt lat="43.68753682525388" lon="11.133709308365058"><ele>101.0</ele><time>2026-04-04T09:02:28.999Z</time></trkpt><trkpt lat="43.68751357953582" lon="11.133504769331708"><ele>101.0</ele><time>2026-04-04T09:02:29.999Z</time></trkpt><trkpt lat="43.68750188192398" lon="11.133310026954483"><ele>101.0</ele><time>2026-04-04T09:02:30.999Z</time></trkpt><trkpt lat="43.68749862311717" lon="11.133126858033762"><ele>100.75</ele><time>2026-04-04T09:02:31.999Z</time></trkpt><trkpt lat="43.687483478107275" lon="11.132945669404016"><ele>100.5</ele><time>2026-04-04T09:02:32.999Z</time></trkpt><trkpt lat="43.68744055466143" lon="11.132754261473178"><ele>100.25</ele><time>2026-04-04T09:02:33.999Z</time></trkpt><trkpt lat="43.687372347389605" lon="11.13258141697939"><ele>100.0</ele><time>2026-04-04T09:02:34.999Z</time></trkpt><trkpt lat="43.68728500407958" lon="11.13243819856282"><ele>99.25</ele><time>2026-04-04T09:02:35.999Z</time></trkpt><trkpt lat="43.68721782565841" lon="11.132290702655089"><ele>98.5</ele><time>2026-04-04T09:02:36.999Z</time></trkpt><trkpt lat="43.687146345879626" lon="11.132164283804642"><ele>97.75</ele><time>2026-04-04T09:02:37.999Z</time></trkpt><trkpt lat="43.687072756474215" lon="11.132038068929152"><ele>97.0</ele><time>2026-04-04T09:02:38.999Z</time></trkpt><trkpt lat="43.68700004456153" lon="11.131912553896116"><ele>96.25</ele><time>2026-04-04T09:02:39.999Z</time></trkpt><trkpt lat="43.68692297818949" lon="11.13178227683137"><ele>95.5</ele><time>2026-04-04T09:02:40.999Z</time></trkpt><trkpt lat="43.68683793386473" lon="11.13164150223129"><ele>94.75</ele><time>2026-04-04T09:02:41.999Z</time></trkpt><trkpt lat="43.686753691639886" lon="11.131504337152247"><ele>94.0</ele><time>2026-04-04T09:02:42.999Z</time></trkpt><trkpt lat="43.68666408546865" lon="11.131377330628899"><ele>94.0</ele><time>2026-04-04T09:02:43.999Z</time></trkpt><trkpt lat="43.68657300256879" lon="11.131265264716706"><ele>94.0</ele><time>2026-04-04T09:02:44.999Z</time></trkpt><trkpt lat="43.68647942534201" lon="11.131162311053188"><ele>94.0</ele><time>2026-04-04T09:02:45.999Z</time></trkpt><trkpt lat="43.68638717651956" lon="11.131067800902436"><ele>94.0</ele><time>2026-04-04T09:02:46.999Z</time></trkpt><trkpt lat="43.686296937415314" lon="11.130973478149492"><ele>94.0</ele><time>2026-04-04T09:02:47.999Z</time></trkpt><trkpt lat="43.68621100209147" lon="11.130883653927672"><ele>94.0</ele><time>2026-04-04T09:02:48.999Z</time></trkpt><trkpt lat="43.68612655621862" lon="11.130795386541578"><ele>94.0</ele><time>2026-04-04T09:02:49.999Z</time></trkpt><trkpt lat="43.68604419502314" lon="11.130709298174315"><ele>94.0</ele><time>2026-04-04T09:02:50.999Z</time></trkpt><trkpt lat="43.685965315027886" lon="11.130626848548639"><ele>94.0</ele><time>2026-04-04T09:02:51.999Z</time></trkpt><trkpt lat="43.685888754052755" lon="11.130546823225183"><ele>93.2</ele><time>2026-04-04T09:02:52.999Z</time></trkpt><trkpt lat="43.68581571051918" lon="11.130470452257518"><ele>92.4</ele><time>2026-04-04T09:02:53.999Z</time></trkpt><trkpt lat="43.68574197471988" lon="11.13039336599985"><ele>91.6</ele><time>2026-04-04T09:02:54.999Z</time></trkpt><trkpt lat="43.68565968864003" lon="11.130307340958113"><ele>90.8</ele><time>2026-04-04T09:02:56Z</time></trkpt><trkpt lat="43.685568831697346" lon="11.130212355606337"><ele>90.0</ele><time>2026-04-04T09:02:57Z</time></trkpt><trkpt lat="43.685479072989004" lon="11.13011851836263"><ele>90.0</ele><time>2026-04-04T09:02:58Z</time></trkpt><trkpt lat="43.68539130884555" lon="11.13002676632212"><ele>90.0</ele><time>2026-04-04T09:02:59Z</time></trkpt><trkpt lat="43.685317850555116" lon="11.129951225834377"><ele>90.0</ele><time>2026-04-04T09:03:00Z</time></trkpt><trkpt lat="43.685249491217675" lon="11.129881778953644"><ele>90.0</ele><time>2026-04-04T09:03:01Z</time></trkpt><trkpt lat="43.68517237398864" lon="11.129797887051746"><ele>90.0</ele><time>2026-04-04T09:03:03Z</time></trkpt><trkpt lat="43.68511823943932" lon="11.129736832304792"><ele>89.16666666666667</ele><time>2026-04-04T09:03:06Z</time></trkpt><trkpt lat="43.685064754604525" lon="11.129671087323372"><ele>88.33333333333333</ele><time>2026-04-04T09:03:08Z</time></trkpt><trkpt lat="43.685018922580866" lon="11.129608156483075"><ele>87.5</ele><time>2026-04-04T09:03:09Z</time></trkpt><trkpt lat="43.684970388934154" lon="11.129519643485072"><ele>86.66666666666666</ele><time>2026-04-04T09:03:10Z</time></trkpt><trkpt lat="43.68492133199677" lon="11.129412842550366"><ele>85.83333333333333</ele><time>2026-04-04T09:03:11Z</time></trkpt><trkpt lat="43.6848744815067" lon="11.12929247499607"><ele>85.0</ele><time>2026-04-04T09:03:12Z</time></trkpt><trkpt lat="43.684835691542524" lon="11.12918228601949"><ele>84.8</ele><time>2026-04-04T09:03:13Z</time></trkpt><trkpt lat="43.684824077111465" lon="11.129058274737146"><ele>84.6</ele><time>2026-04-04T09:03:14Z</time></trkpt><trkpt lat="43.684753995740884" lon="11.128904334073125"><ele>84.4</ele><time>2026-04-04T09:03:16Z</time></trkpt><trkpt lat="43.68473125529511" lon="11.128822312247411"><ele>84.2</ele><time>2026-04-04T09:03:17Z</time></trkpt><trkpt lat="43.68468982646232" lon="11.128671312354776"><ele>84.0</ele><time>2026-04-04T09:03:19Z</time></trkpt><trkpt lat="43.68464451044802" lon="11.12851778838174"><ele>84.0</ele><time>2026-04-04T09:03:21Z</time></trkpt><trkpt lat="43.68459890223184" lon="11.12839279739141"><ele>84.0</ele><time>2026-04-04T09:03:23Z</time></trkpt><trkpt lat="43.68455269752515" lon="11.12831514803449"><ele>84.0</ele><time>2026-04-04T09:03:24.999Z</time></trkpt><trkpt lat="43.68451016387528" lon="11.128229309008423"><ele>84.0</ele><time>2026-04-04T09:03:26.999Z</time></trkpt><trkpt lat="43.68446771061998" lon="11.1281083352705"><ele>84.0</ele><time>2026-04-04T09:03:28.999Z</time></trkpt><trkpt lat="43.68441064034954" lon="11.12800261617785"><ele>84.0</ele><time>2026-04-04T09:03:30.999Z</time></trkpt><trkpt lat="43.684370240375664" lon="11.12785800980176"><ele>83.6</ele><time>2026-04-04T09:03:32.999Z</time></trkpt><trkpt lat="43.68431710641078" lon="11.127749105543186"><ele>83.2</ele><time>2026-04-04T09:03:33.999Z</time></trkpt><trkpt lat="43.68424823258777" lon="11.127643754289657"><ele>82.8</ele><time>2026-04-04T09:03:34.999Z</time></trkpt><trkpt lat="43.68417773636404" lon="11.127524990516012"><ele>82.39999999999999</ele><time>2026-04-04T09:03:35.999Z</time></trkpt><trkpt lat="43.684096307016645" lon="11.127389965016848"><ele>82.0</ele><time>2026-04-04T09:03:36.999Z</time></trkpt><trkpt lat="43.68401729934687" lon="11.127260946971502"><ele>81.75</ele><time>2026-04-04T09:03:37.999Z</time></trkpt><trkpt lat="43.68393929968393" lon="11.127127003615255"><ele>81.5</ele><time>2026-04-04T09:03:38.999Z</time></trkpt><trkpt lat="43.68385724899585" lon="11.126979330779315"><ele>81.25</ele><time>2026-04-04T09:03:39.999Z</time></trkpt><trkpt lat="43.6837896381856" lon="11.126826315040741"><ele>81.0</ele><time>2026-04-04T09:03:40.999Z</time></trkpt><trkpt lat="43.68373388122575" lon="11.126661245390427"><ele>79.75</ele><time>2026-04-04T09:03:41.999Z</time></trkpt><trkpt lat="43.68368186411446" lon="11.126488485586624"><ele>78.5</ele><time>2026-04-04T09:03:42.999Z</time></trkpt><trkpt lat="43.683624377843934" lon="11.126321168576817"><ele>77.25</ele><time>2026-04-04T09:03:43.999Z</time></trkpt><trkpt lat="43.68354876784665" lon="11.126148848746162"><ele>76.0</ele><time>2026-04-04T09:03:44.999Z</time></trkpt><trkpt lat="43.68344421566002" lon="11.125982161736774"><ele>76.0</ele><time>2026-04-04T09:03:45.999Z</time></trkpt><trkpt lat="43.68334229453549" lon="11.125829031866413"><ele>76.0</ele><time>2026-04-04T09:03:46.999Z</time></trkpt><trkpt lat="43.68323171307976" lon="11.125664726183144"><ele>76.0</ele><time>2026-04-04T09:03:47.999Z</time></trkpt><trkpt lat="43.68310228922903" lon="11.125489730838341"><ele>76.0</ele><time>2026-04-04T09:03:48.999Z</time></trkpt><trkpt lat="43.68296453812786" lon="11.125314008189124"><ele>76.0</ele><time>2026-04-04T09:03:49.999Z</time></trkpt><trkpt lat="43.682807911613644" lon="11.125112249640905"><ele>76.0</ele><time>2026-04-04T09:03:50.999Z</time></trkpt><trkpt lat="43.68264540637415" lon="11.124892259703778"><ele>76.0</ele><time>2026-04-04T09:03:51.999Z</time></trkpt><trkpt lat="43.682482491000506" lon="11.124665200557162"><ele>76.0</ele><time>2026-04-04T09:03:52.999Z</time></trkpt><trkpt lat="43.68232169360005" lon="11.124439055172436"><ele>76.0</ele><time>2026-04-04T09:03:53.999Z</time></trkpt><trkpt lat="43.682160598017475" lon="11.124209868299342"><ele>76.0</ele><time>2026-04-04T09:03:54.999Z</time></trkpt><trkpt lat="43.68201145193772" lon="11.123986631520602"><ele>76.0</ele><time>2026-04-04T09:03:55.999Z</time></trkpt><trkpt lat="43.68187251298087" lon="11.1237728837763"><ele>76.0</ele><time>2026-04-04T09:03:56.999Z</time></trkpt><trkpt lat="43.68174798593943" lon="11.123568708590687"><ele>76.0</ele><time>2026-04-04T09:03:57.999Z</time></trkpt><trkpt lat="43.68163783870849" lon="11.12337751834159"><ele>77.66666666666666</ele><time>2026-04-04T09:03:58.999Z</time></trkpt><trkpt lat="43.68153621143174" lon="11.123197888240544"><ele>79.33333333333333</ele><time>2026-04-04T09:03:59.999Z</time></trkpt><trkpt lat="43.68144179019575" lon="11.123029354733802"><ele>81.0</ele><time>2026-04-04T09:04:00.999Z</time></trkpt><trkpt lat="43.681351415869756" lon="11.122865326764671"><ele>81.0</ele><time>2026-04-04T09:04:01.999Z</time></trkpt><trkpt lat="43.68126974350922" lon="11.122713591815582"><ele>81.0</ele><time>2026-04-04T09:04:02.999Z</time></trkpt><trkpt lat="43.68119170933462" lon="11.122568616061015"><ele>81.0</ele><time>2026-04-04T09:04:03.999Z</time></trkpt><trkpt lat="43.681107958386555" lon="11.122413019402995"><ele>81.0</ele><time>2026-04-04T09:04:04.999Z</time></trkpt><trkpt lat="43.68101863145002" lon="11.122247063405743"><ele>81.5</ele><time>2026-04-04T09:04:05.999Z</time></trkpt><trkpt lat="43.68091848058042" lon="11.122086817583014"><ele>82.0</ele><time>2026-04-04T09:04:06.999Z</time></trkpt><trkpt lat="43.68080479369079" lon="11.12197753976539"><ele>82.5</ele><time>2026-04-04T09:04:07.999Z</time></trkpt><trkpt lat="43.680695232904505" lon="11.121872789207533"><ele>83.0</ele><time>2026-04-04T09:04:08.999Z</time></trkpt><trkpt lat="43.68058241023232" lon="11.121757623964076"><ele>83.0</ele><time>2026-04-04T09:04:09.999Z</time></trkpt><trkpt lat="43.68046956919528" lon="11.121625377194025"><ele>83.0</ele><time>2026-04-04T09:04:10.999Z</time></trkpt><trkpt lat="43.68036160479302" lon="11.121443723751538"><ele>83.0</ele><time>2026-04-04T09:04:11.999Z</time></trkpt><trkpt lat="43.68021652152837" lon="11.121277845227407"><ele>86.0</ele><time>2026-04-04T09:04:12.999Z</time></trkpt><trkpt lat="43.68006806358139" lon="11.12110810807046"><ele>89.0</ele><time>2026-04-04T09:04:13.999Z</time></trkpt><trkpt lat="43.67990833427205" lon="11.120926125151401"><ele>92.0</ele><time>2026-04-04T09:04:14.999Z</time></trkpt><trkpt lat="43.67973341911724" lon="11.120727291144009"><ele>96.5</ele><time>2026-04-04T09:04:15.999Z</time></trkpt><trkpt lat="43.67956185917906" lon="11.12053257060421"><ele>101.0</ele><time>2026-04-04T09:04:16.999Z</time></trkpt><trkpt lat="43.67938052879594" lon="11.120330616662194"><ele>102.5</ele><time>2026-04-04T09:04:17.999Z</time></trkpt><trkpt lat="43.67919902220879" lon="11.120128868011335"><ele>104.0</ele><time>2026-04-04T09:04:18.999Z</time></trkpt><trkpt lat="43.67900709789367" lon="11.119915748297489"><ele>107.0</ele><time>2026-04-04T09:04:19.999Z</time></trkpt><trkpt lat="43.678821567986226" lon="11.11970972916798"><ele>110.0</ele><time>2026-04-04T09:04:20.999Z</time></trkpt><trkpt lat="43.67866626951124" lon="11.119536221694743"><ele>113.0</ele><time>2026-04-04T09:04:21.999Z</time></trkpt><trkpt lat="43.67852896113645" lon="11.119371234463285"><ele>113.0</ele><time>2026-04-04T09:04:22.999Z</time></trkpt><trkpt lat="43.67842275647032" lon="11.119198213704653"><ele>113.0</ele><time>2026-04-04T09:04:23.999Z</time></trkpt><trkpt lat="43.678328778851984" lon="11.119025890030905"><ele>113.0</ele><time>2026-04-04T09:04:24.999Z</time></trkpt><trkpt lat="43.67824824076783" lon="11.11886401524055"><ele>116.0</ele><time>2026-04-04T09:04:25.999Z</time></trkpt><trkpt lat="43.67822711674297" lon="11.11866757061276"><ele>119.0</ele><time>2026-04-04T09:04:26.999Z</time></trkpt><trkpt lat="43.67824005020766" lon="11.118435673951266"><ele>122.0</ele><time>2026-04-04T09:04:27.999Z</time></trkpt><trkpt lat="43.67828601920779" lon="11.11817789810063"><ele>124.33333333333333</ele><time>2026-04-04T09:04:28.999Z</time></trkpt><trkpt lat="43.67832189815031" lon="11.117904575058192"><ele>126.66666666666666</ele><time>2026-04-04T09:04:29.999Z</time></trkpt><trkpt lat="43.67834247681959" lon="11.117650974642624"><ele>129.0</ele><time>2026-04-04T09:04:30.999Z</time></trkpt><trkpt lat="43.678327376894686" lon="11.117425324847625"><ele>131.33333333333334</ele><time>2026-04-04T09:04:31.999Z</time></trkpt><trkpt lat="43.678260787133446" lon="11.11719603471133"><ele>133.66666666666669</ele><time>2026-04-04T09:04:32.999Z</time></trkpt><trkpt lat="43.67817616590566" lon="11.116944451270603"><ele>136.0</ele><time>2026-04-04T09:04:33.999Z</time></trkpt><trkpt lat="43.67808992898868" lon="11.116678468550754"><ele>139.33333333333334</ele><time>2026-04-04T09:04:34.999Z</time></trkpt><trkpt lat="43.67800933600732" lon="11.116405970973968"><ele>142.66666666666666</ele><time>2026-04-04T09:04:35.999Z</time></trkpt><trkpt lat="43.67793220991091" lon="11.116117459411281"><ele>146.0</ele><time>2026-04-04T09:04:36.999Z</time></trkpt><trkpt lat="43.677873051909025" lon="11.115806088545677"><ele>144.33333333333331</ele><time>2026-04-04T09:04:37.999Z</time></trkpt><trkpt lat="43.6778190276164" lon="11.115517705740823"><ele>142.66666666666666</ele><time>2026-04-04T09:04:38.999Z</time></trkpt><trkpt lat="43.677774822181924" lon="11.115260164770698"><ele>141.0</ele><time>2026-04-04T09:04:39.999Z</time></trkpt><trkpt lat="43.67774034771647" lon="11.115044216560442"><ele>143.75</ele><time>2026-04-04T09:04:40.999Z</time></trkpt><trkpt lat="43.67770627242812" lon="11.114883855972108"><ele>146.5</ele><time>2026-04-04T09:04:41.999Z</time></trkpt><trkpt lat="43.677654620450156" lon="11.114751153022857"><ele>149.25</ele><time>2026-04-04T09:04:42.999Z</time></trkpt><trkpt lat="43.677546009110635" lon="11.114632107910285"><ele>152.0</ele><time>2026-04-04T09:04:43.999Z</time></trkpt><trkpt lat="43.67737709445887" lon="11.114597724772542"><ele>152.0</ele><time>2026-04-04T09:04:44.999Z</time></trkpt><trkpt lat="43.67718959293429" lon="11.114512598935118"><ele>152.0</ele><time>2026-04-04T09:04:45.999Z</time></trkpt><trkpt lat="43.67699500559851" lon="11.11444868832031"><ele>152.0</ele><time>2026-04-04T09:04:46.999Z</time></trkpt><trkpt lat="43.67681556417771" lon="11.114384906783997"><ele>151.5</ele><time>2026-04-04T09:04:47.999Z</time></trkpt><trkpt lat="43.67665808391182" lon="11.11432453451793"><ele>151.0</ele><time>2026-04-04T09:04:48.999Z</time></trkpt><trkpt lat="43.67651968886976" lon="11.114259464766459"><ele>150.5</ele><time>2026-04-04T09:04:49.999Z</time></trkpt><trkpt lat="43.676406342408114" lon="11.114175030921244"><ele>150.0</ele><time>2026-04-04T09:04:50.999Z</time></trkpt><trkpt lat="43.67628468778617" lon="11.114057866953097"><ele>152.0</ele><time>2026-04-04T09:04:51.999Z</time></trkpt><trkpt lat="43.676157336442394" lon="11.113897564773625"><ele>154.0</ele><time>2026-04-04T09:04:52.999Z</time></trkpt><trkpt lat="43.676035608774505" lon="11.113693700046545"><ele>156.0</ele><time>2026-04-04T09:04:53.999Z</time></trkpt><trkpt lat="43.67591899279165" lon="11.113489096342827"><ele>156.0</ele><time>2026-04-04T09:04:54.999Z</time></trkpt><trkpt lat="43.67582386512535" lon="11.113318604975472"><ele>156.0</ele><time>2026-04-04T09:04:55.999Z</time></trkpt><trkpt lat="43.67574665762932" lon="11.113181108248684"><ele>156.0</ele><time>2026-04-04T09:04:56.999Z</time></trkpt><trkpt lat="43.675692897117486" lon="11.113080867252517"><ele>156.0</ele><time>2026-04-04T09:04:57.999Z</time></trkpt><trkpt lat="43.67565086704385" lon="11.112988152435403"><ele>158.2</ele><time>2026-04-04T09:04:58.999Z</time></trkpt><trkpt lat="43.67563195578111" lon="11.112884537963954"><ele>160.39999999999998</ele><time>2026-04-04T09:04:59.998Z</time></trkpt><trkpt lat="43.67564505891908" lon="11.112768931209075"><ele>162.6</ele><time>2026-04-04T09:05:00.998Z</time></trkpt><trkpt lat="43.67572799321601" lon="11.112658928108692"><ele>164.79999999999998</ele><time>2026-04-04T09:05:02Z</time></trkpt><trkpt lat="43.67582884564083" lon="11.112603304844223"><ele>167.0</ele><time>2026-04-04T09:05:03Z</time></trkpt><trkpt lat="43.67595925712051" lon="11.112627408764325"><ele>167.0</ele><time>2026-04-04T09:05:04Z</time></trkpt><trkpt lat="43.67607221276396" lon="11.11272384546592"><ele>167.0</ele><time>2026-04-04T09:05:05Z</time></trkpt><trkpt lat="43.67615335465587" lon="11.112875138883952"><ele>167.0</ele><time>2026-04-04T09:05:06Z</time></trkpt><trkpt lat="43.676238048859354" lon="11.11305090167031"><ele>167.0</ele><time>2026-04-04T09:05:07Z</time></trkpt><trkpt lat="43.676333261123204" lon="11.113208279415712"><ele>167.0</ele><time>2026-04-04T09:05:08Z</time></trkpt><trkpt lat="43.676433838356935" lon="11.11329805465942"><ele>167.0</ele><time>2026-04-04T09:05:09Z</time></trkpt><trkpt lat="43.67653928555865" lon="11.11335204358482"><ele>167.0</ele><time>2026-04-04T09:05:10Z</time></trkpt><trkpt lat="43.676663914327506" lon="11.113357919272422"><ele>167.0</ele><time>2026-04-04T09:05:11Z</time></trkpt><trkpt lat="43.67681131510704" lon="11.113307784902958"><ele>170.33333333333331</ele><time>2026-04-04T09:05:12Z</time></trkpt><trkpt lat="43.67696222004359" lon="11.113196971898514"><ele>173.66666666666666</ele><time>2026-04-04T09:05:13Z</time></trkpt><trkpt lat="43.67713567699009" lon="11.113098863192809"><ele>177.0</ele><time>2026-04-04T09:05:14Z</time></trkpt><trkpt lat="43.6773204261652" lon="11.113039489937242"><ele>177.0</ele><time>2026-04-04T09:05:15Z</time></trkpt><trkpt lat="43.677517553220156" lon="11.113009590758338"><ele>177.0</ele><time>2026-04-04T09:05:16Z</time></trkpt><trkpt lat="43.67771451162022" lon="11.112998479581263"><ele>177.0</ele><time>2026-04-04T09:05:17Z</time></trkpt><trkpt lat="43.67790431485082" lon="11.112997640151473"><ele>178.66666666666666</ele><time>2026-04-04T09:05:18Z</time></trkpt><trkpt lat="43.6780725654215" lon="11.113023790186267"><ele>180.33333333333331</ele><time>2026-04-04T09:05:19Z</time></trkpt><trkpt lat="43.67821991982785" lon="11.1131033910446"><ele>182.0</ele><time>2026-04-04T09:05:20Z</time></trkpt><trkpt lat="43.67833550191424" lon="11.113198846970858"><ele>182.6</ele><time>2026-04-04T09:05:21Z</time></trkpt><trkpt lat="43.67842204912197" lon="11.113272067404655"><ele>183.2</ele><time>2026-04-04T09:05:22Z</time></trkpt><trkpt lat="43.67850712448616" lon="11.113311457855799"><ele>183.8</ele><time>2026-04-04T09:05:23Z</time></trkpt><trkpt lat="43.67858738999528" lon="11.113289941395733"><ele>184.4</ele><time>2026-04-04T09:05:24Z</time></trkpt><trkpt lat="43.67865886167581" lon="11.113227099671963"><ele>185.0</ele><time>2026-04-04T09:05:25Z</time></trkpt><trkpt lat="43.678709991963906" lon="11.113116395186365"><ele>185.0</ele><time>2026-04-04T09:05:26Z</time></trkpt><trkpt lat="43.67871597368681" lon="11.11298015183114"><ele>185.0</ele><time>2026-04-04T09:05:27Z</time></trkpt><trkpt lat="43.67867050161204" lon="11.112844387101312"><ele>185.0</ele><time>2026-04-04T09:05:28Z</time></trkpt><trkpt lat="43.67857071515595" lon="11.112728609923428"><ele>185.0</ele><time>2026-04-04T09:05:29Z</time></trkpt><trkpt lat="43.67845180971743" lon="11.112601206735588"><ele>185.33333333333331</ele><time>2026-04-04T09:05:30Z</time></trkpt><trkpt lat="43.678310677617816" lon="11.112472404138087"><ele>185.66666666666666</ele><time>2026-04-04T09:05:31Z</time></trkpt><trkpt lat="43.67817503139649" lon="11.112347676819686"><ele>186.0</ele><time>2026-04-04T09:05:31.999Z</time></trkpt><trkpt lat="43.67805025635892" lon="11.112208975433488"><ele>186.0</ele><time>2026-04-04T09:05:32.999Z</time></trkpt><trkpt lat="43.677927155223514" lon="11.1120270855481"><ele>186.0</ele><time>2026-04-04T09:05:33.999Z</time></trkpt><trkpt lat="43.677802732406576" lon="11.111817066813401"><ele>186.0</ele><time>2026-04-04T09:05:34.999Z</time></trkpt><trkpt lat="43.67767800065081" lon="11.111614415655637"><ele>185.33333333333334</ele><time>2026-04-04T09:05:35.999Z</time></trkpt><trkpt lat="43.67753948576267" lon="11.111459613269403"><ele>184.66666666666669</ele><time>2026-04-04T09:05:36.999Z</time></trkpt><trkpt lat="43.677367230452234" lon="11.111360828069236"><ele>184.0</ele><time>2026-04-04T09:05:37.999Z</time></trkpt><trkpt lat="43.67718013376205" lon="11.111236573690688"><ele>184.0</ele><time>2026-04-04T09:05:38.999Z</time></trkpt><trkpt lat="43.676980934474926" lon="11.111128268129624"><ele>184.0</ele><time>2026-04-04T09:05:39.999Z</time></trkpt><trkpt lat="43.67678778461399" lon="11.111010636018577"><ele>184.0</ele><time>2026-04-04T09:05:40.999Z</time></trkpt><trkpt lat="43.676611026080714" lon="11.110861330661951"><ele>186.0</ele><time>2026-04-04T09:05:41.999Z</time></trkpt><trkpt lat="43.67644337744918" lon="11.11068683698101"><ele>188.0</ele><time>2026-04-04T09:05:42.999Z</time></trkpt><trkpt lat="43.6762751931337" lon="11.110487727009009"><ele>190.0</ele><time>2026-04-04T09:05:43.999Z</time></trkpt><trkpt lat="43.67610425040037" lon="11.11026830859386"><ele>192.0</ele><time>2026-04-04T09:05:44.999Z</time></trkpt><trkpt lat="43.675936157291446" lon="11.110051115925163"><ele>194.0</ele><time>2026-04-04T09:05:45.999Z</time></trkpt><trkpt lat="43.67578995824743" lon="11.109861149170499"><ele>196.0</ele><time>2026-04-04T09:05:46.999Z</time></trkpt><trkpt lat="43.67566640392492" lon="11.109697232669557"><ele>196.0</ele><time>2026-04-04T09:05:47.999Z</time></trkpt><trkpt lat="43.67554531938575" lon="11.109540606178275"><ele>196.0</ele><time>2026-04-04T09:05:48.999Z</time></trkpt><trkpt lat="43.675432611000616" lon="11.109406722167805"><ele>196.0</ele><time>2026-04-04T09:05:49.999Z</time></trkpt><trkpt lat="43.67531484729121" lon="11.109299621106258"><ele>197.8</ele><time>2026-04-04T09:05:50.999Z</time></trkpt><trkpt lat="43.67521550013623" lon="11.109230957273342"><ele>199.60000000000002</ele><time>2026-04-04T09:05:51.999Z</time></trkpt><trkpt lat="43.67512554890549" lon="11.109181621222502"><ele>201.4</ele><time>2026-04-04T09:05:52.999Z</time></trkpt><trkpt lat="43.6750437982113" lon="11.109139163007212"><ele>203.2</ele><time>2026-04-04T09:05:53.999Z</time></trkpt><trkpt lat="43.67494767560053" lon="11.10908924006947"><ele>205.0</ele><time>2026-04-04T09:05:54.999Z</time></trkpt><trkpt lat="43.674860667311336" lon="11.109043540445668"><ele>206.0</ele><time>2026-04-04T09:05:55.999Z</time></trkpt><trkpt lat="43.674786924331336" lon="11.109004852738614"><ele>207.0</ele><time>2026-04-04T09:05:56.999Z</time></trkpt><trkpt lat="43.674710857344294" lon="11.108966531180819"><ele>208.0</ele><time>2026-04-04T09:05:57.999Z</time></trkpt><trkpt lat="43.674618862828105" lon="11.108921057380968"><ele>209.0</ele><time>2026-04-04T09:05:58.999Z</time></trkpt><trkpt lat="43.67451926691397" lon="11.108854362133993"><ele>210.0</ele><time>2026-04-04T09:05:59.999Z</time></trkpt><trkpt lat="43.674424336567135" lon="11.108767027255446"><ele>211.0</ele><time>2026-04-04T09:06:00.999Z</time></trkpt><trkpt lat="43.67433743853018" lon="11.108648450154114"><ele>212.0</ele><time>2026-04-04T09:06:01.999Z</time></trkpt><trkpt lat="43.67424065429922" lon="11.108498312593445"><ele>213.0</ele><time>2026-04-04T09:06:02.999Z</time></trkpt><trkpt lat="43.67414029924111" lon="11.108324530878253"><ele>214.0</ele><time>2026-04-04T09:06:03.999Z</time></trkpt><trkpt lat="43.67402738221932" lon="11.108117693220008"><ele>214.0</ele><time>2026-04-04T09:06:04.999Z</time></trkpt><trkpt lat="43.67390907787429" lon="11.10788927567091"><ele>214.0</ele><time>2026-04-04T09:06:05.999Z</time></trkpt><trkpt lat="43.67378745467379" lon="11.107682210101164"><ele>214.0</ele><time>2026-04-04T09:06:06.999Z</time></trkpt><trkpt lat="43.67370329474189" lon="11.107473775907124"><ele>212.5</ele><time>2026-04-04T09:06:07.999Z</time></trkpt><trkpt lat="43.67362461875608" lon="11.10728521222397"><ele>211.0</ele><time>2026-04-04T09:06:08.999Z</time></trkpt><trkpt lat="43.67356026286792" lon="11.107118719148676"><ele>209.5</ele><time>2026-04-04T09:06:09.999Z</time></trkpt><trkpt lat="43.6734839728556" lon="11.10696410623391"><ele>208.0</ele><time>2026-04-04T09:06:10.999Z</time></trkpt><trkpt lat="43.67341618464842" lon="11.106818695930558"><ele>210.25</ele><time>2026-04-04T09:06:11.999Z</time></trkpt><trkpt lat="43.67335451020542" lon="11.106679495729654"><ele>212.5</ele><time>2026-04-04T09:06:12.999Z</time></trkpt><trkpt lat="43.67328986462501" lon="11.106535227738963"><ele>214.75</ele><time>2026-04-04T09:06:13.999Z</time></trkpt><trkpt lat="43.67321936814919" lon="11.106371154089697"><ele>217.0</ele><time>2026-04-04T09:06:14.999Z</time></trkpt><trkpt lat="43.67315698255506" lon="11.106216421123557"><ele>217.0</ele><time>2026-04-04T09:06:15.999Z</time></trkpt><trkpt lat="43.67309341038747" lon="11.10606777555789"><ele>217.0</ele><time>2026-04-04T09:06:16.999Z</time></trkpt><trkpt lat="43.67303022162955" lon="11.105921938501085"><ele>217.0</ele><time>2026-04-04T09:06:17.999Z</time></trkpt><trkpt lat="43.67297191834876" lon="11.105792634283137"><ele>217.0</ele><time>2026-04-04T09:06:18.999Z</time></trkpt><trkpt lat="43.67291920213994" lon="11.105658261521338"><ele>216.25</ele><time>2026-04-04T09:06:19.999Z</time></trkpt><trkpt lat="43.67286809272564" lon="11.105507280550917"><ele>215.5</ele><time>2026-04-04T09:06:20.999Z</time></trkpt><trkpt lat="43.67281994541583" lon="11.105346544255223"><ele>214.75</ele><time>2026-04-04T09:06:21.999Z</time></trkpt><trkpt lat="43.67279624779085" lon="11.10516854700136"><ele>214.0</ele><time>2026-04-04T09:06:22.999Z</time></trkpt><trkpt lat="43.67276050716331" lon="11.105000500404136"><ele>214.0</ele><time>2026-04-04T09:06:23.999Z</time></trkpt><trkpt lat="43.67272892681992" lon="11.104847210413043"><ele>214.0</ele><time>2026-04-04T09:06:24.999Z</time></trkpt><trkpt lat="43.67269890514657" lon="11.104701486401781"><ele>214.0</ele><time>2026-04-04T09:06:25.999Z</time></trkpt><trkpt lat="43.67264686429124" lon="11.104550152948315"><ele>214.0</ele><time>2026-04-04T09:06:26.999Z</time></trkpt><trkpt lat="43.67261320879271" lon="11.10437620820906"><ele>214.0</ele><time>2026-04-04T09:06:27.999Z</time></trkpt><trkpt lat="43.67257755800785" lon="11.104198814768232"><ele>214.0</ele><time>2026-04-04T09:06:28.999Z</time></trkpt><trkpt lat="43.67254057127613" lon="11.104033987344485"><ele>214.0</ele><time>2026-04-04T09:06:29.999Z</time></trkpt><trkpt lat="43.67250655691711" lon="11.103881530380203"><ele>214.0</ele><time>2026-04-04T09:06:30.999Z</time></trkpt><trkpt lat="43.67247468212039" lon="11.1037674674767"><ele>214.5</ele><time>2026-04-04T09:06:31.999Z</time></trkpt><trkpt lat="43.67243934617346" lon="11.103620281560321"><ele>215.0</ele><time>2026-04-04T09:06:33.999Z</time></trkpt><trkpt lat="43.672418158930796" lon="11.103479050359532"><ele>215.5</ele><time>2026-04-04T09:06:34.999Z</time></trkpt><trkpt lat="43.672369403118914" lon="11.103299692607894"><ele>216.0</ele><time>2026-04-04T09:06:35.999Z</time></trkpt><trkpt lat="43.672335779150906" lon="11.103092126473934"><ele>216.66666666666669</ele><time>2026-04-04T09:06:36.999Z</time></trkpt><trkpt lat="43.67227313253487" lon="11.10287041463447"><ele>217.33333333333334</ele><time>2026-04-04T09:06:37.999Z</time></trkpt><trkpt lat="43.67219539894963" lon="11.102632194408816"><ele>218.0</ele><time>2026-04-04T09:06:38.999Z</time></trkpt><trkpt lat="43.67212360124687" lon="11.102422844308137"><ele>218.0</ele><time>2026-04-04T09:06:39.999Z</time></trkpt><trkpt lat="43.672064228926274" lon="11.102246277793968"><ele>218.0</ele><time>2026-04-04T09:06:40.999Z</time></trkpt><trkpt lat="43.67200830172642" lon="11.10206660815119"><ele>218.0</ele><time>2026-04-04T09:06:41.999Z</time></trkpt><trkpt lat="43.67200112395657" lon="11.10183476471422"><ele>217.33333333333334</ele><time>2026-04-04T09:06:42.999Z</time></trkpt><trkpt lat="43.672011689286464" lon="11.10157733252729"><ele>216.66666666666669</ele><time>2026-04-04T09:06:43.999Z</time></trkpt><trkpt lat="43.67202413832322" lon="11.101340473361455"><ele>216.0</ele><time>2026-04-04T09:06:44.999Z</time></trkpt><trkpt lat="43.67202414688358" lon="11.10112769827152"><ele>216.0</ele><time>2026-04-04T09:06:45.999Z</time></trkpt><trkpt lat="43.67200021675295" lon="11.100920944740787"><ele>216.0</ele><time>2026-04-04T09:06:46.999Z</time></trkpt><trkpt lat="43.67196609855027" lon="11.100712572759724"><ele>216.0</ele><time>2026-04-04T09:06:47.999Z</time></trkpt><trkpt lat="43.6719013519962" lon="11.10050060275215"><ele>215.33333333333331</ele><time>2026-04-04T09:06:48.999Z</time></trkpt><trkpt lat="43.6718149041125" lon="11.100289990547909"><ele>214.66666666666666</ele><time>2026-04-04T09:06:49.999Z</time></trkpt><trkpt lat="43.67171429577926" lon="11.100084020139658"><ele>214.0</ele><time>2026-04-04T09:06:50.999Z</time></trkpt><trkpt lat="43.67156028963831" lon="11.099898064185467"><ele>214.0</ele><time>2026-04-04T09:06:51.999Z</time></trkpt><trkpt lat="43.67139466708571" lon="11.099732466742593"><ele>214.0</ele><time>2026-04-04T09:06:52.999Z</time></trkpt><trkpt lat="43.67123021929659" lon="11.099579643949841"><ele>214.0</ele><time>2026-04-04T09:06:53.999Z</time></trkpt><trkpt lat="43.67108478199169" lon="11.099441399621801"><ele>212.66666666666666</ele><time>2026-04-04T09:06:54.999Z</time></trkpt><trkpt lat="43.6709554133615" lon="11.099314328741961"><ele>211.33333333333331</ele><time>2026-04-04T09:06:55.999Z</time></trkpt><trkpt lat="43.67083027491913" lon="11.099185817086859"><ele>210.0</ele><time>2026-04-04T09:06:56.999Z</time></trkpt><trkpt lat="43.670710813537674" lon="11.099037006136914"><ele>210.0</ele><time>2026-04-04T09:06:57.999Z</time></trkpt><trkpt lat="43.67059511765827" lon="11.098855958520447"><ele>210.0</ele><time>2026-04-04T09:06:58.999Z</time></trkpt><trkpt lat="43.67049037645118" lon="11.098658764811935"><ele>210.0</ele><time>2026-04-04T09:06:59.999Z</time></trkpt><trkpt lat="43.670402312643354" lon="11.098483420301134"><ele>210.0</ele><time>2026-04-04T09:07:00.999Z</time></trkpt><trkpt lat="43.670320958835326" lon="11.098327049133315"><ele>210.0</ele><time>2026-04-04T09:07:01.999Z</time></trkpt><trkpt lat="43.67024783580845" lon="11.09818686688295"><ele>210.0</ele><time>2026-04-04T09:07:02.999Z</time></trkpt><trkpt lat="43.67019270196391" lon="11.098045706402207"><ele>210.0</ele><time>2026-04-04T09:07:03.999Z</time></trkpt><trkpt lat="43.670167757652834" lon="11.097880336968679"><ele>207.0</ele><time>2026-04-04T09:07:04.999Z</time></trkpt><trkpt lat="43.67017401043329" lon="11.097681804869696"><ele>204.0</ele><time>2026-04-04T09:07:05.999Z</time></trkpt><trkpt lat="43.670238157603734" lon="11.09746491014041"><ele>201.0</ele><time>2026-04-04T09:07:06.999Z</time></trkpt><trkpt lat="43.670341088120935" lon="11.097238497073718"><ele>201.0</ele><time>2026-04-04T09:07:08Z</time></trkpt><trkpt lat="43.670423683793324" lon="11.097027009426968"><ele>201.0</ele><time>2026-04-04T09:07:09Z</time></trkpt><trkpt lat="43.670470057686565" lon="11.09681282670502"><ele>201.0</ele><time>2026-04-04T09:07:10Z</time></trkpt><trkpt lat="43.67048398587055" lon="11.096590765783697"><ele>200.66666666666669</ele><time>2026-04-04T09:07:11Z</time></trkpt><trkpt lat="43.670480897383236" lon="11.096354270986508"><ele>200.33333333333334</ele><time>2026-04-04T09:07:12Z</time></trkpt><trkpt lat="43.6704638975826" lon="11.096122590039416"><ele>200.0</ele><time>2026-04-04T09:07:13Z</time></trkpt><trkpt lat="43.67043841203966" lon="11.095903506527456"><ele>199.75</ele><time>2026-04-04T09:07:14Z</time></trkpt><trkpt lat="43.670379502444916" lon="11.095713763030384"><ele>199.5</ele><time>2026-04-04T09:07:15Z</time></trkpt><trkpt lat="43.67033375803804" lon="11.095535416485973"><ele>199.25</ele><time>2026-04-04T09:07:16Z</time></trkpt><trkpt lat="43.670285377536096" lon="11.095386781386495"><ele>199.0</ele><time>2026-04-04T09:07:17Z</time></trkpt><trkpt lat="43.670260622588664" lon="11.095242794567062"><ele>197.0</ele><time>2026-04-04T09:07:18Z</time></trkpt><trkpt lat="43.670272736941584" lon="11.095071202316987"><ele>195.0</ele><time>2026-04-04T09:07:19Z</time></trkpt><trkpt lat="43.670345309332625" lon="11.094885604007453"><ele>193.0</ele><time>2026-04-04T09:07:20Z</time></trkpt><trkpt lat="43.67045270882591" lon="11.094712326325745"><ele>191.0</ele><time>2026-04-04T09:07:21Z</time></trkpt><trkpt lat="43.67057099759038" lon="11.0945406571967"><ele>191.0</ele><time>2026-04-04T09:07:22Z</time></trkpt><trkpt lat="43.67066963248584" lon="11.094337098884917"><ele>191.0</ele><time>2026-04-04T09:07:23Z</time></trkpt><trkpt lat="43.67073992296342" lon="11.094098444368132"><ele>191.0</ele><time>2026-04-04T09:07:24Z</time></trkpt><trkpt lat="43.6707961953014" lon="11.093827868470102"><ele>188.0</ele><time>2026-04-04T09:07:25Z</time></trkpt><trkpt lat="43.67085532669166" lon="11.093596992071836"><ele>185.0</ele><time>2026-04-04T09:07:26Z</time></trkpt><trkpt lat="43.67091022845399" lon="11.093387189449894"><ele>182.0</ele><time>2026-04-04T09:07:27Z</time></trkpt><trkpt lat="43.67095964041041" lon="11.09318029928336"><ele>181.0</ele><time>2026-04-04T09:07:28Z</time></trkpt><trkpt lat="43.67098660775845" lon="11.09295460574146"><ele>180.0</ele><time>2026-04-04T09:07:29Z</time></trkpt><trkpt lat="43.670991802150084" lon="11.092712110669378"><ele>179.0</ele><time>2026-04-04T09:07:30Z</time></trkpt><trkpt lat="43.67097212366342" lon="11.092459080182405"><ele>178.66666666666666</ele><time>2026-04-04T09:07:31Z</time></trkpt><trkpt lat="43.67093307954359" lon="11.092200505430085"><ele>178.33333333333334</ele><time>2026-04-04T09:07:32Z</time></trkpt><trkpt lat="43.67086693294061" lon="11.091950355960982"><ele>178.0</ele><time>2026-04-04T09:07:33Z</time></trkpt><trkpt lat="43.670786750665926" lon="11.091716294838168"><ele>178.33333333333334</ele><time>2026-04-04T09:07:34Z</time></trkpt><trkpt lat="43.670702136986236" lon="11.09151157108215"><ele>178.66666666666666</ele><time>2026-04-04T09:07:35Z</time></trkpt><trkpt lat="43.67062318555553" lon="11.091333925122168"><ele>179.0</ele><time>2026-04-04T09:07:36Z</time></trkpt><trkpt lat="43.6705448742973" lon="11.091181097481757"><ele>179.0</ele><time>2026-04-04T09:07:37Z</time></trkpt><trkpt lat="43.67047968118348" lon="11.091019587856024"><ele>179.0</ele><time>2026-04-04T09:07:38Z</time></trkpt><trkpt lat="43.670344690390856" lon="11.09092711054484"><ele>179.0</ele><time>2026-04-04T09:07:39Z</time></trkpt><trkpt lat="43.67018147721343" lon="11.090871269541799"><ele>178.75</ele><time>2026-04-04T09:07:39.999Z</time></trkpt><trkpt lat="43.670028391534515" lon="11.09081522006854"><ele>178.5</ele><time>2026-04-04T09:07:40.999Z</time></trkpt><trkpt lat="43.669898536294504" lon="11.090743190048409"><ele>178.25</ele><time>2026-04-04T09:07:41.999Z</time></trkpt><trkpt lat="43.6697929482814" lon="11.090642150789684"><ele>178.0</ele><time>2026-04-04T09:07:42.999Z</time></trkpt><trkpt lat="43.66971584515828" lon="11.090486937949036"><ele>178.0</ele><time>2026-04-04T09:07:43.999Z</time></trkpt><trkpt lat="43.669629870567995" lon="11.090294224029293"><ele>178.0</ele><time>2026-04-04T09:07:44.999Z</time></trkpt><trkpt lat="43.66953551893993" lon="11.090076286859297"><ele>178.0</ele><time>2026-04-04T09:07:45.999Z</time></trkpt><trkpt lat="43.66942789932997" lon="11.08984461214805"><ele>174.0</ele><time>2026-04-04T09:07:46.999Z</time></trkpt><trkpt lat="43.66929658865132" lon="11.089619658963093"><ele>170.0</ele><time>2026-04-04T09:07:47.999Z</time></trkpt><trkpt lat="43.66913126540159" lon="11.089435371773373"><ele>166.0</ele><time>2026-04-04T09:07:48.999Z</time></trkpt><trkpt lat="43.66897500221516" lon="11.089270377152541"><ele>166.0</ele><time>2026-04-04T09:07:49.999Z</time></trkpt><trkpt lat="43.668830269285934" lon="11.089117815559785"><ele>166.0</ele><time>2026-04-04T09:07:50.999Z</time></trkpt><trkpt lat="43.668694782076564" lon="11.088974999782664"><ele>166.0</ele><time>2026-04-04T09:07:51.999Z</time></trkpt><trkpt lat="43.66856375840097" lon="11.08883617770558"><ele>163.66666666666669</ele><time>2026-04-04T09:07:52.999Z</time></trkpt><trkpt lat="43.668435643052575" lon="11.088688107609084"><ele>161.33333333333334</ele><time>2026-04-04T09:07:53.999Z</time></trkpt><trkpt lat="43.66831554796531" lon="11.08852360628637"><ele>159.0</ele><time>2026-04-04T09:07:54.999Z</time></trkpt><trkpt lat="43.66819897773515" lon="11.088335907097916"><ele>161.0</ele><time>2026-04-04T09:07:55.999Z</time></trkpt><trkpt lat="43.668077985617174" lon="11.088116564765286"><ele>163.0</ele><time>2026-04-04T09:07:56.999Z</time></trkpt><trkpt lat="43.66793455734234" lon="11.08788846735436"><ele>165.0</ele><time>2026-04-04T09:07:57.999Z</time></trkpt><trkpt lat="43.66775845356156" lon="11.087678862875787"><ele>162.33333333333334</ele><time>2026-04-04T09:07:58.999Z</time></trkpt><trkpt lat="43.66758220937978" lon="11.087472208916624"><ele>159.66666666666669</ele><time>2026-04-04T09:07:59.999Z</time></trkpt><trkpt lat="43.667419907715946" lon="11.087286582280187"><ele>157.0</ele><time>2026-04-04T09:08:00.999Z</time></trkpt><trkpt lat="43.6672743475073" lon="11.087119857496907"><ele>157.0</ele><time>2026-04-04T09:08:01.999Z</time></trkpt><trkpt lat="43.66714824842104" lon="11.086973137213667"><ele>157.0</ele><time>2026-04-04T09:08:02.999Z</time></trkpt><trkpt lat="43.66703390165066" lon="11.086814853884468"><ele>157.0</ele><time>2026-04-04T09:08:03.999Z</time></trkpt><trkpt lat="43.66694434766998" lon="11.086638328558914"><ele>151.0</ele><time>2026-04-04T09:08:04.999Z</time></trkpt><trkpt lat="43.66688949930891" lon="11.086417602504499"><ele>145.0</ele><time>2026-04-04T09:08:05.999Z</time></trkpt><trkpt lat="43.66682647384441" lon="11.086171429135595"><ele>139.0</ele><time>2026-04-04T09:08:06.999Z</time></trkpt><trkpt lat="43.666761184136604" lon="11.085925452449004"><ele>139.33333333333334</ele><time>2026-04-04T09:08:07.999Z</time></trkpt><trkpt lat="43.666697960094545" lon="11.08569494799109"><ele>139.66666666666666</ele><time>2026-04-04T09:08:08.999Z</time></trkpt><trkpt lat="43.66664259545503" lon="11.085494236977977"><ele>140.0</ele><time>2026-04-04T09:08:09.999Z</time></trkpt><trkpt lat="43.66659356150267" lon="11.085310355814453"><ele>140.0</ele><time>2026-04-04T09:08:10.999Z</time></trkpt><trkpt lat="43.666565849909816" lon="11.085137030165585"><ele>140.0</ele><time>2026-04-04T09:08:11.999Z</time></trkpt><trkpt lat="43.66654957115967" lon="11.084964530622045"><ele>140.0</ele><time>2026-04-04T09:08:12.999Z</time></trkpt><trkpt lat="43.6665566786528" lon="11.084763907065382"><ele>140.0</ele><time>2026-04-04T09:08:13.999Z</time></trkpt><trkpt lat="43.66662331779129" lon="11.084556120685185"><ele>137.33333333333331</ele><time>2026-04-04T09:08:14.999Z</time></trkpt><trkpt lat="43.66672691055145" lon="11.08438759454922"><ele>134.66666666666666</ele><time>2026-04-04T09:08:15.999Z</time></trkpt><trkpt lat="43.66684444150378" lon="11.08421204746247"><ele>132.0</ele><time>2026-04-04T09:08:16.999Z</time></trkpt><trkpt lat="43.66700044898728" lon="11.084043902117964"><ele>132.0</ele><time>2026-04-04T09:08:17.999Z</time></trkpt><trkpt lat="43.66714954902841" lon="11.08384257195498"><ele>132.0</ele><time>2026-04-04T09:08:18.999Z</time></trkpt><trkpt lat="43.66727951419998" lon="11.083663557875289"><ele>132.0</ele><time>2026-04-04T09:08:19.999Z</time></trkpt><trkpt lat="43.66739347890144" lon="11.08350912585026"><ele>132.0</ele><time>2026-04-04T09:08:20.999Z</time></trkpt><trkpt lat="43.667500144925796" lon="11.083369046595626"><ele>132.0</ele><time>2026-04-04T09:08:21.999Z</time></trkpt><trkpt lat="43.667605963996316" lon="11.083238485472828"><ele>132.0</ele><time>2026-04-04T09:08:22.999Z</time></trkpt><trkpt lat="43.66769855056411" lon="11.083112072393273"><ele>132.0</ele><time>2026-04-04T09:08:23.999Z</time></trkpt><trkpt lat="43.66777925655891" lon="11.083002447566816"><ele>131.4</ele><time>2026-04-04T09:08:24.999Z</time></trkpt><trkpt lat="43.66786057234707" lon="11.082903991436666"><ele>130.79999999999998</ele><time>2026-04-04T09:08:25.999Z</time></trkpt><trkpt lat="43.66792761421155" lon="11.082791638656737"><ele>130.2</ele><time>2026-04-04T09:08:26.999Z</time></trkpt><trkpt lat="43.667960189596705" lon="11.082658774509936"><ele>129.6</ele><time>2026-04-04T09:08:27.999Z</time></trkpt><trkpt lat="43.66794592518007" lon="11.082520994332965"><ele>129.0</ele><time>2026-04-04T09:08:28.999Z</time></trkpt><trkpt lat="43.66789611409311" lon="11.082393063341657"><ele>127.25</ele><time>2026-04-04T09:08:29.999Z</time></trkpt><trkpt lat="43.66782637572751" lon="11.082266418179035"><ele>125.5</ele><time>2026-04-04T09:08:30.999Z</time></trkpt><trkpt lat="43.66770429903924" lon="11.082217792130974"><ele>123.75</ele><time>2026-04-04T09:08:31.999Z</time></trkpt><trkpt lat="43.66757362355412" lon="11.082243020430173"><ele>122.0</ele><time>2026-04-04T09:08:32.999Z</time></trkpt><trkpt lat="43.66743346078391" lon="11.082309419364691"><ele>122.0</ele><time>2026-04-04T09:08:33.999Z</time></trkpt><trkpt lat="43.6672708524823" lon="11.082387463971617"><ele>122.0</ele><time>2026-04-04T09:08:34.999Z</time></trkpt><trkpt lat="43.66708236452119" lon="11.082477929668023"><ele>122.0</ele><time>2026-04-04T09:08:35.999Z</time></trkpt><trkpt lat="43.66690396272291" lon="11.082563400974"><ele>119.66666666666666</ele><time>2026-04-04T09:08:36.999Z</time></trkpt><trkpt lat="43.666744044519035" lon="11.082639921759332"><ele>117.33333333333334</ele><time>2026-04-04T09:08:37.999Z</time></trkpt><trkpt lat="43.66659086850402" lon="11.08271150224829"><ele>115.0</ele><time>2026-04-04T09:08:38.999Z</time></trkpt><trkpt lat="43.66644736617443" lon="11.08277745788627"><ele>115.0</ele><time>2026-04-04T09:08:39.999Z</time></trkpt><trkpt lat="43.66631817113512" lon="11.082836837716917"><ele>115.0</ele><time>2026-04-04T09:08:40.999Z</time></trkpt><trkpt lat="43.6661927135212" lon="11.082895334707903"><ele>115.0</ele><time>2026-04-04T09:08:41.999Z</time></trkpt><trkpt lat="43.66607422476217" lon="11.082952865584382"><ele>115.0</ele><time>2026-04-04T09:08:42.999Z</time></trkpt><trkpt lat="43.66595919544988" lon="11.083014483683275"><ele>115.25</ele><time>2026-04-04T09:08:43.999Z</time></trkpt><trkpt lat="43.665852135078396" lon="11.083079718694984"><ele>115.5</ele><time>2026-04-04T09:08:44.999Z</time></trkpt><trkpt lat="43.66575186501445" lon="11.083166330259248"><ele>115.75</ele><time>2026-04-04T09:08:45.999Z</time></trkpt><trkpt lat="43.665658082816144" lon="11.083262014283926"><ele>116.0</ele><time>2026-04-04T09:08:46.999Z</time></trkpt><trkpt lat="43.665568684383295" lon="11.083365660127768"><ele>116.0</ele><time>2026-04-04T09:08:47.999Z</time></trkpt><trkpt lat="43.66548135688555" lon="11.083465930540202"><ele>116.0</ele><time>2026-04-04T09:08:48.999Z</time></trkpt><trkpt lat="43.66539322851609" lon="11.083567120517303"><ele>116.0</ele><time>2026-04-04T09:08:49.999Z</time></trkpt><trkpt lat="43.66531142089205" lon="11.083661052953845"><ele>116.0</ele><time>2026-04-04T09:08:50.999Z</time></trkpt><trkpt lat="43.66523334779467" lon="11.083750697354818"><ele>116.0</ele><time>2026-04-04T09:08:51.999Z</time></trkpt><trkpt lat="43.66515562602855" lon="11.083839938117277"><ele>114.19999999999999</ele><time>2026-04-04T09:08:52.999Z</time></trkpt><trkpt lat="43.6650840851528" lon="11.083924078407113"><ele>112.39999999999999</ele><time>2026-04-04T09:08:53.999Z</time></trkpt><trkpt lat="43.66501531980563" lon="11.084004266930032"><ele>110.6</ele><time>2026-04-04T09:08:54.999Z</time></trkpt><trkpt lat="43.66494974262623" lon="11.08407941448279"><ele>108.8</ele><time>2026-04-04T09:08:55.999Z</time></trkpt><trkpt lat="43.664879308715285" lon="11.084159292305651"><ele>107.0</ele><time>2026-04-04T09:08:56.999Z</time></trkpt><trkpt lat="43.664808281897585" lon="11.084239909498756"><ele>106.8</ele><time>2026-04-04T09:08:57.999Z</time></trkpt><trkpt lat="43.66474415649475" lon="11.084314202610871"><ele>106.6</ele><time>2026-04-04T09:08:58.999Z</time></trkpt><trkpt lat="43.664659143274584" lon="11.08441083864797"><ele>106.39999999999999</ele><time>2026-04-04T09:09:00.999Z</time></trkpt><trkpt lat="43.66457583194459" lon="11.084475650648095"><ele>106.19999999999999</ele><time>2026-04-04T09:09:02.999Z</time></trkpt><trkpt lat="43.66450747629582" lon="11.084522048590356"><ele>106.0</ele><time>2026-04-04T09:09:05.999Z</time></trkpt><trkpt lat="43.66438913901504" lon="11.084596372600851"><ele>104.75</ele><time>2026-04-04T09:09:07.999Z</time></trkpt><trkpt lat="43.664294166272384" lon="11.084652872915418"><ele>103.5</ele><time>2026-04-04T09:09:08.999Z</time></trkpt><trkpt lat="43.66419437696693" lon="11.0847093043113"><ele>102.25</ele><time>2026-04-04T09:09:09.999Z</time></trkpt><trkpt lat="43.66408026990381" lon="11.084769549645694"><ele>101.0</ele><time>2026-04-04T09:09:10.999Z</time></trkpt><trkpt lat="43.663956705455455" lon="11.084816179461065"><ele>101.0</ele><time>2026-04-04T09:09:11.999Z</time></trkpt><trkpt lat="43.66382938819831" lon="11.084829250475389"><ele>101.0</ele><time>2026-04-04T09:09:12.999Z</time></trkpt><trkpt lat="43.66369277976731" lon="11.084814406654585"><ele>101.0</ele><time>2026-04-04T09:09:14Z</time></trkpt><trkpt lat="43.663544209938806" lon="11.084772251888445"><ele>101.0</ele><time>2026-04-04T09:09:15Z</time></trkpt><trkpt lat="43.66339662586092" lon="11.084716295168535"><ele>100.0</ele><time>2026-04-04T09:09:16Z</time></trkpt><trkpt lat="43.66326409866926" lon="11.084666472442322"><ele>99.0</ele><time>2026-04-04T09:09:17Z</time></trkpt><trkpt lat="43.66313998202565" lon="11.084623578747676"><ele>98.0</ele><time>2026-04-04T09:09:18Z</time></trkpt><trkpt lat="43.663015702545714" lon="11.084581501889451"><ele>97.0</ele><time>2026-04-04T09:09:19Z</time></trkpt><trkpt lat="43.662885752780966" lon="11.08455300118471"><ele>97.75</ele><time>2026-04-04T09:09:20Z</time></trkpt><trkpt lat="43.66276420433411" lon="11.084530068957374"><ele>98.5</ele><time>2026-04-04T09:09:21Z</time></trkpt><trkpt lat="43.66263943536259" lon="11.084510503176407"><ele>99.25</ele><time>2026-04-04T09:09:22Z</time></trkpt><trkpt lat="43.66250161305485" lon="11.084502940252735"><ele>100.0</ele><time>2026-04-04T09:09:23Z</time></trkpt><trkpt lat="43.66236006387106" lon="11.084497791095231"><ele>100.0</ele><time>2026-04-04T09:09:24Z</time></trkpt><trkpt lat="43.66222417098359" lon="11.084494063551606"><ele>100.0</ele><time>2026-04-04T09:09:25Z</time></trkpt><trkpt lat="43.66210016081461" lon="11.08449427213444"><ele>100.0</ele><time>2026-04-04T09:09:26Z</time></trkpt><trkpt lat="43.66198507526992" lon="11.084495623137213"><ele>100.0</ele><time>2026-04-04T09:09:27Z</time></trkpt><trkpt lat="43.66187324617419" lon="11.08449642058963"><ele>100.2</ele><time>2026-04-04T09:09:28Z</time></trkpt><trkpt lat="43.661766633761864" lon="11.084493965495703"><ele>100.4</ele><time>2026-04-04T09:09:29Z</time></trkpt><trkpt lat="43.66166597710444" lon="11.08449563121253"><ele>100.6</ele><time>2026-04-04T09:09:30Z</time></trkpt><trkpt lat="43.66157049778492" lon="11.084509072722868"><ele>100.8</ele><time>2026-04-04T09:09:31Z</time></trkpt><trkpt lat="43.66148233342281" lon="11.08453454449191"><ele>101.0</ele><time>2026-04-04T09:09:32Z</time></trkpt><trkpt lat="43.66140143743111" lon="11.084555905175945"><ele>101.0</ele><time>2026-04-04T09:09:33Z</time></trkpt><trkpt lat="43.661313096567405" lon="11.084576056968839"><ele>101.0</ele><time>2026-04-04T09:09:34Z</time></trkpt><trkpt lat="43.66122093201566" lon="11.08455732019406"><ele>101.0</ele><time>2026-04-04T09:09:35Z</time></trkpt><trkpt lat="43.66113441659333" lon="11.084488740998927"><ele>101.0</ele><time>2026-04-04T09:09:36Z</time></trkpt><trkpt lat="43.661022664569934" lon="11.08445110300857"><ele>101.0</ele><time>2026-04-04T09:09:37Z</time></trkpt><trkpt lat="43.66087934481084" lon="11.084444977112355"><ele>99.66666666666666</ele><time>2026-04-04T09:09:38Z</time></trkpt><trkpt lat="43.6607354738665" lon="11.08434764769525"><ele>98.33333333333334</ele><time>2026-04-04T09:09:38.999Z</time></trkpt><trkpt lat="43.6605704839136" lon="11.084313646797764"><ele>97.0</ele><time>2026-04-04T09:09:39.999Z</time></trkpt><trkpt lat="43.660396503449206" lon="11.084320991965084"><ele>97.66666666666667</ele><time>2026-04-04T09:09:40.999Z</time></trkpt><trkpt lat="43.66022674893412" lon="11.084299555034093"><ele>98.33333333333334</ele><time>2026-04-04T09:09:41.999Z</time></trkpt><trkpt lat="43.66004670461672" lon="11.084267706228388"><ele>99.0</ele><time>2026-04-04T09:09:42.999Z</time></trkpt><trkpt lat="43.659864041946655" lon="11.084234567684282"><ele>99.0</ele><time>2026-04-04T09:09:43.999Z</time></trkpt><trkpt lat="43.65967560356813" lon="11.08419263453548"><ele>99.0</ele><time>2026-04-04T09:09:44.999Z</time></trkpt><trkpt lat="43.65947911563933" lon="11.084133543200148"><ele>99.0</ele><time>2026-04-04T09:09:45.999Z</time></trkpt><trkpt lat="43.65927778965765" lon="11.084079238827917"><ele>99.33333333333334</ele><time>2026-04-04T09:09:46.999Z</time></trkpt><trkpt lat="43.65906579289143" lon="11.084022383573803"><ele>99.66666666666667</ele><time>2026-04-04T09:09:47.999Z</time></trkpt><trkpt lat="43.65884946069927" lon="11.083965928689432"><ele>100.0</ele><time>2026-04-04T09:09:48.999Z</time></trkpt><trkpt lat="43.65863157821095" lon="11.083912152784995"><ele>100.66666666666667</ele><time>2026-04-04T09:09:49.999Z</time></trkpt><trkpt lat="43.65842606258578" lon="11.083867723050298"><ele>101.33333333333334</ele><time>2026-04-04T09:09:50.999Z</time></trkpt><trkpt lat="43.65822898488467" lon="11.083831519285944"><ele>102.0</ele><time>2026-04-04T09:09:51.999Z</time></trkpt><trkpt lat="43.65804043937355" lon="11.083799041137427"><ele>102.0</ele><time>2026-04-04T09:09:52.999Z</time></trkpt><trkpt lat="43.657857368227454" lon="11.08376750596755"><ele>102.0</ele><time>2026-04-04T09:09:53.999Z</time></trkpt><trkpt lat="43.65767633979568" lon="11.083736322682178"><ele>102.0</ele><time>2026-04-04T09:09:54.999Z</time></trkpt><trkpt lat="43.65750041034556" lon="11.083709712516443"><ele>102.66666666666666</ele><time>2026-04-04T09:09:55.999Z</time></trkpt><trkpt lat="43.65732463153798" lon="11.083704889656948"><ele>103.33333333333333</ele><time>2026-04-04T09:09:56.999Z</time></trkpt><trkpt lat="43.65714119721664" lon="11.083737412074774"><ele>104.0</ele><time>2026-04-04T09:09:57.999Z</time></trkpt><trkpt lat="43.65696356007321" lon="11.083798540603672"><ele>104.66666666666666</ele><time>2026-04-04T09:09:58.999Z</time></trkpt><trkpt lat="43.65677983867341" lon="11.08387813205039"><ele>105.33333333333334</ele><time>2026-04-04T09:09:59.999Z</time></trkpt><trkpt lat="43.65660063973027" lon="11.083970675244556"><ele>106.0</ele><time>2026-04-04T09:10:00.999Z</time></trkpt><trkpt lat="43.65641609107226" lon="11.084074965800347"><ele>105.66666666666667</ele><time>2026-04-04T09:10:01.999Z</time></trkpt><trkpt lat="43.65624018521518" lon="11.084179626330295"><ele>105.33333333333334</ele><time>2026-04-04T09:10:02.999Z</time></trkpt><trkpt lat="43.65607817260658" lon="11.084294188311175"><ele>105.0</ele><time>2026-04-04T09:10:03.999Z</time></trkpt><trkpt lat="43.655934105052324" lon="11.08443246150666"><ele>106.33333333333334</ele><time>2026-04-04T09:10:04.999Z</time></trkpt><trkpt lat="43.65580801148175" lon="11.084618534541907"><ele>107.66666666666667</ele><time>2026-04-04T09:10:05.999Z</time></trkpt><trkpt lat="43.655700278312956" lon="11.084839374547807"><ele>109.0</ele><time>2026-04-04T09:10:06.999Z</time></trkpt><trkpt lat="43.655608965613325" lon="11.085076948497406"><ele>109.0</ele><time>2026-04-04T09:10:07.999Z</time></trkpt><trkpt lat="43.655514637967954" lon="11.08530066760412"><ele>109.0</ele><time>2026-04-04T09:10:08.999Z</time></trkpt><trkpt lat="43.655403074410266" lon="11.085498503515407"><ele>109.0</ele><time>2026-04-04T09:10:09.999Z</time></trkpt><trkpt lat="43.65527307985273" lon="11.085677416487197"><ele>112.33333333333334</ele><time>2026-04-04T09:10:10.999Z</time></trkpt><trkpt lat="43.65512676863328" lon="11.08584962898531"><ele>115.66666666666666</ele><time>2026-04-04T09:10:11.999Z</time></trkpt><trkpt lat="43.654971024872005" lon="11.086016499313388"><ele>119.0</ele><time>2026-04-04T09:10:12.999Z</time></trkpt><trkpt lat="43.65480352618253" lon="11.086183892832716"><ele>119.0</ele><time>2026-04-04T09:10:13.999Z</time></trkpt><trkpt lat="43.65462232264819" lon="11.086337510675111"><ele>119.0</ele><time>2026-04-04T09:10:14.999Z</time></trkpt><trkpt lat="43.654431622343814" lon="11.086482327606607"><ele>119.0</ele><time>2026-04-04T09:10:15.999Z</time></trkpt><trkpt lat="43.65422308193733" lon="11.086635257998289"><ele>122.0</ele><time>2026-04-04T09:10:16.999Z</time></trkpt><trkpt lat="43.654008384065726" lon="11.086790800349828"><ele>125.0</ele><time>2026-04-04T09:10:17.999Z</time></trkpt><trkpt lat="43.653789991864144" lon="11.086949019104518"><ele>130.5</ele><time>2026-04-04T09:10:18.999Z</time></trkpt><trkpt lat="43.653579511730456" lon="11.087101768189628"><ele>136.0</ele><time>2026-04-04T09:10:19.999Z</time></trkpt><trkpt lat="43.653378933781724" lon="11.087249913984923"><ele>136.0</ele><time>2026-04-04T09:10:20.999Z</time></trkpt><trkpt lat="43.65319186310654" lon="11.087388222281566"><ele>136.0</ele><time>2026-04-04T09:10:21.999Z</time></trkpt><trkpt lat="43.65301981589484" lon="11.08751626107857"><ele>136.0</ele><time>2026-04-04T09:10:22.999Z</time></trkpt><trkpt lat="43.65285000100173" lon="11.087644514138722"><ele>136.66666666666669</ele><time>2026-04-04T09:10:23.999Z</time></trkpt><trkpt lat="43.652691548792056" lon="11.087756875036648"><ele>137.33333333333334</ele><time>2026-04-04T09:10:24.999Z</time></trkpt><trkpt lat="43.652534830022795" lon="11.087845907759425"><ele>138.0</ele><time>2026-04-04T09:10:25.999Z</time></trkpt><trkpt lat="43.65238872725172" lon="11.087916860954579"><ele>138.0</ele><time>2026-04-04T09:10:26.999Z</time></trkpt><trkpt lat="43.65226544499035" lon="11.087965787304874"><ele>138.0</ele><time>2026-04-04T09:10:27.999Z</time></trkpt><trkpt lat="43.65216214853114" lon="11.087992818072959"><ele>138.0</ele><time>2026-04-04T09:10:28.999Z</time></trkpt><trkpt lat="43.65206546301069" lon="11.088006016563124"><ele>138.0</ele><time>2026-04-04T09:10:29.999Z</time></trkpt><trkpt lat="43.65199151168918" lon="11.087982745771491"><ele>138.0</ele><time>2026-04-04T09:10:30.999Z</time></trkpt><trkpt lat="43.65191724052717" lon="11.087927694407414"><ele>138.0</ele><time>2026-04-04T09:10:31.999Z</time></trkpt><trkpt lat="43.65185903589825" lon="11.087835874199113"><ele>138.0</ele><time>2026-04-04T09:10:32.999Z</time></trkpt><trkpt lat="43.651832128406994" lon="11.087721825913114"><ele>138.0</ele><time>2026-04-04T09:10:33.999Z</time></trkpt><trkpt lat="43.651872073654765" lon="11.087579665963501"><ele>138.0</ele><time>2026-04-04T09:10:34.999Z</time></trkpt><trkpt lat="43.651956825028186" lon="11.087459519217461"><ele>138.0</ele><time>2026-04-04T09:10:35.999Z</time></trkpt><trkpt lat="43.65206796007654" lon="11.087368246818114"><ele>140.5</ele><time>2026-04-04T09:10:36.999Z</time></trkpt><trkpt lat="43.65219942750658" lon="11.087304146290736"><ele>143.0</ele><time>2026-04-04T09:10:37.999Z</time></trkpt><trkpt lat="43.65231256173087" lon="11.087232494511294"><ele>145.5</ele><time>2026-04-04T09:10:38.999Z</time></trkpt><trkpt lat="43.65239302015562" lon="11.087152826668445"><ele>148.0</ele><time>2026-04-04T09:10:39.999Z</time></trkpt><trkpt lat="43.65244882815235" lon="11.087033878209406"><ele>148.0</ele><time>2026-04-04T09:10:40.999Z</time></trkpt><trkpt lat="43.65249147318237" lon="11.086850144432674"><ele>148.0</ele><time>2026-04-04T09:10:41.999Z</time></trkpt><trkpt lat="43.65251125954396" lon="11.086649593122655"><ele>148.0</ele><time>2026-04-04T09:10:42.999Z</time></trkpt><trkpt lat="43.65251545733201" lon="11.086459740634922"><ele>148.0</ele><time>2026-04-04T09:10:43.999Z</time></trkpt><trkpt lat="43.65252238770285" lon="11.086303196217166"><ele>148.25</ele><time>2026-04-04T09:10:44.999Z</time></trkpt><trkpt lat="43.652545436791165" lon="11.086169219080457"><ele>148.5</ele><time>2026-04-04T09:10:45.999Z</time></trkpt><trkpt lat="43.65259917516787" lon="11.086038346528136"><ele>148.75</ele><time>2026-04-04T09:10:46.999Z</time></trkpt><trkpt lat="43.65268985726254" lon="11.085937772867696"><ele>149.0</ele><time>2026-04-04T09:10:47.999Z</time></trkpt><trkpt lat="43.652804174586876" lon="11.08585982610417"><ele>149.0</ele><time>2026-04-04T09:10:48.999Z</time></trkpt><trkpt lat="43.65292723103317" lon="11.085795101544207"><ele>149.0</ele><time>2026-04-04T09:10:49.999Z</time></trkpt><trkpt lat="43.65302755378632" lon="11.085730554363714"><ele>149.0</ele><time>2026-04-04T09:10:50.999Z</time></trkpt><trkpt lat="43.653114091928266" lon="11.085668092669039"><ele>149.0</ele><time>2026-04-04T09:10:51.999Z</time></trkpt><trkpt lat="43.65319225625318" lon="11.085619347002535"><ele>149.0</ele><time>2026-04-04T09:10:52.999Z</time></trkpt><trkpt lat="43.65326727912269" lon="11.085568059287652"><ele>150.0</ele><time>2026-04-04T09:10:53.999Z</time></trkpt><trkpt lat="43.65333852480583" lon="11.085493799877574"><ele>151.0</ele><time>2026-04-04T09:10:54.999Z</time></trkpt><trkpt lat="43.65339323941581" lon="11.085396592104146"><ele>152.0</ele><time>2026-04-04T09:10:55.999Z</time></trkpt><trkpt lat="43.65342364818009" lon="11.08528697828589"><ele>153.0</ele><time>2026-04-04T09:10:56.999Z</time></trkpt><trkpt lat="43.653425929995464" lon="11.085151750213575"><ele>154.0</ele><time>2026-04-04T09:10:57.999Z</time></trkpt><trkpt lat="43.65341148838177" lon="11.085013881355268"><ele>153.2</ele><time>2026-04-04T09:10:58.999Z</time></trkpt><trkpt lat="43.65338216430267" lon="11.084902054615076"><ele>152.4</ele><time>2026-04-04T09:10:59.999Z</time></trkpt><trkpt lat="43.653359277727084" lon="11.084793243807942"><ele>151.6</ele><time>2026-04-04T09:11:00.999Z</time></trkpt><trkpt lat="43.65330068005974" lon="11.084684912142178"><ele>150.8</ele><time>2026-04-04T09:11:01.999Z</time></trkpt><trkpt lat="43.65320669286" lon="11.084595321217257"><ele>150.0</ele><time>2026-04-04T09:11:02.999Z</time></trkpt><trkpt lat="43.653090434153356" lon="11.084539003575589"><ele>150.0</ele><time>2026-04-04T09:11:03.999Z</time></trkpt><trkpt lat="43.65294331352505" lon="11.084549975915598"><ele>150.0</ele><time>2026-04-04T09:11:04.999Z</time></trkpt><trkpt lat="43.652803752907204" lon="11.08461245438197"><ele>150.0</ele><time>2026-04-04T09:11:05.999Z</time></trkpt><trkpt lat="43.6526689578541" lon="11.084676641848576"><ele>150.0</ele><time>2026-04-04T09:11:06.999Z</time></trkpt><trkpt lat="43.65252015364583" lon="11.084748401662592"><ele>152.66666666666666</ele><time>2026-04-04T09:11:07.999Z</time></trkpt><trkpt lat="43.65235549300396" lon="11.08482832887455"><ele>155.33333333333331</ele><time>2026-04-04T09:11:08.999Z</time></trkpt><trkpt lat="43.65219334053881" lon="11.084910099875636"><ele>158.0</ele><time>2026-04-04T09:11:09.999Z</time></trkpt><trkpt lat="43.65202173071182" lon="11.08501715258771"><ele>162.33333333333331</ele><time>2026-04-04T09:11:10.999Z</time></trkpt><trkpt lat="43.65187182687309" lon="11.085180919929588"><ele>166.66666666666666</ele><time>2026-04-04T09:11:11.999Z</time></trkpt><trkpt lat="43.65175725933093" lon="11.085339781785548"><ele>171.0</ele><time>2026-04-04T09:11:12.999Z</time></trkpt><trkpt lat="43.651655058694324" lon="11.08547902869642"><ele>171.0</ele><time>2026-04-04T09:11:13.999Z</time></trkpt><trkpt lat="43.65157727078704" lon="11.08558012622314"><ele>171.0</ele><time>2026-04-04T09:11:14.999Z</time></trkpt><trkpt lat="43.651504753941104" lon="11.085659381931418"><ele>171.0</ele><time>2026-04-04T09:11:15.999Z</time></trkpt><trkpt lat="43.65143970618245" lon="11.085698542247423"><ele>171.0</ele><time>2026-04-04T09:11:16.999Z</time></trkpt><trkpt lat="43.65137562308197" lon="11.085687139276354"><ele>171.0</ele><time>2026-04-04T09:11:17.999Z</time></trkpt><trkpt lat="43.65133665050468" lon="11.085601210702114"><ele>171.0</ele><time>2026-04-04T09:11:18.999Z</time></trkpt><trkpt lat="43.65129974086642" lon="11.085493195217436"><ele>171.0</ele><time>2026-04-04T09:11:20Z</time></trkpt><trkpt lat="43.65132662833091" lon="11.08532975475401"><ele>171.0</ele><time>2026-04-04T09:11:21Z</time></trkpt><trkpt lat="43.65136030654144" lon="11.085158940593546"><ele>171.0</ele><time>2026-04-04T09:11:22Z</time></trkpt><trkpt lat="43.6513445296246" lon="11.085002028194241"><ele>171.0</ele><time>2026-04-04T09:11:23Z</time></trkpt><trkpt lat="43.65128060864254" lon="11.084865348490858"><ele>170.33333333333334</ele><time>2026-04-04T09:11:24Z</time></trkpt><trkpt lat="43.65116126361156" lon="11.084763179500161"><ele>169.66666666666669</ele><time>2026-04-04T09:11:25Z</time></trkpt><trkpt lat="43.65100943561188" lon="11.08471485757473"><ele>169.0</ele><time>2026-04-04T09:11:26Z</time></trkpt><trkpt lat="43.65083028093135" lon="11.084687473836635"><ele>173.0</ele><time>2026-04-04T09:11:27Z</time></trkpt><trkpt lat="43.650641106112985" lon="11.084679468142301"><ele>177.0</ele><time>2026-04-04T09:11:28Z</time></trkpt><trkpt lat="43.65045035727634" lon="11.084675327336418"><ele>181.0</ele><time>2026-04-04T09:11:29Z</time></trkpt><trkpt lat="43.65028550587314" lon="11.084678176095267"><ele>183.0</ele><time>2026-04-04T09:11:30Z</time></trkpt><trkpt lat="43.650135796671016" lon="11.084681334659509"><ele>185.0</ele><time>2026-04-04T09:11:31Z</time></trkpt><trkpt lat="43.64998807986977" lon="11.08469344515187"><ele>187.0</ele><time>2026-04-04T09:11:32Z</time></trkpt><trkpt lat="43.6498413076005" lon="11.084737919134536"><ele>189.0</ele><time>2026-04-04T09:11:33Z</time></trkpt><trkpt lat="43.64970516769465" lon="11.08478960571042"><ele>189.0</ele><time>2026-04-04T09:11:34Z</time></trkpt><trkpt lat="43.64958767362075" lon="11.084843872071332"><ele>189.0</ele><time>2026-04-04T09:11:35Z</time></trkpt><trkpt lat="43.649485338097584" lon="11.0849202497406"><ele>189.0</ele><time>2026-04-04T09:11:36Z</time></trkpt><trkpt lat="43.64939243231452" lon="11.085022495157999"><ele>189.0</ele><time>2026-04-04T09:11:37Z</time></trkpt><trkpt lat="43.64933829656544" lon="11.085208916108094"><ele>190.0</ele><time>2026-04-04T09:11:38Z</time></trkpt><trkpt lat="43.64928218776857" lon="11.085397991688424"><ele>191.0</ele><time>2026-04-04T09:11:39Z</time></trkpt><trkpt lat="43.64922794117236" lon="11.085549255083176"><ele>192.0</ele><time>2026-04-04T09:11:40Z</time></trkpt><trkpt lat="43.649188574069804" lon="11.085661668843603"><ele>193.0</ele><time>2026-04-04T09:11:41Z</time></trkpt><trkpt lat="43.64914136194425" lon="11.085743549626168"><ele>194.0</ele><time>2026-04-04T09:11:42Z</time></trkpt><trkpt lat="43.649086898590454" lon="11.085839717297075"><ele>194.0</ele><time>2026-04-04T09:11:43Z</time></trkpt><trkpt lat="43.6490116443777" lon="11.085955434422875"><ele>194.0</ele><time>2026-04-04T09:11:44Z</time></trkpt><trkpt lat="43.648856195818446" lon="11.085891409892849"><ele>194.0</ele><time>2026-04-04T09:11:45Z</time></trkpt><trkpt lat="43.6487220829056" lon="11.08583883900212"><ele>194.0</ele><time>2026-04-04T09:11:46Z</time></trkpt><trkpt lat="43.64860388589402" lon="11.085733321244417"><ele>197.0</ele><time>2026-04-04T09:11:47Z</time></trkpt><trkpt lat="43.648492343517056" lon="11.085591536500385"><ele>200.0</ele><time>2026-04-04T09:11:48Z</time></trkpt><trkpt lat="43.64843391517241" lon="11.085373794351753"><ele>203.0</ele><time>2026-04-04T09:11:49Z</time></trkpt><trkpt lat="43.64835581311946" lon="11.085148816347514"><ele>203.0</ele><time>2026-04-04T09:11:50Z</time></trkpt><trkpt lat="43.64827750222407" lon="11.084897871714295"><ele>203.0</ele><time>2026-04-04T09:11:51Z</time></trkpt><trkpt lat="43.64820472493635" lon="11.084663352361835"><ele>203.0</ele><time>2026-04-04T09:11:52Z</time></trkpt><trkpt lat="43.648139719864034" lon="11.084453878516792"><ele>203.0</ele><time>2026-04-04T09:11:53Z</time></trkpt><trkpt lat="43.64808170902932" lon="11.084266942954004"><ele>203.0</ele><time>2026-04-04T09:11:54Z</time></trkpt><trkpt lat="43.64802176254838" lon="11.084078456826244"><ele>203.0</ele><time>2026-04-04T09:11:54.999Z</time></trkpt><trkpt lat="43.647955647852946" lon="11.08387327138924"><ele>204.33333333333334</ele><time>2026-04-04T09:11:55.999Z</time></trkpt><trkpt lat="43.6478684124871" lon="11.083658775851509"><ele>205.66666666666669</ele><time>2026-04-04T09:11:56.999Z</time></trkpt><trkpt lat="43.64779078160847" lon="11.083410814928483"><ele>207.0</ele><time>2026-04-04T09:11:57.999Z</time></trkpt><trkpt lat="43.64771730673296" lon="11.083155011673812"><ele>208.33333333333331</ele><time>2026-04-04T09:11:58.999Z</time></trkpt><trkpt lat="43.647643959426176" lon="11.082907966912863"><ele>209.66666666666666</ele><time>2026-04-04T09:11:59.999Z</time></trkpt><trkpt lat="43.64756955431152" lon="11.082657807331046"><ele>211.0</ele><time>2026-04-04T09:12:00.999Z</time></trkpt><trkpt lat="43.64750665856459" lon="11.082417914610145"><ele>211.66666666666666</ele><time>2026-04-04T09:12:01.999Z</time></trkpt><trkpt lat="43.64746438651673" lon="11.082187476285322"><ele>212.33333333333331</ele><time>2026-04-04T09:12:02.999Z</time></trkpt><trkpt lat="43.6474312463999" lon="11.081955336291346"><ele>213.0</ele><time>2026-04-04T09:12:03.999Z</time></trkpt><trkpt lat="43.64738247537861" lon="11.081727203573378"><ele>210.0</ele><time>2026-04-04T09:12:04.999Z</time></trkpt><trkpt lat="43.647314963554415" lon="11.08149369253952"><ele>207.0</ele><time>2026-04-04T09:12:05.999Z</time></trkpt><trkpt lat="43.64723603115245" lon="11.081250261547696"><ele>204.0</ele><time>2026-04-04T09:12:06.999Z</time></trkpt><trkpt lat="43.64712429508501" lon="11.081025165871143"><ele>204.0</ele><time>2026-04-04T09:12:07.999Z</time></trkpt><trkpt lat="43.64698373342701" lon="11.080811202319321"><ele>204.0</ele><time>2026-04-04T09:12:08.999Z</time></trkpt><trkpt lat="43.64682794364068" lon="11.080616597877954"><ele>204.0</ele><time>2026-04-04T09:12:09.999Z</time></trkpt><trkpt lat="43.646673105117856" lon="11.080428014002116"><ele>205.33333333333331</ele><time>2026-04-04T09:12:10.999Z</time></trkpt><trkpt lat="43.64653661907792" lon="11.080249107190262"><ele>206.66666666666666</ele><time>2026-04-04T09:12:11.999Z</time></trkpt><trkpt lat="43.646414178008826" lon="11.080067394511994"><ele>208.0</ele><time>2026-04-04T09:12:12.999Z</time></trkpt><trkpt lat="43.646302544771196" lon="11.079848629406543"><ele>208.0</ele><time>2026-04-04T09:12:13.999Z</time></trkpt><trkpt lat="43.64619478343814" lon="11.079617023043882"><ele>208.0</ele><time>2026-04-04T09:12:14.999Z</time></trkpt><trkpt lat="43.64611635098269" lon="11.079341652248054"><ele>208.0</ele><time>2026-04-04T09:12:15.999Z</time></trkpt><trkpt lat="43.64606116254168" lon="11.079048996876848"><ele>214.0</ele><time>2026-04-04T09:12:16.999Z</time></trkpt><trkpt lat="43.64602027014888" lon="11.078745553125755"><ele>220.0</ele><time>2026-04-04T09:12:17.999Z</time></trkpt><trkpt lat="43.64597727582732" lon="11.07846617407314"><ele>226.0</ele><time>2026-04-04T09:12:18.999Z</time></trkpt><trkpt lat="43.64593192206097" lon="11.078210901083033"><ele>226.0</ele><time>2026-04-04T09:12:19.999Z</time></trkpt><trkpt lat="43.645887991213975" lon="11.07797316389367"><ele>226.0</ele><time>2026-04-04T09:12:20.999Z</time></trkpt><trkpt lat="43.64583667757555" lon="11.077748353516057"><ele>226.0</ele><time>2026-04-04T09:12:21.999Z</time></trkpt><trkpt lat="43.6457963227511" lon="11.077537337196505"><ele>226.5</ele><time>2026-04-04T09:12:22.999Z</time></trkpt><trkpt lat="43.64574476689217" lon="11.077351967363736"><ele>227.0</ele><time>2026-04-04T09:12:23.999Z</time></trkpt><trkpt lat="43.64568643517769" lon="11.077172334987134"><ele>227.5</ele><time>2026-04-04T09:12:24.999Z</time></trkpt><trkpt lat="43.645658320501" lon="11.076982722316517"><ele>228.0</ele><time>2026-04-04T09:12:25.999Z</time></trkpt><trkpt lat="43.64561402268579" lon="11.076785395795442"><ele>227.66666666666669</ele><time>2026-04-04T09:12:26.999Z</time></trkpt><trkpt lat="43.645554212520786" lon="11.076582843199208"><ele>227.33333333333334</ele><time>2026-04-04T09:12:27.999Z</time></trkpt><trkpt lat="43.645515092278515" lon="11.076363147094673"><ele>227.0</ele><time>2026-04-04T09:12:28.999Z</time></trkpt><trkpt lat="43.64547985023281" lon="11.076149025043378"><ele>227.0</ele><time>2026-04-04T09:12:29.999Z</time></trkpt><trkpt lat="43.64544517926322" lon="11.075952577317283"><ele>227.0</ele><time>2026-04-04T09:12:30.999Z</time></trkpt><trkpt lat="43.64540941264855" lon="11.075749973747337"><ele>227.0</ele><time>2026-04-04T09:12:31.999Z</time></trkpt><trkpt lat="43.64537927921202" lon="11.07556171416559"><ele>227.0</ele><time>2026-04-04T09:12:32.999Z</time></trkpt><trkpt lat="43.645352223224954" lon="11.075379629481068"><ele>227.5</ele><time>2026-04-04T09:12:33.999Z</time></trkpt><trkpt lat="43.64532298879501" lon="11.075192714050758"><ele>228.0</ele><time>2026-04-04T09:12:34.999Z</time></trkpt><trkpt lat="43.645315208534896" lon="11.075008370778363"><ele>228.5</ele><time>2026-04-04T09:12:35.999Z</time></trkpt><trkpt lat="43.645281450204806" lon="11.074847719924508"><ele>229.0</ele><time>2026-04-04T09:12:36.999Z</time></trkpt><trkpt lat="43.64526756891499" lon="11.07469402510991"><ele>230.2</ele><time>2026-04-04T09:12:37.999Z</time></trkpt><trkpt lat="43.64525273790571" lon="11.074546866632783"><ele>231.39999999999998</ele><time>2026-04-04T09:12:38.999Z</time></trkpt><trkpt lat="43.64523609311195" lon="11.074401866163896"><ele>232.6</ele><time>2026-04-04T09:12:39.999Z</time></trkpt><trkpt lat="43.64522312152838" lon="11.074265781083483"><ele>233.8</ele><time>2026-04-04T09:12:40.999Z</time></trkpt><trkpt lat="43.64521132197655" lon="11.074133199698032"><ele>235.0</ele><time>2026-04-04T09:12:41.999Z</time></trkpt><trkpt lat="43.64519814510703" lon="11.074016283941553"><ele>234.99999999999997</ele><time>2026-04-04T09:12:42.999Z</time></trkpt><trkpt lat="43.64518021857236" lon="11.073902127502846"><ele>235.0</ele><time>2026-04-04T09:12:43.999Z</time></trkpt><trkpt lat="43.64517121060758" lon="11.073804325433194"><ele>235.0</ele><time>2026-04-04T09:12:44.999Z</time></trkpt><trkpt lat="43.645163057903865" lon="11.073710958558264"><ele>235.0</ele><time>2026-04-04T09:12:45.999Z</time></trkpt><trkpt lat="43.645141604084664" lon="11.073537253010262"><ele>234.99999999999997</ele><time>2026-04-04T09:12:47.999Z</time></trkpt><trkpt lat="43.64511598914981" lon="11.07342971856393"><ele>235.0</ele><time>2026-04-04T09:12:48.999Z</time></trkpt><trkpt lat="43.645094259728715" lon="11.073299985005947"><ele>234.66666666666666</ele><time>2026-04-04T09:12:49.999Z</time></trkpt><trkpt lat="43.64507951866898" lon="11.073167181197116"><ele>234.33333333333331</ele><time>2026-04-04T09:12:50.999Z</time></trkpt><trkpt lat="43.645067391239486" lon="11.073057824315283"><ele>234.0</ele><time>2026-04-04T09:12:51.999Z</time></trkpt><trkpt lat="43.6450543742077" lon="11.072953207233736"><ele>233.66666666666669</ele><time>2026-04-04T09:12:52.999Z</time></trkpt><trkpt lat="43.645060769949666" lon="11.072854827888856"><ele>233.33333333333334</ele><time>2026-04-04T09:12:53.999Z</time></trkpt><trkpt lat="43.64503610235555" lon="11.072771916056535"><ele>233.0</ele><time>2026-04-04T09:12:54.999Z</time></trkpt><trkpt lat="43.645042043095984" lon="11.072676830880503"><ele>233.00000000000003</ele><time>2026-04-04T09:12:55.999Z</time></trkpt><trkpt lat="43.64502898384365" lon="11.07256990446315"><ele>233.0</ele><time>2026-04-04T09:12:56.999Z</time></trkpt><trkpt lat="43.64501530758141" lon="11.072466052975239"><ele>233.0</ele><time>2026-04-04T09:12:57.999Z</time></trkpt><trkpt lat="43.64500390715152" lon="11.072380370688354"><ele>233.0</ele><time>2026-04-04T09:12:58.999Z</time></trkpt><trkpt lat="43.64496556828354" lon="11.07222697025345"><ele>233.00000000000003</ele><time>2026-04-04T09:13:00.999Z</time></trkpt><trkpt lat="43.64496729071928" lon="11.072133931475939"><ele>233.0</ele><time>2026-04-04T09:13:01.999Z</time></trkpt><trkpt lat="43.644948401108344" lon="11.0720262879763"><ele>232.8</ele><time>2026-04-04T09:13:02.999Z</time></trkpt><trkpt lat="43.64491466126044" lon="11.071886841236209"><ele>232.60000000000002</ele><time>2026-04-04T09:13:03.999Z</time></trkpt><trkpt lat="43.64487216491953" lon="11.071756561718022"><ele>232.39999999999998</ele><time>2026-04-04T09:13:04.999Z</time></trkpt><trkpt lat="43.64482923304761" lon="11.071643530045819"><ele>232.2</ele><time>2026-04-04T09:13:05.999Z</time></trkpt><trkpt lat="43.64478609200526" lon="11.071550271673146"><ele>232.0</ele><time>2026-04-04T09:13:06.999Z</time></trkpt><trkpt lat="43.644743502009476" lon="11.07147141336242"><ele>231.8</ele><time>2026-04-04T09:13:07.999Z</time></trkpt><trkpt lat="43.64466517680093" lon="11.071339014768672"><ele>231.6</ele><time>2026-04-04T09:13:09.999Z</time></trkpt><trkpt lat="43.64462158885031" lon="11.071275480065468"><ele>231.40000000000003</ele><time>2026-04-04T09:13:10.999Z</time></trkpt><trkpt lat="43.64451656130581" lon="11.071162644591555"><ele>231.20000000000002</ele><time>2026-04-04T09:13:12.999Z</time></trkpt><trkpt lat="43.64448350118661" lon="11.071088140337496"><ele>231.0</ele><time>2026-04-04T09:13:13.999Z</time></trkpt><trkpt lat="43.64445229157858" lon="11.071004576121627"><ele>231.0</ele><time>2026-04-04T09:13:14.999Z</time></trkpt><trkpt lat="43.644459652174824" lon="11.070770207960889"><ele>231.0</ele><time>2026-04-04T09:13:16.999Z</time></trkpt><trkpt lat="43.644505874629864" lon="11.070628985835311"><ele>231.0</ele><time>2026-04-04T09:13:17.999Z</time></trkpt><trkpt lat="43.644548887014956" lon="11.070467569301833"><ele>231.0</ele><time>2026-04-04T09:13:18.999Z</time></trkpt><trkpt lat="43.64459207749134" lon="11.070312800339543"><ele>230.8</ele><time>2026-04-04T09:13:19.999Z</time></trkpt><trkpt lat="43.64462756738512" lon="11.070167139134282"><ele>230.60000000000002</ele><time>2026-04-04T09:13:20.999Z</time></trkpt><trkpt lat="43.644663699709106" lon="11.07003132286136"><ele>230.4</ele><time>2026-04-04T09:13:21.999Z</time></trkpt><trkpt lat="43.64469314094579" lon="11.06989562510062"><ele>230.2</ele><time>2026-04-04T09:13:22.999Z</time></trkpt><trkpt lat="43.644723056881126" lon="11.06975777058253"><ele>230.0</ele><time>2026-04-04T09:13:23.999Z</time></trkpt><trkpt lat="43.64475029455245" lon="11.069599489766166"><ele>229.75</ele><time>2026-04-04T09:13:24.999Z</time></trkpt><trkpt lat="43.6447741442999" lon="11.069433418597152"><ele>229.5</ele><time>2026-04-04T09:13:26Z</time></trkpt><trkpt lat="43.64479796995286" lon="11.069280130021326"><ele>229.25</ele><time>2026-04-04T09:13:27Z</time></trkpt><trkpt lat="43.644817430025476" lon="11.069125152340376"><ele>229.0</ele><time>2026-04-04T09:13:28Z</time></trkpt><trkpt lat="43.644840556451626" lon="11.06895684027949"><ele>229.0</ele><time>2026-04-04T09:13:29Z</time></trkpt><trkpt lat="43.64487532316363" lon="11.068781488010647"><ele>229.0</ele><time>2026-04-04T09:13:30Z</time></trkpt><trkpt lat="43.644921277807065" lon="11.068605913021852"><ele>229.0</ele><time>2026-04-04T09:13:31Z</time></trkpt><trkpt lat="43.64498058902092" lon="11.068427249192363"><ele>229.0</ele><time>2026-04-04T09:13:32Z</time></trkpt><trkpt lat="43.64504554104276" lon="11.068246653415025"><ele>229.0</ele><time>2026-04-04T09:13:33Z</time></trkpt><trkpt lat="43.64511463736429" lon="11.068077818625746"><ele>229.0</ele><time>2026-04-04T09:13:34Z</time></trkpt><trkpt lat="43.64519523629005" lon="11.067917896304829"><ele>229.0</ele><time>2026-04-04T09:13:35Z</time></trkpt><trkpt lat="43.6452845984422" lon="11.067766791165711"><ele>229.0</ele><time>2026-04-04T09:13:36Z</time></trkpt><trkpt lat="43.64535971438828" lon="11.067616073547448"><ele>229.0</ele><time>2026-04-04T09:13:37Z</time></trkpt><trkpt lat="43.64544079046666" lon="11.067484956105693"><ele>229.0</ele><time>2026-04-04T09:13:38Z</time></trkpt><trkpt lat="43.645504210983646" lon="11.067345872920008"><ele>229.0</ele><time>2026-04-04T09:13:39Z</time></trkpt><trkpt lat="43.645578142841266" lon="11.067211813982604"><ele>229.0</ele><time>2026-04-04T09:13:40Z</time></trkpt><trkpt lat="43.645642181585366" lon="11.067086254193159"><ele>230.0</ele><time>2026-04-04T09:13:41Z</time></trkpt><trkpt lat="43.64569669175006" lon="11.066967803249012"><ele>230.99999999999997</ele><time>2026-04-04T09:13:42Z</time></trkpt><trkpt lat="43.64574918199898" lon="11.066842658280674"><ele>231.99999999999997</ele><time>2026-04-04T09:13:43Z</time></trkpt><trkpt lat="43.6458022209608" lon="11.066704162127582"><ele>233.0</ele><time>2026-04-04T09:13:44Z</time></trkpt><trkpt lat="43.64584585905233" lon="11.066545140747564"><ele>234.0</ele><time>2026-04-04T09:13:45Z</time></trkpt><trkpt lat="43.64588446341" lon="11.066365791332721"><ele>234.0</ele><time>2026-04-04T09:13:46Z</time></trkpt><trkpt lat="43.645910989554736" lon="11.066175126231164"><ele>234.0</ele><time>2026-04-04T09:13:47Z</time></trkpt><trkpt lat="43.645925987752385" lon="11.065970379074708"><ele>234.0</ele><time>2026-04-04T09:13:48Z</time></trkpt><trkpt lat="43.64592670168543" lon="11.065766384589999"><ele>234.0</ele><time>2026-04-04T09:13:49Z</time></trkpt><trkpt lat="43.64595171510632" lon="11.06557812845024"><ele>233.75</ele><time>2026-04-04T09:13:50Z</time></trkpt><trkpt lat="43.645954061524066" lon="11.065393839751563"><ele>233.5</ele><time>2026-04-04T09:13:51Z</time></trkpt><trkpt lat="43.64592996320883" lon="11.065223966383664"><ele>233.25</ele><time>2026-04-04T09:13:52Z</time></trkpt><trkpt lat="43.64593198176025" lon="11.065058255962132"><ele>233.0</ele><time>2026-04-04T09:13:53Z</time></trkpt><trkpt lat="43.64593051128201" lon="11.064897739192153"><ele>232.75</ele><time>2026-04-04T09:13:54Z</time></trkpt><trkpt lat="43.645931994668814" lon="11.064733386641729"><ele>232.5</ele><time>2026-04-04T09:13:55Z</time></trkpt><trkpt lat="43.64593652733743" lon="11.064557681535051"><ele>232.25</ele><time>2026-04-04T09:13:56Z</time></trkpt><trkpt lat="43.64596017679777" lon="11.064380118546996"><ele>232.0</ele><time>2026-04-04T09:13:57Z</time></trkpt><trkpt lat="43.64596258967586" lon="11.06421776047331"><ele>231.0</ele><time>2026-04-04T09:13:58Z</time></trkpt><trkpt lat="43.64596485436569" lon="11.064065373697337"><ele>230.0</ele><time>2026-04-04T09:13:59Z</time></trkpt><trkpt lat="43.64596906662738" lon="11.06391975539292"><ele>229.0</ele><time>2026-04-04T09:14:00Z</time></trkpt><trkpt lat="43.6459826041191" lon="11.063754708853692"><ele>228.0</ele><time>2026-04-04T09:14:00.999Z</time></trkpt><trkpt lat="43.64600681485044" lon="11.063566652030204"><ele>228.0</ele><time>2026-04-04T09:14:01.999Z</time></trkpt><trkpt lat="43.64602686490186" lon="11.06334341940294"><ele>228.0</ele><time>2026-04-04T09:14:02.999Z</time></trkpt><trkpt lat="43.64605997064769" lon="11.063114542022111"><ele>228.0</ele><time>2026-04-04T09:14:03.999Z</time></trkpt><trkpt lat="43.64608898327155" lon="11.062900319279267"><ele>228.25</ele><time>2026-04-04T09:14:04.999Z</time></trkpt><trkpt lat="43.64613189006203" lon="11.062710587876344"><ele>228.5</ele><time>2026-04-04T09:14:05.999Z</time></trkpt><trkpt lat="43.64613276991666" lon="11.062524001819074"><ele>228.75</ele><time>2026-04-04T09:14:06.999Z</time></trkpt><trkpt lat="43.64613945616042" lon="11.062325034902255"><ele>229.0</ele><time>2026-04-04T09:14:07.999Z</time></trkpt><trkpt lat="43.64609973486284" lon="11.062114408406305"><ele>228.75</ele><time>2026-04-04T09:14:08.999Z</time></trkpt><trkpt lat="43.64603907393223" lon="11.061901694221703"><ele>228.5</ele><time>2026-04-04T09:14:09.999Z</time></trkpt><trkpt lat="43.64597985966873" lon="11.06171041938923"><ele>228.25</ele><time>2026-04-04T09:14:10.999Z</time></trkpt><trkpt lat="43.64592632813873" lon="11.061543037957367"><ele>228.0</ele><time>2026-04-04T09:14:11.999Z</time></trkpt><trkpt lat="43.64587802415507" lon="11.061392001996298"><ele>228.0</ele><time>2026-04-04T09:14:12.999Z</time></trkpt><trkpt lat="43.64582979082358" lon="11.061241186891047"><ele>228.0</ele><time>2026-04-04T09:14:13.999Z</time></trkpt><trkpt lat="43.64578350824607" lon="11.061096471403406"><ele>228.0</ele><time>2026-04-04T09:14:14.999Z</time></trkpt><trkpt lat="43.64573755399739" lon="11.060954683853968"><ele>228.0</ele><time>2026-04-04T09:14:15.999Z</time></trkpt><trkpt lat="43.64569423592397" lon="11.060821163553973"><ele>227.4</ele><time>2026-04-04T09:14:16.999Z</time></trkpt><trkpt lat="43.64565238745093" lon="11.06069217305177"><ele>226.8</ele><time>2026-04-04T09:14:17.999Z</time></trkpt><trkpt lat="43.64560967996125" lon="11.06056053471288"><ele>226.2</ele><time>2026-04-04T09:14:18.999Z</time></trkpt><trkpt lat="43.64556686826707" lon="11.060428472269491"><ele>225.6</ele><time>2026-04-04T09:14:19.999Z</time></trkpt><trkpt lat="43.64552629480585" lon="11.060303141206614"><ele>225.0</ele><time>2026-04-04T09:14:20.999Z</time></trkpt><trkpt lat="43.64548516809132" lon="11.06017610097793"><ele>225.0</ele><time>2026-04-04T09:14:21.999Z</time></trkpt><trkpt lat="43.64544631429785" lon="11.060056540248887"><ele>225.0</ele><time>2026-04-04T09:14:22.999Z</time></trkpt><trkpt lat="43.645404731335965" lon="11.059930513137786"><ele>225.0</ele><time>2026-04-04T09:14:23.999Z</time></trkpt><trkpt lat="43.64536351751818" lon="11.059814954344658"><ele>225.0</ele><time>2026-04-04T09:14:24.999Z</time></trkpt><trkpt lat="43.64532128627471" lon="11.059706006780619"><ele>225.0</ele><time>2026-04-04T09:14:25.999Z</time></trkpt><trkpt lat="43.645275150639655" lon="11.059595494326429"><ele>224.8</ele><time>2026-04-04T09:14:26.999Z</time></trkpt><trkpt lat="43.645221237303566" lon="11.059470420497123"><ele>224.6</ele><time>2026-04-04T09:14:27.999Z</time></trkpt><trkpt lat="43.645165777862715" lon="11.059339567145685"><ele>224.39999999999998</ele><time>2026-04-04T09:14:28.999Z</time></trkpt><trkpt lat="43.64510815658441" lon="11.05920301846732"><ele>224.2</ele><time>2026-04-04T09:14:29.999Z</time></trkpt><trkpt lat="43.645048722084766" lon="11.059062172875336"><ele>224.0</ele><time>2026-04-04T09:14:30.999Z</time></trkpt><trkpt lat="43.64499137435751" lon="11.058918843986117"><ele>222.0</ele><time>2026-04-04T09:14:31.999Z</time></trkpt><trkpt lat="43.644932038850335" lon="11.058767726268945"><ele>220.0</ele><time>2026-04-04T09:14:32.999Z</time></trkpt><trkpt lat="43.644867817118886" lon="11.058594794746897"><ele>218.0</ele><time>2026-04-04T09:14:33.999Z</time></trkpt><trkpt lat="43.644807351609195" lon="11.058421739534618"><ele>216.0</ele><time>2026-04-04T09:14:34.999Z</time></trkpt><trkpt lat="43.64474746879626" lon="11.058236374157056"><ele>213.66666666666669</ele><time>2026-04-04T09:14:35.999Z</time></trkpt><trkpt lat="43.644686762937084" lon="11.058039898410243"><ele>211.33333333333334</ele><time>2026-04-04T09:14:36.999Z</time></trkpt><trkpt lat="43.64462161085272" lon="11.057816936174591"><ele>209.0</ele><time>2026-04-04T09:14:37.999Z</time></trkpt><trkpt lat="43.64455621547411" lon="11.05756211688878"><ele>207.66666666666669</ele><time>2026-04-04T09:14:38.999Z</time></trkpt><trkpt lat="43.644487057026616" lon="11.057290985603633"><ele>206.33333333333331</ele><time>2026-04-04T09:14:39.999Z</time></trkpt><trkpt lat="43.64441239117413" lon="11.056999486688037"><ele>205.0</ele><time>2026-04-04T09:14:40.999Z</time></trkpt><trkpt lat="43.6443409592968" lon="11.056715252563178"><ele>206.0</ele><time>2026-04-04T09:14:41.999Z</time></trkpt><trkpt lat="43.64427320910957" lon="11.056445668160901"><ele>207.0</ele><time>2026-04-04T09:14:42.999Z</time></trkpt><trkpt lat="43.64420774487176" lon="11.056185182471816"><ele>208.0</ele><time>2026-04-04T09:14:43.999Z</time></trkpt><trkpt lat="43.644142699474074" lon="11.055920648520008"><ele>206.33333333333331</ele><time>2026-04-04T09:14:44.999Z</time></trkpt><trkpt lat="43.644095227130634" lon="11.055661516919775"><ele>204.66666666666669</ele><time>2026-04-04T09:14:45.999Z</time></trkpt><trkpt lat="43.64407068900726" lon="11.055384558240114"><ele>203.0</ele><time>2026-04-04T09:14:46.999Z</time></trkpt><trkpt lat="43.6440771041961" lon="11.05509401338399"><ele>201.66666666666669</ele><time>2026-04-04T09:14:47.999Z</time></trkpt><trkpt lat="43.644101461223926" lon="11.054784515050368"><ele>200.33333333333331</ele><time>2026-04-04T09:14:48.999Z</time></trkpt><trkpt lat="43.64415756526103" lon="11.054503097235044"><ele>199.0</ele><time>2026-04-04T09:14:49.999Z</time></trkpt><trkpt lat="43.64421082057655" lon="11.054241882029704"><ele>199.66666666666666</ele><time>2026-04-04T09:14:50.999Z</time></trkpt><trkpt lat="43.644256436934086" lon="11.053996212293528"><ele>200.33333333333331</ele><time>2026-04-04T09:14:51.999Z</time></trkpt><trkpt lat="43.64428570099801" lon="11.053764490354224"><ele>201.0</ele><time>2026-04-04T09:14:52.999Z</time></trkpt><trkpt lat="43.64428131250829" lon="11.053532886754605"><ele>203.33333333333331</ele><time>2026-04-04T09:14:53.999Z</time></trkpt><trkpt lat="43.64425721042117" lon="11.053271429854744"><ele>205.66666666666666</ele><time>2026-04-04T09:14:54.999Z</time></trkpt><trkpt lat="43.64419947350639" lon="11.052987390501599"><ele>208.0</ele><time>2026-04-04T09:14:55.999Z</time></trkpt><trkpt lat="43.644156203757476" lon="11.052694696603025"><ele>208.0</ele><time>2026-04-04T09:14:56.999Z</time></trkpt><trkpt lat="43.64411750195012" lon="11.05246519617735"><ele>208.0</ele><time>2026-04-04T09:14:57.999Z</time></trkpt><trkpt lat="43.644083474601146" lon="11.052232369047339"><ele>208.0</ele><time>2026-04-04T09:14:58.999Z</time></trkpt><trkpt lat="43.64404982392165" lon="11.05198071174694"><ele>208.66666666666666</ele><time>2026-04-04T09:14:59.999Z</time></trkpt><trkpt lat="43.64402249529685" lon="11.051733015114038"><ele>209.33333333333331</ele><time>2026-04-04T09:15:00.999Z</time></trkpt><trkpt lat="43.64398598504839" lon="11.051521737138838"><ele>210.0</ele><time>2026-04-04T09:15:01.999Z</time></trkpt><trkpt lat="43.643963706095384" lon="11.051312930212328"><ele>210.33333333333331</ele><time>2026-04-04T09:15:02.999Z</time></trkpt><trkpt lat="43.6438980399039" lon="11.051109141621929"><ele>210.66666666666666</ele><time>2026-04-04T09:15:03.999Z</time></trkpt><trkpt lat="43.643793802367824" lon="11.05092923404144"><ele>211.0</ele><time>2026-04-04T09:15:04.999Z</time></trkpt><trkpt lat="43.643708659932365" lon="11.050749341683755"><ele>210.25</ele><time>2026-04-04T09:15:05.999Z</time></trkpt><trkpt lat="43.64364070790908" lon="11.050585296754756"><ele>209.5</ele><time>2026-04-04T09:15:06.999Z</time></trkpt><trkpt lat="43.64359366515445" lon="11.050413987317379"><ele>208.75</ele><time>2026-04-04T09:15:07.999Z</time></trkpt><trkpt lat="43.64356647909025" lon="11.050239530126985"><ele>208.0</ele><time>2026-04-04T09:15:08.999Z</time></trkpt><trkpt lat="43.64354723167656" lon="11.050064825292681"><ele>206.75</ele><time>2026-04-04T09:15:09.999Z</time></trkpt><trkpt lat="43.64353699602629" lon="11.049892949614048"><ele>205.5</ele><time>2026-04-04T09:15:10.999Z</time></trkpt><trkpt lat="43.643530058798255" lon="11.049710722146267"><ele>204.25</ele><time>2026-04-04T09:15:11.999Z</time></trkpt><trkpt lat="43.64351623014441" lon="11.04954345515269"><ele>203.0</ele><time>2026-04-04T09:15:12.999Z</time></trkpt><trkpt lat="43.64353478225215" lon="11.049389040258255"><ele>203.0</ele><time>2026-04-04T09:15:13.999Z</time></trkpt><trkpt lat="43.64355951399262" lon="11.049227582481326"><ele>203.0</ele><time>2026-04-04T09:15:14.999Z</time></trkpt><trkpt lat="43.643596977670036" lon="11.049057769988574"><ele>203.0</ele><time>2026-04-04T09:15:15.999Z</time></trkpt><trkpt lat="43.64364830495298" lon="11.048880470833106"><ele>203.0</ele><time>2026-04-04T09:15:16.999Z</time></trkpt><trkpt lat="43.64369632204056" lon="11.048718971380751"><ele>202.8</ele><time>2026-04-04T09:15:17.999Z</time></trkpt><trkpt lat="43.64374237421198" lon="11.048574091927856"><ele>202.60000000000002</ele><time>2026-04-04T09:15:18.999Z</time></trkpt><trkpt lat="43.64378664486541" lon="11.048433761649006"><ele>202.39999999999998</ele><time>2026-04-04T09:15:19.999Z</time></trkpt><trkpt lat="43.64383155590762" lon="11.048298412611752"><ele>202.2</ele><time>2026-04-04T09:15:20.999Z</time></trkpt><trkpt lat="43.643880053189726" lon="11.048159028555718"><ele>202.0</ele><time>2026-04-04T09:15:21.999Z</time></trkpt><trkpt lat="43.64393440093447" lon="11.048012526521667"><ele>202.0</ele><time>2026-04-04T09:15:22.999Z</time></trkpt><trkpt lat="43.64399546436351" lon="11.04786853266756"><ele>202.0</ele><time>2026-04-04T09:15:23.999Z</time></trkpt><trkpt lat="43.64405495103404" lon="11.047720804130847"><ele>202.0</ele><time>2026-04-04T09:15:24.999Z</time></trkpt><trkpt lat="43.64411166313428" lon="11.047574655373758"><ele>202.0</ele><time>2026-04-04T09:15:25.999Z</time></trkpt><trkpt lat="43.644158256877" lon="11.047419226177741"><ele>200.75</ele><time>2026-04-04T09:15:26.999Z</time></trkpt><trkpt lat="43.64420980784255" lon="11.047266892237456"><ele>199.5</ele><time>2026-04-04T09:15:27.999Z</time></trkpt><trkpt lat="43.64423923216735" lon="11.047106578278107"><ele>198.25</ele><time>2026-04-04T09:15:28.999Z</time></trkpt><trkpt lat="43.644266027948014" lon="11.046931357838911"><ele>197.0</ele><time>2026-04-04T09:15:29.999Z</time></trkpt><trkpt lat="43.64429240780166" lon="11.046759754799915"><ele>195.25</ele><time>2026-04-04T09:15:30.999Z</time></trkpt><trkpt lat="43.64431602097911" lon="11.046595448362508"><ele>193.5</ele><time>2026-04-04T09:15:32Z</time></trkpt><trkpt lat="43.64433937754751" lon="11.04643388044623"><ele>191.75</ele><time>2026-04-04T09:15:33Z</time></trkpt><trkpt lat="43.64435338402344" lon="11.046261173132196"><ele>190.0</ele><time>2026-04-04T09:15:34Z</time></trkpt><trkpt lat="43.644390440389834" lon="11.046064480598075"><ele>190.0</ele><time>2026-04-04T09:15:35Z</time></trkpt><trkpt lat="43.644439201699974" lon="11.04586180319738"><ele>190.0</ele><time>2026-04-04T09:15:36Z</time></trkpt><trkpt lat="43.644514105509835" lon="11.04563646528706"><ele>190.0</ele><time>2026-04-04T09:15:37Z</time></trkpt><trkpt lat="43.644609291281824" lon="11.045430469213455"><ele>190.33333333333334</ele><time>2026-04-04T09:15:38Z</time></trkpt><trkpt lat="43.64468923330215" lon="11.04523881054916"><ele>190.66666666666666</ele><time>2026-04-04T09:15:39Z</time></trkpt><trkpt lat="43.644764108505434" lon="11.045030864810277"><ele>191.0</ele><time>2026-04-04T09:15:40Z</time></trkpt><trkpt lat="43.64480311322209" lon="11.04479915200918"><ele>191.33333333333331</ele><time>2026-04-04T09:15:41Z</time></trkpt><trkpt lat="43.644827284459154" lon="11.044527749435263"><ele>191.66666666666666</ele><time>2026-04-04T09:15:42Z</time></trkpt><trkpt lat="43.64485336037002" lon="11.044240007708618"><ele>192.0</ele><time>2026-04-04T09:15:43Z</time></trkpt><trkpt lat="43.644892379348704" lon="11.043939614011409"><ele>192.33333333333331</ele><time>2026-04-04T09:15:44Z</time></trkpt><trkpt lat="43.64491682004772" lon="11.043666827498788"><ele>192.66666666666666</ele><time>2026-04-04T09:15:45Z</time></trkpt><trkpt lat="43.64494311905471" lon="11.043419484555875"><ele>193.0</ele><time>2026-04-04T09:15:46Z</time></trkpt><trkpt lat="43.64495565280967" lon="11.04318772541937"><ele>193.66666666666666</ele><time>2026-04-04T09:15:47Z</time></trkpt><trkpt lat="43.644967314590446" lon="11.042971353223836"><ele>194.33333333333331</ele><time>2026-04-04T09:15:48Z</time></trkpt><trkpt lat="43.6449666720243" lon="11.042762569060534"><ele>195.0</ele><time>2026-04-04T09:15:49Z</time></trkpt><trkpt lat="43.64497227963592" lon="11.042530052181295"><ele>194.33333333333331</ele><time>2026-04-04T09:15:50Z</time></trkpt><trkpt lat="43.64498935458144" lon="11.042288122885925"><ele>193.66666666666666</ele><time>2026-04-04T09:15:51Z</time></trkpt><trkpt lat="43.645011903040945" lon="11.04206175810972"><ele>193.0</ele><time>2026-04-04T09:15:52Z</time></trkpt><trkpt lat="43.6450352582214" lon="11.04183986153974"><ele>193.0</ele><time>2026-04-04T09:15:53Z</time></trkpt><trkpt lat="43.645056505749615" lon="11.041644992652033"><ele>193.0</ele><time>2026-04-04T09:15:54Z</time></trkpt><trkpt lat="43.64507273420179" lon="11.04146587390212"><ele>193.0</ele><time>2026-04-04T09:15:55Z</time></trkpt><trkpt lat="43.64506787385905" lon="11.041298371793237"><ele>193.0</ele><time>2026-04-04T09:15:56Z</time></trkpt><trkpt lat="43.64502555692784" lon="11.041133490692111"><ele>191.66666666666666</ele><time>2026-04-04T09:15:57Z</time></trkpt><trkpt lat="43.64493475659072" lon="11.040964324161436"><ele>190.33333333333331</ele><time>2026-04-04T09:15:57.999Z</time></trkpt><trkpt lat="43.644797717220854" lon="11.04080254140937"><ele>189.0</ele><time>2026-04-04T09:15:58.999Z</time></trkpt><trkpt lat="43.644610690572904" lon="11.040660679175504"><ele>187.33333333333334</ele><time>2026-04-04T09:15:59.999Z</time></trkpt><trkpt lat="43.6444277970912" lon="11.040470344138305"><ele>185.66666666666669</ele><time>2026-04-04T09:16:00.999Z</time></trkpt><trkpt lat="43.644249819669284" lon="11.040301140292355"><ele>184.0</ele><time>2026-04-04T09:16:01.999Z</time></trkpt><trkpt lat="43.64409845750947" lon="11.040142440529962"><ele>184.0</ele><time>2026-04-04T09:16:02.999Z</time></trkpt><trkpt lat="43.64395829935793" lon="11.039982347097379"><ele>184.0</ele><time>2026-04-04T09:16:03.999Z</time></trkpt><trkpt lat="43.643850663049705" lon="11.039824753204968"><ele>184.0</ele><time>2026-04-04T09:16:04.999Z</time></trkpt><trkpt lat="43.643761263419485" lon="11.039646380220963"><ele>183.33333333333334</ele><time>2026-04-04T09:16:05.999Z</time></trkpt><trkpt lat="43.64369535874199" lon="11.039450431555098"><ele>182.66666666666666</ele><time>2026-04-04T09:16:06.999Z</time></trkpt><trkpt lat="43.643640428736475" lon="11.039212781383833"><ele>182.0</ele><time>2026-04-04T09:16:07.999Z</time></trkpt><trkpt lat="43.643586934198204" lon="11.038952978524074"><ele>182.33333333333331</ele><time>2026-04-04T09:16:08.999Z</time></trkpt><trkpt lat="43.64353594990698" lon="11.038726007629611"><ele>182.66666666666666</ele><time>2026-04-04T09:16:09.999Z</time></trkpt><trkpt lat="43.643477124682406" lon="11.038509375004022"><ele>183.0</ele><time>2026-04-04T09:16:10.999Z</time></trkpt><trkpt lat="43.643402588455984" lon="11.038270336771177"><ele>183.0</ele><time>2026-04-04T09:16:11.999Z</time></trkpt><trkpt lat="43.64329642400088" lon="11.038018772006149"><ele>183.0</ele><time>2026-04-04T09:16:12.999Z</time></trkpt><trkpt lat="43.64318497266388" lon="11.037776020121472"><ele>183.0</ele><time>2026-04-04T09:16:13.999Z</time></trkpt><trkpt lat="43.64306202422135" lon="11.03751356098831"><ele>185.5</ele><time>2026-04-04T09:16:14.999Z</time></trkpt><trkpt lat="43.64293299126893" lon="11.037239238905634"><ele>188.0</ele><time>2026-04-04T09:16:15.999Z</time></trkpt><trkpt lat="43.64279020477464" lon="11.036976430371991"><ele>188.0</ele><time>2026-04-04T09:16:16.999Z</time></trkpt><trkpt lat="43.642675801662996" lon="11.036690886256686"><ele>188.0</ele><time>2026-04-04T09:16:17.999Z</time></trkpt><trkpt lat="43.642554471395705" lon="11.036436195982953"><ele>188.33333333333331</ele><time>2026-04-04T09:16:18.999Z</time></trkpt><trkpt lat="43.64243793212765" lon="11.036191562490478"><ele>188.66666666666666</ele><time>2026-04-04T09:16:19.999Z</time></trkpt><trkpt lat="43.64232457280096" lon="11.035953370731198"><ele>189.0</ele><time>2026-04-04T09:16:20.999Z</time></trkpt><trkpt lat="43.6422058577254" lon="11.035703804713881"><ele>189.0</ele><time>2026-04-04T09:16:21.999Z</time></trkpt><trkpt lat="43.64208017585009" lon="11.035443879320889"><ele>189.0</ele><time>2026-04-04T09:16:22.999Z</time></trkpt><trkpt lat="43.64195154419008" lon="11.035181820268908"><ele>188.33333333333334</ele><time>2026-04-04T09:16:23.999Z</time></trkpt><trkpt lat="43.64182651963479" lon="11.034930328932727"><ele>187.66666666666669</ele><time>2026-04-04T09:16:24.999Z</time></trkpt><trkpt lat="43.641706539893256" lon="11.03468878197005"><ele>187.0</ele><time>2026-04-04T09:16:25.999Z</time></trkpt><trkpt lat="43.64159419993394" lon="11.034458679247626"><ele>187.0</ele><time>2026-04-04T09:16:26.999Z</time></trkpt><trkpt lat="43.64148783479814" lon="11.034233194170287"><ele>187.0</ele><time>2026-04-04T09:16:27.999Z</time></trkpt><trkpt lat="43.64139057174724" lon="11.034000738103492"><ele>187.0</ele><time>2026-04-04T09:16:28.999Z</time></trkpt><trkpt lat="43.64129614889815" lon="11.03375860565388"><ele>189.33333333333334</ele><time>2026-04-04T09:16:29.999Z</time></trkpt><trkpt lat="43.641203408766486" lon="11.033521535269207"><ele>191.66666666666669</ele><time>2026-04-04T09:16:30.999Z</time></trkpt><trkpt lat="43.64111209514258" lon="11.03328811142703"><ele>194.0</ele><time>2026-04-04T09:16:31.999Z</time></trkpt><trkpt lat="43.641023027286224" lon="11.033059209645016"><ele>189.33333333333334</ele><time>2026-04-04T09:16:32.999Z</time></trkpt><trkpt lat="43.64093738308492" lon="11.032838760075398"><ele>184.66666666666669</ele><time>2026-04-04T09:16:33.999Z</time></trkpt><trkpt lat="43.64085391725869" lon="11.032623917667694"><ele>180.0</ele><time>2026-04-04T09:16:34.999Z</time></trkpt><trkpt lat="43.64077048626794" lon="11.03240916487234"><ele>179.0</ele><time>2026-04-04T09:16:35.999Z</time></trkpt><trkpt lat="43.64068857219173" lon="11.032198521521487"><ele>178.0</ele><time>2026-04-04T09:16:36.999Z</time></trkpt><trkpt lat="43.640608104508516" lon="11.031991726590388"><ele>177.0</ele><time>2026-04-04T09:16:37.999Z</time></trkpt><trkpt lat="43.640526692651015" lon="11.031783701020387"><ele>175.0</ele><time>2026-04-04T09:16:38.999Z</time></trkpt><trkpt lat="43.64044358921839" lon="11.03157240918225"><ele>173.0</ele><time>2026-04-04T09:16:39.999Z</time></trkpt><trkpt lat="43.64035689236333" lon="11.031351980777819"><ele>171.0</ele><time>2026-04-04T09:16:40.999Z</time></trkpt><trkpt lat="43.64027319414347" lon="11.031139176562226"><ele>169.33333333333334</ele><time>2026-04-04T09:16:41.999Z</time></trkpt><trkpt lat="43.64019133773652" lon="11.030929869172198"><ele>167.66666666666669</ele><time>2026-04-04T09:16:42.999Z</time></trkpt><trkpt lat="43.64011209607717" lon="11.030726071258531"><ele>166.0</ele><time>2026-04-04T09:16:43.999Z</time></trkpt><trkpt lat="43.64003295745625" lon="11.030522537880524"><ele>163.0</ele><time>2026-04-04T09:16:44.999Z</time></trkpt><trkpt lat="43.639953514996506" lon="11.030318223172875"><ele>160.0</ele><time>2026-04-04T09:16:45.999Z</time></trkpt><trkpt lat="43.63987664732966" lon="11.030121761249507"><ele>157.0</ele><time>2026-04-04T09:16:46.999Z</time></trkpt><trkpt lat="43.6397975387381" lon="11.0299200686227"><ele>155.66666666666669</ele><time>2026-04-04T09:16:47.999Z</time></trkpt><trkpt lat="43.63971883409685" lon="11.029719405605894"><ele>154.33333333333334</ele><time>2026-04-04T09:16:48.999Z</time></trkpt><trkpt lat="43.63964192937165" lon="11.029524294858003"><ele>153.0</ele><time>2026-04-04T09:16:49.999Z</time></trkpt><trkpt lat="43.63956750439799" lon="11.029335414743683"><ele>153.0</ele><time>2026-04-04T09:16:50.999Z</time></trkpt><trkpt lat="43.63948045593088" lon="11.029166751913149"><ele>153.0</ele><time>2026-04-04T09:16:51.999Z</time></trkpt><trkpt lat="43.63941273342081" lon="11.028993670868692"><ele>153.0</ele><time>2026-04-04T09:16:52.999Z</time></trkpt><trkpt lat="43.63934786491361" lon="11.028825088375783"><ele>153.0</ele><time>2026-04-04T09:16:53.999Z</time></trkpt><trkpt lat="43.63929126020858" lon="11.028677003138938"><ele>153.20000000000002</ele><time>2026-04-04T09:16:54.999Z</time></trkpt><trkpt lat="43.63923978275832" lon="11.028541692242195"><ele>153.4</ele><time>2026-04-04T09:16:55.999Z</time></trkpt><trkpt lat="43.639216070417646" lon="11.028407887489168"><ele>153.60000000000002</ele><time>2026-04-04T09:16:56.999Z</time></trkpt><trkpt lat="43.63916334142399" lon="11.028306725587626"><ele>153.8</ele><time>2026-04-04T09:16:57.999Z</time></trkpt><trkpt lat="43.639140457085695" lon="11.028195540385079"><ele>154.0</ele><time>2026-04-04T09:16:58.999Z</time></trkpt><trkpt lat="43.639136325618935" lon="11.02809702556575"><ele>153.0</ele><time>2026-04-04T09:16:59.999Z</time></trkpt><trkpt lat="43.639144427200996" lon="11.027949135227828"><ele>152.0</ele><time>2026-04-04T09:17:01.999Z</time></trkpt><trkpt lat="43.63913945313102" lon="11.027793161920602"><ele>151.0</ele><time>2026-04-04T09:17:03.999Z</time></trkpt><trkpt lat="43.63913328232592" lon="11.027698670674138"><ele>150.0</ele><time>2026-04-04T09:17:04.999Z</time></trkpt><trkpt lat="43.639090777269395" lon="11.027607322673626"><ele>149.0</ele><time>2026-04-04T09:17:05.999Z</time></trkpt><trkpt lat="43.63898722743075" lon="11.02759162186932"><ele>149.0</ele><time>2026-04-04T09:17:06.999Z</time></trkpt><trkpt lat="43.63892453293085" lon="11.027540626287141"><ele>149.0</ele><time>2026-04-04T09:17:07.999Z</time></trkpt><trkpt lat="43.63884496520091" lon="11.027466497951162"><ele>149.0</ele><time>2026-04-04T09:17:08.999Z</time></trkpt><trkpt lat="43.63879119729404" lon="11.027384852337798"><ele>149.0</ele><time>2026-04-04T09:17:09.999Z</time></trkpt><trkpt lat="43.63873169762339" lon="11.027287145304017"><ele>149.0</ele><time>2026-04-04T09:17:10.999Z</time></trkpt><trkpt lat="43.63864747350012" lon="11.027170205834748"><ele>148.0</ele><time>2026-04-04T09:17:11.999Z</time></trkpt><trkpt lat="43.63856536663144" lon="11.027005927142463"><ele>147.0</ele><time>2026-04-04T09:17:12.999Z</time></trkpt><trkpt lat="43.63848042933806" lon="11.026828643085809"><ele>146.0</ele><time>2026-04-04T09:17:13.999Z</time></trkpt><trkpt lat="43.638384116977214" lon="11.026637937010284"><ele>144.66666666666666</ele><time>2026-04-04T09:17:14.999Z</time></trkpt><trkpt lat="43.63828067608708" lon="11.026435432095479"><ele>143.33333333333334</ele><time>2026-04-04T09:17:15.999Z</time></trkpt><trkpt lat="43.63817524715276" lon="11.026231778050553"><ele>142.0</ele><time>2026-04-04T09:17:16.999Z</time></trkpt><trkpt lat="43.63807053567235" lon="11.026020294925168"><ele>143.0</ele><time>2026-04-04T09:17:17.999Z</time></trkpt><trkpt lat="43.63796604468561" lon="11.02580436300171"><ele>144.0</ele><time>2026-04-04T09:17:18.999Z</time></trkpt><trkpt lat="43.63786607140393" lon="11.025606649088457"><ele>145.0</ele><time>2026-04-04T09:17:19.999Z</time></trkpt><trkpt lat="43.63777621977697" lon="11.025432530869287"><ele>145.0</ele><time>2026-04-04T09:17:20.999Z</time></trkpt><trkpt lat="43.63769523270733" lon="11.025269219642626"><ele>145.0</ele><time>2026-04-04T09:17:21.999Z</time></trkpt><trkpt lat="43.637643814681695" lon="11.025088116472672"><ele>145.0</ele><time>2026-04-04T09:17:22.999Z</time></trkpt><trkpt lat="43.63757048577617" lon="11.024942943951867"><ele>145.0</ele><time>2026-04-04T09:17:23.999Z</time></trkpt><trkpt lat="43.637499468207594" lon="11.024806748861973"><ele>145.25</ele><time>2026-04-04T09:17:24.999Z</time></trkpt><trkpt lat="43.63742169827128" lon="11.024668754362501"><ele>145.5</ele><time>2026-04-04T09:17:25.999Z</time></trkpt><trkpt lat="43.63731539138892" lon="11.024527474350561"><ele>145.75</ele><time>2026-04-04T09:17:26.999Z</time></trkpt><trkpt lat="43.63717745597354" lon="11.024401445578484"><ele>146.0</ele><time>2026-04-04T09:17:27.999Z</time></trkpt><trkpt lat="43.6370358867749" lon="11.024305589966888"><ele>145.5</ele><time>2026-04-04T09:17:28.999Z</time></trkpt><trkpt lat="43.63690445296303" lon="11.024230083985746"><ele>145.0</ele><time>2026-04-04T09:17:29.999Z</time></trkpt><trkpt lat="43.636788413646386" lon="11.024162986604246"><ele>144.5</ele><time>2026-04-04T09:17:30.999Z</time></trkpt><trkpt lat="43.636682787462526" lon="11.024100383277569"><ele>144.0</ele><time>2026-04-04T09:17:31.999Z</time></trkpt><trkpt lat="43.63657919850755" lon="11.024037867344058"><ele>144.0</ele><time>2026-04-04T09:17:32.999Z</time></trkpt><trkpt lat="43.636464964990154" lon="11.023968926719157"><ele>144.0</ele><time>2026-04-04T09:17:33.999Z</time></trkpt><trkpt lat="43.63635374107949" lon="11.023870595523316"><ele>144.0</ele><time>2026-04-04T09:17:34.999Z</time></trkpt><trkpt lat="43.63623050266623" lon="11.0237307434161"><ele>144.0</ele><time>2026-04-04T09:17:35.999Z</time></trkpt><trkpt lat="43.63610891390422" lon="11.023587369493457"><ele>144.0</ele><time>2026-04-04T09:17:36.999Z</time></trkpt><trkpt lat="43.635995607654266" lon="11.023451015659084"><ele>144.0</ele><time>2026-04-04T09:17:37.999Z</time></trkpt><trkpt lat="43.635893684151455" lon="11.023325097418196"><ele>144.0</ele><time>2026-04-04T09:17:38.999Z</time></trkpt><trkpt lat="43.63579344258337" lon="11.023193801942487"><ele>144.0</ele><time>2026-04-04T09:17:39.999Z</time></trkpt><trkpt lat="43.63569577599579" lon="11.023047353794434"><ele>144.0</ele><time>2026-04-04T09:17:40.999Z</time></trkpt><trkpt lat="43.635601726397994" lon="11.022873394053475"><ele>144.0</ele><time>2026-04-04T09:17:41.999Z</time></trkpt><trkpt lat="43.63551304382652" lon="11.022692296514611"><ele>144.0</ele><time>2026-04-04T09:17:42.999Z</time></trkpt><trkpt lat="43.63543247993643" lon="11.02252701988963"><ele>143.5</ele><time>2026-04-04T09:17:43.999Z</time></trkpt><trkpt lat="43.63536183780149" lon="11.02237800859792"><ele>143.0</ele><time>2026-04-04T09:17:44.999Z</time></trkpt><trkpt lat="43.63529734694557" lon="11.022229680859812"><ele>142.5</ele><time>2026-04-04T09:17:45.999Z</time></trkpt><trkpt lat="43.63524780003082" lon="11.022085182837532"><ele>142.0</ele><time>2026-04-04T09:17:46.999Z</time></trkpt><trkpt lat="43.63520708356733" lon="11.021927570008723"><ele>144.0</ele><time>2026-04-04T09:17:47.999Z</time></trkpt><trkpt lat="43.635168227945364" lon="11.021758309445092"><ele>146.0</ele><time>2026-04-04T09:17:48.999Z</time></trkpt><trkpt lat="43.63515610173591" lon="11.021575962477652"><ele>148.0</ele><time>2026-04-04T09:17:49.999Z</time></trkpt><trkpt lat="43.635145549667826" lon="11.021388628517036"><ele>150.0</ele><time>2026-04-04T09:17:50.999Z</time></trkpt><trkpt lat="43.635145672364544" lon="11.021204472602783"><ele>151.5</ele><time>2026-04-04T09:17:51.999Z</time></trkpt><trkpt lat="43.63514676865286" lon="11.021026847278224"><ele>153.0</ele><time>2026-04-04T09:17:52.999Z</time></trkpt><trkpt lat="43.635140623257385" lon="11.020851965338348"><ele>154.5</ele><time>2026-04-04T09:17:53.999Z</time></trkpt><trkpt lat="43.63513329544202" lon="11.020680968870616"><ele>156.0</ele><time>2026-04-04T09:17:54.999Z</time></trkpt><trkpt lat="43.63513315709531" lon="11.0205138036427"><ele>157.0</ele><time>2026-04-04T09:17:55.999Z</time></trkpt><trkpt lat="43.63513873650608" lon="11.020352051227185"><ele>158.0</ele><time>2026-04-04T09:17:56.999Z</time></trkpt><trkpt lat="43.63513161242399" lon="11.02021157090087"><ele>159.0</ele><time>2026-04-04T09:17:57.999Z</time></trkpt><trkpt lat="43.63513240752122" lon="11.020086431543154"><ele>160.0</ele><time>2026-04-04T09:17:58.999Z</time></trkpt><trkpt lat="43.63513113334578" lon="11.019985393500189"><ele>161.0</ele><time>2026-04-04T09:17:59.999Z</time></trkpt><trkpt lat="43.63512752229655" lon="11.019891608043642"><ele>161.4</ele><time>2026-04-04T09:18:01.999Z</time></trkpt><trkpt lat="43.63511652657342" lon="11.019778173701445"><ele>161.8</ele><time>2026-04-04T09:18:04.999Z</time></trkpt><trkpt lat="43.63511275125319" lon="11.019599031052438"><ele>162.20000000000002</ele><time>2026-04-04T09:18:06.999Z</time></trkpt><trkpt lat="43.63510410591439" lon="11.01948977533516"><ele>162.60000000000002</ele><time>2026-04-04T09:18:07.999Z</time></trkpt><trkpt lat="43.63508991423014" lon="11.019374914834584"><ele>163.0</ele><time>2026-04-04T09:18:08.999Z</time></trkpt><trkpt lat="43.635083789488895" lon="11.019261631844394"><ele>162.8</ele><time>2026-04-04T09:18:09.999Z</time></trkpt><trkpt lat="43.635085699604254" lon="11.01914494001254"><ele>162.60000000000002</ele><time>2026-04-04T09:18:10.999Z</time></trkpt><trkpt lat="43.63509423905806" lon="11.019001224008054"><ele>162.39999999999998</ele><time>2026-04-04T09:18:11.999Z</time></trkpt><trkpt lat="43.635111959484995" lon="11.018843153184052"><ele>162.2</ele><time>2026-04-04T09:18:12.999Z</time></trkpt><trkpt lat="43.63512704900545" lon="11.018677310881886"><ele>162.0</ele><time>2026-04-04T09:18:13.999Z</time></trkpt><trkpt lat="43.6351407158512" lon="11.0185213580742"><ele>162.0</ele><time>2026-04-04T09:18:14.999Z</time></trkpt><trkpt lat="43.63515764786713" lon="11.018365869492222"><ele>162.0</ele><time>2026-04-04T09:18:15.999Z</time></trkpt><trkpt lat="43.635173702494335" lon="11.018195207056243"><ele>162.0</ele><time>2026-04-04T09:18:16.999Z</time></trkpt><trkpt lat="43.63518007635269" lon="11.018023623011768"><ele>162.0</ele><time>2026-04-04T09:18:17.999Z</time></trkpt><trkpt lat="43.63518483461388" lon="11.017859738938432"><ele>161.5</ele><time>2026-04-04T09:18:18.999Z</time></trkpt><trkpt lat="43.63519020025114" lon="11.01769414619974"><ele>161.0</ele><time>2026-04-04T09:18:19.999Z</time></trkpt><trkpt lat="43.635189899008004" lon="11.017525294959956"><ele>160.5</ele><time>2026-04-04T09:18:20.999Z</time></trkpt><trkpt lat="43.63520304328554" lon="11.01735050026477"><ele>160.0</ele><time>2026-04-04T09:18:21.999Z</time></trkpt><trkpt lat="43.63523121565849" lon="11.017177224607671"><ele>159.75</ele><time>2026-04-04T09:18:22.999Z</time></trkpt><trkpt lat="43.63526906100002" lon="11.01701210888365"><ele>159.5</ele><time>2026-04-04T09:18:23.999Z</time></trkpt><trkpt lat="43.635337233144355" lon="11.016854656995267"><ele>159.25</ele><time>2026-04-04T09:18:24.999Z</time></trkpt><trkpt lat="43.635427380676845" lon="11.016703726970773"><ele>159.0</ele><time>2026-04-04T09:18:25.999Z</time></trkpt><trkpt lat="43.63553251160625" lon="11.016566602253688"><ele>160.33333333333334</ele><time>2026-04-04T09:18:26.999Z</time></trkpt><trkpt lat="43.635650687403846" lon="11.01643516867276"><ele>161.66666666666669</ele><time>2026-04-04T09:18:27.999Z</time></trkpt><trkpt lat="43.635784008933555" lon="11.016314580760366"><ele>163.0</ele><time>2026-04-04T09:18:28.999Z</time></trkpt><trkpt lat="43.635926815891025" lon="11.016216608790796"><ele>163.0</ele><time>2026-04-04T09:18:29.999Z</time></trkpt><trkpt lat="43.636073987254036" lon="11.016129990826496"><ele>163.0</ele><time>2026-04-04T09:18:30.999Z</time></trkpt><trkpt lat="43.63620911874888" lon="11.016038897566427"><ele>163.0</ele><time>2026-04-04T09:18:31.999Z</time></trkpt><trkpt lat="43.63632340486398" lon="11.015930600100502"><ele>163.0</ele><time>2026-04-04T09:18:32.999Z</time></trkpt><trkpt lat="43.63642409499126" lon="11.01577556628066"><ele>160.0</ele><time>2026-04-04T09:18:33.999Z</time></trkpt><trkpt lat="43.636504060680274" lon="11.01557438011494"><ele>157.0</ele><time>2026-04-04T09:18:34.999Z</time></trkpt><trkpt lat="43.63656798894963" lon="11.01536324906617"><ele>154.0</ele><time>2026-04-04T09:18:35.999Z</time></trkpt><trkpt lat="43.63663549243235" lon="11.015144545601748"><ele>152.33333333333334</ele><time>2026-04-04T09:18:36.999Z</time></trkpt><trkpt lat="43.63673256725365" lon="11.014952896918478"><ele>150.66666666666666</ele><time>2026-04-04T09:18:37.999Z</time></trkpt><trkpt lat="43.63685075357631" lon="11.01478501436989"><ele>149.0</ele><time>2026-04-04T09:18:38.999Z</time></trkpt><trkpt lat="43.636991068977096" lon="11.01464588681057"><ele>148.66666666666666</ele><time>2026-04-04T09:18:39.999Z</time></trkpt><trkpt lat="43.637147113487785" lon="11.014547971516842"><ele>148.33333333333334</ele><time>2026-04-04T09:18:40.999Z</time></trkpt><trkpt lat="43.63731897250919" lon="11.014472482247601"><ele>148.0</ele><time>2026-04-04T09:18:41.999Z</time></trkpt><trkpt lat="43.63749975931464" lon="11.014427551240669"><ele>148.0</ele><time>2026-04-04T09:18:42.999Z</time></trkpt><trkpt lat="43.6376790312203" lon="11.014399967296347"><ele>148.0</ele><time>2026-04-04T09:18:43.999Z</time></trkpt><trkpt lat="43.63785780530053" lon="11.014373057085033"><ele>148.0</ele><time>2026-04-04T09:18:44.999Z</time></trkpt><trkpt lat="43.63803409248723" lon="11.01431944276983"><ele>149.66666666666669</ele><time>2026-04-04T09:18:45.999Z</time></trkpt><trkpt lat="43.63820408535955" lon="11.01425718278909"><ele>151.33333333333334</ele><time>2026-04-04T09:18:46.999Z</time></trkpt><trkpt lat="43.638364268118025" lon="11.014158790872266"><ele>153.0</ele><time>2026-04-04T09:18:47.999Z</time></trkpt><trkpt lat="43.63851212806572" lon="11.01401629134209"><ele>159.33333333333334</ele><time>2026-04-04T09:18:48.999Z</time></trkpt><trkpt lat="43.63863748749056" lon="11.013832191329769"><ele>165.66666666666669</ele><time>2026-04-04T09:18:49.999Z</time></trkpt><trkpt lat="43.63874680450775" lon="11.01360597851357"><ele>172.0</ele><time>2026-04-04T09:18:50.999Z</time></trkpt><trkpt lat="43.63881811869239" lon="11.013361225691002"><ele>170.66666666666669</ele><time>2026-04-04T09:18:51.999Z</time></trkpt><trkpt lat="43.638861207105215" lon="11.013102744024284"><ele>169.33333333333334</ele><time>2026-04-04T09:18:52.999Z</time></trkpt><trkpt lat="43.638867872892845" lon="11.01282772655135"><ele>168.0</ele><time>2026-04-04T09:18:53.999Z</time></trkpt><trkpt lat="43.63884722048678" lon="11.012535942779389"><ele>167.66666666666666</ele><time>2026-04-04T09:18:54.999Z</time></trkpt><trkpt lat="43.63882430246136" lon="11.012248346583188"><ele>167.33333333333331</ele><time>2026-04-04T09:18:55.999Z</time></trkpt><trkpt lat="43.638804966194634" lon="11.011957418776259"><ele>167.0</ele><time>2026-04-04T09:18:56.999Z</time></trkpt><trkpt lat="43.63878946718588" lon="11.011665115508821"><ele>166.66666666666666</ele><time>2026-04-04T09:18:57.999Z</time></trkpt><trkpt lat="43.638777292842875" lon="11.011378182593354"><ele>166.33333333333334</ele><time>2026-04-04T09:18:58.999Z</time></trkpt><trkpt lat="43.63877066180494" lon="11.011099429916545"><ele>166.0</ele><time>2026-04-04T09:18:59.999Z</time></trkpt><trkpt lat="43.63873957562859" lon="11.010827084519116"><ele>166.0</ele><time>2026-04-04T09:19:00.999Z</time></trkpt><trkpt lat="43.63867520769903" lon="11.010569883897865"><ele>166.0</ele><time>2026-04-04T09:19:01.999Z</time></trkpt><trkpt lat="43.63860423604195" lon="11.010324058438064"><ele>166.0</ele><time>2026-04-04T09:19:02.999Z</time></trkpt><trkpt lat="43.638502576200885" lon="11.010094419877435"><ele>162.33333333333334</ele><time>2026-04-04T09:19:03.999Z</time></trkpt><trkpt lat="43.63836956105059" lon="11.009892777307313"><ele>158.66666666666666</ele><time>2026-04-04T09:19:04.999Z</time></trkpt><trkpt lat="43.63821977059832" lon="11.009716333885656"><ele>155.0</ele><time>2026-04-04T09:19:05.999Z</time></trkpt><trkpt lat="43.63804965646668" lon="11.009556494891049"><ele>155.0</ele><time>2026-04-04T09:19:06.999Z</time></trkpt><trkpt lat="43.637891988125" lon="11.009370970961244"><ele>155.0</ele><time>2026-04-04T09:19:07.999Z</time></trkpt><trkpt lat="43.63772871389724" lon="11.009193117441729"><ele>155.0</ele><time>2026-04-04T09:19:08.999Z</time></trkpt><trkpt lat="43.63756918000784" lon="11.009019910522818"><ele>150.0</ele><time>2026-04-04T09:19:09.999Z</time></trkpt><trkpt lat="43.637408124941594" lon="11.008845839049076"><ele>145.0</ele><time>2026-04-04T09:19:10.999Z</time></trkpt><trkpt lat="43.637247590048624" lon="11.00867232956444"><ele>140.0</ele><time>2026-04-04T09:19:11.999Z</time></trkpt><trkpt lat="43.637091750101355" lon="11.0085003352019"><ele>140.33333333333331</ele><time>2026-04-04T09:19:12.999Z</time></trkpt><trkpt lat="43.6369298374274" lon="11.008316971476958"><ele>140.66666666666666</ele><time>2026-04-04T09:19:13.999Z</time></trkpt><trkpt lat="43.63676801289762" lon="11.008123117244715"><ele>141.0</ele><time>2026-04-04T09:19:14.999Z</time></trkpt><trkpt lat="43.63661260800824" lon="11.007920965686681"><ele>141.0</ele><time>2026-04-04T09:19:15.999Z</time></trkpt><trkpt lat="43.636465030107104" lon="11.007709117887952"><ele>141.0</ele><time>2026-04-04T09:19:16.999Z</time></trkpt><trkpt lat="43.636321923131874" lon="11.007481388059876"><ele>141.0</ele><time>2026-04-04T09:19:17.999Z</time></trkpt><trkpt lat="43.63619073549851" lon="11.007246873938668"><ele>143.66666666666666</ele><time>2026-04-04T09:19:18.999Z</time></trkpt><trkpt lat="43.63607364385881" lon="11.007016679064634"><ele>146.33333333333331</ele><time>2026-04-04T09:19:19.999Z</time></trkpt><trkpt lat="43.63596005719467" lon="11.006808480995998"><ele>149.0</ele><time>2026-04-04T09:19:20.999Z</time></trkpt><trkpt lat="43.63583477227331" lon="11.006608975320853"><ele>149.33333333333331</ele><time>2026-04-04T09:19:21.999Z</time></trkpt><trkpt lat="43.63569646690963" lon="11.006424706434247"><ele>149.66666666666666</ele><time>2026-04-04T09:19:22.999Z</time></trkpt><trkpt lat="43.63554945870974" lon="11.0062653515209"><ele>150.0</ele><time>2026-04-04T09:19:23.999Z</time></trkpt><trkpt lat="43.63538211129039" lon="11.006151527424935"><ele>154.33333333333334</ele><time>2026-04-04T09:19:24.999Z</time></trkpt><trkpt lat="43.635208071001074" lon="11.006039268775702"><ele>158.66666666666669</ele><time>2026-04-04T09:19:25.999Z</time></trkpt><trkpt lat="43.6350316581226" lon="11.005922121120859"><ele>163.0</ele><time>2026-04-04T09:19:26.999Z</time></trkpt><trkpt lat="43.63484262145634" lon="11.005848217537189"><ele>161.33333333333334</ele><time>2026-04-04T09:19:27.999Z</time></trkpt><trkpt lat="43.63464582982661" lon="11.005803717322928"><ele>159.66666666666666</ele><time>2026-04-04T09:19:28.999Z</time></trkpt><trkpt lat="43.63447560433785" lon="11.00577671634798"><ele>158.0</ele><time>2026-04-04T09:19:29.999Z</time></trkpt><trkpt lat="43.63431982523954" lon="11.00574340450491"><ele>162.0</ele><time>2026-04-04T09:19:30.999Z</time></trkpt><trkpt lat="43.63416995473108" lon="11.005687643032084"><ele>166.0</ele><time>2026-04-04T09:19:31.999Z</time></trkpt><trkpt lat="43.634027994643105" lon="11.005600213994525"><ele>170.0</ele><time>2026-04-04T09:19:32.999Z</time></trkpt><trkpt lat="43.633886994166176" lon="11.005484068002572"><ele>170.0</ele><time>2026-04-04T09:19:33.999Z</time></trkpt><trkpt lat="43.63378350550648" lon="11.005322349801583"><ele>170.0</ele><time>2026-04-04T09:19:34.999Z</time></trkpt><trkpt lat="43.63367612557251" lon="11.005119453473089"><ele>170.0</ele><time>2026-04-04T09:19:35.999Z</time></trkpt><trkpt lat="43.63357727462449" lon="11.004881168547655"><ele>168.66666666666666</ele><time>2026-04-04T09:19:36.999Z</time></trkpt><trkpt lat="43.63351375373189" lon="11.004641735533239"><ele>167.33333333333334</ele><time>2026-04-04T09:19:37.999Z</time></trkpt><trkpt lat="43.633494574036064" lon="11.004407580617508"><ele>166.0</ele><time>2026-04-04T09:19:38.999Z</time></trkpt><trkpt lat="43.63350889890767" lon="11.00416133243957"><ele>165.33333333333334</ele><time>2026-04-04T09:19:39.999Z</time></trkpt><trkpt lat="43.633527661554616" lon="11.00389230926888"><ele>164.66666666666666</ele><time>2026-04-04T09:19:40.999Z</time></trkpt><trkpt lat="43.63353563606561" lon="11.003611947253152"><ele>164.0</ele><time>2026-04-04T09:19:41.999Z</time></trkpt><trkpt lat="43.63352293511559" lon="11.003382191940892"><ele>163.66666666666666</ele><time>2026-04-04T09:19:42.999Z</time></trkpt><trkpt lat="43.633488653760644" lon="11.003131697147728"><ele>163.33333333333334</ele><time>2026-04-04T09:19:43.999Z</time></trkpt><trkpt lat="43.63338735772579" lon="11.00290032285526"><ele>163.0</ele><time>2026-04-04T09:19:44.999Z</time></trkpt><trkpt lat="43.63328091743315" lon="11.002667157038239"><ele>164.0</ele><time>2026-04-04T09:19:45.999Z</time></trkpt><trkpt lat="43.63314827302191" lon="11.002443030942498"><ele>165.0</ele><time>2026-04-04T09:19:46.999Z</time></trkpt><trkpt lat="43.63300098047411" lon="11.002204261475292"><ele>166.0</ele><time>2026-04-04T09:19:47.999Z</time></trkpt><trkpt lat="43.632893726373865" lon="11.001927217802947"><ele>162.33333333333334</ele><time>2026-04-04T09:19:48.999Z</time></trkpt><trkpt lat="43.63275657765939" lon="11.001684108748712"><ele>158.66666666666666</ele><time>2026-04-04T09:19:49.999Z</time></trkpt><trkpt lat="43.63262197220606" lon="11.001445083117217"><ele>155.0</ele><time>2026-04-04T09:19:50.999Z</time></trkpt><trkpt lat="43.63248606656564" lon="11.001203748515563"><ele>155.0</ele><time>2026-04-04T09:19:51.999Z</time></trkpt><trkpt lat="43.63234552305147" lon="11.000954177341104"><ele>155.0</ele><time>2026-04-04T09:19:52.999Z</time></trkpt><trkpt lat="43.63220809163951" lon="11.000708770179505"><ele>153.66666666666666</ele><time>2026-04-04T09:19:53.999Z</time></trkpt><trkpt lat="43.63207632486466" lon="11.000473702569364"><ele>152.33333333333334</ele><time>2026-04-04T09:19:54.999Z</time></trkpt><trkpt lat="43.6319485541756" lon="11.000245906380227"><ele>151.0</ele><time>2026-04-04T09:19:55.999Z</time></trkpt><trkpt lat="43.63182227322746" lon="11.000020766231216"><ele>149.66666666666669</ele><time>2026-04-04T09:19:56.999Z</time></trkpt><trkpt lat="43.63169459637807" lon="10.999791415418635"><ele>148.33333333333334</ele><time>2026-04-04T09:19:57.999Z</time></trkpt><trkpt lat="43.63156793818954" lon="10.999551054030235"><ele>147.0</ele><time>2026-04-04T09:19:58.999Z</time></trkpt><trkpt lat="43.63145191590767" lon="10.99930083443362"><ele>148.0</ele><time>2026-04-04T09:19:59.999Z</time></trkpt><trkpt lat="43.631342717407435" lon="10.9990184773211"><ele>149.0</ele><time>2026-04-04T09:20:00.999Z</time></trkpt><trkpt lat="43.631242149746505" lon="10.998717357662407"><ele>146.5</ele><time>2026-04-04T09:20:01.999Z</time></trkpt><trkpt lat="43.63114001245502" lon="10.998398732532957"><ele>144.0</ele><time>2026-04-04T09:20:02.999Z</time></trkpt><trkpt lat="43.63104419874083" lon="10.99809948454013"><ele>144.0</ele><time>2026-04-04T09:20:03.999Z</time></trkpt><trkpt lat="43.630959124733565" lon="10.997829840179449"><ele>144.0</ele><time>2026-04-04T09:20:04.999Z</time></trkpt><trkpt lat="43.63087603924667" lon="10.99756719148356"><ele>144.0</ele><time>2026-04-04T09:20:05.999Z</time></trkpt><trkpt lat="43.63077706464613" lon="10.997308665496885"><ele>143.5</ele><time>2026-04-04T09:20:06.999Z</time></trkpt><trkpt lat="43.63064381470251" lon="10.997061112501836"><ele>143.0</ele><time>2026-04-04T09:20:07.999Z</time></trkpt><trkpt lat="43.630476367377156" lon="10.996829466108338"><ele>142.0</ele><time>2026-04-04T09:20:08.999Z</time></trkpt><trkpt lat="43.63030452610797" lon="10.996604407635278"><ele>141.0</ele><time>2026-04-04T09:20:09.999Z</time></trkpt><trkpt lat="43.63012857735483" lon="10.99637400881577"><ele>141.0</ele><time>2026-04-04T09:20:10.999Z</time></trkpt><trkpt lat="43.62995681514016" lon="10.996147915783299"><ele>141.0</ele><time>2026-04-04T09:20:11.999Z</time></trkpt><trkpt lat="43.62979757710876" lon="10.995935915027975"><ele>142.0</ele><time>2026-04-04T09:20:12.999Z</time></trkpt><trkpt lat="43.62964652904807" lon="10.995734843260916"><ele>143.0</ele><time>2026-04-04T09:20:13.999Z</time></trkpt><trkpt lat="43.629502160399525" lon="10.99554267597022"><ele>144.0</ele><time>2026-04-04T09:20:14.999Z</time></trkpt><trkpt lat="43.629351292271146" lon="10.99533807031099"><ele>144.0</ele><time>2026-04-04T09:20:15.999Z</time></trkpt><trkpt lat="43.62921601281989" lon="10.99512514087074"><ele>144.0</ele><time>2026-04-04T09:20:16.999Z</time></trkpt><trkpt lat="43.62908423087507" lon="10.9948768455469"><ele>144.0</ele><time>2026-04-04T09:20:17.999Z</time></trkpt><trkpt lat="43.6289554591697" lon="10.99462976480678"><ele>144.33333333333334</ele><time>2026-04-04T09:20:18.999Z</time></trkpt><trkpt lat="43.628834222739236" lon="10.994397143045488"><ele>144.66666666666669</ele><time>2026-04-04T09:20:19.999Z</time></trkpt><trkpt lat="43.62872134642665" lon="10.994180562055188"><ele>145.0</ele><time>2026-04-04T09:20:20.999Z</time></trkpt><trkpt lat="43.628617213128514" lon="10.993966897209342"><ele>143.33333333333334</ele><time>2026-04-04T09:20:21.999Z</time></trkpt><trkpt lat="43.62852293558209" lon="10.993742755192526"><ele>141.66666666666666</ele><time>2026-04-04T09:20:22.999Z</time></trkpt><trkpt lat="43.62844229709737" lon="10.993495158736565"><ele>140.0</ele><time>2026-04-04T09:20:23.999Z</time></trkpt><trkpt lat="43.628372898024274" lon="10.993217112171532"><ele>140.0</ele><time>2026-04-04T09:20:24.999Z</time></trkpt><trkpt lat="43.62831651896196" lon="10.992925538083227"><ele>140.0</ele><time>2026-04-04T09:20:25.999Z</time></trkpt><trkpt lat="43.628260544177216" lon="10.992618039986127"><ele>140.0</ele><time>2026-04-04T09:20:26.999Z</time></trkpt><trkpt lat="43.628202148400064" lon="10.992294316348806"><ele>139.0</ele><time>2026-04-04T09:20:27.999Z</time></trkpt><trkpt lat="43.62814481792273" lon="10.991973316123495"><ele>138.0</ele><time>2026-04-04T09:20:28.999Z</time></trkpt><trkpt lat="43.62809275513625" lon="10.99168421303272"><ele>137.33333333333334</ele><time>2026-04-04T09:20:29.999Z</time></trkpt><trkpt lat="43.628048207456686" lon="10.991422557994934"><ele>136.66666666666669</ele><time>2026-04-04T09:20:30.999Z</time></trkpt><trkpt lat="43.627992112592615" lon="10.991178775486341"><ele>136.0</ele><time>2026-04-04T09:20:31.999Z</time></trkpt><trkpt lat="43.627892266533955" lon="10.9909714392121"><ele>134.0</ele><time>2026-04-04T09:20:32.999Z</time></trkpt><trkpt lat="43.62778686386004" lon="10.990760133923436"><ele>132.0</ele><time>2026-04-04T09:20:33.999Z</time></trkpt><trkpt lat="43.62762321324519" lon="10.990586857387314"><ele>130.0</ele><time>2026-04-04T09:20:34.999Z</time></trkpt><trkpt lat="43.627446406797134" lon="10.990448024081363"><ele>130.0</ele><time>2026-04-04T09:20:35.999Z</time></trkpt><trkpt lat="43.627273204184355" lon="10.990311618331054"><ele>130.0</ele><time>2026-04-04T09:20:36.999Z</time></trkpt><trkpt lat="43.62710832073468" lon="10.990181836727006"><ele>130.0</ele><time>2026-04-04T09:20:37.999Z</time></trkpt><trkpt lat="43.62694355797208" lon="10.990054614743567"><ele>128.33333333333334</ele><time>2026-04-04T09:20:38.999Z</time></trkpt><trkpt lat="43.62678644390005" lon="10.98994562620881"><ele>126.66666666666666</ele><time>2026-04-04T09:20:39.999Z</time></trkpt><trkpt lat="43.62661558024774" lon="10.989869406890543"><ele>125.0</ele><time>2026-04-04T09:20:40.999Z</time></trkpt><trkpt lat="43.62641828397833" lon="10.989846906163743"><ele>125.0</ele><time>2026-04-04T09:20:41.999Z</time></trkpt><trkpt lat="43.626194656688796" lon="10.98985232100888"><ele>125.0</ele><time>2026-04-04T09:20:42.999Z</time></trkpt><trkpt lat="43.625962223208674" lon="10.989864124855949"><ele>124.0</ele><time>2026-04-04T09:20:43.999Z</time></trkpt><trkpt lat="43.62573991258664" lon="10.989877548276777"><ele>123.0</ele><time>2026-04-04T09:20:44.999Z</time></trkpt><trkpt lat="43.62554936095888" lon="10.989885920781747"><ele>122.0</ele><time>2026-04-04T09:20:45.999Z</time></trkpt><trkpt lat="43.625376873493636" lon="10.989888184005194"><ele>122.0</ele><time>2026-04-04T09:20:46.999Z</time></trkpt><trkpt lat="43.6252150702489" lon="10.989881300852598"><ele>122.0</ele><time>2026-04-04T09:20:47.999Z</time></trkpt><trkpt lat="43.62505627202326" lon="10.989852421860425"><ele>122.0</ele><time>2026-04-04T09:20:48.999Z</time></trkpt><trkpt lat="43.62488610521842" lon="10.989792844060743"><ele>122.0</ele><time>2026-04-04T09:20:49.999Z</time></trkpt><trkpt lat="43.62470510094187" lon="10.989690221255891"><ele>122.0</ele><time>2026-04-04T09:20:50.999Z</time></trkpt><trkpt lat="43.6245268616536" lon="10.989557862628663"><ele>122.0</ele><time>2026-04-04T09:20:51.999Z</time></trkpt><trkpt lat="43.62436386729502" lon="10.98940280871794"><ele>119.66666666666666</ele><time>2026-04-04T09:20:52.999Z</time></trkpt><trkpt lat="43.624223314461275" lon="10.989234832149611"><ele>117.33333333333334</ele><time>2026-04-04T09:20:53.999Z</time></trkpt><trkpt lat="43.624088342041546" lon="10.989055230718241"><ele>115.0</ele><time>2026-04-04T09:20:54.999Z</time></trkpt><trkpt lat="43.62392982053796" lon="10.988844602914225"><ele>115.0</ele><time>2026-04-04T09:20:55.999Z</time></trkpt><trkpt lat="43.62379207674787" lon="10.988661543290267"><ele>115.0</ele><time>2026-04-04T09:20:56.999Z</time></trkpt><trkpt lat="43.62366464673123" lon="10.988498523959183"><ele>115.0</ele><time>2026-04-04T09:20:57.999Z</time></trkpt><trkpt lat="43.623452343491095" lon="10.988488572185796"><ele>114.66666666666667</ele><time>2026-04-04T09:20:58.999Z</time></trkpt><trkpt lat="43.62326836117827" lon="10.988461516093288"><ele>114.33333333333334</ele><time>2026-04-04T09:20:59.999Z</time></trkpt><trkpt lat="43.62305917357519" lon="10.98845496523788"><ele>114.0</ele><time>2026-04-04T09:21:00.999Z</time></trkpt><trkpt lat="43.62283264483439" lon="10.988439294709629"><ele>117.5</ele><time>2026-04-04T09:21:01.999Z</time></trkpt><trkpt lat="43.622585443070165" lon="10.988421789383422"><ele>121.0</ele><time>2026-04-04T09:21:02.999Z</time></trkpt><trkpt lat="43.62233496442806" lon="10.988398986980014"><ele>121.0</ele><time>2026-04-04T09:21:03.999Z</time></trkpt><trkpt lat="43.62210494212766" lon="10.988376319546045"><ele>121.0</ele><time>2026-04-04T09:21:04.999Z</time></trkpt><trkpt lat="43.62189215690532" lon="10.988357018295229"><ele>121.0</ele><time>2026-04-04T09:21:05.999Z</time></trkpt><trkpt lat="43.62168787045862" lon="10.988339345053946"><ele>120.66666666666667</ele><time>2026-04-04T09:21:06.999Z</time></trkpt><trkpt lat="43.62149534503939" lon="10.98831366864187"><ele>120.33333333333334</ele><time>2026-04-04T09:21:07.999Z</time></trkpt><trkpt lat="43.62131193261921" lon="10.988262690726666"><ele>120.0</ele><time>2026-04-04T09:21:08.999Z</time></trkpt><trkpt lat="43.62112404823709" lon="10.988173190717475"><ele>121.66666666666666</ele><time>2026-04-04T09:21:09.999Z</time></trkpt><trkpt lat="43.620946718219926" lon="10.988038203875863"><ele>123.33333333333333</ele><time>2026-04-04T09:21:10.999Z</time></trkpt><trkpt lat="43.62077659339931" lon="10.987842654894047"><ele>125.0</ele><time>2026-04-04T09:21:11.999Z</time></trkpt><trkpt lat="43.6206155592057" lon="10.987593828144675"><ele>124.0</ele><time>2026-04-04T09:21:12.999Z</time></trkpt><trkpt lat="43.62045914556707" lon="10.98732160574839"><ele>123.0</ele><time>2026-04-04T09:21:13.999Z</time></trkpt><trkpt lat="43.62029446108274" lon="10.987045625589117"><ele>123.0</ele><time>2026-04-04T09:21:14.999Z</time></trkpt><trkpt lat="43.62013096815344" lon="10.986793028495704"><ele>123.0</ele><time>2026-04-04T09:21:15.999Z</time></trkpt><trkpt lat="43.619978701055125" lon="10.986568439104108"><ele>122.0</ele><time>2026-04-04T09:21:16.999Z</time></trkpt><trkpt lat="43.61984633319236" lon="10.986366772032973"><ele>121.0</ele><time>2026-04-04T09:21:17.999Z</time></trkpt><trkpt lat="43.61973466005306" lon="10.986199049853502"><ele>120.0</ele><time>2026-04-04T09:21:18.999Z</time></trkpt><trkpt lat="43.61964361849592" lon="10.986068943411698"><ele>120.0</ele><time>2026-04-04T09:21:19.999Z</time></trkpt><trkpt lat="43.61956122317046" lon="10.98596991864384"><ele>120.0</ele><time>2026-04-04T09:21:20.999Z</time></trkpt><trkpt lat="43.619487536799404" lon="10.985893961122828"><ele>120.0</ele><time>2026-04-04T09:21:21.999Z</time></trkpt><trkpt lat="43.61941295277908" lon="10.985821745280758"><ele>120.0</ele><time>2026-04-04T09:21:22.999Z</time></trkpt><trkpt lat="43.61933959795466" lon="10.985757052689603"><ele>120.0</ele><time>2026-04-04T09:21:23.999Z</time></trkpt><trkpt lat="43.61927179807977" lon="10.985693107147934"><ele>119.66666666666667</ele><time>2026-04-04T09:21:24.999Z</time></trkpt><trkpt lat="43.619211461556" lon="10.985632805075419"><ele>119.33333333333334</ele><time>2026-04-04T09:21:25.999Z</time></trkpt><trkpt lat="43.61915413177908" lon="10.985581239765592"><ele>119.0</ele><time>2026-04-04T09:21:26.999Z</time></trkpt><trkpt lat="43.61909956597718" lon="10.985531579112806"><ele>118.66666666666667</ele><time>2026-04-04T09:21:27.999Z</time></trkpt><trkpt lat="43.61900701005608" lon="10.985448754776558"><ele>118.33333333333334</ele><time>2026-04-04T09:21:29.999Z</time></trkpt><trkpt lat="43.61891455874959" lon="10.985380528286832"><ele>118.0</ele><time>2026-04-04T09:21:31.999Z</time></trkpt><trkpt lat="43.61885421686383" lon="10.985327951338117"><ele>118.00000000000001</ele><time>2026-04-04T09:21:32.999Z</time></trkpt><trkpt lat="43.61879050130647" lon="10.985274180187812"><ele>118.0</ele><time>2026-04-04T09:21:33.999Z</time></trkpt><trkpt lat="43.61872881150078" lon="10.985227073428579"><ele>118.0</ele><time>2026-04-04T09:21:34.999Z</time></trkpt><trkpt lat="43.618665376932555" lon="10.9851713089814"><ele>118.0</ele><time>2026-04-04T09:21:35.999Z</time></trkpt><trkpt lat="43.61858866152267" lon="10.985113944831296"><ele>118.00000000000001</ele><time>2026-04-04T09:21:36.999Z</time></trkpt><trkpt lat="43.61850930578726" lon="10.98505120696669"><ele>118.0</ele><time>2026-04-04T09:21:37.999Z</time></trkpt><trkpt lat="43.618424576779276" lon="10.984981533546923"><ele>119.0</ele><time>2026-04-04T09:21:38.999Z</time></trkpt><trkpt lat="43.618327545581685" lon="10.984913476513508"><ele>120.00000000000001</ele><time>2026-04-04T09:21:39.999Z</time></trkpt><trkpt lat="43.618222795179456" lon="10.984845919107421"><ele>121.00000000000001</ele><time>2026-04-04T09:21:40.999Z</time></trkpt><trkpt lat="43.618119105857325" lon="10.98479457683868"><ele>122.0</ele><time>2026-04-04T09:21:41.999Z</time></trkpt><trkpt lat="43.618014150589985" lon="10.984756428740882"><ele>123.0</ele><time>2026-04-04T09:21:42.999Z</time></trkpt><trkpt lat="43.617914829546606" lon="10.984728110964165"><ele>123.0</ele><time>2026-04-04T09:21:43.999Z</time></trkpt><trkpt lat="43.61783962808293" lon="10.98470466116026"><ele>123.0</ele><time>2026-04-04T09:21:44.999Z</time></trkpt><trkpt lat="43.61777159645195" lon="10.984688692564575"><ele>123.0</ele><time>2026-04-04T09:21:45.999Z</time></trkpt><trkpt lat="43.6176564893203" lon="10.984655318480078"><ele>123.0</ele><time>2026-04-04T09:21:47.999Z</time></trkpt><trkpt lat="43.61758768532773" lon="10.984641070388454"><ele>123.0</ele><time>2026-04-04T09:21:48.999Z</time></trkpt><trkpt lat="43.6174945481212" lon="10.984606995046676"><ele>123.0</ele><time>2026-04-04T09:21:49.999Z</time></trkpt><trkpt lat="43.61738793897461" lon="10.984564062387813"><ele>123.25</ele><time>2026-04-04T09:21:50.999Z</time></trkpt><trkpt lat="43.61726089269401" lon="10.984512161593743"><ele>123.5</ele><time>2026-04-04T09:21:51.999Z</time></trkpt><trkpt lat="43.6171445903365" lon="10.98439741582946"><ele>123.75</ele><time>2026-04-04T09:21:52.999Z</time></trkpt><trkpt lat="43.617003014658735" lon="10.984327029493956"><ele>124.0</ele><time>2026-04-04T09:21:53.999Z</time></trkpt><trkpt lat="43.6168566840616" lon="10.984245597628673"><ele>126.5</ele><time>2026-04-04T09:21:54.999Z</time></trkpt><trkpt lat="43.61672303769718" lon="10.984160069734315"><ele>129.0</ele><time>2026-04-04T09:21:55.999Z</time></trkpt><trkpt lat="43.61660343807454" lon="10.984077970941657"><ele>131.5</ele><time>2026-04-04T09:21:56.999Z</time></trkpt><trkpt lat="43.6164778891907" lon="10.983989793082499"><ele>134.0</ele><time>2026-04-04T09:21:57.999Z</time></trkpt><trkpt lat="43.61633672678796" lon="10.983888799107046"><ele>134.0</ele><time>2026-04-04T09:21:58.999Z</time></trkpt><trkpt lat="43.6162048178817" lon="10.983794425487908"><ele>134.0</ele><time>2026-04-04T09:21:59.999Z</time></trkpt><trkpt lat="43.61608742543493" lon="10.983710321326335"><ele>134.0</ele><time>2026-04-04T09:22:00.999Z</time></trkpt><trkpt lat="43.61597453626429" lon="10.983629072157058"><ele>134.0</ele><time>2026-04-04T09:22:01.999Z</time></trkpt><trkpt lat="43.6158738268233" lon="10.983553540865021"><ele>133.5</ele><time>2026-04-04T09:22:02.999Z</time></trkpt><trkpt lat="43.61577867841184" lon="10.983478218933188"><ele>133.0</ele><time>2026-04-04T09:22:03.999Z</time></trkpt><trkpt lat="43.61568431197936" lon="10.983387221396926"><ele>132.5</ele><time>2026-04-04T09:22:04.999Z</time></trkpt><trkpt lat="43.615592690492576" lon="10.983280931486215"><ele>132.0</ele><time>2026-04-04T09:22:05.999Z</time></trkpt><trkpt lat="43.61550973339467" lon="10.983154961708788"><ele>132.75</ele><time>2026-04-04T09:22:06.999Z</time></trkpt><trkpt lat="43.615433488608886" lon="10.98302252630801"><ele>133.5</ele><time>2026-04-04T09:22:07.999Z</time></trkpt><trkpt lat="43.61536784520583" lon="10.982872076077307"><ele>134.25</ele><time>2026-04-04T09:22:08.999Z</time></trkpt><trkpt lat="43.615310384551265" lon="10.982709286397862"><ele>135.0</ele><time>2026-04-04T09:22:09.999Z</time></trkpt><trkpt lat="43.61526961927518" lon="10.982546179695458"><ele>135.25</ele><time>2026-04-04T09:22:10.999Z</time></trkpt><trkpt lat="43.61524032664296" lon="10.982382777279224"><ele>135.5</ele><time>2026-04-04T09:22:11.999Z</time></trkpt><trkpt lat="43.61522067026225" lon="10.98221674460116"><ele>135.75</ele><time>2026-04-04T09:22:12.999Z</time></trkpt><trkpt lat="43.61520680917158" lon="10.982050340419741"><ele>136.0</ele><time>2026-04-04T09:22:13.999Z</time></trkpt><trkpt lat="43.6151946827628" lon="10.981881903780756"><ele>136.0</ele><time>2026-04-04T09:22:14.999Z</time></trkpt><trkpt lat="43.615182407544985" lon="10.981713348182945"><ele>136.0</ele><time>2026-04-04T09:22:15.999Z</time></trkpt><trkpt lat="43.61516831064015" lon="10.981547801147853"><ele>136.0</ele><time>2026-04-04T09:22:16.999Z</time></trkpt><trkpt lat="43.61514719448088" lon="10.981382558484626"><ele>136.0</ele><time>2026-04-04T09:22:17.999Z</time></trkpt><trkpt lat="43.61511418552833" lon="10.981209157130385"><ele>135.5</ele><time>2026-04-04T09:22:18.999Z</time></trkpt><trkpt lat="43.61507126437464" lon="10.981047375793727"><ele>135.0</ele><time>2026-04-04T09:22:19.999Z</time></trkpt><trkpt lat="43.61501554803175" lon="10.980894438281384"><ele>134.5</ele><time>2026-04-04T09:22:20.999Z</time></trkpt><trkpt lat="43.614947026729936" lon="10.980745914859558"><ele>134.0</ele><time>2026-04-04T09:22:21.999Z</time></trkpt><trkpt lat="43.614854858693505" lon="10.980580643222455"><ele>131.66666666666666</ele><time>2026-04-04T09:22:22.999Z</time></trkpt><trkpt lat="43.614731525837705" lon="10.98041505252681"><ele>129.33333333333334</ele><time>2026-04-04T09:22:23.999Z</time></trkpt><trkpt lat="43.61459018519248" lon="10.980248190002927"><ele>127.0</ele><time>2026-04-04T09:22:24.999Z</time></trkpt><trkpt lat="43.61443403253876" lon="10.980074507868931"><ele>124.33333333333334</ele><time>2026-04-04T09:22:25.999Z</time></trkpt><trkpt lat="43.61427994027583" lon="10.979903117402072"><ele>121.66666666666666</ele><time>2026-04-04T09:22:26.999Z</time></trkpt><trkpt lat="43.6141203881928" lon="10.979725654228412"><ele>119.0</ele><time>2026-04-04T09:22:27.999Z</time></trkpt><trkpt lat="43.61397071894445" lon="10.979559183302113"><ele>119.0</ele><time>2026-04-04T09:22:28.999Z</time></trkpt><trkpt lat="43.61379129313479" lon="10.979458635967257"><ele>119.0</ele><time>2026-04-04T09:22:29.999Z</time></trkpt><trkpt lat="43.61365490671003" lon="10.979314415921385"><ele>119.0</ele><time>2026-04-04T09:22:30.999Z</time></trkpt><trkpt lat="43.613537668418154" lon="10.979180011100649"><ele>118.80000000000001</ele><time>2026-04-04T09:22:31.999Z</time></trkpt><trkpt lat="43.61344811484888" lon="10.9790699211458"><ele>118.60000000000001</ele><time>2026-04-04T09:22:32.999Z</time></trkpt><trkpt lat="43.61337327846965" lon="10.978972135550642"><ele>118.4</ele><time>2026-04-04T09:22:33.999Z</time></trkpt><trkpt lat="43.61330967650345" lon="10.978881494916422"><ele>118.2</ele><time>2026-04-04T09:22:34.999Z</time></trkpt><trkpt lat="43.613297212302115" lon="10.978742356261424"><ele>118.0</ele><time>2026-04-04T09:22:35.999Z</time></trkpt><trkpt lat="43.61324810063954" lon="10.978654833639235"><ele>118.00000000000001</ele><time>2026-04-04T09:22:36.999Z</time></trkpt><trkpt lat="43.61320693219696" lon="10.978574297522465"><ele>118.0</ele><time>2026-04-04T09:22:37.999Z</time></trkpt><trkpt lat="43.61317223456419" lon="10.978501617745964"><ele>118.0</ele><time>2026-04-04T09:22:38.999Z</time></trkpt><trkpt lat="43.61311668672862" lon="10.978369923420159"><ele>118.0</ele><time>2026-04-04T09:22:40.999Z</time></trkpt><trkpt lat="43.61307141236089" lon="10.978257342324564"><ele>118.00000000000001</ele><time>2026-04-04T09:22:42.999Z</time></trkpt><trkpt lat="43.61302858494334" lon="10.97814887275399"><ele>118.0</ele><time>2026-04-04T09:22:45.999Z</time></trkpt><trkpt lat="43.61297965540648" lon="10.97802494763476"><ele>117.50000000000001</ele><time>2026-04-04T09:22:48.999Z</time></trkpt><trkpt lat="43.612938402436775" lon="10.977920465097862"><ele>117.0</ele><time>2026-04-04T09:22:50.999Z</time></trkpt><trkpt lat="43.61289130552699" lon="10.977801182721523"><ele>116.5</ele><time>2026-04-04T09:22:52.999Z</time></trkpt><trkpt lat="43.61285354722474" lon="10.977706726916571"><ele>116.0</ele><time>2026-04-04T09:22:53.999Z</time></trkpt><trkpt lat="43.61281439411716" lon="10.97760833566762"><ele>115.50000000000001</ele><time>2026-04-04T09:22:54.999Z</time></trkpt><trkpt lat="43.61277026019131" lon="10.977499614960655"><ele>115.0</ele><time>2026-04-04T09:22:55.999Z</time></trkpt><trkpt lat="43.612722469317774" lon="10.977382503670672"><ele>116.2</ele><time>2026-04-04T09:22:56.999Z</time></trkpt><trkpt lat="43.61267546238384" lon="10.977267313400692"><ele>117.4</ele><time>2026-04-04T09:22:57.999Z</time></trkpt><trkpt lat="43.61263079366633" lon="10.977157852936752"><ele>118.6</ele><time>2026-04-04T09:22:58.999Z</time></trkpt><trkpt lat="43.612584201717695" lon="10.977047220756427"><ele>119.8</ele><time>2026-04-04T09:22:59.999Z</time></trkpt><trkpt lat="43.61252363969194" lon="10.976948839579176"><ele>121.0</ele><time>2026-04-04T09:23:00.999Z</time></trkpt><trkpt lat="43.61245517309485" lon="10.976779601234657"><ele>120.33333333333334</ele><time>2026-04-04T09:23:01.999Z</time></trkpt><trkpt lat="43.612338811074665" lon="10.976642910519422"><ele>119.66666666666666</ele><time>2026-04-04T09:23:02.999Z</time></trkpt><trkpt lat="43.61221224529531" lon="10.976468143509042"><ele>119.0</ele><time>2026-04-04T09:23:03.999Z</time></trkpt><trkpt lat="43.612078057450205" lon="10.976292021983683"><ele>118.33333333333333</ele><time>2026-04-04T09:23:04.999Z</time></trkpt><trkpt lat="43.61193679065115" lon="10.976120678265097"><ele>117.66666666666666</ele><time>2026-04-04T09:23:05.999Z</time></trkpt><trkpt lat="43.611795547734545" lon="10.975970648841283"><ele>117.0</ele><time>2026-04-04T09:23:06.999Z</time></trkpt><trkpt lat="43.61164022341149" lon="10.975825001867062"><ele>116.0</ele><time>2026-04-04T09:23:07.999Z</time></trkpt><trkpt lat="43.61146869030514" lon="10.975704386344177"><ele>115.0</ele><time>2026-04-04T09:23:08.999Z</time></trkpt><trkpt lat="43.61129955347107" lon="10.975608463482486"><ele>114.0</ele><time>2026-04-04T09:23:09.999Z</time></trkpt><trkpt lat="43.61115981246513" lon="10.975444260661934"><ele>111.66666666666666</ele><time>2026-04-04T09:23:10.999Z</time></trkpt><trkpt lat="43.61101274785958" lon="10.975341596297737"><ele>109.33333333333333</ele><time>2026-04-04T09:23:11.999Z</time></trkpt><trkpt lat="43.61087876946919" lon="10.975234309217788"><ele>107.0</ele><time>2026-04-04T09:23:12.999Z</time></trkpt><trkpt lat="43.610753646556866" lon="10.975102832478944"><ele>108.66666666666666</ele><time>2026-04-04T09:23:13.999Z</time></trkpt><trkpt lat="43.61061580048504" lon="10.974934059822766"><ele>110.33333333333334</ele><time>2026-04-04T09:23:14.999Z</time></trkpt><trkpt lat="43.61049313913499" lon="10.974737255137283"><ele>112.0</ele><time>2026-04-04T09:23:15.999Z</time></trkpt><trkpt lat="43.610361734304185" lon="10.974521223241819"><ele>111.0</ele><time>2026-04-04T09:23:16.999Z</time></trkpt><trkpt lat="43.610215546883936" lon="10.974332126872872"><ele>110.0</ele><time>2026-04-04T09:23:17.999Z</time></trkpt><trkpt lat="43.61003754960795" lon="10.974167701426378"><ele>109.0</ele><time>2026-04-04T09:23:18.999Z</time></trkpt><trkpt lat="43.60987294046094" lon="10.974035092738411"><ele>109.0</ele><time>2026-04-04T09:23:19.999Z</time></trkpt><trkpt lat="43.60973196089948" lon="10.973926432725714"><ele>109.0</ele><time>2026-04-04T09:23:20.999Z</time></trkpt><trkpt lat="43.60960729897761" lon="10.97383034953485"><ele>109.0</ele><time>2026-04-04T09:23:21.999Z</time></trkpt><trkpt lat="43.60950572724806" lon="10.973752063099132"><ele>109.0</ele><time>2026-04-04T09:23:22.999Z</time></trkpt><trkpt lat="43.60940669771445" lon="10.973672857819682"><ele>106.6</ele><time>2026-04-04T09:23:23.999Z</time></trkpt><trkpt lat="43.609318310425124" lon="10.97360119982583"><ele>104.2</ele><time>2026-04-04T09:23:24.999Z</time></trkpt><trkpt lat="43.60923616946613" lon="10.973531477071225"><ele>101.8</ele><time>2026-04-04T09:23:25.999Z</time></trkpt><trkpt lat="43.609168850145494" lon="10.973465751096752"><ele>99.39999999999999</ele><time>2026-04-04T09:23:26.999Z</time></trkpt><trkpt lat="43.60911624877362" lon="10.973399808098408"><ele>97.0</ele><time>2026-04-04T09:23:27.999Z</time></trkpt><trkpt lat="43.609050406710566" lon="10.973295675202047"><ele>97.0</ele><time>2026-04-04T09:23:29.999Z</time></trkpt><trkpt lat="43.60899654947692" lon="10.973227233668373"><ele>97.0</ele><time>2026-04-04T09:23:32.999Z</time></trkpt><trkpt lat="43.60887542670318" lon="10.97312613197359"><ele>97.0</ele><time>2026-04-04T09:23:34.999Z</time></trkpt><trkpt lat="43.60877154899559" lon="10.973102566500694"><ele>97.0</ele><time>2026-04-04T09:23:35.999Z</time></trkpt><trkpt lat="43.60866794685835" lon="10.973075501836654"><ele>97.0</ele><time>2026-04-04T09:23:36.999Z</time></trkpt><trkpt lat="43.608569028954044" lon="10.973036535404614"><ele>96.0</ele><time>2026-04-04T09:23:37.999Z</time></trkpt><trkpt lat="43.60848299969365" lon="10.972997956755883"><ele>95.0</ele><time>2026-04-04T09:23:38.999Z</time></trkpt><trkpt lat="43.60839807162113" lon="10.972959081226977"><ele>94.0</ele><time>2026-04-04T09:23:39.999Z</time></trkpt><trkpt lat="43.608316029646296" lon="10.972921115673472"><ele>93.0</ele><time>2026-04-04T09:23:40.999Z</time></trkpt><trkpt lat="43.60822751800315" lon="10.972879880152737"><ele>92.0</ele><time>2026-04-04T09:23:41.999Z</time></trkpt><trkpt lat="43.60813743012" lon="10.972837912059244"><ele>92.0</ele><time>2026-04-04T09:23:42.999Z</time></trkpt><trkpt lat="43.60804052628629" lon="10.972800134755879"><ele>92.0</ele><time>2026-04-04T09:23:43.999Z</time></trkpt><trkpt lat="43.60795115543059" lon="10.972775427819478"><ele>92.0</ele><time>2026-04-04T09:23:44.999Z</time></trkpt><trkpt lat="43.6078547241086" lon="10.97276649604038"><ele>92.0</ele><time>2026-04-04T09:23:45.999Z</time></trkpt><trkpt lat="43.60774967134232" lon="10.972769630025882"><ele>92.0</ele><time>2026-04-04T09:23:46.999Z</time></trkpt><trkpt lat="43.607636532511" lon="10.972820603409968"><ele>92.0</ele><time>2026-04-04T09:23:47.999Z</time></trkpt><trkpt lat="43.60753711054808" lon="10.972886776453574"><ele>92.0</ele><time>2026-04-04T09:23:48.999Z</time></trkpt><trkpt lat="43.607450415255336" lon="10.973007151360155"><ele>92.0</ele><time>2026-04-04T09:23:49.999Z</time></trkpt><trkpt lat="43.60736759672829" lon="10.97315545085232"><ele>92.0</ele><time>2026-04-04T09:23:50.999Z</time></trkpt><trkpt lat="43.60728732412088" lon="10.973299293285294"><ele>86.0</ele><time>2026-04-04T09:23:51.999Z</time></trkpt><trkpt lat="43.60718484412456" lon="10.973482340394309"><ele>80.0</ele><time>2026-04-04T09:23:52.999Z</time></trkpt><trkpt lat="43.60709179600336" lon="10.973653516574542"><ele>74.0</ele><time>2026-04-04T09:23:53.999Z</time></trkpt><trkpt lat="43.60700824986867" lon="10.973820969321316"><ele>72.25</ele><time>2026-04-04T09:23:55Z</time></trkpt><trkpt lat="43.6069310584565" lon="10.9739954207236"><ele>70.5</ele><time>2026-04-04T09:23:56Z</time></trkpt><trkpt lat="43.60686115202007" lon="10.974176055507398"><ele>68.75</ele><time>2026-04-04T09:23:57Z</time></trkpt><trkpt lat="43.60679758681115" lon="10.974355899149778"><ele>67.0</ele><time>2026-04-04T09:23:58Z</time></trkpt><trkpt lat="43.606736690535435" lon="10.974545291642041"><ele>67.0</ele><time>2026-04-04T09:23:59Z</time></trkpt><trkpt lat="43.60667622890786" lon="10.974736432594204"><ele>67.0</ele><time>2026-04-04T09:24:00Z</time></trkpt><trkpt lat="43.60661515023073" lon="10.974933340812257"><ele>67.0</ele><time>2026-04-04T09:24:01Z</time></trkpt><trkpt lat="43.60655011699332" lon="10.975118291471986"><ele>64.75</ele><time>2026-04-04T09:24:02Z</time></trkpt><trkpt lat="43.60647230575099" lon="10.975300446317258"><ele>62.5</ele><time>2026-04-04T09:24:03Z</time></trkpt><trkpt lat="43.60638570569344" lon="10.975470499115653"><ele>60.25</ele><time>2026-04-04T09:24:04Z</time></trkpt><trkpt lat="43.606285250295976" lon="10.97561432773804"><ele>58.0</ele><time>2026-04-04T09:24:05Z</time></trkpt><trkpt lat="43.60617107968477" lon="10.975744013801197"><ele>57.5</ele><time>2026-04-04T09:24:06Z</time></trkpt><trkpt lat="43.606050742955716" lon="10.975845136749813"><ele>57.0</ele><time>2026-04-04T09:24:07Z</time></trkpt><trkpt lat="43.60592251547883" lon="10.975928685709297"><ele>56.5</ele><time>2026-04-04T09:24:08Z</time></trkpt><trkpt lat="43.60578817339752" lon="10.975974398396467"><ele>56.0</ele><time>2026-04-04T09:24:09Z</time></trkpt><trkpt lat="43.60564165868414" lon="10.97601333164098"><ele>54.66666666666667</ele><time>2026-04-04T09:24:10Z</time></trkpt><trkpt lat="43.60549055740477" lon="10.976027093611538"><ele>53.33333333333333</ele><time>2026-04-04T09:24:11Z</time></trkpt><trkpt lat="43.6053404428373" lon="10.976021766693263"><ele>52.0</ele><time>2026-04-04T09:24:12Z</time></trkpt><trkpt lat="43.6051924328529" lon="10.976006049307747"><ele>51.75</ele><time>2026-04-04T09:24:13Z</time></trkpt><trkpt lat="43.60505721936779" lon="10.975979478464602"><ele>51.5</ele><time>2026-04-04T09:24:14Z</time></trkpt><trkpt lat="43.60493394698808" lon="10.975949207433747"><ele>51.25</ele><time>2026-04-04T09:24:15Z</time></trkpt><trkpt lat="43.60481138488413" lon="10.975918751332047"><ele>51.0</ele><time>2026-04-04T09:24:16Z</time></trkpt><trkpt lat="43.604705122122546" lon="10.975891062728385"><ele>51.0</ele><time>2026-04-04T09:24:17Z</time></trkpt><trkpt lat="43.6045984306364" lon="10.975862729663708"><ele>51.0</ele><time>2026-04-04T09:24:18Z</time></trkpt><trkpt lat="43.604500077098265" lon="10.975836139330776"><ele>51.0</ele><time>2026-04-04T09:24:19Z</time></trkpt><trkpt lat="43.60440792834339" lon="10.975811226489157"><ele>51.0</ele><time>2026-04-04T09:24:20Z</time></trkpt><trkpt lat="43.60431663591966" lon="10.975786545159753"><ele>51.0</ele><time>2026-04-04T09:24:21Z</time></trkpt><trkpt lat="43.60422998700733" lon="10.975762984306622"><ele>51.166666666666664</ele><time>2026-04-04T09:24:22Z</time></trkpt><trkpt lat="43.604152463496675" lon="10.975741727858717"><ele>51.33333333333333</ele><time>2026-04-04T09:24:23Z</time></trkpt><trkpt lat="43.60408094753364" lon="10.975722118642961"><ele>51.5</ele><time>2026-04-04T09:24:24Z</time></trkpt><trkpt lat="43.60401538301426" lon="10.975704141273656"><ele>51.666666666666664</ele><time>2026-04-04T09:24:25Z</time></trkpt><trkpt lat="43.60390828485105" lon="10.975674775646976"><ele>51.83333333333333</ele><time>2026-04-04T09:24:27Z</time></trkpt><trkpt lat="43.603823153387914" lon="10.97565143314861"><ele>52.0</ele><time>2026-04-04T09:24:29Z</time></trkpt><trkpt lat="43.603725774356214" lon="10.975624958162797"><ele>52.0</ele><time>2026-04-04T09:24:31Z</time></trkpt><trkpt lat="43.60360739929664" lon="10.975596501573758"><ele>52.0</ele><time>2026-04-04T09:24:33Z</time></trkpt><trkpt lat="43.60354007852389" lon="10.975580069330354"><ele>52.0</ele><time>2026-04-04T09:24:34Z</time></trkpt><trkpt lat="43.60346100982695" lon="10.975560769550123"><ele>52.0</ele><time>2026-04-04T09:24:35Z</time></trkpt><trkpt lat="43.60336275782164" lon="10.975536787335308"><ele>52.0</ele><time>2026-04-04T09:24:35.999Z</time></trkpt><trkpt lat="43.6032484056788" lon="10.975506899681283"><ele>52.0</ele><time>2026-04-04T09:24:36.999Z</time></trkpt><trkpt lat="43.603112366088574" lon="10.975471853713438"><ele>52.0</ele><time>2026-04-04T09:24:37.999Z</time></trkpt><trkpt lat="43.6029622797452" lon="10.975433039434785"><ele>52.0</ele><time>2026-04-04T09:24:38.999Z</time></trkpt><trkpt lat="43.602790087638304" lon="10.975385575252405"><ele>53.0</ele><time>2026-04-04T09:24:39.999Z</time></trkpt><trkpt lat="43.602607129138924" lon="10.975333852202054"><ele>54.0</ele><time>2026-04-04T09:24:40.999Z</time></trkpt><trkpt lat="43.60242267095521" lon="10.97528372792736"><ele>55.0</ele><time>2026-04-04T09:24:41.999Z</time></trkpt><trkpt lat="43.60224676736846" lon="10.975235931236178"><ele>55.0</ele><time>2026-04-04T09:24:42.999Z</time></trkpt><trkpt lat="43.60207828609872" lon="10.97519015134516"><ele>55.0</ele><time>2026-04-04T09:24:43.999Z</time></trkpt><trkpt lat="43.6019144963195" lon="10.975144793091868"><ele>55.0</ele><time>2026-04-04T09:24:44.999Z</time></trkpt><trkpt lat="43.60175001936802" lon="10.975098676620597"><ele>54.0</ele><time>2026-04-04T09:24:45.999Z</time></trkpt><trkpt lat="43.601587560720155" lon="10.975055182875069"><ele>53.0</ele><time>2026-04-04T09:24:46.999Z</time></trkpt><trkpt lat="43.60142494787345" lon="10.975011647846877"><ele>52.0</ele><time>2026-04-04T09:24:47.999Z</time></trkpt><trkpt lat="43.60126663236634" lon="10.974969263308253"><ele>52.666666666666664</ele><time>2026-04-04T09:24:48.999Z</time></trkpt><trkpt lat="43.60111730923228" lon="10.974929286226939"><ele>53.33333333333333</ele><time>2026-04-04T09:24:49.999Z</time></trkpt><trkpt lat="43.60096009964554" lon="10.974890159397665"><ele>54.0</ele><time>2026-04-04T09:24:50.999Z</time></trkpt><trkpt lat="43.6007961734024" lon="10.974855882130392"><ele>54.0</ele><time>2026-04-04T09:24:51.999Z</time></trkpt><trkpt lat="43.60062915741149" lon="10.974828497434741"><ele>54.0</ele><time>2026-04-04T09:24:52.999Z</time></trkpt><trkpt lat="43.60045373052017" lon="10.974807684906013"><ele>54.0</ele><time>2026-04-04T09:24:53.999Z</time></trkpt><trkpt lat="43.600277265425824" lon="10.974789511022541"><ele>56.33333333333333</ele><time>2026-04-04T09:24:54.999Z</time></trkpt><trkpt lat="43.60011339405252" lon="10.974770556252466"><ele>58.666666666666664</ele><time>2026-04-04T09:24:55.999Z</time></trkpt><trkpt lat="43.59996142855493" lon="10.974753190152668"><ele>61.0</ele><time>2026-04-04T09:24:56.999Z</time></trkpt><trkpt lat="43.599814099665096" lon="10.974736600175461"><ele>61.0</ele><time>2026-04-04T09:24:57.999Z</time></trkpt><trkpt lat="43.5996647220211" lon="10.974716936933268"><ele>61.0</ele><time>2026-04-04T09:24:58.999Z</time></trkpt><trkpt lat="43.599523787107906" lon="10.974697933927148"><ele>61.0</ele><time>2026-04-04T09:24:59.999Z</time></trkpt><trkpt lat="43.59938962615191" lon="10.974676252884963"><ele>61.0</ele><time>2026-04-04T09:25:00.999Z</time></trkpt><trkpt lat="43.599264618316155" lon="10.974653209295772"><ele>60.5</ele><time>2026-04-04T09:25:01.999Z</time></trkpt><trkpt lat="43.59915998918455" lon="10.974631498421358"><ele>60.0</ele><time>2026-04-04T09:25:02.999Z</time></trkpt><trkpt lat="43.59904066567783" lon="10.974605959293173"><ele>59.5</ele><time>2026-04-04T09:25:03.999Z</time></trkpt><trkpt lat="43.59889851247158" lon="10.97456990982654"><ele>59.0</ele><time>2026-04-04T09:25:04.999Z</time></trkpt><trkpt lat="43.59874418928704" lon="10.974521065703733"><ele>59.25</ele><time>2026-04-04T09:25:05.999Z</time></trkpt><trkpt lat="43.59859650775995" lon="10.974460996951825"><ele>59.5</ele><time>2026-04-04T09:25:06.999Z</time></trkpt><trkpt lat="43.59845954678197" lon="10.974395399378006"><ele>59.75</ele><time>2026-04-04T09:25:07.999Z</time></trkpt><trkpt lat="43.598327135464714" lon="10.974312447632943"><ele>60.0</ele><time>2026-04-04T09:25:08.999Z</time></trkpt><trkpt lat="43.598196314007" lon="10.974214494340776"><ele>59.0</ele><time>2026-04-04T09:25:09.999Z</time></trkpt><trkpt lat="43.598062589443266" lon="10.9740996253716"><ele>58.0</ele><time>2026-04-04T09:25:10.999Z</time></trkpt><trkpt lat="43.5979289805678" lon="10.973967063971285"><ele>57.0</ele><time>2026-04-04T09:25:11.999Z</time></trkpt><trkpt lat="43.597791336952895" lon="10.973823712871"><ele>56.0</ele><time>2026-04-04T09:25:12.999Z</time></trkpt><trkpt lat="43.59766274865687" lon="10.97368720253664"><ele>55.0</ele><time>2026-04-04T09:25:13.999Z</time></trkpt><trkpt lat="43.59754063401911" lon="10.973555823404164"><ele>54.0</ele><time>2026-04-04T09:25:14.999Z</time></trkpt><trkpt lat="43.597414727034696" lon="10.973420126545847"><ele>53.33333333333333</ele><time>2026-04-04T09:25:15.999Z</time></trkpt><trkpt lat="43.59728600089869" lon="10.97328076140523"><ele>52.666666666666664</ele><time>2026-04-04T09:25:16.999Z</time></trkpt><trkpt lat="43.597155841877395" lon="10.973142812677391"><ele>52.0</ele><time>2026-04-04T09:25:17.999Z</time></trkpt><trkpt lat="43.59702699915743" lon="10.973008487209063"><ele>51.33333333333333</ele><time>2026-04-04T09:25:18.999Z</time></trkpt><trkpt lat="43.59689830981638" lon="10.972876837690285"><ele>50.66666666666667</ele><time>2026-04-04T09:25:19.999Z</time></trkpt><trkpt lat="43.596764225765625" lon="10.972749100757746"><ele>50.0</ele><time>2026-04-04T09:25:20.999Z</time></trkpt><trkpt lat="43.59662522854454" lon="10.972632869225254"><ele>50.0</ele><time>2026-04-04T09:25:21.999Z</time></trkpt><trkpt lat="43.59648100015597" lon="10.972529043326771"><ele>50.0</ele><time>2026-04-04T09:25:22.999Z</time></trkpt><trkpt lat="43.59633842599217" lon="10.972443642224585"><ele>50.0</ele><time>2026-04-04T09:25:23.999Z</time></trkpt><trkpt lat="43.59618791676541" lon="10.972366132966988"><ele>50.66666666666667</ele><time>2026-04-04T09:25:24.999Z</time></trkpt><trkpt lat="43.596022274263596" lon="10.972302023819"><ele>51.33333333333333</ele><time>2026-04-04T09:25:25.999Z</time></trkpt><trkpt lat="43.595854709373334" lon="10.972252993775522"><ele>52.0</ele><time>2026-04-04T09:25:26.999Z</time></trkpt><trkpt lat="43.595685752082126" lon="10.972220925194211"><ele>52.0</ele><time>2026-04-04T09:25:27.999Z</time></trkpt><trkpt lat="43.59551450030227" lon="10.97219934061194"><ele>52.0</ele><time>2026-04-04T09:25:28.999Z</time></trkpt><trkpt lat="43.59534393129914" lon="10.97219238869874"><ele>52.0</ele><time>2026-04-04T09:25:29.999Z</time></trkpt><trkpt lat="43.59517707954997" lon="10.972197196442298"><ele>52.0</ele><time>2026-04-04T09:25:30.999Z</time></trkpt><trkpt lat="43.595011040625" lon="10.97220254578079"><ele>52.0</ele><time>2026-04-04T09:25:31.999Z</time></trkpt><trkpt lat="43.59484110752843" lon="10.972208099344169"><ele>52.0</ele><time>2026-04-04T09:25:32.999Z</time></trkpt><trkpt lat="43.5946708077467" lon="10.972213664891742"><ele>51.666666666666664</ele><time>2026-04-04T09:25:33.999Z</time></trkpt><trkpt lat="43.59450330822305" lon="10.972219190308206"><ele>51.33333333333333</ele><time>2026-04-04T09:25:34.999Z</time></trkpt><trkpt lat="43.594335423912604" lon="10.972224783557515"><ele>51.0</ele><time>2026-04-04T09:25:35.999Z</time></trkpt><trkpt lat="43.594171411269784" lon="10.972230247816906"><ele>51.0</ele><time>2026-04-04T09:25:36.999Z</time></trkpt><trkpt lat="43.594018125212195" lon="10.972235354709607"><ele>51.0</ele><time>2026-04-04T09:25:37.999Z</time></trkpt><trkpt lat="43.593879775847235" lon="10.972239963969209"><ele>51.0</ele><time>2026-04-04T09:25:38.999Z</time></trkpt><trkpt lat="43.5937456910973" lon="10.972244432937615"><ele>51.0</ele><time>2026-04-04T09:25:39.999Z</time></trkpt><trkpt lat="43.593626546042024" lon="10.972248402389688"><ele>50.8</ele><time>2026-04-04T09:25:40.999Z</time></trkpt><trkpt lat="43.5935142865672" lon="10.972253717111133"><ele>50.599999999999994</ele><time>2026-04-04T09:25:41.999Z</time></trkpt><trkpt lat="43.59341351394617" lon="10.972258610352482"><ele>50.4</ele><time>2026-04-04T09:25:42.999Z</time></trkpt><trkpt lat="43.593324224839854" lon="10.972262945969797"><ele>50.2</ele><time>2026-04-04T09:25:43.999Z</time></trkpt><trkpt lat="43.59323312566935" lon="10.972267369404438"><ele>50.0</ele><time>2026-04-04T09:25:44.999Z</time></trkpt><trkpt lat="43.59315901521118" lon="10.972253124776234"><ele>50.0</ele><time>2026-04-04T09:25:45.999Z</time></trkpt><trkpt lat="43.5930941347733" lon="10.97223421810797"><ele>50.0</ele><time>2026-04-04T09:25:46.999Z</time></trkpt><trkpt lat="43.59299765498663" lon="10.972202113552893"><ele>50.0</ele><time>2026-04-04T09:25:48.999Z</time></trkpt><trkpt lat="43.592935819281244" lon="10.972116757262288"><ele>50.0</ele><time>2026-04-04T09:25:50.999Z</time></trkpt><trkpt lat="43.59287859935762" lon="10.971945456384177"><ele>50.0</ele><time>2026-04-04T09:25:52.999Z</time></trkpt><trkpt lat="43.59286951214677" lon="10.971839508755831"><ele>50.0</ele><time>2026-04-04T09:25:53.999Z</time></trkpt><trkpt lat="43.5928668212515" lon="10.971719126049571"><ele>50.0</ele><time>2026-04-04T09:25:54.999Z</time></trkpt><trkpt lat="43.592874696791974" lon="10.971579860166496"><ele>50.0</ele><time>2026-04-04T09:25:55.999Z</time></trkpt><trkpt lat="43.592892682668065" lon="10.971432716828039"><ele>50.0</ele><time>2026-04-04T09:25:56.999Z</time></trkpt><trkpt lat="43.59290319966675" lon="10.971269697557638"><ele>50.0</ele><time>2026-04-04T09:25:57.999Z</time></trkpt><trkpt lat="43.592924071006216" lon="10.971102170005558"><ele>50.25</ele><time>2026-04-04T09:25:58.999Z</time></trkpt><trkpt lat="43.59294803124151" lon="10.97091225501076"><ele>50.5</ele><time>2026-04-04T09:25:59.999Z</time></trkpt><trkpt lat="43.592973277563246" lon="10.97071444495613"><ele>50.75</ele><time>2026-04-04T09:26:01Z</time></trkpt><trkpt lat="43.592998830266055" lon="10.970518575760822"><ele>51.0</ele><time>2026-04-04T09:26:02Z</time></trkpt><trkpt lat="43.593022980455665" lon="10.97035021576086"><ele>51.0</ele><time>2026-04-04T09:26:03Z</time></trkpt><trkpt lat="43.59304027455579" lon="10.97020134371965"><ele>51.0</ele><time>2026-04-04T09:26:04Z</time></trkpt><trkpt lat="43.59305484021089" lon="10.970067775138332"><ele>51.0</ele><time>2026-04-04T09:26:05Z</time></trkpt><trkpt lat="43.59306496041545" lon="10.969954396013229"><ele>51.0</ele><time>2026-04-04T09:26:06Z</time></trkpt><trkpt lat="43.59308019263648" lon="10.969863359342877"><ele>51.0</ele><time>2026-04-04T09:26:07Z</time></trkpt><trkpt lat="43.59300897653991" lon="10.969773280772516"><ele>51.0</ele><time>2026-04-04T09:26:08Z</time></trkpt><trkpt lat="43.59296362220022" lon="10.969627568124636"><ele>51.0</ele><time>2026-04-04T09:26:10Z</time></trkpt><trkpt lat="43.592975977701336" lon="10.969498255240334"><ele>51.0</ele><time>2026-04-04T09:26:12Z</time></trkpt><trkpt lat="43.59290882019645" lon="10.969445533037813"><ele>51.0</ele><time>2026-04-04T09:26:13Z</time></trkpt><trkpt lat="43.59288315540618" lon="10.969337339221603"><ele>51.0</ele><time>2026-04-04T09:26:15Z</time></trkpt><trkpt lat="43.59287652645482" lon="10.969241430266255"><ele>51.0</ele><time>2026-04-04T09:26:17Z</time></trkpt><trkpt lat="43.59301830643186" lon="10.96921612272736"><ele>50.8</ele><time>2026-04-04T09:26:19Z</time></trkpt><trkpt lat="43.59291978273683" lon="10.969129360765017"><ele>50.599999999999994</ele><time>2026-04-04T09:26:21Z</time></trkpt><trkpt lat="43.59297290935564" lon="10.969039206048539"><ele>50.4</ele><time>2026-04-04T09:26:24Z</time></trkpt><trkpt lat="43.59300393564925" lon="10.968929521207157"><ele>50.2</ele><time>2026-04-04T09:26:27Z</time></trkpt><trkpt lat="43.59303615836265" lon="10.96883370089607"><ele>50.0</ele><time>2026-04-04T09:26:29Z</time></trkpt><trkpt lat="43.59309851642228" lon="10.968946963968587"><ele>50.00000000000001</ele><time>2026-04-04T09:26:33Z</time></trkpt><trkpt lat="43.593057239552664" lon="10.969014460168518"><ele>50.0</ele><time>2026-04-04T09:26:36Z</time></trkpt><trkpt lat="43.59297353263394" lon="10.969060241730915"><ele>50.0</ele><time>2026-04-04T09:36:42Z</time></trkpt><trkpt lat="43.592990236391785" lon="10.969167151814208"><ele>50.0</ele><time>2026-04-04T09:36:44Z</time></trkpt><trkpt lat="43.592883923725246" lon="10.969188009731356"><ele>50.00000000000001</ele><time>2026-04-04T09:36:45Z</time></trkpt><trkpt lat="43.59285743332977" lon="10.96929659865077"><ele>50.0</ele><time>2026-04-04T09:36:46Z</time></trkpt><trkpt lat="43.59296767579414" lon="10.969465436938075"><ele>50.16666666666667</ele><time>2026-04-04T09:36:47Z</time></trkpt><trkpt lat="43.59296048093153" lon="10.969586345678447"><ele>50.333333333333336</ele><time>2026-04-04T09:36:48Z</time></trkpt><trkpt lat="43.5929552971533" lon="10.969683335245158"><ele>50.5</ele><time>2026-04-04T09:36:49Z</time></trkpt><trkpt lat="43.592976847012494" lon="10.969819168714057"><ele>50.66666666666667</ele><time>2026-04-04T09:36:51Z</time></trkpt><trkpt lat="43.59304232455278" lon="10.969861445417498"><ele>50.833333333333336</ele><time>2026-04-04T09:36:53Z</time></trkpt><trkpt lat="43.59302472308742" lon="10.969972149294588"><ele>51.0</ele><time>2026-04-04T09:36:55Z</time></trkpt><trkpt lat="43.5930045892607" lon="10.970162261128555"><ele>51.0</ele><time>2026-04-04T09:36:57Z</time></trkpt><trkpt lat="43.59298755296449" lon="10.970298653011966"><ele>51.0</ele><time>2026-04-04T09:36:58Z</time></trkpt><trkpt lat="43.592974257908956" lon="10.970438213409635"><ele>51.0</ele><time>2026-04-04T09:36:59Z</time></trkpt><trkpt lat="43.59296000992898" lon="10.970581252001264"><ele>51.0</ele><time>2026-04-04T09:37:00Z</time></trkpt><trkpt lat="43.59294217418335" lon="10.970726109691388"><ele>51.0</ele><time>2026-04-04T09:37:01Z</time></trkpt><trkpt lat="43.592923863879776" lon="10.970888563915375"><ele>51.0</ele><time>2026-04-04T09:37:02Z</time></trkpt><trkpt lat="43.59290307283657" lon="10.971050121232807"><ele>51.0</ele><time>2026-04-04T09:37:03Z</time></trkpt><trkpt lat="43.592883936314806" lon="10.971203382376947"><ele>51.0</ele><time>2026-04-04T09:37:04Z</time></trkpt><trkpt lat="43.59286967825381" lon="10.971335771603455"><ele>51.0</ele><time>2026-04-04T09:37:05Z</time></trkpt><trkpt lat="43.59285445379389" lon="10.971445270843063"><ele>51.0</ele><time>2026-04-04T09:37:06Z</time></trkpt><trkpt lat="43.59283979516197" lon="10.97154513709366"><ele>51.0</ele><time>2026-04-04T09:37:07Z</time></trkpt><trkpt lat="43.59283212357007" lon="10.971638268326217"><ele>51.0</ele><time>2026-04-04T09:37:08Z</time></trkpt><trkpt lat="43.59282187236735" lon="10.971737605412846"><ele>51.0</ele><time>2026-04-04T09:37:09Z</time></trkpt><trkpt lat="43.59279680342086" lon="10.971840109509047"><ele>51.0</ele><time>2026-04-04T09:37:10Z</time></trkpt><trkpt lat="43.5927506281359" lon="10.971962901495576"><ele>51.0</ele><time>2026-04-04T09:37:11Z</time></trkpt><trkpt lat="43.59268758702663" lon="10.972071596401754"><ele>51.0</ele><time>2026-04-04T09:37:12Z</time></trkpt><trkpt lat="43.59261532937459" lon="10.972175435292053"><ele>51.0</ele><time>2026-04-04T09:37:13Z</time></trkpt><trkpt lat="43.5925429688272" lon="10.972267504111265"><ele>51.0</ele><time>2026-04-04T09:37:14Z</time></trkpt><trkpt lat="43.592444925386765" lon="10.972262639583194"><ele>51.0</ele><time>2026-04-04T09:37:15Z</time></trkpt><trkpt lat="43.59235668990744" lon="10.97231356059509"><ele>51.0</ele><time>2026-04-04T09:37:16Z</time></trkpt><trkpt lat="43.59223760694332" lon="10.972255322210525"><ele>51.0</ele><time>2026-04-04T09:37:17Z</time></trkpt><trkpt lat="43.59209564714733" lon="10.972236735385364"><ele>50.75</ele><time>2026-04-04T09:37:18Z</time></trkpt><trkpt lat="43.59194834341913" lon="10.972217211572815"><ele>50.5</ele><time>2026-04-04T09:37:19Z</time></trkpt><trkpt lat="43.59181187696672" lon="10.972199961599745"><ele>50.25</ele><time>2026-04-04T09:37:20Z</time></trkpt><trkpt lat="43.59168582968999" lon="10.972184028656132"><ele>50.0</ele><time>2026-04-04T09:37:20.999Z</time></trkpt><trkpt lat="43.591569472002526" lon="10.972169320514388"><ele>50.0</ele><time>2026-04-04T09:37:21.999Z</time></trkpt><trkpt lat="43.591462783281266" lon="10.97215516691217"><ele>50.0</ele><time>2026-04-04T09:37:22.999Z</time></trkpt><trkpt lat="43.591359883657766" lon="10.972140586960442"><ele>50.0</ele><time>2026-04-04T09:37:23.999Z</time></trkpt><trkpt lat="43.59126331867102" lon="10.972124492787502"><ele>50.0</ele><time>2026-04-04T09:37:24.999Z</time></trkpt><trkpt lat="43.59117556909192" lon="10.972109867860473"><ele>50.0</ele><time>2026-04-04T09:37:25.999Z</time></trkpt><trkpt lat="43.59109437597926" lon="10.972096335682345"><ele>50.5</ele><time>2026-04-04T09:37:26.999Z</time></trkpt><trkpt lat="43.59101490133146" lon="10.972082006718514"><ele>51.0</ele><time>2026-04-04T09:37:27.999Z</time></trkpt><trkpt lat="43.59090925010551" lon="10.97206225194215"><ele>51.5</ele><time>2026-04-04T09:37:28.999Z</time></trkpt><trkpt lat="43.59078199043594" lon="10.972038456788693"><ele>52.0</ele><time>2026-04-04T09:37:29.999Z</time></trkpt><trkpt lat="43.59064786020514" lon="10.972012385244382"><ele>52.0</ele><time>2026-04-04T09:37:30.999Z</time></trkpt><trkpt lat="43.590508531133736" lon="10.971985176369495"><ele>52.0</ele><time>2026-04-04T09:37:31.999Z</time></trkpt><trkpt lat="43.59037962397094" lon="10.971955797155637"><ele>52.0</ele><time>2026-04-04T09:37:32.999Z</time></trkpt><trkpt lat="43.59026580462346" lon="10.971923890621454"><ele>52.0</ele><time>2026-04-04T09:37:33.999Z</time></trkpt><trkpt lat="43.590159852609325" lon="10.97189199246843"><ele>51.99999999999999</ele><time>2026-04-04T09:37:34.999Z</time></trkpt><trkpt lat="43.5900586053264" lon="10.971861510533104"><ele>52.0</ele><time>2026-04-04T09:37:35.999Z</time></trkpt><trkpt lat="43.589986661648645" lon="10.971803331970658"><ele>52.0</ele><time>2026-04-04T09:37:36.999Z</time></trkpt><trkpt lat="43.589909190056964" lon="10.971747011564107"><ele>52.0</ele><time>2026-04-04T09:37:37.999Z</time></trkpt><trkpt lat="43.589845486988125" lon="10.97167384905152"><ele>51.99999999999999</ele><time>2026-04-04T09:37:38.999Z</time></trkpt><trkpt lat="43.58977091051444" lon="10.971627238212319"><ele>52.0</ele><time>2026-04-04T09:37:39.999Z</time></trkpt><trkpt lat="43.58972884219023" lon="10.971516044949606"><ele>51.8</ele><time>2026-04-04T09:37:40.999Z</time></trkpt><trkpt lat="43.58966275401405" lon="10.97140210542788"><ele>51.6</ele><time>2026-04-04T09:37:41.999Z</time></trkpt><trkpt lat="43.58957477959681" lon="10.971328246288865"><ele>51.4</ele><time>2026-04-04T09:37:42.999Z</time></trkpt><trkpt lat="43.589476368753154" lon="10.971309938850418"><ele>51.199999999999996</ele><time>2026-04-04T09:37:43.999Z</time></trkpt><trkpt lat="43.589369931122405" lon="10.9713335349523"><ele>51.0</ele><time>2026-04-04T09:37:44.999Z</time></trkpt><trkpt lat="43.589265494115985" lon="10.971375094599916"><ele>51.5</ele><time>2026-04-04T09:37:45.999Z</time></trkpt><trkpt lat="43.58915846263004" lon="10.971316814543185"><ele>52.0</ele><time>2026-04-04T09:37:46.999Z</time></trkpt><trkpt lat="43.58904137934717" lon="10.971281708713933"><ele>52.5</ele><time>2026-04-04T09:37:47.999Z</time></trkpt><trkpt lat="43.588899814112615" lon="10.971265318087864"><ele>53.0</ele><time>2026-04-04T09:37:48.999Z</time></trkpt><trkpt lat="43.58879003860353" lon="10.97107762200978"><ele>53.333333333333336</ele><time>2026-04-04T09:37:49.999Z</time></trkpt><trkpt lat="43.588647327589854" lon="10.970940661090797"><ele>53.66666666666667</ele><time>2026-04-04T09:37:50.999Z</time></trkpt><trkpt lat="43.58850857661627" lon="10.970802077560865"><ele>54.0</ele><time>2026-04-04T09:37:51.999Z</time></trkpt><trkpt lat="43.58836646034233" lon="10.970656891608504"><ele>54.0</ele><time>2026-04-04T09:37:52.999Z</time></trkpt><trkpt lat="43.58820695622289" lon="10.970500191465979"><ele>54.0</ele><time>2026-04-04T09:37:53.999Z</time></trkpt><trkpt lat="43.58803680205546" lon="10.970334565970232"><ele>54.0</ele><time>2026-04-04T09:37:54.999Z</time></trkpt><trkpt lat="43.58787099098295" lon="10.970164749704209"><ele>55.33333333333333</ele><time>2026-04-04T09:37:55.999Z</time></trkpt><trkpt lat="43.58770602428003" lon="10.969986494282827"><ele>56.666666666666664</ele><time>2026-04-04T09:37:56.999Z</time></trkpt><trkpt lat="43.587543677364685" lon="10.969811069806001"><ele>58.0</ele><time>2026-04-04T09:37:57.999Z</time></trkpt><trkpt lat="43.5873932097468" lon="10.969647588732627"><ele>58.0</ele><time>2026-04-04T09:37:58.999Z</time></trkpt><trkpt lat="43.587248508803356" lon="10.96948953388324"><ele>58.0</ele><time>2026-04-04T09:37:59.999Z</time></trkpt><trkpt lat="43.5871049755564" lon="10.969332754479305"><ele>58.0</ele><time>2026-04-04T09:38:00.999Z</time></trkpt><trkpt lat="43.58696154704029" lon="10.9691758845906"><ele>56.666666666666664</ele><time>2026-04-04T09:38:01.999Z</time></trkpt><trkpt lat="43.58682999707197" lon="10.969030246547028"><ele>55.33333333333333</ele><time>2026-04-04T09:38:02.999Z</time></trkpt><trkpt lat="43.58670792569521" lon="10.968892424085489"><ele>54.0</ele><time>2026-04-04T09:38:03.999Z</time></trkpt><trkpt lat="43.586585694825544" lon="10.968778476710694"><ele>54.0</ele><time>2026-04-04T09:38:04.999Z</time></trkpt><trkpt lat="43.58648537980579" lon="10.968666213641102"><ele>54.00000000000001</ele><time>2026-04-04T09:38:05.999Z</time></trkpt><trkpt lat="43.58640083223851" lon="10.968571074486936"><ele>54.00000000000001</ele><time>2026-04-04T09:38:06.999Z</time></trkpt><trkpt lat="43.58633856514663" lon="10.968483665169527"><ele>54.0</ele><time>2026-04-04T09:38:07.999Z</time></trkpt><trkpt lat="43.586282559477716" lon="10.968388610419513"><ele>54.0</ele><time>2026-04-04T09:38:08.999Z</time></trkpt><trkpt lat="43.586274700593975" lon="10.96825880730369"><ele>54.0</ele><time>2026-04-04T09:38:09.999Z</time></trkpt><trkpt lat="43.58625416557374" lon="10.968119396820292"><ele>54.00000000000001</ele><time>2026-04-04T09:38:10.999Z</time></trkpt><trkpt lat="43.58627380560645" lon="10.967973018387134"><ele>54.00000000000001</ele><time>2026-04-04T09:38:11.999Z</time></trkpt><trkpt lat="43.586305553487875" lon="10.967849666334624"><ele>54.0</ele><time>2026-04-04T09:38:12.999Z</time></trkpt><trkpt lat="43.586339877830575" lon="10.967731231239433"><ele>54.0</ele><time>2026-04-04T09:38:13.999Z</time></trkpt><trkpt lat="43.586382194765115" lon="10.967595126325232"><ele>54.25</ele><time>2026-04-04T09:38:14.999Z</time></trkpt><trkpt lat="43.586434368973826" lon="10.96743421191441"><ele>54.5</ele><time>2026-04-04T09:38:15.999Z</time></trkpt><trkpt lat="43.58647833791797" lon="10.967271047225596"><ele>54.75</ele><time>2026-04-04T09:38:16.999Z</time></trkpt><trkpt lat="43.58652768657303" lon="10.967116622434034"><ele>55.0</ele><time>2026-04-04T09:38:17.999Z</time></trkpt><trkpt lat="43.58657697167387" lon="10.966946649409802"><ele>55.0</ele><time>2026-04-04T09:38:18.999Z</time></trkpt><trkpt lat="43.586624024972856" lon="10.966779101007768"><ele>55.0</ele><time>2026-04-04T09:38:19.999Z</time></trkpt><trkpt lat="43.58666791542381" lon="10.966627241877077"><ele>55.0</ele><time>2026-04-04T09:38:20.999Z</time></trkpt><trkpt lat="43.58670700118879" lon="10.96647117590616"><ele>55.0</ele><time>2026-04-04T09:38:21.999Z</time></trkpt><trkpt lat="43.58675149958441" lon="10.966309224360067"><ele>55.0</ele><time>2026-04-04T09:38:22.999Z</time></trkpt><trkpt lat="43.58679675162583" lon="10.966135935430557"><ele>55.0</ele><time>2026-04-04T09:38:23.999Z</time></trkpt><trkpt lat="43.586829839939526" lon="10.965940448234312"><ele>55.0</ele><time>2026-04-04T09:38:24.999Z</time></trkpt><trkpt lat="43.58684692831908" lon="10.965745187520975"><ele>55.0</ele><time>2026-04-04T09:38:25.999Z</time></trkpt><trkpt lat="43.586849675295404" lon="10.965564885251107"><ele>55.0</ele><time>2026-04-04T09:38:26.999Z</time></trkpt><trkpt lat="43.586864277836355" lon="10.965367855774833"><ele>55.0</ele><time>2026-04-04T09:38:27.999Z</time></trkpt><trkpt lat="43.586849231251314" lon="10.965136033509035"><ele>55.0</ele><time>2026-04-04T09:38:28.999Z</time></trkpt><trkpt lat="43.58681438753362" lon="10.964887150000843"><ele>55.33333333333333</ele><time>2026-04-04T09:38:29.999Z</time></trkpt><trkpt lat="43.58676355646787" lon="10.964646177100613"><ele>55.66666666666667</ele><time>2026-04-04T09:38:30.999Z</time></trkpt><trkpt lat="43.5866977808511" lon="10.964422571577671"><ele>56.0</ele><time>2026-04-04T09:38:31.999Z</time></trkpt><trkpt lat="43.58661878975235" lon="10.964221273525613"><ele>56.333333333333336</ele><time>2026-04-04T09:38:32.999Z</time></trkpt><trkpt lat="43.58653160939927" lon="10.964031541629105"><ele>56.66666666666667</ele><time>2026-04-04T09:38:33.999Z</time></trkpt><trkpt lat="43.58643329758216" lon="10.963850899891584"><ele>57.0</ele><time>2026-04-04T09:38:34.999Z</time></trkpt><trkpt lat="43.58631825601142" lon="10.963648772636715"><ele>57.0</ele><time>2026-04-04T09:38:36Z</time></trkpt><trkpt lat="43.58618949865573" lon="10.963425647467812"><ele>57.0</ele><time>2026-04-04T09:38:37Z</time></trkpt><trkpt lat="43.586048099943504" lon="10.963182930235444"><ele>57.0</ele><time>2026-04-04T09:38:38Z</time></trkpt><trkpt lat="43.5859011780489" lon="10.962930732187038"><ele>57.5</ele><time>2026-04-04T09:38:39Z</time></trkpt><trkpt lat="43.585753134865186" lon="10.962674493071198"><ele>58.0</ele><time>2026-04-04T09:38:40Z</time></trkpt><trkpt lat="43.5856019479256" lon="10.962412090842227"><ele>58.5</ele><time>2026-04-04T09:38:41Z</time></trkpt><trkpt lat="43.5854426863744" lon="10.962145418903388"><ele>59.0</ele><time>2026-04-04T09:38:42Z</time></trkpt><trkpt lat="43.58527019617215" lon="10.961898478273158"><ele>59.5</ele><time>2026-04-04T09:38:43Z</time></trkpt><trkpt lat="43.58510154863636" lon="10.961682372425258"><ele>60.0</ele><time>2026-04-04T09:38:44Z</time></trkpt><trkpt lat="43.584919724436055" lon="10.961487991581963"><ele>60.0</ele><time>2026-04-04T09:38:45Z</time></trkpt><trkpt lat="43.584720229770994" lon="10.961298808203436"><ele>60.0</ele><time>2026-04-04T09:38:46Z</time></trkpt><trkpt lat="43.584513761070454" lon="10.961113666640427"><ele>59.0</ele><time>2026-04-04T09:38:47Z</time></trkpt><trkpt lat="43.584301950546724" lon="10.960929569515866"><ele>58.0</ele><time>2026-04-04T09:38:48Z</time></trkpt><trkpt lat="43.58410271596377" lon="10.960756539421785"><ele>58.666666666666664</ele><time>2026-04-04T09:38:49Z</time></trkpt><trkpt lat="43.58391811236837" lon="10.960593242505121"><ele>59.33333333333333</ele><time>2026-04-04T09:38:50Z</time></trkpt><trkpt lat="43.58374972450204" lon="10.96042612362198"><ele>60.0</ele><time>2026-04-04T09:38:51Z</time></trkpt><trkpt lat="43.58359701704395" lon="10.960235378751543"><ele>60.33333333333333</ele><time>2026-04-04T09:38:52Z</time></trkpt><trkpt lat="43.583450832179985" lon="10.960013388430056"><ele>60.666666666666664</ele><time>2026-04-04T09:38:53Z</time></trkpt><trkpt lat="43.58331770980355" lon="10.959770685789806"><ele>61.0</ele><time>2026-04-04T09:38:54Z</time></trkpt><trkpt lat="43.58320358871583" lon="10.959497789797974"><ele>61.5</ele><time>2026-04-04T09:38:55Z</time></trkpt><trkpt lat="43.583111440100005" lon="10.959199039728723"><ele>62.0</ele><time>2026-04-04T09:38:56Z</time></trkpt><trkpt lat="43.58301443620783" lon="10.958868376014035"><ele>62.0</ele><time>2026-04-04T09:38:57Z</time></trkpt><trkpt lat="43.58291417490128" lon="10.95852481157392"><ele>62.0</ele><time>2026-04-04T09:38:58Z</time></trkpt><trkpt lat="43.58280944583176" lon="10.958164637347675"><ele>62.0</ele><time>2026-04-04T09:38:59Z</time></trkpt><trkpt lat="43.582703745012516" lon="10.957800577397443"><ele>62.0</ele><time>2026-04-04T09:39:00Z</time></trkpt><trkpt lat="43.582603128098" lon="10.95745474602657"><ele>63.0</ele><time>2026-04-04T09:39:01Z</time></trkpt><trkpt lat="43.58250971913742" lon="10.957133689357105"><ele>64.0</ele><time>2026-04-04T09:39:02Z</time></trkpt><trkpt lat="43.58242366904438" lon="10.956837925806244"><ele>64.0</ele><time>2026-04-04T09:39:03Z</time></trkpt><trkpt lat="43.58233983065668" lon="10.956548177909795"><ele>64.0</ele><time>2026-04-04T09:39:04Z</time></trkpt><trkpt lat="43.582258953806964" lon="10.956268411310115"><ele>64.0</ele><time>2026-04-04T09:39:05Z</time></trkpt><trkpt lat="43.58217872922431" lon="10.95599154633369"><ele>64.0</ele><time>2026-04-04T09:39:06Z</time></trkpt><trkpt lat="43.58210154214405" lon="10.955726040319872"><ele>64.0</ele><time>2026-04-04T09:39:07Z</time></trkpt><trkpt lat="43.58202935897816" lon="10.955477747054076"><ele>64.0</ele><time>2026-04-04T09:39:08Z</time></trkpt><trkpt lat="43.58196124780885" lon="10.95523979533735"><ele>64.0</ele><time>2026-04-04T09:39:09Z</time></trkpt><trkpt lat="43.58189456734703" lon="10.955003918084612"><ele>64.0</ele><time>2026-04-04T09:39:10Z</time></trkpt><trkpt lat="43.581828779640176" lon="10.954771195223653"><ele>64.0</ele><time>2026-04-04T09:39:11Z</time></trkpt><trkpt lat="43.58176756479188" lon="10.954554648770037"><ele>64.0</ele><time>2026-04-04T09:39:12Z</time></trkpt><trkpt lat="43.58163886948154" lon="10.95437325271266"><ele>64.0</ele><time>2026-04-04T09:39:13Z</time></trkpt><trkpt lat="43.581517123636196" lon="10.95416841259042"><ele>64.0</ele><time>2026-04-04T09:39:13.999Z</time></trkpt><trkpt lat="43.5813648957137" lon="10.953989946535545"><ele>64.66666666666666</ele><time>2026-04-04T09:39:14.999Z</time></trkpt><trkpt lat="43.58120093768554" lon="10.953839369280058"><ele>65.33333333333333</ele><time>2026-04-04T09:39:15.999Z</time></trkpt><trkpt lat="43.58100959243796" lon="10.95371815238112"><ele>66.0</ele><time>2026-04-04T09:39:16.999Z</time></trkpt><trkpt lat="43.58080837737339" lon="10.95360085373673"><ele>67.0</ele><time>2026-04-04T09:39:17.999Z</time></trkpt><trkpt lat="43.58060426974683" lon="10.953471015485963"><ele>68.0</ele><time>2026-04-04T09:39:18.999Z</time></trkpt><trkpt lat="43.58041868548034" lon="10.953341376113652"><ele>69.0</ele><time>2026-04-04T09:39:19.999Z</time></trkpt><trkpt lat="43.580251598006974" lon="10.953196851653317"><ele>70.33333333333333</ele><time>2026-04-04T09:39:20.999Z</time></trkpt><trkpt lat="43.580096987063804" lon="10.953001750866658"><ele>71.66666666666666</ele><time>2026-04-04T09:39:21.999Z</time></trkpt><trkpt lat="43.57994832933698" lon="10.952776849199896"><ele>73.0</ele><time>2026-04-04T09:39:22.999Z</time></trkpt><trkpt lat="43.57982066748971" lon="10.952515251075514"><ele>76.0</ele><time>2026-04-04T09:39:23.999Z</time></trkpt><trkpt lat="43.579702437632214" lon="10.952230399500257"><ele>79.0</ele><time>2026-04-04T09:39:24.999Z</time></trkpt><trkpt lat="43.57958337341486" lon="10.951978388112277"><ele>82.0</ele><time>2026-04-04T09:39:25.999Z</time></trkpt><trkpt lat="43.57947675251002" lon="10.951773445293139"><ele>85.0</ele><time>2026-04-04T09:39:26.999Z</time></trkpt><trkpt lat="43.579384568306004" lon="10.951578772634686"><ele>88.0</ele><time>2026-04-04T09:39:27.999Z</time></trkpt><trkpt lat="43.57928849422487" lon="10.95140933555319"><ele>89.0</ele><time>2026-04-04T09:39:28.999Z</time></trkpt><trkpt lat="43.57917114414587" lon="10.95125111130156"><ele>90.0</ele><time>2026-04-04T09:39:29.999Z</time></trkpt><trkpt lat="43.579037908528925" lon="10.951098146795538"><ele>91.0</ele><time>2026-04-04T09:39:30.999Z</time></trkpt><trkpt lat="43.57887820139763" lon="10.950967545282806"><ele>91.33333333333333</ele><time>2026-04-04T09:39:31.999Z</time></trkpt><trkpt lat="43.578699980752745" lon="10.950840371442519"><ele>91.66666666666667</ele><time>2026-04-04T09:39:32.999Z</time></trkpt><trkpt lat="43.57851605865992" lon="10.95071710330909"><ele>92.0</ele><time>2026-04-04T09:39:33.999Z</time></trkpt><trkpt lat="43.57835946682743" lon="10.950599131647163"><ele>89.33333333333334</ele><time>2026-04-04T09:39:34.999Z</time></trkpt><trkpt lat="43.57820177001134" lon="10.9504794434156"><ele>86.66666666666667</ele><time>2026-04-04T09:39:35.999Z</time></trkpt><trkpt lat="43.578035724365705" lon="10.95034686504035"><ele>84.0</ele><time>2026-04-04T09:39:36.999Z</time></trkpt><trkpt lat="43.57787385827435" lon="10.9502027602864"><ele>82.66666666666667</ele><time>2026-04-04T09:39:37.999Z</time></trkpt><trkpt lat="43.577735109574114" lon="10.950043063855157"><ele>81.33333333333334</ele><time>2026-04-04T09:39:38.999Z</time></trkpt><trkpt lat="43.57762458160724" lon="10.949841779066379"><ele>80.0</ele><time>2026-04-04T09:39:39.999Z</time></trkpt><trkpt lat="43.577521881842074" lon="10.94961516771285"><ele>80.0</ele><time>2026-04-04T09:39:40.999Z</time></trkpt><trkpt lat="43.577420321852514" lon="10.949364630017973"><ele>80.0</ele><time>2026-04-04T09:39:41.999Z</time></trkpt><trkpt lat="43.57732156034966" lon="10.949086847357604"><ele>80.0</ele><time>2026-04-04T09:39:42.999Z</time></trkpt><trkpt lat="43.57722539438266" lon="10.948790394869658"><ele>82.0</ele><time>2026-04-04T09:39:43.999Z</time></trkpt><trkpt lat="43.577128528006654" lon="10.948472908139815"><ele>84.0</ele><time>2026-04-04T09:39:44.999Z</time></trkpt><trkpt lat="43.577032476633654" lon="10.948167628747791"><ele>82.0</ele><time>2026-04-04T09:39:45.999Z</time></trkpt><trkpt lat="43.57693366047642" lon="10.947882908249357"><ele>80.0</ele><time>2026-04-04T09:39:46.999Z</time></trkpt><trkpt lat="43.57681013749927" lon="10.94762039404239"><ele>81.0</ele><time>2026-04-04T09:39:47.999Z</time></trkpt><trkpt lat="43.57664109856232" lon="10.947380459290997"><ele>82.0</ele><time>2026-04-04T09:39:48.999Z</time></trkpt><trkpt lat="43.57644697125138" lon="10.9471444011277"><ele>82.0</ele><time>2026-04-04T09:39:49.999Z</time></trkpt><trkpt lat="43.57624820402097" lon="10.946897496861919"><ele>82.0</ele><time>2026-04-04T09:39:50.999Z</time></trkpt><trkpt lat="43.5760473307754" lon="10.94665695744506"><ele>83.5</ele><time>2026-04-04T09:39:51.999Z</time></trkpt><trkpt lat="43.57584610715369" lon="10.946411594111412"><ele>85.0</ele><time>2026-04-04T09:39:52.999Z</time></trkpt><trkpt lat="43.57567560775129" lon="10.946167931749573"><ele>85.0</ele><time>2026-04-04T09:39:53.999Z</time></trkpt><trkpt lat="43.575527566156346" lon="10.945938362236816"><ele>85.0</ele><time>2026-04-04T09:39:54.999Z</time></trkpt><trkpt lat="43.575382949163135" lon="10.945737236650928"><ele>85.0</ele><time>2026-04-04T09:39:55.999Z</time></trkpt><trkpt lat="43.57523855560227" lon="10.945557414825654"><ele>85.0</ele><time>2026-04-04T09:39:56.999Z</time></trkpt><trkpt lat="43.57509172620334" lon="10.94536909610344"><ele>85.0</ele><time>2026-04-04T09:39:57.999Z</time></trkpt><trkpt lat="43.57492626974994" lon="10.945168256446882"><ele>85.0</ele><time>2026-04-04T09:39:58.999Z</time></trkpt><trkpt lat="43.57474389364266" lon="10.944983883641875"><ele>86.0</ele><time>2026-04-04T09:39:59.999Z</time></trkpt><trkpt lat="43.57454406180838" lon="10.944826602515109"><ele>87.0</ele><time>2026-04-04T09:40:00.999Z</time></trkpt><trkpt lat="43.57434902023904" lon="10.944666080701325"><ele>87.0</ele><time>2026-04-04T09:40:01.999Z</time></trkpt><trkpt lat="43.57418166675642" lon="10.944468105041295"><ele>87.0</ele><time>2026-04-04T09:40:02.999Z</time></trkpt><trkpt lat="43.574048796290434" lon="10.944219652790347"><ele>87.0</ele><time>2026-04-04T09:40:03.999Z</time></trkpt><trkpt lat="43.57393897935394" lon="10.943932449892271"><ele>88.66666666666667</ele><time>2026-04-04T09:40:04.999Z</time></trkpt><trkpt lat="43.5738630853828" lon="10.94365174760298"><ele>90.33333333333334</ele><time>2026-04-04T09:40:05.999Z</time></trkpt><trkpt lat="43.57382829607096" lon="10.943385296433158"><ele>92.0</ele><time>2026-04-04T09:40:06.999Z</time></trkpt><trkpt lat="43.573786563424186" lon="10.94314181976039"><ele>93.0</ele><time>2026-04-04T09:40:07.999Z</time></trkpt><trkpt lat="43.57372834176673" lon="10.942890734929236"><ele>94.0</ele><time>2026-04-04T09:40:08.999Z</time></trkpt><trkpt lat="43.57364054260529" lon="10.942649088127485"><ele>95.0</ele><time>2026-04-04T09:40:09.999Z</time></trkpt><trkpt lat="43.57353084570922" lon="10.942430798236243"><ele>98.0</ele><time>2026-04-04T09:40:10.999Z</time></trkpt><trkpt lat="43.57338251790222" lon="10.942238872479779"><ele>101.0</ele><time>2026-04-04T09:40:11.999Z</time></trkpt><trkpt lat="43.57320410706752" lon="10.9420669941365"><ele>104.0</ele><time>2026-04-04T09:40:12.999Z</time></trkpt><trkpt lat="43.57300120506823" lon="10.94188896818435"><ele>109.0</ele><time>2026-04-04T09:40:13.999Z</time></trkpt><trkpt lat="43.57279326362861" lon="10.941698367321836"><ele>114.0</ele><time>2026-04-04T09:40:14.999Z</time></trkpt><trkpt lat="43.57257831834045" lon="10.941490768613539"><ele>114.0</ele><time>2026-04-04T09:40:15.999Z</time></trkpt><trkpt lat="43.572362465144785" lon="10.941286408109283"><ele>114.0</ele><time>2026-04-04T09:40:16.999Z</time></trkpt><trkpt lat="43.572148360029054" lon="10.941084887483754"><ele>113.66666666666666</ele><time>2026-04-04T09:40:17.999Z</time></trkpt><trkpt lat="43.5719620141969" lon="10.940904425547389"><ele>113.33333333333333</ele><time>2026-04-04T09:40:18.999Z</time></trkpt><trkpt lat="43.57183484738321" lon="10.940668266698074"><ele>113.0</ele><time>2026-04-04T09:40:19.999Z</time></trkpt><trkpt lat="43.57170207545104" lon="10.940492697379037"><ele>116.0</ele><time>2026-04-04T09:40:20.999Z</time></trkpt><trkpt lat="43.57158569583802" lon="10.940287475207114"><ele>119.0</ele><time>2026-04-04T09:40:21.999Z</time></trkpt><trkpt lat="43.57149016973156" lon="10.940056547456933"><ele>122.0</ele><time>2026-04-04T09:40:22.999Z</time></trkpt><trkpt lat="43.571414585949725" lon="10.939813639227324"><ele>126.33333333333333</ele><time>2026-04-04T09:40:23.999Z</time></trkpt><trkpt lat="43.57134043687656" lon="10.939575552408161"><ele>130.66666666666666</ele><time>2026-04-04T09:40:24.999Z</time></trkpt><trkpt lat="43.571270805362154" lon="10.93937254292223"><ele>135.0</ele><time>2026-04-04T09:40:25.999Z</time></trkpt><trkpt lat="43.57118953763939" lon="10.939190261462839"><ele>135.33333333333334</ele><time>2026-04-04T09:40:26.999Z</time></trkpt><trkpt lat="43.57109595042737" lon="10.939021478194611"><ele>135.66666666666669</ele><time>2026-04-04T09:40:27.999Z</time></trkpt><trkpt lat="43.57099676531822" lon="10.938868743247072"><ele>136.0</ele><time>2026-04-04T09:40:28.999Z</time></trkpt><trkpt lat="43.57086231076951" lon="10.938705065892142"><ele>136.0</ele><time>2026-04-04T09:40:29.999Z</time></trkpt><trkpt lat="43.57067967854225" lon="10.938554191177246"><ele>136.0</ele><time>2026-04-04T09:40:30.999Z</time></trkpt><trkpt lat="43.570469517785114" lon="10.938415319673215"><ele>136.0</ele><time>2026-04-04T09:40:31.999Z</time></trkpt><trkpt lat="43.57025125905073" lon="10.93827479065134"><ele>138.0</ele><time>2026-04-04T09:40:32.999Z</time></trkpt><trkpt lat="43.57002982484756" lon="10.938132150197859"><ele>140.0</ele><time>2026-04-04T09:40:33.999Z</time></trkpt><trkpt lat="43.56980901949123" lon="10.937989849373412"><ele>140.0</ele><time>2026-04-04T09:40:34.999Z</time></trkpt><trkpt lat="43.56959333247071" lon="10.937850798022204"><ele>140.0</ele><time>2026-04-04T09:40:35.999Z</time></trkpt><trkpt lat="43.56937706449685" lon="10.937711253698641"><ele>142.33333333333331</ele><time>2026-04-04T09:40:36.999Z</time></trkpt><trkpt lat="43.56918521229134" lon="10.937583269670185"><ele>144.66666666666666</ele><time>2026-04-04T09:40:37.999Z</time></trkpt><trkpt lat="43.56899524108981" lon="10.937493144509672"><ele>147.0</ele><time>2026-04-04T09:40:38.999Z</time></trkpt><trkpt lat="43.568810179085325" lon="10.937461226445945"><ele>152.33333333333334</ele><time>2026-04-04T09:40:39.999Z</time></trkpt><trkpt lat="43.56861648893367" lon="10.937474497632223"><ele>157.66666666666669</ele><time>2026-04-04T09:40:40.999Z</time></trkpt><trkpt lat="43.568433066612414" lon="10.937541208705678"><ele>163.0</ele><time>2026-04-04T09:40:42Z</time></trkpt><trkpt lat="43.568274133694686" lon="10.937670367044996"><ele>163.33333333333334</ele><time>2026-04-04T09:40:43Z</time></trkpt><trkpt lat="43.56810286038185" lon="10.937815994184446"><ele>163.66666666666666</ele><time>2026-04-04T09:40:44Z</time></trkpt><trkpt lat="43.56793169249373" lon="10.937997299784882"><ele>164.0</ele><time>2026-04-04T09:40:45Z</time></trkpt><trkpt lat="43.567767770570235" lon="10.93816574347363"><ele>167.0</ele><time>2026-04-04T09:40:46Z</time></trkpt><trkpt lat="43.56760869654621" lon="10.938306507892888"><ele>170.0</ele><time>2026-04-04T09:40:47Z</time></trkpt><trkpt lat="43.567443979610665" lon="10.938413335511411"><ele>173.0</ele><time>2026-04-04T09:40:48Z</time></trkpt><trkpt lat="43.567275787104975" lon="10.938494852843114"><ele>173.0</ele><time>2026-04-04T09:40:49Z</time></trkpt><trkpt lat="43.56709158586564" lon="10.938554882744715"><ele>173.0</ele><time>2026-04-04T09:40:50Z</time></trkpt><trkpt lat="43.566883847159815" lon="10.938583458782782"><ele>173.0</ele><time>2026-04-04T09:40:51Z</time></trkpt><trkpt lat="43.56665958396027" lon="10.93858168836337"><ele>176.33333333333331</ele><time>2026-04-04T09:40:52Z</time></trkpt><trkpt lat="43.566448196830734" lon="10.938601242935079"><ele>179.66666666666666</ele><time>2026-04-04T09:40:53Z</time></trkpt><trkpt lat="43.56624718049546" lon="10.93864044093494"><ele>183.0</ele><time>2026-04-04T09:40:54Z</time></trkpt><trkpt lat="43.566034312501536" lon="10.938716043394681"><ele>185.0</ele><time>2026-04-04T09:40:55Z</time></trkpt><trkpt lat="43.565818852398976" lon="10.938824231747477"><ele>187.0</ele><time>2026-04-04T09:40:56Z</time></trkpt><trkpt lat="43.565595384109145" lon="10.938938537351726"><ele>187.0</ele><time>2026-04-04T09:40:57Z</time></trkpt><trkpt lat="43.56537489002668" lon="10.93904438848959"><ele>187.0</ele><time>2026-04-04T09:40:58Z</time></trkpt><trkpt lat="43.565146893592356" lon="10.9391367484806"><ele>183.0</ele><time>2026-04-04T09:40:59Z</time></trkpt><trkpt lat="43.56489660266949" lon="10.939220925873276"><ele>179.0</ele><time>2026-04-04T09:41:00Z</time></trkpt><trkpt lat="43.564637633317844" lon="10.939301388936187"><ele>183.0</ele><time>2026-04-04T09:41:01Z</time></trkpt><trkpt lat="43.56439750973549" lon="10.939362055019018"><ele>187.0</ele><time>2026-04-04T09:41:02Z</time></trkpt><trkpt lat="43.564176713676474" lon="10.93939979379937"><ele>187.0</ele><time>2026-04-04T09:41:03Z</time></trkpt><trkpt lat="43.563960463803134" lon="10.939417505063181"><ele>187.0</ele><time>2026-04-04T09:41:04Z</time></trkpt><trkpt lat="43.56372943927305" lon="10.93942051376981"><ele>187.0</ele><time>2026-04-04T09:41:05Z</time></trkpt><trkpt lat="43.563485713018" lon="10.939409704882253"><ele>188.0</ele><time>2026-04-04T09:41:06Z</time></trkpt><trkpt lat="43.56323632694083" lon="10.939395995665167"><ele>189.0</ele><time>2026-04-04T09:41:07Z</time></trkpt><trkpt lat="43.56298436707215" lon="10.9393828185332"><ele>189.0</ele><time>2026-04-04T09:41:08Z</time></trkpt><trkpt lat="43.56272122378133" lon="10.939384815096338"><ele>189.0</ele><time>2026-04-04T09:41:09Z</time></trkpt><trkpt lat="43.56246922030105" lon="10.939398580887158"><ele>189.0</ele><time>2026-04-04T09:41:09.999Z</time></trkpt><trkpt lat="43.562234549520454" lon="10.939421387917232"><ele>189.0</ele><time>2026-04-04T09:41:10.999Z</time></trkpt><trkpt lat="43.562013647487056" lon="10.939451344652161"><ele>191.66666666666669</ele><time>2026-04-04T09:41:11.999Z</time></trkpt><trkpt lat="43.56180562370856" lon="10.939479437946071"><ele>194.33333333333334</ele><time>2026-04-04T09:41:12.999Z</time></trkpt><trkpt lat="43.56160312749055" lon="10.939485268310351"><ele>197.0</ele><time>2026-04-04T09:41:13.999Z</time></trkpt><trkpt lat="43.56139983371031" lon="10.939464971282455"><ele>197.0</ele><time>2026-04-04T09:41:14.999Z</time></trkpt><trkpt lat="43.561209003992055" lon="10.939423928537213"><ele>197.0</ele><time>2026-04-04T09:41:15.999Z</time></trkpt><trkpt lat="43.56103875121748" lon="10.939362453231864"><ele>197.0</ele><time>2026-04-04T09:41:16.999Z</time></trkpt><trkpt lat="43.56087596439212" lon="10.939286667024513"><ele>202.33333333333334</ele><time>2026-04-04T09:41:17.999Z</time></trkpt><trkpt lat="43.56069298369309" lon="10.939185285725674"><ele>207.66666666666669</ele><time>2026-04-04T09:41:18.999Z</time></trkpt><trkpt lat="43.56049081097502" lon="10.939087851068566"><ele>213.0</ele><time>2026-04-04T09:41:19.999Z</time></trkpt><trkpt lat="43.56026770344972" lon="10.938994362413402"><ele>213.5</ele><time>2026-04-04T09:41:20.999Z</time></trkpt><trkpt lat="43.56003660786367" lon="10.938915384952798"><ele>214.0</ele><time>2026-04-04T09:41:21.999Z</time></trkpt><trkpt lat="43.55981017410009" lon="10.938852376823421"><ele>214.0</ele><time>2026-04-04T09:41:22.999Z</time></trkpt><trkpt lat="43.559577947217406" lon="10.938820056423433"><ele>214.0</ele><time>2026-04-04T09:41:23.999Z</time></trkpt><trkpt lat="43.559333181979525" lon="10.938818931488411"><ele>217.5</ele><time>2026-04-04T09:41:24.999Z</time></trkpt><trkpt lat="43.55907847701848" lon="10.938829889281626"><ele>221.0</ele><time>2026-04-04T09:41:25.999Z</time></trkpt><trkpt lat="43.558813966619695" lon="10.938844087949516"><ele>223.5</ele><time>2026-04-04T09:41:26.999Z</time></trkpt><trkpt lat="43.55855112378882" lon="10.938858078395766"><ele>226.0</ele><time>2026-04-04T09:41:27.999Z</time></trkpt><trkpt lat="43.558300709344444" lon="10.938870484000352"><ele>226.0</ele><time>2026-04-04T09:41:28.999Z</time></trkpt><trkpt lat="43.558073544916624" lon="10.938876604588394"><ele>226.0</ele><time>2026-04-04T09:41:29.999Z</time></trkpt><trkpt lat="43.55787898446061" lon="10.938849089397845"><ele>226.0</ele><time>2026-04-04T09:41:30.999Z</time></trkpt><trkpt lat="43.55769156470515" lon="10.938784648780665"><ele>226.66666666666666</ele><time>2026-04-04T09:41:31.999Z</time></trkpt><trkpt lat="43.557496451921466" lon="10.938681558893471"><ele>227.33333333333331</ele><time>2026-04-04T09:41:32.999Z</time></trkpt><trkpt lat="43.557296759453365" lon="10.938527597813199"><ele>228.0</ele><time>2026-04-04T09:41:33.999Z</time></trkpt><trkpt lat="43.55710448470438" lon="10.938331676496768"><ele>229.0</ele><time>2026-04-04T09:41:34.999Z</time></trkpt><trkpt lat="43.5569424471169" lon="10.938097577969684"><ele>230.0</ele><time>2026-04-04T09:41:35.999Z</time></trkpt><trkpt lat="43.55679989549245" lon="10.937816942438786"><ele>230.5</ele><time>2026-04-04T09:41:36.999Z</time></trkpt><trkpt lat="43.55669820181365" lon="10.937518643845038"><ele>231.0</ele><time>2026-04-04T09:41:37.999Z</time></trkpt><trkpt lat="43.55659985172324" lon="10.937215219155297"><ele>231.0</ele><time>2026-04-04T09:41:38.999Z</time></trkpt><trkpt lat="43.5565615657517" lon="10.936860752282293"><ele>231.0</ele><time>2026-04-04T09:41:39.999Z</time></trkpt><trkpt lat="43.55654635861646" lon="10.93649195568063"><ele>231.0</ele><time>2026-04-04T09:41:40.999Z</time></trkpt><trkpt lat="43.55652048482942" lon="10.936165763944379"><ele>231.0</ele><time>2026-04-04T09:41:41.999Z</time></trkpt><trkpt lat="43.556441815926696" lon="10.93584788243623"><ele>232.0</ele><time>2026-04-04T09:41:42.999Z</time></trkpt><trkpt lat="43.55631925101811" lon="10.935564312007429"><ele>233.0</ele><time>2026-04-04T09:41:43.999Z</time></trkpt><trkpt lat="43.556165788160044" lon="10.935316449471324"><ele>236.5</ele><time>2026-04-04T09:41:44.999Z</time></trkpt><trkpt lat="43.555971051971575" lon="10.935127664546174"><ele>240.0</ele><time>2026-04-04T09:41:45.999Z</time></trkpt><trkpt lat="43.555755135754325" lon="10.934989510105112"><ele>240.5</ele><time>2026-04-04T09:41:46.999Z</time></trkpt><trkpt lat="43.555513618899596" lon="10.934900383165806"><ele>241.0</ele><time>2026-04-04T09:41:47.999Z</time></trkpt><trkpt lat="43.555246579260114" lon="10.93484770393812"><ele>240.0</ele><time>2026-04-04T09:41:48.999Z</time></trkpt><trkpt lat="43.554961362584564" lon="10.934844396950975"><ele>239.0</ele><time>2026-04-04T09:41:49.999Z</time></trkpt><trkpt lat="43.554660465943435" lon="10.934851575413226"><ele>239.0</ele><time>2026-04-04T09:41:50.999Z</time></trkpt><trkpt lat="43.55435833564776" lon="10.934854399078972"><ele>239.0</ele><time>2026-04-04T09:41:51.999Z</time></trkpt><trkpt lat="43.554084091619714" lon="10.934855085148442"><ele>239.0</ele><time>2026-04-04T09:41:52.999Z</time></trkpt><trkpt lat="43.5538279551499" lon="10.934845009973962"><ele>239.0</ele><time>2026-04-04T09:41:53.999Z</time></trkpt><trkpt lat="43.55358719924789" lon="10.934823306752563"><ele>239.5</ele><time>2026-04-04T09:41:54.999Z</time></trkpt><trkpt lat="43.55334156967286" lon="10.934764110957655"><ele>240.0</ele><time>2026-04-04T09:41:55.999Z</time></trkpt><trkpt lat="43.553092338188264" lon="10.934652675971575"><ele>243.0</ele><time>2026-04-04T09:41:56.999Z</time></trkpt><trkpt lat="43.552854393457565" lon="10.934495112064706"><ele>246.0</ele><time>2026-04-04T09:41:57.999Z</time></trkpt><trkpt lat="43.55262839921931" lon="10.93429555938404"><ele>247.0</ele><time>2026-04-04T09:41:58.999Z</time></trkpt><trkpt lat="43.55241777941908" lon="10.934047930844153"><ele>248.0</ele><time>2026-04-04T09:41:59.999Z</time></trkpt><trkpt lat="43.552244896177875" lon="10.933764235243117"><ele>248.0</ele><time>2026-04-04T09:42:00.999Z</time></trkpt><trkpt lat="43.55211013234712" lon="10.933454008591001"><ele>248.0</ele><time>2026-04-04T09:42:01.999Z</time></trkpt><trkpt lat="43.552002650651886" lon="10.933111207266075"><ele>249.0</ele><time>2026-04-04T09:42:02.999Z</time></trkpt><trkpt lat="43.5519162100909" lon="10.932795543363659"><ele>250.0</ele><time>2026-04-04T09:42:03.999Z</time></trkpt><trkpt lat="43.551830511795394" lon="10.932526666745694"><ele>250.66666666666666</ele><time>2026-04-04T09:42:04.999Z</time></trkpt><trkpt lat="43.55172858237042" lon="10.932292080140154"><ele>251.33333333333331</ele><time>2026-04-04T09:42:05.999Z</time></trkpt><trkpt lat="43.55160875721418" lon="10.932102997731864"><ele>252.0</ele><time>2026-04-04T09:42:06.999Z</time></trkpt><trkpt lat="43.551482822550085" lon="10.93192335068375"><ele>252.0</ele><time>2026-04-04T09:42:07.999Z</time></trkpt><trkpt lat="43.551354369397764" lon="10.93176782538487"><ele>252.0</ele><time>2026-04-04T09:42:08.999Z</time></trkpt><trkpt lat="43.551214324294634" lon="10.93163239875212"><ele>252.0</ele><time>2026-04-04T09:42:09.999Z</time></trkpt><trkpt lat="43.551078335631615" lon="10.93152180433453"><ele>255.33333333333331</ele><time>2026-04-04T09:42:10.999Z</time></trkpt><trkpt lat="43.55092461488835" lon="10.931421470325688"><ele>258.66666666666663</ele><time>2026-04-04T09:42:11.999Z</time></trkpt><trkpt lat="43.55074596344537" lon="10.931327499128884"><ele>262.0</ele><time>2026-04-04T09:42:12.999Z</time></trkpt><trkpt lat="43.550566725163094" lon="10.93123340019124"><ele>262.0</ele><time>2026-04-04T09:42:13.999Z</time></trkpt><trkpt lat="43.55038606998526" lon="10.931145806768589"><ele>262.0</ele><time>2026-04-04T09:42:14.999Z</time></trkpt><trkpt lat="43.55020872255763" lon="10.931054988866963"><ele>262.0</ele><time>2026-04-04T09:42:15.999Z</time></trkpt><trkpt lat="43.55005006697447" lon="10.930970707400498"><ele>264.0</ele><time>2026-04-04T09:42:16.999Z</time></trkpt><trkpt lat="43.54989577073149" lon="10.930888452901899"><ele>266.0</ele><time>2026-04-04T09:42:17.999Z</time></trkpt><trkpt lat="43.54973366581769" lon="10.930798299794514"><ele>268.0</ele><time>2026-04-04T09:42:18.999Z</time></trkpt><trkpt lat="43.54956056420645" lon="10.930684708766734"><ele>268.3333333333333</ele><time>2026-04-04T09:42:19.999Z</time></trkpt><trkpt lat="43.54939282658537" lon="10.930544731605286"><ele>268.6666666666667</ele><time>2026-04-04T09:42:20.999Z</time></trkpt><trkpt lat="43.549245211361864" lon="10.930404728673489"><ele>269.0</ele><time>2026-04-04T09:42:21.999Z</time></trkpt><trkpt lat="43.54910341154841" lon="10.930262201541476"><ele>269.0</ele><time>2026-04-04T09:42:22.999Z</time></trkpt><trkpt lat="43.54896960644124" lon="10.930124600475317"><ele>269.0</ele><time>2026-04-04T09:42:23.999Z</time></trkpt><trkpt lat="43.548847588836395" lon="10.929974732718792"><ele>269.0</ele><time>2026-04-04T09:42:24.999Z</time></trkpt><trkpt lat="43.548739758312564" lon="10.92981092031297"><ele>272.0</ele><time>2026-04-04T09:42:25.999Z</time></trkpt><trkpt lat="43.548638763095525" lon="10.929658479986434"><ele>275.0</ele><time>2026-04-04T09:42:26.999Z</time></trkpt><trkpt lat="43.54854742953423" lon="10.929522842644674"><ele>278.0</ele><time>2026-04-04T09:42:27.999Z</time></trkpt><trkpt lat="43.54845888159846" lon="10.929398393550677"><ele>281.0</ele><time>2026-04-04T09:42:28.999Z</time></trkpt><trkpt lat="43.54835768834827" lon="10.929282573671795"><ele>284.0</ele><time>2026-04-04T09:42:29.999Z</time></trkpt><trkpt lat="43.54823133199743" lon="10.929174753944219"><ele>287.0</ele><time>2026-04-04T09:42:30.999Z</time></trkpt><trkpt lat="43.548095888918134" lon="10.92908659372172"><ele>290.0</ele><time>2026-04-04T09:42:31.999Z</time></trkpt><trkpt lat="43.547958936010524" lon="10.92901721063733"><ele>293.0</ele><time>2026-04-04T09:42:32.999Z</time></trkpt><trkpt lat="43.547816312547475" lon="10.928953712636872"><ele>294.0</ele><time>2026-04-04T09:42:33.999Z</time></trkpt><trkpt lat="43.54766071100948" lon="10.928914201177049"><ele>295.0</ele><time>2026-04-04T09:42:34.999Z</time></trkpt><trkpt lat="43.54749848916638" lon="10.928885088406576"><ele>296.0</ele><time>2026-04-04T09:42:35.999Z</time></trkpt><trkpt lat="43.547336589764136" lon="10.928868432959874"><ele>296.0</ele><time>2026-04-04T09:42:36.999Z</time></trkpt><trkpt lat="43.547173760057206" lon="10.928865434864854"><ele>296.0</ele><time>2026-04-04T09:42:37.999Z</time></trkpt><trkpt lat="43.54700533866266" lon="10.928874209788507"><ele>296.0</ele><time>2026-04-04T09:42:38.999Z</time></trkpt><trkpt lat="43.54683192440249" lon="10.928874037223604"><ele>298.0</ele><time>2026-04-04T09:42:39.999Z</time></trkpt><trkpt lat="43.5466326758904" lon="10.92887269731572"><ele>300.0</ele><time>2026-04-04T09:42:40.999Z</time></trkpt><trkpt lat="43.54641431195317" lon="10.928865332850659"><ele>302.0</ele><time>2026-04-04T09:42:41.999Z</time></trkpt><trkpt lat="43.5461863360739" lon="10.928858820762668"><ele>304.6666666666667</ele><time>2026-04-04T09:42:42.999Z</time></trkpt><trkpt lat="43.545966772803446" lon="10.928852670320166"><ele>307.3333333333333</ele><time>2026-04-04T09:42:43.999Z</time></trkpt><trkpt lat="43.54576105969681" lon="10.928842312152037"><ele>310.0</ele><time>2026-04-04T09:42:44.999Z</time></trkpt><trkpt lat="43.54557606806459" lon="10.928837182493815"><ele>310.0</ele><time>2026-04-04T09:42:45.999Z</time></trkpt><trkpt lat="43.54540419607932" lon="10.928740241178556"><ele>310.0</ele><time>2026-04-04T09:42:46.999Z</time></trkpt><trkpt lat="43.54523165973323" lon="10.928719415162913"><ele>310.0</ele><time>2026-04-04T09:42:48Z</time></trkpt><trkpt lat="43.54505785011259" lon="10.92867792780464"><ele>311.3333333333333</ele><time>2026-04-04T09:42:49Z</time></trkpt><trkpt lat="43.544878556155574" lon="10.928623175548992"><ele>312.6666666666667</ele><time>2026-04-04T09:42:50Z</time></trkpt><trkpt lat="43.54470136692406" lon="10.928557994672524"><ele>314.0</ele><time>2026-04-04T09:42:51Z</time></trkpt><trkpt lat="43.544528090894715" lon="10.928486293068628"><ele>316.0</ele><time>2026-04-04T09:42:52Z</time></trkpt><trkpt lat="43.54435491729016" lon="10.928394425645282"><ele>318.0</ele><time>2026-04-04T09:42:53Z</time></trkpt><trkpt lat="43.54417457427912" lon="10.92828532213002"><ele>320.0</ele><time>2026-04-04T09:42:54Z</time></trkpt><trkpt lat="43.54398039259737" lon="10.928163700987545"><ele>323.0</ele><time>2026-04-04T09:42:55Z</time></trkpt><trkpt lat="43.543784475625515" lon="10.928037236877252"><ele>326.0</ele><time>2026-04-04T09:42:56Z</time></trkpt><trkpt lat="43.543579949313305" lon="10.927901699383588"><ele>329.0</ele><time>2026-04-04T09:42:57Z</time></trkpt><trkpt lat="43.543373629287736" lon="10.927762973818275"><ele>331.0</ele><time>2026-04-04T09:42:58Z</time></trkpt><trkpt lat="43.54317703564125" lon="10.92763019325567"><ele>333.0</ele><time>2026-04-04T09:42:59Z</time></trkpt><trkpt lat="43.543000474970164" lon="10.927516323315826"><ele>335.0</ele><time>2026-04-04T09:43:00Z</time></trkpt><trkpt lat="43.542846576896935" lon="10.927424826401372"><ele>337.33333333333337</ele><time>2026-04-04T09:43:01Z</time></trkpt><trkpt lat="43.542720205879114" lon="10.92734750020737"><ele>339.6666666666667</ele><time>2026-04-04T09:43:02Z</time></trkpt><trkpt lat="43.542578020168065" lon="10.927294773166453"><ele>342.0</ele><time>2026-04-04T09:43:03Z</time></trkpt><trkpt lat="43.542407794774974" lon="10.92727451633434"><ele>342.0</ele><time>2026-04-04T09:43:04Z</time></trkpt><trkpt lat="43.54222340889611" lon="10.927258622236609"><ele>342.0</ele><time>2026-04-04T09:43:05Z</time></trkpt><trkpt lat="43.54202602996094" lon="10.927247998495654"><ele>342.0</ele><time>2026-04-04T09:43:06Z</time></trkpt><trkpt lat="43.54183407613396" lon="10.927241068369607"><ele>344.3333333333333</ele><time>2026-04-04T09:43:07Z</time></trkpt><trkpt lat="43.54166032374876" lon="10.927235769921365"><ele>346.66666666666663</ele><time>2026-04-04T09:43:08Z</time></trkpt><trkpt lat="43.54150730289444" lon="10.927313041804302"><ele>349.0</ele><time>2026-04-04T09:43:09Z</time></trkpt><trkpt lat="43.54135376432295" lon="10.927318110654747"><ele>351.66666666666663</ele><time>2026-04-04T09:43:10Z</time></trkpt><trkpt lat="43.54119330190998" lon="10.927310558924656"><ele>354.3333333333333</ele><time>2026-04-04T09:43:11Z</time></trkpt><trkpt lat="43.54103558299308" lon="10.927306379264717"><ele>357.0</ele><time>2026-04-04T09:43:12Z</time></trkpt><trkpt lat="43.54089019516005" lon="10.92722846947305"><ele>357.0</ele><time>2026-04-04T09:43:13Z</time></trkpt><trkpt lat="43.54076804973716" lon="10.927214155256804"><ele>357.0</ele><time>2026-04-04T09:43:14Z</time></trkpt><trkpt lat="43.540653063868504" lon="10.927182744460497"><ele>357.0</ele><time>2026-04-04T09:43:15Z</time></trkpt><trkpt lat="43.540541786461716" lon="10.927098431090096"><ele>357.0</ele><time>2026-04-04T09:43:16Z</time></trkpt><trkpt lat="43.5403977839549" lon="10.92698657315237"><ele>359.3333333333333</ele><time>2026-04-04T09:43:17Z</time></trkpt><trkpt lat="43.54024017707524" lon="10.926871320568926"><ele>361.66666666666663</ele><time>2026-04-04T09:43:18Z</time></trkpt><trkpt lat="43.54008046325973" lon="10.926754274023637"><ele>364.0</ele><time>2026-04-04T09:43:19Z</time></trkpt><trkpt lat="43.53990105210918" lon="10.926619716546421"><ele>364.3333333333333</ele><time>2026-04-04T09:43:20Z</time></trkpt><trkpt lat="43.53970524895865" lon="10.926549547165449"><ele>364.6666666666667</ele><time>2026-04-04T09:43:20.999Z</time></trkpt><trkpt lat="43.53952470782717" lon="10.926412282820834"><ele>365.0</ele><time>2026-04-04T09:43:21.999Z</time></trkpt><trkpt lat="43.5393391741607" lon="10.926276050117396"><ele>368.33333333333337</ele><time>2026-04-04T09:43:22.999Z</time></trkpt><trkpt lat="43.53915153641533" lon="10.926140830774884"><ele>371.6666666666667</ele><time>2026-04-04T09:43:23.999Z</time></trkpt><trkpt lat="43.53897640904922" lon="10.925957999081165"><ele>375.0</ele><time>2026-04-04T09:43:24.999Z</time></trkpt><trkpt lat="43.53878492051095" lon="10.925844972175971"><ele>377.3333333333333</ele><time>2026-04-04T09:43:25.999Z</time></trkpt><trkpt lat="43.53860701327673" lon="10.925738019568733"><ele>379.66666666666663</ele><time>2026-04-04T09:43:26.999Z</time></trkpt><trkpt lat="43.53843530726256" lon="10.925613195995528"><ele>382.0</ele><time>2026-04-04T09:43:27.999Z</time></trkpt><trkpt lat="43.538253269237664" lon="10.925456467963118"><ele>382.0</ele><time>2026-04-04T09:43:28.999Z</time></trkpt><trkpt lat="43.538077086020905" lon="10.925300110863102"><ele>382.0</ele><time>2026-04-04T09:43:29.999Z</time></trkpt><trkpt lat="43.53789698936599" lon="10.9251474826186"><ele>382.0</ele><time>2026-04-04T09:43:30.999Z</time></trkpt><trkpt lat="43.53771738194999" lon="10.924992679152812"><ele>385.0</ele><time>2026-04-04T09:43:31.999Z</time></trkpt><trkpt lat="43.53754020429575" lon="10.924838117642762"><ele>388.0</ele><time>2026-04-04T09:43:32.999Z</time></trkpt><trkpt lat="43.53736341190272" lon="10.924683474202363"><ele>391.0</ele><time>2026-04-04T09:43:33.999Z</time></trkpt><trkpt lat="43.53719068780158" lon="10.92453225330346"><ele>392.33333333333337</ele><time>2026-04-04T09:43:34.999Z</time></trkpt><trkpt lat="43.53701682402363" lon="10.924382626190287"><ele>393.66666666666663</ele><time>2026-04-04T09:43:35.999Z</time></trkpt><trkpt lat="43.53683974073203" lon="10.924233298269774"><ele>395.0</ele><time>2026-04-04T09:43:36.999Z</time></trkpt><trkpt lat="43.53665904731766" lon="10.92409153613984"><ele>396.0</ele><time>2026-04-04T09:43:37.999Z</time></trkpt><trkpt lat="43.53646378482583" lon="10.923977719691191"><ele>397.0</ele><time>2026-04-04T09:43:38.999Z</time></trkpt><trkpt lat="43.536250509614135" lon="10.923893176678813"><ele>398.0</ele><time>2026-04-04T09:43:39.999Z</time></trkpt><trkpt lat="43.53602859585866" lon="10.923837675559431"><ele>401.0</ele><time>2026-04-04T09:43:40.999Z</time></trkpt><trkpt lat="43.53581361296048" lon="10.923824913510918"><ele>404.0</ele><time>2026-04-04T09:43:41.999Z</time></trkpt><trkpt lat="43.535656891519714" lon="10.923834621874418"><ele>407.0</ele><time>2026-04-04T09:43:42.999Z</time></trkpt><trkpt lat="43.53555230163051" lon="10.923842765432727"><ele>407.0</ele><time>2026-04-04T09:43:43.999Z</time></trkpt><trkpt lat="43.53547348006034" lon="10.923848902568208"><ele>407.0</ele><time>2026-04-04T09:43:45.999Z</time></trkpt><trkpt lat="43.53553230309909" lon="10.923794964366195"><ele>407.0</ele><time>2026-04-04T09:43:47.999Z</time></trkpt><trkpt lat="43.53552211205143" lon="10.923707075579971"><ele>407.0</ele><time>2026-04-04T09:43:48.999Z</time></trkpt><trkpt lat="43.535489008798564" lon="10.923533421859842"><ele>407.0</ele><time>2026-04-04T09:43:49.999Z</time></trkpt><trkpt lat="43.53546874312212" lon="10.92335703755309"><ele>407.25</ele><time>2026-04-04T09:43:50.999Z</time></trkpt><trkpt lat="43.535458907131364" lon="10.923161989194094"><ele>407.5</ele><time>2026-04-04T09:43:51.999Z</time></trkpt><trkpt lat="43.53542992353846" lon="10.922959320282665"><ele>407.75</ele><time>2026-04-04T09:43:52.999Z</time></trkpt><trkpt lat="43.535398831248166" lon="10.922760447571067"><ele>408.0</ele><time>2026-04-04T09:43:53.999Z</time></trkpt><trkpt lat="43.535380736796206" lon="10.92257317156258"><ele>408.0</ele><time>2026-04-04T09:43:54.999Z</time></trkpt><trkpt lat="43.535386502877365" lon="10.922394541324007"><ele>408.0</ele><time>2026-04-04T09:43:55.999Z</time></trkpt><trkpt lat="43.535429448348026" lon="10.922216263797965"><ele>408.0</ele><time>2026-04-04T09:43:56.999Z</time></trkpt><trkpt lat="43.5354762841782" lon="10.92204762403419"><ele>408.0</ele><time>2026-04-04T09:43:57.999Z</time></trkpt><trkpt lat="43.53552591131818" lon="10.921886902336606"><ele>408.0</ele><time>2026-04-04T09:43:58.999Z</time></trkpt><trkpt lat="43.53558891883708" lon="10.921744157660019"><ele>408.0</ele><time>2026-04-04T09:43:59.999Z</time></trkpt><trkpt lat="43.53566947581538" lon="10.921607416515906"><ele>408.0</ele><time>2026-04-04T09:44:00.999Z</time></trkpt><trkpt lat="43.53575753284049" lon="10.921470510054728"><ele>408.0</ele><time>2026-04-04T09:44:01.999Z</time></trkpt><trkpt lat="43.53585959877554" lon="10.921330097667536"><ele>407.75</ele><time>2026-04-04T09:44:02.999Z</time></trkpt><trkpt lat="43.53596689484299" lon="10.92118028677392"><ele>407.5</ele><time>2026-04-04T09:44:03.999Z</time></trkpt><trkpt lat="43.536072683301555" lon="10.921038925702916"><ele>407.25</ele><time>2026-04-04T09:44:04.999Z</time></trkpt><trkpt lat="43.53616511636288" lon="10.920905432440183"><ele>407.0</ele><time>2026-04-04T09:44:05.999Z</time></trkpt><trkpt lat="43.53625974556363" lon="10.920776369053776"><ele>404.5</ele><time>2026-04-04T09:44:06.999Z</time></trkpt><trkpt lat="43.53634839903557" lon="10.920653967037632"><ele>402.0</ele><time>2026-04-04T09:44:07.999Z</time></trkpt><trkpt lat="43.53642961911558" lon="10.920532290013593"><ele>399.5</ele><time>2026-04-04T09:44:08.999Z</time></trkpt><trkpt lat="43.536506924722545" lon="10.920420615272972"><ele>397.0</ele><time>2026-04-04T09:44:09.999Z</time></trkpt><trkpt lat="43.536577422989296" lon="10.920320208744192"><ele>397.0</ele><time>2026-04-04T09:44:10.999Z</time></trkpt><trkpt lat="43.53664352840054" lon="10.92023294211721"><ele>397.0</ele><time>2026-04-04T09:44:11.999Z</time></trkpt><trkpt lat="43.53671696026569" lon="10.9201518513294"><ele>397.0</ele><time>2026-04-04T09:44:12.999Z</time></trkpt><trkpt lat="43.53680395719209" lon="10.920061071682369"><ele>397.0</ele><time>2026-04-04T09:44:13.999Z</time></trkpt><trkpt lat="43.53690808317752" lon="10.919965830179901"><ele>397.0</ele><time>2026-04-04T09:44:14.999Z</time></trkpt><trkpt lat="43.53702388594542" lon="10.919867902076346"><ele>395.33333333333337</ele><time>2026-04-04T09:44:15.999Z</time></trkpt><trkpt lat="43.537157144027894" lon="10.919760398174171"><ele>393.66666666666663</ele><time>2026-04-04T09:44:16.999Z</time></trkpt><trkpt lat="43.53729455569857" lon="10.919642914500901"><ele>392.0</ele><time>2026-04-04T09:44:17.999Z</time></trkpt><trkpt lat="43.53742334055306" lon="10.919523271246035"><ele>392.0</ele><time>2026-04-04T09:44:18.999Z</time></trkpt><trkpt lat="43.53754900700144" lon="10.919411149622974"><ele>392.0</ele><time>2026-04-04T09:44:19.999Z</time></trkpt><trkpt lat="43.53767285484328" lon="10.919298957027362"><ele>392.0</ele><time>2026-04-04T09:44:20.999Z</time></trkpt><trkpt lat="43.537807560989755" lon="10.91920464717058"><ele>392.0</ele><time>2026-04-04T09:44:21.999Z</time></trkpt><trkpt lat="43.53792372657498" lon="10.919075608215334"><ele>390.5</ele><time>2026-04-04T09:44:22.999Z</time></trkpt><trkpt lat="43.538049430475226" lon="10.918966144397501"><ele>389.0</ele><time>2026-04-04T09:44:23.999Z</time></trkpt><trkpt lat="43.53817687834499" lon="10.91885436466067"><ele>387.5</ele><time>2026-04-04T09:44:24.999Z</time></trkpt><trkpt lat="43.538304979630844" lon="10.918747552263206"><ele>386.0</ele><time>2026-04-04T09:44:25.999Z</time></trkpt><trkpt lat="43.53843160216422" lon="10.91863830245354"><ele>386.0</ele><time>2026-04-04T09:44:26.999Z</time></trkpt><trkpt lat="43.5385534310239" lon="10.918531572495256"><ele>386.0</ele><time>2026-04-04T09:44:27.999Z</time></trkpt><trkpt lat="43.53867377484214" lon="10.918417477637627"><ele>386.0</ele><time>2026-04-04T09:44:28.999Z</time></trkpt><trkpt lat="43.538798337382325" lon="10.918310179802488"><ele>386.0</ele><time>2026-04-04T09:44:29.999Z</time></trkpt><trkpt lat="43.53892281751456" lon="10.918208499274526"><ele>385.25</ele><time>2026-04-04T09:44:30.999Z</time></trkpt><trkpt lat="43.53903943267487" lon="10.918117397817637"><ele>384.5</ele><time>2026-04-04T09:44:31.999Z</time></trkpt><trkpt lat="43.539150026106384" lon="10.918025099473342"><ele>383.75</ele><time>2026-04-04T09:44:32.999Z</time></trkpt><trkpt lat="43.539253635492784" lon="10.91794362827802"><ele>383.0</ele><time>2026-04-04T09:44:33.999Z</time></trkpt><trkpt lat="43.539344822530545" lon="10.917840766932917"><ele>383.0</ele><time>2026-04-04T09:44:34.999Z</time></trkpt><trkpt lat="43.539427491340646" lon="10.917739571176678"><ele>383.0</ele><time>2026-04-04T09:44:35.999Z</time></trkpt><trkpt lat="43.53948882805619" lon="10.917567806552517"><ele>383.0</ele><time>2026-04-04T09:44:36.999Z</time></trkpt><trkpt lat="43.539534343085215" lon="10.917373919046666"><ele>383.0</ele><time>2026-04-04T09:44:37.999Z</time></trkpt><trkpt lat="43.53956333793329" lon="10.91715695170228"><ele>380.6666666666667</ele><time>2026-04-04T09:44:38.999Z</time></trkpt><trkpt lat="43.539594748613915" lon="10.91694078767223"><ele>378.3333333333333</ele><time>2026-04-04T09:44:39.999Z</time></trkpt><trkpt lat="43.53963069281973" lon="10.916737027032864"><ele>376.0</ele><time>2026-04-04T09:44:40.999Z</time></trkpt><trkpt lat="43.53967836685334" lon="10.916554700668556"><ele>375.5</ele><time>2026-04-04T09:44:41.999Z</time></trkpt><trkpt lat="43.539744079265986" lon="10.9163866248338"><ele>375.0</ele><time>2026-04-04T09:44:42.999Z</time></trkpt><trkpt lat="43.539813809081885" lon="10.916222849804916"><ele>374.5</ele><time>2026-04-04T09:44:43.999Z</time></trkpt><trkpt lat="43.53987572323862" lon="10.916053115909863"><ele>374.0</ele><time>2026-04-04T09:44:44.999Z</time></trkpt><trkpt lat="43.539958610836685" lon="10.915910022880537"><ele>372.0</ele><time>2026-04-04T09:44:45.999Z</time></trkpt><trkpt lat="43.54004240131906" lon="10.915798418952122"><ele>370.0</ele><time>2026-04-04T09:44:46.999Z</time></trkpt><trkpt lat="43.54013106028244" lon="10.915704566581026"><ele>368.0</ele><time>2026-04-04T09:44:47.999Z</time></trkpt><trkpt lat="43.540201091499256" lon="10.915601192373419"><ele>366.0</ele><time>2026-04-04T09:44:48.999Z</time></trkpt><trkpt lat="43.54024185966237" lon="10.915445472542002"><ele>366.0</ele><time>2026-04-04T09:44:49.999Z</time></trkpt><trkpt lat="43.540262206360495" lon="10.915256848745944"><ele>366.0</ele><time>2026-04-04T09:44:50.999Z</time></trkpt><trkpt lat="43.54028080348589" lon="10.915061245545832"><ele>366.0</ele><time>2026-04-04T09:44:51.999Z</time></trkpt><trkpt lat="43.5403266783398" lon="10.91487870471198"><ele>366.0</ele><time>2026-04-04T09:44:52.999Z</time></trkpt><trkpt lat="43.5403828533929" lon="10.914694399525471"><ele>366.20000000000005</ele><time>2026-04-04T09:44:54Z</time></trkpt><trkpt lat="43.540417024098616" lon="10.914537959292346"><ele>366.40000000000003</ele><time>2026-04-04T09:44:55Z</time></trkpt><trkpt lat="43.540439329393514" lon="10.914392459372868"><ele>366.6</ele><time>2026-04-04T09:44:56Z</time></trkpt><trkpt lat="43.54047873390323" lon="10.914257813621056"><ele>366.8</ele><time>2026-04-04T09:44:57Z</time></trkpt><trkpt lat="43.54051639218608" lon="10.91413344698539"><ele>367.0</ele><time>2026-04-04T09:44:58Z</time></trkpt><trkpt lat="43.54057895476165" lon="10.914059387546722"><ele>365.20000000000005</ele><time>2026-04-04T09:44:59Z</time></trkpt><trkpt lat="43.54060024487011" lon="10.91395954773474"><ele>363.4</ele><time>2026-04-04T09:45:00Z</time></trkpt><trkpt lat="43.54057859064059" lon="10.913834770934574"><ele>361.6</ele><time>2026-04-04T09:45:01Z</time></trkpt><trkpt lat="43.54055062786756" lon="10.913711614349069"><ele>359.79999999999995</ele><time>2026-04-04T09:45:02Z</time></trkpt><trkpt lat="43.540470283052684" lon="10.913583591447889"><ele>358.0</ele><time>2026-04-04T09:45:03Z</time></trkpt><trkpt lat="43.540382045981154" lon="10.913455150436965"><ele>353.5</ele><time>2026-04-04T09:45:04Z</time></trkpt><trkpt lat="43.54031183675898" lon="10.91333174913933"><ele>349.0</ele><time>2026-04-04T09:45:05Z</time></trkpt><trkpt lat="43.54026699322635" lon="10.913187972469652"><ele>344.5</ele><time>2026-04-04T09:45:06Z</time></trkpt><trkpt lat="43.54023195582325" lon="10.913027535520765"><ele>340.0</ele><time>2026-04-04T09:45:07Z</time></trkpt><trkpt lat="43.540203849006005" lon="10.912864672607549"><ele>340.0</ele><time>2026-04-04T09:45:08Z</time></trkpt><trkpt lat="43.54019505030689" lon="10.912701719285023"><ele>340.0</ele><time>2026-04-04T09:45:09Z</time></trkpt><trkpt lat="43.5402101095718" lon="10.912526391297067"><ele>340.0</ele><time>2026-04-04T09:45:10Z</time></trkpt><trkpt lat="43.54020420154024" lon="10.912340741864794"><ele>340.0</ele><time>2026-04-04T09:45:11Z</time></trkpt><trkpt lat="43.54015537479701" lon="10.912155961893"><ele>338.5</ele><time>2026-04-04T09:45:12Z</time></trkpt><trkpt lat="43.54011677072847" lon="10.911981758047515"><ele>337.0</ele><time>2026-04-04T09:45:13Z</time></trkpt><trkpt lat="43.54010112938492" lon="10.91179858486957"><ele>335.5</ele><time>2026-04-04T09:45:14Z</time></trkpt><trkpt lat="43.54008150631587" lon="10.911600489476042"><ele>334.0</ele><time>2026-04-04T09:45:15Z</time></trkpt><trkpt lat="43.540041443410566" lon="10.911409791476673"><ele>333.25</ele><time>2026-04-04T09:45:16Z</time></trkpt><trkpt lat="43.53998941494308" lon="10.911238952668423"><ele>332.5</ele><time>2026-04-04T09:45:17Z</time></trkpt><trkpt lat="43.539942354612016" lon="10.91107882397974"><ele>331.75</ele><time>2026-04-04T09:45:18Z</time></trkpt><trkpt lat="43.53989317583977" lon="10.910913983189594"><ele>331.0</ele><time>2026-04-04T09:45:19Z</time></trkpt><trkpt lat="43.5398430451823" lon="10.91075823226971"><ele>330.75</ele><time>2026-04-04T09:45:20Z</time></trkpt><trkpt lat="43.53978626905034" lon="10.910614014269898"><ele>330.5</ele><time>2026-04-04T09:45:21Z</time></trkpt><trkpt lat="43.539713482793715" lon="10.910487572838164"><ele>330.25</ele><time>2026-04-04T09:45:22Z</time></trkpt><trkpt lat="43.53965098723643" lon="10.910368542763159"><ele>330.0</ele><time>2026-04-04T09:45:23Z</time></trkpt><trkpt lat="43.53960204668306" lon="10.910229623457594"><ele>330.0</ele><time>2026-04-04T09:45:24Z</time></trkpt><trkpt lat="43.53958243080097" lon="10.910059551888974"><ele>330.0</ele><time>2026-04-04T09:45:25Z</time></trkpt><trkpt lat="43.53957392534405" lon="10.909868160343052"><ele>330.0</ele><time>2026-04-04T09:45:26Z</time></trkpt><trkpt lat="43.53956655282697" lon="10.909685596016448"><ele>330.0</ele><time>2026-04-04T09:45:27Z</time></trkpt><trkpt lat="43.53955538270897" lon="10.909500636064912"><ele>326.0</ele><time>2026-04-04T09:45:28Z</time></trkpt><trkpt lat="43.5395328793265" lon="10.909298567682752"><ele>322.0</ele><time>2026-04-04T09:45:29Z</time></trkpt><trkpt lat="43.53949926655967" lon="10.909107283067618"><ele>318.0</ele><time>2026-04-04T09:45:29.999Z</time></trkpt><trkpt lat="43.53946277658926" lon="10.9089326744331"><ele>314.0</ele><time>2026-04-04T09:45:30.999Z</time></trkpt><trkpt lat="43.5394218470582" lon="10.908765779853267"><ele>312.59999999999997</ele><time>2026-04-04T09:45:31.999Z</time></trkpt><trkpt lat="43.539380380777025" lon="10.908610688941087"><ele>311.2</ele><time>2026-04-04T09:45:32.999Z</time></trkpt><trkpt lat="43.53933718431149" lon="10.908468475997891"><ele>309.79999999999995</ele><time>2026-04-04T09:45:33.999Z</time></trkpt><trkpt lat="43.539300872150605" lon="10.908339063690438"><ele>308.4</ele><time>2026-04-04T09:45:34.999Z</time></trkpt><trkpt lat="43.53927681053828" lon="10.908208704406293"><ele>307.0</ele><time>2026-04-04T09:45:35.999Z</time></trkpt><trkpt lat="43.5392757769546" lon="10.908071485532378"><ele>306.25</ele><time>2026-04-04T09:45:36.999Z</time></trkpt><trkpt lat="43.539314791540136" lon="10.907930715950252"><ele>305.5</ele><time>2026-04-04T09:45:37.999Z</time></trkpt><trkpt lat="43.53936569666764" lon="10.907801085655318"><ele>304.75</ele><time>2026-04-04T09:45:38.999Z</time></trkpt><trkpt lat="43.53943826286445" lon="10.907676521064072"><ele>304.0</ele><time>2026-04-04T09:45:39.999Z</time></trkpt><trkpt lat="43.53952179743115" lon="10.907546999199882"><ele>306.75</ele><time>2026-04-04T09:45:40.999Z</time></trkpt><trkpt lat="43.53961384170241" lon="10.90741036206378"><ele>309.5</ele><time>2026-04-04T09:45:41.999Z</time></trkpt><trkpt lat="43.53970682138369" lon="10.907266374044546"><ele>312.25</ele><time>2026-04-04T09:45:42.999Z</time></trkpt><trkpt lat="43.5397875688272" lon="10.90712714446503"><ele>315.0</ele><time>2026-04-04T09:45:43.999Z</time></trkpt><trkpt lat="43.53985713890738" lon="10.907003495162451"><ele>315.0</ele><time>2026-04-04T09:45:44.999Z</time></trkpt><trkpt lat="43.53990480814989" lon="10.906895400602385"><ele>315.0</ele><time>2026-04-04T09:45:45.999Z</time></trkpt><trkpt lat="43.53995970871307" lon="10.906783312867018"><ele>315.0</ele><time>2026-04-04T09:45:46.999Z</time></trkpt><trkpt lat="43.5399992679278" lon="10.906685720921761"><ele>315.0</ele><time>2026-04-04T09:45:47.999Z</time></trkpt><trkpt lat="43.540025147194406" lon="10.906600228504727"><ele>315.0</ele><time>2026-04-04T09:45:48.999Z</time></trkpt><trkpt lat="43.54005922052633" lon="10.906481008996407"><ele>315.0</ele><time>2026-04-04T09:45:50.999Z</time></trkpt><trkpt lat="43.54008146035689" lon="10.906391535542438"><ele>312.4</ele><time>2026-04-04T09:45:53.999Z</time></trkpt><trkpt lat="43.54011602976991" lon="10.906288060966649"><ele>309.8</ele><time>2026-04-04T09:45:57.999Z</time></trkpt><trkpt lat="43.539996988864566" lon="10.906156513282868"><ele>307.2</ele><time>2026-04-04T09:45:58.999Z</time></trkpt><trkpt lat="43.539913458517425" lon="10.906091555915228"><ele>304.6</ele><time>2026-04-04T09:45:59.999Z</time></trkpt><trkpt lat="43.5398143651616" lon="10.906012710060478"><ele>302.0</ele><time>2026-04-04T09:46:00.999Z</time></trkpt><trkpt lat="43.53970583832047" lon="10.905937701832112"><ele>300.5</ele><time>2026-04-04T09:46:01.999Z</time></trkpt><trkpt lat="43.539578920727756" lon="10.905879679099435"><ele>299.0</ele><time>2026-04-04T09:46:02.999Z</time></trkpt><trkpt lat="43.53945600116046" lon="10.90585829942447"><ele>297.5</ele><time>2026-04-04T09:46:03.999Z</time></trkpt><trkpt lat="43.53932910715731" lon="10.905906082805803"><ele>296.0</ele><time>2026-04-04T09:46:04.999Z</time></trkpt><trkpt lat="43.53921245203787" lon="10.906027646608589"><ele>296.0</ele><time>2026-04-04T09:46:05.999Z</time></trkpt><trkpt lat="43.53907360891256" lon="10.906146036125138"><ele>296.0</ele><time>2026-04-04T09:46:06.999Z</time></trkpt><trkpt lat="43.538936020188906" lon="10.906283188479952"><ele>296.0</ele><time>2026-04-04T09:46:07.999Z</time></trkpt><trkpt lat="43.5388243278367" lon="10.906395764654011"><ele>293.0</ele><time>2026-04-04T09:46:08.999Z</time></trkpt><trkpt lat="43.53871558386984" lon="10.906516369581642"><ele>290.0</ele><time>2026-04-04T09:46:09.999Z</time></trkpt><trkpt lat="43.53863158311391" lon="10.90666300144951"><ele>287.0</ele><time>2026-04-04T09:46:10.999Z</time></trkpt><trkpt lat="43.53854660489381" lon="10.906826297460169"><ele>284.0</ele><time>2026-04-04T09:46:11.999Z</time></trkpt><trkpt lat="43.538468899988715" lon="10.907023004654713"><ele>284.0</ele><time>2026-04-04T09:46:12.999Z</time></trkpt><trkpt lat="43.538394759042305" lon="10.90722942969166"><ele>284.0</ele><time>2026-04-04T09:46:13.999Z</time></trkpt><trkpt lat="43.53831589920283" lon="10.907415107864498"><ele>284.0</ele><time>2026-04-04T09:46:14.999Z</time></trkpt><trkpt lat="43.538252204358564" lon="10.907585752858873"><ele>285.59999999999997</ele><time>2026-04-04T09:46:15.999Z</time></trkpt><trkpt lat="43.538195308482834" lon="10.907742501613184"><ele>287.2</ele><time>2026-04-04T09:46:16.999Z</time></trkpt><trkpt lat="43.53812690937342" lon="10.907859664864116"><ele>288.79999999999995</ele><time>2026-04-04T09:46:17.999Z</time></trkpt><trkpt lat="43.53806793929682" lon="10.907952947596193"><ele>290.4</ele><time>2026-04-04T09:46:18.999Z</time></trkpt><trkpt lat="43.53800523797488" lon="10.908025022883882"><ele>292.0</ele><time>2026-04-04T09:46:19.999Z</time></trkpt><trkpt lat="43.537913062617626" lon="10.908028946889129"><ele>293.25</ele><time>2026-04-04T09:46:20.999Z</time></trkpt><trkpt lat="43.53780419904776" lon="10.907999895679728"><ele>294.5</ele><time>2026-04-04T09:46:21.999Z</time></trkpt><trkpt lat="43.53765958884584" lon="10.907959125511493"><ele>295.75</ele><time>2026-04-04T09:46:22.999Z</time></trkpt><trkpt lat="43.53750838442207" lon="10.907913839260273"><ele>297.0</ele><time>2026-04-04T09:46:23.999Z</time></trkpt><trkpt lat="43.53737469985778" lon="10.90787380023484"><ele>297.0</ele><time>2026-04-04T09:46:24.999Z</time></trkpt><trkpt lat="43.53725603022811" lon="10.907838735009731"><ele>297.0</ele><time>2026-04-04T09:46:25.999Z</time></trkpt><trkpt lat="43.53714956010991" lon="10.90780837441197"><ele>297.0</ele><time>2026-04-04T09:46:26.999Z</time></trkpt><trkpt lat="43.53704910469125" lon="10.907779728728011"><ele>297.0</ele><time>2026-04-04T09:46:27.999Z</time></trkpt><trkpt lat="43.53695193606028" lon="10.907757044088783"><ele>297.0</ele><time>2026-04-04T09:46:28.999Z</time></trkpt><trkpt lat="43.53685823868031" lon="10.907738018602654"><ele>295.5</ele><time>2026-04-04T09:46:29.999Z</time></trkpt><trkpt lat="43.536759940877204" lon="10.907744378233259"><ele>294.0</ele><time>2026-04-04T09:46:30.999Z</time></trkpt><trkpt lat="43.5366685091393" lon="10.907782356802572"><ele>292.5</ele><time>2026-04-04T09:46:31.999Z</time></trkpt><trkpt lat="43.53658330971891" lon="10.907907723079921"><ele>291.0</ele><time>2026-04-04T09:46:32.999Z</time></trkpt><trkpt lat="43.53650928465222" lon="10.90806181173672"><ele>291.0</ele><time>2026-04-04T09:46:33.999Z</time></trkpt><trkpt lat="43.536457450912565" lon="10.908238680148807"><ele>291.0</ele><time>2026-04-04T09:46:34.999Z</time></trkpt><trkpt lat="43.53640469372964" lon="10.90839870889788"><ele>291.0</ele><time>2026-04-04T09:46:35.999Z</time></trkpt><trkpt lat="43.536325824448376" lon="10.908522045632536"><ele>291.0</ele><time>2026-04-04T09:46:36.999Z</time></trkpt><trkpt lat="43.53624787189332" lon="10.908630630044087"><ele>292.25</ele><time>2026-04-04T09:46:37.999Z</time></trkpt><trkpt lat="43.53614691999208" lon="10.908708374205865"><ele>293.5</ele><time>2026-04-04T09:46:38.999Z</time></trkpt><trkpt lat="43.536031504254154" lon="10.908781387401765"><ele>294.75</ele><time>2026-04-04T09:46:39.999Z</time></trkpt><trkpt lat="43.53590924584331" lon="10.908851825244756"><ele>296.0</ele><time>2026-04-04T09:46:40.999Z</time></trkpt><trkpt lat="43.535798718481935" lon="10.908911762679052"><ele>296.0</ele><time>2026-04-04T09:46:41.999Z</time></trkpt><trkpt lat="43.53569693995828" lon="10.908958937689082"><ele>296.0</ele><time>2026-04-04T09:46:42.999Z</time></trkpt><trkpt lat="43.53560319806491" lon="10.90898408313359"><ele>296.0</ele><time>2026-04-04T09:46:43.999Z</time></trkpt><trkpt lat="43.53552070186324" lon="10.908977113104067"><ele>296.0</ele><time>2026-04-04T09:46:44.999Z</time></trkpt><trkpt lat="43.53545006131521" lon="10.908926742383048"><ele>296.0</ele><time>2026-04-04T09:46:45.999Z</time></trkpt><trkpt lat="43.53537229744756" lon="10.908854785934148"><ele>293.5</ele><time>2026-04-04T09:46:46.999Z</time></trkpt><trkpt lat="43.53532891355612" lon="10.90873591498335"><ele>291.0</ele><time>2026-04-04T09:46:47.999Z</time></trkpt><trkpt lat="43.535275323603784" lon="10.90861989705043"><ele>288.5</ele><time>2026-04-04T09:46:48.999Z</time></trkpt><trkpt lat="43.53522877318566" lon="10.908521207624666"><ele>286.0</ele><time>2026-04-04T09:46:49.999Z</time></trkpt><trkpt lat="43.53518590322991" lon="10.908431571036813"><ele>283.5</ele><time>2026-04-04T09:46:50.999Z</time></trkpt><trkpt lat="43.53515523416462" lon="10.908341265003706"><ele>281.0</ele><time>2026-04-04T09:46:51.999Z</time></trkpt><trkpt lat="43.53514212762029" lon="10.908223105040825"><ele>280.5</ele><time>2026-04-04T09:46:52.999Z</time></trkpt><trkpt lat="43.53517158062549" lon="10.908083530280647"><ele>280.0</ele><time>2026-04-04T09:46:53.999Z</time></trkpt><trkpt lat="43.53523386662316" lon="10.907941552847934"><ele>279.5</ele><time>2026-04-04T09:46:54.999Z</time></trkpt><trkpt lat="43.53534943972709" lon="10.907802755381415"><ele>279.0</ele><time>2026-04-04T09:46:55.999Z</time></trkpt><trkpt lat="43.53548434657751" lon="10.907636249262682"><ele>279.3333333333333</ele><time>2026-04-04T09:46:56.999Z</time></trkpt><trkpt lat="43.53562781014691" lon="10.907458226957536"><ele>279.66666666666663</ele><time>2026-04-04T09:46:57.999Z</time></trkpt><trkpt lat="43.53576886570498" lon="10.907275080314388"><ele>280.0</ele><time>2026-04-04T09:46:58.999Z</time></trkpt><trkpt lat="43.53590826393205" lon="10.907066376956518"><ele>280.0</ele><time>2026-04-04T09:47:00Z</time></trkpt><trkpt lat="43.53602455322353" lon="10.906882884588068"><ele>280.0</ele><time>2026-04-04T09:47:01Z</time></trkpt><trkpt lat="43.53613142955939" lon="10.90671113906964"><ele>280.0</ele><time>2026-04-04T09:47:02Z</time></trkpt><trkpt lat="43.536240078909756" lon="10.906557264509752"><ele>280.3333333333333</ele><time>2026-04-04T09:47:03Z</time></trkpt><trkpt lat="43.53637283705532" lon="10.906404246753334"><ele>280.6666666666667</ele><time>2026-04-04T09:47:04Z</time></trkpt><trkpt lat="43.53653829881105" lon="10.90626807464851"><ele>281.0</ele><time>2026-04-04T09:47:05Z</time></trkpt><trkpt lat="43.53672334431433" lon="10.906136971567777"><ele>281.0</ele><time>2026-04-04T09:47:06Z</time></trkpt><trkpt lat="43.53689735596003" lon="10.906002885728523"><ele>281.0</ele><time>2026-04-04T09:47:07Z</time></trkpt><trkpt lat="43.537053480172375" lon="10.90587095159714"><ele>281.0</ele><time>2026-04-04T09:47:08Z</time></trkpt><trkpt lat="43.53719558041336" lon="10.905722124585406"><ele>282.6666666666667</ele><time>2026-04-04T09:47:09Z</time></trkpt><trkpt lat="43.5373070003477" lon="10.90555593244482"><ele>284.3333333333333</ele><time>2026-04-04T09:47:10Z</time></trkpt><trkpt lat="43.53741838784869" lon="10.905403149597102"><ele>286.0</ele><time>2026-04-04T09:47:11Z</time></trkpt><trkpt lat="43.537547748405224" lon="10.905284333567453"><ele>286.0</ele><time>2026-04-04T09:47:12Z</time></trkpt><trkpt lat="43.53770318943121" lon="10.905197348923233"><ele>286.0</ele><time>2026-04-04T09:47:13Z</time></trkpt><trkpt lat="43.537871586805316" lon="10.905148427357204"><ele>286.0</ele><time>2026-04-04T09:47:14Z</time></trkpt><trkpt lat="43.53801193171472" lon="10.905096798800288"><ele>288.25</ele><time>2026-04-04T09:47:15Z</time></trkpt><trkpt lat="43.538130495967934" lon="10.905045619409606"><ele>290.5</ele><time>2026-04-04T09:47:16Z</time></trkpt><trkpt lat="43.53823641463926" lon="10.904992866653862"><ele>292.75</ele><time>2026-04-04T09:47:17Z</time></trkpt><trkpt lat="43.53833213935442" lon="10.904902236236955"><ele>295.0</ele><time>2026-04-04T09:47:18Z</time></trkpt><trkpt lat="43.538415178922946" lon="10.904767707167283"><ele>295.0</ele><time>2026-04-04T09:47:19Z</time></trkpt><trkpt lat="43.53845397894997" lon="10.904589298502529"><ele>295.0</ele><time>2026-04-04T09:47:20Z</time></trkpt><trkpt lat="43.53849763134787" lon="10.904432100423662"><ele>295.0</ele><time>2026-04-04T09:47:21Z</time></trkpt><trkpt lat="43.53847063487561" lon="10.904205668041008"><ele>295.0</ele><time>2026-04-04T09:47:22Z</time></trkpt><trkpt lat="43.53842607517976" lon="10.903945051220905"><ele>299.0</ele><time>2026-04-04T09:47:23Z</time></trkpt><trkpt lat="43.53837300572939" lon="10.903676617336428"><ele>303.0</ele><time>2026-04-04T09:47:24Z</time></trkpt><trkpt lat="43.538324143297196" lon="10.903404284212176"><ele>307.0</ele><time>2026-04-04T09:47:25Z</time></trkpt><trkpt lat="43.538291084339235" lon="10.903131176525596"><ele>308.3333333333333</ele><time>2026-04-04T09:47:26Z</time></trkpt><trkpt lat="43.53825693621882" lon="10.902907286593992"><ele>309.6666666666667</ele><time>2026-04-04T09:47:27Z</time></trkpt><trkpt lat="43.53822053018306" lon="10.902699970522033"><ele>311.0</ele><time>2026-04-04T09:47:28Z</time></trkpt><trkpt lat="43.53817019806711" lon="10.902508554741463"><ele>313.0</ele><time>2026-04-04T09:47:29Z</time></trkpt><trkpt lat="43.53807341328375" lon="10.90232949766724"><ele>315.0</ele><time>2026-04-04T09:47:30Z</time></trkpt><trkpt lat="43.53794053608837" lon="10.902176020702614"><ele>317.0</ele><time>2026-04-04T09:47:31Z</time></trkpt><trkpt lat="43.537779452247776" lon="10.902048050396838"><ele>317.0</ele><time>2026-04-04T09:47:32Z</time></trkpt><trkpt lat="43.53764526842918" lon="10.901905342855029"><ele>317.0</ele><time>2026-04-04T09:47:33Z</time></trkpt><trkpt lat="43.537526943071285" lon="10.901788859460897"><ele>317.0</ele><time>2026-04-04T09:47:34Z</time></trkpt><trkpt lat="43.53743517880581" lon="10.90167199183018"><ele>317.0</ele><time>2026-04-04T09:47:35Z</time></trkpt><trkpt lat="43.53735830538483" lon="10.901525433330384"><ele>318.0</ele><time>2026-04-04T09:47:36Z</time></trkpt><trkpt lat="43.53730941713529" lon="10.901342073545411"><ele>319.0</ele><time>2026-04-04T09:47:37Z</time></trkpt><trkpt lat="43.53726964764089" lon="10.901111291599708"><ele>320.0</ele><time>2026-04-04T09:47:38Z</time></trkpt><trkpt lat="43.53723072018315" lon="10.900833651619417"><ele>323.6666666666667</ele><time>2026-04-04T09:47:38.999Z</time></trkpt><trkpt lat="43.53719504323122" lon="10.900572717574764"><ele>327.3333333333333</ele><time>2026-04-04T09:47:39.999Z</time></trkpt><trkpt lat="43.537154669409716" lon="10.90031905453449"><ele>331.0</ele><time>2026-04-04T09:47:40.999Z</time></trkpt><trkpt lat="43.53710306909312" lon="10.900056974309578"><ele>332.3333333333333</ele><time>2026-04-04T09:47:41.999Z</time></trkpt><trkpt lat="43.53703876083576" lon="10.899785064188537"><ele>333.6666666666667</ele><time>2026-04-04T09:47:42.999Z</time></trkpt><trkpt lat="43.536971355488014" lon="10.899556509401277"><ele>335.0</ele><time>2026-04-04T09:47:43.999Z</time></trkpt><trkpt lat="43.536899455108" lon="10.899347352924355"><ele>335.0</ele><time>2026-04-04T09:47:44.999Z</time></trkpt><trkpt lat="43.53679399449334" lon="10.899144741097885"><ele>335.0</ele><time>2026-04-04T09:47:45.999Z</time></trkpt><trkpt lat="43.536641485982784" lon="10.898973466923945"><ele>335.0</ele><time>2026-04-04T09:47:46.999Z</time></trkpt><trkpt lat="43.536484331890684" lon="10.898774239944439"><ele>335.0</ele><time>2026-04-04T09:47:47.999Z</time></trkpt><trkpt lat="43.53631515071902" lon="10.898584422321958"><ele>335.0</ele><time>2026-04-04T09:47:48.999Z</time></trkpt><trkpt lat="43.536143369180216" lon="10.898392578716956"><ele>335.0</ele><time>2026-04-04T09:47:49.999Z</time></trkpt><trkpt lat="43.53596039183925" lon="10.898185510228997"><ele>337.5</ele><time>2026-04-04T09:47:50.999Z</time></trkpt><trkpt lat="43.53576961781405" lon="10.897968404884972"><ele>340.0</ele><time>2026-04-04T09:47:51.999Z</time></trkpt><trkpt lat="43.53558983025378" lon="10.897763565393227"><ele>342.3333333333333</ele><time>2026-04-04T09:47:52.999Z</time></trkpt><trkpt lat="43.53542316242176" lon="10.89757411894244"><ele>344.6666666666667</ele><time>2026-04-04T09:47:53.999Z</time></trkpt><trkpt lat="43.535268404682" lon="10.897405102912632"><ele>347.0</ele><time>2026-04-04T09:47:54.999Z</time></trkpt><trkpt lat="43.53510485147354" lon="10.897283564025427"><ele>347.0</ele><time>2026-04-04T09:47:55.999Z</time></trkpt><trkpt lat="43.53493493493886" lon="10.897181624386054"><ele>347.0</ele><time>2026-04-04T09:47:56.999Z</time></trkpt><trkpt lat="43.534738993545545" lon="10.897117192197621"><ele>347.0</ele><time>2026-04-04T09:47:57.999Z</time></trkpt><trkpt lat="43.534513123857366" lon="10.89709759752153"><ele>348.6666666666667</ele><time>2026-04-04T09:47:58.999Z</time></trkpt><trkpt lat="43.53431246996771" lon="10.897076164683744"><ele>350.3333333333333</ele><time>2026-04-04T09:47:59.999Z</time></trkpt><trkpt lat="43.534146409784356" lon="10.897060848619256"><ele>352.0</ele><time>2026-04-04T09:48:00.999Z</time></trkpt><trkpt lat="43.53400323214942" lon="10.897046944266751"><ele>352.0</ele><time>2026-04-04T09:48:01.999Z</time></trkpt><trkpt lat="43.53388397009523" lon="10.897031267262753"><ele>352.0</ele><time>2026-04-04T09:48:02.999Z</time></trkpt><trkpt lat="43.53377223497287" lon="10.897016579671158"><ele>352.0</ele><time>2026-04-04T09:48:03.999Z</time></trkpt><trkpt lat="43.53365992920951" lon="10.897003851280845"><ele>352.0</ele><time>2026-04-04T09:48:04.999Z</time></trkpt><trkpt lat="43.533541467645136" lon="10.897001950260838"><ele>353.25</ele><time>2026-04-04T09:48:05.999Z</time></trkpt><trkpt lat="43.53343571422007" lon="10.897052877921608"><ele>354.5</ele><time>2026-04-04T09:48:06.999Z</time></trkpt><trkpt lat="43.53332525943646" lon="10.897110866118693"><ele>355.75</ele><time>2026-04-04T09:48:07.999Z</time></trkpt><trkpt lat="43.53320687931548" lon="10.897223486693608"><ele>357.0</ele><time>2026-04-04T09:48:08.999Z</time></trkpt><trkpt lat="43.53310139141332" lon="10.897392297173708"><ele>357.0</ele><time>2026-04-04T09:48:09.999Z</time></trkpt><trkpt lat="43.53301994577465" lon="10.897577226877608"><ele>357.0</ele><time>2026-04-04T09:48:10.999Z</time></trkpt><trkpt lat="43.532960837155294" lon="10.897752605372036"><ele>357.0</ele><time>2026-04-04T09:48:11.999Z</time></trkpt><trkpt lat="43.53292405189816" lon="10.897910441203846"><ele>357.0</ele><time>2026-04-04T09:48:12.999Z</time></trkpt><trkpt lat="43.53294149494239" lon="10.898096422998671"><ele>357.0</ele><time>2026-04-04T09:48:13.999Z</time></trkpt><trkpt lat="43.53299787268203" lon="10.898280607408438"><ele>357.0</ele><time>2026-04-04T09:48:14.999Z</time></trkpt><trkpt lat="43.533102353424546" lon="10.898468163522342"><ele>357.0</ele><time>2026-04-04T09:48:15.999Z</time></trkpt><trkpt lat="43.53321787053084" lon="10.89865646758652"><ele>358.75</ele><time>2026-04-04T09:48:16.999Z</time></trkpt><trkpt lat="43.53331780815061" lon="10.898817323853926"><ele>360.5</ele><time>2026-04-04T09:48:17.999Z</time></trkpt><trkpt lat="43.533395687827635" lon="10.898955137431907"><ele>362.25</ele><time>2026-04-04T09:48:18.999Z</time></trkpt><trkpt lat="43.53344432517195" lon="10.8990764765101"><ele>364.0</ele><time>2026-04-04T09:48:19.999Z</time></trkpt><trkpt lat="43.53346575524332" lon="10.89919828946544"><ele>364.6</ele><time>2026-04-04T09:48:20.999Z</time></trkpt><trkpt lat="43.53343326404451" lon="10.899321304888486"><ele>365.2</ele><time>2026-04-04T09:48:21.999Z</time></trkpt><trkpt lat="43.53336080841017" lon="10.899445535803906"><ele>365.8</ele><time>2026-04-04T09:48:22.999Z</time></trkpt><trkpt lat="43.533269525299715" lon="10.89951882379552"><ele>366.40000000000003</ele><time>2026-04-04T09:48:23.999Z</time></trkpt><trkpt lat="43.53315184276255" lon="10.899548013380633"><ele>367.0</ele><time>2026-04-04T09:48:24.999Z</time></trkpt><trkpt lat="43.53300464388044" lon="10.899549313437703"><ele>369.3333333333333</ele><time>2026-04-04T09:48:25.999Z</time></trkpt><trkpt lat="43.53283380291628" lon="10.899549842059672"><ele>371.6666666666667</ele><time>2026-04-04T09:48:26.999Z</time></trkpt><trkpt lat="43.53263943118479" lon="10.899554276151864"><ele>374.0</ele><time>2026-04-04T09:48:27.999Z</time></trkpt><trkpt lat="43.53242955683609" lon="10.899560630397177"><ele>374.0</ele><time>2026-04-04T09:48:28.999Z</time></trkpt><trkpt lat="43.53223293495172" lon="10.89956602723467"><ele>374.0</ele><time>2026-04-04T09:48:29.999Z</time></trkpt><trkpt lat="43.53205399861146" lon="10.899572869867074"><ele>374.0</ele><time>2026-04-04T09:48:30.999Z</time></trkpt><trkpt lat="43.53188971676557" lon="10.899578813471361"><ele>373.33333333333337</ele><time>2026-04-04T09:48:31.999Z</time></trkpt><trkpt lat="43.531738142427805" lon="10.899566685468642"><ele>372.6666666666667</ele><time>2026-04-04T09:48:32.999Z</time></trkpt><trkpt lat="43.531582631401854" lon="10.899522346462112"><ele>372.0</ele><time>2026-04-04T09:48:33.999Z</time></trkpt><trkpt lat="43.53142323770781" lon="10.899447582835142"><ele>372.0</ele><time>2026-04-04T09:48:34.999Z</time></trkpt><trkpt lat="43.531252274868976" lon="10.899350896762797"><ele>372.0</ele><time>2026-04-04T09:48:35.999Z</time></trkpt><trkpt lat="43.531072645791276" lon="10.899238074957378"><ele>372.0</ele><time>2026-04-04T09:48:36.999Z</time></trkpt><trkpt lat="43.530884929555114" lon="10.899113477271182"><ele>375.3333333333333</ele><time>2026-04-04T09:48:37.999Z</time></trkpt><trkpt lat="43.53071033109841" lon="10.898986771981368"><ele>378.66666666666663</ele><time>2026-04-04T09:48:38.999Z</time></trkpt><trkpt lat="43.530557364233815" lon="10.898866743040118"><ele>382.0</ele><time>2026-04-04T09:48:39.999Z</time></trkpt><trkpt lat="43.53042058441551" lon="10.898758732376535"><ele>384.66666666666663</ele><time>2026-04-04T09:48:40.999Z</time></trkpt><trkpt lat="43.530286863504706" lon="10.898647238277778"><ele>387.3333333333333</ele><time>2026-04-04T09:48:41.999Z</time></trkpt><trkpt lat="43.53013896133888" lon="10.898525769606284"><ele>390.0</ele><time>2026-04-04T09:48:42.999Z</time></trkpt><trkpt lat="43.52997821524499" lon="10.898402250791667"><ele>390.0</ele><time>2026-04-04T09:48:43.999Z</time></trkpt><trkpt lat="43.52979571383499" lon="10.89827209422169"><ele>390.0</ele><time>2026-04-04T09:48:44.999Z</time></trkpt><trkpt lat="43.52961985920351" lon="10.898159334760466"><ele>390.0</ele><time>2026-04-04T09:48:45.999Z</time></trkpt><trkpt lat="43.52946314266594" lon="10.898060784283228"><ele>390.0</ele><time>2026-04-04T09:48:46.999Z</time></trkpt><trkpt lat="43.529323068288484" lon="10.897964604874462"><ele>390.0</ele><time>2026-04-04T09:48:47.999Z</time></trkpt><trkpt lat="43.52919071112838" lon="10.8978679560721"><ele>390.0</ele><time>2026-04-04T09:48:48.999Z</time></trkpt><trkpt lat="43.529056220085614" lon="10.897759618711213"><ele>390.0</ele><time>2026-04-04T09:48:49.999Z</time></trkpt><trkpt lat="43.528908957326564" lon="10.897623802757561"><ele>390.0</ele><time>2026-04-04T09:48:50.999Z</time></trkpt><trkpt lat="43.52874403185698" lon="10.897484939502236"><ele>390.0</ele><time>2026-04-04T09:48:51.999Z</time></trkpt><trkpt lat="43.52855321321655" lon="10.897378289971082"><ele>393.5</ele><time>2026-04-04T09:48:52.999Z</time></trkpt><trkpt lat="43.52833286415404" lon="10.897301387440177"><ele>397.0</ele><time>2026-04-04T09:48:53.999Z</time></trkpt><trkpt lat="43.52810818139149" lon="10.89722977374406"><ele>395.5</ele><time>2026-04-04T09:48:54.999Z</time></trkpt><trkpt lat="43.52788078137545" lon="10.897157293956742"><ele>394.0</ele><time>2026-04-04T09:48:55.999Z</time></trkpt><trkpt lat="43.52763735389273" lon="10.897077127432759"><ele>394.0</ele><time>2026-04-04T09:48:56.999Z</time></trkpt><trkpt lat="43.52739775377254" lon="10.89699489801049"><ele>394.0</ele><time>2026-04-04T09:48:57.999Z</time></trkpt><trkpt lat="43.52718102334899" lon="10.89691816289201"><ele>393.6666666666667</ele><time>2026-04-04T09:48:58.999Z</time></trkpt><trkpt lat="43.52699285120894" lon="10.896851588178295"><ele>393.33333333333337</ele><time>2026-04-04T09:48:59.999Z</time></trkpt><trkpt lat="43.526823698548625" lon="10.896793042299992"><ele>393.0</ele><time>2026-04-04T09:49:00.999Z</time></trkpt><trkpt lat="43.52666388728077" lon="10.896739835620949"><ele>393.0</ele><time>2026-04-04T09:49:01.999Z</time></trkpt><trkpt lat="43.52652787705034" lon="10.8966920382431"><ele>393.0</ele><time>2026-04-04T09:49:02.999Z</time></trkpt><trkpt lat="43.52641477181562" lon="10.896649796592083"><ele>393.0</ele><time>2026-04-04T09:49:03.999Z</time></trkpt><trkpt lat="43.52631256507616" lon="10.89661103810315"><ele>393.0</ele><time>2026-04-04T09:49:04.999Z</time></trkpt><trkpt lat="43.52622350121811" lon="10.896571956872538"><ele>395.75</ele><time>2026-04-04T09:49:06Z</time></trkpt><trkpt lat="43.52611209031522" lon="10.896523170872458"><ele>398.5</ele><time>2026-04-04T09:49:07Z</time></trkpt><trkpt lat="43.52597244783158" lon="10.896470985230593"><ele>401.25</ele><time>2026-04-04T09:49:08Z</time></trkpt><trkpt lat="43.52582808348229" lon="10.896449571971202"><ele>404.0</ele><time>2026-04-04T09:49:09Z</time></trkpt><trkpt lat="43.52571138157227" lon="10.896456145761487"><ele>404.0</ele><time>2026-04-04T09:49:10Z</time></trkpt><trkpt lat="43.52561436245933" lon="10.896479913738164"><ele>404.0</ele><time>2026-04-04T09:49:11Z</time></trkpt><trkpt lat="43.52550038902633" lon="10.896542188510248"><ele>404.0</ele><time>2026-04-04T09:49:12Z</time></trkpt><trkpt lat="43.525385132665726" lon="10.896626843723114"><ele>404.0</ele><time>2026-04-04T09:49:13Z</time></trkpt><trkpt lat="43.52529276003571" lon="10.896709073157602"><ele>406.5</ele><time>2026-04-04T09:49:14Z</time></trkpt><trkpt lat="43.52520694264877" lon="10.89680239628148"><ele>409.0</ele><time>2026-04-04T09:49:15Z</time></trkpt><trkpt lat="43.52512314380882" lon="10.896899701326014"><ele>411.5</ele><time>2026-04-04T09:49:16Z</time></trkpt><trkpt lat="43.52503398590189" lon="10.897022129768594"><ele>414.0</ele><time>2026-04-04T09:49:17Z</time></trkpt><trkpt lat="43.52494936511413" lon="10.89718525535117"><ele>414.0</ele><time>2026-04-04T09:49:18Z</time></trkpt><trkpt lat="43.524855380762254" lon="10.897368617346498"><ele>414.0</ele><time>2026-04-04T09:49:19Z</time></trkpt><trkpt lat="43.52475440899736" lon="10.897528322855191"><ele>414.0</ele><time>2026-04-04T09:49:20Z</time></trkpt><trkpt lat="43.52467858253108" lon="10.897669226364634"><ele>414.0</ele><time>2026-04-04T09:49:21Z</time></trkpt><trkpt lat="43.524615261135736" lon="10.897781309424458"><ele>414.6666666666667</ele><time>2026-04-04T09:49:22Z</time></trkpt><trkpt lat="43.52456355285476" lon="10.897870665763971"><ele>415.33333333333337</ele><time>2026-04-04T09:49:23Z</time></trkpt><trkpt lat="43.52451509467456" lon="10.89795222717456"><ele>416.0</ele><time>2026-04-04T09:49:24Z</time></trkpt><trkpt lat="43.52443124744714" lon="10.89798939625245"><ele>416.6666666666667</ele><time>2026-04-04T09:49:26Z</time></trkpt><trkpt lat="43.52440812401023" lon="10.897865931867067"><ele>417.33333333333337</ele><time>2026-04-04T09:49:27Z</time></trkpt><trkpt lat="43.524378111982045" lon="10.89775485287449"><ele>418.0</ele><time>2026-04-04T09:49:28Z</time></trkpt><trkpt lat="43.52434654051366" lon="10.897612862965541"><ele>416.75</ele><time>2026-04-04T09:49:29Z</time></trkpt><trkpt lat="43.52430705518308" lon="10.897441054119366"><ele>415.5</ele><time>2026-04-04T09:49:30Z</time></trkpt><trkpt lat="43.524263656998066" lon="10.89725245275778"><ele>414.25</ele><time>2026-04-04T09:49:31Z</time></trkpt><trkpt lat="43.52422184824091" lon="10.897071569191041"><ele>413.0</ele><time>2026-04-04T09:49:32Z</time></trkpt><trkpt lat="43.52418179149409" lon="10.89689826563142"><ele>412.75</ele><time>2026-04-04T09:49:33Z</time></trkpt><trkpt lat="43.524144230791855" lon="10.89673576107774"><ele>412.5</ele><time>2026-04-04T09:49:34Z</time></trkpt><trkpt lat="43.52410736175213" lon="10.896576248973206"><ele>412.25</ele><time>2026-04-04T09:49:35Z</time></trkpt><trkpt lat="43.524071966789705" lon="10.896423114400001"><ele>412.0</ele><time>2026-04-04T09:49:36Z</time></trkpt><trkpt lat="43.52403676650069" lon="10.89627082205247"><ele>412.0</ele><time>2026-04-04T09:49:37Z</time></trkpt><trkpt lat="43.523987993646934" lon="10.896131208803856"><ele>412.0</ele><time>2026-04-04T09:49:38Z</time></trkpt><trkpt lat="43.523953304546595" lon="10.895980327607127"><ele>412.0</ele><time>2026-04-04T09:49:39Z</time></trkpt><trkpt lat="43.5239225511785" lon="10.895824335097789"><ele>412.0</ele><time>2026-04-04T09:49:40Z</time></trkpt><trkpt lat="43.52388936199065" lon="10.89568373791035"><ele>411.1666666666667</ele><time>2026-04-04T09:49:41Z</time></trkpt><trkpt lat="43.523859922967105" lon="10.895547344532792"><ele>410.33333333333337</ele><time>2026-04-04T09:49:42Z</time></trkpt><trkpt lat="43.52382896235009" lon="10.895423452153635"><ele>409.5</ele><time>2026-04-04T09:49:43Z</time></trkpt><trkpt lat="43.52380683045609" lon="10.89531498282768"><ele>408.66666666666663</ele><time>2026-04-04T09:49:44Z</time></trkpt><trkpt lat="43.52377743236693" lon="10.895212924733379"><ele>407.8333333333333</ele><time>2026-04-04T09:49:45Z</time></trkpt><trkpt lat="43.5237572512701" lon="10.895093941485639"><ele>407.0</ele><time>2026-04-04T09:49:46Z</time></trkpt><trkpt lat="43.52371221427934" lon="10.894948149157429"><ele>405.75</ele><time>2026-04-04T09:49:46.999Z</time></trkpt><trkpt lat="43.52365208479357" lon="10.894791552883826"><ele>404.5</ele><time>2026-04-04T09:49:47.999Z</time></trkpt><trkpt lat="43.52356855133221" lon="10.89464508809044"><ele>403.25</ele><time>2026-04-04T09:49:48.999Z</time></trkpt><trkpt lat="43.52352473920067" lon="10.894497768994658"><ele>402.0</ele><time>2026-04-04T09:49:49.999Z</time></trkpt><trkpt lat="43.52347187566677" lon="10.894370838854774"><ele>403.5</ele><time>2026-04-04T09:49:50.999Z</time></trkpt><trkpt lat="43.523413560251676" lon="10.89422812349343"><ele>405.0</ele><time>2026-04-04T09:49:51.999Z</time></trkpt><trkpt lat="43.523354612637064" lon="10.894067455681274"><ele>406.5</ele><time>2026-04-04T09:49:52.999Z</time></trkpt><trkpt lat="43.523302015002024" lon="10.893885945271307"><ele>408.0</ele><time>2026-04-04T09:49:53.999Z</time></trkpt><trkpt lat="43.523243836081875" lon="10.893688272562493"><ele>408.0</ele><time>2026-04-04T09:49:54.999Z</time></trkpt><trkpt lat="43.52318001938743" lon="10.893482099229276"><ele>408.0</ele><time>2026-04-04T09:49:55.999Z</time></trkpt><trkpt lat="43.52311074430295" lon="10.89326673097975"><ele>408.0</ele><time>2026-04-04T09:49:56.999Z</time></trkpt><trkpt lat="43.52304244448237" lon="10.89305426090143"><ele>406.0</ele><time>2026-04-04T09:49:57.999Z</time></trkpt><trkpt lat="43.52297769279635" lon="10.892850612293612"><ele>404.0</ele><time>2026-04-04T09:49:58.999Z</time></trkpt><trkpt lat="43.52291448476229" lon="10.892651818569357"><ele>402.0</ele><time>2026-04-04T09:49:59.999Z</time></trkpt><trkpt lat="43.522855677579564" lon="10.892462066903944"><ele>402.0</ele><time>2026-04-04T09:50:00.999Z</time></trkpt><trkpt lat="43.522793428683286" lon="10.892264749568644"><ele>402.0</ele><time>2026-04-04T09:50:01.999Z</time></trkpt><trkpt lat="43.5227314024439" lon="10.892078367394458"><ele>402.0</ele><time>2026-04-04T09:50:02.999Z</time></trkpt><trkpt lat="43.52267161792294" lon="10.891891262752845"><ele>400.0</ele><time>2026-04-04T09:50:03.999Z</time></trkpt><trkpt lat="43.522611657908584" lon="10.891701665961492"><ele>398.0</ele><time>2026-04-04T09:50:04.999Z</time></trkpt><trkpt lat="43.522545311710545" lon="10.891503308811881"><ele>396.0</ele><time>2026-04-04T09:50:05.999Z</time></trkpt><trkpt lat="43.52247656917753" lon="10.891299464465048"><ele>396.0</ele><time>2026-04-04T09:50:06.999Z</time></trkpt><trkpt lat="43.52241292779704" lon="10.891103823832378"><ele>396.0</ele><time>2026-04-04T09:50:07.999Z</time></trkpt><trkpt lat="43.52235318734162" lon="10.890901512166417"><ele>396.0</ele><time>2026-04-04T09:50:08.999Z</time></trkpt><trkpt lat="43.52229274427098" lon="10.890713179757865"><ele>394.66666666666663</ele><time>2026-04-04T09:50:09.999Z</time></trkpt><trkpt lat="43.522245620092335" lon="10.890516455592463"><ele>393.3333333333333</ele><time>2026-04-04T09:50:10.999Z</time></trkpt><trkpt lat="43.522220055254124" lon="10.890303775925311"><ele>392.0</ele><time>2026-04-04T09:50:11.999Z</time></trkpt><trkpt lat="43.52221909580437" lon="10.89006373674603"><ele>390.66666666666663</ele><time>2026-04-04T09:50:12.999Z</time></trkpt><trkpt lat="43.52222975608958" lon="10.88980730621411"><ele>389.33333333333337</ele><time>2026-04-04T09:50:13.999Z</time></trkpt><trkpt lat="43.52226538315034" lon="10.889537097693543"><ele>388.0</ele><time>2026-04-04T09:50:14.999Z</time></trkpt><trkpt lat="43.522291199817644" lon="10.889263045378522"><ele>385.33333333333337</ele><time>2026-04-04T09:50:15.999Z</time></trkpt><trkpt lat="43.52231763738843" lon="10.889002876852164"><ele>382.6666666666667</ele><time>2026-04-04T09:50:16.999Z</time></trkpt><trkpt lat="43.52234219298074" lon="10.888755339241134"><ele>380.0</ele><time>2026-04-04T09:50:17.999Z</time></trkpt><trkpt lat="43.522365323644166" lon="10.88852431615461"><ele>378.0</ele><time>2026-04-04T09:50:18.999Z</time></trkpt><trkpt lat="43.522391591078986" lon="10.888309956019482"><ele>376.0</ele><time>2026-04-04T09:50:19.999Z</time></trkpt><trkpt lat="43.52240608027846" lon="10.888126396243718"><ele>374.0</ele><time>2026-04-04T09:50:20.999Z</time></trkpt><trkpt lat="43.522405331247676" lon="10.887943782936109"><ele>372.0</ele><time>2026-04-04T09:50:21.999Z</time></trkpt><trkpt lat="43.52238117325627" lon="10.88774242769488"><ele>369.3333333333333</ele><time>2026-04-04T09:50:22.999Z</time></trkpt><trkpt lat="43.522311276365514" lon="10.887531188360237"><ele>366.66666666666663</ele><time>2026-04-04T09:50:23.999Z</time></trkpt><trkpt lat="43.52223136475055" lon="10.887312096143082"><ele>364.0</ele><time>2026-04-04T09:50:24.999Z</time></trkpt><trkpt lat="43.52214192458722" lon="10.88707940031092"><ele>366.0</ele><time>2026-04-04T09:50:25.999Z</time></trkpt><trkpt lat="43.52205447436329" lon="10.886839953292537"><ele>368.0</ele><time>2026-04-04T09:50:26.999Z</time></trkpt><trkpt lat="43.5219691371624" lon="10.88660629184634"><ele>370.0</ele><time>2026-04-04T09:50:27.999Z</time></trkpt><trkpt lat="43.521884550225" lon="10.886377336761248"><ele>370.0</ele><time>2026-04-04T09:50:28.999Z</time></trkpt><trkpt lat="43.521795312710466" lon="10.88614903499122"><ele>370.0</ele><time>2026-04-04T09:50:29.999Z</time></trkpt><trkpt lat="43.5216891957665" lon="10.885924406578875"><ele>370.0</ele><time>2026-04-04T09:50:30.999Z</time></trkpt><trkpt lat="43.52155854436717" lon="10.885709694758969"><ele>365.66666666666663</ele><time>2026-04-04T09:50:31.999Z</time></trkpt><trkpt lat="43.52144819616886" lon="10.8855204997957"><ele>361.3333333333333</ele><time>2026-04-04T09:50:32.999Z</time></trkpt><trkpt lat="43.52134688281405" lon="10.885327826953793"><ele>357.0</ele><time>2026-04-04T09:50:33.999Z</time></trkpt><trkpt lat="43.521270082526065" lon="10.885120173898608"><ele>359.5</ele><time>2026-04-04T09:50:34.999Z</time></trkpt><trkpt lat="43.521204442417805" lon="10.884913201827743"><ele>362.0</ele><time>2026-04-04T09:50:35.999Z</time></trkpt><trkpt lat="43.52115375412785" lon="10.88473449980408"><ele>364.5</ele><time>2026-04-04T09:50:36.999Z</time></trkpt><trkpt lat="43.52112100614581" lon="10.884585111090221"><ele>367.0</ele><time>2026-04-04T09:50:37.999Z</time></trkpt><trkpt lat="43.521102089584396" lon="10.884436753967437"><ele>367.0</ele><time>2026-04-04T09:50:38.999Z</time></trkpt><trkpt lat="43.52114448042975" lon="10.884284026003062"><ele>367.0</ele><time>2026-04-04T09:50:39.999Z</time></trkpt><trkpt lat="43.52121545283981" lon="10.884157941733742"><ele>367.0</ele><time>2026-04-04T09:50:40.999Z</time></trkpt><trkpt lat="43.52129944196256" lon="10.884050443762746"><ele>367.0</ele><time>2026-04-04T09:50:41.999Z</time></trkpt><trkpt lat="43.52136209377355" lon="10.883931846153088"><ele>360.75</ele><time>2026-04-04T09:50:42.999Z</time></trkpt><trkpt lat="43.52137234526872" lon="10.883779853516193"><ele>354.5</ele><time>2026-04-04T09:50:43.999Z</time></trkpt><trkpt lat="43.52136338279582" lon="10.883615847030303"><ele>348.25</ele><time>2026-04-04T09:50:44.999Z</time></trkpt><trkpt lat="43.52131594356627" lon="10.883466211192735"><ele>342.0</ele><time>2026-04-04T09:50:45.999Z</time></trkpt><trkpt lat="43.521258944165304" lon="10.88334039072902"><ele>345.5</ele><time>2026-04-04T09:50:46.999Z</time></trkpt><trkpt lat="43.52116011149338" lon="10.883220431605196"><ele>349.0</ele><time>2026-04-04T09:50:47.999Z</time></trkpt><trkpt lat="43.52103875403466" lon="10.883133867302218"><ele>352.5</ele><time>2026-04-04T09:50:48.999Z</time></trkpt><trkpt lat="43.52094406525257" lon="10.883070677712368"><ele>356.0</ele><time>2026-04-04T09:50:49.999Z</time></trkpt><trkpt lat="43.52085734582609" lon="10.883023804758961"><ele>356.0</ele><time>2026-04-04T09:50:50.999Z</time></trkpt><trkpt lat="43.52074042243751" lon="10.883008573780593"><ele>356.0</ele><time>2026-04-04T09:50:51.999Z</time></trkpt><trkpt lat="43.52061314385889" lon="10.883057867882584"><ele>356.0</ele><time>2026-04-04T09:50:52.999Z</time></trkpt><trkpt lat="43.52052169223514" lon="10.88309897099057"><ele>356.0</ele><time>2026-04-04T09:50:53.999Z</time></trkpt><trkpt lat="43.520450576073166" lon="10.883125124572624"><ele>356.0</ele><time>2026-04-04T09:50:54.999Z</time></trkpt><trkpt lat="43.52038600918537" lon="10.883128784484727"><ele>357.0</ele><time>2026-04-04T09:50:55.999Z</time></trkpt><trkpt lat="43.52030060330945" lon="10.88311031703931"><ele>358.0</ele><time>2026-04-04T09:50:56.999Z</time></trkpt><trkpt lat="43.52021782281923" lon="10.883046701524238"><ele>359.0</ele><time>2026-04-04T09:50:57.999Z</time></trkpt><trkpt lat="43.520117712917184" lon="10.882974533500727"><ele>360.0</ele><time>2026-04-04T09:50:58.999Z</time></trkpt><trkpt lat="43.520015209794515" lon="10.882884682271161"><ele>361.0</ele><time>2026-04-04T09:50:59.999Z</time></trkpt><trkpt lat="43.51992463483786" lon="10.88281370547198"><ele>361.0</ele><time>2026-04-04T09:51:00.999Z</time></trkpt><trkpt lat="43.51983710794686" lon="10.88273721051236"><ele>361.0</ele><time>2026-04-04T09:51:01.999Z</time></trkpt><trkpt lat="43.51974870889792" lon="10.882640550917026"><ele>361.0</ele><time>2026-04-04T09:51:02.999Z</time></trkpt><trkpt lat="43.51968370376999" lon="10.882510148526439"><ele>361.0</ele><time>2026-04-04T09:51:03.999Z</time></trkpt><trkpt lat="43.51963349503558" lon="10.882369372649915"><ele>361.0</ele><time>2026-04-04T09:51:04.999Z</time></trkpt><trkpt lat="43.51958162350787" lon="10.882232686341663"><ele>361.0</ele><time>2026-04-04T09:51:05.999Z</time></trkpt><trkpt lat="43.51954249582008" lon="10.882100962917253"><ele>361.0</ele><time>2026-04-04T09:51:06.999Z</time></trkpt><trkpt lat="43.51951626992151" lon="10.881962366238287"><ele>361.0</ele><time>2026-04-04T09:51:07.999Z</time></trkpt><trkpt lat="43.51951763938328" lon="10.88181879092077"><ele>361.0</ele><time>2026-04-04T09:51:08.999Z</time></trkpt><trkpt lat="43.51951678214396" lon="10.881649093167983"><ele>361.0</ele><time>2026-04-04T09:51:09.999Z</time></trkpt><trkpt lat="43.51955338501104" lon="10.881480645249587"><ele>356.8</ele><time>2026-04-04T09:51:10.999Z</time></trkpt><trkpt lat="43.519583450569016" lon="10.88133139726385"><ele>352.6</ele><time>2026-04-04T09:51:12Z</time></trkpt><trkpt lat="43.519599298093986" lon="10.881184292641985"><ele>348.4</ele><time>2026-04-04T09:51:13Z</time></trkpt><trkpt lat="43.51961507456995" lon="10.881036883014845"><ele>344.2</ele><time>2026-04-04T09:51:14Z</time></trkpt><trkpt lat="43.51959344226215" lon="10.880880444632934"><ele>340.0</ele><time>2026-04-04T09:51:15Z</time></trkpt><trkpt lat="43.519579926120905" lon="10.880734338508896"><ele>338.2</ele><time>2026-04-04T09:51:16Z</time></trkpt><trkpt lat="43.519569661752136" lon="10.880586520212093"><ele>336.4</ele><time>2026-04-04T09:51:17Z</time></trkpt><trkpt lat="43.51960591665315" lon="10.880445043086882"><ele>334.6</ele><time>2026-04-04T09:51:18Z</time></trkpt><trkpt lat="43.51963823289656" lon="10.880316921933355"><ele>332.8</ele><time>2026-04-04T09:51:19Z</time></trkpt><trkpt lat="43.5196511274186" lon="10.880209164361185"><ele>331.0</ele><time>2026-04-04T09:51:20Z</time></trkpt><trkpt lat="43.519657799759116" lon="10.880100463641782"><ele>330.4</ele><time>2026-04-04T09:51:21Z</time></trkpt><trkpt lat="43.519622092836464" lon="10.879972073077237"><ele>329.8</ele><time>2026-04-04T09:51:22Z</time></trkpt><trkpt lat="43.5195490024898" lon="10.87986159412697"><ele>329.2</ele><time>2026-04-04T09:51:23Z</time></trkpt><trkpt lat="43.51946747764886" lon="10.87977476916529"><ele>328.59999999999997</ele><time>2026-04-04T09:51:24Z</time></trkpt><trkpt lat="43.51936880829258" lon="10.879717328076516"><ele>328.0</ele><time>2026-04-04T09:51:25Z</time></trkpt><trkpt lat="43.51926820053362" lon="10.879696692940712"><ele>330.16666666666663</ele><time>2026-04-04T09:51:26Z</time></trkpt><trkpt lat="43.51918307598782" lon="10.879679817958316"><ele>332.3333333333333</ele><time>2026-04-04T09:51:27Z</time></trkpt><trkpt lat="43.51910735251238" lon="10.879664806488046"><ele>334.5</ele><time>2026-04-04T09:51:28Z</time></trkpt><trkpt lat="43.51901554949593" lon="10.879578703248947"><ele>336.6666666666667</ele><time>2026-04-04T09:51:30Z</time></trkpt><trkpt lat="43.51898073471869" lon="10.879499666587732"><ele>338.83333333333337</ele><time>2026-04-04T09:51:31Z</time></trkpt><trkpt lat="43.51896233327856" lon="10.879405386888322"><ele>341.0</ele><time>2026-04-04T09:51:32Z</time></trkpt><trkpt lat="43.519021559729275" lon="10.879294902493436"><ele>341.5</ele><time>2026-04-04T09:51:33Z</time></trkpt><trkpt lat="43.51911574587003" lon="10.87919044050116"><ele>342.0</ele><time>2026-04-04T09:51:34Z</time></trkpt><trkpt lat="43.51925587491627" lon="10.879162859026717"><ele>342.5</ele><time>2026-04-04T09:51:35Z</time></trkpt><trkpt lat="43.5194037998243" lon="10.879178199276463"><ele>343.0</ele><time>2026-04-04T09:51:36Z</time></trkpt><trkpt lat="43.519551667811406" lon="10.879206330537938"><ele>341.59999999999997</ele><time>2026-04-04T09:51:37Z</time></trkpt><trkpt lat="43.51968667513334" lon="10.879237689028487"><ele>340.2</ele><time>2026-04-04T09:51:38Z</time></trkpt><trkpt lat="43.51979073049857" lon="10.879269289103016"><ele>338.8</ele><time>2026-04-04T09:51:39Z</time></trkpt><trkpt lat="43.51987206085993" lon="10.879273662686947"><ele>337.4</ele><time>2026-04-04T09:51:40Z</time></trkpt><trkpt lat="43.51994192290788" lon="10.879253400311267"><ele>336.0</ele><time>2026-04-04T09:51:41Z</time></trkpt><trkpt lat="43.52002660781234" lon="10.879202416988445"><ele>336.0</ele><time>2026-04-04T09:51:42Z</time></trkpt><trkpt lat="43.52011984468461" lon="10.879121828101187"><ele>336.0</ele><time>2026-04-04T09:51:43Z</time></trkpt><trkpt lat="43.520186451910625" lon="10.87901375747821"><ele>336.0</ele><time>2026-04-04T09:51:44Z</time></trkpt><trkpt lat="43.52022746049846" lon="10.878917841659394"><ele>336.0</ele><time>2026-04-04T09:51:45Z</time></trkpt><trkpt lat="43.52024432212902" lon="10.878827552666126"><ele>336.0</ele><time>2026-04-04T09:51:46Z</time></trkpt><trkpt lat="43.52025624960535" lon="10.87865457705256"><ele>336.0</ele><time>2026-04-04T09:51:48Z</time></trkpt><trkpt lat="43.5202645802979" lon="10.878528119744699"><ele>336.0</ele><time>2026-04-04T09:51:49Z</time></trkpt><trkpt lat="43.52024148834081" lon="10.878411127199348"><ele>336.0</ele><time>2026-04-04T09:51:50Z</time></trkpt><trkpt lat="43.52021801960036" lon="10.878309221889472"><ele>336.0</ele><time>2026-04-04T09:51:51Z</time></trkpt><trkpt lat="43.52019053935646" lon="10.878200594075643"><ele>336.0</ele><time>2026-04-04T09:51:52Z</time></trkpt><trkpt lat="43.520155230994966" lon="10.878071998649704"><ele>336.0</ele><time>2026-04-04T09:51:53Z</time></trkpt><trkpt lat="43.52007692256278" lon="10.87793877967668"><ele>337.5</ele><time>2026-04-04T09:51:53.999Z</time></trkpt><trkpt lat="43.520028645753776" lon="10.877777231016323"><ele>339.0</ele><time>2026-04-04T09:51:54.999Z</time></trkpt><trkpt lat="43.519980945030625" lon="10.8775926674893"><ele>340.5</ele><time>2026-04-04T09:51:55.999Z</time></trkpt><trkpt lat="43.51994581445344" lon="10.877405819316376"><ele>342.0</ele><time>2026-04-04T09:51:56.999Z</time></trkpt><trkpt lat="43.51996458206778" lon="10.877210006615853"><ele>342.0</ele><time>2026-04-04T09:51:57.999Z</time></trkpt><trkpt lat="43.519945719866456" lon="10.877040755375365"><ele>342.0</ele><time>2026-04-04T09:51:58.999Z</time></trkpt><trkpt lat="43.51992722215962" lon="10.876870734948037"><ele>342.0</ele><time>2026-04-04T09:51:59.999Z</time></trkpt><trkpt lat="43.5199086002746" lon="10.876692942798819"><ele>342.0</ele><time>2026-04-04T09:52:00.999Z</time></trkpt><trkpt lat="43.519893301298694" lon="10.876534734267763"><ele>339.75</ele><time>2026-04-04T09:52:01.999Z</time></trkpt><trkpt lat="43.51987191936843" lon="10.876391624561347"><ele>337.5</ele><time>2026-04-04T09:52:02.999Z</time></trkpt><trkpt lat="43.51983014354461" lon="10.876246487925568"><ele>335.25</ele><time>2026-04-04T09:52:03.999Z</time></trkpt><trkpt lat="43.519726946858086" lon="10.876118718764857"><ele>333.0</ele><time>2026-04-04T09:52:04.999Z</time></trkpt><trkpt lat="43.51961477309076" lon="10.876043361487595"><ele>337.0</ele><time>2026-04-04T09:52:05.999Z</time></trkpt><trkpt lat="43.51951762552698" lon="10.875964036363058"><ele>341.0</ele><time>2026-04-04T09:52:06.999Z</time></trkpt><trkpt lat="43.51944285941383" lon="10.875864799846168"><ele>345.0</ele><time>2026-04-04T09:52:07.999Z</time></trkpt><trkpt lat="43.5193892020091" lon="10.875747285327574"><ele>349.0</ele><time>2026-04-04T09:52:08.999Z</time></trkpt><trkpt lat="43.51934164918171" lon="10.87559433656982"><ele>353.0</ele><time>2026-04-04T09:52:09.999Z</time></trkpt><trkpt lat="43.519307045826245" lon="10.87544408711879"><ele>353.0</ele><time>2026-04-04T09:52:10.999Z</time></trkpt><trkpt lat="43.51927131292838" lon="10.87528791529857"><ele>353.0</ele><time>2026-04-04T09:52:11.999Z</time></trkpt><trkpt lat="43.51923706205263" lon="10.87515103225885"><ele>353.0</ele><time>2026-04-04T09:52:12.999Z</time></trkpt><trkpt lat="43.51917313753545" lon="10.875021260759397"><ele>353.0</ele><time>2026-04-04T09:52:13.999Z</time></trkpt><trkpt lat="43.51906334493058" lon="10.874918516694068"><ele>352.75</ele><time>2026-04-04T09:52:14.999Z</time></trkpt><trkpt lat="43.51894713758394" lon="10.874875313003468"><ele>352.5</ele><time>2026-04-04T09:52:15.999Z</time></trkpt><trkpt lat="43.518827522034655" lon="10.874860721311295"><ele>352.25</ele><time>2026-04-04T09:52:16.999Z</time></trkpt><trkpt lat="43.51870848387257" lon="10.87484734927553"><ele>352.0</ele><time>2026-04-04T09:52:17.999Z</time></trkpt><trkpt lat="43.51858343164654" lon="10.874832191353313"><ele>352.0</ele><time>2026-04-04T09:52:18.999Z</time></trkpt><trkpt lat="43.518453191677075" lon="10.874809030183314"><ele>352.0</ele><time>2026-04-04T09:52:19.999Z</time></trkpt><trkpt lat="43.518321389917745" lon="10.874776594210044"><ele>352.0</ele><time>2026-04-04T09:52:20.999Z</time></trkpt><trkpt lat="43.51820028519658" lon="10.874756107430567"><ele>352.0</ele><time>2026-04-04T09:52:21.999Z</time></trkpt><trkpt lat="43.518068787331636" lon="10.874745132735752"><ele>352.0</ele><time>2026-04-04T09:52:22.999Z</time></trkpt><trkpt lat="43.51794856260344" lon="10.874737996823395"><ele>352.0</ele><time>2026-04-04T09:52:23.999Z</time></trkpt><trkpt lat="43.51783004093942" lon="10.874737816733223"><ele>352.0</ele><time>2026-04-04T09:52:24.999Z</time></trkpt><trkpt lat="43.51771351083359" lon="10.874748246762804"><ele>352.0</ele><time>2026-04-04T09:52:25.999Z</time></trkpt><trkpt lat="43.517595514008526" lon="10.8747670057796"><ele>350.40000000000003</ele><time>2026-04-04T09:52:26.999Z</time></trkpt><trkpt lat="43.51749441708018" lon="10.874789687292095"><ele>348.8</ele><time>2026-04-04T09:52:27.999Z</time></trkpt><trkpt lat="43.517386991671366" lon="10.874818085874526"><ele>347.2</ele><time>2026-04-04T09:52:28.999Z</time></trkpt><trkpt lat="43.51728828330299" lon="10.87487121372914"><ele>345.6</ele><time>2026-04-04T09:52:29.999Z</time></trkpt><trkpt lat="43.517197682850814" lon="10.874946935491405"><ele>344.0</ele><time>2026-04-04T09:52:30.999Z</time></trkpt><trkpt lat="43.51710472538621" lon="10.87501999785484"><ele>341.75</ele><time>2026-04-04T09:52:31.999Z</time></trkpt><trkpt lat="43.51702563414857" lon="10.875184200803941"><ele>339.5</ele><time>2026-04-04T09:52:32.999Z</time></trkpt><trkpt lat="43.51697401822601" lon="10.87535171195816"><ele>337.25</ele><time>2026-04-04T09:52:33.999Z</time></trkpt><trkpt lat="43.5169294895186" lon="10.87551530388632"><ele>335.0</ele><time>2026-04-04T09:52:34.999Z</time></trkpt><trkpt lat="43.51690013686126" lon="10.875669164771825"><ele>335.0</ele><time>2026-04-04T09:52:35.999Z</time></trkpt><trkpt lat="43.516852520790984" lon="10.87577990721878"><ele>335.0</ele><time>2026-04-04T09:52:36.999Z</time></trkpt><trkpt lat="43.516771698914006" lon="10.875883770285363"><ele>335.0</ele><time>2026-04-04T09:52:37.999Z</time></trkpt><trkpt lat="43.51665606810326" lon="10.875918330377237"><ele>335.0</ele><time>2026-04-04T09:52:38.999Z</time></trkpt><trkpt lat="43.51654759066707" lon="10.876001004296695"><ele>335.0</ele><time>2026-04-04T09:52:39.999Z</time></trkpt><trkpt lat="43.51643078754991" lon="10.87606552007786"><ele>334.4</ele><time>2026-04-04T09:52:40.999Z</time></trkpt><trkpt lat="43.51632853438361" lon="10.876128253331352"><ele>333.8</ele><time>2026-04-04T09:52:41.999Z</time></trkpt><trkpt lat="43.51623282220594" lon="10.876179538925633"><ele>333.20000000000005</ele><time>2026-04-04T09:52:42.999Z</time></trkpt><trkpt lat="43.516152449042835" lon="10.87622824533936"><ele>332.6</ele><time>2026-04-04T09:52:43.999Z</time></trkpt><trkpt lat="43.516058804650996" lon="10.876265264789112"><ele>332.0</ele><time>2026-04-04T09:52:44.999Z</time></trkpt><trkpt lat="43.5159701907714" lon="10.876302236945165"><ele>332.0</ele><time>2026-04-04T09:52:45.999Z</time></trkpt><trkpt lat="43.515886315760866" lon="10.876322708685786"><ele>332.0</ele><time>2026-04-04T09:52:46.999Z</time></trkpt><trkpt lat="43.51580220522494" lon="10.876323057696185"><ele>332.0</ele><time>2026-04-04T09:52:47.999Z</time></trkpt><trkpt lat="43.51574082612753" lon="10.876269453317446"><ele>332.0</ele><time>2026-04-04T09:52:48.999Z</time></trkpt><trkpt lat="43.51567492222466" lon="10.876203986416071"><ele>332.0</ele><time>2026-04-04T09:52:49.999Z</time></trkpt><trkpt lat="43.515609269416814" lon="10.876125003040663"><ele>332.0</ele><time>2026-04-04T09:52:50.999Z</time></trkpt><trkpt lat="43.515510976949095" lon="10.876042466363506"><ele>330.6</ele><time>2026-04-04T09:52:51.999Z</time></trkpt><trkpt lat="43.51539277783797" lon="10.875985947448578"><ele>329.20000000000005</ele><time>2026-04-04T09:52:52.999Z</time></trkpt><trkpt lat="43.51527966862079" lon="10.875975192409696"><ele>327.8</ele><time>2026-04-04T09:52:53.999Z</time></trkpt><trkpt lat="43.51517664715337" lon="10.875971408515104"><ele>326.4</ele><time>2026-04-04T09:52:54.999Z</time></trkpt><trkpt lat="43.51507750753582" lon="10.875968975072755"><ele>325.0</ele><time>2026-04-04T09:52:55.999Z</time></trkpt><trkpt lat="43.514960727592396" lon="10.87600609953108"><ele>325.0</ele><time>2026-04-04T09:52:56.999Z</time></trkpt><trkpt lat="43.51484587026966" lon="10.876056313382506"><ele>325.0</ele><time>2026-04-04T09:52:57.999Z</time></trkpt><trkpt lat="43.51474359093607" lon="10.876102009098968"><ele>325.0</ele><time>2026-04-04T09:52:58.999Z</time></trkpt><trkpt lat="43.51465485610929" lon="10.876141604029714"><ele>325.0</ele><time>2026-04-04T09:52:59.999Z</time></trkpt><trkpt lat="43.5145745588556" lon="10.876177433980203"><ele>325.0</ele><time>2026-04-04T09:53:00.999Z</time></trkpt><trkpt lat="43.514501738997446" lon="10.87620806946537"><ele>323.8333333333333</ele><time>2026-04-04T09:53:01.999Z</time></trkpt><trkpt lat="43.51443203183805" lon="10.876235850519368"><ele>322.66666666666663</ele><time>2026-04-04T09:53:02.999Z</time></trkpt><trkpt lat="43.51437078188271" lon="10.876259328070153"><ele>321.5</ele><time>2026-04-04T09:53:03.999Z</time></trkpt><trkpt lat="43.51427147516049" lon="10.87630429095461"><ele>320.3333333333333</ele><time>2026-04-04T09:53:05.999Z</time></trkpt><trkpt lat="43.51418507544493" lon="10.876358142188645"><ele>319.1666666666667</ele><time>2026-04-04T09:53:08.999Z</time></trkpt><trkpt lat="43.514119926969244" lon="10.876386490829148"><ele>318.0</ele><time>2026-04-04T09:53:10.999Z</time></trkpt><trkpt lat="43.51405586365065" lon="10.876380083215397"><ele>318.0</ele><time>2026-04-04T09:53:12.999Z</time></trkpt><trkpt lat="43.51395306608007" lon="10.87629710971635"><ele>318.0</ele><time>2026-04-04T09:53:14.999Z</time></trkpt><trkpt lat="43.513890351465456" lon="10.876240291322668"><ele>318.0</ele><time>2026-04-04T09:53:15.999Z</time></trkpt><trkpt lat="43.513803812094366" lon="10.8761614223732"><ele>318.0</ele><time>2026-04-04T09:53:16.999Z</time></trkpt><trkpt lat="43.513708181739524" lon="10.876071293775425"><ele>318.0</ele><time>2026-04-04T09:53:18Z</time></trkpt><trkpt lat="43.51360501287967" lon="10.87597265558082"><ele>314.5</ele><time>2026-04-04T09:53:19Z</time></trkpt><trkpt lat="43.513500658333" lon="10.875884195517783"><ele>311.0</ele><time>2026-04-04T09:53:20Z</time></trkpt><trkpt lat="43.513404859702206" lon="10.875802747424586"><ele>307.5</ele><time>2026-04-04T09:53:21Z</time></trkpt><trkpt lat="43.51331104244805" lon="10.875721529683979"><ele>304.0</ele><time>2026-04-04T09:53:22Z</time></trkpt><trkpt lat="43.513220335410004" lon="10.87564887087386"><ele>304.0</ele><time>2026-04-04T09:53:23Z</time></trkpt><trkpt lat="43.513132093316244" lon="10.875589199061693"><ele>304.0</ele><time>2026-04-04T09:53:24Z</time></trkpt><trkpt lat="43.51304420567302" lon="10.87554296133996"><ele>304.0</ele><time>2026-04-04T09:53:25Z</time></trkpt><trkpt lat="43.512959365330566" lon="10.875498278080677"><ele>304.0</ele><time>2026-04-04T09:53:26Z</time></trkpt><trkpt lat="43.51286628575288" lon="10.875464822352637"><ele>304.0</ele><time>2026-04-04T09:53:27Z</time></trkpt><trkpt lat="43.51275225471569" lon="10.875483668022143"><ele>302.75</ele><time>2026-04-04T09:53:28Z</time></trkpt><trkpt lat="43.51265375658645" lon="10.87560227288916"><ele>301.5</ele><time>2026-04-04T09:53:29Z</time></trkpt><trkpt lat="43.51255536716234" lon="10.875722898480518"><ele>300.25</ele><time>2026-04-04T09:53:30Z</time></trkpt><trkpt lat="43.51245329748501" lon="10.87585541216319"><ele>299.0</ele><time>2026-04-04T09:53:31Z</time></trkpt><trkpt lat="43.51235360526914" lon="10.875980640115156"><ele>299.0</ele><time>2026-04-04T09:53:32Z</time></trkpt><trkpt lat="43.51226718176829" lon="10.876086421989626"><ele>299.0</ele><time>2026-04-04T09:53:33Z</time></trkpt><trkpt lat="43.5121911663338" lon="10.87617488904493"><ele>299.0</ele><time>2026-04-04T09:53:34Z</time></trkpt><trkpt lat="43.51211360529092" lon="10.876246555435486"><ele>299.0</ele><time>2026-04-04T09:53:35Z</time></trkpt><trkpt lat="43.512034818558696" lon="10.876313145788993"><ele>299.0</ele><time>2026-04-04T09:53:36Z</time></trkpt><trkpt lat="43.51195901706785" lon="10.876387647583185"><ele>299.2</ele><time>2026-04-04T09:53:37Z</time></trkpt><trkpt lat="43.51189846020419" lon="10.876506655483933"><ele>299.4</ele><time>2026-04-04T09:53:38Z</time></trkpt><trkpt lat="43.511839484842056" lon="10.87661310871824"><ele>299.6</ele><time>2026-04-04T09:53:39Z</time></trkpt><trkpt lat="43.511776592826884" lon="10.87670675263123"><ele>299.8</ele><time>2026-04-04T09:53:40Z</time></trkpt><trkpt lat="43.51170959278377" lon="10.87677577160529"><ele>300.0</ele><time>2026-04-04T09:53:41Z</time></trkpt><trkpt lat="43.51163688059482" lon="10.876831179876236"><ele>300.0</ele><time>2026-04-04T09:53:42Z</time></trkpt><trkpt lat="43.511561255399315" lon="10.876839912263948"><ele>300.0</ele><time>2026-04-04T09:53:43Z</time></trkpt><trkpt lat="43.51144375624391" lon="10.876859339149402"><ele>300.0</ele><time>2026-04-04T09:53:44Z</time></trkpt><trkpt lat="43.5113104572919" lon="10.876876664271773"><ele>300.0</ele><time>2026-04-04T09:53:45Z</time></trkpt><trkpt lat="43.511167506147636" lon="10.87689403021937"><ele>300.6</ele><time>2026-04-04T09:53:46Z</time></trkpt><trkpt lat="43.51103542648693" lon="10.876907971960083"><ele>301.2</ele><time>2026-04-04T09:53:47Z</time></trkpt><trkpt lat="43.51091705522529" lon="10.876916822159982"><ele>301.8</ele><time>2026-04-04T09:53:48Z</time></trkpt><trkpt lat="43.51082046522614" lon="10.87689997518017"><ele>302.4</ele><time>2026-04-04T09:53:49Z</time></trkpt><trkpt lat="43.510752529376305" lon="10.876838095557348"><ele>303.0</ele><time>2026-04-04T09:53:50Z</time></trkpt><trkpt lat="43.51067130880064" lon="10.876757680653837"><ele>298.6</ele><time>2026-04-04T09:53:51Z</time></trkpt><trkpt lat="43.51061866718827" lon="10.876674861402792"><ele>294.20000000000005</ele><time>2026-04-04T09:53:52Z</time></trkpt><trkpt lat="43.51057751007573" lon="10.876570434711528"><ele>289.8</ele><time>2026-04-04T09:53:53Z</time></trkpt><trkpt lat="43.51055154649151" lon="10.876445750987376"><ele>285.40000000000003</ele><time>2026-04-04T09:53:54Z</time></trkpt><trkpt lat="43.51052319956422" lon="10.876306491971224"><ele>281.0</ele><time>2026-04-04T09:53:54.999Z</time></trkpt><trkpt lat="43.51048245841468" lon="10.87618166598695"><ele>284.5</ele><time>2026-04-04T09:53:55.999Z</time></trkpt><trkpt lat="43.51040410041034" lon="10.876072855255009"><ele>288.0</ele><time>2026-04-04T09:53:56.999Z</time></trkpt><trkpt lat="43.51024154202579" lon="10.876063381895879"><ele>291.5</ele><time>2026-04-04T09:53:57.999Z</time></trkpt><trkpt lat="43.51011457029705" lon="10.876079074901899"><ele>295.0</ele><time>2026-04-04T09:53:58.999Z</time></trkpt><trkpt lat="43.509990067411486" lon="10.876091091176315"><ele>295.0</ele><time>2026-04-04T09:53:59.999Z</time></trkpt><trkpt lat="43.50987524571566" lon="10.87605474002743"><ele>295.0</ele><time>2026-04-04T09:54:00.999Z</time></trkpt><trkpt lat="43.50976704983379" lon="10.875964033181441"><ele>295.0</ele><time>2026-04-04T09:54:01.999Z</time></trkpt><trkpt lat="43.50961496837652" lon="10.875836546881155"><ele>295.0</ele><time>2026-04-04T09:54:02.999Z</time></trkpt><trkpt lat="43.50947578500899" lon="10.8757362390747"><ele>294.0</ele><time>2026-04-04T09:54:03.999Z</time></trkpt><trkpt lat="43.50934295811649" lon="10.875669442538477"><ele>293.0</ele><time>2026-04-04T09:54:04.999Z</time></trkpt><trkpt lat="43.50922988538353" lon="10.875615229434882"><ele>292.0</ele><time>2026-04-04T09:54:05.999Z</time></trkpt><trkpt lat="43.50912911812257" lon="10.875557802037656"><ele>291.0</ele><time>2026-04-04T09:54:06.999Z</time></trkpt><trkpt lat="43.50902186639838" lon="10.87545720747612"><ele>291.0</ele><time>2026-04-04T09:54:07.999Z</time></trkpt><trkpt lat="43.50891485605652" lon="10.875310101534248"><ele>291.0</ele><time>2026-04-04T09:54:08.999Z</time></trkpt><trkpt lat="43.508817134412155" lon="10.875180824478049"><ele>291.0</ele><time>2026-04-04T09:54:09.999Z</time></trkpt><trkpt lat="43.50873046107368" lon="10.875075172468229"><ele>291.0</ele><time>2026-04-04T09:54:10.999Z</time></trkpt><trkpt lat="43.50864403136672" lon="10.874989072422599"><ele>289.75</ele><time>2026-04-04T09:54:11.999Z</time></trkpt><trkpt lat="43.5085341198456" lon="10.87493420660113"><ele>288.5</ele><time>2026-04-04T09:54:12.999Z</time></trkpt><trkpt lat="43.50840137292479" lon="10.874913859887767"><ele>287.25</ele><time>2026-04-04T09:54:13.999Z</time></trkpt><trkpt lat="43.50826845972264" lon="10.874946854739383"><ele>286.0</ele><time>2026-04-04T09:54:14.999Z</time></trkpt><trkpt lat="43.50814199015026" lon="10.874984914957556"><ele>286.0</ele><time>2026-04-04T09:54:15.999Z</time></trkpt><trkpt lat="43.50799521743113" lon="10.87502098846772"><ele>286.0</ele><time>2026-04-04T09:54:16.999Z</time></trkpt><trkpt lat="43.50782191025097" lon="10.875063872259533"><ele>286.0</ele><time>2026-04-04T09:54:17.999Z</time></trkpt><trkpt lat="43.50764114103137" lon="10.875109489764816"><ele>288.66666666666663</ele><time>2026-04-04T09:54:18.999Z</time></trkpt><trkpt lat="43.50747323676844" lon="10.875153873564459"><ele>291.3333333333333</ele><time>2026-04-04T09:54:19.999Z</time></trkpt><trkpt lat="43.507328684348835" lon="10.875193341174032"><ele>294.0</ele><time>2026-04-04T09:54:20.999Z</time></trkpt><trkpt lat="43.5071936479092" lon="10.87522755642962"><ele>294.0</ele><time>2026-04-04T09:54:21.999Z</time></trkpt><trkpt lat="43.50706548142538" lon="10.875253014005695"><ele>294.0</ele><time>2026-04-04T09:54:22.999Z</time></trkpt><trkpt lat="43.50693560533059" lon="10.875268142235681"><ele>294.0</ele><time>2026-04-04T09:54:23.999Z</time></trkpt><trkpt lat="43.506807119230466" lon="10.875276396198325"><ele>294.0</ele><time>2026-04-04T09:54:24.999Z</time></trkpt><trkpt lat="43.50668393815121" lon="10.875280639296617"><ele>294.0</ele><time>2026-04-04T09:54:25.999Z</time></trkpt><trkpt lat="43.50657628340147" lon="10.875271949792445"><ele>294.0</ele><time>2026-04-04T09:54:26.999Z</time></trkpt><trkpt lat="43.50647342726318" lon="10.875255371766437"><ele>294.0</ele><time>2026-04-04T09:54:27.999Z</time></trkpt><trkpt lat="43.50637072095521" lon="10.875220732888156"><ele>294.0</ele><time>2026-04-04T09:54:28.999Z</time></trkpt><trkpt lat="43.50628462122851" lon="10.875155917429474"><ele>294.0</ele><time>2026-04-04T09:54:29.999Z</time></trkpt><trkpt lat="43.50619270574641" lon="10.8750546075523"><ele>290.0</ele><time>2026-04-04T09:54:30.999Z</time></trkpt><trkpt lat="43.5060887703069" lon="10.874943012603136"><ele>286.0</ele><time>2026-04-04T09:54:31.999Z</time></trkpt><trkpt lat="43.50599635962748" lon="10.874845417233953"><ele>282.0</ele><time>2026-04-04T09:54:32.999Z</time></trkpt><trkpt lat="43.505911320771304" lon="10.874757077511104"><ele>278.0</ele><time>2026-04-04T09:54:33.999Z</time></trkpt><trkpt lat="43.50582709764958" lon="10.87468017438043"><ele>278.0</ele><time>2026-04-04T09:54:34.999Z</time></trkpt><trkpt lat="43.5057148952989" lon="10.874641621000277"><ele>278.0</ele><time>2026-04-04T09:54:35.999Z</time></trkpt><trkpt lat="43.505599912343" lon="10.874652964703303"><ele>278.0</ele><time>2026-04-04T09:54:36.999Z</time></trkpt><trkpt lat="43.50549703332208" lon="10.874657808317094"><ele>278.0</ele><time>2026-04-04T09:54:37.999Z</time></trkpt><trkpt lat="43.5053912860845" lon="10.874643794064358"><ele>278.0</ele><time>2026-04-04T09:54:38.999Z</time></trkpt><trkpt lat="43.50529968146951" lon="10.87462603032733"><ele>278.33333333333337</ele><time>2026-04-04T09:54:39.999Z</time></trkpt><trkpt lat="43.50521708223638" lon="10.874608493718085"><ele>278.6666666666667</ele><time>2026-04-04T09:54:40.999Z</time></trkpt><trkpt lat="43.50514000753645" lon="10.874590900611286"><ele>279.0</ele><time>2026-04-04T09:54:41.999Z</time></trkpt><trkpt lat="43.5050570044166" lon="10.874570272212038"><ele>279.3333333333333</ele><time>2026-04-04T09:54:42.999Z</time></trkpt><trkpt lat="43.50495853319673" lon="10.87454917660488"><ele>279.66666666666663</ele><time>2026-04-04T09:54:43.999Z</time></trkpt><trkpt lat="43.50486291526953" lon="10.874525970457901"><ele>280.0</ele><time>2026-04-04T09:54:44.999Z</time></trkpt><trkpt lat="43.504767225915465" lon="10.874498331523203"><ele>280.0</ele><time>2026-04-04T09:54:45.999Z</time></trkpt><trkpt lat="43.50467880194889" lon="10.874472357738274"><ele>280.0</ele><time>2026-04-04T09:54:46.999Z</time></trkpt><trkpt lat="43.504591053845864" lon="10.874445783194187"><ele>280.0</ele><time>2026-04-04T09:54:47.999Z</time></trkpt><trkpt lat="43.504511903057924" lon="10.874414303351308"><ele>280.0</ele><time>2026-04-04T09:54:48.999Z</time></trkpt><trkpt lat="43.50446764316978" lon="10.874351704736151"><ele>280.0</ele><time>2026-04-04T09:54:49.999Z</time></trkpt><trkpt lat="43.50441301851471" lon="10.874265993998122"><ele>280.0</ele><time>2026-04-04T09:54:50.999Z</time></trkpt><trkpt lat="43.50440875020604" lon="10.874150229281444"><ele>280.0</ele><time>2026-04-04T09:54:51.999Z</time></trkpt><trkpt lat="43.5044201047682" lon="10.873987747093906"><ele>280.0</ele><time>2026-04-04T09:54:52.999Z</time></trkpt><trkpt lat="43.5044162788638" lon="10.873773353232128"><ele>280.0</ele><time>2026-04-04T09:54:53.999Z</time></trkpt><trkpt lat="43.50440461924605" lon="10.873549840562779"><ele>280.0</ele><time>2026-04-04T09:54:54.999Z</time></trkpt><trkpt lat="43.50438450662517" lon="10.873353561216222"><ele>278.6</ele><time>2026-04-04T09:54:55.999Z</time></trkpt><trkpt lat="43.50435886119496" lon="10.873185498429711"><ele>277.2</ele><time>2026-04-04T09:54:56.999Z</time></trkpt><trkpt lat="43.50433533128363" lon="10.873042685506075"><ele>275.8</ele><time>2026-04-04T09:54:57.999Z</time></trkpt><trkpt lat="43.50429876576881" lon="10.872918297354342"><ele>274.4</ele><time>2026-04-04T09:54:58.999Z</time></trkpt><trkpt lat="43.504279355065144" lon="10.872793390372816"><ele>273.0</ele><time>2026-04-04T09:54:59.999Z</time></trkpt><trkpt lat="43.504268193488144" lon="10.872671290012587"><ele>270.8</ele><time>2026-04-04T09:55:00.999Z</time></trkpt><trkpt lat="43.50423091128205" lon="10.87255784830063"><ele>268.6</ele><time>2026-04-04T09:55:01.999Z</time></trkpt><trkpt lat="43.504165734401234" lon="10.872443160925336"><ele>266.4</ele><time>2026-04-04T09:55:02.999Z</time></trkpt><trkpt lat="43.50407409629679" lon="10.872338770408057"><ele>264.2</ele><time>2026-04-04T09:55:03.999Z</time></trkpt><trkpt lat="43.503955717018414" lon="10.872258920383779"><ele>262.0</ele><time>2026-04-04T09:55:04.999Z</time></trkpt><trkpt lat="43.503839048462694" lon="10.8721892446661"><ele>264.0</ele><time>2026-04-04T09:55:05.999Z</time></trkpt><trkpt lat="43.503712819417785" lon="10.872117759730795"><ele>266.0</ele><time>2026-04-04T09:55:06.999Z</time></trkpt><trkpt lat="43.50358791298886" lon="10.872048628101346"><ele>268.0</ele><time>2026-04-04T09:55:07.999Z</time></trkpt><trkpt lat="43.50347144267495" lon="10.871990179843987"><ele>270.0</ele><time>2026-04-04T09:55:08.999Z</time></trkpt><trkpt lat="43.50336359902236" lon="10.871933552792985"><ele>270.0</ele><time>2026-04-04T09:55:09.999Z</time></trkpt><trkpt lat="43.50325754459619" lon="10.871843201725975"><ele>270.0</ele><time>2026-04-04T09:55:10.999Z</time></trkpt><trkpt lat="43.503177914473326" lon="10.87173549144882"><ele>270.0</ele><time>2026-04-04T09:55:11.999Z</time></trkpt><trkpt lat="43.50311389187979" lon="10.871607991919511"><ele>270.0</ele><time>2026-04-04T09:55:12.999Z</time></trkpt><trkpt lat="43.503029152110464" lon="10.871432953123543"><ele>269.25</ele><time>2026-04-04T09:55:13.999Z</time></trkpt><trkpt lat="43.50295372387681" lon="10.871276200432742"><ele>268.5</ele><time>2026-04-04T09:55:14.999Z</time></trkpt><trkpt lat="43.502872381341476" lon="10.871123816585133"><ele>267.75</ele><time>2026-04-04T09:55:15.999Z</time></trkpt><trkpt lat="43.50277197506886" lon="10.870974586765577"><ele>267.0</ele><time>2026-04-04T09:55:16.999Z</time></trkpt><trkpt lat="43.50267496745703" lon="10.870846712272211"><ele>264.75</ele><time>2026-04-04T09:55:17.999Z</time></trkpt><trkpt lat="43.502569724146106" lon="10.870732511205084"><ele>262.5</ele><time>2026-04-04T09:55:18.999Z</time></trkpt><trkpt lat="43.50245859534031" lon="10.870633908937164"><ele>260.25</ele><time>2026-04-04T09:55:19.999Z</time></trkpt><trkpt lat="43.50233533292183" lon="10.870566832739158"><ele>258.0</ele><time>2026-04-04T09:55:20.999Z</time></trkpt><trkpt lat="43.502215091406065" lon="10.870526457308172"><ele>258.0</ele><time>2026-04-04T09:55:21.999Z</time></trkpt><trkpt lat="43.50208848679467" lon="10.870521625819482"><ele>258.0</ele><time>2026-04-04T09:55:23Z</time></trkpt><trkpt lat="43.501956278147674" lon="10.870576308679343"><ele>258.0</ele><time>2026-04-04T09:55:24Z</time></trkpt><trkpt lat="43.5018381500427" lon="10.870687706315548"><ele>258.0</ele><time>2026-04-04T09:55:25Z</time></trkpt><trkpt lat="43.501727784796216" lon="10.870826292030072"><ele>259.75</ele><time>2026-04-04T09:55:26Z</time></trkpt><trkpt lat="43.50163005911765" lon="10.8709833333536"><ele>261.5</ele><time>2026-04-04T09:55:27Z</time></trkpt><trkpt lat="43.501524902146045" lon="10.871071441899032"><ele>263.25</ele><time>2026-04-04T09:55:28Z</time></trkpt><trkpt lat="43.50142212801501" lon="10.871105687101007"><ele>265.0</ele><time>2026-04-04T09:55:29Z</time></trkpt><trkpt lat="43.50133052001668" lon="10.87110102582038"><ele>263.5</ele><time>2026-04-04T09:55:30Z</time></trkpt><trkpt lat="43.50122801955016" lon="10.871071585843389"><ele>262.0</ele><time>2026-04-04T09:55:31Z</time></trkpt><trkpt lat="43.50108504571838" lon="10.871039252815764"><ele>260.5</ele><time>2026-04-04T09:55:32Z</time></trkpt><trkpt lat="43.50093512465549" lon="10.871004708791911"><ele>259.0</ele><time>2026-04-04T09:55:33Z</time></trkpt><trkpt lat="43.500787365038846" lon="10.870968444935997"><ele>259.0</ele><time>2026-04-04T09:55:34Z</time></trkpt><trkpt lat="43.50064073809633" lon="10.870941501929686"><ele>259.0</ele><time>2026-04-04T09:55:35Z</time></trkpt><trkpt lat="43.500505579553725" lon="10.870936025819187"><ele>259.0</ele><time>2026-04-04T09:55:36Z</time></trkpt><trkpt lat="43.50038075418823" lon="10.870961879607462"><ele>259.0</ele><time>2026-04-04T09:55:37Z</time></trkpt><trkpt lat="43.500260613771985" lon="10.871039286147292"><ele>257.3333333333333</ele><time>2026-04-04T09:55:38Z</time></trkpt><trkpt lat="43.50015453780007" lon="10.871203063320324"><ele>255.66666666666669</ele><time>2026-04-04T09:55:39Z</time></trkpt><trkpt lat="43.50000868129544" lon="10.871319622053734"><ele>254.0</ele><time>2026-04-04T09:55:40Z</time></trkpt><trkpt lat="43.499903520607646" lon="10.871423536817057"><ele>254.0</ele><time>2026-04-04T09:55:41Z</time></trkpt><trkpt lat="43.499824012032896" lon="10.87151441976333"><ele>253.99999999999997</ele><time>2026-04-04T09:55:42Z</time></trkpt><trkpt lat="43.49976825376817" lon="10.871619534411906"><ele>253.99999999999997</ele><time>2026-04-04T09:55:43Z</time></trkpt><trkpt lat="43.499753959114756" lon="10.87174719572701"><ele>254.0</ele><time>2026-04-04T09:55:44Z</time></trkpt><trkpt lat="43.49974586985861" lon="10.871887636885473"><ele>254.0</ele><time>2026-04-04T09:55:45Z</time></trkpt><trkpt lat="43.499764113148125" lon="10.872051915425006"><ele>254.25</ele><time>2026-04-04T09:55:46Z</time></trkpt><trkpt lat="43.499794985954516" lon="10.872234690276317"><ele>254.5</ele><time>2026-04-04T09:55:47Z</time></trkpt><trkpt lat="43.499823520786215" lon="10.872433233156952"><ele>254.75</ele><time>2026-04-04T09:55:48Z</time></trkpt><trkpt lat="43.499862581997334" lon="10.872624771589688"><ele>255.0</ele><time>2026-04-04T09:55:49Z</time></trkpt><trkpt lat="43.49990774038766" lon="10.872789484363597"><ele>255.0</ele><time>2026-04-04T09:55:50Z</time></trkpt><trkpt lat="43.49996357154217" lon="10.872932704508786"><ele>255.0</ele><time>2026-04-04T09:55:51Z</time></trkpt><trkpt lat="43.50002203670952" lon="10.873063875718438"><ele>255.0</ele><time>2026-04-04T09:55:52Z</time></trkpt><trkpt lat="43.50006177642958" lon="10.873192405623875"><ele>255.0</ele><time>2026-04-04T09:55:53Z</time></trkpt><trkpt lat="43.50008857881483" lon="10.873314636012045"><ele>255.0</ele><time>2026-04-04T09:55:54Z</time></trkpt><trkpt lat="43.50009703251475" lon="10.873426149624303"><ele>256.4</ele><time>2026-04-04T09:55:55Z</time></trkpt><trkpt lat="43.50003208430938" lon="10.873515801342444"><ele>257.8</ele><time>2026-04-04T09:55:56Z</time></trkpt><trkpt lat="43.49999410640751" lon="10.873607325005661"><ele>259.2</ele><time>2026-04-04T09:55:56.999Z</time></trkpt><trkpt lat="43.49990246044211" lon="10.873640357816553"><ele>260.6</ele><time>2026-04-04T09:55:57.999Z</time></trkpt><trkpt lat="43.499807225030864" lon="10.873631194532212"><ele>262.0</ele><time>2026-04-04T09:55:58.999Z</time></trkpt><trkpt lat="43.4997086725233" lon="10.87356863442443"><ele>260.25</ele><time>2026-04-04T09:55:59.999Z</time></trkpt><trkpt lat="43.499622200567046" lon="10.873411895417458"><ele>258.5</ele><time>2026-04-04T09:56:00.999Z</time></trkpt><trkpt lat="43.499514626720604" lon="10.87335804964648"><ele>256.75</ele><time>2026-04-04T09:56:01.999Z</time></trkpt><trkpt lat="43.49942106114411" lon="10.873324962400659"><ele>255.0</ele><time>2026-04-04T09:56:02.999Z</time></trkpt><trkpt lat="43.499312701263335" lon="10.873324825800886"><ele>255.75</ele><time>2026-04-04T09:56:03.999Z</time></trkpt><trkpt lat="43.49919952302319" lon="10.87339504910966"><ele>256.5</ele><time>2026-04-04T09:56:04.999Z</time></trkpt><trkpt lat="43.49910350211977" lon="10.873505152832374"><ele>257.25</ele><time>2026-04-04T09:56:05.999Z</time></trkpt><trkpt lat="43.49900124711547" lon="10.873623891751794"><ele>258.0</ele><time>2026-04-04T09:56:06.999Z</time></trkpt><trkpt lat="43.49890853004776" lon="10.873731724724419"><ele>258.0</ele><time>2026-04-04T09:56:07.999Z</time></trkpt><trkpt lat="43.49883265115386" lon="10.873805212788513"><ele>258.0</ele><time>2026-04-04T09:56:08.999Z</time></trkpt><trkpt lat="43.49875594906656" lon="10.873853663023512"><ele>258.0</ele><time>2026-04-04T09:56:09.999Z</time></trkpt><trkpt lat="43.49867932712366" lon="10.873867990985126"><ele>258.0</ele><time>2026-04-04T09:56:10.999Z</time></trkpt><trkpt lat="43.498597065387585" lon="10.873840851635512"><ele>258.0</ele><time>2026-04-04T09:56:11.999Z</time></trkpt><trkpt lat="43.498520980545024" lon="10.873763574972907"><ele>258.0</ele><time>2026-04-04T09:56:12.999Z</time></trkpt><trkpt lat="43.4984111392998" lon="10.873651367540155"><ele>257.6666666666667</ele><time>2026-04-04T09:56:13.999Z</time></trkpt><trkpt lat="43.49829194503834" lon="10.873508372157053"><ele>257.33333333333337</ele><time>2026-04-04T09:56:14.999Z</time></trkpt><trkpt lat="43.49816846025166" lon="10.87336992775969"><ele>257.0</ele><time>2026-04-04T09:56:15.999Z</time></trkpt><trkpt lat="43.4980575707559" lon="10.873247284861417"><ele>256.0</ele><time>2026-04-04T09:56:16.999Z</time></trkpt><trkpt lat="43.49794699007452" lon="10.87312366190533"><ele>255.0</ele><time>2026-04-04T09:56:17.999Z</time></trkpt><trkpt lat="43.497869657707795" lon="10.873018618693896"><ele>254.0</ele><time>2026-04-04T09:56:18.999Z</time></trkpt><trkpt lat="43.49780410608226" lon="10.872872121624324"><ele>253.0</ele><time>2026-04-04T09:56:19.999Z</time></trkpt><trkpt lat="43.49773763537027" lon="10.872686655487291"><ele>252.25</ele><time>2026-04-04T09:56:20.999Z</time></trkpt><trkpt lat="43.49767370980047" lon="10.872497180495625"><ele>251.5</ele><time>2026-04-04T09:56:21.999Z</time></trkpt><trkpt lat="43.49761925473793" lon="10.872323564779034"><ele>250.75</ele><time>2026-04-04T09:56:22.999Z</time></trkpt><trkpt lat="43.49756967393614" lon="10.872179878693794"><ele>250.0</ele><time>2026-04-04T09:56:23.999Z</time></trkpt><trkpt lat="43.49751882658157" lon="10.872050124286003"><ele>250.0</ele><time>2026-04-04T09:56:24.999Z</time></trkpt><trkpt lat="43.49746187583579" lon="10.871937169840004"><ele>250.0</ele><time>2026-04-04T09:56:25.999Z</time></trkpt><trkpt lat="43.497374986968424" lon="10.871851066313667"><ele>250.0</ele><time>2026-04-04T09:56:26.999Z</time></trkpt><trkpt lat="43.49726097194358" lon="10.871799693725551"><ele>250.0</ele><time>2026-04-04T09:56:27.999Z</time></trkpt><trkpt lat="43.49713304528096" lon="10.871809867495836"><ele>249.25</ele><time>2026-04-04T09:56:28.999Z</time></trkpt><trkpt lat="43.496996596255144" lon="10.871837306323952"><ele>248.5</ele><time>2026-04-04T09:56:29.999Z</time></trkpt><trkpt lat="43.496848943916746" lon="10.871867736992607"><ele>247.75</ele><time>2026-04-04T09:56:30.999Z</time></trkpt><trkpt lat="43.496710749339414" lon="10.871892783927459"><ele>247.0</ele><time>2026-04-04T09:56:31.999Z</time></trkpt><trkpt lat="43.49658409479686" lon="10.871913015587191"><ele>247.0</ele><time>2026-04-04T09:56:32.999Z</time></trkpt><trkpt lat="43.496466436063514" lon="10.871928923216826"><ele>247.0</ele><time>2026-04-04T09:56:33.999Z</time></trkpt><trkpt lat="43.49635662525471" lon="10.871942191525564"><ele>247.0</ele><time>2026-04-04T09:56:34.999Z</time></trkpt><trkpt lat="43.49624709996716" lon="10.871950523107943"><ele>247.0</ele><time>2026-04-04T09:56:35.999Z</time></trkpt><trkpt lat="43.496139340989316" lon="10.871973848797833"><ele>247.0</ele><time>2026-04-04T09:56:36.999Z</time></trkpt><trkpt lat="43.49603705451728" lon="10.872000961757461"><ele>245.6</ele><time>2026-04-04T09:56:37.999Z</time></trkpt><trkpt lat="43.495944964198024" lon="10.872026344519684"><ele>244.2</ele><time>2026-04-04T09:56:38.999Z</time></trkpt><trkpt lat="43.49584513005173" lon="10.872055283013664"><ele>242.8</ele><time>2026-04-04T09:56:40.999Z</time></trkpt><trkpt lat="43.4957573655816" lon="10.872077931835836"><ele>241.4</ele><time>2026-04-04T09:56:43.999Z</time></trkpt><trkpt lat="43.495679637436474" lon="10.872130331010755"><ele>240.0</ele><time>2026-04-04T10:01:36.999Z</time></trkpt><trkpt lat="43.495573065297435" lon="10.872146830613763"><ele>240.0</ele><time>2026-04-04T10:01:38.999Z</time></trkpt><trkpt lat="43.49549287475096" lon="10.87215756318746"><ele>240.0</ele><time>2026-04-04T10:01:40.999Z</time></trkpt><trkpt lat="43.49541062601381" lon="10.872152660845924"><ele>240.0</ele><time>2026-04-04T10:01:41.999Z</time></trkpt><trkpt lat="43.495316739736914" lon="10.87214350059965"><ele>240.0</ele><time>2026-04-04T10:01:42.999Z</time></trkpt><trkpt lat="43.49521467611809" lon="10.872085518555892"><ele>240.0</ele><time>2026-04-04T10:01:43.999Z</time></trkpt><trkpt lat="43.49511911849113" lon="10.872060901354537"><ele>239.4</ele><time>2026-04-04T10:01:44.999Z</time></trkpt><trkpt lat="43.49504038959465" lon="10.8720352759898"><ele>238.8</ele><time>2026-04-04T10:01:45.999Z</time></trkpt><trkpt lat="43.49495568059377" lon="10.87199736478457"><ele>238.2</ele><time>2026-04-04T10:01:46.999Z</time></trkpt><trkpt lat="43.494877658469626" lon="10.871955721497404"><ele>237.6</ele><time>2026-04-04T10:01:47.999Z</time></trkpt><trkpt lat="43.49479293790966" lon="10.871908915733947"><ele>237.0</ele><time>2026-04-04T10:01:48.999Z</time></trkpt><trkpt lat="43.494691551616675" lon="10.871852647023104"><ele>236.6</ele><time>2026-04-04T10:01:49.999Z</time></trkpt><trkpt lat="43.4945765845313" lon="10.871786567794747"><ele>236.2</ele><time>2026-04-04T10:01:50.999Z</time></trkpt><trkpt lat="43.49448354204226" lon="10.87173088826656"><ele>235.8</ele><time>2026-04-04T10:01:51.999Z</time></trkpt><trkpt lat="43.494404050591896" lon="10.871672383725699"><ele>235.4</ele><time>2026-04-04T10:01:52.999Z</time></trkpt><trkpt lat="43.494318408271994" lon="10.87160919868057"><ele>235.0</ele><time>2026-04-04T10:01:53.999Z</time></trkpt><trkpt lat="43.494258250811846" lon="10.871466447430912"><ele>236.25</ele><time>2026-04-04T10:01:54.999Z</time></trkpt><trkpt lat="43.49418665969564" lon="10.871328881555257"><ele>237.5</ele><time>2026-04-04T10:01:55.999Z</time></trkpt><trkpt lat="43.49411089553141" lon="10.871186627132138"><ele>238.75</ele><time>2026-04-04T10:01:56.999Z</time></trkpt><trkpt lat="43.49404062949889" lon="10.871033909005305"><ele>240.0</ele><time>2026-04-04T10:01:57.999Z</time></trkpt><trkpt lat="43.49397471269745" lon="10.870893029590581"><ele>240.0</ele><time>2026-04-04T10:01:58.999Z</time></trkpt><trkpt lat="43.49392093520723" lon="10.87073852872891"><ele>240.0</ele><time>2026-04-04T10:01:59.999Z</time></trkpt><trkpt lat="43.493856961143635" lon="10.870593625957813"><ele>240.0</ele><time>2026-04-04T10:02:00.999Z</time></trkpt><trkpt lat="43.49378714159551" lon="10.87047711401129"><ele>240.0</ele><time>2026-04-04T10:02:01.999Z</time></trkpt><trkpt lat="43.49374021663235" lon="10.870362114919692"><ele>240.2</ele><time>2026-04-04T10:02:02.999Z</time></trkpt><trkpt lat="43.49370449176014" lon="10.87024224012319"><ele>240.4</ele><time>2026-04-04T10:02:03.999Z</time></trkpt><trkpt lat="43.49364053534443" lon="10.870138071327613"><ele>240.60000000000002</ele><time>2026-04-04T10:02:04.999Z</time></trkpt><trkpt lat="43.49357020420042" lon="10.870013710504917"><ele>240.8</ele><time>2026-04-04T10:02:05.999Z</time></trkpt><trkpt lat="43.49348551257228" lon="10.869890681394363"><ele>241.0</ele><time>2026-04-04T10:02:06.999Z</time></trkpt><trkpt lat="43.493372667565694" lon="10.86978974133919"><ele>241.25</ele><time>2026-04-04T10:02:07.999Z</time></trkpt><trkpt lat="43.49325871141264" lon="10.869690458834986"><ele>241.5</ele><time>2026-04-04T10:02:08.999Z</time></trkpt><trkpt lat="43.49314415218726" lon="10.869594481511944"><ele>241.75</ele><time>2026-04-04T10:02:09.999Z</time></trkpt><trkpt lat="43.493027396162496" lon="10.86949698979819"><ele>242.0</ele><time>2026-04-04T10:02:10.999Z</time></trkpt><trkpt lat="43.492912715073665" lon="10.869411243161244"><ele>241.2</ele><time>2026-04-04T10:02:11.999Z</time></trkpt><trkpt lat="43.492808094137324" lon="10.86933862951032"><ele>240.39999999999998</ele><time>2026-04-04T10:02:12.999Z</time></trkpt><trkpt lat="43.49270894130142" lon="10.869271236504156"><ele>239.60000000000002</ele><time>2026-04-04T10:02:13.999Z</time></trkpt><trkpt lat="43.49261056962834" lon="10.869202378500107"><ele>238.8</ele><time>2026-04-04T10:02:14.999Z</time></trkpt><trkpt lat="43.4925217663221" lon="10.869127667209108"><ele>238.0</ele><time>2026-04-04T10:02:15.999Z</time></trkpt><trkpt lat="43.49244435960473" lon="10.869061233845354"><ele>237.4</ele><time>2026-04-04T10:02:16.999Z</time></trkpt><trkpt lat="43.492392776023216" lon="10.868967569652263"><ele>236.8</ele><time>2026-04-04T10:02:17.999Z</time></trkpt><trkpt lat="43.492366643306255" lon="10.868859401117986"><ele>236.2</ele><time>2026-04-04T10:02:18.999Z</time></trkpt><trkpt lat="43.492375575605024" lon="10.868730531943616"><ele>235.6</ele><time>2026-04-04T10:02:19.999Z</time></trkpt><trkpt lat="43.492412974983424" lon="10.8685909131584"><ele>235.0</ele><time>2026-04-04T10:02:20.999Z</time></trkpt><trkpt lat="43.49248535283412" lon="10.868433624187443"><ele>233.5</ele><time>2026-04-04T10:02:21.999Z</time></trkpt><trkpt lat="43.49257150239117" lon="10.868254526869507"><ele>232.0</ele><time>2026-04-04T10:02:22.999Z</time></trkpt><trkpt lat="43.492649337807705" lon="10.868083373655592"><ele>230.5</ele><time>2026-04-04T10:02:23.999Z</time></trkpt><trkpt lat="43.492713244654524" lon="10.867926499302262"><ele>229.0</ele><time>2026-04-04T10:02:24.999Z</time></trkpt><trkpt lat="43.49275917650302" lon="10.867765234063864"><ele>227.5</ele><time>2026-04-04T10:02:25.999Z</time></trkpt><trkpt lat="43.49279016842039" lon="10.867596411930554"><ele>226.0</ele><time>2026-04-04T10:02:26.999Z</time></trkpt><trkpt lat="43.49279883740143" lon="10.867412557692322"><ele>224.5</ele><time>2026-04-04T10:02:27.999Z</time></trkpt><trkpt lat="43.49278712451114" lon="10.86724001928883"><ele>223.0</ele><time>2026-04-04T10:02:28.999Z</time></trkpt><trkpt lat="43.492746749604244" lon="10.867072644000357"><ele>223.0</ele><time>2026-04-04T10:02:29.999Z</time></trkpt><trkpt lat="43.4926862167046" lon="10.866894459830569"><ele>223.0</ele><time>2026-04-04T10:02:30.999Z</time></trkpt><trkpt lat="43.49261320247657" lon="10.866730597280391"><ele>223.0</ele><time>2026-04-04T10:02:31.999Z</time></trkpt><trkpt lat="43.49257918666424" lon="10.866561166618329"><ele>223.0</ele><time>2026-04-04T10:02:32.999Z</time></trkpt><trkpt lat="43.49253346302179" lon="10.86638787198686"><ele>222.0</ele><time>2026-04-04T10:02:33.999Z</time></trkpt><trkpt lat="43.49248700876439" lon="10.86621449148696"><ele>221.0</ele><time>2026-04-04T10:02:34.999Z</time></trkpt><trkpt lat="43.49242232262525" lon="10.86605438518478"><ele>220.0</ele><time>2026-04-04T10:02:35.999Z</time></trkpt><trkpt lat="43.49231837144972" lon="10.865905296719477"><ele>219.0</ele><time>2026-04-04T10:02:36.999Z</time></trkpt><trkpt lat="43.49219037423706" lon="10.865770337585694"><ele>216.33333333333331</ele><time>2026-04-04T10:02:37.999Z</time></trkpt><trkpt lat="43.492051490858266" lon="10.865664648996553"><ele>213.66666666666666</ele><time>2026-04-04T10:02:38.999Z</time></trkpt><trkpt lat="43.49192079708049" lon="10.865569665721539"><ele>211.0</ele><time>2026-04-04T10:02:39.999Z</time></trkpt><trkpt lat="43.49179741743309" lon="10.86546872273064"><ele>211.0</ele><time>2026-04-04T10:02:40.999Z</time></trkpt><trkpt lat="43.491694613409024" lon="10.86534824659997"><ele>211.0</ele><time>2026-04-04T10:02:41.999Z</time></trkpt><trkpt lat="43.49159297229511" lon="10.865207609311613"><ele>211.0</ele><time>2026-04-04T10:02:42.999Z</time></trkpt><trkpt lat="43.49148262122703" lon="10.865057873589024"><ele>211.0</ele><time>2026-04-04T10:02:43.999Z</time></trkpt><trkpt lat="43.49137394068377" lon="10.864897461074271"><ele>211.75</ele><time>2026-04-04T10:02:44.999Z</time></trkpt><trkpt lat="43.491265358367976" lon="10.864751561483898"><ele>212.5</ele><time>2026-04-04T10:02:45.999Z</time></trkpt><trkpt lat="43.49116718385031" lon="10.86462387705201"><ele>213.25</ele><time>2026-04-04T10:02:46.999Z</time></trkpt><trkpt lat="43.491076946863004" lon="10.864490777190886"><ele>214.0</ele><time>2026-04-04T10:02:47.999Z</time></trkpt><trkpt lat="43.49100098907382" lon="10.86435524995551"><ele>214.75</ele><time>2026-04-04T10:02:48.999Z</time></trkpt><trkpt lat="43.49093001697301" lon="10.864214261577496"><ele>215.5</ele><time>2026-04-04T10:02:49.999Z</time></trkpt><trkpt lat="43.49085333191074" lon="10.864064750721042"><ele>216.25</ele><time>2026-04-04T10:02:50.999Z</time></trkpt><trkpt lat="43.49076130951176" lon="10.863906157897498"><ele>217.0</ele><time>2026-04-04T10:02:51.999Z</time></trkpt><trkpt lat="43.49065931434116" lon="10.86374852059745"><ele>217.0</ele><time>2026-04-04T10:02:52.999Z</time></trkpt><trkpt lat="43.49055137973368" lon="10.863591633281565"><ele>217.0</ele><time>2026-04-04T10:02:53.999Z</time></trkpt><trkpt lat="43.490436910701575" lon="10.86342953842794"><ele>217.0</ele><time>2026-04-04T10:02:54.999Z</time></trkpt><trkpt lat="43.490326125372945" lon="10.863276512709458"><ele>216.5</ele><time>2026-04-04T10:02:55.999Z</time></trkpt><trkpt lat="43.49022474779869" lon="10.863139245953347"><ele>216.0</ele><time>2026-04-04T10:02:56.999Z</time></trkpt><trkpt lat="43.490120226974696" lon="10.862996113685496"><ele>215.5</ele><time>2026-04-04T10:02:57.999Z</time></trkpt><trkpt lat="43.49001077559277" lon="10.862846213096843"><ele>215.0</ele><time>2026-04-04T10:02:58.999Z</time></trkpt><trkpt lat="43.48990783392187" lon="10.862705511002897"><ele>215.25</ele><time>2026-04-04T10:02:59.999Z</time></trkpt><trkpt lat="43.4898025065971" lon="10.86259394608128"><ele>215.5</ele><time>2026-04-04T10:03:00.999Z</time></trkpt><trkpt lat="43.48972999105002" lon="10.862459149744389"><ele>215.75</ele><time>2026-04-04T10:03:01.999Z</time></trkpt><trkpt lat="43.48965815423265" lon="10.862350084483912"><ele>216.0</ele><time>2026-04-04T10:03:02.999Z</time></trkpt><trkpt lat="43.48959209807696" lon="10.862262099162683"><ele>216.0</ele><time>2026-04-04T10:03:03.999Z</time></trkpt><trkpt lat="43.489557650087484" lon="10.862155176207548"><ele>216.00000000000003</ele><time>2026-04-04T10:03:04.999Z</time></trkpt><trkpt lat="43.48957735532582" lon="10.862032143732836"><ele>216.00000000000003</ele><time>2026-04-04T10:03:05.999Z</time></trkpt><trkpt lat="43.48960771103161" lon="10.8618955708702"><ele>216.0</ele><time>2026-04-04T10:03:06.999Z</time></trkpt><trkpt lat="43.48964058785013" lon="10.86172995237528"><ele>216.0</ele><time>2026-04-04T10:03:07.999Z</time></trkpt><trkpt lat="43.489689439226005" lon="10.861552768359203"><ele>217.0</ele><time>2026-04-04T10:03:08.999Z</time></trkpt><trkpt lat="43.489721884772315" lon="10.861385998897028"><ele>218.0</ele><time>2026-04-04T10:03:09.999Z</time></trkpt><trkpt lat="43.489742193377964" lon="10.86120972051586"><ele>219.0</ele><time>2026-04-04T10:03:10.999Z</time></trkpt><trkpt lat="43.489733906100135" lon="10.86101683790224"><ele>220.0</ele><time>2026-04-04T10:03:11.999Z</time></trkpt><trkpt lat="43.48969180611186" lon="10.860814299354098"><ele>220.0</ele><time>2026-04-04T10:03:12.999Z</time></trkpt><trkpt lat="43.489633513446016" lon="10.860618187680972"><ele>220.0</ele><time>2026-04-04T10:03:13.999Z</time></trkpt><trkpt lat="43.48960059894003" lon="10.860406589389136"><ele>220.0</ele><time>2026-04-04T10:03:14.999Z</time></trkpt><trkpt lat="43.48955384180623" lon="10.860204919873468"><ele>218.0</ele><time>2026-04-04T10:03:15.999Z</time></trkpt><trkpt lat="43.48951166443205" lon="10.86003019399653"><ele>216.0</ele><time>2026-04-04T10:03:16.999Z</time></trkpt><trkpt lat="43.489454681002144" lon="10.859865459685622"><ele>214.0</ele><time>2026-04-04T10:03:17.999Z</time></trkpt><trkpt lat="43.48941494187002" lon="10.859706360237398"><ele>212.0</ele><time>2026-04-04T10:03:18.999Z</time></trkpt><trkpt lat="43.48937066883773" lon="10.859549391414179"><ele>212.0</ele><time>2026-04-04T10:03:19.999Z</time></trkpt><trkpt lat="43.48931590445976" lon="10.859381005402382"><ele>212.0</ele><time>2026-04-04T10:03:20.999Z</time></trkpt><trkpt lat="43.48920377752802" lon="10.859246294192923"><ele>212.0</ele><time>2026-04-04T10:03:21.999Z</time></trkpt><trkpt lat="43.489092601146595" lon="10.859105426901634"><ele>212.0</ele><time>2026-04-04T10:03:22.999Z</time></trkpt><trkpt lat="43.488965219966886" lon="10.858977759981157"><ele>212.25</ele><time>2026-04-04T10:03:23.999Z</time></trkpt><trkpt lat="43.488846431248675" lon="10.858859120728994"><ele>212.5</ele><time>2026-04-04T10:03:24.999Z</time></trkpt><trkpt lat="43.48875249729435" lon="10.85873449204609"><ele>212.75</ele><time>2026-04-04T10:03:25.999Z</time></trkpt><trkpt lat="43.488644776013864" lon="10.858635088105093"><ele>213.0</ele><time>2026-04-04T10:03:26.999Z</time></trkpt><trkpt lat="43.488545759788956" lon="10.858496496928046"><ele>213.5</ele><time>2026-04-04T10:03:27.999Z</time></trkpt><trkpt lat="43.488450929018" lon="10.858349263669703"><ele>214.0</ele><time>2026-04-04T10:03:28.999Z</time></trkpt><trkpt lat="43.4883583948656" lon="10.858191580407649"><ele>214.5</ele><time>2026-04-04T10:03:29.999Z</time></trkpt><trkpt lat="43.48826201724418" lon="10.858050110343195"><ele>215.0</ele><time>2026-04-04T10:03:30.999Z</time></trkpt><trkpt lat="43.48816448687973" lon="10.857903817176377"><ele>215.0</ele><time>2026-04-04T10:03:31.999Z</time></trkpt><trkpt lat="43.488064570176356" lon="10.857744580628864"><ele>215.0</ele><time>2026-04-04T10:03:32.999Z</time></trkpt><trkpt lat="43.487975143602554" lon="10.857595282047901"><ele>215.0</ele><time>2026-04-04T10:03:33.999Z</time></trkpt><trkpt lat="43.48790089832323" lon="10.857442369292883"><ele>215.0</ele><time>2026-04-04T10:03:34.999Z</time></trkpt><trkpt lat="43.487825931671644" lon="10.857270000409594"><ele>214.33333333333334</ele><time>2026-04-04T10:03:35.999Z</time></trkpt><trkpt lat="43.48774579403294" lon="10.857083015881711"><ele>213.66666666666669</ele><time>2026-04-04T10:03:36.999Z</time></trkpt><trkpt lat="43.48766596626925" lon="10.856892094532535"><ele>213.0</ele><time>2026-04-04T10:03:37.999Z</time></trkpt><trkpt lat="43.48758852525802" lon="10.856705329161947"><ele>213.0</ele><time>2026-04-04T10:03:38.999Z</time></trkpt><trkpt lat="43.487518736328575" lon="10.856529821927234"><ele>213.0</ele><time>2026-04-04T10:03:39.999Z</time></trkpt><trkpt lat="43.48744586151688" lon="10.856362914101071"><ele>213.0</ele><time>2026-04-04T10:03:40.999Z</time></trkpt><trkpt lat="43.48735749677631" lon="10.856210133372773"><ele>213.0</ele><time>2026-04-04T10:03:41.998Z</time></trkpt><trkpt lat="43.48724700316934" lon="10.856063317141155"><ele>212.0</ele><time>2026-04-04T10:03:42.998Z</time></trkpt><trkpt lat="43.48712312962807" lon="10.85593902811632"><ele>211.0</ele><time>2026-04-04T10:03:43.998Z</time></trkpt><trkpt lat="43.48700660124626" lon="10.855792772279655"><ele>210.0</ele><time>2026-04-04T10:03:44.998Z</time></trkpt><trkpt lat="43.48691308790075" lon="10.855621683694801"><ele>210.0</ele><time>2026-04-04T10:03:45.998Z</time></trkpt><trkpt lat="43.486825010767674" lon="10.855457654253204"><ele>210.0</ele><time>2026-04-04T10:03:46.999Z</time></trkpt><trkpt lat="43.486743314703254" lon="10.855261801033253"><ele>210.0</ele><time>2026-04-04T10:03:47.999Z</time></trkpt><trkpt lat="43.486669634303595" lon="10.855037410858142"><ele>210.0</ele><time>2026-04-04T10:03:48.999Z</time></trkpt><trkpt lat="43.486606157505086" lon="10.854814400842917"><ele>210.0</ele><time>2026-04-04T10:03:49.999Z</time></trkpt><trkpt lat="43.486546065802635" lon="10.854586445001102"><ele>210.0</ele><time>2026-04-04T10:03:50.999Z</time></trkpt><trkpt lat="43.486485175337485" lon="10.854345362787589"><ele>209.0</ele><time>2026-04-04T10:03:51.999Z</time></trkpt><trkpt lat="43.48642572814507" lon="10.854108392562628"><ele>208.0</ele><time>2026-04-04T10:03:52.999Z</time></trkpt><trkpt lat="43.4863657187693" lon="10.853866935830698"><ele>207.0</ele><time>2026-04-04T10:03:53.999Z</time></trkpt><trkpt lat="43.486309116954786" lon="10.853637198387501"><ele>206.66666666666669</ele><time>2026-04-04T10:03:54.999Z</time></trkpt><trkpt lat="43.48625225021164" lon="10.853399941663676"><ele>206.33333333333334</ele><time>2026-04-04T10:03:55.999Z</time></trkpt><trkpt lat="43.486203578268665" lon="10.853174317937254"><ele>206.0</ele><time>2026-04-04T10:03:56.999Z</time></trkpt><trkpt lat="43.48616007052905" lon="10.852965922220907"><ele>206.0</ele><time>2026-04-04T10:03:57.999Z</time></trkpt><trkpt lat="43.48611843717803" lon="10.85276827096869"><ele>206.0</ele><time>2026-04-04T10:03:58.999Z</time></trkpt><trkpt lat="43.48607197852061" lon="10.852577765959909"><ele>206.0</ele><time>2026-04-04T10:03:59.999Z</time></trkpt><trkpt lat="43.48601047108603" lon="10.852406216901636"><ele>206.0</ele><time>2026-04-04T10:04:00.999Z</time></trkpt><trkpt lat="43.48594300887032" lon="10.852250725415125"><ele>205.75</ele><time>2026-04-04T10:04:01.999Z</time></trkpt><trkpt lat="43.48586743863937" lon="10.852100873591429"><ele>205.5</ele><time>2026-04-04T10:04:02.999Z</time></trkpt><trkpt lat="43.48577577507109" lon="10.851942163397839"><ele>205.25</ele><time>2026-04-04T10:04:03.999Z</time></trkpt><trkpt lat="43.48567798888086" lon="10.851802602358427"><ele>205.0</ele><time>2026-04-04T10:04:04.999Z</time></trkpt><trkpt lat="43.48558130926965" lon="10.851670548233587"><ele>204.75</ele><time>2026-04-04T10:04:05.999Z</time></trkpt><trkpt lat="43.48546673547027" lon="10.851540215877725"><ele>204.5</ele><time>2026-04-04T10:04:06.999Z</time></trkpt><trkpt lat="43.48536304313297" lon="10.851401593799174"><ele>204.25</ele><time>2026-04-04T10:04:07.999Z</time></trkpt><trkpt lat="43.48526696813474" lon="10.851278154532773"><ele>204.0</ele><time>2026-04-04T10:04:08.999Z</time></trkpt><trkpt lat="43.48519050516929" lon="10.85113568688325"><ele>204.5</ele><time>2026-04-04T10:04:09.999Z</time></trkpt><trkpt lat="43.48512406093934" lon="10.850987723295376"><ele>205.0</ele><time>2026-04-04T10:04:10.999Z</time></trkpt><trkpt lat="43.48506753396853" lon="10.850825803097141"><ele>205.5</ele><time>2026-04-04T10:04:11.999Z</time></trkpt><trkpt lat="43.48502161655442" lon="10.850673343687403"><ele>206.0</ele><time>2026-04-04T10:04:12.999Z</time></trkpt><trkpt lat="43.48498688275797" lon="10.850519278995826"><ele>206.25</ele><time>2026-04-04T10:04:13.999Z</time></trkpt><trkpt lat="43.48496168846147" lon="10.850356533971917"><ele>206.5</ele><time>2026-04-04T10:04:14.999Z</time></trkpt><trkpt lat="43.484943371101444" lon="10.850199935442344"><ele>206.75</ele><time>2026-04-04T10:04:15.999Z</time></trkpt><trkpt lat="43.4849260070208" lon="10.85004063484885"><ele>207.0</ele><time>2026-04-04T10:04:16.999Z</time></trkpt><trkpt lat="43.484985386679526" lon="10.849896185784713"><ele>206.5</ele><time>2026-04-04T10:04:17.999Z</time></trkpt><trkpt lat="43.4850503941298" lon="10.849741521497325"><ele>206.0</ele><time>2026-04-04T10:04:18.999Z</time></trkpt><trkpt lat="43.48512271021657" lon="10.849561401245516"><ele>205.5</ele><time>2026-04-04T10:04:19.999Z</time></trkpt><trkpt lat="43.485183191781196" lon="10.849374774823575"><ele>205.0</ele><time>2026-04-04T10:04:20.999Z</time></trkpt><trkpt lat="43.48523260168531" lon="10.84917073036335"><ele>205.0</ele><time>2026-04-04T10:04:21.999Z</time></trkpt><trkpt lat="43.48527065553304" lon="10.848947308327707"><ele>205.0</ele><time>2026-04-04T10:04:22.999Z</time></trkpt><trkpt lat="43.485311607680906" lon="10.848715996865069"><ele>205.0</ele><time>2026-04-04T10:04:23.999Z</time></trkpt><trkpt lat="43.485339240497346" lon="10.848477408973048"><ele>205.66666666666666</ele><time>2026-04-04T10:04:24.999Z</time></trkpt><trkpt lat="43.48538385251811" lon="10.84826377742149"><ele>206.33333333333331</ele><time>2026-04-04T10:04:25.999Z</time></trkpt><trkpt lat="43.4854498434394" lon="10.848065520673666"><ele>207.0</ele><time>2026-04-04T10:04:26.999Z</time></trkpt><trkpt lat="43.485506032251756" lon="10.847824901204321"><ele>207.33333333333331</ele><time>2026-04-04T10:04:27.999Z</time></trkpt><trkpt lat="43.4855410426715" lon="10.847559936648569"><ele>207.66666666666666</ele><time>2026-04-04T10:04:28.999Z</time></trkpt><trkpt lat="43.48555834662955" lon="10.847276272714439"><ele>208.0</ele><time>2026-04-04T10:04:29.999Z</time></trkpt><trkpt lat="43.485565789328504" lon="10.847012814899783"><ele>208.25</ele><time>2026-04-04T10:04:30.999Z</time></trkpt><trkpt lat="43.48557181389592" lon="10.846789181772385"><ele>208.5</ele><time>2026-04-04T10:04:31.999Z</time></trkpt><trkpt lat="43.48558087764292" lon="10.846588998044961"><ele>208.75</ele><time>2026-04-04T10:04:32.999Z</time></trkpt><trkpt lat="43.48559624762162" lon="10.846413344323553"><ele>209.0</ele><time>2026-04-04T10:04:33.999Z</time></trkpt><trkpt lat="43.48563661952885" lon="10.846271993162642"><ele>209.0</ele><time>2026-04-04T10:04:34.999Z</time></trkpt><trkpt lat="43.48570158572329" lon="10.84614770083926"><ele>209.0</ele><time>2026-04-04T10:04:35.999Z</time></trkpt><trkpt lat="43.48577889465927" lon="10.845988311852842"><ele>209.0</ele><time>2026-04-04T10:04:36.999Z</time></trkpt><trkpt lat="43.485876251745935" lon="10.845853587175283"><ele>209.0</ele><time>2026-04-04T10:04:37.999Z</time></trkpt><trkpt lat="43.48593899855616" lon="10.845716660841644"><ele>210.75</ele><time>2026-04-04T10:04:38.999Z</time></trkpt><trkpt lat="43.48596125737021" lon="10.84555905301856"><ele>212.5</ele><time>2026-04-04T10:04:39.999Z</time></trkpt><trkpt lat="43.485954883616216" lon="10.845374687846276"><ele>214.25</ele><time>2026-04-04T10:04:40.999Z</time></trkpt><trkpt lat="43.485924083655156" lon="10.845183802018047"><ele>216.0</ele><time>2026-04-04T10:04:41.999Z</time></trkpt><trkpt lat="43.48590086554726" lon="10.844977062753237"><ele>217.4</ele><time>2026-04-04T10:04:42.999Z</time></trkpt><trkpt lat="43.48588022677592" lon="10.844780517665853"><ele>218.8</ele><time>2026-04-04T10:04:43.999Z</time></trkpt><trkpt lat="43.48586244136992" lon="10.844626322297719"><ele>220.20000000000002</ele><time>2026-04-04T10:04:44.999Z</time></trkpt><trkpt lat="43.48583403031231" lon="10.84451126987984"><ele>221.60000000000002</ele><time>2026-04-04T10:04:45.999Z</time></trkpt><trkpt lat="43.48581720521131" lon="10.844394839296594"><ele>223.0</ele><time>2026-04-04T10:04:46.999Z</time></trkpt><trkpt lat="43.4857657301131" lon="10.844281155931037"><ele>223.2</ele><time>2026-04-04T10:04:47.999Z</time></trkpt><trkpt lat="43.48568310892744" lon="10.844178416092573"><ele>223.4</ele><time>2026-04-04T10:04:48.999Z</time></trkpt><trkpt lat="43.48559281307563" lon="10.844103794403868"><ele>223.59999999999997</ele><time>2026-04-04T10:04:49.999Z</time></trkpt><trkpt lat="43.48551962696982" lon="10.844046105090758"><ele>223.79999999999998</ele><time>2026-04-04T10:04:50.999Z</time></trkpt><trkpt lat="43.48544842934817" lon="10.843994605190975"><ele>224.0</ele><time>2026-04-04T10:04:51.999Z</time></trkpt><trkpt lat="43.485367742002964" lon="10.843937824618488"><ele>225.66666666666669</ele><time>2026-04-04T10:04:52.999Z</time></trkpt><trkpt lat="43.48528403798766" lon="10.84388514014551"><ele>227.33333333333334</ele><time>2026-04-04T10:04:53.999Z</time></trkpt><trkpt lat="43.485197856748684" lon="10.843835853001163"><ele>229.0</ele><time>2026-04-04T10:04:54.999Z</time></trkpt><trkpt lat="43.485122783508146" lon="10.843793274112526"><ele>230.66666666666669</ele><time>2026-04-04T10:04:55.999Z</time></trkpt><trkpt lat="43.485060073853184" lon="10.843747168857895"><ele>232.33333333333334</ele><time>2026-04-04T10:04:56.999Z</time></trkpt><trkpt lat="43.48499972140097" lon="10.843690382548616"><ele>234.0</ele><time>2026-04-04T10:04:57.999Z</time></trkpt><trkpt lat="43.48495084076676" lon="10.843592487769518"><ele>234.0</ele><time>2026-04-04T10:04:58.999Z</time></trkpt><trkpt lat="43.484927101211724" lon="10.843458281757307"><ele>233.99999999999997</ele><time>2026-04-04T10:04:59.999Z</time></trkpt><trkpt lat="43.484892009177706" lon="10.843318918114027"><ele>233.99999999999997</ele><time>2026-04-04T10:05:00.999Z</time></trkpt><trkpt lat="43.48488525889751" lon="10.843182336825143"><ele>234.0</ele><time>2026-04-04T10:05:01.999Z</time></trkpt><trkpt lat="43.48487018615992" lon="10.843053223216074"><ele>234.0</ele><time>2026-04-04T10:05:02.999Z</time></trkpt><trkpt lat="43.48485219048366" lon="10.842899500230395"><ele>234.0</ele><time>2026-04-04T10:05:03.999Z</time></trkpt><trkpt lat="43.484826343765405" lon="10.842712309665758"><ele>234.0</ele><time>2026-04-04T10:05:04.999Z</time></trkpt><trkpt lat="43.48479319099192" lon="10.842509726891164"><ele>234.0</ele><time>2026-04-04T10:05:05.999Z</time></trkpt><trkpt lat="43.484777976226695" lon="10.842282923638352"><ele>234.0</ele><time>2026-04-04T10:05:06.999Z</time></trkpt><trkpt lat="43.484725968128856" lon="10.84208907842311"><ele>234.0</ele><time>2026-04-04T10:05:07.999Z</time></trkpt><trkpt lat="43.48469979756808" lon="10.841901481354018"><ele>234.0</ele><time>2026-04-04T10:05:08.999Z</time></trkpt><trkpt lat="43.48466857676431" lon="10.84170978418912"><ele>234.0</ele><time>2026-04-04T10:05:09.999Z</time></trkpt><trkpt lat="43.48464823703969" lon="10.84154256691833"><ele>234.5</ele><time>2026-04-04T10:05:10.999Z</time></trkpt><trkpt lat="43.48466392209902" lon="10.841401149039733"><ele>235.0</ele><time>2026-04-04T10:05:11.999Z</time></trkpt><trkpt lat="43.48466649784615" lon="10.841275129094573"><ele>235.5</ele><time>2026-04-04T10:05:12.999Z</time></trkpt><trkpt lat="43.48466171350917" lon="10.841156805790385"><ele>236.0</ele><time>2026-04-04T10:05:13.999Z</time></trkpt><trkpt lat="43.48467189673124" lon="10.84104561056834"><ele>236.5</ele><time>2026-04-04T10:05:14.999Z</time></trkpt><trkpt lat="43.4846687488217" lon="10.840931088997497"><ele>237.0</ele><time>2026-04-04T10:05:15.999Z</time></trkpt><trkpt lat="43.484653379923955" lon="10.840802175386015"><ele>237.6</ele><time>2026-04-04T10:05:16.999Z</time></trkpt><trkpt lat="43.484646669337714" lon="10.840684921735555"><ele>238.2</ele><time>2026-04-04T10:05:17.999Z</time></trkpt><trkpt lat="43.48461459267036" lon="10.840589673320505"><ele>238.8</ele><time>2026-04-04T10:05:18.999Z</time></trkpt><trkpt lat="43.484565780528754" lon="10.840494147386021"><ele>239.4</ele><time>2026-04-04T10:05:19.999Z</time></trkpt><trkpt lat="43.48449175182181" lon="10.84042167175197"><ele>240.0</ele><time>2026-04-04T10:05:20.999Z</time></trkpt><trkpt lat="43.48440370374735" lon="10.840317077122352"><ele>240.75</ele><time>2026-04-04T10:05:21.999Z</time></trkpt><trkpt lat="43.48429512651765" lon="10.84020448628471"><ele>241.5</ele><time>2026-04-04T10:05:22.999Z</time></trkpt><trkpt lat="43.48420429696516" lon="10.840093290829964"><ele>242.25</ele><time>2026-04-04T10:05:23.999Z</time></trkpt><trkpt lat="43.48413477185043" lon="10.839985636203517"><ele>243.0</ele><time>2026-04-04T10:05:24.999Z</time></trkpt><trkpt lat="43.484050781644775" lon="10.839920045364085"><ele>243.0</ele><time>2026-04-04T10:05:25.999Z</time></trkpt><trkpt lat="43.483950643534335" lon="10.839868679427102"><ele>243.0</ele><time>2026-04-04T10:05:26.999Z</time></trkpt><trkpt lat="43.483833147532" lon="10.839820758597773"><ele>243.0</ele><time>2026-04-04T10:05:27.999Z</time></trkpt><trkpt lat="43.48372380439105" lon="10.839776564723154"><ele>243.0</ele><time>2026-04-04T10:05:28.999Z</time></trkpt><trkpt lat="43.48363548772058" lon="10.839726554691206"><ele>243.0</ele><time>2026-04-04T10:05:29.999Z</time></trkpt><trkpt lat="43.48356086523727" lon="10.839682283247695"><ele>246.0</ele><time>2026-04-04T10:05:30.999Z</time></trkpt><trkpt lat="43.483488392391436" lon="10.839642771996186"><ele>249.0</ele><time>2026-04-04T10:05:31.999Z</time></trkpt><trkpt lat="43.483397650108294" lon="10.83966527941634"><ele>252.0</ele><time>2026-04-04T10:05:32.999Z</time></trkpt><trkpt lat="43.483295428991916" lon="10.839636052451887"><ele>255.0</ele><time>2026-04-04T10:05:33.999Z</time></trkpt><trkpt lat="43.48318169532724" lon="10.83963429993581"><ele>258.0</ele><time>2026-04-04T10:05:34.999Z</time></trkpt><trkpt lat="43.483083008463446" lon="10.839644659378914"><ele>258.0</ele><time>2026-04-04T10:05:35.999Z</time></trkpt><trkpt lat="43.4829898369713" lon="10.83967142860633"><ele>258.0</ele><time>2026-04-04T10:05:36.999Z</time></trkpt><trkpt lat="43.48288448954679" lon="10.839709708076189"><ele>258.0</ele><time>2026-04-04T10:05:37.999Z</time></trkpt><trkpt lat="43.48277250177474" lon="10.83976391359882"><ele>258.0</ele><time>2026-04-04T10:05:38.999Z</time></trkpt><trkpt lat="43.48266852833829" lon="10.839822627687951"><ele>258.0</ele><time>2026-04-04T10:05:39.999Z</time></trkpt><trkpt lat="43.48257968221076" lon="10.83987238173732"><ele>258.0</ele><time>2026-04-04T10:05:40.999Z</time></trkpt><trkpt lat="43.482504644760475" lon="10.839935520533343"><ele>258.0</ele><time>2026-04-04T10:05:41.999Z</time></trkpt><trkpt lat="43.48242133610071" lon="10.839937035201537"><ele>258.0</ele><time>2026-04-04T10:05:42.999Z</time></trkpt><trkpt lat="43.482345916370676" lon="10.839937974917905"><ele>258.0</ele><time>2026-04-04T10:05:43.999Z</time></trkpt><trkpt lat="43.48226486080254" lon="10.839941415968424"><ele>258.0</ele><time>2026-04-04T10:05:44.999Z</time></trkpt><trkpt lat="43.48218624751269" lon="10.8399472073471"><ele>258.0</ele><time>2026-04-04T10:05:45.999Z</time></trkpt><trkpt lat="43.48212386407711" lon="10.839976733811815"><ele>257.4</ele><time>2026-04-04T10:05:46.999Z</time></trkpt><trkpt lat="43.48202797420397" lon="10.839981531294207"><ele>256.8</ele><time>2026-04-04T10:05:48.999Z</time></trkpt><trkpt lat="43.48193697233377" lon="10.839971512731688"><ele>256.2</ele><time>2026-04-04T10:05:50.999Z</time></trkpt><trkpt lat="43.481836652986416" lon="10.839973019383223"><ele>255.6</ele><time>2026-04-04T10:05:53Z</time></trkpt><trkpt lat="43.48174708519808" lon="10.839961235375188"><ele>255.0</ele><time>2026-04-04T10:05:55Z</time></trkpt><trkpt lat="43.481679260507505" lon="10.839879871326994"><ele>255.0</ele><time>2026-04-04T10:05:57Z</time></trkpt><trkpt lat="43.48165393192972" lon="10.839777151556278"><ele>255.0</ele><time>2026-04-04T10:05:59Z</time></trkpt><trkpt lat="43.4816197527269" lon="10.839644006189028"><ele>255.0</ele><time>2026-04-04T10:07:39.999Z</time></trkpt><trkpt lat="43.48160523980808" lon="10.839482091395178"><ele>255.0</ele><time>2026-04-04T10:07:41.999Z</time></trkpt><trkpt lat="43.48160807563269" lon="10.839322401659741"><ele>255.0</ele><time>2026-04-04T10:07:43.999Z</time></trkpt><trkpt lat="43.48159517075072" lon="10.839169563237803"><ele>254.5</ele><time>2026-04-04T10:07:45.999Z</time></trkpt><trkpt lat="43.48158953288039" lon="10.839002422253373"><ele>254.0</ele><time>2026-04-04T10:07:47.999Z</time></trkpt><trkpt lat="43.4815964541724" lon="10.838835697757"><ele>253.5</ele><time>2026-04-04T10:07:49.999Z</time></trkpt><trkpt lat="43.48159247820376" lon="10.838684497870629"><ele>253.0</ele><time>2026-04-04T10:07:51.999Z</time></trkpt><trkpt lat="43.48159034516257" lon="10.838517059263404"><ele>252.83333333333331</ele><time>2026-04-04T10:07:53.999Z</time></trkpt><trkpt lat="43.4815836036142" lon="10.838416827363943"><ele>252.66666666666666</ele><time>2026-04-04T10:07:54.999Z</time></trkpt><trkpt lat="43.48156740842223" lon="10.838309317571591"><ele>252.5</ele><time>2026-04-04T10:07:55.999Z</time></trkpt><trkpt lat="43.481549683607334" lon="10.83818228209213"><ele>252.33333333333331</ele><time>2026-04-04T10:07:56.999Z</time></trkpt><trkpt lat="43.4815296145458" lon="10.838068612568312"><ele>252.16666666666666</ele><time>2026-04-04T10:07:57.999Z</time></trkpt><trkpt lat="43.48150118070913" lon="10.837961051946063"><ele>252.0</ele><time>2026-04-04T10:07:59Z</time></trkpt><trkpt lat="43.48145895075511" lon="10.837858006160253"><ele>252.0</ele><time>2026-04-04T10:08:00Z</time></trkpt><trkpt lat="43.48140945534038" lon="10.837747886341743"><ele>252.0</ele><time>2026-04-04T10:08:01Z</time></trkpt><trkpt lat="43.48136757596137" lon="10.837646605081138"><ele>252.0</ele><time>2026-04-04T10:08:02Z</time></trkpt><trkpt lat="43.481319418581975" lon="10.83755985201003"><ele>252.0</ele><time>2026-04-04T10:08:03Z</time></trkpt><trkpt lat="43.48128878534619" lon="10.837464451194256"><ele>252.0</ele><time>2026-04-04T10:08:04Z</time></trkpt><trkpt lat="43.48124911330338" lon="10.837372876772339"><ele>252.0</ele><time>2026-04-04T10:08:05Z</time></trkpt><trkpt lat="43.48120995169799" lon="10.837293340757757"><ele>250.66666666666666</ele><time>2026-04-04T10:08:06Z</time></trkpt><trkpt lat="43.4811673601245" lon="10.8372207309311"><ele>249.33333333333331</ele><time>2026-04-04T10:08:07Z</time></trkpt><trkpt lat="43.481123859233115" lon="10.837152298493141"><ele>248.0</ele><time>2026-04-04T10:08:08Z</time></trkpt><trkpt lat="43.48104060166587" lon="10.837029305806361"><ele>246.66666666666666</ele><time>2026-04-04T10:08:10Z</time></trkpt><trkpt lat="43.48102384678792" lon="10.836928038179721"><ele>245.33333333333331</ele><time>2026-04-04T10:08:11Z</time></trkpt><trkpt lat="43.48101872393371" lon="10.836803703008428"><ele>244.0</ele><time>2026-04-04T10:08:12Z</time></trkpt><trkpt lat="43.481026394196874" lon="10.836667120893791"><ele>244.0</ele><time>2026-04-04T10:08:13Z</time></trkpt><trkpt lat="43.48102685038081" lon="10.836518771163934"><ele>243.99999999999997</ele><time>2026-04-04T10:08:14Z</time></trkpt><trkpt lat="43.481022739930296" lon="10.836369124236226"><ele>243.99999999999997</ele><time>2026-04-04T10:08:15Z</time></trkpt><trkpt lat="43.481016145297765" lon="10.836243227908286"><ele>244.0</ele><time>2026-04-04T10:08:16Z</time></trkpt><trkpt lat="43.481022426776214" lon="10.836085988490899"><ele>244.0</ele><time>2026-04-04T10:08:17Z</time></trkpt><trkpt lat="43.48102667270935" lon="10.835928421889708"><ele>241.75</ele><time>2026-04-04T10:08:17.999Z</time></trkpt><trkpt lat="43.481028291720385" lon="10.835763640598204"><ele>239.5</ele><time>2026-04-04T10:08:18.999Z</time></trkpt><trkpt lat="43.48102904431335" lon="10.83559852512954"><ele>237.25</ele><time>2026-04-04T10:08:19.999Z</time></trkpt><trkpt lat="43.48103071578189" lon="10.835438314452484"><ele>235.0</ele><time>2026-04-04T10:08:20.999Z</time></trkpt><trkpt lat="43.481043882992644" lon="10.835275964664532"><ele>233.2</ele><time>2026-04-04T10:08:21.999Z</time></trkpt><trkpt lat="43.481046821647965" lon="10.835112944187966"><ele>231.4</ele><time>2026-04-04T10:08:22.999Z</time></trkpt><trkpt lat="43.481050707319724" lon="10.83495103261349"><ele>229.60000000000002</ele><time>2026-04-04T10:08:23.999Z</time></trkpt><trkpt lat="43.48105422757768" lon="10.834805926780323"><ele>227.8</ele><time>2026-04-04T10:08:24.999Z</time></trkpt><trkpt lat="43.481064448268434" lon="10.834702401736706"><ele>226.0</ele><time>2026-04-04T10:08:25.999Z</time></trkpt><trkpt lat="43.481083619572686" lon="10.834609715463309"><ele>225.99999999999997</ele><time>2026-04-04T10:08:26.999Z</time></trkpt><trkpt lat="43.48110623987622" lon="10.83452644849985"><ele>226.0</ele><time>2026-04-04T10:08:27.999Z</time></trkpt><trkpt lat="43.48112990958832" lon="10.83442679114741"><ele>226.0</ele><time>2026-04-04T10:08:29.999Z</time></trkpt><trkpt lat="43.48119188368176" lon="10.83428904039543"><ele>226.0</ele><time>2026-04-04T10:09:21.999Z</time></trkpt><trkpt lat="43.48123379226514" lon="10.834188804364288"><ele>225.99999999999997</ele><time>2026-04-04T10:09:22.999Z</time></trkpt><trkpt lat="43.48127454852394" lon="10.834090960165149"><ele>226.0</ele><time>2026-04-04T10:09:23.999Z</time></trkpt><trkpt lat="43.481312838849384" lon="10.833987812137595"><ele>224.0</ele><time>2026-04-04T10:09:24.999Z</time></trkpt><trkpt lat="43.481342713941174" lon="10.833879555055338"><ele>222.00000000000003</ele><time>2026-04-04T10:09:25.999Z</time></trkpt><trkpt lat="43.481365047446424" lon="10.833763492446657"><ele>220.00000000000003</ele><time>2026-04-04T10:09:26.999Z</time></trkpt><trkpt lat="43.481376883023245" lon="10.833630637928257"><ele>218.0</ele><time>2026-04-04T10:09:27.999Z</time></trkpt><trkpt lat="43.48137998040649" lon="10.833485109054939"><ele>216.0</ele><time>2026-04-04T10:09:28.999Z</time></trkpt><trkpt lat="43.48136873249234" lon="10.833344040886939"><ele>214.60000000000002</ele><time>2026-04-04T10:09:29.999Z</time></trkpt><trkpt lat="43.48134622418716" lon="10.83320456307053"><ele>213.20000000000002</ele><time>2026-04-04T10:09:30.999Z</time></trkpt><trkpt lat="43.481294755914014" lon="10.833067744730315"><ele>211.8</ele><time>2026-04-04T10:09:31.999Z</time></trkpt><trkpt lat="43.481246425585354" lon="10.832913643579396"><ele>210.39999999999998</ele><time>2026-04-04T10:09:32.999Z</time></trkpt><trkpt lat="43.481190865719476" lon="10.832782487025838"><ele>209.0</ele><time>2026-04-04T10:09:33.999Z</time></trkpt><trkpt lat="43.481143181988465" lon="10.832647471686638"><ele>212.0</ele><time>2026-04-04T10:09:34.999Z</time></trkpt><trkpt lat="43.48109978807062" lon="10.832512765782345"><ele>215.0</ele><time>2026-04-04T10:09:35.999Z</time></trkpt><trkpt lat="43.48105762936303" lon="10.832376892728233"><ele>217.99999999999997</ele><time>2026-04-04T10:09:36.999Z</time></trkpt><trkpt lat="43.48105758965181" lon="10.83222256558949"><ele>221.0</ele><time>2026-04-04T10:09:37.999Z</time></trkpt><trkpt lat="43.48108170762149" lon="10.832067030936487"><ele>224.0</ele><time>2026-04-04T10:09:38.999Z</time></trkpt><trkpt lat="43.48112806462451" lon="10.831922250052914"><ele>222.75</ele><time>2026-04-04T10:09:39.999Z</time></trkpt><trkpt lat="43.48118859971155" lon="10.831789422649651"><ele>221.5</ele><time>2026-04-04T10:09:40.999Z</time></trkpt><trkpt lat="43.48125539656707" lon="10.831662858401424"><ele>220.25</ele><time>2026-04-04T10:09:41.999Z</time></trkpt><trkpt lat="43.481311362830006" lon="10.831523881092028"><ele>219.0</ele><time>2026-04-04T10:09:42.999Z</time></trkpt><trkpt lat="43.48135555517023" lon="10.831357674125748"><ele>213.75</ele><time>2026-04-04T10:09:43.999Z</time></trkpt><trkpt lat="43.48139156584622" lon="10.831176610364789"><ele>208.5</ele><time>2026-04-04T10:09:44.999Z</time></trkpt><trkpt lat="43.4814182295752" lon="10.830992002045635"><ele>203.25</ele><time>2026-04-04T10:09:45.999Z</time></trkpt><trkpt lat="43.481446188012505" lon="10.830819533256287"><ele>198.0</ele><time>2026-04-04T10:09:46.999Z</time></trkpt><trkpt lat="43.48147601261697" lon="10.83067351546255"><ele>197.83333333333334</ele><time>2026-04-04T10:09:47.999Z</time></trkpt><trkpt lat="43.48149784350694" lon="10.830549606515499"><ele>197.66666666666669</ele><time>2026-04-04T10:09:48.999Z</time></trkpt><trkpt lat="43.48154571168108" lon="10.830447284610159"><ele>197.5</ele><time>2026-04-04T10:09:49.999Z</time></trkpt><trkpt lat="43.481581631329284" lon="10.830364587651555"><ele>197.33333333333334</ele><time>2026-04-04T10:09:50.999Z</time></trkpt><trkpt lat="43.48161132139404" lon="10.830284119252033"><ele>197.16666666666669</ele><time>2026-04-04T10:09:51.999Z</time></trkpt><trkpt lat="43.481632774293125" lon="10.830198777325787"><ele>197.0</ele><time>2026-04-04T10:09:52.999Z</time></trkpt><trkpt lat="43.48164606027992" lon="10.830101314687507"><ele>196.8</ele><time>2026-04-04T10:09:53.999Z</time></trkpt><trkpt lat="43.48162998092472" lon="10.829992778631285"><ele>196.6</ele><time>2026-04-04T10:09:54.999Z</time></trkpt><trkpt lat="43.48159718561195" lon="10.829904258484722"><ele>196.4</ele><time>2026-04-04T10:09:55.999Z</time></trkpt><trkpt lat="43.48150226231763" lon="10.829800708001112"><ele>196.20000000000002</ele><time>2026-04-04T10:09:57.999Z</time></trkpt><trkpt lat="43.48144195316597" lon="10.829735754220296"><ele>196.0</ele><time>2026-04-04T10:09:58.999Z</time></trkpt><trkpt lat="43.481353385044535" lon="10.829659714621464"><ele>195.25</ele><time>2026-04-04T10:09:59.999Z</time></trkpt><trkpt lat="43.481230604543356" lon="10.829591874134596"><ele>194.5</ele><time>2026-04-04T10:10:00.999Z</time></trkpt><trkpt lat="43.48110523578528" lon="10.829516628167923"><ele>193.75</ele><time>2026-04-04T10:10:01.999Z</time></trkpt><trkpt lat="43.48097727126809" lon="10.82943881190711"><ele>193.0</ele><time>2026-04-04T10:10:02.999Z</time></trkpt><trkpt lat="43.480833128482246" lon="10.82935115741279"><ele>191.33333333333331</ele><time>2026-04-04T10:10:03.999Z</time></trkpt><trkpt lat="43.480680662815466" lon="10.829262180901363"><ele>189.66666666666666</ele><time>2026-04-04T10:10:04.999Z</time></trkpt><trkpt lat="43.48053196332911" lon="10.829175245060485"><ele>188.0</ele><time>2026-04-04T10:10:05.999Z</time></trkpt><trkpt lat="43.48038451634598" lon="10.82908810456122"><ele>186.0</ele><time>2026-04-04T10:10:06.999Z</time></trkpt><trkpt lat="43.480225969105106" lon="10.828993041385397"><ele>184.0</ele><time>2026-04-04T10:10:07.999Z</time></trkpt><trkpt lat="43.48006946715748" lon="10.82889920451117"><ele>182.0</ele><time>2026-04-04T10:10:08.999Z</time></trkpt><trkpt lat="43.479917094140674" lon="10.828807843364856"><ele>182.0</ele><time>2026-04-04T10:10:09.999Z</time></trkpt><trkpt lat="43.47976853201257" lon="10.828719761366008"><ele>182.0</ele><time>2026-04-04T10:10:10.999Z</time></trkpt><trkpt lat="43.47963002674347" lon="10.828639277337063"><ele>182.0</ele><time>2026-04-04T10:10:11.999Z</time></trkpt><trkpt lat="43.47950407169495" lon="10.828566866482625"><ele>182.0</ele><time>2026-04-04T10:10:12.999Z</time></trkpt><trkpt lat="43.47939185958354" lon="10.82851335464168"><ele>181.5</ele><time>2026-04-04T10:10:13.999Z</time></trkpt><trkpt lat="43.47928776224586" lon="10.828475707155278"><ele>181.0</ele><time>2026-04-04T10:10:14.999Z</time></trkpt><trkpt lat="43.479169672839916" lon="10.828483970214583"><ele>180.5</ele><time>2026-04-04T10:10:15.999Z</time></trkpt><trkpt lat="43.479030978344234" lon="10.828534640218113"><ele>180.0</ele><time>2026-04-04T10:10:16.999Z</time></trkpt><trkpt lat="43.47887632025959" lon="10.828619669758044"><ele>177.0</ele><time>2026-04-04T10:10:17.999Z</time></trkpt><trkpt lat="43.47873012532548" lon="10.828703925563376"><ele>174.0</ele><time>2026-04-04T10:10:18.999Z</time></trkpt><trkpt lat="43.47859245486479" lon="10.828779576810991"><ele>171.0</ele><time>2026-04-04T10:10:19.999Z</time></trkpt><trkpt lat="43.478459123179356" lon="10.828852843624516"><ele>171.0</ele><time>2026-04-04T10:10:20.999Z</time></trkpt><trkpt lat="43.478327704330525" lon="10.828925059526885"><ele>171.0</ele><time>2026-04-04T10:10:21.999Z</time></trkpt><trkpt lat="43.47819438291472" lon="10.82899832066441"><ele>171.0</ele><time>2026-04-04T10:10:22.999Z</time></trkpt><trkpt lat="43.478066501486815" lon="10.829068594281164"><ele>171.0</ele><time>2026-04-04T10:10:23.999Z</time></trkpt><trkpt lat="43.477938940493" lon="10.829138690070769"><ele>170.75</ele><time>2026-04-04T10:10:24.999Z</time></trkpt><trkpt lat="43.47781075072487" lon="10.829209131555325"><ele>170.5</ele><time>2026-04-04T10:10:25.999Z</time></trkpt><trkpt lat="43.477683337127964" lon="10.829278387697359"><ele>170.25</ele><time>2026-04-04T10:10:26.999Z</time></trkpt><trkpt lat="43.47755168015225" lon="10.829349411850945"><ele>170.0</ele><time>2026-04-04T10:10:27.999Z</time></trkpt><trkpt lat="43.477409726162705" lon="10.829427338149141"><ele>168.0</ele><time>2026-04-04T10:10:28.999Z</time></trkpt><trkpt lat="43.47727165384356" lon="10.829503627302845"><ele>166.0</ele><time>2026-04-04T10:10:29.999Z</time></trkpt><trkpt lat="43.47714562817476" lon="10.829567419288034"><ele>164.0</ele><time>2026-04-04T10:10:30.999Z</time></trkpt><trkpt lat="43.47702366800574" lon="10.829620048931016"><ele>162.0</ele><time>2026-04-04T10:10:31.999Z</time></trkpt><trkpt lat="43.47690460220874" lon="10.829648396294747"><ele>160.25</ele><time>2026-04-04T10:10:32.999Z</time></trkpt><trkpt lat="43.47678387422476" lon="10.829639009543838"><ele>158.5</ele><time>2026-04-04T10:10:33.999Z</time></trkpt><trkpt lat="43.4766537552564" lon="10.829623703194116"><ele>156.75</ele><time>2026-04-04T10:10:34.999Z</time></trkpt><trkpt lat="43.4765159181223" lon="10.829612622394198"><ele>155.0</ele><time>2026-04-04T10:10:35.999Z</time></trkpt><trkpt lat="43.47638651242774" lon="10.829636013538973"><ele>156.66666666666666</ele><time>2026-04-04T10:10:36.999Z</time></trkpt><trkpt lat="43.476250068838425" lon="10.82975107197043"><ele>158.33333333333334</ele><time>2026-04-04T10:10:37.999Z</time></trkpt><trkpt lat="43.47608978096492" lon="10.829870704906781"><ele>160.0</ele><time>2026-04-04T10:10:38.999Z</time></trkpt><trkpt lat="43.47593723878872" lon="10.829991782657551"><ele>160.0</ele><time>2026-04-04T10:10:39.999Z</time></trkpt><trkpt lat="43.475775428203775" lon="10.830093733117934"><ele>160.0</ele><time>2026-04-04T10:10:40.999Z</time></trkpt><trkpt lat="43.47561936129957" lon="10.83020831099027"><ele>160.0</ele><time>2026-04-04T10:10:41.999Z</time></trkpt><trkpt lat="43.47545892336081" lon="10.830326098328126"><ele>158.33333333333334</ele><time>2026-04-04T10:10:42.999Z</time></trkpt><trkpt lat="43.475300710757395" lon="10.830472448469788"><ele>156.66666666666666</ele><time>2026-04-04T10:10:43.999Z</time></trkpt><trkpt lat="43.47512014686909" lon="10.830586428161794"><ele>155.0</ele><time>2026-04-04T10:10:44.999Z</time></trkpt><trkpt lat="43.47494366420298" lon="10.830731229390258"><ele>155.0</ele><time>2026-04-04T10:10:45.999Z</time></trkpt><trkpt lat="43.47478950461026" lon="10.830892720078879"><ele>155.0</ele><time>2026-04-04T10:10:46.999Z</time></trkpt><trkpt lat="43.474636678866226" lon="10.831020133369087"><ele>155.0</ele><time>2026-04-04T10:10:47.999Z</time></trkpt><trkpt lat="43.47448040460955" lon="10.831122457602303"><ele>152.0</ele><time>2026-04-04T10:10:48.999Z</time></trkpt><trkpt lat="43.47433630631688" lon="10.831239372964369"><ele>149.0</ele><time>2026-04-04T10:10:49.999Z</time></trkpt><trkpt lat="43.47417889189617" lon="10.83136706276296"><ele>146.0</ele><time>2026-04-04T10:10:50.999Z</time></trkpt><trkpt lat="43.474017682009986" lon="10.831497830891205"><ele>146.0</ele><time>2026-04-04T10:10:51.999Z</time></trkpt><trkpt lat="43.47386348315131" lon="10.83162309772209"><ele>146.0</ele><time>2026-04-04T10:10:52.999Z</time></trkpt><trkpt lat="43.473710948709275" lon="10.831747954989073"><ele>146.0</ele><time>2026-04-04T10:10:53.999Z</time></trkpt><trkpt lat="43.47356614300104" lon="10.831866486049023"><ele>142.0</ele><time>2026-04-04T10:10:54.999Z</time></trkpt><trkpt lat="43.47342320204975" lon="10.831983490580905"><ele>138.0</ele><time>2026-04-04T10:10:55.999Z</time></trkpt><trkpt lat="43.47330059687653" lon="10.83208139385724"><ele>134.0</ele><time>2026-04-04T10:10:56.999Z</time></trkpt><trkpt lat="43.47316561359792" lon="10.832174110288175"><ele>134.0</ele><time>2026-04-04T10:10:57.999Z</time></trkpt><trkpt lat="43.473028389640334" lon="10.83223580266498"><ele>134.0</ele><time>2026-04-04T10:10:58.999Z</time></trkpt><trkpt lat="43.47287576240961" lon="10.832263152669803"><ele>134.0</ele><time>2026-04-04T10:10:59.999Z</time></trkpt><trkpt lat="43.47272864010775" lon="10.832258596351656"><ele>134.0</ele><time>2026-04-04T10:11:00.999Z</time></trkpt><trkpt lat="43.47256686636399" lon="10.832232918649318"><ele>132.33333333333331</ele><time>2026-04-04T10:11:01.999Z</time></trkpt><trkpt lat="43.47239593390734" lon="10.83218529430737"><ele>130.66666666666666</ele><time>2026-04-04T10:11:02.999Z</time></trkpt><trkpt lat="43.47221623317912" lon="10.83211002748629"><ele>129.0</ele><time>2026-04-04T10:11:03.999Z</time></trkpt><trkpt lat="43.47203120351138" lon="10.8320029206725"><ele>129.0</ele><time>2026-04-04T10:11:04.999Z</time></trkpt><trkpt lat="43.47185234433286" lon="10.831887677050808"><ele>129.0</ele><time>2026-04-04T10:11:05.999Z</time></trkpt><trkpt lat="43.47167539988162" lon="10.831768101328116"><ele>129.0</ele><time>2026-04-04T10:11:06.999Z</time></trkpt><trkpt lat="43.47147834442154" lon="10.831636178677824"><ele>129.0</ele><time>2026-04-04T10:11:07.999Z</time></trkpt><trkpt lat="43.47128232320044" lon="10.831508424776295"><ele>129.0</ele><time>2026-04-04T10:11:08.999Z</time></trkpt><trkpt lat="43.471088910214284" lon="10.831377771369555"><ele>129.0</ele><time>2026-04-04T10:11:09.999Z</time></trkpt><trkpt lat="43.47090069690854" lon="10.831252645319026"><ele>127.33333333333334</ele><time>2026-04-04T10:11:10.999Z</time></trkpt><trkpt lat="43.470722024988916" lon="10.831143663046578"><ele>125.66666666666667</ele><time>2026-04-04T10:11:11.999Z</time></trkpt><trkpt lat="43.47056924310758" lon="10.831034602668089"><ele>124.0</ele><time>2026-04-04T10:11:12.999Z</time></trkpt><trkpt lat="43.47044050957484" lon="10.830925214550735"><ele>122.75</ele><time>2026-04-04T10:11:13.999Z</time></trkpt><trkpt lat="43.47033755244619" lon="10.830799221475699"><ele>121.5</ele><time>2026-04-04T10:11:14.999Z</time></trkpt><trkpt lat="43.47025073277561" lon="10.830648287415597"><ele>120.25</ele><time>2026-04-04T10:11:15.999Z</time></trkpt><trkpt lat="43.47018369967182" lon="10.830447306111033"><ele>119.0</ele><time>2026-04-04T10:11:16.999Z</time></trkpt><trkpt lat="43.4701195372475" lon="10.83019278027073"><ele>120.33333333333333</ele><time>2026-04-04T10:11:17.999Z</time></trkpt><trkpt lat="43.47006269813613" lon="10.82993672705542"><ele>121.66666666666666</ele><time>2026-04-04T10:11:18.999Z</time></trkpt><trkpt lat="43.470002688318395" lon="10.829707977924949"><ele>123.0</ele><time>2026-04-04T10:11:19.999Z</time></trkpt><trkpt lat="43.46995740880862" lon="10.829488100405007"><ele>123.66666666666666</ele><time>2026-04-04T10:11:20.999Z</time></trkpt><trkpt lat="43.46991478638767" lon="10.82927971181353"><ele>124.33333333333333</ele><time>2026-04-04T10:11:21.999Z</time></trkpt><trkpt lat="43.46985166873127" lon="10.829087995866304"><ele>125.0</ele><time>2026-04-04T10:11:22.999Z</time></trkpt><trkpt lat="43.46975758653829" lon="10.828905980770303"><ele>125.0</ele><time>2026-04-04T10:11:23.999Z</time></trkpt><trkpt lat="43.4696120385196" lon="10.828734298461239"><ele>125.0</ele><time>2026-04-04T10:11:24.999Z</time></trkpt><trkpt lat="43.46944355599788" lon="10.828570915259917"><ele>125.0</ele><time>2026-04-04T10:11:25.999Z</time></trkpt><trkpt lat="43.46928750652904" lon="10.828416615654612"><ele>123.66666666666666</ele><time>2026-04-04T10:11:26.999Z</time></trkpt><trkpt lat="43.46914424038318" lon="10.828285453790393"><ele>122.33333333333334</ele><time>2026-04-04T10:11:27.999Z</time></trkpt><trkpt lat="43.4690183029613" lon="10.82817485854573"><ele>121.0</ele><time>2026-04-04T10:11:28.999Z</time></trkpt><trkpt lat="43.46890329615641" lon="10.828080466594166"><ele>118.66666666666667</ele><time>2026-04-04T10:11:29.999Z</time></trkpt><trkpt lat="43.46877423259725" lon="10.828009886880201"><ele>116.33333333333334</ele><time>2026-04-04T10:11:30.999Z</time></trkpt><trkpt lat="43.468624648919025" lon="10.827981816731224"><ele>114.0</ele><time>2026-04-04T10:11:31.999Z</time></trkpt><trkpt lat="43.46844844762223" lon="10.828027263097031"><ele>114.0</ele><time>2026-04-04T10:11:32.999Z</time></trkpt><trkpt lat="43.468252206645026" lon="10.828068418283813"><ele>114.0</ele><time>2026-04-04T10:11:33.999Z</time></trkpt><trkpt lat="43.46804587476065" lon="10.82807742673116"><ele>114.0</ele><time>2026-04-04T10:11:34.999Z</time></trkpt><trkpt lat="43.467859649067776" lon="10.82810436502018"><ele>114.5</ele><time>2026-04-04T10:11:35.999Z</time></trkpt><trkpt lat="43.46769911603748" lon="10.82812595895513"><ele>115.0</ele><time>2026-04-04T10:11:36.999Z</time></trkpt><trkpt lat="43.4675555674061" lon="10.82814431585748"><ele>115.5</ele><time>2026-04-04T10:11:37.999Z</time></trkpt><trkpt lat="43.46742355867439" lon="10.828161040411702"><ele>116.0</ele><time>2026-04-04T10:11:38.999Z</time></trkpt><trkpt lat="43.4672994344736" lon="10.828179663118505"><ele>116.0</ele><time>2026-04-04T10:11:39.999Z</time></trkpt><trkpt lat="43.467189889304194" lon="10.828178108004956"><ele>116.0</ele><time>2026-04-04T10:11:40.999Z</time></trkpt><trkpt lat="43.46707773098552" lon="10.828145623838335"><ele>116.0</ele><time>2026-04-04T10:11:41.999Z</time></trkpt><trkpt lat="43.46697525816037" lon="10.828052745466387"><ele>116.0</ele><time>2026-04-04T10:11:42.999Z</time></trkpt><trkpt lat="43.466861996314876" lon="10.8279121865273"><ele>116.33333333333333</ele><time>2026-04-04T10:11:43.999Z</time></trkpt><trkpt lat="43.4667467788331" lon="10.8277708858272"><ele>116.66666666666666</ele><time>2026-04-04T10:11:44.999Z</time></trkpt><trkpt lat="43.46661898281388" lon="10.827648604855574"><ele>117.0</ele><time>2026-04-04T10:11:45.999Z</time></trkpt><trkpt lat="43.46646174334867" lon="10.82757031995152"><ele>117.0</ele><time>2026-04-04T10:11:46.999Z</time></trkpt><trkpt lat="43.46630986263879" lon="10.827515161396194"><ele>117.0</ele><time>2026-04-04T10:11:47.999Z</time></trkpt><trkpt lat="43.466152110825064" lon="10.82745007760049"><ele>117.0</ele><time>2026-04-04T10:11:48.999Z</time></trkpt><trkpt lat="43.466004041193855" lon="10.827410524742552"><ele>117.8</ele><time>2026-04-04T10:11:49.999Z</time></trkpt><trkpt lat="43.46587315109174" lon="10.827397277414926"><ele>118.6</ele><time>2026-04-04T10:11:50.999Z</time></trkpt><trkpt lat="43.46575791275114" lon="10.827368898766148"><ele>119.39999999999999</ele><time>2026-04-04T10:11:51.999Z</time></trkpt><trkpt lat="43.46565720613325" lon="10.827361722234809"><ele>120.19999999999999</ele><time>2026-04-04T10:11:52.999Z</time></trkpt><trkpt lat="43.46556393705958" lon="10.827406390721874"><ele>121.0</ele><time>2026-04-04T10:11:53.999Z</time></trkpt><trkpt lat="43.46546915444766" lon="10.827512079033449"><ele>121.0</ele><time>2026-04-04T10:11:54.999Z</time></trkpt><trkpt lat="43.46538620069544" lon="10.827672811082298"><ele>121.0</ele><time>2026-04-04T10:11:55.999Z</time></trkpt><trkpt lat="43.46533281820767" lon="10.827865089204836"><ele>121.0</ele><time>2026-04-04T10:11:56.999Z</time></trkpt><trkpt lat="43.465299592263165" lon="10.828068233713326"><ele>121.0</ele><time>2026-04-04T10:11:57.999Z</time></trkpt><trkpt lat="43.46526052831645" lon="10.828278003530318"><ele>121.0</ele><time>2026-04-04T10:11:58.999Z</time></trkpt><trkpt lat="43.46521796723734" lon="10.828472241439085"><ele>121.0</ele><time>2026-04-04T10:11:59.999Z</time></trkpt><trkpt lat="43.46518238714873" lon="10.828648591981711"><ele>121.0</ele><time>2026-04-04T10:12:00.999Z</time></trkpt><trkpt lat="43.46514702726006" lon="10.828790258374266"><ele>121.0</ele><time>2026-04-04T10:12:01.999Z</time></trkpt><trkpt lat="43.46511364285403" lon="10.828920660412932"><ele>122.4</ele><time>2026-04-04T10:12:02.999Z</time></trkpt><trkpt lat="43.46506238604248" lon="10.829028799644938"><ele>123.8</ele><time>2026-04-04T10:12:03.999Z</time></trkpt><trkpt lat="43.46502494307189" lon="10.829147409786975"><ele>125.20000000000002</ele><time>2026-04-04T10:12:04.999Z</time></trkpt><trkpt lat="43.4649232057531" lon="10.829182982509257"><ele>126.60000000000001</ele><time>2026-04-04T10:12:05.999Z</time></trkpt><trkpt lat="43.46482263699034" lon="10.82917354167312"><ele>128.0</ele><time>2026-04-04T10:12:06.999Z</time></trkpt><trkpt lat="43.46474039850266" lon="10.829113275896994"><ele>128.0</ele><time>2026-04-04T10:12:07.999Z</time></trkpt><trkpt lat="43.46466692769861" lon="10.829034254220385"><ele>128.0</ele><time>2026-04-04T10:12:08.999Z</time></trkpt><trkpt lat="43.46456734440451" lon="10.82890735868972"><ele>128.0</ele><time>2026-04-04T10:12:09.999Z</time></trkpt><trkpt lat="43.464440575646584" lon="10.828738514775688"><ele>128.0</ele><time>2026-04-04T10:12:10.999Z</time></trkpt><trkpt lat="43.46429801680045" lon="10.828551124424205"><ele>127.25</ele><time>2026-04-04T10:12:12Z</time></trkpt><trkpt lat="43.46416049716774" lon="10.828405996261564"><ele>126.5</ele><time>2026-04-04T10:12:12.999Z</time></trkpt><trkpt lat="43.46406279619188" lon="10.828277407667871"><ele>125.75</ele><time>2026-04-04T10:12:14Z</time></trkpt><trkpt lat="43.463968748005165" lon="10.828189831396376"><ele>125.0</ele><time>2026-04-04T10:12:15Z</time></trkpt><trkpt lat="43.4638629956945" lon="10.828161133498906"><ele>127.0</ele><time>2026-04-04T10:12:16Z</time></trkpt><trkpt lat="43.46373940830406" lon="10.828196246511457"><ele>129.0</ele><time>2026-04-04T10:12:17Z</time></trkpt><trkpt lat="43.46360572455485" lon="10.828289566157997"><ele>131.0</ele><time>2026-04-04T10:12:18Z</time></trkpt><trkpt lat="43.46346543401463" lon="10.828426974054599"><ele>133.0</ele><time>2026-04-04T10:12:19Z</time></trkpt><trkpt lat="43.463320140958544" lon="10.828513504693282"><ele>136.33333333333334</ele><time>2026-04-04T10:12:20Z</time></trkpt><trkpt lat="43.463171657192895" lon="10.82859724179288"><ele>139.66666666666666</ele><time>2026-04-04T10:12:21Z</time></trkpt><trkpt lat="43.463000562900326" lon="10.828651354096133"><ele>143.0</ele><time>2026-04-04T10:12:22Z</time></trkpt><trkpt lat="43.46282280042981" lon="10.828694683741123"><ele>143.66666666666666</ele><time>2026-04-04T10:12:23Z</time></trkpt><trkpt lat="43.46264842571081" lon="10.828739829418728"><ele>144.33333333333334</ele><time>2026-04-04T10:12:24Z</time></trkpt><trkpt lat="43.46249341408708" lon="10.828786074468304"><ele>145.0</ele><time>2026-04-04T10:12:25Z</time></trkpt><trkpt lat="43.462355434654576" lon="10.82883353766169"><ele>145.0</ele><time>2026-04-04T10:12:26Z</time></trkpt><trkpt lat="43.46222785751495" lon="10.828885402314809"><ele>145.0</ele><time>2026-04-04T10:12:27Z</time></trkpt><trkpt lat="43.46209080724727" lon="10.828946313423735"><ele>145.0</ele><time>2026-04-04T10:12:28Z</time></trkpt><trkpt lat="43.461935742356715" lon="10.829024453416274"><ele>145.0</ele><time>2026-04-04T10:12:29Z</time></trkpt><trkpt lat="43.46177342201522" lon="10.829109927143653"><ele>142.75</ele><time>2026-04-04T10:12:30Z</time></trkpt><trkpt lat="43.46162954560117" lon="10.82918401782202"><ele>140.5</ele><time>2026-04-04T10:12:31Z</time></trkpt><trkpt lat="43.46149249863725" lon="10.829247559522225"><ele>138.25</ele><time>2026-04-04T10:12:32Z</time></trkpt><trkpt lat="43.46136106554729" lon="10.82930782060788"><ele>136.0</ele><time>2026-04-04T10:12:33Z</time></trkpt><trkpt lat="43.4612417486143" lon="10.82936430746898"><ele>133.0</ele><time>2026-04-04T10:12:34Z</time></trkpt><trkpt lat="43.461129432246025" lon="10.829427378774874"><ele>130.0</ele><time>2026-04-04T10:12:35Z</time></trkpt><trkpt lat="43.46103405956115" lon="10.829527655382178"><ele>127.0</ele><time>2026-04-04T10:12:36Z</time></trkpt><trkpt lat="43.460934992935265" lon="10.829631658149937"><ele>124.0</ele><time>2026-04-04T10:12:37Z</time></trkpt><trkpt lat="43.46084276294884" lon="10.829739504800786"><ele>124.0</ele><time>2026-04-04T10:12:38Z</time></trkpt><trkpt lat="43.46076056731546" lon="10.829869047066065"><ele>124.0</ele><time>2026-04-04T10:12:39Z</time></trkpt><trkpt lat="43.4606924040766" lon="10.830012662510535"><ele>124.0</ele><time>2026-04-04T10:12:39.999Z</time></trkpt><trkpt lat="43.46065964754513" lon="10.83017655670503"><ele>124.0</ele><time>2026-04-04T10:12:40.999Z</time></trkpt><trkpt lat="43.46067067277432" lon="10.83034506442483"><ele>124.2</ele><time>2026-04-04T10:12:41.999Z</time></trkpt><trkpt lat="43.46065797682388" lon="10.830514249990626"><ele>124.4</ele><time>2026-04-04T10:12:42.999Z</time></trkpt><trkpt lat="43.4606478744959" lon="10.830651814003152"><ele>124.6</ele><time>2026-04-04T10:12:43.999Z</time></trkpt><trkpt lat="43.46062551101866" lon="10.830764552971583"><ele>124.8</ele><time>2026-04-04T10:12:44.999Z</time></trkpt><trkpt lat="43.46057897052872" lon="10.830848189458516"><ele>125.0</ele><time>2026-04-04T10:12:45.999Z</time></trkpt><trkpt lat="43.46052445476034" lon="10.830911475023173"><ele>126.2</ele><time>2026-04-04T10:12:46.999Z</time></trkpt><trkpt lat="43.46043373838293" lon="10.831005611127898"><ele>127.4</ele><time>2026-04-04T10:12:48.999Z</time></trkpt><trkpt lat="43.460372894888046" lon="10.831065263741234"><ele>128.6</ele><time>2026-04-04T10:12:50.999Z</time></trkpt><trkpt lat="43.46024302417343" lon="10.831028428767988"><ele>129.8</ele><time>2026-04-04T10:12:52.999Z</time></trkpt><trkpt lat="43.4601510583119" lon="10.830967343019712"><ele>131.0</ele><time>2026-04-04T10:12:53.999Z</time></trkpt><trkpt lat="43.460035784184605" lon="10.830916490342128"><ele>127.0</ele><time>2026-04-04T10:12:54.999Z</time></trkpt><trkpt lat="43.4598970992083" lon="10.830855680214741"><ele>123.0</ele><time>2026-04-04T10:12:55.999Z</time></trkpt><trkpt lat="43.4597466696122" lon="10.830789748961992"><ele>119.0</ele><time>2026-04-04T10:12:56.999Z</time></trkpt><trkpt lat="43.45958249124047" lon="10.83071779194151"><ele>116.33333333333333</ele><time>2026-04-04T10:12:57.999Z</time></trkpt><trkpt lat="43.459404332975986" lon="10.830639707444881"><ele>113.66666666666666</ele><time>2026-04-04T10:12:58.999Z</time></trkpt><trkpt lat="43.459216621463646" lon="10.830557530978055"><ele>111.0</ele><time>2026-04-04T10:12:59.999Z</time></trkpt><trkpt lat="43.45902027745046" lon="10.830472278552891"><ele>111.0</ele><time>2026-04-04T10:13:00.999Z</time></trkpt><trkpt lat="43.45881518936461" lon="10.830383515224147"><ele>111.0</ele><time>2026-04-04T10:13:01.999Z</time></trkpt><trkpt lat="43.45860440281809" lon="10.830292404969668"><ele>111.0</ele><time>2026-04-04T10:13:02.999Z</time></trkpt><trkpt lat="43.458389221103566" lon="10.830199068519146"><ele>106.0</ele><time>2026-04-04T10:13:03.999Z</time></trkpt><trkpt lat="43.45817111048802" lon="10.830104463524695"><ele>101.0</ele><time>2026-04-04T10:13:04.999Z</time></trkpt><trkpt lat="43.45795655024565" lon="10.830011396713896"><ele>101.0</ele><time>2026-04-04T10:13:05.999Z</time></trkpt><trkpt lat="43.457742647817945" lon="10.829920170578365"><ele>101.0</ele><time>2026-04-04T10:13:06.999Z</time></trkpt><trkpt lat="43.45753602911078" lon="10.829839059072853"><ele>101.0</ele><time>2026-04-04T10:13:07.999Z</time></trkpt><trkpt lat="43.45735506773525" lon="10.829781017772243"><ele>101.0</ele><time>2026-04-04T10:13:08.999Z</time></trkpt><trkpt lat="43.45719592060507" lon="10.829741395396633"><ele>101.0</ele><time>2026-04-04T10:13:09.999Z</time></trkpt><trkpt lat="43.45704855299195" lon="10.829744477887438"><ele>101.0</ele><time>2026-04-04T10:13:10.999Z</time></trkpt><trkpt lat="43.456922514300615" lon="10.829739102485867"><ele>101.0</ele><time>2026-04-04T10:13:11.999Z</time></trkpt><trkpt lat="43.456803826896994" lon="10.829749578685936"><ele>100.66666666666666</ele><time>2026-04-04T10:13:12.999Z</time></trkpt><trkpt lat="43.45666994557682" lon="10.82975557498724"><ele>100.33333333333334</ele><time>2026-04-04T10:13:13.999Z</time></trkpt><trkpt lat="43.45651250495156" lon="10.829742997430522"><ele>100.0</ele><time>2026-04-04T10:13:14.999Z</time></trkpt><trkpt lat="43.45634465676937" lon="10.829741126513596"><ele>100.66666666666667</ele><time>2026-04-04T10:13:15.999Z</time></trkpt><trkpt lat="43.4561560203643" lon="10.829829227860229"><ele>101.33333333333334</ele><time>2026-04-04T10:13:16.999Z</time></trkpt><trkpt lat="43.455981606674385" lon="10.829898784729489"><ele>102.0</ele><time>2026-04-04T10:13:17.999Z</time></trkpt><trkpt lat="43.455821605095" lon="10.829967069138213"><ele>102.0</ele><time>2026-04-04T10:13:18.999Z</time></trkpt><trkpt lat="43.45566876538409" lon="10.83003296785277"><ele>102.0</ele><time>2026-04-04T10:13:19.999Z</time></trkpt><trkpt lat="43.45551738847787" lon="10.83009890827806"><ele>102.0</ele><time>2026-04-04T10:13:20.999Z</time></trkpt><trkpt lat="43.45536727654424" lon="10.830162686303852"><ele>102.0</ele><time>2026-04-04T10:13:21.999Z</time></trkpt><trkpt lat="43.455215581857644" lon="10.83022711599072"><ele>102.0</ele><time>2026-04-04T10:13:22.999Z</time></trkpt><trkpt lat="43.455064057495605" lon="10.83029009393106"><ele>102.0</ele><time>2026-04-04T10:13:23.999Z</time></trkpt><trkpt lat="43.45492563764126" lon="10.830338060884213"><ele>102.0</ele><time>2026-04-04T10:13:24.999Z</time></trkpt><trkpt lat="43.45479639720305" lon="10.830378902926805"><ele>102.0</ele><time>2026-04-04T10:13:25.999Z</time></trkpt><trkpt lat="43.45467861430276" lon="10.830414591682187"><ele>102.0</ele><time>2026-04-04T10:13:26.999Z</time></trkpt><trkpt lat="43.454573131732175" lon="10.83043989206762"><ele>102.0</ele><time>2026-04-04T10:13:27.999Z</time></trkpt><trkpt lat="43.45447005949745" lon="10.830465050432073"><ele>102.39999999999999</ele><time>2026-04-04T10:13:28.999Z</time></trkpt><trkpt lat="43.45438093995111" lon="10.8304411137583"><ele>102.8</ele><time>2026-04-04T10:13:29.999Z</time></trkpt><trkpt lat="43.45429027482374" lon="10.830412156731114"><ele>103.2</ele><time>2026-04-04T10:13:30.999Z</time></trkpt><trkpt lat="43.4542214423933" lon="10.830308496333917"><ele>103.6</ele><time>2026-04-04T10:13:31.999Z</time></trkpt><trkpt lat="43.45418075321238" lon="10.830184787933979"><ele>104.0</ele><time>2026-04-04T10:13:32.999Z</time></trkpt><trkpt lat="43.454156245946166" lon="10.830044567045336"><ele>104.33333333333333</ele><time>2026-04-04T10:13:33.999Z</time></trkpt><trkpt lat="43.454148901390035" lon="10.829866848041316"><ele>104.66666666666666</ele><time>2026-04-04T10:13:34.999Z</time></trkpt><trkpt lat="43.454125924129876" lon="10.829644824493952"><ele>105.0</ele><time>2026-04-04T10:13:35.999Z</time></trkpt><trkpt lat="43.45412018189978" lon="10.829391411338959"><ele>105.0</ele><time>2026-04-04T10:13:36.999Z</time></trkpt><trkpt lat="43.45410523089561" lon="10.829143735371611"><ele>105.0</ele><time>2026-04-04T10:13:37.999Z</time></trkpt><trkpt lat="43.454098409329355" lon="10.828895620407632"><ele>105.0</ele><time>2026-04-04T10:13:38.999Z</time></trkpt><trkpt lat="43.4541064617116" lon="10.828662283622942"><ele>105.33333333333334</ele><time>2026-04-04T10:13:39.999Z</time></trkpt><trkpt lat="43.45414988470475" lon="10.828429467982332"><ele>105.66666666666667</ele><time>2026-04-04T10:13:40.999Z</time></trkpt><trkpt lat="43.45419998329632" lon="10.828214913419062"><ele>106.0</ele><time>2026-04-04T10:13:41.999Z</time></trkpt><trkpt lat="43.45424000015159" lon="10.828020869728073"><ele>106.0</ele><time>2026-04-04T10:13:42.999Z</time></trkpt><trkpt lat="43.45426645287244" lon="10.827834095350154"><ele>106.0</ele><time>2026-04-04T10:13:43.999Z</time></trkpt><trkpt lat="43.45427624332767" lon="10.82762406649037"><ele>106.0</ele><time>2026-04-04T10:13:44.999Z</time></trkpt><trkpt lat="43.45426314187334" lon="10.827384469825681"><ele>106.33333333333334</ele><time>2026-04-04T10:13:45.999Z</time></trkpt><trkpt lat="43.45426266496683" lon="10.827146025832889"><ele>106.66666666666666</ele><time>2026-04-04T10:13:46.999Z</time></trkpt><trkpt lat="43.454211747804266" lon="10.826874048663248"><ele>107.0</ele><time>2026-04-04T10:13:47.999Z</time></trkpt><trkpt lat="43.454165051808914" lon="10.826559126895125"><ele>106.0</ele><time>2026-04-04T10:13:48.999Z</time></trkpt><trkpt lat="43.454123164592055" lon="10.826230065930401"><ele>105.0</ele><time>2026-04-04T10:13:49.999Z</time></trkpt><trkpt lat="43.45407964010349" lon="10.825895608841074"><ele>105.0</ele><time>2026-04-04T10:13:50.999Z</time></trkpt><trkpt lat="43.45403467816896" lon="10.82555725910386"><ele>105.0</ele><time>2026-04-04T10:13:51.999Z</time></trkpt><trkpt lat="43.45399051626821" lon="10.825198569147208"><ele>103.0</ele><time>2026-04-04T10:13:52.999Z</time></trkpt><trkpt lat="43.45393967748891" lon="10.82481865407996"><ele>101.0</ele><time>2026-04-04T10:13:53.999Z</time></trkpt><trkpt lat="43.453888328706164" lon="10.824432973649731"><ele>100.5</ele><time>2026-04-04T10:13:54.999Z</time></trkpt><trkpt lat="43.45384406824681" lon="10.824077558366348"><ele>100.0</ele><time>2026-04-04T10:13:55.999Z</time></trkpt><trkpt lat="43.45380857578412" lon="10.823741488113964"><ele>113.0</ele><time>2026-04-04T10:13:56.999Z</time></trkpt><trkpt lat="43.45376430030648" lon="10.823420475319516"><ele>126.0</ele><time>2026-04-04T10:13:57.999Z</time></trkpt><trkpt lat="43.45370342778062" lon="10.823108336754794"><ele>126.0</ele><time>2026-04-04T10:13:58.999Z</time></trkpt><trkpt lat="43.45362660013776" lon="10.822786542608434"><ele>126.0</ele><time>2026-04-04T10:13:59.999Z</time></trkpt><trkpt lat="43.45352788678987" lon="10.82244790400463"><ele>120.5</ele><time>2026-04-04T10:14:00.999Z</time></trkpt><trkpt lat="43.45342951876806" lon="10.822089653750275"><ele>115.0</ele><time>2026-04-04T10:14:01.999Z</time></trkpt><trkpt lat="43.4533561695187" lon="10.821722422205056"><ele>110.5</ele><time>2026-04-04T10:14:02.999Z</time></trkpt><trkpt lat="43.45326998262802" lon="10.821370125068126"><ele>106.0</ele><time>2026-04-04T10:14:03.999Z</time></trkpt><trkpt lat="43.453173194425304" lon="10.821009119786751"><ele>104.5</ele><time>2026-04-04T10:14:04.999Z</time></trkpt><trkpt lat="43.45308684089961" lon="10.820629394928316"><ele>103.0</ele><time>2026-04-04T10:14:05.999Z</time></trkpt><trkpt lat="43.45299118482018" lon="10.820246959830328"><ele>114.5</ele><time>2026-04-04T10:14:06.999Z</time></trkpt><trkpt lat="43.45288608765544" lon="10.819871066686101"><ele>126.0</ele><time>2026-04-04T10:14:07.999Z</time></trkpt><trkpt lat="43.452774681938486" lon="10.819535079166384"><ele>120.0</ele><time>2026-04-04T10:14:08.999Z</time></trkpt><trkpt lat="43.452666801785924" lon="10.819219902858666"><ele>114.0</ele><time>2026-04-04T10:14:09.999Z</time></trkpt><trkpt lat="43.45260252946478" lon="10.818866807872267"><ele>114.0</ele><time>2026-04-04T10:14:10.999Z</time></trkpt><trkpt lat="43.452541096747765" lon="10.81850817230929"><ele>114.0</ele><time>2026-04-04T10:14:11.999Z</time></trkpt><trkpt lat="43.45248328473265" lon="10.818150783890008"><ele>110.5</ele><time>2026-04-04T10:14:12.999Z</time></trkpt><trkpt lat="43.45240960192198" lon="10.817777528561944"><ele>107.0</ele><time>2026-04-04T10:14:13.999Z</time></trkpt><trkpt lat="43.45234738201411" lon="10.817406238815328"><ele>104.0</ele><time>2026-04-04T10:14:14.999Z</time></trkpt><trkpt lat="43.45227048397717" lon="10.817029686574438"><ele>101.0</ele><time>2026-04-04T10:14:15.999Z</time></trkpt><trkpt lat="43.4521700606312" lon="10.816655762487235"><ele>99.5</ele><time>2026-04-04T10:14:17Z</time></trkpt><trkpt lat="43.45206013246782" lon="10.816286487537008"><ele>98.0</ele><time>2026-04-04T10:14:18Z</time></trkpt><trkpt lat="43.45195243270754" lon="10.81593292887236"><ele>98.0</ele><time>2026-04-04T10:14:19Z</time></trkpt><trkpt lat="43.45186383250966" lon="10.815602763728844"><ele>98.0</ele><time>2026-04-04T10:14:20Z</time></trkpt><trkpt lat="43.45177495520737" lon="10.81529269550176"><ele>99.5</ele><time>2026-04-04T10:14:21Z</time></trkpt><trkpt lat="43.45169465815339" lon="10.814995742992515"><ele>101.0</ele><time>2026-04-04T10:14:22Z</time></trkpt><trkpt lat="43.451609544602924" lon="10.814711752903946"><ele>101.0</ele><time>2026-04-04T10:14:23Z</time></trkpt><trkpt lat="43.45153709610978" lon="10.814422239081939"><ele>101.0</ele><time>2026-04-04T10:14:24Z</time></trkpt><trkpt lat="43.45147857848476" lon="10.814113954522995"><ele>101.0</ele><time>2026-04-04T10:14:25Z</time></trkpt><trkpt lat="43.45144142698262" lon="10.813784287572334"><ele>101.0</ele><time>2026-04-04T10:14:26Z</time></trkpt><trkpt lat="43.45141214020272" lon="10.813456031590642"><ele>100.5</ele><time>2026-04-04T10:14:27Z</time></trkpt><trkpt lat="43.451403712987705" lon="10.8131117114216"><ele>100.0</ele><time>2026-04-04T10:14:28Z</time></trkpt><trkpt lat="43.451401061503525" lon="10.812783562029622"><ele>98.5</ele><time>2026-04-04T10:14:29Z</time></trkpt><trkpt lat="43.451392584965866" lon="10.812470191732803"><ele>97.0</ele><time>2026-04-04T10:14:30Z</time></trkpt><trkpt lat="43.45137229170149" lon="10.812153628899765"><ele>95.5</ele><time>2026-04-04T10:14:31Z</time></trkpt><trkpt lat="43.45132597968837" lon="10.81181892987479"><ele>94.0</ele><time>2026-04-04T10:14:32Z</time></trkpt><trkpt lat="43.45125274179361" lon="10.811478944583184"><ele>98.5</ele><time>2026-04-04T10:14:33Z</time></trkpt><trkpt lat="43.45116359000132" lon="10.811160958816872"><ele>103.0</ele><time>2026-04-04T10:14:34Z</time></trkpt><trkpt lat="43.45108297746264" lon="10.810864009774239"><ele>103.0</ele><time>2026-04-04T10:14:35Z</time></trkpt><trkpt lat="43.45101263842221" lon="10.810578563966684"><ele>103.0</ele><time>2026-04-04T10:14:36Z</time></trkpt><trkpt lat="43.45094763800523" lon="10.810288292046726"><ele>103.0</ele><time>2026-04-04T10:14:37Z</time></trkpt><trkpt lat="43.450898510728095" lon="10.809967197620502"><ele>100.0</ele><time>2026-04-04T10:14:38Z</time></trkpt><trkpt lat="43.45086995199509" lon="10.80962212085674"><ele>97.0</ele><time>2026-04-04T10:14:39Z</time></trkpt><trkpt lat="43.45083702737702" lon="10.809255690936597"><ele>96.5</ele><time>2026-04-04T10:14:40Z</time></trkpt><trkpt lat="43.45080471324975" lon="10.80888836956626"><ele>96.0</ele><time>2026-04-04T10:14:41Z</time></trkpt><trkpt lat="43.45077498727497" lon="10.808544281382023"><ele>95.5</ele><time>2026-04-04T10:14:42Z</time></trkpt><trkpt lat="43.45074676832681" lon="10.80822033581754"><ele>95.0</ele><time>2026-04-04T10:14:43Z</time></trkpt><trkpt lat="43.45072028780658" lon="10.807896630634358"><ele>95.0</ele><time>2026-04-04T10:14:44Z</time></trkpt><trkpt lat="43.45071463628729" lon="10.807557193308096"><ele>95.0</ele><time>2026-04-04T10:14:45Z</time></trkpt><trkpt lat="43.45073710215947" lon="10.807223234547902"><ele>95.0</ele><time>2026-04-04T10:14:46Z</time></trkpt><trkpt lat="43.45076400699016" lon="10.8069116729073"><ele>95.0</ele><time>2026-04-04T10:14:47Z</time></trkpt><trkpt lat="43.4507873364169" lon="10.806613009527345"><ele>95.0</ele><time>2026-04-04T10:14:48Z</time></trkpt><trkpt lat="43.45080799014208" lon="10.806323487113355"><ele>94.66666666666667</ele><time>2026-04-04T10:14:49Z</time></trkpt><trkpt lat="43.45083979844813" lon="10.80603187079002"><ele>94.33333333333333</ele><time>2026-04-04T10:14:50Z</time></trkpt><trkpt lat="43.450897277694644" lon="10.805725459087721"><ele>94.0</ele><time>2026-04-04T10:14:51Z</time></trkpt><trkpt lat="43.450975460669426" lon="10.805400810702086"><ele>95.5</ele><time>2026-04-04T10:14:52Z</time></trkpt><trkpt lat="43.45106212927796" lon="10.80507550705641"><ele>97.0</ele><time>2026-04-04T10:14:53Z</time></trkpt><trkpt lat="43.451140595409214" lon="10.804770187095027"><ele>97.0</ele><time>2026-04-04T10:14:54Z</time></trkpt><trkpt lat="43.451207426230226" lon="10.804477485849791"><ele>97.0</ele><time>2026-04-04T10:14:55Z</time></trkpt><trkpt lat="43.45127314285112" lon="10.804200009266054"><ele>97.0</ele><time>2026-04-04T10:14:56Z</time></trkpt><trkpt lat="43.45133999133326" lon="10.80392723996267"><ele>96.33333333333334</ele><time>2026-04-04T10:14:57Z</time></trkpt><trkpt lat="43.45139283941997" lon="10.803666124183087"><ele>95.66666666666667</ele><time>2026-04-04T10:14:58Z</time></trkpt><trkpt lat="43.45142778295156" lon="10.8033964815305"><ele>95.0</ele><time>2026-04-04T10:14:59Z</time></trkpt><trkpt lat="43.45143609103108" lon="10.80311522340082"><ele>95.0</ele><time>2026-04-04T10:15:00Z</time></trkpt><trkpt lat="43.451437764838886" lon="10.802857079255512"><ele>95.0</ele><time>2026-04-04T10:15:01Z</time></trkpt><trkpt lat="43.45145357186077" lon="10.802605246381919"><ele>95.0</ele><time>2026-04-04T10:15:02Z</time></trkpt><trkpt lat="43.45149151690492" lon="10.80235575820072"><ele>94.33333333333334</ele><time>2026-04-04T10:15:03Z</time></trkpt><trkpt lat="43.451546995485685" lon="10.802082544894695"><ele>93.66666666666667</ele><time>2026-04-04T10:15:04Z</time></trkpt><trkpt lat="43.451630299914754" lon="10.801801327158298"><ele>93.0</ele><time>2026-04-04T10:15:05Z</time></trkpt><trkpt lat="43.451711689737195" lon="10.801511428474843"><ele>92.5</ele><time>2026-04-04T10:15:06Z</time></trkpt><trkpt lat="43.45179234889266" lon="10.801218572926787"><ele>92.0</ele><time>2026-04-04T10:15:07Z</time></trkpt><trkpt lat="43.45186977613061" lon="10.800917568013528"><ele>92.0</ele><time>2026-04-04T10:15:07.999Z</time></trkpt><trkpt lat="43.45194941555026" lon="10.800614443275377"><ele>92.0</ele><time>2026-04-04T10:15:08.999Z</time></trkpt><trkpt lat="43.45202933331436" lon="10.800316250075143"><ele>91.66666666666667</ele><time>2026-04-04T10:15:09.999Z</time></trkpt><trkpt lat="43.452108235730975" lon="10.800028207560059"><ele>91.33333333333333</ele><time>2026-04-04T10:15:10.999Z</time></trkpt><trkpt lat="43.45218277029354" lon="10.799746315030143"><ele>91.0</ele><time>2026-04-04T10:15:11.999Z</time></trkpt><trkpt lat="43.45225586225462" lon="10.799458510002719"><ele>90.33333333333333</ele><time>2026-04-04T10:15:12.999Z</time></trkpt><trkpt lat="43.452329164981684" lon="10.7991806396691"><ele>89.66666666666667</ele><time>2026-04-04T10:15:13.999Z</time></trkpt><trkpt lat="43.452420152724905" lon="10.79889959905374"><ele>89.0</ele><time>2026-04-04T10:15:14.999Z</time></trkpt><trkpt lat="43.45248530626891" lon="10.798588363713773"><ele>89.0</ele><time>2026-04-04T10:15:15.999Z</time></trkpt><trkpt lat="43.452575046621426" lon="10.798249177391908"><ele>89.0</ele><time>2026-04-04T10:15:16.999Z</time></trkpt><trkpt lat="43.45266845475512" lon="10.797901691510647"><ele>89.0</ele><time>2026-04-04T10:15:17.999Z</time></trkpt><trkpt lat="43.45276212383042" lon="10.797534302883074"><ele>89.0</ele><time>2026-04-04T10:15:18.999Z</time></trkpt><trkpt lat="43.45285651936405" lon="10.79717382467258"><ele>89.5</ele><time>2026-04-04T10:15:19.999Z</time></trkpt><trkpt lat="43.45295266187697" lon="10.79681777638897"><ele>90.0</ele><time>2026-04-04T10:15:20.999Z</time></trkpt><trkpt lat="43.45304327090049" lon="10.796469885536972"><ele>90.0</ele><time>2026-04-04T10:15:21.999Z</time></trkpt><trkpt lat="43.453129761215465" lon="10.796136629413065"><ele>90.0</ele><time>2026-04-04T10:15:22.999Z</time></trkpt><trkpt lat="43.45321269985408" lon="10.795827121875101"><ele>89.33333333333333</ele><time>2026-04-04T10:15:23.999Z</time></trkpt><trkpt lat="43.453291830136415" lon="10.795538124202675"><ele>88.66666666666666</ele><time>2026-04-04T10:15:24.999Z</time></trkpt><trkpt lat="43.45336427015966" lon="10.795269457156955"><ele>88.0</ele><time>2026-04-04T10:15:25.999Z</time></trkpt><trkpt lat="43.45343382249603" lon="10.79501221997616"><ele>87.33333333333333</ele><time>2026-04-04T10:15:26.999Z</time></trkpt><trkpt lat="43.453489360857304" lon="10.794741562648463"><ele>86.66666666666667</ele><time>2026-04-04T10:15:27.999Z</time></trkpt><trkpt lat="43.45350917775966" lon="10.794432130480555"><ele>86.0</ele><time>2026-04-04T10:15:28.999Z</time></trkpt><trkpt lat="43.453491325356715" lon="10.794092831247449"><ele>86.0</ele><time>2026-04-04T10:15:29.999Z</time></trkpt><trkpt lat="43.45344039998091" lon="10.79372090364915"><ele>86.0</ele><time>2026-04-04T10:15:30.999Z</time></trkpt><trkpt lat="43.453365913678155" lon="10.793341171459055"><ele>86.0</ele><time>2026-04-04T10:15:31.999Z</time></trkpt><trkpt lat="43.4533005662767" lon="10.792948665695553"><ele>86.0</ele><time>2026-04-04T10:15:32.999Z</time></trkpt><trkpt lat="43.453249304822236" lon="10.792584286812797"><ele>86.0</ele><time>2026-04-04T10:15:33.999Z</time></trkpt><trkpt lat="43.45320642477801" lon="10.792262499901463"><ele>86.0</ele><time>2026-04-04T10:15:34.999Z</time></trkpt><trkpt lat="43.453165193140826" lon="10.791969486143921"><ele>86.33333333333334</ele><time>2026-04-04T10:15:35.999Z</time></trkpt><trkpt lat="43.45313168294057" lon="10.791691538442674"><ele>86.66666666666667</ele><time>2026-04-04T10:15:36.999Z</time></trkpt><trkpt lat="43.453118266782006" lon="10.791420178723484"><ele>87.0</ele><time>2026-04-04T10:15:37.999Z</time></trkpt><trkpt lat="43.45313583766259" lon="10.791158765383832"><ele>87.33333333333333</ele><time>2026-04-04T10:15:38.999Z</time></trkpt><trkpt lat="43.45315797605957" lon="10.79091079888497"><ele>87.66666666666666</ele><time>2026-04-04T10:15:39.999Z</time></trkpt><trkpt lat="43.4531799981907" lon="10.79067250743375"><ele>88.0</ele><time>2026-04-04T10:15:40.999Z</time></trkpt><trkpt lat="43.453220688455815" lon="10.790413384401733"><ele>87.0</ele><time>2026-04-04T10:15:41.999Z</time></trkpt><trkpt lat="43.45331692035493" lon="10.790132806553649"><ele>86.0</ele><time>2026-04-04T10:15:42.999Z</time></trkpt><trkpt lat="43.45342417172961" lon="10.7898329058145"><ele>86.0</ele><time>2026-04-04T10:15:43.999Z</time></trkpt><trkpt lat="43.45354111563624" lon="10.789514167531111"><ele>86.0</ele><time>2026-04-04T10:15:44.999Z</time></trkpt><trkpt lat="43.453661570986114" lon="10.789185817499895"><ele>85.0</ele><time>2026-04-04T10:15:45.999Z</time></trkpt><trkpt lat="43.45379060695827" lon="10.7888340781599"><ele>84.0</ele><time>2026-04-04T10:15:46.999Z</time></trkpt><trkpt lat="43.45391964575497" lon="10.78846590903646"><ele>84.0</ele><time>2026-04-04T10:15:47.999Z</time></trkpt><trkpt lat="43.45406101281259" lon="10.788105985136099"><ele>84.0</ele><time>2026-04-04T10:15:48.999Z</time></trkpt><trkpt lat="43.45419288200203" lon="10.787724389497138"><ele>84.5</ele><time>2026-04-04T10:15:49.999Z</time></trkpt><trkpt lat="43.454325315900384" lon="10.78733570955673"><ele>85.0</ele><time>2026-04-04T10:15:50.999Z</time></trkpt><trkpt lat="43.45446194240305" lon="10.786956357720728"><ele>85.5</ele><time>2026-04-04T10:15:51.999Z</time></trkpt><trkpt lat="43.45459371451605" lon="10.78660029197363"><ele>86.0</ele><time>2026-04-04T10:15:52.999Z</time></trkpt><trkpt lat="43.454722769755655" lon="10.78626213274059"><ele>85.5</ele><time>2026-04-04T10:15:53.999Z</time></trkpt><trkpt lat="43.45486212572689" lon="10.785929411361845"><ele>85.0</ele><time>2026-04-04T10:15:54.999Z</time></trkpt><trkpt lat="43.45500948637652" lon="10.785599781893495"><ele>85.0</ele><time>2026-04-04T10:15:55.999Z</time></trkpt><trkpt lat="43.45515167272736" lon="10.78528417257887"><ele>85.0</ele><time>2026-04-04T10:15:56.999Z</time></trkpt><trkpt lat="43.45527969551024" lon="10.78499421289108"><ele>85.5</ele><time>2026-04-04T10:15:57.999Z</time></trkpt><trkpt lat="43.45540112020247" lon="10.784723276312738"><ele>86.0</ele><time>2026-04-04T10:15:58.999Z</time></trkpt><trkpt lat="43.45553078938668" lon="10.78446722636149"><ele>85.5</ele><time>2026-04-04T10:15:59.999Z</time></trkpt><trkpt lat="43.45569420317835" lon="10.784221949890004"><ele>85.0</ele><time>2026-04-04T10:16:00.999Z</time></trkpt><trkpt lat="43.45589913986109" lon="10.783991242388677"><ele>85.0</ele><time>2026-04-04T10:16:01.999Z</time></trkpt><trkpt lat="43.456128430459245" lon="10.783782924520677"><ele>85.0</ele><time>2026-04-04T10:16:02.999Z</time></trkpt><trkpt lat="43.45635494939107" lon="10.783558950883183"><ele>83.5</ele><time>2026-04-04T10:16:03.999Z</time></trkpt><trkpt lat="43.456579476551134" lon="10.78331929742682"><ele>82.0</ele><time>2026-04-04T10:16:04.999Z</time></trkpt><trkpt lat="43.45681122048824" lon="10.78306999631272"><ele>82.0</ele><time>2026-04-04T10:16:05.999Z</time></trkpt><trkpt lat="43.45703702790034" lon="10.782834957013447"><ele>82.0</ele><time>2026-04-04T10:16:06.999Z</time></trkpt><trkpt lat="43.4572646475611" lon="10.782603938229547"><ele>82.5</ele><time>2026-04-04T10:16:07.999Z</time></trkpt><trkpt lat="43.457492867843065" lon="10.782364639487984"><ele>83.0</ele><time>2026-04-04T10:16:08.999Z</time></trkpt><trkpt lat="43.45772623063009" lon="10.782119244398409"><ele>83.0</ele><time>2026-04-04T10:16:09.999Z</time></trkpt><trkpt lat="43.4579732468293" lon="10.781863170960916"><ele>83.0</ele><time>2026-04-04T10:16:10.999Z</time></trkpt><trkpt lat="43.45822700470328" lon="10.781597875014867"><ele>83.0</ele><time>2026-04-04T10:16:11.999Z</time></trkpt><trkpt lat="43.45848068822586" lon="10.781327249158121"><ele>83.0</ele><time>2026-04-04T10:16:12.999Z</time></trkpt><trkpt lat="43.45874121341177" lon="10.781050176888323"><ele>82.5</ele><time>2026-04-04T10:16:13.999Z</time></trkpt><trkpt lat="43.45900799212438" lon="10.780766106277921"><ele>82.0</ele><time>2026-04-04T10:16:14.999Z</time></trkpt><trkpt lat="43.459276596889325" lon="10.780487753085936"><ele>82.0</ele><time>2026-04-04T10:16:15.999Z</time></trkpt><trkpt lat="43.459543076116226" lon="10.780211196241838"><ele>82.0</ele><time>2026-04-04T10:16:16.999Z</time></trkpt><trkpt lat="43.45980320483634" lon="10.779941691045352"><ele>83.0</ele><time>2026-04-04T10:16:17.999Z</time></trkpt><trkpt lat="43.460046703257504" lon="10.779692780951832"><ele>84.0</ele><time>2026-04-04T10:16:18.999Z</time></trkpt><trkpt lat="43.46029473013546" lon="10.779436998191944"><ele>84.5</ele><time>2026-04-04T10:16:19.999Z</time></trkpt><trkpt lat="43.4605521158627" lon="10.779162570794252"><ele>85.0</ele><time>2026-04-04T10:16:20.999Z</time></trkpt><trkpt lat="43.46082030906055" lon="10.778879798918899"><ele>85.0</ele><time>2026-04-04T10:16:21.999Z</time></trkpt><trkpt lat="43.4610715937795" lon="10.77861263164363"><ele>85.0</ele><time>2026-04-04T10:16:23Z</time></trkpt><trkpt lat="43.46130619074122" lon="10.778375417096813"><ele>84.0</ele><time>2026-04-04T10:16:24Z</time></trkpt><trkpt lat="43.46155505320703" lon="10.778140885690146"><ele>83.0</ele><time>2026-04-04T10:16:25Z</time></trkpt><trkpt lat="43.46183492457504" lon="10.777919500446982"><ele>83.0</ele><time>2026-04-04T10:16:26Z</time></trkpt><trkpt lat="43.46212660232996" lon="10.777704018201987"><ele>83.0</ele><time>2026-04-04T10:16:27Z</time></trkpt><trkpt lat="43.462422559480274" lon="10.777477790377455"><ele>83.0</ele><time>2026-04-04T10:16:28Z</time></trkpt><trkpt lat="43.46272292173758" lon="10.777240333738563"><ele>83.0</ele><time>2026-04-04T10:16:29Z</time></trkpt><trkpt lat="43.46302847454087" lon="10.776997483370641"><ele>82.0</ele><time>2026-04-04T10:16:30Z</time></trkpt><trkpt lat="43.463338352813004" lon="10.776753761649527"><ele>81.0</ele><time>2026-04-04T10:16:31Z</time></trkpt><trkpt lat="43.463637027934546" lon="10.776514319133648"><ele>80.0</ele><time>2026-04-04T10:16:32Z</time></trkpt><trkpt lat="43.46391575823822" lon="10.77629571637118"><ele>79.0</ele><time>2026-04-04T10:16:33Z</time></trkpt><trkpt lat="43.46419736354849" lon="10.776071318999646"><ele>79.0</ele><time>2026-04-04T10:16:34Z</time></trkpt><trkpt lat="43.4644768796636" lon="10.775846380203937"><ele>79.0</ele><time>2026-04-04T10:16:35Z</time></trkpt><trkpt lat="43.46473975616723" lon="10.775640418535911"><ele>79.0</ele><time>2026-04-04T10:16:36Z</time></trkpt><trkpt lat="43.46498068840545" lon="10.775446155791972"><ele>79.0</ele><time>2026-04-04T10:16:37Z</time></trkpt><trkpt lat="43.46520803227757" lon="10.775266259048088"><ele>78.5</ele><time>2026-04-04T10:16:38Z</time></trkpt><trkpt lat="43.46542237812861" lon="10.775098022784936"><ele>78.0</ele><time>2026-04-04T10:16:39Z</time></trkpt><trkpt lat="43.46562623957165" lon="10.77494178103776"><ele>78.0</ele><time>2026-04-04T10:16:40Z</time></trkpt><trkpt lat="43.46583648968565" lon="10.774802044222795"><ele>78.0</ele><time>2026-04-04T10:16:41Z</time></trkpt><trkpt lat="43.46607876937043" lon="10.774692941311857"><ele>77.5</ele><time>2026-04-04T10:16:42Z</time></trkpt><trkpt lat="43.466346341647665" lon="10.77462186589601"><ele>77.0</ele><time>2026-04-04T10:16:43Z</time></trkpt><trkpt lat="43.466622023251354" lon="10.774554670318603"><ele>77.0</ele><time>2026-04-04T10:16:44Z</time></trkpt><trkpt lat="43.46688432445567" lon="10.774481827404047"><ele>77.0</ele><time>2026-04-04T10:16:45Z</time></trkpt><trkpt lat="43.467123870434776" lon="10.774412216853111"><ele>79.0</ele><time>2026-04-04T10:16:46Z</time></trkpt><trkpt lat="43.46734271046644" lon="10.774344936141718"><ele>81.0</ele><time>2026-04-04T10:16:47Z</time></trkpt><trkpt lat="43.46754090325821" lon="10.774278645483577"><ele>83.0</ele><time>2026-04-04T10:16:48Z</time></trkpt><trkpt lat="43.46772862171129" lon="10.774187184860098"><ele>83.0</ele><time>2026-04-04T10:16:49Z</time></trkpt><trkpt lat="43.467928318483786" lon="10.774129620626745"><ele>83.0</ele><time>2026-04-04T10:16:50Z</time></trkpt><trkpt lat="43.468142785270715" lon="10.774048529411193"><ele>83.0</ele><time>2026-04-04T10:16:51Z</time></trkpt><trkpt lat="43.46831284758394" lon="10.773605317136942"><ele>84.5</ele><time>2026-04-04T10:16:52Z</time></trkpt><trkpt lat="43.46853454971294" lon="10.773366415841506"><ele>86.0</ele><time>2026-04-04T10:16:53Z</time></trkpt><trkpt lat="43.46876108101243" lon="10.773126740096414"><ele>84.0</ele><time>2026-04-04T10:16:54Z</time></trkpt><trkpt lat="43.46899449611718" lon="10.772884877252014"><ele>82.0</ele><time>2026-04-04T10:16:55Z</time></trkpt><trkpt lat="43.469241083083425" lon="10.772637372486459"><ele>82.0</ele><time>2026-04-04T10:16:56Z</time></trkpt><trkpt lat="43.469491867947426" lon="10.77237163984233"><ele>82.0</ele><time>2026-04-04T10:16:57Z</time></trkpt><trkpt lat="43.46975091872658" lon="10.772089433907738"><ele>82.5</ele><time>2026-04-04T10:16:58Z</time></trkpt><trkpt lat="43.47000143725299" lon="10.77180488813277"><ele>83.0</ele><time>2026-04-04T10:16:59Z</time></trkpt><trkpt lat="43.47022593152717" lon="10.771540860853325"><ele>79.5</ele><time>2026-04-04T10:17:00Z</time></trkpt><trkpt lat="43.470446105493075" lon="10.771281994941333"><ele>76.0</ele><time>2026-04-04T10:17:01Z</time></trkpt><trkpt lat="43.47063334406462" lon="10.771067514239977"><ele>77.5</ele><time>2026-04-04T10:17:02Z</time></trkpt><trkpt lat="43.4708308765549" lon="10.770822034241673"><ele>79.0</ele><time>2026-04-04T10:17:03Z</time></trkpt><trkpt lat="43.47101419786939" lon="10.770573275513579"><ele>79.0</ele><time>2026-04-04T10:17:04Z</time></trkpt><trkpt lat="43.471189601897166" lon="10.770301009911416"><ele>79.0</ele><time>2026-04-04T10:17:05Z</time></trkpt><trkpt lat="43.47134336049562" lon="10.770032129542003"><ele>77.66666666666666</ele><time>2026-04-04T10:17:06Z</time></trkpt><trkpt lat="43.47148512261987" lon="10.769789621691897"><ele>76.33333333333333</ele><time>2026-04-04T10:17:07Z</time></trkpt><trkpt lat="43.47159675420799" lon="10.769580414659636"><ele>75.0</ele><time>2026-04-04T10:17:08Z</time></trkpt><trkpt lat="43.47167099950514" lon="10.769411403120847"><ele>76.5</ele><time>2026-04-04T10:17:09Z</time></trkpt><trkpt lat="43.471730937833485" lon="10.769264011838679"><ele>78.0</ele><time>2026-04-04T10:17:10Z</time></trkpt><trkpt lat="43.47178083583631" lon="10.769117851028172"><ele>79.5</ele><time>2026-04-04T10:17:11Z</time></trkpt><trkpt lat="43.47183451798231" lon="10.76895275331298"><ele>81.0</ele><time>2026-04-04T10:17:12Z</time></trkpt><trkpt lat="43.47188766366785" lon="10.768764641192748"><ele>81.0</ele><time>2026-04-04T10:17:13Z</time></trkpt><trkpt lat="43.47193751144293" lon="10.768544389619807"><ele>81.0</ele><time>2026-04-04T10:17:14Z</time></trkpt><trkpt lat="43.47198934935808" lon="10.768344986977127"><ele>81.0</ele><time>2026-04-04T10:17:15Z</time></trkpt><trkpt lat="43.472032377211015" lon="10.768163026741359"><ele>80.25</ele><time>2026-04-04T10:17:16Z</time></trkpt><trkpt lat="43.4720813847249" lon="10.767989885724287"><ele>79.5</ele><time>2026-04-04T10:17:17Z</time></trkpt><trkpt lat="43.47213705982294" lon="10.767801960316119"><ele>78.75</ele><time>2026-04-04T10:17:17.999Z</time></trkpt><trkpt lat="43.472191982103965" lon="10.767612209865582"><ele>78.0</ele><time>2026-04-04T10:17:18.999Z</time></trkpt><trkpt lat="43.47224539581418" lon="10.767417917949608"><ele>77.5</ele><time>2026-04-04T10:17:19.999Z</time></trkpt><trkpt lat="43.472297090102266" lon="10.767228510685861"><ele>77.0</ele><time>2026-04-04T10:17:20.999Z</time></trkpt><trkpt lat="43.47234857423752" lon="10.76703833426191"><ele>76.5</ele><time>2026-04-04T10:17:21.999Z</time></trkpt><trkpt lat="43.47239884745484" lon="10.766848679885772"><ele>76.0</ele><time>2026-04-04T10:17:22.999Z</time></trkpt><trkpt lat="43.4724497222132" lon="10.76665995206159"><ele>76.0</ele><time>2026-04-04T10:17:23.999Z</time></trkpt><trkpt lat="43.472504496815" lon="10.766466366521385"><ele>76.0</ele><time>2026-04-04T10:17:24.999Z</time></trkpt><trkpt lat="43.47255584700366" lon="10.766288116014138"><ele>76.0</ele><time>2026-04-04T10:17:25.999Z</time></trkpt><trkpt lat="43.4726021458158" lon="10.76611516714317"><ele>76.0</ele><time>2026-04-04T10:17:26.999Z</time></trkpt><trkpt lat="43.47265324308431" lon="10.765949125751785"><ele>76.5</ele><time>2026-04-04T10:17:27.999Z</time></trkpt><trkpt lat="43.47269844759856" lon="10.765778514342253"><ele>77.0</ele><time>2026-04-04T10:17:28.999Z</time></trkpt><trkpt lat="43.472754034436306" lon="10.765602575708115"><ele>77.5</ele><time>2026-04-04T10:17:29.999Z</time></trkpt><trkpt lat="43.472806013631434" lon="10.765419607943969"><ele>78.0</ele><time>2026-04-04T10:17:30.999Z</time></trkpt><trkpt lat="43.47284786100487" lon="10.765240576111484"><ele>78.25</ele><time>2026-04-04T10:17:31.999Z</time></trkpt><trkpt lat="43.47288363545707" lon="10.76507865289858"><ele>78.5</ele><time>2026-04-04T10:17:32.999Z</time></trkpt><trkpt lat="43.47291672545973" lon="10.764924363770774"><ele>78.75</ele><time>2026-04-04T10:17:33.999Z</time></trkpt><trkpt lat="43.472944801594004" lon="10.764779997184329"><ele>79.0</ele><time>2026-04-04T10:17:34.999Z</time></trkpt><trkpt lat="43.4729674685808" lon="10.764607533421952"><ele>79.0</ele><time>2026-04-04T10:17:35.999Z</time></trkpt><trkpt lat="43.4729892034095" lon="10.76444168465961"><ele>79.0</ele><time>2026-04-04T10:17:36.999Z</time></trkpt><trkpt lat="43.47298784919197" lon="10.764293995862351"><ele>79.0</ele><time>2026-04-04T10:17:37.999Z</time></trkpt><trkpt lat="43.47299311262023" lon="10.764141330917019"><ele>79.0</ele><time>2026-04-04T10:17:38.999Z</time></trkpt><trkpt lat="43.47300475655293" lon="10.764002832345852"><ele>79.0</ele><time>2026-04-04T10:17:39.999Z</time></trkpt><trkpt lat="43.47301496590639" lon="10.763883229796026"><ele>79.0</ele><time>2026-04-04T10:17:40.999Z</time></trkpt><trkpt lat="43.47301887425587" lon="10.763771713748639"><ele>79.0</ele><time>2026-04-04T10:17:41.999Z</time></trkpt><trkpt lat="43.473026324890704" lon="10.763670537230961"><ele>79.0</ele><time>2026-04-04T10:17:42.999Z</time></trkpt><trkpt lat="43.47304038674033" lon="10.763532732625665"><ele>79.0</ele><time>2026-04-04T10:17:44.999Z</time></trkpt><trkpt lat="43.47304502009188" lon="10.76342455481356"><ele>79.0</ele><time>2026-04-04T10:17:47.999Z</time></trkpt><trkpt lat="43.473007605516635" lon="10.7633510934587"><ele>79.0</ele><time>2026-04-04T10:17:49.999Z</time></trkpt><trkpt lat="43.472934188223036" lon="10.763314215638593"><ele>79.5</ele><time>2026-04-04T10:17:50.999Z</time></trkpt><trkpt lat="43.47282668320764" lon="10.763301037214159"><ele>80.0</ele><time>2026-04-04T10:17:51.999Z</time></trkpt><trkpt lat="43.472710379676776" lon="10.763292278157332"><ele>80.5</ele><time>2026-04-04T10:17:52.999Z</time></trkpt><trkpt lat="43.472583778894304" lon="10.763270556552744"><ele>81.0</ele><time>2026-04-04T10:17:53.999Z</time></trkpt><trkpt lat="43.472441487388096" lon="10.763235545426985"><ele>81.0</ele><time>2026-04-04T10:17:54.999Z</time></trkpt><trkpt lat="43.472295351622726" lon="10.763191289428553"><ele>81.0</ele><time>2026-04-04T10:17:55.999Z</time></trkpt><trkpt lat="43.47217182653247" lon="10.763076904759217"><ele>81.0</ele><time>2026-04-04T10:17:56.999Z</time></trkpt><trkpt lat="43.472055340567934" lon="10.763014016291311"><ele>81.0</ele><time>2026-04-04T10:17:57.999Z</time></trkpt><trkpt lat="43.471945605479824" lon="10.762952168196813"><ele>80.75</ele><time>2026-04-04T10:17:58.999Z</time></trkpt><trkpt lat="43.47184306821168" lon="10.762893309906293"><ele>80.5</ele><time>2026-04-04T10:17:59.999Z</time></trkpt><trkpt lat="43.47174507668028" lon="10.762835556880983"><ele>80.25</ele><time>2026-04-04T10:18:00.999Z</time></trkpt><trkpt lat="43.47164220468863" lon="10.762773687870878"><ele>80.0</ele><time>2026-04-04T10:18:01.999Z</time></trkpt><trkpt lat="43.4715327461485" lon="10.762706843002729"><ele>80.75</ele><time>2026-04-04T10:18:02.999Z</time></trkpt><trkpt lat="43.47142570102605" lon="10.762641471478956"><ele>81.5</ele><time>2026-04-04T10:18:03.999Z</time></trkpt><trkpt lat="43.4713181249476" lon="10.762576420620592"><ele>82.25</ele><time>2026-04-04T10:18:04.999Z</time></trkpt><trkpt lat="43.47120187049617" lon="10.762506326097714"><ele>83.0</ele><time>2026-04-04T10:18:05.999Z</time></trkpt><trkpt lat="43.47107217120902" lon="10.76242812497213"><ele>83.0</ele><time>2026-04-04T10:18:06.999Z</time></trkpt><trkpt lat="43.470922367383324" lon="10.76233776615425"><ele>83.0</ele><time>2026-04-04T10:18:07.999Z</time></trkpt><trkpt lat="43.470756859384856" lon="10.762239485978744"><ele>83.0</ele><time>2026-04-04T10:18:08.999Z</time></trkpt><trkpt lat="43.47057979775166" lon="10.76213434504585"><ele>83.33333333333334</ele><time>2026-04-04T10:18:09.999Z</time></trkpt><trkpt lat="43.47041668633574" lon="10.76203708783296"><ele>83.66666666666667</ele><time>2026-04-04T10:18:10.999Z</time></trkpt><trkpt lat="43.4702668363833" lon="10.761946462599923"><ele>84.0</ele><time>2026-04-04T10:18:11.999Z</time></trkpt><trkpt lat="43.470119028080916" lon="10.76185707216966"><ele>84.0</ele><time>2026-04-04T10:18:12.999Z</time></trkpt><trkpt lat="43.46997885233165" lon="10.761776824104222"><ele>84.0</ele><time>2026-04-04T10:18:13.999Z</time></trkpt><trkpt lat="43.46981852020749" lon="10.761692602517785"><ele>84.0</ele><time>2026-04-04T10:18:14.999Z</time></trkpt><trkpt lat="43.46964103676501" lon="10.761618217614746"><ele>84.0</ele><time>2026-04-04T10:18:15.999Z</time></trkpt><trkpt lat="43.46944740257845" lon="10.761551372729093"><ele>84.0</ele><time>2026-04-04T10:18:16.999Z</time></trkpt><trkpt lat="43.46923792439187" lon="10.761485751069385"><ele>84.0</ele><time>2026-04-04T10:18:17.999Z</time></trkpt><trkpt lat="43.469018106219075" lon="10.761417494534982"><ele>84.0</ele><time>2026-04-04T10:18:18.999Z</time></trkpt><trkpt lat="43.46879475084476" lon="10.761347801234619"><ele>84.0</ele><time>2026-04-04T10:18:19.999Z</time></trkpt><trkpt lat="43.46856184593582" lon="10.761273248144143"><ele>82.5</ele><time>2026-04-04T10:18:20.999Z</time></trkpt><trkpt lat="43.46832141164421" lon="10.761199917365492"><ele>81.0</ele><time>2026-04-04T10:18:21.999Z</time></trkpt><trkpt lat="43.46808221703194" lon="10.761124741753475"><ele>81.0</ele><time>2026-04-04T10:18:22.999Z</time></trkpt><trkpt lat="43.46783960357025" lon="10.761048024774677"><ele>81.0</ele><time>2026-04-04T10:18:23.999Z</time></trkpt><trkpt lat="43.467597551976155" lon="10.760972239416118"><ele>84.0</ele><time>2026-04-04T10:18:24.999Z</time></trkpt><trkpt lat="43.46735816632145" lon="10.760897417632856"><ele>87.0</ele><time>2026-04-04T10:18:25.999Z</time></trkpt><trkpt lat="43.467128413944806" lon="10.760827158836431"><ele>85.0</ele><time>2026-04-04T10:18:26.999Z</time></trkpt><trkpt lat="43.4668988026897" lon="10.7607551773066"><ele>83.0</ele><time>2026-04-04T10:18:27.999Z</time></trkpt><trkpt lat="43.46667906000329" lon="10.760685150857103"><ele>83.0</ele><time>2026-04-04T10:18:29Z</time></trkpt><trkpt lat="43.46647208843702" lon="10.7606192065147"><ele>83.0</ele><time>2026-04-04T10:18:30Z</time></trkpt><trkpt lat="43.46627875832009" lon="10.760559985385605"><ele>83.0</ele><time>2026-04-04T10:18:31Z</time></trkpt><trkpt lat="43.46608429359348" lon="10.760499684314242"><ele>82.33333333333334</ele><time>2026-04-04T10:18:32Z</time></trkpt><trkpt lat="43.46589027472076" lon="10.76044859676197"><ele>81.66666666666667</ele><time>2026-04-04T10:18:33Z</time></trkpt><trkpt lat="43.46569150575931" lon="10.760423805162151"><ele>81.0</ele><time>2026-04-04T10:18:34Z</time></trkpt><trkpt lat="43.46550267110954" lon="10.760418255378147"><ele>81.33333333333333</ele><time>2026-04-04T10:18:35Z</time></trkpt><trkpt lat="43.46532017068231" lon="10.760428212864126"><ele>81.66666666666666</ele><time>2026-04-04T10:18:36Z</time></trkpt><trkpt lat="43.465148866525595" lon="10.760448110269767"><ele>82.0</ele><time>2026-04-04T10:18:37Z</time></trkpt><trkpt lat="43.46497278557154" lon="10.760473577649698"><ele>82.0</ele><time>2026-04-04T10:18:38Z</time></trkpt><trkpt lat="43.46479850850307" lon="10.76050311858322"><ele>82.0</ele><time>2026-04-04T10:18:39Z</time></trkpt><trkpt lat="43.464621030240366" lon="10.760535548686638"><ele>82.0</ele><time>2026-04-04T10:18:40Z</time></trkpt><trkpt lat="43.46444272538324" lon="10.760565215808414"><ele>82.33333333333333</ele><time>2026-04-04T10:18:41Z</time></trkpt><trkpt lat="43.46426601938749" lon="10.760595699055505"><ele>82.66666666666667</ele><time>2026-04-04T10:18:42Z</time></trkpt><trkpt lat="43.46408772018204" lon="10.760623617106127"><ele>83.0</ele><time>2026-04-04T10:18:43Z</time></trkpt><trkpt lat="43.463903921139085" lon="10.760619499089985"><ele>84.0</ele><time>2026-04-04T10:18:44Z</time></trkpt><trkpt lat="43.4636998089484" lon="10.76060471128663"><ele>85.0</ele><time>2026-04-04T10:18:45Z</time></trkpt><trkpt lat="43.46349654163325" lon="10.76058406058639"><ele>86.0</ele><time>2026-04-04T10:18:46Z</time></trkpt><trkpt lat="43.463284873163374" lon="10.760560694190842"><ele>86.0</ele><time>2026-04-04T10:18:47Z</time></trkpt><trkpt lat="43.46308813789512" lon="10.76055693497171"><ele>86.0</ele><time>2026-04-04T10:18:48Z</time></trkpt><trkpt lat="43.46289558064732" lon="10.760592302651142"><ele>86.0</ele><time>2026-04-04T10:18:49Z</time></trkpt><trkpt lat="43.46271882829787" lon="10.760650305704823"><ele>86.66666666666667</ele><time>2026-04-04T10:18:50Z</time></trkpt><trkpt lat="43.46255328808502" lon="10.760701626825135"><ele>87.33333333333333</ele><time>2026-04-04T10:18:51Z</time></trkpt><trkpt lat="43.46240880185275" lon="10.760746420753762"><ele>88.0</ele><time>2026-04-04T10:18:52Z</time></trkpt><trkpt lat="43.4622765053617" lon="10.760777647094828"><ele>88.0</ele><time>2026-04-04T10:18:53Z</time></trkpt><trkpt lat="43.46215183473512" lon="10.760785739766883"><ele>88.0</ele><time>2026-04-04T10:18:54Z</time></trkpt><trkpt lat="43.46202000625863" lon="10.760771864138961"><ele>88.0</ele><time>2026-04-04T10:18:55Z</time></trkpt><trkpt lat="43.46187182755651" lon="10.76071630111249"><ele>88.0</ele><time>2026-04-04T10:18:56Z</time></trkpt><trkpt lat="43.46171386147035" lon="10.760624004754971"><ele>88.0</ele><time>2026-04-04T10:18:57Z</time></trkpt><trkpt lat="43.46155285845964" lon="10.760517068715949"><ele>88.0</ele><time>2026-04-04T10:18:58Z</time></trkpt><trkpt lat="43.46138595379757" lon="10.760401941679078"><ele>88.0</ele><time>2026-04-04T10:18:59Z</time></trkpt><trkpt lat="43.461233687035126" lon="10.760296438766593"><ele>87.25</ele><time>2026-04-04T10:19:00Z</time></trkpt><trkpt lat="43.46110030219042" lon="10.760204018828082"><ele>86.5</ele><time>2026-04-04T10:19:01Z</time></trkpt><trkpt lat="43.4609746455837" lon="10.76011695228058"><ele>85.75</ele><time>2026-04-04T10:19:02Z</time></trkpt><trkpt lat="43.46084870013726" lon="10.76002968468053"><ele>85.0</ele><time>2026-04-04T10:19:03Z</time></trkpt><trkpt lat="43.46071943093238" lon="10.759940113825005"><ele>85.75</ele><time>2026-04-04T10:19:04Z</time></trkpt><trkpt lat="43.46058436406269" lon="10.759846526008753"><ele>86.5</ele><time>2026-04-04T10:19:05Z</time></trkpt><trkpt lat="43.46044264174198" lon="10.759786052256885"><ele>87.25</ele><time>2026-04-04T10:19:06Z</time></trkpt><trkpt lat="43.460319454677915" lon="10.759703213686597"><ele>88.0</ele><time>2026-04-04T10:19:07Z</time></trkpt><trkpt lat="43.460207279183315" lon="10.759629499317922"><ele>88.0</ele><time>2026-04-04T10:19:08Z</time></trkpt><trkpt lat="43.46010196602333" lon="10.75955613838809"><ele>88.0</ele><time>2026-04-04T10:19:09Z</time></trkpt><trkpt lat="43.460002015534705" lon="10.759496026470787"><ele>88.0</ele><time>2026-04-04T10:19:10Z</time></trkpt><trkpt lat="43.459895872384344" lon="10.759467324035917"><ele>88.0</ele><time>2026-04-04T10:19:11Z</time></trkpt><trkpt lat="43.45978713218242" lon="10.759473520163395"><ele>88.0</ele><time>2026-04-04T10:19:12Z</time></trkpt><trkpt lat="43.459675538829" lon="10.759501919630425"><ele>87.25</ele><time>2026-04-04T10:19:13Z</time></trkpt><trkpt lat="43.45955810209644" lon="10.75955686671005"><ele>86.5</ele><time>2026-04-04T10:19:14Z</time></trkpt><trkpt lat="43.45944655829417" lon="10.759646150579927"><ele>85.75</ele><time>2026-04-04T10:19:15Z</time></trkpt><trkpt lat="43.45934952932587" lon="10.759755051204815"><ele>85.0</ele><time>2026-04-04T10:19:16Z</time></trkpt><trkpt lat="43.459265551804805" lon="10.759917790610956"><ele>85.0</ele><time>2026-04-04T10:19:17Z</time></trkpt><trkpt lat="43.459193688695" lon="10.760111855764553"><ele>85.0</ele><time>2026-04-04T10:19:18Z</time></trkpt><trkpt lat="43.4591244105853" lon="10.760333881222175"><ele>85.0</ele><time>2026-04-04T10:19:19Z</time></trkpt><trkpt lat="43.45904200755791" lon="10.760573023049341"><ele>85.0</ele><time>2026-04-04T10:19:20Z</time></trkpt><trkpt lat="43.458957326974" lon="10.760816932136871"><ele>85.0</ele><time>2026-04-04T10:19:20.999Z</time></trkpt><trkpt lat="43.458875139855174" lon="10.761050136309576"><ele>85.0</ele><time>2026-04-04T10:19:21.999Z</time></trkpt><trkpt lat="43.458795671989776" lon="10.761260523918523"><ele>86.33333333333333</ele><time>2026-04-04T10:19:22.999Z</time></trkpt><trkpt lat="43.45872068009149" lon="10.76147446902524"><ele>87.66666666666667</ele><time>2026-04-04T10:19:23.999Z</time></trkpt><trkpt lat="43.458650324306475" lon="10.761668607352938"><ele>89.0</ele><time>2026-04-04T10:19:24.999Z</time></trkpt><trkpt lat="43.45858159818619" lon="10.761850091761369"><ele>89.5</ele><time>2026-04-04T10:19:25.999Z</time></trkpt><trkpt lat="43.458524953129455" lon="10.762025978529518"><ele>90.0</ele><time>2026-04-04T10:19:26.999Z</time></trkpt><trkpt lat="43.45848256227125" lon="10.762224500404725"><ele>90.5</ele><time>2026-04-04T10:19:27.999Z</time></trkpt><trkpt lat="43.458472049999436" lon="10.762443458856602"><ele>91.0</ele><time>2026-04-04T10:19:28.999Z</time></trkpt><trkpt lat="43.458480332147126" lon="10.762691452308612"><ele>90.66666666666666</ele><time>2026-04-04T10:19:29.999Z</time></trkpt><trkpt lat="43.458490821015374" lon="10.762935144969234"><ele>90.33333333333333</ele><time>2026-04-04T10:19:30.999Z</time></trkpt><trkpt lat="43.45849408032233" lon="10.763153040441003"><ele>90.0</ele><time>2026-04-04T10:19:31.999Z</time></trkpt><trkpt lat="43.45848695327373" lon="10.763344699530158"><ele>90.0</ele><time>2026-04-04T10:19:32.999Z</time></trkpt><trkpt lat="43.458461987696026" lon="10.7635175788442"><ele>90.0</ele><time>2026-04-04T10:19:33.999Z</time></trkpt><trkpt lat="43.458399729020435" lon="10.763679178524152"><ele>90.0</ele><time>2026-04-04T10:19:34.999Z</time></trkpt><trkpt lat="43.45829520039393" lon="10.76383226041636"><ele>90.0</ele><time>2026-04-04T10:19:35.999Z</time></trkpt><trkpt lat="43.45815011438933" lon="10.763983239562469"><ele>89.66666666666667</ele><time>2026-04-04T10:19:36.999Z</time></trkpt><trkpt lat="43.45800336573396" lon="10.764137572282916"><ele>89.33333333333334</ele><time>2026-04-04T10:19:37.999Z</time></trkpt><trkpt lat="43.45784971171258" lon="10.764308460786431"><ele>89.0</ele><time>2026-04-04T10:19:38.999Z</time></trkpt><trkpt lat="43.457682430011204" lon="10.76449741328855"><ele>89.0</ele><time>2026-04-04T10:19:39.999Z</time></trkpt><trkpt lat="43.457498451292324" lon="10.764704524009764"><ele>89.0</ele><time>2026-04-04T10:19:40.999Z</time></trkpt><trkpt lat="43.457296209409215" lon="10.764931794045719"><ele>89.5</ele><time>2026-04-04T10:19:41.999Z</time></trkpt><trkpt lat="43.457073727443856" lon="10.765181312352725"><ele>90.0</ele><time>2026-04-04T10:19:42.999Z</time></trkpt><trkpt lat="43.45684122522407" lon="10.765445633364918"><ele>90.0</ele><time>2026-04-04T10:19:43.999Z</time></trkpt><trkpt lat="43.45660399134557" lon="10.76571759888955"><ele>90.0</ele><time>2026-04-04T10:19:44.999Z</time></trkpt><trkpt lat="43.45636528502199" lon="10.765991221092206"><ele>91.0</ele><time>2026-04-04T10:19:45.999Z</time></trkpt><trkpt lat="43.456113952262896" lon="10.766277411845362"><ele>92.0</ele><time>2026-04-04T10:19:46.999Z</time></trkpt><trkpt lat="43.455859827361834" lon="10.766560159803372"><ele>92.0</ele><time>2026-04-04T10:19:47.999Z</time></trkpt><trkpt lat="43.45564188304501" lon="10.766812608040457"><ele>92.0</ele><time>2026-04-04T10:19:48.999Z</time></trkpt><trkpt lat="43.455448734480505" lon="10.7670325470901"><ele>93.0</ele><time>2026-04-04T10:19:49.999Z</time></trkpt><trkpt lat="43.455274388030894" lon="10.767227939100586"><ele>94.0</ele><time>2026-04-04T10:19:50.999Z</time></trkpt><trkpt lat="43.45510561171833" lon="10.767417111637432"><ele>95.0</ele><time>2026-04-04T10:19:51.999Z</time></trkpt><trkpt lat="43.45494450399937" lon="10.767606255395929"><ele>95.33333333333334</ele><time>2026-04-04T10:19:52.999Z</time></trkpt><trkpt lat="43.45477566558103" lon="10.767796907347552"><ele>95.66666666666667</ele><time>2026-04-04T10:19:53.999Z</time></trkpt><trkpt lat="43.45460387481657" lon="10.76797449463711"><ele>96.0</ele><time>2026-04-04T10:19:54.999Z</time></trkpt><trkpt lat="43.45442602324726" lon="10.768126176644856"><ele>96.0</ele><time>2026-04-04T10:19:55.999Z</time></trkpt><trkpt lat="43.45422231790065" lon="10.768202380217927"><ele>96.0</ele><time>2026-04-04T10:19:56.999Z</time></trkpt><trkpt lat="43.45401079221939" lon="10.76832039011478"><ele>96.0</ele><time>2026-04-04T10:19:57.999Z</time></trkpt><trkpt lat="43.45378985303935" lon="10.76844215516183"><ele>96.5</ele><time>2026-04-04T10:19:58.999Z</time></trkpt><trkpt lat="43.45355370487534" lon="10.768574331033298"><ele>97.0</ele><time>2026-04-04T10:19:59.999Z</time></trkpt><trkpt lat="43.453316025150315" lon="10.768707364141868"><ele>97.0</ele><time>2026-04-04T10:20:00.999Z</time></trkpt><trkpt lat="43.45305163316408" lon="10.76885527495565"><ele>97.0</ele><time>2026-04-04T10:20:01.999Z</time></trkpt><trkpt lat="43.452783850110734" lon="10.769004868380707"><ele>98.0</ele><time>2026-04-04T10:20:02.999Z</time></trkpt><trkpt lat="43.452509968106284" lon="10.76915787263125"><ele>99.0</ele><time>2026-04-04T10:20:03.999Z</time></trkpt><trkpt lat="43.4522397159307" lon="10.769308849078156"><ele>99.0</ele><time>2026-04-04T10:20:04.999Z</time></trkpt><trkpt lat="43.45199600506238" lon="10.76944487226072"><ele>99.0</ele><time>2026-04-04T10:20:05.999Z</time></trkpt><trkpt lat="43.45176740554236" lon="10.769572409888"><ele>99.0</ele><time>2026-04-04T10:20:06.999Z</time></trkpt><trkpt lat="43.45155134273021" lon="10.769693305529094"><ele>99.0</ele><time>2026-04-04T10:20:07.999Z</time></trkpt><trkpt lat="43.45134775837976" lon="10.769807949104708"><ele>99.66666666666666</ele><time>2026-04-04T10:20:08.999Z</time></trkpt><trkpt lat="43.451153371558775" lon="10.76991741331674"><ele>100.33333333333333</ele><time>2026-04-04T10:20:09.999Z</time></trkpt><trkpt lat="43.45097325530832" lon="10.770018841401473"><ele>101.0</ele><time>2026-04-04T10:20:10.999Z</time></trkpt><trkpt lat="43.45081582527454" lon="10.770107494297013"><ele>101.0</ele><time>2026-04-04T10:20:11.999Z</time></trkpt><trkpt lat="43.45066132787749" lon="10.770194495747607"><ele>101.0</ele><time>2026-04-04T10:20:12.999Z</time></trkpt><trkpt lat="43.45051194813519" lon="10.770278615316203"><ele>101.0</ele><time>2026-04-04T10:20:13.999Z</time></trkpt><trkpt lat="43.450369506407675" lon="10.77035882790996"><ele>101.0</ele><time>2026-04-04T10:20:14.999Z</time></trkpt><trkpt lat="43.450237993113895" lon="10.770432886421968"><ele>101.0</ele><time>2026-04-04T10:20:15.999Z</time></trkpt><trkpt lat="43.45012545130561" lon="10.770522166227126"><ele>101.0</ele><time>2026-04-04T10:20:16.999Z</time></trkpt><trkpt lat="43.450016931432394" lon="10.770603600706657"><ele>101.0</ele><time>2026-04-04T10:20:17.999Z</time></trkpt><trkpt lat="43.44993218235117" lon="10.770741925041893"><ele>101.0</ele><time>2026-04-04T10:20:18.999Z</time></trkpt><trkpt lat="43.44988877291657" lon="10.770914327957547"><ele>101.0</ele><time>2026-04-04T10:20:19.999Z</time></trkpt><trkpt lat="43.449880706780476" lon="10.77111652494783"><ele>101.0</ele><time>2026-04-04T10:20:20.999Z</time></trkpt><trkpt lat="43.44991562255896" lon="10.771344597424813"><ele>101.0</ele><time>2026-04-04T10:20:21.999Z</time></trkpt><trkpt lat="43.449946971321324" lon="10.7715570696512"><ele>100.6</ele><time>2026-04-04T10:20:22.999Z</time></trkpt><trkpt lat="43.44994065062862" lon="10.77173711099174"><ele>100.19999999999999</ele><time>2026-04-04T10:20:23.999Z</time></trkpt><trkpt lat="43.44994124882392" lon="10.771884717425007"><ele>99.80000000000001</ele><time>2026-04-04T10:20:24.999Z</time></trkpt><trkpt lat="43.449934395059984" lon="10.772018987291515"><ele>99.4</ele><time>2026-04-04T10:20:25.999Z</time></trkpt><trkpt lat="43.449901757420406" lon="10.772128514792186"><ele>99.0</ele><time>2026-04-04T10:20:26.999Z</time></trkpt><trkpt lat="43.44984204591883" lon="10.77223500768422"><ele>98.75</ele><time>2026-04-04T10:20:27.999Z</time></trkpt><trkpt lat="43.449754047374796" lon="10.772301798463221"><ele>98.5</ele><time>2026-04-04T10:20:28.999Z</time></trkpt><trkpt lat="43.44963376443211" lon="10.772299315903659"><ele>98.25</ele><time>2026-04-04T10:20:29.999Z</time></trkpt><trkpt lat="43.4494787700769" lon="10.772278451407516"><ele>98.0</ele><time>2026-04-04T10:20:30.999Z</time></trkpt><trkpt lat="43.44930164165272" lon="10.772246293734183"><ele>99.33333333333333</ele><time>2026-04-04T10:20:31.999Z</time></trkpt><trkpt lat="43.44909910303536" lon="10.772209373996168"><ele>100.66666666666666</ele><time>2026-04-04T10:20:32.999Z</time></trkpt><trkpt lat="43.448893195025335" lon="10.77217418699823"><ele>102.0</ele><time>2026-04-04T10:20:33.999Z</time></trkpt><trkpt lat="43.44868638831068" lon="10.772170546219487"><ele>104.33333333333334</ele><time>2026-04-04T10:20:35Z</time></trkpt><trkpt lat="43.44850135322774" lon="10.772170245160112"><ele>106.66666666666667</ele><time>2026-04-04T10:20:36Z</time></trkpt><trkpt lat="43.4483074483211" lon="10.772200416107884"><ele>109.0</ele><time>2026-04-04T10:20:37Z</time></trkpt><trkpt lat="43.448098344232655" lon="10.772217815779292"><ele>109.0</ele><time>2026-04-04T10:20:38Z</time></trkpt><trkpt lat="43.44786115348526" lon="10.772256300683395"><ele>109.0</ele><time>2026-04-04T10:20:39Z</time></trkpt><trkpt lat="43.44763019694899" lon="10.772293774072553"><ele>109.0</ele><time>2026-04-04T10:20:40Z</time></trkpt><trkpt lat="43.44738633611479" lon="10.772333199453263"><ele>109.0</ele><time>2026-04-04T10:20:41Z</time></trkpt><trkpt lat="43.44712787966018" lon="10.772374972527853"><ele>108.5</ele><time>2026-04-04T10:20:42Z</time></trkpt><trkpt lat="43.44687199475545" lon="10.77241632997557"><ele>108.0</ele><time>2026-04-04T10:20:43Z</time></trkpt><trkpt lat="43.44661328327672" lon="10.77245940864416"><ele>108.0</ele><time>2026-04-04T10:20:44Z</time></trkpt><trkpt lat="43.44635980328471" lon="10.77250280377073"><ele>108.0</ele><time>2026-04-04T10:20:45Z</time></trkpt><trkpt lat="43.44609599077557" lon="10.772536123510108"><ele>108.5</ele><time>2026-04-04T10:20:46Z</time></trkpt><trkpt lat="43.445828214776206" lon="10.772561997592275"><ele>109.0</ele><time>2026-04-04T10:20:47Z</time></trkpt><trkpt lat="43.44554975914322" lon="10.772582748405657"><ele>110.0</ele><time>2026-04-04T10:20:48Z</time></trkpt><trkpt lat="43.445280373340424" lon="10.772601560091779"><ele>111.0</ele><time>2026-04-04T10:20:49Z</time></trkpt><trkpt lat="43.44503297605675" lon="10.772618834679703"><ele>111.0</ele><time>2026-04-04T10:20:50Z</time></trkpt><trkpt lat="43.44480026155859" lon="10.772635208564463"><ele>111.0</ele><time>2026-04-04T10:20:51Z</time></trkpt><trkpt lat="43.44458100761983" lon="10.772650689758438"><ele>111.0</ele><time>2026-04-04T10:20:52Z</time></trkpt><trkpt lat="43.444368316072676" lon="10.772665681366528"><ele>111.0</ele><time>2026-04-04T10:20:53Z</time></trkpt><trkpt lat="43.444170163914535" lon="10.772679648161496"><ele>111.0</ele><time>2026-04-04T10:20:54Z</time></trkpt><trkpt lat="43.443972107178325" lon="10.772693608228236"><ele>111.33333333333334</ele><time>2026-04-04T10:20:55Z</time></trkpt><trkpt lat="43.44376852508513" lon="10.77274650686523"><ele>111.66666666666667</ele><time>2026-04-04T10:20:56Z</time></trkpt><trkpt lat="43.44356345114375" lon="10.772747456884058"><ele>112.0</ele><time>2026-04-04T10:20:57Z</time></trkpt><trkpt lat="43.44335226473399" lon="10.772708589151843"><ele>113.0</ele><time>2026-04-04T10:20:58Z</time></trkpt><trkpt lat="43.44312883531902" lon="10.772633172766811"><ele>114.0</ele><time>2026-04-04T10:20:59Z</time></trkpt><trkpt lat="43.44291009214916" lon="10.772464949424199"><ele>114.5</ele><time>2026-04-04T10:21:00Z</time></trkpt><trkpt lat="43.442660104464636" lon="10.772360254794002"><ele>115.0</ele><time>2026-04-04T10:21:01Z</time></trkpt><trkpt lat="43.44240551025156" lon="10.772253960215151"><ele>115.0</ele><time>2026-04-04T10:21:02Z</time></trkpt><trkpt lat="43.44214732122623" lon="10.772146641788432"><ele>115.0</ele><time>2026-04-04T10:21:03Z</time></trkpt><trkpt lat="43.44188688209552" lon="10.772038388132442"><ele>114.0</ele><time>2026-04-04T10:21:04Z</time></trkpt><trkpt lat="43.44162480735467" lon="10.771929454583455"><ele>113.0</ele><time>2026-04-04T10:21:05Z</time></trkpt><trkpt lat="43.44136875367573" lon="10.771822989681425"><ele>115.5</ele><time>2026-04-04T10:21:06Z</time></trkpt><trkpt lat="43.44111800107541" lon="10.771718593857551"><ele>118.0</ele><time>2026-04-04T10:21:07Z</time></trkpt><trkpt lat="43.4408795053893" lon="10.771619907015442"><ele>118.0</ele><time>2026-04-04T10:21:08Z</time></trkpt><trkpt lat="43.440652786404044" lon="10.771527488937327"><ele>118.0</ele><time>2026-04-04T10:21:09Z</time></trkpt><trkpt lat="43.440446576486856" lon="10.771418136288005"><ele>118.5</ele><time>2026-04-04T10:21:10Z</time></trkpt><trkpt lat="43.44026110388185" lon="10.771231825980536"><ele>119.0</ele><time>2026-04-04T10:21:11Z</time></trkpt><trkpt lat="43.44007843451504" lon="10.770989072097983"><ele>119.0</ele><time>2026-04-04T10:21:12Z</time></trkpt><trkpt lat="43.43988446598684" lon="10.77072554210155"><ele>119.0</ele><time>2026-04-04T10:21:13Z</time></trkpt><trkpt lat="43.439680946509746" lon="10.770476998482213"><ele>120.0</ele><time>2026-04-04T10:21:14Z</time></trkpt><trkpt lat="43.43948407675847" lon="10.770214582770391"><ele>121.0</ele><time>2026-04-04T10:21:15Z</time></trkpt><trkpt lat="43.439290039856715" lon="10.769958084685706"><ele>121.0</ele><time>2026-04-04T10:21:16Z</time></trkpt><trkpt lat="43.439090024558986" lon="10.769690266516314"><ele>121.0</ele><time>2026-04-04T10:21:17Z</time></trkpt><trkpt lat="43.438889204401114" lon="10.769423464857496"><ele>122.0</ele><time>2026-04-04T10:21:18Z</time></trkpt><trkpt lat="43.438692617653864" lon="10.76912945268182"><ele>123.0</ele><time>2026-04-04T10:21:19Z</time></trkpt><trkpt lat="43.438459526935006" lon="10.768849447691109"><ele>123.0</ele><time>2026-04-04T10:21:20Z</time></trkpt><trkpt lat="43.43824459650698" lon="10.76852944433512"><ele>123.0</ele><time>2026-04-04T10:21:21Z</time></trkpt><trkpt lat="43.43802047302937" lon="10.768228980900586"><ele>123.5</ele><time>2026-04-04T10:21:22Z</time></trkpt><trkpt lat="43.43779980803987" lon="10.767935835113468"><ele>124.0</ele><time>2026-04-04T10:21:23Z</time></trkpt><trkpt lat="43.43759611893219" lon="10.767664401568934"><ele>124.0</ele><time>2026-04-04T10:21:24Z</time></trkpt><trkpt lat="43.43740205689789" lon="10.767405098690142"><ele>124.0</ele><time>2026-04-04T10:21:25Z</time></trkpt><trkpt lat="43.437216510956766" lon="10.767156050843587"><ele>125.0</ele><time>2026-04-04T10:21:26Z</time></trkpt><trkpt lat="43.43703108762163" lon="10.766895226499964"><ele>126.0</ele><time>2026-04-04T10:21:27Z</time></trkpt><trkpt lat="43.4368607504288" lon="10.766595898500409"><ele>126.0</ele><time>2026-04-04T10:21:28Z</time></trkpt><trkpt lat="43.43670456497083" lon="10.766265328643499"><ele>126.0</ele><time>2026-04-04T10:21:28.999Z</time></trkpt><trkpt lat="43.43654253552856" lon="10.76592877739297"><ele>125.5</ele><time>2026-04-04T10:21:29.999Z</time></trkpt><trkpt lat="43.43644200095853" lon="10.765526647386816"><ele>125.0</ele><time>2026-04-04T10:21:30.999Z</time></trkpt><trkpt lat="43.43630444350363" lon="10.76516077888069"><ele>129.0</ele><time>2026-04-04T10:21:31.999Z</time></trkpt><trkpt lat="43.43616545822416" lon="10.764811384063426"><ele>133.0</ele><time>2026-04-04T10:21:32.999Z</time></trkpt><trkpt lat="43.43603467180804" lon="10.764479556776198"><ele>132.0</ele><time>2026-04-04T10:21:33.999Z</time></trkpt><trkpt lat="43.43590836244893" lon="10.764133640071742"><ele>131.0</ele><time>2026-04-04T10:21:34.999Z</time></trkpt><trkpt lat="43.43576792963106" lon="10.763772653068754"><ele>130.0</ele><time>2026-04-04T10:21:35.999Z</time></trkpt><trkpt lat="43.43562513727466" lon="10.763412481227443"><ele>129.0</ele><time>2026-04-04T10:21:36.999Z</time></trkpt><trkpt lat="43.43548592013474" lon="10.763052103739238"><ele>131.0</ele><time>2026-04-04T10:21:37.999Z</time></trkpt><trkpt lat="43.435345996276816" lon="10.762694599463469"><ele>133.0</ele><time>2026-04-04T10:21:38.999Z</time></trkpt><trkpt lat="43.43520863628652" lon="10.762332637371685"><ele>133.0</ele><time>2026-04-04T10:21:39.999Z</time></trkpt><trkpt lat="43.435081257688566" lon="10.761990234774352"><ele>133.0</ele><time>2026-04-04T10:21:40.999Z</time></trkpt><trkpt lat="43.434965407511406" lon="10.76167675406352"><ele>132.66666666666669</ele><time>2026-04-04T10:21:41.999Z</time></trkpt><trkpt lat="43.434857770692936" lon="10.76139466594004"><ele>132.33333333333334</ele><time>2026-04-04T10:21:42.999Z</time></trkpt><trkpt lat="43.434754270091595" lon="10.761136308077345"><ele>132.0</ele><time>2026-04-04T10:21:43.999Z</time></trkpt><trkpt lat="43.43465185027394" lon="10.760909017961733"><ele>133.66666666666666</ele><time>2026-04-04T10:21:44.999Z</time></trkpt><trkpt lat="43.434516423945276" lon="10.760685803464236"><ele>135.33333333333331</ele><time>2026-04-04T10:21:45.999Z</time></trkpt><trkpt lat="43.43434328859279" lon="10.76047267150395"><ele>137.0</ele><time>2026-04-04T10:21:46.999Z</time></trkpt><trkpt lat="43.43416853701008" lon="10.760281868875575"><ele>136.0</ele><time>2026-04-04T10:21:47.999Z</time></trkpt><trkpt lat="43.4340121321392" lon="10.760103658280999"><ele>135.0</ele><time>2026-04-04T10:21:48.999Z</time></trkpt><trkpt lat="43.43387616098148" lon="10.759943379720502"><ele>134.0</ele><time>2026-04-04T10:21:49.999Z</time></trkpt><trkpt lat="43.43375599371531" lon="10.759796558703128"><ele>136.0</ele><time>2026-04-04T10:21:50.999Z</time></trkpt><trkpt lat="43.433620058016466" lon="10.75966615807234"><ele>138.0</ele><time>2026-04-04T10:21:51.999Z</time></trkpt><trkpt lat="43.433440533064704" lon="10.759568418503349"><ele>140.0</ele><time>2026-04-04T10:21:52.999Z</time></trkpt><trkpt lat="43.433220482075455" lon="10.759493178046766"><ele>140.0</ele><time>2026-04-04T10:21:53.999Z</time></trkpt><trkpt lat="43.432985082510505" lon="10.759425708981148"><ele>140.0</ele><time>2026-04-04T10:21:54.999Z</time></trkpt><trkpt lat="43.43276349231253" lon="10.759361222872384"><ele>139.33333333333331</ele><time>2026-04-04T10:21:55.999Z</time></trkpt><trkpt lat="43.432564160033934" lon="10.759314870071162"><ele>138.66666666666666</ele><time>2026-04-04T10:21:56.999Z</time></trkpt><trkpt lat="43.43237673590297" lon="10.759289107169714"><ele>138.0</ele><time>2026-04-04T10:21:57.999Z</time></trkpt><trkpt lat="43.43218201356179" lon="10.759285072873956"><ele>139.66666666666666</ele><time>2026-04-04T10:21:58.999Z</time></trkpt><trkpt lat="43.43198259386671" lon="10.759308151583497"><ele>141.33333333333331</ele><time>2026-04-04T10:21:59.999Z</time></trkpt><trkpt lat="43.43176254039859" lon="10.759380842764665"><ele>143.0</ele><time>2026-04-04T10:22:00.999Z</time></trkpt><trkpt lat="43.4315235980129" lon="10.759470616989114"><ele>146.0</ele><time>2026-04-04T10:22:01.999Z</time></trkpt><trkpt lat="43.43127328653383" lon="10.759552922537184"><ele>149.0</ele><time>2026-04-04T10:22:02.999Z</time></trkpt><trkpt lat="43.43104020793719" lon="10.75962536186611"><ele>149.0</ele><time>2026-04-04T10:22:03.999Z</time></trkpt><trkpt lat="43.43082874511665" lon="10.75968921900946"><ele>149.0</ele><time>2026-04-04T10:22:04.999Z</time></trkpt><trkpt lat="43.430627686712725" lon="10.759754054360325"><ele>149.0</ele><time>2026-04-04T10:22:05.999Z</time></trkpt><trkpt lat="43.430431277635165" lon="10.759809880982495"><ele>148.33333333333331</ele><time>2026-04-04T10:22:06.999Z</time></trkpt><trkpt lat="43.430228023167345" lon="10.759815838886318"><ele>147.66666666666666</ele><time>2026-04-04T10:22:07.999Z</time></trkpt><trkpt lat="43.430021963717785" lon="10.759757757021966"><ele>147.0</ele><time>2026-04-04T10:22:08.999Z</time></trkpt><trkpt lat="43.429835942916895" lon="10.759663512122518"><ele>147.0</ele><time>2026-04-04T10:22:09.999Z</time></trkpt><trkpt lat="43.42966001325882" lon="10.759576211124989"><ele>147.0</ele><time>2026-04-04T10:22:10.999Z</time></trkpt><trkpt lat="43.429495815822825" lon="10.759507319176434"><ele>147.0</ele><time>2026-04-04T10:22:11.999Z</time></trkpt><trkpt lat="43.42934535197909" lon="10.759476369554578"><ele>148.66666666666666</ele><time>2026-04-04T10:22:12.999Z</time></trkpt><trkpt lat="43.429203391899506" lon="10.759500192257049"><ele>150.33333333333331</ele><time>2026-04-04T10:22:13.999Z</time></trkpt><trkpt lat="43.429054760031605" lon="10.7595880407864"><ele>152.0</ele><time>2026-04-04T10:22:14.999Z</time></trkpt><trkpt lat="43.42890967036486" lon="10.759730475020776"><ele>154.0</ele><time>2026-04-04T10:22:15.999Z</time></trkpt><trkpt lat="43.42877610662181" lon="10.759908469795912"><ele>156.0</ele><time>2026-04-04T10:22:16.999Z</time></trkpt><trkpt lat="43.428661626463466" lon="10.760080122659444"><ele>158.0</ele><time>2026-04-04T10:22:17.999Z</time></trkpt><trkpt lat="43.42854772854231" lon="10.760209826152655"><ele>158.0</ele><time>2026-04-04T10:22:18.999Z</time></trkpt><trkpt lat="43.4284211826173" lon="10.760289592516349"><ele>158.0</ele><time>2026-04-04T10:22:19.999Z</time></trkpt><trkpt lat="43.42828874418728" lon="10.760320812384935"><ele>158.0</ele><time>2026-04-04T10:22:20.999Z</time></trkpt><trkpt lat="43.4281753457162" lon="10.760327088507342"><ele>158.0</ele><time>2026-04-04T10:22:21.999Z</time></trkpt><trkpt lat="43.42807677760771" lon="10.760353014042636"><ele>158.0</ele><time>2026-04-04T10:22:22.999Z</time></trkpt><trkpt lat="43.427980647269635" lon="10.760444571786696"><ele>158.0</ele><time>2026-04-04T10:22:23.999Z</time></trkpt><trkpt lat="43.42788880141184" lon="10.760604646518168"><ele>158.0</ele><time>2026-04-04T10:22:24.999Z</time></trkpt><trkpt lat="43.427829261874344" lon="10.760812989930143"><ele>158.0</ele><time>2026-04-04T10:22:25.999Z</time></trkpt><trkpt lat="43.427775834146345" lon="10.760993357884452"><ele>157.0</ele><time>2026-04-04T10:22:26.999Z</time></trkpt><trkpt lat="43.427714938632974" lon="10.7611450023929"><ele>156.0</ele><time>2026-04-04T10:22:27.999Z</time></trkpt><trkpt lat="43.42765061646397" lon="10.761262881734242"><ele>155.0</ele><time>2026-04-04T10:22:28.999Z</time></trkpt><trkpt lat="43.42758787617442" lon="10.761367030589597"><ele>154.0</ele><time>2026-04-04T10:22:29.999Z</time></trkpt><trkpt lat="43.427533726180435" lon="10.761478559733229"><ele>153.0</ele><time>2026-04-04T10:22:30.999Z</time></trkpt><trkpt lat="43.42748834017635" lon="10.761597281177702"><ele>153.0</ele><time>2026-04-04T10:22:31.999Z</time></trkpt><trkpt lat="43.42745420945954" lon="10.761734535400043"><ele>153.0</ele><time>2026-04-04T10:22:32.999Z</time></trkpt><trkpt lat="43.42742973884219" lon="10.761900276697423"><ele>153.0</ele><time>2026-04-04T10:22:33.999Z</time></trkpt><trkpt lat="43.42742944909877" lon="10.762091525766582"><ele>153.0</ele><time>2026-04-04T10:22:34.999Z</time></trkpt><trkpt lat="43.427462521190066" lon="10.762275519136015"><ele>153.20000000000002</ele><time>2026-04-04T10:22:35.999Z</time></trkpt><trkpt lat="43.42749132091247" lon="10.762437044471094"><ele>153.4</ele><time>2026-04-04T10:22:36.999Z</time></trkpt><trkpt lat="43.427497362204775" lon="10.762581331415907"><ele>153.60000000000002</ele><time>2026-04-04T10:22:37.999Z</time></trkpt><trkpt lat="43.42747051878839" lon="10.76272350139233"><ele>153.8</ele><time>2026-04-04T10:22:38.999Z</time></trkpt><trkpt lat="43.427370392367806" lon="10.762804278978365"><ele>154.0</ele><time>2026-04-04T10:22:40Z</time></trkpt><trkpt lat="43.427266296614526" lon="10.762877823499418"><ele>151.75</ele><time>2026-04-04T10:22:41Z</time></trkpt><trkpt lat="43.42712604091332" lon="10.762952654869391"><ele>149.5</ele><time>2026-04-04T10:22:42Z</time></trkpt><trkpt lat="43.426994526537435" lon="10.763035915532855"><ele>147.25</ele><time>2026-04-04T10:22:43Z</time></trkpt><trkpt lat="43.42688377279143" lon="10.763092495632831"><ele>145.0</ele><time>2026-04-04T10:22:44Z</time></trkpt><trkpt lat="43.42679310071676" lon="10.763158040997853"><ele>145.0</ele><time>2026-04-04T10:22:45Z</time></trkpt><trkpt lat="43.42671291762444" lon="10.763251846613647"><ele>145.0</ele><time>2026-04-04T10:22:46Z</time></trkpt><trkpt lat="43.426647252267145" lon="10.763378042601525"><ele>145.0</ele><time>2026-04-04T10:22:47Z</time></trkpt><trkpt lat="43.42660445686963" lon="10.763558315870684"><ele>145.0</ele><time>2026-04-04T10:22:48Z</time></trkpt><trkpt lat="43.42658356807869" lon="10.763763160674356"><ele>145.75</ele><time>2026-04-04T10:22:49Z</time></trkpt><trkpt lat="43.42656113003549" lon="10.763932234305006"><ele>146.5</ele><time>2026-04-04T10:22:50Z</time></trkpt><trkpt lat="43.426531413007275" lon="10.764092582265242"><ele>147.25</ele><time>2026-04-04T10:22:51Z</time></trkpt><trkpt lat="43.42642427457873" lon="10.764179740669313"><ele>148.0</ele><time>2026-04-04T10:22:52Z</time></trkpt><trkpt lat="43.42630903251795" lon="10.764229395200328"><ele>145.0</ele><time>2026-04-04T10:22:53Z</time></trkpt><trkpt lat="43.4262101768539" lon="10.76432601724548"><ele>142.0</ele><time>2026-04-04T10:22:54Z</time></trkpt><trkpt lat="43.42613902064082" lon="10.764444028835713"><ele>139.0</ele><time>2026-04-04T10:22:55Z</time></trkpt><trkpt lat="43.42607799370225" lon="10.7646217732664"><ele>136.0</ele><time>2026-04-04T10:22:56Z</time></trkpt><trkpt lat="43.42605799298303" lon="10.76481998611404"><ele>136.0</ele><time>2026-04-04T10:22:57Z</time></trkpt><trkpt lat="43.42608432359099" lon="10.765029143618207"><ele>136.0</ele><time>2026-04-04T10:22:58Z</time></trkpt><trkpt lat="43.426120866092354" lon="10.765210988897868"><ele>136.0</ele><time>2026-04-04T10:22:59Z</time></trkpt><trkpt lat="43.42608493573994" lon="10.765378114942038"><ele>136.0</ele><time>2026-04-04T10:23:00Z</time></trkpt><trkpt lat="43.42601149662582" lon="10.765533946928032"><ele>136.0</ele><time>2026-04-04T10:23:01Z</time></trkpt><trkpt lat="43.42590050361081" lon="10.765665668759848"><ele>136.0</ele><time>2026-04-04T10:23:02Z</time></trkpt><trkpt lat="43.425771517736855" lon="10.765817260253721"><ele>136.0</ele><time>2026-04-04T10:23:03Z</time></trkpt><trkpt lat="43.42565539916829" lon="10.766011344268613"><ele>137.66666666666669</ele><time>2026-04-04T10:23:04Z</time></trkpt><trkpt lat="43.425548642314034" lon="10.76622850629869"><ele>139.33333333333334</ele><time>2026-04-04T10:23:05Z</time></trkpt><trkpt lat="43.42546220014285" lon="10.766480432405812"><ele>141.0</ele><time>2026-04-04T10:23:06Z</time></trkpt><trkpt lat="43.425368759235866" lon="10.76675818804955"><ele>137.0</ele><time>2026-04-04T10:23:07Z</time></trkpt><trkpt lat="43.425274764126186" lon="10.767019448382152"><ele>133.0</ele><time>2026-04-04T10:23:08Z</time></trkpt><trkpt lat="43.42516721594715" lon="10.767250057376511"><ele>129.0</ele><time>2026-04-04T10:23:09Z</time></trkpt><trkpt lat="43.425076753390655" lon="10.767482281232159"><ele>127.66666666666666</ele><time>2026-04-04T10:23:10Z</time></trkpt><trkpt lat="43.4249786449773" lon="10.767698830743555"><ele>126.33333333333333</ele><time>2026-04-04T10:23:11Z</time></trkpt><trkpt lat="43.424851454765424" lon="10.767876492461305"><ele>125.0</ele><time>2026-04-04T10:23:12Z</time></trkpt><trkpt lat="43.42468880655075" lon="10.768030019729693"><ele>125.0</ele><time>2026-04-04T10:23:13Z</time></trkpt><trkpt lat="43.424526128795385" lon="10.768201823752158"><ele>125.0</ele><time>2026-04-04T10:23:14Z</time></trkpt><trkpt lat="43.42439719785077" lon="10.768393421257827"><ele>125.0</ele><time>2026-04-04T10:23:15Z</time></trkpt><trkpt lat="43.4242763009923" lon="10.768565128641663"><ele>124.0</ele><time>2026-04-04T10:23:16Z</time></trkpt><trkpt lat="43.42417124648695" lon="10.768722755107994"><ele>123.0</ele><time>2026-04-04T10:23:17Z</time></trkpt><trkpt lat="43.42408332712787" lon="10.76884311651353"><ele>122.0</ele><time>2026-04-04T10:23:18Z</time></trkpt><trkpt lat="43.42400363340188" lon="10.768942061650494"><ele>121.0</ele><time>2026-04-04T10:23:19Z</time></trkpt><trkpt lat="43.42393843211772" lon="10.769036507625906"><ele>121.0</ele><time>2026-04-04T10:23:20Z</time></trkpt><trkpt lat="43.42388869687509" lon="10.769136438303857"><ele>121.0</ele><time>2026-04-04T10:23:21Z</time></trkpt><trkpt lat="43.42386828728746" lon="10.769269394453524"><ele>121.0</ele><time>2026-04-04T10:23:22Z</time></trkpt><trkpt lat="43.4238907893975" lon="10.76942763613453"><ele>121.0</ele><time>2026-04-04T10:23:23Z</time></trkpt><trkpt lat="43.4239619657712" lon="10.769595493371002"><ele>121.0</ele><time>2026-04-04T10:23:24Z</time></trkpt><trkpt lat="43.42407408843587" lon="10.769761531329578"><ele>121.66666666666667</ele><time>2026-04-04T10:23:25Z</time></trkpt><trkpt lat="43.42417758475276" lon="10.769944136172201"><ele>122.33333333333334</ele><time>2026-04-04T10:23:26Z</time></trkpt><trkpt lat="43.42425178551009" lon="10.770118099127437"><ele>123.0</ele><time>2026-04-04T10:23:27Z</time></trkpt><trkpt lat="43.42428351838779" lon="10.770302630593248"><ele>124.0</ele><time>2026-04-04T10:23:27.999Z</time></trkpt><trkpt lat="43.42430305630523" lon="10.770478586097008"><ele>125.0</ele><time>2026-04-04T10:23:28.999Z</time></trkpt><trkpt lat="43.424265818136966" lon="10.770651846877847"><ele>126.0</ele><time>2026-04-04T10:23:29.999Z</time></trkpt><trkpt lat="43.42418548613904" lon="10.770812003226723"><ele>127.0</ele><time>2026-04-04T10:23:30.999Z</time></trkpt><trkpt lat="43.42408289327071" lon="10.770987479358382"><ele>126.33333333333334</ele><time>2026-04-04T10:23:31.999Z</time></trkpt><trkpt lat="43.423970937223174" lon="10.771172086022943"><ele>125.66666666666666</ele><time>2026-04-04T10:23:32.999Z</time></trkpt><trkpt lat="43.42387067609335" lon="10.771336908459478"><ele>125.0</ele><time>2026-04-04T10:23:33.999Z</time></trkpt><trkpt lat="43.4237799963594" lon="10.771481365014434"><ele>126.0</ele><time>2026-04-04T10:23:34.999Z</time></trkpt><trkpt lat="43.423690906001" lon="10.771587420237225"><ele>127.0</ele><time>2026-04-04T10:23:35.999Z</time></trkpt><trkpt lat="43.42362170647155" lon="10.771649215633792"><ele>128.0</ele><time>2026-04-04T10:23:36.999Z</time></trkpt><trkpt lat="43.42353072136102" lon="10.771720600566756"><ele>129.0</ele><time>2026-04-04T10:23:38.999Z</time></trkpt><trkpt lat="43.42345040290941" lon="10.771775919242033"><ele>130.0</ele><time>2026-04-04T10:23:40.999Z</time></trkpt><trkpt lat="43.42338979883377" lon="10.771826274411433"><ele>128.8</ele><time>2026-04-04T10:23:42.999Z</time></trkpt><trkpt lat="43.42334693266065" lon="10.77190137369248"><ele>127.6</ele><time>2026-04-04T10:23:47.999Z</time></trkpt><trkpt lat="43.423294452393215" lon="10.77196770271205"><ele>126.4</ele><time>2026-04-04T10:23:49.999Z</time></trkpt><trkpt lat="43.42324719618192" lon="10.772065891371504"><ele>125.2</ele><time>2026-04-04T10:23:50.999Z</time></trkpt><trkpt lat="43.423216160130714" lon="10.772209387421725"><ele>124.0</ele><time>2026-04-04T10:23:51.999Z</time></trkpt><trkpt lat="43.4232293303633" lon="10.772367100795393"><ele>124.0</ele><time>2026-04-04T10:23:52.999Z</time></trkpt><trkpt lat="43.423272303279575" lon="10.772526556228238"><ele>124.0</ele><time>2026-04-04T10:23:53.999Z</time></trkpt><trkpt lat="43.423302446113844" lon="10.772659952985718"><ele>124.0</ele><time>2026-04-04T10:23:54.999Z</time></trkpt><trkpt lat="43.423271723400845" lon="10.772795381487628"><ele>124.0</ele><time>2026-04-04T10:23:55.999Z</time></trkpt><trkpt lat="43.423215214632826" lon="10.772930686105537"><ele>124.0</ele><time>2026-04-04T10:23:56.999Z</time></trkpt><trkpt lat="43.423121019846775" lon="10.773045815555474"><ele>124.0</ele><time>2026-04-04T10:23:57.999Z</time></trkpt><trkpt lat="43.42300680085666" lon="10.773181809238448"><ele>124.0</ele><time>2026-04-04T10:23:58.999Z</time></trkpt><trkpt lat="43.422878694735715" lon="10.773327330041942"><ele>124.0</ele><time>2026-04-04T10:23:59.999Z</time></trkpt><trkpt lat="43.42274096951382" lon="10.773482398493453"><ele>124.66666666666667</ele><time>2026-04-04T10:24:00.999Z</time></trkpt><trkpt lat="43.42260314914302" lon="10.773637902482339"><ele>125.33333333333334</ele><time>2026-04-04T10:24:01.999Z</time></trkpt><trkpt lat="43.422467177425055" lon="10.77379186938273"><ele>126.0</ele><time>2026-04-04T10:24:02.999Z</time></trkpt><trkpt lat="43.422340374192665" lon="10.773921536326709"><ele>126.0</ele><time>2026-04-04T10:24:03.999Z</time></trkpt><trkpt lat="43.42220653983859" lon="10.77402636790819"><ele>126.0</ele><time>2026-04-04T10:24:04.999Z</time></trkpt><trkpt lat="43.42205737589876" lon="10.774063965602366"><ele>126.0</ele><time>2026-04-04T10:24:05.999Z</time></trkpt><trkpt lat="43.42188063318891" lon="10.774034773530927"><ele>127.0</ele><time>2026-04-04T10:24:06.999Z</time></trkpt><trkpt lat="43.42167107952854" lon="10.773995496259118"><ele>128.0</ele><time>2026-04-04T10:24:07.999Z</time></trkpt><trkpt lat="43.421453419947504" lon="10.773960205438936"><ele>129.0</ele><time>2026-04-04T10:24:08.999Z</time></trkpt><trkpt lat="43.42123279916134" lon="10.77392642235698"><ele>130.0</ele><time>2026-04-04T10:24:09.999Z</time></trkpt><trkpt lat="43.42100014286372" lon="10.77388639185897"><ele>131.0</ele><time>2026-04-04T10:24:10.999Z</time></trkpt><trkpt lat="43.42075736356407" lon="10.773828540471639"><ele>131.0</ele><time>2026-04-04T10:24:11.999Z</time></trkpt><trkpt lat="43.4205154700442" lon="10.773757513392674"><ele>131.0</ele><time>2026-04-04T10:24:12.999Z</time></trkpt><trkpt lat="43.42026922502452" lon="10.773685658822496"><ele>130.0</ele><time>2026-04-04T10:24:13.999Z</time></trkpt><trkpt lat="43.42001663772928" lon="10.773608528301217"><ele>129.0</ele><time>2026-04-04T10:24:14.999Z</time></trkpt><trkpt lat="43.419763586373236" lon="10.773530956249356"><ele>128.5</ele><time>2026-04-04T10:24:15.999Z</time></trkpt><trkpt lat="43.419504757024264" lon="10.773450291386009"><ele>128.0</ele><time>2026-04-04T10:24:16.999Z</time></trkpt><trkpt lat="43.41924791084445" lon="10.773370244583369"><ele>128.0</ele><time>2026-04-04T10:24:17.999Z</time></trkpt><trkpt lat="43.418995050471565" lon="10.773295121846528"><ele>128.0</ele><time>2026-04-04T10:24:18.999Z</time></trkpt><trkpt lat="43.41873818983643" lon="10.773217174145374"><ele>129.0</ele><time>2026-04-04T10:24:19.999Z</time></trkpt><trkpt lat="43.41848152901489" lon="10.773139094039758"><ele>130.0</ele><time>2026-04-04T10:24:20.999Z</time></trkpt><trkpt lat="43.418231912172985" lon="10.77306464756985"><ele>130.0</ele><time>2026-04-04T10:24:21.999Z</time></trkpt><trkpt lat="43.417999193942045" lon="10.772991647640257"><ele>130.0</ele><time>2026-04-04T10:24:22.999Z</time></trkpt><trkpt lat="43.41777591972366" lon="10.772922393109509"><ele>130.33333333333334</ele><time>2026-04-04T10:24:23.999Z</time></trkpt><trkpt lat="43.41756100167727" lon="10.77285768099575"><ele>130.66666666666666</ele><time>2026-04-04T10:24:24.999Z</time></trkpt><trkpt lat="43.41735924298551" lon="10.772795596916483"><ele>131.0</ele><time>2026-04-04T10:24:25.999Z</time></trkpt><trkpt lat="43.417177086710424" lon="10.772762510199218"><ele>131.66666666666666</ele><time>2026-04-04T10:24:26.999Z</time></trkpt><trkpt lat="43.41700822972418" lon="10.772723325915644"><ele>132.33333333333334</ele><time>2026-04-04T10:24:27.999Z</time></trkpt><trkpt lat="43.41683724930302" lon="10.77273560918073"><ele>133.0</ele><time>2026-04-04T10:24:28.999Z</time></trkpt><trkpt lat="43.41666496480777" lon="10.772818882242648"><ele>133.0</ele><time>2026-04-04T10:24:29.999Z</time></trkpt><trkpt lat="43.41651226417405" lon="10.772971581449006"><ele>133.0</ele><time>2026-04-04T10:24:30.999Z</time></trkpt><trkpt lat="43.416402526790606" lon="10.77317758591017"><ele>133.0</ele><time>2026-04-04T10:24:31.999Z</time></trkpt><trkpt lat="43.41630392196877" lon="10.77337921021029"><ele>132.66666666666669</ele><time>2026-04-04T10:24:32.999Z</time></trkpt><trkpt lat="43.41620179877486" lon="10.773530624155907"><ele>132.33333333333334</ele><time>2026-04-04T10:24:33.999Z</time></trkpt><trkpt lat="43.4160615101666" lon="10.773658629229471"><ele>132.0</ele><time>2026-04-04T10:24:34.999Z</time></trkpt><trkpt lat="43.415874607642245" lon="10.773759509548773"><ele>132.0</ele><time>2026-04-04T10:24:35.999Z</time></trkpt><trkpt lat="43.41565689776636" lon="10.77385425480667"><ele>132.0</ele><time>2026-04-04T10:24:36.999Z</time></trkpt><trkpt lat="43.415435451735696" lon="10.773948592362453"><ele>133.33333333333334</ele><time>2026-04-04T10:24:37.999Z</time></trkpt><trkpt lat="43.41523188300376" lon="10.774035426153718"><ele>134.66666666666669</ele><time>2026-04-04T10:24:38.999Z</time></trkpt><trkpt lat="43.41505246718269" lon="10.774115427240275"><ele>136.0</ele><time>2026-04-04T10:24:39.999Z</time></trkpt><trkpt lat="43.41488563876341" lon="10.774191227912802"><ele>136.0</ele><time>2026-04-04T10:24:40.999Z</time></trkpt><trkpt lat="43.4147334761183" lon="10.774252478554937"><ele>136.0</ele><time>2026-04-04T10:24:41.999Z</time></trkpt><trkpt lat="43.41458894861525" lon="10.77425805629353"><ele>136.0</ele><time>2026-04-04T10:24:42.999Z</time></trkpt><trkpt lat="43.414434047159716" lon="10.774217201825474"><ele>136.33333333333334</ele><time>2026-04-04T10:24:43.999Z</time></trkpt><trkpt lat="43.41427921724124" lon="10.774103925257453"><ele>136.66666666666666</ele><time>2026-04-04T10:24:44.999Z</time></trkpt><trkpt lat="43.41409598764975" lon="10.77396459355023"><ele>137.0</ele><time>2026-04-04T10:24:46Z</time></trkpt><trkpt lat="43.41388992917245" lon="10.773815638190978"><ele>136.5</ele><time>2026-04-04T10:24:47Z</time></trkpt><trkpt lat="43.41368685769822" lon="10.773666871440893"><ele>136.0</ele><time>2026-04-04T10:24:48Z</time></trkpt><trkpt lat="43.413487582031" lon="10.773523140804462"><ele>137.0</ele><time>2026-04-04T10:24:49Z</time></trkpt><trkpt lat="43.4133060904177" lon="10.773393788742617"><ele>138.0</ele><time>2026-04-04T10:24:50Z</time></trkpt><trkpt lat="43.41312660034553" lon="10.773314658169795"><ele>139.0</ele><time>2026-04-04T10:24:51Z</time></trkpt><trkpt lat="43.41296215704213" lon="10.773237721445698"><ele>139.0</ele><time>2026-04-04T10:24:52Z</time></trkpt><trkpt lat="43.412823788498955" lon="10.773154097994862"><ele>139.0</ele><time>2026-04-04T10:24:53Z</time></trkpt><trkpt lat="43.41270760616504" lon="10.773101842545634"><ele>139.0</ele><time>2026-04-04T10:24:54Z</time></trkpt><trkpt lat="43.412571836990786" lon="10.773145088737445"><ele>139.0</ele><time>2026-04-04T10:24:55Z</time></trkpt><trkpt lat="43.41244123706642" lon="10.773216458000073"><ele>139.0</ele><time>2026-04-04T10:24:56Z</time></trkpt><trkpt lat="43.41232626353436" lon="10.773362356857723"><ele>139.0</ele><time>2026-04-04T10:24:57Z</time></trkpt><trkpt lat="43.412209308672615" lon="10.77351651798153"><ele>139.0</ele><time>2026-04-04T10:24:58Z</time></trkpt><trkpt lat="43.41206525584614" lon="10.773629104610082"><ele>138.33333333333334</ele><time>2026-04-04T10:24:59Z</time></trkpt><trkpt lat="43.41190182068781" lon="10.773704658928974"><ele>137.66666666666666</ele><time>2026-04-04T10:25:00Z</time></trkpt><trkpt lat="43.41175054653875" lon="10.773771002048667"><ele>137.0</ele><time>2026-04-04T10:25:01Z</time></trkpt><trkpt lat="43.41158849179855" lon="10.773802858380481"><ele>137.0</ele><time>2026-04-04T10:25:02Z</time></trkpt><trkpt lat="43.41141573301208" lon="10.773772567712765"><ele>137.0</ele><time>2026-04-04T10:25:03Z</time></trkpt><trkpt lat="43.41121872446489" lon="10.773691027466256"><ele>137.0</ele><time>2026-04-04T10:25:04Z</time></trkpt><trkpt lat="43.41100827802946" lon="10.773644556353158"><ele>137.66666666666666</ele><time>2026-04-04T10:25:05Z</time></trkpt><trkpt lat="43.410796727477695" lon="10.773662047222272"><ele>138.33333333333334</ele><time>2026-04-04T10:25:06Z</time></trkpt><trkpt lat="43.41060425588511" lon="10.773684144830941"><ele>139.0</ele><time>2026-04-04T10:25:07Z</time></trkpt><trkpt lat="43.41042797683882" lon="10.773662071323255"><ele>139.0</ele><time>2026-04-04T10:25:08Z</time></trkpt><trkpt lat="43.410268900244425" lon="10.773590904152249"><ele>139.0</ele><time>2026-04-04T10:25:09Z</time></trkpt><trkpt lat="43.41013822921325" lon="10.773505738362678"><ele>139.0</ele><time>2026-04-04T10:25:10Z</time></trkpt><trkpt lat="43.4100256027375" lon="10.773462037172544"><ele>139.0</ele><time>2026-04-04T10:25:11Z</time></trkpt><trkpt lat="43.40990809643438" lon="10.773491691283716"><ele>139.0</ele><time>2026-04-04T10:25:12Z</time></trkpt><trkpt lat="43.409796833442414" lon="10.773596953920418"><ele>139.0</ele><time>2026-04-04T10:25:13Z</time></trkpt><trkpt lat="43.40969934362071" lon="10.773737907435628"><ele>139.0</ele><time>2026-04-04T10:25:14Z</time></trkpt><trkpt lat="43.4096427262939" lon="10.773922927296285"><ele>139.0</ele><time>2026-04-04T10:25:15Z</time></trkpt><trkpt lat="43.40962593237761" lon="10.77413109103846"><ele>140.25</ele><time>2026-04-04T10:25:16Z</time></trkpt><trkpt lat="43.40960099950964" lon="10.774326435815118"><ele>141.5</ele><time>2026-04-04T10:25:17Z</time></trkpt><trkpt lat="43.40954302869409" lon="10.774481685445586"><ele>142.75</ele><time>2026-04-04T10:25:18Z</time></trkpt><trkpt lat="43.409449274632784" lon="10.774636061569577"><ele>144.0</ele><time>2026-04-04T10:25:19Z</time></trkpt><trkpt lat="43.40933385031419" lon="10.774787777370959"><ele>144.0</ele><time>2026-04-04T10:25:20Z</time></trkpt><trkpt lat="43.409211920781594" lon="10.774894458539354"><ele>144.0</ele><time>2026-04-04T10:25:21Z</time></trkpt><trkpt lat="43.40908699292539" lon="10.774970185459171"><ele>144.0</ele><time>2026-04-04T10:25:22Z</time></trkpt><trkpt lat="43.40894786038009" lon="10.775050831564792"><ele>144.0</ele><time>2026-04-04T10:25:23Z</time></trkpt><trkpt lat="43.40883369383888" lon="10.775126939001694"><ele>143.66666666666666</ele><time>2026-04-04T10:25:23.999Z</time></trkpt><trkpt lat="43.40875553220771" lon="10.77518206867169"><ele>143.33333333333334</ele><time>2026-04-04T10:25:24.999Z</time></trkpt><trkpt lat="43.40869318519709" lon="10.775210855961557"><ele>143.0</ele><time>2026-04-04T10:25:25.999Z</time></trkpt><trkpt lat="43.408583739969046" lon="10.775240075971452"><ele>142.66666666666669</ele><time>2026-04-04T10:25:27.999Z</time></trkpt><trkpt lat="43.40851178764735" lon="10.775263365602008"><ele>142.33333333333334</ele><time>2026-04-04T10:25:28.999Z</time></trkpt><trkpt lat="43.408418706621134" lon="10.77531223764298"><ele>142.0</ele><time>2026-04-04T10:25:29.999Z</time></trkpt><trkpt lat="43.408317033011436" lon="10.775351340165363"><ele>142.0</ele><time>2026-04-04T10:25:30.999Z</time></trkpt><trkpt lat="43.4081913486408" lon="10.775384889562881"><ele>142.0</ele><time>2026-04-04T10:25:31.999Z</time></trkpt><trkpt lat="43.40804589980449" lon="10.775420669182674"><ele>142.0</ele><time>2026-04-04T10:25:32.999Z</time></trkpt><trkpt lat="43.407891108826405" lon="10.775445552375576"><ele>142.0</ele><time>2026-04-04T10:25:33.999Z</time></trkpt><trkpt lat="43.40771863872491" lon="10.775460855112458"><ele>143.0</ele><time>2026-04-04T10:25:34.999Z</time></trkpt><trkpt lat="43.407530637137114" lon="10.775451803934653"><ele>144.0</ele><time>2026-04-04T10:25:35.999Z</time></trkpt><trkpt lat="43.40734196572802" lon="10.775458852087086"><ele>145.0</ele><time>2026-04-04T10:25:36.999Z</time></trkpt><trkpt lat="43.40715666485245" lon="10.77549708201401"><ele>145.33333333333334</ele><time>2026-04-04T10:25:37.999Z</time></trkpt><trkpt lat="43.406971605378885" lon="10.775561344738913"><ele>145.66666666666666</ele><time>2026-04-04T10:25:38.999Z</time></trkpt><trkpt lat="43.40680567310148" lon="10.775635918482084"><ele>146.0</ele><time>2026-04-04T10:25:39.999Z</time></trkpt><trkpt lat="43.406625942311486" lon="10.775666053698938"><ele>146.0</ele><time>2026-04-04T10:25:40.999Z</time></trkpt><trkpt lat="43.40641906823578" lon="10.775633703150048"><ele>146.0</ele><time>2026-04-04T10:25:41.999Z</time></trkpt><trkpt lat="43.40620857522747" lon="10.775574131014334"><ele>146.0</ele><time>2026-04-04T10:25:42.999Z</time></trkpt><trkpt lat="43.40598961403054" lon="10.775462984914054"><ele>145.5</ele><time>2026-04-04T10:25:43.999Z</time></trkpt><trkpt lat="43.40577342733171" lon="10.775337408841764"><ele>145.0</ele><time>2026-04-04T10:25:44.999Z</time></trkpt><trkpt lat="43.40556940043438" lon="10.775216150423299"><ele>146.66666666666669</ele><time>2026-04-04T10:25:45.999Z</time></trkpt><trkpt lat="43.405360862576245" lon="10.775105291980747"><ele>148.33333333333334</ele><time>2026-04-04T10:25:46.999Z</time></trkpt><trkpt lat="43.40515079940955" lon="10.774999919768526"><ele>150.0</ele><time>2026-04-04T10:25:47.999Z</time></trkpt><trkpt lat="43.404950330626846" lon="10.774896500921203"><ele>150.0</ele><time>2026-04-04T10:25:48.999Z</time></trkpt><trkpt lat="43.4047692092922" lon="10.77478878451734"><ele>150.0</ele><time>2026-04-04T10:25:49.999Z</time></trkpt><trkpt lat="43.4045991863999" lon="10.774699750226299"><ele>150.0</ele><time>2026-04-04T10:25:50.999Z</time></trkpt><trkpt lat="43.40441725595997" lon="10.774621918102273"><ele>150.0</ele><time>2026-04-04T10:25:51.999Z</time></trkpt><trkpt lat="43.40422828928334" lon="10.774582759360895"><ele>150.0</ele><time>2026-04-04T10:25:52.999Z</time></trkpt><trkpt lat="43.404052416487936" lon="10.774590993585642"><ele>150.0</ele><time>2026-04-04T10:25:53.999Z</time></trkpt><trkpt lat="43.40388223754473" lon="10.774643307768496"><ele>152.66666666666666</ele><time>2026-04-04T10:25:54.999Z</time></trkpt><trkpt lat="43.403700602842946" lon="10.774771916616988"><ele>155.33333333333331</ele><time>2026-04-04T10:25:55.999Z</time></trkpt><trkpt lat="43.403512732117015" lon="10.774932802288127"><ele>158.0</ele><time>2026-04-04T10:25:56.999Z</time></trkpt><trkpt lat="43.40331890901016" lon="10.775036547170355"><ele>158.0</ele><time>2026-04-04T10:25:57.999Z</time></trkpt><trkpt lat="43.40314858382081" lon="10.775145459901116"><ele>158.0</ele><time>2026-04-04T10:25:58.999Z</time></trkpt><trkpt lat="43.40299650715557" lon="10.77524056550275"><ele>158.0</ele><time>2026-04-04T10:25:59.999Z</time></trkpt><trkpt lat="43.40284951144012" lon="10.7753331357988"><ele>158.0</ele><time>2026-04-04T10:26:00.999Z</time></trkpt><trkpt lat="43.40272711515227" lon="10.775439595355156"><ele>158.0</ele><time>2026-04-04T10:26:01.999Z</time></trkpt><trkpt lat="43.40259557837872" lon="10.775516431734625"><ele>158.0</ele><time>2026-04-04T10:26:02.999Z</time></trkpt><trkpt lat="43.40247678755619" lon="10.775636320500025"><ele>158.0</ele><time>2026-04-04T10:26:03.999Z</time></trkpt><trkpt lat="43.40237637041117" lon="10.77580412285901"><ele>158.0</ele><time>2026-04-04T10:26:04.999Z</time></trkpt><trkpt lat="43.402312611517694" lon="10.77601325092279"><ele>158.0</ele><time>2026-04-04T10:26:05.999Z</time></trkpt><trkpt lat="43.40229299447158" lon="10.776251649218707"><ele>158.0</ele><time>2026-04-04T10:26:06.999Z</time></trkpt><trkpt lat="43.4022950885276" lon="10.776512427356174"><ele>158.0</ele><time>2026-04-04T10:26:07.999Z</time></trkpt><trkpt lat="43.40227722624816" lon="10.776773223316459"><ele>158.0</ele><time>2026-04-04T10:26:08.999Z</time></trkpt><trkpt lat="43.40220766434452" lon="10.777037651643885"><ele>158.0</ele><time>2026-04-04T10:26:09.999Z</time></trkpt><trkpt lat="43.40213381434154" lon="10.777322080488444"><ele>160.0</ele><time>2026-04-04T10:26:10.999Z</time></trkpt><trkpt lat="43.40206932009879" lon="10.777600592391865"><ele>162.0</ele><time>2026-04-04T10:26:11.999Z</time></trkpt><trkpt lat="43.40203877594978" lon="10.777865763900772"><ele>164.0</ele><time>2026-04-04T10:26:12.999Z</time></trkpt><trkpt lat="43.40201047387993" lon="10.778133217798077"><ele>164.66666666666666</ele><time>2026-04-04T10:26:13.999Z</time></trkpt><trkpt lat="43.4019901263943" lon="10.778418772649774"><ele>165.33333333333334</ele><time>2026-04-04T10:26:14.999Z</time></trkpt><trkpt lat="43.4019922347275" lon="10.778706031215473"><ele>166.0</ele><time>2026-04-04T10:26:15.999Z</time></trkpt><trkpt lat="43.402016571585" lon="10.779018472953958"><ele>166.0</ele><time>2026-04-04T10:26:16.999Z</time></trkpt><trkpt lat="43.40203757720109" lon="10.779296957160684"><ele>166.0</ele><time>2026-04-04T10:26:17.999Z</time></trkpt><trkpt lat="43.402047573340845" lon="10.77957264298758"><ele>166.0</ele><time>2026-04-04T10:26:18.999Z</time></trkpt><trkpt lat="43.40205963409228" lon="10.779837805835559"><ele>166.0</ele><time>2026-04-04T10:26:19.999Z</time></trkpt><trkpt lat="43.40203270550586" lon="10.780105998914204"><ele>166.0</ele><time>2026-04-04T10:26:20.999Z</time></trkpt><trkpt lat="43.401998811965626" lon="10.780383521832329"><ele>166.0</ele><time>2026-04-04T10:26:21.999Z</time></trkpt><trkpt lat="43.40195917035383" lon="10.78067379609315"><ele>165.66666666666669</ele><time>2026-04-04T10:26:22.999Z</time></trkpt><trkpt lat="43.401923138554324" lon="10.780943226686135"><ele>165.33333333333334</ele><time>2026-04-04T10:26:23.999Z</time></trkpt><trkpt lat="43.401892377683794" lon="10.7811970280374"><ele>165.0</ele><time>2026-04-04T10:26:24.999Z</time></trkpt><trkpt lat="43.401868925315355" lon="10.781447697938434"><ele>165.0</ele><time>2026-04-04T10:26:25.999Z</time></trkpt><trkpt lat="43.40186956880672" lon="10.781686582509527"><ele>165.0</ele><time>2026-04-04T10:26:26.999Z</time></trkpt><trkpt lat="43.401863072086186" lon="10.781908422993144"><ele>165.0</ele><time>2026-04-04T10:26:27.999Z</time></trkpt><trkpt lat="43.40188039953996" lon="10.782123392706906"><ele>164.66666666666666</ele><time>2026-04-04T10:26:28.999Z</time></trkpt><trkpt lat="43.40190705622309" lon="10.782348576137105"><ele>164.33333333333331</ele><time>2026-04-04T10:26:29.999Z</time></trkpt><trkpt lat="43.40192829798601" lon="10.782563992558227"><ele>164.0</ele><time>2026-04-04T10:26:30.999Z</time></trkpt><trkpt lat="43.401946831952735" lon="10.782771062099792"><ele>163.0</ele><time>2026-04-04T10:26:31.999Z</time></trkpt><trkpt lat="43.40196893156551" lon="10.782986743154773"><ele>162.0</ele><time>2026-04-04T10:26:32.999Z</time></trkpt><trkpt lat="43.40198832635817" lon="10.783196525496143"><ele>161.0</ele><time>2026-04-04T10:26:33.999Z</time></trkpt><trkpt lat="43.40201049587046" lon="10.783407383745931"><ele>160.0</ele><time>2026-04-04T10:26:34.999Z</time></trkpt><trkpt lat="43.40203274423228" lon="10.783628964165814"><ele>159.0</ele><time>2026-04-04T10:26:35.999Z</time></trkpt><trkpt lat="43.402050875367586" lon="10.783854128643412"><ele>158.0</ele><time>2026-04-04T10:26:36.999Z</time></trkpt><trkpt lat="43.40207605818786" lon="10.784079060175248"><ele>158.0</ele><time>2026-04-04T10:26:37.999Z</time></trkpt><trkpt lat="43.40209873578558" lon="10.784292628302783"><ele>158.0</ele><time>2026-04-04T10:26:38.999Z</time></trkpt><trkpt lat="43.40212957120039" lon="10.784482727568031"><ele>158.0</ele><time>2026-04-04T10:26:39.999Z</time></trkpt><trkpt lat="43.40217394302619" lon="10.784657892813978"><ele>158.0</ele><time>2026-04-04T10:26:40.999Z</time></trkpt><trkpt lat="43.402227276711585" lon="10.784835726626412"><ele>160.0</ele><time>2026-04-04T10:26:41.999Z</time></trkpt><trkpt lat="43.402285604481996" lon="10.785044778575228"><ele>162.0</ele><time>2026-04-04T10:26:42.999Z</time></trkpt><trkpt lat="43.40234066085294" lon="10.78527010289626"><ele>164.0</ele><time>2026-04-04T10:26:43.999Z</time></trkpt><trkpt lat="43.40239331157133" lon="10.785503772778434"><ele>164.0</ele><time>2026-04-04T10:26:44.999Z</time></trkpt><trkpt lat="43.402450988775534" lon="10.785736882588726"><ele>164.0</ele><time>2026-04-04T10:26:45.999Z</time></trkpt><trkpt lat="43.4025194852436" lon="10.785971294943607"><ele>164.0</ele><time>2026-04-04T10:26:46.999Z</time></trkpt><trkpt lat="43.40258108941628" lon="10.78622184659194"><ele>164.66666666666666</ele><time>2026-04-04T10:26:47.999Z</time></trkpt><trkpt lat="43.402640889355034" lon="10.786483491819121"><ele>165.33333333333334</ele><time>2026-04-04T10:26:48.999Z</time></trkpt><trkpt lat="43.40270518668646" lon="10.78674472288942"><ele>166.0</ele><time>2026-04-04T10:26:49.999Z</time></trkpt><trkpt lat="43.402772537428696" lon="10.786994385898122"><ele>166.66666666666669</ele><time>2026-04-04T10:26:50.999Z</time></trkpt><trkpt lat="43.40283271464949" lon="10.787224699260802"><ele>167.33333333333334</ele><time>2026-04-04T10:26:52Z</time></trkpt><trkpt lat="43.40285772941507" lon="10.78742542305497"><ele>168.0</ele><time>2026-04-04T10:26:53Z</time></trkpt><trkpt lat="43.40289799190043" lon="10.787596161806837"><ele>169.75</ele><time>2026-04-04T10:26:54Z</time></trkpt><trkpt lat="43.402910220185845" lon="10.787770983867674"><ele>171.5</ele><time>2026-04-04T10:26:55Z</time></trkpt><trkpt lat="43.40290552222891" lon="10.78794113575545"><ele>173.25</ele><time>2026-04-04T10:26:56Z</time></trkpt><trkpt lat="43.40284149772003" lon="10.788118249895623"><ele>175.0</ele><time>2026-04-04T10:26:57Z</time></trkpt><trkpt lat="43.402755358884825" lon="10.788303007422215"><ele>175.0</ele><time>2026-04-04T10:26:58Z</time></trkpt><trkpt lat="43.40264138150191" lon="10.788491970906906"><ele>175.0</ele><time>2026-04-04T10:26:59Z</time></trkpt><trkpt lat="43.402513273766786" lon="10.788680939139507"><ele>175.0</ele><time>2026-04-04T10:27:00Z</time></trkpt><trkpt lat="43.402394998858526" lon="10.788841170639989"><ele>174.25</ele><time>2026-04-04T10:27:01Z</time></trkpt><trkpt lat="43.402284288185015" lon="10.788972729169561"><ele>173.5</ele><time>2026-04-04T10:27:02Z</time></trkpt><trkpt lat="43.40216857869964" lon="10.789071070039048"><ele>172.75</ele><time>2026-04-04T10:27:03Z</time></trkpt><trkpt lat="43.40204022424006" lon="10.789127525952244"><ele>172.0</ele><time>2026-04-04T10:27:04Z</time></trkpt><trkpt lat="43.40190332821744" lon="10.789147195620513"><ele>172.0</ele><time>2026-04-04T10:27:05Z</time></trkpt><trkpt lat="43.401754142260344" lon="10.78910591882651"><ele>172.0</ele><time>2026-04-04T10:27:06Z</time></trkpt><trkpt lat="43.401601413790566" lon="10.789051621253051"><ele>172.0</ele><time>2026-04-04T10:27:07Z</time></trkpt><trkpt lat="43.401465211495776" lon="10.789023127589473"><ele>172.0</ele><time>2026-04-04T10:27:08Z</time></trkpt><trkpt lat="43.40134380260492" lon="10.789002509263833"><ele>169.0</ele><time>2026-04-04T10:27:09Z</time></trkpt><trkpt lat="43.40123385090914" lon="10.78902244753889"><ele>166.0</ele><time>2026-04-04T10:27:10Z</time></trkpt><trkpt lat="43.40114154335902" lon="10.789104011067677"><ele>163.0</ele><time>2026-04-04T10:27:11Z</time></trkpt><trkpt lat="43.40107275592781" lon="10.789222190581386"><ele>160.0</ele><time>2026-04-04T10:27:12Z</time></trkpt><trkpt lat="43.40102854972815" lon="10.7893666830348"><ele>157.0</ele><time>2026-04-04T10:27:13Z</time></trkpt><trkpt lat="43.40102425837234" lon="10.789542068218301"><ele>155.75</ele><time>2026-04-04T10:27:14Z</time></trkpt><trkpt lat="43.401065499500916" lon="10.789719792822462"><ele>154.5</ele><time>2026-04-04T10:27:15Z</time></trkpt><trkpt lat="43.401137461738344" lon="10.78989639101809"><ele>153.25</ele><time>2026-04-04T10:27:16Z</time></trkpt><trkpt lat="43.40122627994105" lon="10.790063199354176"><ele>152.0</ele><time>2026-04-04T10:27:17Z</time></trkpt><trkpt lat="43.401320145214385" lon="10.790204679620178"><ele>153.6</ele><time>2026-04-04T10:27:18Z</time></trkpt><trkpt lat="43.401398883507206" lon="10.7903242220215"><ele>155.2</ele><time>2026-04-04T10:27:19Z</time></trkpt><trkpt lat="43.401463685582236" lon="10.790438734456282"><ele>156.8</ele><time>2026-04-04T10:27:20Z</time></trkpt><trkpt lat="43.40149145374969" lon="10.790583259885848"><ele>158.4</ele><time>2026-04-04T10:27:21Z</time></trkpt><trkpt lat="43.40148819457679" lon="10.790720186432818"><ele>160.0</ele><time>2026-04-04T10:27:22Z</time></trkpt><trkpt lat="43.40145760975128" lon="10.790857818028044"><ele>160.0</ele><time>2026-04-04T10:27:23Z</time></trkpt><trkpt lat="43.40136572302448" lon="10.790957744440322"><ele>160.0</ele><time>2026-04-04T10:27:24Z</time></trkpt><trkpt lat="43.40124545193012" lon="10.791075598816471"><ele>160.0</ele><time>2026-04-04T10:27:25Z</time></trkpt><trkpt lat="43.401103396927304" lon="10.791187875042173"><ele>160.0</ele><time>2026-04-04T10:27:26Z</time></trkpt><trkpt lat="43.4009537715337" lon="10.791269367609113"><ele>156.66666666666669</ele><time>2026-04-04T10:27:27Z</time></trkpt><trkpt lat="43.40079689891321" lon="10.791335300500768"><ele>153.33333333333334</ele><time>2026-04-04T10:27:28Z</time></trkpt><trkpt lat="43.400649288258066" lon="10.79141668935948"><ele>150.0</ele><time>2026-04-04T10:27:29Z</time></trkpt><trkpt lat="43.40051260312334" lon="10.79146357035233"><ele>148.5</ele><time>2026-04-04T10:27:30Z</time></trkpt><trkpt lat="43.40039138851169" lon="10.791523423822946"><ele>147.0</ele><time>2026-04-04T10:27:31Z</time></trkpt><trkpt lat="43.4002749189213" lon="10.791617780565945"><ele>145.5</ele><time>2026-04-04T10:27:31.999Z</time></trkpt><trkpt lat="43.40016923828384" lon="10.79173309125286"><ele>144.0</ele><time>2026-04-04T10:27:32.999Z</time></trkpt><trkpt lat="43.40008304524408" lon="10.791890745292076"><ele>144.0</ele><time>2026-04-04T10:27:33.999Z</time></trkpt><trkpt lat="43.400013573211716" lon="10.792094111883108"><ele>144.0</ele><time>2026-04-04T10:27:34.999Z</time></trkpt><trkpt lat="43.399959187238366" lon="10.792294573676381"><ele>144.0</ele><time>2026-04-04T10:27:35.999Z</time></trkpt><trkpt lat="43.399901489418646" lon="10.792464108320576"><ele>144.0</ele><time>2026-04-04T10:27:36.999Z</time></trkpt><trkpt lat="43.39983054848878" lon="10.792606927936713"><ele>144.0</ele><time>2026-04-04T10:27:37.999Z</time></trkpt><trkpt lat="43.39972898988781" lon="10.792723920805836"><ele>144.0</ele><time>2026-04-04T10:27:38.999Z</time></trkpt><trkpt lat="43.39959597514863" lon="10.79281124076171"><ele>144.0</ele><time>2026-04-04T10:27:39.999Z</time></trkpt><trkpt lat="43.39943414917085" lon="10.792872895115524"><ele>142.33333333333334</ele><time>2026-04-04T10:27:40.999Z</time></trkpt><trkpt lat="43.39926008694509" lon="10.792917963791707"><ele>140.66666666666669</ele><time>2026-04-04T10:27:41.999Z</time></trkpt><trkpt lat="43.39909417825302" lon="10.792913826246258"><ele>139.0</ele><time>2026-04-04T10:27:42.999Z</time></trkpt><trkpt lat="43.39892953080174" lon="10.792836173031175"><ele>138.0</ele><time>2026-04-04T10:27:43.999Z</time></trkpt><trkpt lat="43.39873584934893" lon="10.792728060904675"><ele>137.0</ele><time>2026-04-04T10:27:44.999Z</time></trkpt><trkpt lat="43.39853948736186" lon="10.792615697602345"><ele>136.0</ele><time>2026-04-04T10:27:45.999Z</time></trkpt><trkpt lat="43.39836327520063" lon="10.792519304014474"><ele>136.0</ele><time>2026-04-04T10:27:46.999Z</time></trkpt><trkpt lat="43.3981974636623" lon="10.792435227289504"><ele>136.0</ele><time>2026-04-04T10:27:47.999Z</time></trkpt><trkpt lat="43.39802768661183" lon="10.79237836192347"><ele>136.0</ele><time>2026-04-04T10:27:48.999Z</time></trkpt><trkpt lat="43.39785490306572" lon="10.792377107187322"><ele>136.66666666666669</ele><time>2026-04-04T10:27:49.999Z</time></trkpt><trkpt lat="43.39768195017254" lon="10.792385318347053"><ele>137.33333333333334</ele><time>2026-04-04T10:27:50.999Z</time></trkpt><trkpt lat="43.39750483609143" lon="10.792395719998138"><ele>138.0</ele><time>2026-04-04T10:27:51.999Z</time></trkpt><trkpt lat="43.39732028903917" lon="10.792422640273774"><ele>137.33333333333334</ele><time>2026-04-04T10:27:52.999Z</time></trkpt><trkpt lat="43.39712664188284" lon="10.79243860820943"><ele>136.66666666666669</ele><time>2026-04-04T10:27:53.999Z</time></trkpt><trkpt lat="43.39693865627771" lon="10.792413172558115"><ele>136.0</ele><time>2026-04-04T10:27:54.999Z</time></trkpt><trkpt lat="43.39676254564321" lon="10.792385831977857"><ele>136.0</ele><time>2026-04-04T10:27:55.999Z</time></trkpt><trkpt lat="43.39658925810354" lon="10.79241691746101"><ele>136.0</ele><time>2026-04-04T10:27:56.999Z</time></trkpt><trkpt lat="43.39641997337558" lon="10.792469511742526"><ele>136.0</ele><time>2026-04-04T10:27:57.999Z</time></trkpt><trkpt lat="43.396259503604895" lon="10.792540238596374"><ele>136.0</ele><time>2026-04-04T10:27:58.999Z</time></trkpt><trkpt lat="43.396102790996295" lon="10.79264744150503"><ele>136.0</ele><time>2026-04-04T10:27:59.999Z</time></trkpt><trkpt lat="43.395952641700745" lon="10.792827074917252"><ele>136.0</ele><time>2026-04-04T10:28:00.999Z</time></trkpt><trkpt lat="43.395783325007" lon="10.793023966294832"><ele>134.0</ele><time>2026-04-04T10:28:01.999Z</time></trkpt><trkpt lat="43.39563579284438" lon="10.793232158993947"><ele>132.0</ele><time>2026-04-04T10:28:02.999Z</time></trkpt><trkpt lat="43.39550001697508" lon="10.793420773088659"><ele>130.0</ele><time>2026-04-04T10:28:03.999Z</time></trkpt><trkpt lat="43.395383527131095" lon="10.793580119920087"><ele>128.25</ele><time>2026-04-04T10:28:04.999Z</time></trkpt><trkpt lat="43.39527355381351" lon="10.793725289722358"><ele>126.5</ele><time>2026-04-04T10:28:05.999Z</time></trkpt><trkpt lat="43.395170011905364" lon="10.793849468428052"><ele>124.75</ele><time>2026-04-04T10:28:06.999Z</time></trkpt><trkpt lat="43.395065722315394" lon="10.793951289760745"><ele>123.0</ele><time>2026-04-04T10:28:07.999Z</time></trkpt><trkpt lat="43.39496829546317" lon="10.794029685446423"><ele>123.0</ele><time>2026-04-04T10:28:08.999Z</time></trkpt><trkpt lat="43.39486706302157" lon="10.794071511030696"><ele>123.0</ele><time>2026-04-04T10:28:09.999Z</time></trkpt><trkpt lat="43.39474048714285" lon="10.794074765686174"><ele>123.0</ele><time>2026-04-04T10:28:10.999Z</time></trkpt><trkpt lat="43.39458510337279" lon="10.794013565780153"><ele>123.0</ele><time>2026-04-04T10:28:11.999Z</time></trkpt><trkpt lat="43.39441202056238" lon="10.793927896329683"><ele>121.75</ele><time>2026-04-04T10:28:12.999Z</time></trkpt><trkpt lat="43.39425899887342" lon="10.793852038978727"><ele>120.5</ele><time>2026-04-04T10:28:13.999Z</time></trkpt><trkpt lat="43.39412782704116" lon="10.793794202380969"><ele>119.25</ele><time>2026-04-04T10:28:14.999Z</time></trkpt><trkpt lat="43.39400836575331" lon="10.79374790912188"><ele>118.0</ele><time>2026-04-04T10:28:15.999Z</time></trkpt><trkpt lat="43.39388418008927" lon="10.793724104210106"><ele>116.75</ele><time>2026-04-04T10:28:16.999Z</time></trkpt><trkpt lat="43.39375735520074" lon="10.793708451269458"><ele>115.5</ele><time>2026-04-04T10:28:17.999Z</time></trkpt><trkpt lat="43.393623591496635" lon="10.793704794650504"><ele>114.25</ele><time>2026-04-04T10:28:18.999Z</time></trkpt><trkpt lat="43.39348322473953" lon="10.79370006860233"><ele>113.0</ele><time>2026-04-04T10:28:19.999Z</time></trkpt><trkpt lat="43.39333639465822" lon="10.793695135205366"><ele>113.0</ele><time>2026-04-04T10:28:20.999Z</time></trkpt><trkpt lat="43.393190952593685" lon="10.79369132920761"><ele>113.0</ele><time>2026-04-04T10:28:21.999Z</time></trkpt><trkpt lat="43.39304025443312" lon="10.793687385666674"><ele>113.0</ele><time>2026-04-04T10:28:22.999Z</time></trkpt><trkpt lat="43.39288542696402" lon="10.793683334067019"><ele>112.5</ele><time>2026-04-04T10:28:23.999Z</time></trkpt><trkpt lat="43.39274181365975" lon="10.793679575927795"><ele>112.0</ele><time>2026-04-04T10:28:24.999Z</time></trkpt><trkpt lat="43.39260134076916" lon="10.793675899964102"><ele>111.5</ele><time>2026-04-04T10:28:25.999Z</time></trkpt><trkpt lat="43.39246683896119" lon="10.793671950810094"><ele>111.0</ele><time>2026-04-04T10:28:26.999Z</time></trkpt><trkpt lat="43.39232886379047" lon="10.793667763842397"><ele>111.0</ele><time>2026-04-04T10:28:27.999Z</time></trkpt><trkpt lat="43.392197372224906" lon="10.793663773625916"><ele>111.0</ele><time>2026-04-04T10:28:28.999Z</time></trkpt><trkpt lat="43.392066324899226" lon="10.793659796888967"><ele>111.0</ele><time>2026-04-04T10:28:29.999Z</time></trkpt><trkpt lat="43.39193090784958" lon="10.793655687548663"><ele>111.0</ele><time>2026-04-04T10:28:30.999Z</time></trkpt><trkpt lat="43.39179550102965" lon="10.793650095625816"><ele>110.75</ele><time>2026-04-04T10:28:31.999Z</time></trkpt><trkpt lat="43.39166260346578" lon="10.793650147542808"><ele>110.5</ele><time>2026-04-04T10:28:32.999Z</time></trkpt><trkpt lat="43.39154076799975" lon="10.79368270048577"><ele>110.25</ele><time>2026-04-04T10:28:33.999Z</time></trkpt><trkpt lat="43.39142556927809" lon="10.79372321062602"><ele>110.0</ele><time>2026-04-04T10:28:34.999Z</time></trkpt><trkpt lat="43.39131372889022" lon="10.793825462069908"><ele>110.33333333333333</ele><time>2026-04-04T10:28:35.999Z</time></trkpt><trkpt lat="43.39119818843743" lon="10.793972615927393"><ele>110.66666666666666</ele><time>2026-04-04T10:28:36.999Z</time></trkpt><trkpt lat="43.39108965326731" lon="10.794148163037978"><ele>111.0</ele><time>2026-04-04T10:28:37.999Z</time></trkpt><trkpt lat="43.39100953279972" lon="10.794371839269298"><ele>111.0</ele><time>2026-04-04T10:28:38.999Z</time></trkpt><trkpt lat="43.39090705856725" lon="10.794591121211555"><ele>111.0</ele><time>2026-04-04T10:28:39.999Z</time></trkpt><trkpt lat="43.390792749606945" lon="10.794820903027688"><ele>111.0</ele><time>2026-04-04T10:28:40.999Z</time></trkpt><trkpt lat="43.390653099586636" lon="10.79505669119377"><ele>110.33333333333334</ele><time>2026-04-04T10:28:41.999Z</time></trkpt><trkpt lat="43.39052229528838" lon="10.795276520889715"><ele>109.66666666666667</ele><time>2026-04-04T10:28:42.999Z</time></trkpt><trkpt lat="43.39040057754509" lon="10.795481320733339"><ele>109.0</ele><time>2026-04-04T10:28:43.999Z</time></trkpt><trkpt lat="43.390282788931664" lon="10.795680289579789"><ele>109.0</ele><time>2026-04-04T10:28:44.999Z</time></trkpt><trkpt lat="43.3901654397072" lon="10.795878672527765"><ele>109.0</ele><time>2026-04-04T10:28:45.999Z</time></trkpt><trkpt lat="43.390050059924484" lon="10.796073724646007"><ele>109.0</ele><time>2026-04-04T10:28:46.999Z</time></trkpt><trkpt lat="43.38993378581024" lon="10.796254170563074"><ele>106.33333333333334</ele><time>2026-04-04T10:28:47.999Z</time></trkpt><trkpt lat="43.38980894977097" lon="10.796411550317139"><ele>103.66666666666666</ele><time>2026-04-04T10:28:48.999Z</time></trkpt><trkpt lat="43.389680878481045" lon="10.796550381124407"><ele>101.0</ele><time>2026-04-04T10:28:49.999Z</time></trkpt><trkpt lat="43.389534186613716" lon="10.796653268509674"><ele>101.0</ele><time>2026-04-04T10:28:50.999Z</time></trkpt><trkpt lat="43.38935831772611" lon="10.796690820441393"><ele>101.0</ele><time>2026-04-04T10:28:51.999Z</time></trkpt><trkpt lat="43.38916943297665" lon="10.796678725337246"><ele>101.0</ele><time>2026-04-04T10:28:52.999Z</time></trkpt><trkpt lat="43.38897699415011" lon="10.79665617082046"><ele>100.66666666666666</ele><time>2026-04-04T10:28:53.999Z</time></trkpt><trkpt lat="43.38879112871095" lon="10.796634005650809"><ele>100.33333333333334</ele><time>2026-04-04T10:28:54.999Z</time></trkpt><trkpt lat="43.38861794583176" lon="10.796612923514562"><ele>100.0</ele><time>2026-04-04T10:28:55.999Z</time></trkpt><trkpt lat="43.38845568830383" lon="10.796587200670725"><ele>100.0</ele><time>2026-04-04T10:28:56.999Z</time></trkpt><trkpt lat="43.38828756796275" lon="10.796530858759217"><ele>100.0</ele><time>2026-04-04T10:28:58Z</time></trkpt><trkpt lat="43.38813726620838" lon="10.796374175331797"><ele>100.0</ele><time>2026-04-04T10:28:59Z</time></trkpt><trkpt lat="43.38797470550979" lon="10.796210117725675"><ele>100.0</ele><time>2026-04-04T10:29:00Z</time></trkpt><trkpt lat="43.38783775942076" lon="10.796015480439724"><ele>100.0</ele><time>2026-04-04T10:29:01Z</time></trkpt><trkpt lat="43.38770984763386" lon="10.795835274883752"><ele>100.0</ele><time>2026-04-04T10:29:02Z</time></trkpt><trkpt lat="43.387581741136124" lon="10.79566309638117"><ele>100.0</ele><time>2026-04-04T10:29:03Z</time></trkpt><trkpt lat="43.38743918268677" lon="10.795500953144135"><ele>100.0</ele><time>2026-04-04T10:29:04Z</time></trkpt><trkpt lat="43.387291522703066" lon="10.795333519964124"><ele>100.0</ele><time>2026-04-04T10:29:05Z</time></trkpt><trkpt lat="43.38712851764714" lon="10.795183801714503"><ele>98.0</ele><time>2026-04-04T10:29:06Z</time></trkpt><trkpt lat="43.38697126818393" lon="10.795052392883713"><ele>96.0</ele><time>2026-04-04T10:29:07Z</time></trkpt><trkpt lat="43.386823790866295" lon="10.794933982258712"><ele>94.0</ele><time>2026-04-04T10:29:08Z</time></trkpt><trkpt lat="43.3866836031918" lon="10.794832735635328"><ele>94.0</ele><time>2026-04-04T10:29:09Z</time></trkpt><trkpt lat="43.386542451359844" lon="10.794745940931495"><ele>94.0</ele><time>2026-04-04T10:29:10Z</time></trkpt><trkpt lat="43.386398343656246" lon="10.794681709519608"><ele>94.0</ele><time>2026-04-04T10:29:11Z</time></trkpt><trkpt lat="43.38625643498455" lon="10.794644517052319"><ele>93.0</ele><time>2026-04-04T10:29:12Z</time></trkpt><trkpt lat="43.38610369466202" lon="10.79465064748708"><ele>92.0</ele><time>2026-04-04T10:29:13Z</time></trkpt><trkpt lat="43.385943173335576" lon="10.794699312054167"><ele>91.0</ele><time>2026-04-04T10:29:14Z</time></trkpt><trkpt lat="43.38578885995712" lon="10.794802120215678"><ele>91.0</ele><time>2026-04-04T10:29:15Z</time></trkpt><trkpt lat="43.38563888113747" lon="10.794960348348395"><ele>91.0</ele><time>2026-04-04T10:29:16Z</time></trkpt><trkpt lat="43.385473738416046" lon="10.795135815056701"><ele>91.0</ele><time>2026-04-04T10:29:17Z</time></trkpt><trkpt lat="43.38529202222094" lon="10.795332771124201"><ele>88.0</ele><time>2026-04-04T10:29:18Z</time></trkpt><trkpt lat="43.385116650079645" lon="10.79552377470201"><ele>85.0</ele><time>2026-04-04T10:29:19Z</time></trkpt><trkpt lat="43.38493694172112" lon="10.795715958571288"><ele>85.0</ele><time>2026-04-04T10:29:20Z</time></trkpt><trkpt lat="43.38473086034446" lon="10.795935237951888"><ele>85.0</ele><time>2026-04-04T10:29:21Z</time></trkpt><trkpt lat="43.38453893212301" lon="10.79613995430307"><ele>84.0</ele><time>2026-04-04T10:29:22Z</time></trkpt><trkpt lat="43.38435254045867" lon="10.796340173895446"><ele>83.0</ele><time>2026-04-04T10:29:23Z</time></trkpt><trkpt lat="43.38418695023505" lon="10.796517991554385"><ele>82.0</ele><time>2026-04-04T10:29:24Z</time></trkpt><trkpt lat="43.38397343620418" lon="10.79674611950784"><ele>81.5</ele><time>2026-04-04T10:29:25Z</time></trkpt><trkpt lat="43.38377566911563" lon="10.796957422402656"><ele>81.0</ele><time>2026-04-04T10:29:26Z</time></trkpt><trkpt lat="43.38357756880174" lon="10.79716911040615"><ele>81.0</ele><time>2026-04-04T10:29:27Z</time></trkpt><trkpt lat="43.38337532480559" lon="10.797386559176243"><ele>81.0</ele><time>2026-04-04T10:29:28Z</time></trkpt><trkpt lat="43.38317054176681" lon="10.797606738239352"><ele>81.5</ele><time>2026-04-04T10:29:29Z</time></trkpt><trkpt lat="43.382965420063975" lon="10.797824665487394"><ele>82.0</ele><time>2026-04-04T10:29:30Z</time></trkpt><trkpt lat="43.38277539891103" lon="10.79802638440037"><ele>82.0</ele><time>2026-04-04T10:29:31Z</time></trkpt><trkpt lat="43.382594895362814" lon="10.798217962205765"><ele>82.0</ele><time>2026-04-04T10:29:32Z</time></trkpt><trkpt lat="43.38241655086293" lon="10.79840769309271"><ele>82.0</ele><time>2026-04-04T10:29:33Z</time></trkpt><trkpt lat="43.38223071843868" lon="10.79861165400493"><ele>82.0</ele><time>2026-04-04T10:29:34Z</time></trkpt><trkpt lat="43.38203447654271" lon="10.798818587443828"><ele>82.0</ele><time>2026-04-04T10:29:35Z</time></trkpt><trkpt lat="43.38182810187791" lon="10.799037522644115"><ele>82.0</ele><time>2026-04-04T10:29:35.999Z</time></trkpt><trkpt lat="43.38161800832869" lon="10.79926225178324"><ele>82.5</ele><time>2026-04-04T10:29:36.999Z</time></trkpt><trkpt lat="43.38140687945153" lon="10.799487611338124"><ele>83.0</ele><time>2026-04-04T10:29:37.999Z</time></trkpt><trkpt lat="43.38121359919563" lon="10.799693493322112"><ele>81.5</ele><time>2026-04-04T10:29:38.999Z</time></trkpt><trkpt lat="43.381028345013945" lon="10.799897031888218"><ele>80.0</ele><time>2026-04-04T10:29:39.999Z</time></trkpt><trkpt lat="43.38085051271676" lon="10.800088512241432"><ele>80.33333333333334</ele><time>2026-04-04T10:29:40.999Z</time></trkpt><trkpt lat="43.38066807815821" lon="10.800284984227703"><ele>80.66666666666667</ele><time>2026-04-04T10:29:41.999Z</time></trkpt><trkpt lat="43.38049781114434" lon="10.800468353730103"><ele>81.0</ele><time>2026-04-04T10:29:42.999Z</time></trkpt><trkpt lat="43.380332152218635" lon="10.800646759252166"><ele>80.33333333333333</ele><time>2026-04-04T10:29:43.999Z</time></trkpt><trkpt lat="43.38018146469369" lon="10.800798864363877"><ele>79.66666666666666</ele><time>2026-04-04T10:29:44.999Z</time></trkpt><trkpt lat="43.38002778931831" lon="10.800914594638899"><ele>79.0</ele><time>2026-04-04T10:29:45.999Z</time></trkpt><trkpt lat="43.37985826952578" lon="10.80096871888649"><ele>78.33333333333333</ele><time>2026-04-04T10:29:46.999Z</time></trkpt><trkpt lat="43.37967806647195" lon="10.800957969631812"><ele>77.66666666666667</ele><time>2026-04-04T10:29:47.999Z</time></trkpt><trkpt lat="43.379461264925176" lon="10.80091770627135"><ele>77.0</ele><time>2026-04-04T10:29:48.999Z</time></trkpt><trkpt lat="43.379228361349526" lon="10.800860164558749"><ele>77.0</ele><time>2026-04-04T10:29:49.999Z</time></trkpt><trkpt lat="43.37898376076644" lon="10.800800810868756"><ele>77.0</ele><time>2026-04-04T10:29:50.999Z</time></trkpt><trkpt lat="43.378732251705486" lon="10.800740125658583"><ele>77.5</ele><time>2026-04-04T10:29:51.999Z</time></trkpt><trkpt lat="43.37847478987144" lon="10.800678019765671"><ele>78.0</ele><time>2026-04-04T10:29:52.999Z</time></trkpt><trkpt lat="43.37821991733389" lon="10.80061702036553"><ele>77.0</ele><time>2026-04-04T10:29:53.999Z</time></trkpt><trkpt lat="43.37798491068816" lon="10.800561209085433"><ele>76.0</ele><time>2026-04-04T10:29:54.999Z</time></trkpt><trkpt lat="43.37776247660543" lon="10.800508647820006"><ele>76.0</ele><time>2026-04-04T10:29:55.999Z</time></trkpt><trkpt lat="43.377551972831405" lon="10.800458760373084"><ele>76.0</ele><time>2026-04-04T10:29:56.999Z</time></trkpt><trkpt lat="43.377347448410326" lon="10.80041004327588"><ele>76.0</ele><time>2026-04-04T10:29:57.999Z</time></trkpt><trkpt lat="43.377153883346715" lon="10.800365721710659"><ele>77.0</ele><time>2026-04-04T10:29:58.999Z</time></trkpt><trkpt lat="43.376950550419075" lon="10.800363048191853"><ele>78.0</ele><time>2026-04-04T10:29:59.999Z</time></trkpt><trkpt lat="43.3767431303173" lon="10.800385019467765"><ele>79.0</ele><time>2026-04-04T10:30:00.999Z</time></trkpt><trkpt lat="43.37653973713185" lon="10.800450119676665"><ele>78.0</ele><time>2026-04-04T10:30:01.999Z</time></trkpt><trkpt lat="43.37633525238036" lon="10.800562059237585"><ele>77.0</ele><time>2026-04-04T10:30:02.999Z</time></trkpt><trkpt lat="43.376113021641" lon="10.800697296505705"><ele>77.0</ele><time>2026-04-04T10:30:03.999Z</time></trkpt><trkpt lat="43.3758854180406" lon="10.800869952143076"><ele>77.0</ele><time>2026-04-04T10:30:04.999Z</time></trkpt><trkpt lat="43.3756497975646" lon="10.801048723830363"><ele>76.0</ele><time>2026-04-04T10:30:05.999Z</time></trkpt><trkpt lat="43.375406691863084" lon="10.801233434773772"><ele>75.0</ele><time>2026-04-04T10:30:06.999Z</time></trkpt><trkpt lat="43.37516345017111" lon="10.801418248879143"><ele>75.0</ele><time>2026-04-04T10:30:07.999Z</time></trkpt><trkpt lat="43.37491769694923" lon="10.801605089521082"><ele>75.0</ele><time>2026-04-04T10:30:08.999Z</time></trkpt><trkpt lat="43.37467232407055" lon="10.801792428112847"><ele>74.5</ele><time>2026-04-04T10:30:09.999Z</time></trkpt><trkpt lat="43.374435759105545" lon="10.80197304188322"><ele>74.0</ele><time>2026-04-04T10:30:10.999Z</time></trkpt><trkpt lat="43.374214358836866" lon="10.80214207771994"><ele>74.0</ele><time>2026-04-04T10:30:11.999Z</time></trkpt><trkpt lat="43.3739996407092" lon="10.802307644205351"><ele>74.0</ele><time>2026-04-04T10:30:12.999Z</time></trkpt><trkpt lat="43.37378333209872" lon="10.80247476691697"><ele>74.0</ele><time>2026-04-04T10:30:13.999Z</time></trkpt><trkpt lat="43.373560031954064" lon="10.80264470115176"><ele>74.0</ele><time>2026-04-04T10:30:14.999Z</time></trkpt><trkpt lat="43.373343566545124" lon="10.802809426687793"><ele>74.0</ele><time>2026-04-04T10:30:15.999Z</time></trkpt><trkpt lat="43.37313845860171" lon="10.80296550942004"><ele>74.0</ele><time>2026-04-04T10:30:16.999Z</time></trkpt><trkpt lat="43.37294335397801" lon="10.803113983932608"><ele>74.0</ele><time>2026-04-04T10:30:17.999Z</time></trkpt><trkpt lat="43.37275536304877" lon="10.803257045751183"><ele>74.0</ele><time>2026-04-04T10:30:18.999Z</time></trkpt><trkpt lat="43.37256514533582" lon="10.803404081583093"><ele>74.0</ele><time>2026-04-04T10:30:19.999Z</time></trkpt><trkpt lat="43.372395274237896" lon="10.80358144963438"><ele>74.0</ele><time>2026-04-04T10:30:20.999Z</time></trkpt><trkpt lat="43.37222276809356" lon="10.80371729482748"><ele>74.0</ele><time>2026-04-04T10:30:21.999Z</time></trkpt><trkpt lat="43.37205268325119" lon="10.803845391504982"><ele>74.0</ele><time>2026-04-04T10:30:22.999Z</time></trkpt><trkpt lat="43.37189264970694" lon="10.80397065943926"><ele>73.66666666666667</ele><time>2026-04-04T10:30:23.999Z</time></trkpt><trkpt lat="43.371724497099784" lon="10.804102676333367"><ele>73.33333333333333</ele><time>2026-04-04T10:30:24.999Z</time></trkpt><trkpt lat="43.371554754651314" lon="10.804226779415508"><ele>73.0</ele><time>2026-04-04T10:30:25.999Z</time></trkpt><trkpt lat="43.37138721470684" lon="10.804354091263063"><ele>73.33333333333333</ele><time>2026-04-04T10:30:26.999Z</time></trkpt><trkpt lat="43.37121917937257" lon="10.804483420026594"><ele>73.66666666666667</ele><time>2026-04-04T10:30:27.999Z</time></trkpt><trkpt lat="43.37105802271301" lon="10.804605708483862"><ele>74.0</ele><time>2026-04-04T10:30:28.999Z</time></trkpt><trkpt lat="43.37090176466506" lon="10.804724171747543"><ele>74.0</ele><time>2026-04-04T10:30:29.999Z</time></trkpt><trkpt lat="43.37074823742368" lon="10.80484150669835"><ele>74.0</ele><time>2026-04-04T10:30:30.999Z</time></trkpt><trkpt lat="43.37059710189831" lon="10.804953856448103"><ele>74.0</ele><time>2026-04-04T10:30:31.999Z</time></trkpt><trkpt lat="43.370444762158414" lon="10.805068374336512"><ele>73.0</ele><time>2026-04-04T10:30:32.999Z</time></trkpt><trkpt lat="43.37029493749106" lon="10.805183564687082"><ele>72.0</ele><time>2026-04-04T10:30:33.999Z</time></trkpt><trkpt lat="43.3701393268829" lon="10.805309460608711"><ele>71.0</ele><time>2026-04-04T10:30:34.999Z</time></trkpt><trkpt lat="43.369986947412855" lon="10.805453409840103"><ele>71.0</ele><time>2026-04-04T10:30:35.999Z</time></trkpt><trkpt lat="43.36983948175363" lon="10.805617305467202"><ele>71.0</ele><time>2026-04-04T10:30:36.999Z</time></trkpt><trkpt lat="43.369699777723376" lon="10.805806643015202"><ele>71.0</ele><time>2026-04-04T10:30:37.999Z</time></trkpt><trkpt lat="43.36955766668767" lon="10.80600572620528"><ele>71.0</ele><time>2026-04-04T10:30:38.999Z</time></trkpt><trkpt lat="43.369407258616334" lon="10.806205031388023"><ele>71.0</ele><time>2026-04-04T10:30:39.999Z</time></trkpt><trkpt lat="43.36925505419225" lon="10.806399715030388"><ele>71.0</ele><time>2026-04-04T10:30:40.999Z</time></trkpt><trkpt lat="43.36910185044963" lon="10.806601505999518"><ele>71.0</ele><time>2026-04-04T10:30:41.999Z</time></trkpt><trkpt lat="43.368950484131034" lon="10.806805898211362"><ele>71.0</ele><time>2026-04-04T10:30:42.999Z</time></trkpt><trkpt lat="43.36879405658423" lon="10.80700985889506"><ele>71.0</ele><time>2026-04-04T10:30:43.999Z</time></trkpt><trkpt lat="43.36864246518544" lon="10.807201044202708"><ele>71.66666666666667</ele><time>2026-04-04T10:30:44.999Z</time></trkpt><trkpt lat="43.36849931960189" lon="10.807378492439323"><ele>72.33333333333333</ele><time>2026-04-04T10:30:45.999Z</time></trkpt><trkpt lat="43.3683644047155" lon="10.807551245869957"><ele>73.0</ele><time>2026-04-04T10:30:46.999Z</time></trkpt><trkpt lat="43.36823510333524" lon="10.807717701339111"><ele>73.33333333333333</ele><time>2026-04-04T10:30:47.999Z</time></trkpt><trkpt lat="43.36810873322129" lon="10.807893506410364"><ele>73.66666666666667</ele><time>2026-04-04T10:30:48.999Z</time></trkpt><trkpt lat="43.3679696732197" lon="10.808068092516569"><ele>74.0</ele><time>2026-04-04T10:30:49.999Z</time></trkpt><trkpt lat="43.36781284735001" lon="10.808240310354844"><ele>74.0</ele><time>2026-04-04T10:30:50.999Z</time></trkpt><trkpt lat="43.367636890396284" lon="10.808395595067305"><ele>74.0</ele><time>2026-04-04T10:30:51.999Z</time></trkpt><trkpt lat="43.367445767698904" lon="10.808532747668108"><ele>74.0</ele><time>2026-04-04T10:30:52.999Z</time></trkpt><trkpt lat="43.36725612398565" lon="10.80866122572731"><ele>75.33333333333334</ele><time>2026-04-04T10:30:53.999Z</time></trkpt><trkpt lat="43.36708477042797" lon="10.8087849997939"><ele>76.66666666666667</ele><time>2026-04-04T10:30:54.999Z</time></trkpt><trkpt lat="43.36692716984595" lon="10.808905775055571"><ele>78.0</ele><time>2026-04-04T10:30:55.999Z</time></trkpt><trkpt lat="43.36678973150066" lon="10.809024256159478"><ele>78.0</ele><time>2026-04-04T10:30:56.999Z</time></trkpt><trkpt lat="43.36667969216584" lon="10.809160984452864"><ele>78.0</ele><time>2026-04-04T10:30:57.999Z</time></trkpt><trkpt lat="43.366580867782716" lon="10.80933618927253"><ele>78.0</ele><time>2026-04-04T10:30:58.999Z</time></trkpt><trkpt lat="43.36649985942627" lon="10.809528322084564"><ele>79.75</ele><time>2026-04-04T10:30:59.999Z</time></trkpt><trkpt lat="43.36643328799084" lon="10.809703673379751"><ele>81.5</ele><time>2026-04-04T10:31:00.999Z</time></trkpt><trkpt lat="43.366366450659946" lon="10.809852031271431"><ele>83.25</ele><time>2026-04-04T10:31:01.999Z</time></trkpt><trkpt lat="43.3663013793322" lon="10.809991404078783"><ele>85.0</ele><time>2026-04-04T10:31:02.999Z</time></trkpt><trkpt lat="43.366241921635535" lon="10.810120628153651"><ele>85.2</ele><time>2026-04-04T10:31:04Z</time></trkpt><trkpt lat="43.36617914680169" lon="10.810242738670205"><ele>85.4</ele><time>2026-04-04T10:31:05Z</time></trkpt><trkpt lat="43.366115723998846" lon="10.810373842965786"><ele>85.6</ele><time>2026-04-04T10:31:06Z</time></trkpt><trkpt lat="43.366056584784424" lon="10.810505409196738"><ele>85.8</ele><time>2026-04-04T10:31:07Z</time></trkpt><trkpt lat="43.366002604040254" lon="10.810617407652913"><ele>86.0</ele><time>2026-04-04T10:31:08Z</time></trkpt><trkpt lat="43.365951991776406" lon="10.810725376930254"><ele>86.0</ele><time>2026-04-04T10:31:09Z</time></trkpt><trkpt lat="43.36589646122136" lon="10.810830331698282"><ele>86.0</ele><time>2026-04-04T10:31:10Z</time></trkpt><trkpt lat="43.365828266347755" lon="10.81094449591085"><ele>86.0</ele><time>2026-04-04T10:31:11Z</time></trkpt><trkpt lat="43.36574469059599" lon="10.811050518408042"><ele>86.0</ele><time>2026-04-04T10:31:12Z</time></trkpt><trkpt lat="43.36565122818998" lon="10.81115062420924"><ele>86.0</ele><time>2026-04-04T10:31:13Z</time></trkpt><trkpt lat="43.36556567888716" lon="10.811247793678058"><ele>85.19999999999999</ele><time>2026-04-04T10:31:14Z</time></trkpt><trkpt lat="43.36548011858576" lon="10.81134424915237"><ele>84.39999999999999</ele><time>2026-04-04T10:31:15Z</time></trkpt><trkpt lat="43.36539911570479" lon="10.81143730033563"><ele>83.6</ele><time>2026-04-04T10:31:16Z</time></trkpt><trkpt lat="43.36531885762912" lon="10.81152731681425"><ele>82.8</ele><time>2026-04-04T10:31:17Z</time></trkpt><trkpt lat="43.36524047826398" lon="10.811614826393967"><ele>82.0</ele><time>2026-04-04T10:31:18Z</time></trkpt><trkpt lat="43.36516583274008" lon="10.811697389323223"><ele>82.0</ele><time>2026-04-04T10:31:19Z</time></trkpt><trkpt lat="43.36509365334653" lon="10.811778211452552"><ele>82.0</ele><time>2026-04-04T10:31:20Z</time></trkpt><trkpt lat="43.36502542984359" lon="10.811863472589124"><ele>82.0</ele><time>2026-04-04T10:31:21Z</time></trkpt><trkpt lat="43.364949869161464" lon="10.811948003010992"><ele>82.0</ele><time>2026-04-04T10:31:22Z</time></trkpt><trkpt lat="43.364869772145234" lon="10.81204208856874"><ele>82.0</ele><time>2026-04-04T10:31:23Z</time></trkpt><trkpt lat="43.36478778770919" lon="10.812136021506966"><ele>81.39999999999999</ele><time>2026-04-04T10:31:24Z</time></trkpt><trkpt lat="43.3646933968856" lon="10.81219209506191"><ele>80.8</ele><time>2026-04-04T10:31:25Z</time></trkpt><trkpt lat="43.36462274613548" lon="10.812272112872384"><ele>80.2</ele><time>2026-04-04T10:31:26Z</time></trkpt><trkpt lat="43.36455329451187" lon="10.812350011106052"><ele>79.6</ele><time>2026-04-04T10:31:27Z</time></trkpt><trkpt lat="43.36448087700388" lon="10.81242888029508"><ele>79.0</ele><time>2026-04-04T10:31:28Z</time></trkpt><trkpt lat="43.36440958486521" lon="10.812501411287595"><ele>79.0</ele><time>2026-04-04T10:31:29Z</time></trkpt><trkpt lat="43.364318067613155" lon="10.812553893380267"><ele>79.0</ele><time>2026-04-04T10:31:30Z</time></trkpt><trkpt lat="43.36422811956492" lon="10.81258278538257"><ele>79.0</ele><time>2026-04-04T10:31:31Z</time></trkpt><trkpt lat="43.36413393161432" lon="10.812601624284802"><ele>79.0</ele><time>2026-04-04T10:31:32Z</time></trkpt><trkpt lat="43.364045931936886" lon="10.812614014226996"><ele>79.0</ele><time>2026-04-04T10:31:33Z</time></trkpt><trkpt lat="43.36395653496401" lon="10.812625111305142"><ele>79.0</ele><time>2026-04-04T10:31:34Z</time></trkpt><trkpt lat="43.36387374813503" lon="10.81263970733339"><ele>79.0</ele><time>2026-04-04T10:31:35Z</time></trkpt><trkpt lat="43.3637983662809" lon="10.812680064525123"><ele>79.0</ele><time>2026-04-04T10:31:36Z</time></trkpt><trkpt lat="43.363714977065726" lon="10.812693347535768"><ele>79.0</ele><time>2026-04-04T10:31:37Z</time></trkpt><trkpt lat="43.36361536047959" lon="10.812642625655636"><ele>79.0</ele><time>2026-04-04T10:31:37.999Z</time></trkpt><trkpt lat="43.36350646823419" lon="10.812636515851885"><ele>79.0</ele><time>2026-04-04T10:31:38.999Z</time></trkpt><trkpt lat="43.363400945083676" lon="10.812635758638052"><ele>79.0</ele><time>2026-04-04T10:31:39.999Z</time></trkpt><trkpt lat="43.36327320440047" lon="10.812634922022003"><ele>79.0</ele><time>2026-04-04T10:31:40.999Z</time></trkpt><trkpt lat="43.36314698015773" lon="10.812634232692304"><ele>79.0</ele><time>2026-04-04T10:31:41.999Z</time></trkpt><trkpt lat="43.36301206287601" lon="10.812633495886063"><ele>79.0</ele><time>2026-04-04T10:31:42.999Z</time></trkpt><trkpt lat="43.36287603329812" lon="10.812632753007138"><ele>79.0</ele><time>2026-04-04T10:31:43.999Z</time></trkpt><trkpt lat="43.3627502989268" lon="10.812632476671903"><ele>79.0</ele><time>2026-04-04T10:31:44.999Z</time></trkpt><trkpt lat="43.362633212464765" lon="10.812632476671586"><ele>79.0</ele><time>2026-04-04T10:31:45.999Z</time></trkpt><trkpt lat="43.36251928213391" lon="10.812632476671103"><ele>78.25</ele><time>2026-04-04T10:31:46.999Z</time></trkpt><trkpt lat="43.36239856805353" lon="10.812673710013037"><ele>77.5</ele><time>2026-04-04T10:31:47.999Z</time></trkpt><trkpt lat="43.36227600331276" lon="10.812664949092637"><ele>76.75</ele><time>2026-04-04T10:31:48.999Z</time></trkpt><trkpt lat="43.362145745626044" lon="10.812650453762078"><ele>76.0</ele><time>2026-04-04T10:31:49.999Z</time></trkpt><trkpt lat="43.36202480000673" lon="10.812636139099414"><ele>76.0</ele><time>2026-04-04T10:31:50.999Z</time></trkpt><trkpt lat="43.36191093110794" lon="10.812559532490559"><ele>76.0</ele><time>2026-04-04T10:31:51.999Z</time></trkpt><trkpt lat="43.36179916309676" lon="10.812524281757414"><ele>76.0</ele><time>2026-04-04T10:31:52.999Z</time></trkpt><trkpt lat="43.361680045484455" lon="10.812466432171659"><ele>76.0</ele><time>2026-04-04T10:31:53.999Z</time></trkpt><trkpt lat="43.36156658708513" lon="10.812393320632903"><ele>76.0</ele><time>2026-04-04T10:31:54.999Z</time></trkpt><trkpt lat="43.36146146799359" lon="10.81231491003467"><ele>76.0</ele><time>2026-04-04T10:31:55.999Z</time></trkpt><trkpt lat="43.36136114162803" lon="10.812229821962156"><ele>76.0</ele><time>2026-04-04T10:31:56.999Z</time></trkpt><trkpt lat="43.36127093759641" lon="10.81213904730383"><ele>76.0</ele><time>2026-04-04T10:31:57.999Z</time></trkpt><trkpt lat="43.36119324643025" lon="10.81203615736991"><ele>75.75</ele><time>2026-04-04T10:31:58.999Z</time></trkpt><trkpt lat="43.361105398421934" lon="10.811905143794634"><ele>75.5</ele><time>2026-04-04T10:31:59.999Z</time></trkpt><trkpt lat="43.36101595348808" lon="10.811758847891472"><ele>75.25</ele><time>2026-04-04T10:32:00.999Z</time></trkpt><trkpt lat="43.360914510457086" lon="10.811609428541766"><ele>75.0</ele><time>2026-04-04T10:32:01.999Z</time></trkpt><trkpt lat="43.36082746023187" lon="10.81144271380574"><ele>75.0</ele><time>2026-04-04T10:32:02.999Z</time></trkpt><trkpt lat="43.360749355393644" lon="10.811288930727468"><ele>75.0</ele><time>2026-04-04T10:32:03.999Z</time></trkpt><trkpt lat="43.36067683438882" lon="10.81112989324907"><ele>75.0</ele><time>2026-04-04T10:32:04.999Z</time></trkpt><trkpt lat="43.3605998916923" lon="10.810968669953148"><ele>75.0</ele><time>2026-04-04T10:32:05.999Z</time></trkpt><trkpt lat="43.36054495955746" lon="10.810759245924336"><ele>74.0</ele><time>2026-04-04T10:32:06.999Z</time></trkpt><trkpt lat="43.360453156038645" lon="10.81051848459934"><ele>73.0</ele><time>2026-04-04T10:32:07.999Z</time></trkpt><trkpt lat="43.3603963879942" lon="10.810277659245857"><ele>72.0</ele><time>2026-04-04T10:32:08.999Z</time></trkpt><trkpt lat="43.36033110962399" lon="10.810066925778651"><ele>72.0</ele><time>2026-04-04T10:32:09.999Z</time></trkpt><trkpt lat="43.360269529202235" lon="10.809868130129013"><ele>72.0</ele><time>2026-04-04T10:32:10.999Z</time></trkpt><trkpt lat="43.360209545757925" lon="10.809679564052773"><ele>72.0</ele><time>2026-04-04T10:32:11.999Z</time></trkpt><trkpt lat="43.3601471010709" lon="10.809487209171767"><ele>72.5</ele><time>2026-04-04T10:32:12.999Z</time></trkpt><trkpt lat="43.36007678736364" lon="10.809307364984932"><ele>73.0</ele><time>2026-04-04T10:32:13.999Z</time></trkpt><trkpt lat="43.36001911908971" lon="10.80913051120953"><ele>73.5</ele><time>2026-04-04T10:32:14.999Z</time></trkpt><trkpt lat="43.35995873734696" lon="10.808941235124463"><ele>74.0</ele><time>2026-04-04T10:32:15.999Z</time></trkpt><trkpt lat="43.35990646966064" lon="10.808738114570817"><ele>74.0</ele><time>2026-04-04T10:32:16.999Z</time></trkpt><trkpt lat="43.35984040917763" lon="10.808525357807632"><ele>74.0</ele><time>2026-04-04T10:32:17.999Z</time></trkpt><trkpt lat="43.35977256325694" lon="10.808306850788405"><ele>74.0</ele><time>2026-04-04T10:32:18.999Z</time></trkpt><trkpt lat="43.359690612413395" lon="10.808090614943197"><ele>72.66666666666667</ele><time>2026-04-04T10:32:19.999Z</time></trkpt><trkpt lat="43.35963413184905" lon="10.807851226032545"><ele>71.33333333333333</ele><time>2026-04-04T10:32:20.999Z</time></trkpt><trkpt lat="43.35956302740751" lon="10.807616576483822"><ele>70.0</ele><time>2026-04-04T10:32:21.999Z</time></trkpt><trkpt lat="43.359497205031936" lon="10.807399358100696"><ele>70.0</ele><time>2026-04-04T10:32:22.999Z</time></trkpt><trkpt lat="43.359432427590875" lon="10.80718820927911"><ele>70.0</ele><time>2026-04-04T10:32:23.999Z</time></trkpt><trkpt lat="43.35936940959328" lon="10.806985058046477"><ele>70.0</ele><time>2026-04-04T10:32:24.999Z</time></trkpt><trkpt lat="43.35930834036755" lon="10.806785832766485"><ele>69.75</ele><time>2026-04-04T10:32:25.999Z</time></trkpt><trkpt lat="43.35925466162832" lon="10.806597512827759"><ele>69.5</ele><time>2026-04-04T10:32:26.999Z</time></trkpt><trkpt lat="43.35921327326065" lon="10.80640908126579"><ele>69.25</ele><time>2026-04-04T10:32:27.999Z</time></trkpt><trkpt lat="43.35920451394192" lon="10.806228057837988"><ele>69.0</ele><time>2026-04-04T10:32:28.999Z</time></trkpt><trkpt lat="43.359243001764916" lon="10.8060090700368"><ele>69.0</ele><time>2026-04-04T10:32:29.999Z</time></trkpt><trkpt lat="43.35927286322093" lon="10.805753615155291"><ele>69.0</ele><time>2026-04-04T10:32:30.999Z</time></trkpt><trkpt lat="43.35930509077331" lon="10.805478002816558"><ele>69.0</ele><time>2026-04-04T10:32:31.999Z</time></trkpt><trkpt lat="43.359339354816626" lon="10.80518536743467"><ele>68.33333333333333</ele><time>2026-04-04T10:32:32.999Z</time></trkpt><trkpt lat="43.35936251935595" lon="10.804887853684932"><ele>67.66666666666666</ele><time>2026-04-04T10:32:33.999Z</time></trkpt><trkpt lat="43.35939519219515" lon="10.804615039276168"><ele>67.0</ele><time>2026-04-04T10:32:34.999Z</time></trkpt><trkpt lat="43.35942698540167" lon="10.804359299081982"><ele>66.33333333333333</ele><time>2026-04-04T10:32:35.999Z</time></trkpt><trkpt lat="43.35945389343146" lon="10.804120861375235"><ele>65.66666666666667</ele><time>2026-04-04T10:32:36.999Z</time></trkpt><trkpt lat="43.35947117383985" lon="10.8038888838374"><ele>65.0</ele><time>2026-04-04T10:32:37.999Z</time></trkpt><trkpt lat="43.359460488505036" lon="10.803641170233863"><ele>65.33333333333334</ele><time>2026-04-04T10:32:38.999Z</time></trkpt><trkpt lat="43.35941532084854" lon="10.803387574303361"><ele>65.66666666666667</ele><time>2026-04-04T10:32:39.999Z</time></trkpt><trkpt lat="43.35936773081405" lon="10.80315594910648"><ele>66.0</ele><time>2026-04-04T10:32:40.999Z</time></trkpt><trkpt lat="43.359315895403945" lon="10.802939005482074"><ele>66.0</ele><time>2026-04-04T10:32:41.999Z</time></trkpt><trkpt lat="43.35923641010684" lon="10.802727130091435"><ele>66.0</ele><time>2026-04-04T10:32:42.999Z</time></trkpt><trkpt lat="43.3591320195464" lon="10.802516626898798"><ele>66.0</ele><time>2026-04-04T10:32:43.999Z</time></trkpt><trkpt lat="43.35901833672121" lon="10.80233705304791"><ele>65.66666666666667</ele><time>2026-04-04T10:32:44.999Z</time></trkpt><trkpt lat="43.35890440502125" lon="10.802186506666752"><ele>65.33333333333334</ele><time>2026-04-04T10:32:45.999Z</time></trkpt><trkpt lat="43.358810919470294" lon="10.80201621371743"><ele>65.0</ele><time>2026-04-04T10:32:46.999Z</time></trkpt><trkpt lat="43.35869957135647" lon="10.801844606172823"><ele>65.66666666666667</ele><time>2026-04-04T10:32:47.999Z</time></trkpt><trkpt lat="43.35858628895578" lon="10.801669494241773"><ele>66.33333333333333</ele><time>2026-04-04T10:32:48.999Z</time></trkpt><trkpt lat="43.35847575886913" lon="10.801490400613888"><ele>67.0</ele><time>2026-04-04T10:32:49.999Z</time></trkpt><trkpt lat="43.35837532927773" lon="10.801313297617721"><ele>67.0</ele><time>2026-04-04T10:32:50.999Z</time></trkpt><trkpt lat="43.358291193308546" lon="10.801131140022436"><ele>67.0</ele><time>2026-04-04T10:32:51.999Z</time></trkpt><trkpt lat="43.35821125389791" lon="10.800923427609781"><ele>67.0</ele><time>2026-04-04T10:32:52.999Z</time></trkpt><trkpt lat="43.35813138904886" lon="10.800697562621243"><ele>66.33333333333333</ele><time>2026-04-04T10:32:53.999Z</time></trkpt><trkpt lat="43.358052022638944" lon="10.800459033375896"><ele>65.66666666666667</ele><time>2026-04-04T10:32:54.999Z</time></trkpt><trkpt lat="43.35797467673963" lon="10.800215440461379"><ele>65.0</ele><time>2026-04-04T10:32:55.999Z</time></trkpt><trkpt lat="43.35790006720159" lon="10.799975359089746"><ele>65.0</ele><time>2026-04-04T10:32:56.999Z</time></trkpt><trkpt lat="43.3578223871669" lon="10.799750138514561"><ele>65.0</ele><time>2026-04-04T10:32:57.999Z</time></trkpt><trkpt lat="43.357731202507686" lon="10.799545602532099"><ele>65.0</ele><time>2026-04-04T10:32:58.999Z</time></trkpt><trkpt lat="43.357641532210174" lon="10.799326896721809"><ele>65.66666666666667</ele><time>2026-04-04T10:32:59.999Z</time></trkpt><trkpt lat="43.35752702787111" lon="10.799111649514417"><ele>66.33333333333333</ele><time>2026-04-04T10:33:00.999Z</time></trkpt><trkpt lat="43.35740139393259" lon="10.798883093305454"><ele>67.0</ele><time>2026-04-04T10:33:01.999Z</time></trkpt><trkpt lat="43.357258321845286" lon="10.798666825797016"><ele>66.33333333333333</ele><time>2026-04-04T10:33:02.999Z</time></trkpt><trkpt lat="43.35711121143352" lon="10.79845377478005"><ele>65.66666666666667</ele><time>2026-04-04T10:33:03.999Z</time></trkpt><trkpt lat="43.35697741883496" lon="10.798229222379467"><ele>65.0</ele><time>2026-04-04T10:33:04.999Z</time></trkpt><trkpt lat="43.35685213727203" lon="10.797988907151506"><ele>65.0</ele><time>2026-04-04T10:33:05.999Z</time></trkpt><trkpt lat="43.356741935895705" lon="10.797744689905047"><ele>65.0</ele><time>2026-04-04T10:33:06.999Z</time></trkpt><trkpt lat="43.356645041214676" lon="10.797492805068678"><ele>65.0</ele><time>2026-04-04T10:33:07.999Z</time></trkpt><trkpt lat="43.35656184027434" lon="10.797236016581474"><ele>66.66666666666667</ele><time>2026-04-04T10:33:08.999Z</time></trkpt><trkpt lat="43.35648885060628" lon="10.796974795387197"><ele>68.33333333333333</ele><time>2026-04-04T10:33:10Z</time></trkpt><trkpt lat="43.3564278155254" lon="10.796693211417962"><ele>70.0</ele><time>2026-04-04T10:33:11Z</time></trkpt><trkpt lat="43.35638044519253" lon="10.7963898486512"><ele>66.0</ele><time>2026-04-04T10:33:12Z</time></trkpt><trkpt lat="43.35632877598834" lon="10.796077150131117"><ele>62.0</ele><time>2026-04-04T10:33:13Z</time></trkpt><trkpt lat="43.3563171591203" lon="10.795757266417795"><ele>62.0</ele><time>2026-04-04T10:33:14Z</time></trkpt><trkpt lat="43.35631911465674" lon="10.79542415603308"><ele>62.0</ele><time>2026-04-04T10:33:15Z</time></trkpt><trkpt lat="43.356340188771355" lon="10.79508874059264"><ele>62.5</ele><time>2026-04-04T10:33:16Z</time></trkpt><trkpt lat="43.3563814414513" lon="10.794739157721626"><ele>63.0</ele><time>2026-04-04T10:33:17Z</time></trkpt><trkpt lat="43.356440109897044" lon="10.794383590428975"><ele>62.0</ele><time>2026-04-04T10:33:18Z</time></trkpt><trkpt lat="43.35651383598768" lon="10.794020512628128"><ele>61.0</ele><time>2026-04-04T10:33:19Z</time></trkpt><trkpt lat="43.35659551513971" lon="10.79366377458266"><ele>60.5</ele><time>2026-04-04T10:33:20Z</time></trkpt><trkpt lat="43.35667910118757" lon="10.793307462089345"><ele>60.0</ele><time>2026-04-04T10:33:21Z</time></trkpt><trkpt lat="43.35675851017544" lon="10.792955425122004"><ele>59.0</ele><time>2026-04-04T10:33:22Z</time></trkpt><trkpt lat="43.35683766949905" lon="10.792599636602425"><ele>58.0</ele><time>2026-04-04T10:33:23Z</time></trkpt><trkpt lat="43.356912656908065" lon="10.792255536542381"><ele>58.0</ele><time>2026-04-04T10:33:24Z</time></trkpt><trkpt lat="43.35698579513506" lon="10.79192358772233"><ele>58.0</ele><time>2026-04-04T10:33:25Z</time></trkpt><trkpt lat="43.35705294871817" lon="10.791583150419008"><ele>58.5</ele><time>2026-04-04T10:33:26Z</time></trkpt><trkpt lat="43.357110983684834" lon="10.791228170684894"><ele>59.0</ele><time>2026-04-04T10:33:27Z</time></trkpt><trkpt lat="43.357163956126044" lon="10.790867118956788"><ele>60.0</ele><time>2026-04-04T10:33:28Z</time></trkpt><trkpt lat="43.35721000505492" lon="10.790502213164899"><ele>61.0</ele><time>2026-04-04T10:33:29Z</time></trkpt><trkpt lat="43.35724597151663" lon="10.790133912280236"><ele>62.0</ele><time>2026-04-04T10:33:30Z</time></trkpt><trkpt lat="43.35726926340351" lon="10.789767547211541"><ele>63.0</ele><time>2026-04-04T10:33:31Z</time></trkpt><trkpt lat="43.35728356521674" lon="10.789401191322249"><ele>66.0</ele><time>2026-04-04T10:33:32Z</time></trkpt><trkpt lat="43.35729018894558" lon="10.789036598664858"><ele>69.0</ele><time>2026-04-04T10:33:33Z</time></trkpt><trkpt lat="43.35728792043798" lon="10.788672211544581"><ele>67.5</ele><time>2026-04-04T10:33:34Z</time></trkpt><trkpt lat="43.35727399907619" lon="10.788306873666526"><ele>66.0</ele><time>2026-04-04T10:33:35Z</time></trkpt><trkpt lat="43.357252242926386" lon="10.787949545991983"><ele>64.5</ele><time>2026-04-04T10:33:36Z</time></trkpt><trkpt lat="43.35725943798753" lon="10.7876062943747"><ele>63.0</ele><time>2026-04-04T10:33:37Z</time></trkpt><trkpt lat="43.3571957885654" lon="10.787260822865957"><ele>61.5</ele><time>2026-04-04T10:33:38Z</time></trkpt><trkpt lat="43.35715054869532" lon="10.786907943732611"><ele>60.0</ele><time>2026-04-04T10:33:39Z</time></trkpt><trkpt lat="43.357098271313895" lon="10.786547556191186"><ele>60.0</ele><time>2026-04-04T10:33:40Z</time></trkpt><trkpt lat="43.35704364296374" lon="10.786179446916393"><ele>60.0</ele><time>2026-04-04T10:33:41Z</time></trkpt><trkpt lat="43.35699000292928" lon="10.785806896721738"><ele>60.0</ele><time>2026-04-04T10:33:42Z</time></trkpt><trkpt lat="43.35693655282169" lon="10.78543272186488"><ele>60.0</ele><time>2026-04-04T10:33:42.999Z</time></trkpt><trkpt lat="43.35687835012228" lon="10.785056054548097"><ele>60.0</ele><time>2026-04-04T10:33:43.999Z</time></trkpt><trkpt lat="43.356811272881544" lon="10.78466464588161"><ele>60.0</ele><time>2026-04-04T10:33:44.999Z</time></trkpt><trkpt lat="43.356744359841" lon="10.784261757262156"><ele>60.0</ele><time>2026-04-04T10:33:45.999Z</time></trkpt><trkpt lat="43.35668115989429" lon="10.78387044265676"><ele>60.0</ele><time>2026-04-04T10:33:46.999Z</time></trkpt><trkpt lat="43.35662712774562" lon="10.78350334589925"><ele>59.5</ele><time>2026-04-04T10:33:47.999Z</time></trkpt><trkpt lat="43.35657618505292" lon="10.783144635539939"><ele>59.0</ele><time>2026-04-04T10:33:48.999Z</time></trkpt><trkpt lat="43.356530773251585" lon="10.782787882454295"><ele>58.5</ele><time>2026-04-04T10:33:49.999Z</time></trkpt><trkpt lat="43.35649512682701" lon="10.78243078100864"><ele>58.0</ele><time>2026-04-04T10:33:50.999Z</time></trkpt><trkpt lat="43.35647407618521" lon="10.782079583627363"><ele>58.5</ele><time>2026-04-04T10:33:51.999Z</time></trkpt><trkpt lat="43.35645787893551" lon="10.781717076387674"><ele>59.0</ele><time>2026-04-04T10:33:52.999Z</time></trkpt><trkpt lat="43.35644813697917" lon="10.78134744488658"><ele>59.5</ele><time>2026-04-04T10:33:53.999Z</time></trkpt><trkpt lat="43.35644029286231" lon="10.780986484102554"><ele>60.0</ele><time>2026-04-04T10:33:54.999Z</time></trkpt><trkpt lat="43.356431946813636" lon="10.78064521865609"><ele>60.0</ele><time>2026-04-04T10:33:55.999Z</time></trkpt><trkpt lat="43.3564221474039" lon="10.780309012522348"><ele>60.0</ele><time>2026-04-04T10:33:56.999Z</time></trkpt><trkpt lat="43.35641227459229" lon="10.779978357229906"><ele>60.0</ele><time>2026-04-04T10:33:57.999Z</time></trkpt><trkpt lat="43.356405470362944" lon="10.779650396125225"><ele>60.0</ele><time>2026-04-04T10:33:58.999Z</time></trkpt><trkpt lat="43.35638982618169" lon="10.779339730736952"><ele>59.33333333333333</ele><time>2026-04-04T10:33:59.999Z</time></trkpt><trkpt lat="43.35636697867452" lon="10.779041840764338"><ele>58.666666666666664</ele><time>2026-04-04T10:34:00.999Z</time></trkpt><trkpt lat="43.356331915681864" lon="10.778749434443146"><ele>58.0</ele><time>2026-04-04T10:34:01.999Z</time></trkpt><trkpt lat="43.356289485523014" lon="10.778487435429923"><ele>58.0</ele><time>2026-04-04T10:34:02.999Z</time></trkpt><trkpt lat="43.356232285958214" lon="10.778233495247598"><ele>58.0</ele><time>2026-04-04T10:34:03.999Z</time></trkpt><trkpt lat="43.35616104658896" lon="10.777998731530303"><ele>58.0</ele><time>2026-04-04T10:34:04.999Z</time></trkpt><trkpt lat="43.356069329429694" lon="10.777777606236953"><ele>59.33333333333333</ele><time>2026-04-04T10:34:05.999Z</time></trkpt><trkpt lat="43.35595316522414" lon="10.777552440882918"><ele>60.66666666666667</ele><time>2026-04-04T10:34:06.999Z</time></trkpt><trkpt lat="43.35582534087585" lon="10.777327494378092"><ele>62.0</ele><time>2026-04-04T10:34:07.999Z</time></trkpt><trkpt lat="43.35569127636775" lon="10.777128498525169"><ele>62.0</ele><time>2026-04-04T10:34:08.999Z</time></trkpt><trkpt lat="43.35554203233671" lon="10.776963780879278"><ele>62.0</ele><time>2026-04-04T10:34:09.999Z</time></trkpt><trkpt lat="43.35539229237717" lon="10.776809504917956"><ele>62.0</ele><time>2026-04-04T10:34:10.999Z</time></trkpt><trkpt lat="43.3552238038997" lon="10.776687295082418"><ele>61.0</ele><time>2026-04-04T10:34:11.999Z</time></trkpt><trkpt lat="43.35503436473983" lon="10.776583075073638"><ele>60.0</ele><time>2026-04-04T10:34:12.999Z</time></trkpt><trkpt lat="43.35482940405551" lon="10.77646403894972"><ele>59.0</ele><time>2026-04-04T10:34:13.999Z</time></trkpt><trkpt lat="43.35464540352187" lon="10.776346685044944"><ele>58.333333333333336</ele><time>2026-04-04T10:34:14.999Z</time></trkpt><trkpt lat="43.354490048351494" lon="10.776235775511868"><ele>57.66666666666667</ele><time>2026-04-04T10:34:15.999Z</time></trkpt><trkpt lat="43.35434743081349" lon="10.776143861527505"><ele>57.0</ele><time>2026-04-04T10:34:16.999Z</time></trkpt><trkpt lat="43.354205289469526" lon="10.776059736150012"><ele>56.66666666666667</ele><time>2026-04-04T10:34:17.999Z</time></trkpt><trkpt lat="43.354056656657605" lon="10.775971121570425"><ele>56.333333333333336</ele><time>2026-04-04T10:34:18.999Z</time></trkpt><trkpt lat="43.353901152322365" lon="10.775865138291511"><ele>56.0</ele><time>2026-04-04T10:34:19.999Z</time></trkpt><trkpt lat="43.35375042736804" lon="10.775732274694791"><ele>56.0</ele><time>2026-04-04T10:34:20.999Z</time></trkpt><trkpt lat="43.353609994661234" lon="10.77556164253444"><ele>56.0</ele><time>2026-04-04T10:34:21.999Z</time></trkpt><trkpt lat="43.35346509380855" lon="10.775356854149205"><ele>56.0</ele><time>2026-04-04T10:34:22.999Z</time></trkpt><trkpt lat="43.35332012962205" lon="10.775115818463172"><ele>56.5</ele><time>2026-04-04T10:34:23.999Z</time></trkpt><trkpt lat="43.35317959098355" lon="10.77483903267214"><ele>57.0</ele><time>2026-04-04T10:34:24.999Z</time></trkpt><trkpt lat="43.35302757823003" lon="10.774550777468228"><ele>56.5</ele><time>2026-04-04T10:34:25.999Z</time></trkpt><trkpt lat="43.35287135334112" lon="10.774287612232298"><ele>56.0</ele><time>2026-04-04T10:34:26.999Z</time></trkpt><trkpt lat="43.35272062549077" lon="10.774033202391411"><ele>56.0</ele><time>2026-04-04T10:34:27.999Z</time></trkpt><trkpt lat="43.352569690267245" lon="10.773774339616892"><ele>56.0</ele><time>2026-04-04T10:34:28.999Z</time></trkpt><trkpt lat="43.35240789944894" lon="10.773504087013567"><ele>56.5</ele><time>2026-04-04T10:34:29.999Z</time></trkpt><trkpt lat="43.352235430996096" lon="10.773214155122428"><ele>57.0</ele><time>2026-04-04T10:34:30.999Z</time></trkpt><trkpt lat="43.35206064001405" lon="10.772914801234888"><ele>56.0</ele><time>2026-04-04T10:34:31.999Z</time></trkpt><trkpt lat="43.35190203783635" lon="10.772631191630325"><ele>55.0</ele><time>2026-04-04T10:34:32.999Z</time></trkpt><trkpt lat="43.35176278308873" lon="10.772381764909474"><ele>55.0</ele><time>2026-04-04T10:34:33.999Z</time></trkpt><trkpt lat="43.35162251547528" lon="10.772141225568204"><ele>55.0</ele><time>2026-04-04T10:34:34.999Z</time></trkpt><trkpt lat="43.351490503443344" lon="10.771914793461727"><ele>55.0</ele><time>2026-04-04T10:34:35.999Z</time></trkpt><trkpt lat="43.35135269814012" lon="10.771692208063126"><ele>54.5</ele><time>2026-04-04T10:34:36.999Z</time></trkpt><trkpt lat="43.35120621024179" lon="10.771458542074775"><ele>54.0</ele><time>2026-04-04T10:34:37.999Z</time></trkpt><trkpt lat="43.35105262804948" lon="10.771200784976653"><ele>55.5</ele><time>2026-04-04T10:34:38.999Z</time></trkpt><trkpt lat="43.35090587585017" lon="10.770926092580016"><ele>57.0</ele><time>2026-04-04T10:34:39.999Z</time></trkpt><trkpt lat="43.35075759508564" lon="10.770637009354727"><ele>57.0</ele><time>2026-04-04T10:34:40.999Z</time></trkpt><trkpt lat="43.35060524112545" lon="10.770345011245443"><ele>57.0</ele><time>2026-04-04T10:34:41.999Z</time></trkpt><trkpt lat="43.35048580156386" lon="10.770054688156732"><ele>56.5</ele><time>2026-04-04T10:34:42.999Z</time></trkpt><trkpt lat="43.35035437140067" lon="10.769790512776899"><ele>56.0</ele><time>2026-04-04T10:34:43.999Z</time></trkpt><trkpt lat="43.35022967343031" lon="10.769538610206151"><ele>56.0</ele><time>2026-04-04T10:34:44.999Z</time></trkpt><trkpt lat="43.35010547516703" lon="10.769287717010904"><ele>56.0</ele><time>2026-04-04T10:34:45.999Z</time></trkpt><trkpt lat="43.34998669878007" lon="10.769047776624369"><ele>56.0</ele><time>2026-04-04T10:34:46.999Z</time></trkpt><trkpt lat="43.3498741913809" lon="10.768820500079935"><ele>56.0</ele><time>2026-04-04T10:34:47.999Z</time></trkpt><trkpt lat="43.34976057358901" lon="10.768585985244098"><ele>56.0</ele><time>2026-04-04T10:34:48.999Z</time></trkpt><trkpt lat="43.3496638148188" lon="10.768340663755538"><ele>56.0</ele><time>2026-04-04T10:34:49.999Z</time></trkpt><trkpt lat="43.34959780885054" lon="10.768087028559222"><ele>55.66666666666667</ele><time>2026-04-04T10:34:50.999Z</time></trkpt><trkpt lat="43.34954892876259" lon="10.767846299650737"><ele>55.33333333333333</ele><time>2026-04-04T10:34:51.999Z</time></trkpt><trkpt lat="43.34949955492475" lon="10.767628606500006"><ele>55.0</ele><time>2026-04-04T10:34:52.999Z</time></trkpt><trkpt lat="43.34947949151094" lon="10.767404539551787"><ele>55.0</ele><time>2026-04-04T10:34:53.999Z</time></trkpt><trkpt lat="43.349473159663916" lon="10.767201006800294"><ele>55.0</ele><time>2026-04-04T10:34:54.999Z</time></trkpt><trkpt lat="43.34949578535489" lon="10.767011514161211"><ele>55.0</ele><time>2026-04-04T10:34:55.999Z</time></trkpt><trkpt lat="43.34950258549484" lon="10.766830451613849"><ele>55.0</ele><time>2026-04-04T10:34:56.999Z</time></trkpt><trkpt lat="43.34951253296464" lon="10.766657136820209"><ele>55.25</ele><time>2026-04-04T10:34:57.999Z</time></trkpt><trkpt lat="43.349480947099295" lon="10.766486469336206"><ele>55.5</ele><time>2026-04-04T10:34:58.999Z</time></trkpt><trkpt lat="43.349432622116275" lon="10.766325671803644"><ele>55.75</ele><time>2026-04-04T10:34:59.999Z</time></trkpt><trkpt lat="43.349344031199294" lon="10.76617209171253"><ele>56.0</ele><time>2026-04-04T10:35:00.999Z</time></trkpt><trkpt lat="43.349238759612746" lon="10.766021134287158"><ele>57.66666666666667</ele><time>2026-04-04T10:35:01.999Z</time></trkpt><trkpt lat="43.34912722532253" lon="10.76586431719481"><ele>59.33333333333333</ele><time>2026-04-04T10:35:02.999Z</time></trkpt><trkpt lat="43.34902422727875" lon="10.765677043765251"><ele>61.0</ele><time>2026-04-04T10:35:03.999Z</time></trkpt><trkpt lat="43.34890830879213" lon="10.765484979461762"><ele>60.666666666666664</ele><time>2026-04-04T10:35:04.999Z</time></trkpt><trkpt lat="43.34878857816946" lon="10.765274239624746"><ele>60.33333333333333</ele><time>2026-04-04T10:35:05.999Z</time></trkpt><trkpt lat="43.34868386166597" lon="10.765068951779863"><ele>60.0</ele><time>2026-04-04T10:35:06.999Z</time></trkpt><trkpt lat="43.34859870164621" lon="10.764882549857964"><ele>60.0</ele><time>2026-04-04T10:35:07.999Z</time></trkpt><trkpt lat="43.34851461106716" lon="10.764700201631035"><ele>60.0</ele><time>2026-04-04T10:35:08.999Z</time></trkpt><trkpt lat="43.34845364624802" lon="10.764506405368449"><ele>60.0</ele><time>2026-04-04T10:35:09.999Z</time></trkpt><trkpt lat="43.34838742649256" lon="10.764305783558264"><ele>61.66666666666667</ele><time>2026-04-04T10:35:10.999Z</time></trkpt><trkpt lat="43.34832172792701" lon="10.764111305464324"><ele>63.333333333333336</ele><time>2026-04-04T10:35:11.999Z</time></trkpt><trkpt lat="43.34825318336534" lon="10.763909536784768"><ele>65.0</ele><time>2026-04-04T10:35:12.999Z</time></trkpt><trkpt lat="43.34818538247625" lon="10.763686311002633"><ele>65.66666666666667</ele><time>2026-04-04T10:35:13.999Z</time></trkpt><trkpt lat="43.348113310472016" lon="10.763457553303029"><ele>66.33333333333333</ele><time>2026-04-04T10:35:14.999Z</time></trkpt><trkpt lat="43.34803155266838" lon="10.763208254452133"><ele>67.0</ele><time>2026-04-04T10:35:16Z</time></trkpt><trkpt lat="43.34794791853934" lon="10.762941931197949"><ele>64.0</ele><time>2026-04-04T10:35:17Z</time></trkpt><trkpt lat="43.3478879814727" lon="10.762672440180129"><ele>61.0</ele><time>2026-04-04T10:35:18Z</time></trkpt><trkpt lat="43.347858086924525" lon="10.76238955917623"><ele>58.0</ele><time>2026-04-04T10:35:19Z</time></trkpt><trkpt lat="43.34781586504093" lon="10.762083529622748"><ele>58.0</ele><time>2026-04-04T10:35:20Z</time></trkpt><trkpt lat="43.34771416482704" lon="10.76187237702841"><ele>58.0</ele><time>2026-04-04T10:35:21Z</time></trkpt><trkpt lat="43.347657402024225" lon="10.76153874875616"><ele>58.0</ele><time>2026-04-04T10:35:22Z</time></trkpt><trkpt lat="43.347632912311084" lon="10.761184575853463"><ele>58.0</ele><time>2026-04-04T10:35:23Z</time></trkpt><trkpt lat="43.3475791229297" lon="10.76081987683553"><ele>58.0</ele><time>2026-04-04T10:35:24Z</time></trkpt><trkpt lat="43.34754270805606" lon="10.760463801897947"><ele>57.0</ele><time>2026-04-04T10:35:25Z</time></trkpt><trkpt lat="43.34750406956897" lon="10.760135174354751"><ele>56.0</ele><time>2026-04-04T10:35:26Z</time></trkpt><trkpt lat="43.347454492922026" lon="10.759832715609596"><ele>56.0</ele><time>2026-04-04T10:35:27Z</time></trkpt><trkpt lat="43.34736554018703" lon="10.759538999624711"><ele>56.0</ele><time>2026-04-04T10:35:28Z</time></trkpt><trkpt lat="43.347245919570206" lon="10.759240703529727"><ele>56.5</ele><time>2026-04-04T10:35:29Z</time></trkpt><trkpt lat="43.34709820697893" lon="10.758952072606403"><ele>57.0</ele><time>2026-04-04T10:35:30Z</time></trkpt><trkpt lat="43.34693519061762" lon="10.758660937369983"><ele>59.0</ele><time>2026-04-04T10:35:31Z</time></trkpt><trkpt lat="43.34677103868855" lon="10.758369946160814"><ele>61.0</ele><time>2026-04-04T10:35:32Z</time></trkpt><trkpt lat="43.34660782169864" lon="10.75808021323687"><ele>61.0</ele><time>2026-04-04T10:35:33Z</time></trkpt><trkpt lat="43.34645010721967" lon="10.757802484489673"><ele>61.0</ele><time>2026-04-04T10:35:34Z</time></trkpt><trkpt lat="43.346316010499166" lon="10.757551470652002"><ele>59.666666666666664</ele><time>2026-04-04T10:35:35Z</time></trkpt><trkpt lat="43.34619400675014" lon="10.757325064910804"><ele>58.33333333333333</ele><time>2026-04-04T10:35:36Z</time></trkpt><trkpt lat="43.34606743956602" lon="10.75711147825429"><ele>57.0</ele><time>2026-04-04T10:35:37Z</time></trkpt><trkpt lat="43.345940410998615" lon="10.756906977552275"><ele>57.0</ele><time>2026-04-04T10:35:38Z</time></trkpt><trkpt lat="43.345825001168855" lon="10.756712721476145"><ele>57.0</ele><time>2026-04-04T10:35:39Z</time></trkpt><trkpt lat="43.345703691923084" lon="10.756556014655715"><ele>57.0</ele><time>2026-04-04T10:35:40Z</time></trkpt><trkpt lat="43.345585538327704" lon="10.756405205985203"><ele>56.8</ele><time>2026-04-04T10:35:41Z</time></trkpt><trkpt lat="43.345476485684614" lon="10.756269041807949"><ele>56.6</ele><time>2026-04-04T10:35:42Z</time></trkpt><trkpt lat="43.34539559575489" lon="10.756168042319853"><ele>56.39999999999999</ele><time>2026-04-04T10:35:43Z</time></trkpt><trkpt lat="43.34532604680395" lon="10.75608120349688"><ele>56.199999999999996</ele><time>2026-04-04T10:35:44Z</time></trkpt><trkpt lat="43.34527109252259" lon="10.756010098123824"><ele>56.0</ele><time>2026-04-04T10:35:45Z</time></trkpt><trkpt lat="43.345223410115366" lon="10.755940007963853"><ele>56.00000000000001</ele><time>2026-04-04T10:35:46Z</time></trkpt><trkpt lat="43.34518331705973" lon="10.755862453787723"><ele>56.0</ele><time>2026-04-04T10:35:47Z</time></trkpt><trkpt lat="43.34518686408097" lon="10.755755482892202"><ele>56.0</ele><time>2026-04-04T10:35:47.999Z</time></trkpt><trkpt lat="43.345229791306316" lon="10.755632705342084"><ele>56.0</ele><time>2026-04-04T10:35:48.999Z</time></trkpt><trkpt lat="43.3452784754015" lon="10.7555250872806"><ele>56.00000000000001</ele><time>2026-04-04T10:35:49.999Z</time></trkpt><trkpt lat="43.34529760765124" lon="10.755420025010432"><ele>56.0</ele><time>2026-04-04T10:35:50.999Z</time></trkpt><trkpt lat="43.34526670283012" lon="10.755311818054127"><ele>56.0</ele><time>2026-04-04T10:35:51.999Z</time></trkpt><trkpt lat="43.34520083180473" lon="10.75522889326639"><ele>55.99999999999999</ele><time>2026-04-04T10:35:52.999Z</time></trkpt><trkpt lat="43.345121299732476" lon="10.755186703992665"><ele>55.99999999999999</ele><time>2026-04-04T10:35:53.999Z</time></trkpt><trkpt lat="43.34503371849494" lon="10.755145848181758"><ele>56.0</ele><time>2026-04-04T10:35:54.999Z</time></trkpt><trkpt lat="43.344954056488795" lon="10.755058122448412"><ele>56.0</ele><time>2026-04-04T10:35:55.999Z</time></trkpt><trkpt lat="43.344881354643455" lon="10.754921845767655"><ele>56.0</ele><time>2026-04-04T10:35:56.999Z</time></trkpt><trkpt lat="43.34487407046091" lon="10.754734091587435"><ele>56.0</ele><time>2026-04-04T10:35:57.999Z</time></trkpt><trkpt lat="43.34482976799905" lon="10.75454990320808"><ele>56.0</ele><time>2026-04-04T10:35:58.999Z</time></trkpt><trkpt lat="43.344788606222174" lon="10.7543892700635"><ele>56.0</ele><time>2026-04-04T10:35:59.999Z</time></trkpt><trkpt lat="43.3447397618917" lon="10.754269485049566"><ele>55.857142857142854</ele><time>2026-04-04T10:36:00.999Z</time></trkpt><trkpt lat="43.344712020749135" lon="10.754158327215828"><ele>55.714285714285715</ele><time>2026-04-04T10:36:01.999Z</time></trkpt><trkpt lat="43.344687184710885" lon="10.754056649815967"><ele>55.57142857142857</ele><time>2026-04-04T10:36:02.999Z</time></trkpt><trkpt lat="43.34465772927513" lon="10.75395815863658"><ele>55.42857142857143</ele><time>2026-04-04T10:36:03.999Z</time></trkpt><trkpt lat="43.34462266851778" lon="10.753870241036212"><ele>55.285714285714285</ele><time>2026-04-04T10:36:04.999Z</time></trkpt><trkpt lat="43.34459017652463" lon="10.753793457589515"><ele>55.14285714285714</ele><time>2026-04-04T10:36:05.999Z</time></trkpt><trkpt lat="43.3445567214414" lon="10.753719220920534"><ele>55.0</ele><time>2026-04-04T10:36:06.999Z</time></trkpt><trkpt lat="43.34452221803416" lon="10.75360850832178"><ele>55.28571428571428</ele><time>2026-04-04T10:36:08.999Z</time></trkpt><trkpt lat="43.34453380091473" lon="10.753485800759151"><ele>55.57142857142857</ele><time>2026-04-04T10:36:11.999Z</time></trkpt><trkpt lat="43.34452902927254" lon="10.753379859263065"><ele>55.857142857142854</ele><time>2026-04-04T10:36:14.999Z</time></trkpt><trkpt lat="43.34445948935972" lon="10.753355868229583"><ele>56.14285714285714</ele><time>2026-04-04T10:36:17.999Z</time></trkpt><trkpt lat="43.34450877205889" lon="10.753415172467156"><ele>56.42857142857142</ele><time>2026-04-04T10:41:51Z</time></trkpt><trkpt lat="43.3445636557821" lon="10.753472191822274"><ele>56.71428571428571</ele><time>2026-04-04T10:41:59Z</time></trkpt><trkpt lat="43.344617416255744" lon="10.753427017077057"><ele>57.0</ele><time>2026-04-04T10:42:08.999Z</time></trkpt><trkpt lat="43.344559329713206" lon="10.75335618104387"><ele>57.0</ele><time>2026-04-04T10:43:16.999Z</time></trkpt><trkpt lat="43.34458248938576" lon="10.753444030717375"><ele>56.99999999999999</ele><time>2026-04-04T10:48:56.999Z</time></trkpt><trkpt lat="43.344611421394376" lon="10.753521969628947"><ele>57.0</ele><time>2026-04-04T10:49:03.999Z</time></trkpt><trkpt lat="43.34466181216986" lon="10.753574926100049"><ele>57.0</ele><time>2026-04-04T10:49:15.999Z</time></trkpt><trkpt lat="43.344676563744166" lon="10.753472635643087"><ele>56.99999999999999</ele><time>2026-04-04T10:49:50.999Z</time></trkpt><trkpt lat="43.34468776129443" lon="10.753387024022897"><ele>57.0</ele><time>2026-04-04T10:49:55.999Z</time></trkpt><trkpt lat="43.344613540818706" lon="10.75341057189076"><ele>57.0</ele><time>2026-04-04T10:50:12Z</time></trkpt><trkpt lat="43.34462679037179" lon="10.753514557724474"><ele>57.0</ele><time>2026-04-04T10:50:37.999Z</time></trkpt><trkpt lat="43.344671434247914" lon="10.753432189754824"><ele>57.0</ele><time>2026-04-04T10:50:43.999Z</time></trkpt><trkpt lat="43.34475627414565" lon="10.753498544888204"><ele>57.0</ele><time>2026-04-04T10:50:57.999Z</time></trkpt><trkpt lat="43.344764177604254" lon="10.75359567778486"><ele>57.0</ele><time>2026-04-04T10:51:02.999Z</time></trkpt><trkpt lat="43.34473685649508" lon="10.753511436200546"><ele>57.0</ele><time>2026-04-04T10:51:58.999Z</time></trkpt><trkpt lat="43.344700886621986" lon="10.753596327338519"><ele>57.0</ele><time>2026-04-04T10:52:02.999Z</time></trkpt><trkpt lat="43.34468407498461" lon="10.753790651113363"><ele>57.0</ele><time>2026-04-04T10:52:22.428Z</time></trkpt><trkpt lat="43.34474543582122" lon="10.753746919362278"><ele>57.0</ele><time>2026-04-04T10:54:11.01Z</time></trkpt><trkpt lat="43.344680924439004" lon="10.753773124723086"><ele>57.0</ele><time>2026-04-04T10:54:56.582Z</time></trkpt><trkpt lat="43.34460889372044" lon="10.75369338988248"><ele>57.0</ele><time>2026-04-04T10:56:27.016Z</time></trkpt><trkpt lat="43.344576887439764" lon="10.753574816626692"><ele>57.0</ele><time>2026-04-04T10:56:29.017Z</time></trkpt><trkpt lat="43.34456612828095" lon="10.753475829938512"><ele>57.0</ele><time>2026-04-04T10:56:34.998Z</time></trkpt><trkpt lat="43.34454874087101" lon="10.753390935666578"><ele>57.0</ele><time>2026-04-04T10:56:44Z</time></trkpt><trkpt lat="43.344629400947035" lon="10.753417747003477"><ele>56.99999999999999</ele><time>2026-04-04T11:37:43.999Z</time></trkpt><trkpt lat="43.34456039026282" lon="10.753381837193945"><ele>57.0</ele><time>2026-04-04T11:39:45.999Z</time></trkpt><trkpt lat="43.344629149300765" lon="10.753401190273957"><ele>57.0</ele><time>2026-04-04T11:40:33.999Z</time></trkpt><trkpt lat="43.34460232656287" lon="10.753489761097073"><ele>56.99999999999999</ele><time>2026-04-04T11:40:42Z</time></trkpt><trkpt lat="43.344531688541046" lon="10.753483000344344"><ele>57.0</ele><time>2026-04-04T11:40:49Z</time></trkpt><trkpt lat="43.3444786508535" lon="10.753427897825171"><ele>57.0</ele><time>2026-04-04T11:41:05Z</time></trkpt><trkpt lat="43.34443282671389" lon="10.753366609552053"><ele>57.0</ele><time>2026-04-04T11:41:13Z</time></trkpt><trkpt lat="43.344398736315675" lon="10.753286797797331"><ele>56.99999999999999</ele><time>2026-04-04T11:49:08Z</time></trkpt><trkpt lat="43.34445841571798" lon="10.753317995871752"><ele>57.0</ele><time>2026-04-04T11:49:15Z</time></trkpt><trkpt lat="43.34452133658719" lon="10.753396574555252"><ele>57.0</ele><time>2026-04-04T11:49:21Z</time></trkpt><trkpt lat="43.3445423772069" lon="10.753494471987876"><ele>56.99999999999999</ele><time>2026-04-04T11:49:24Z</time></trkpt><trkpt lat="43.34451040919239" lon="10.75358130706275"><ele>57.0</ele><time>2026-04-04T11:49:28Z</time></trkpt><trkpt lat="43.34449565448959" lon="10.753696999719162"><ele>57.0</ele><time>2026-04-04T11:49:45Z</time></trkpt><trkpt lat="43.34452667670459" lon="10.753779203643758"><ele>57.0</ele><time>2026-04-04T11:49:46Z</time></trkpt><trkpt lat="43.3445827037869" lon="10.75388782526256"><ele>57.0</ele><time>2026-04-04T11:49:48Z</time></trkpt><trkpt lat="43.34461593955928" lon="10.75397011706403"><ele>57.0</ele><time>2026-04-04T11:49:50Z</time></trkpt><trkpt lat="43.34464464635099" lon="10.754066622331505"><ele>57.0</ele><time>2026-04-04T11:49:52Z</time></trkpt><trkpt lat="43.344681020836994" lon="10.754165200431405"><ele>57.0</ele><time>2026-04-04T11:49:53.999Z</time></trkpt><trkpt lat="43.3447133136301" lon="10.75428981839415"><ele>57.0</ele><time>2026-04-04T11:49:55.999Z</time></trkpt><trkpt lat="43.344749261718135" lon="10.754408270205886"><ele>56.833333333333336</ele><time>2026-04-04T11:49:57.999Z</time></trkpt><trkpt lat="43.344764827855606" lon="10.754496416569308"><ele>56.66666666666667</ele><time>2026-04-04T11:49:59.999Z</time></trkpt><trkpt lat="43.34479396553972" lon="10.7546019595642"><ele>56.5</ele><time>2026-04-04T11:50:02.999Z</time></trkpt><trkpt lat="43.34481812022538" lon="10.754705885457073"><ele>56.333333333333336</ele><time>2026-04-04T11:50:05.999Z</time></trkpt><trkpt lat="43.3448467948986" lon="10.754804677174478"><ele>56.16666666666667</ele><time>2026-04-04T11:50:08.999Z</time></trkpt><trkpt lat="43.34488969841504" lon="10.754960753522512"><ele>56.0</ele><time>2026-04-04T11:50:11.999Z</time></trkpt><trkpt lat="43.344922272804446" lon="10.755061164848463"><ele>56.0</ele><time>2026-04-04T11:50:12.999Z</time></trkpt><trkpt lat="43.34495425860809" lon="10.755179093893023"><ele>55.99999999999999</ele><time>2026-04-04T11:50:13.999Z</time></trkpt><trkpt lat="43.34497413741484" lon="10.75531460788989"><ele>55.99999999999999</ele><time>2026-04-04T11:50:14.999Z</time></trkpt><trkpt lat="43.34499107764804" lon="10.755442168878028"><ele>56.0</ele><time>2026-04-04T11:50:15.999Z</time></trkpt><trkpt lat="43.34502631153182" lon="10.755566083254429"><ele>56.0</ele><time>2026-04-04T11:50:16.999Z</time></trkpt><trkpt lat="43.3450763856451" lon="10.755698345238597"><ele>56.0</ele><time>2026-04-04T11:50:17.999Z</time></trkpt><trkpt lat="43.3451467248254" lon="10.75584891059617"><ele>56.0</ele><time>2026-04-04T11:50:18.999Z</time></trkpt><trkpt lat="43.34522683054067" lon="10.755999152422625"><ele>56.0</ele><time>2026-04-04T11:50:19.999Z</time></trkpt><trkpt lat="43.34532209961342" lon="10.756143871683257"><ele>56.0</ele><time>2026-04-04T11:50:20.999Z</time></trkpt><trkpt lat="43.34542916113791" lon="10.756274644698525"><ele>56.0</ele><time>2026-04-04T11:50:21.999Z</time></trkpt><trkpt lat="43.34553433657242" lon="10.756396640900567"><ele>56.0</ele><time>2026-04-04T11:50:22.999Z</time></trkpt><trkpt lat="43.34563840773197" lon="10.756530531102936"><ele>56.0</ele><time>2026-04-04T11:50:23.999Z</time></trkpt><trkpt lat="43.345735589110845" lon="10.756660699324943"><ele>56.0</ele><time>2026-04-04T11:50:24.999Z</time></trkpt><trkpt lat="43.34582582927677" lon="10.756785991041577"><ele>56.333333333333336</ele><time>2026-04-04T11:50:25.999Z</time></trkpt><trkpt lat="43.34592850602133" lon="10.756928494995908"><ele>56.66666666666667</ele><time>2026-04-04T11:50:26.999Z</time></trkpt><trkpt lat="43.34603795390174" lon="10.757098314470282"><ele>57.0</ele><time>2026-04-04T11:50:27.999Z</time></trkpt><trkpt lat="43.34614414426894" lon="10.75728564110971"><ele>57.0</ele><time>2026-04-04T11:50:28.999Z</time></trkpt><trkpt lat="43.34625505486185" lon="10.757485772002493"><ele>57.0</ele><time>2026-04-04T11:50:29.999Z</time></trkpt><trkpt lat="43.34636560161284" lon="10.757687649732228"><ele>57.0</ele><time>2026-04-04T11:50:30.999Z</time></trkpt><trkpt lat="43.34647663974932" lon="10.757893334215362"><ele>57.0</ele><time>2026-04-04T11:50:31.999Z</time></trkpt><trkpt lat="43.346592501304045" lon="10.758105082347738"><ele>57.0</ele><time>2026-04-04T11:50:32.999Z</time></trkpt><trkpt lat="43.34671020108342" lon="10.758321858566228"><ele>57.0</ele><time>2026-04-04T11:50:33.999Z</time></trkpt><trkpt lat="43.34683035705489" lon="10.758539330790093"><ele>57.0</ele><time>2026-04-04T11:50:34.999Z</time></trkpt><trkpt lat="43.34694900466788" lon="10.758760104134769"><ele>57.0</ele><time>2026-04-04T11:50:35.999Z</time></trkpt><trkpt lat="43.34707041975411" lon="10.758985642557855"><ele>57.0</ele><time>2026-04-04T11:50:36.999Z</time></trkpt><trkpt lat="43.347183844351854" lon="10.759212266143942"><ele>56.66666666666667</ele><time>2026-04-04T11:50:37.999Z</time></trkpt><trkpt lat="43.347280800841645" lon="10.759435541334284"><ele>56.333333333333336</ele><time>2026-04-04T11:50:38.999Z</time></trkpt><trkpt lat="43.347360821525" lon="10.759664167638654"><ele>56.0</ele><time>2026-04-04T11:50:39.999Z</time></trkpt><trkpt lat="43.34742831511975" lon="10.759885565535104"><ele>56.0</ele><time>2026-04-04T11:50:40.999Z</time></trkpt><trkpt lat="43.34749078628438" lon="10.760125787153065"><ele>56.0</ele><time>2026-04-04T11:50:41.999Z</time></trkpt><trkpt lat="43.34751233510107" lon="10.760385027537179"><ele>56.0</ele><time>2026-04-04T11:50:42.999Z</time></trkpt><trkpt lat="43.3475527497306" lon="10.760648411012973"><ele>56.66666666666667</ele><time>2026-04-04T11:50:43.999Z</time></trkpt><trkpt lat="43.34757262878994" lon="10.760912059149307"><ele>57.33333333333333</ele><time>2026-04-04T11:50:44.999Z</time></trkpt><trkpt lat="43.347597973599946" lon="10.7611761814873"><ele>58.0</ele><time>2026-04-04T11:50:45.999Z</time></trkpt><trkpt lat="43.347628698365455" lon="10.761440105911285"><ele>58.0</ele><time>2026-04-04T11:50:46.999Z</time></trkpt><trkpt lat="43.347660815519774" lon="10.761691312459403"><ele>58.0</ele><time>2026-04-04T11:50:47.999Z</time></trkpt><trkpt lat="43.347694317505876" lon="10.761941492479568"><ele>58.0</ele><time>2026-04-04T11:50:48.999Z</time></trkpt><trkpt lat="43.3477359778004" lon="10.762182818213866"><ele>58.0</ele><time>2026-04-04T11:50:49.999Z</time></trkpt><trkpt lat="43.347789882424536" lon="10.762429646874406"><ele>58.0</ele><time>2026-04-04T11:50:50.999Z</time></trkpt><trkpt lat="43.34785024032495" lon="10.762680880084153"><ele>58.0</ele><time>2026-04-04T11:50:51.999Z</time></trkpt><trkpt lat="43.34792289605796" lon="10.762934601498277"><ele>58.5</ele><time>2026-04-04T11:50:52.999Z</time></trkpt><trkpt lat="43.34800109600702" lon="10.763189767053612"><ele>59.0</ele><time>2026-04-04T11:50:53.999Z</time></trkpt><trkpt lat="43.34816223246943" lon="10.763699242514864"><ele>59.333333333333336</ele><time>2026-04-04T11:50:55.999Z</time></trkpt><trkpt lat="43.34824095520203" lon="10.763941377325825"><ele>59.66666666666667</ele><time>2026-04-04T11:50:56.999Z</time></trkpt><trkpt lat="43.34831356577727" lon="10.76417176987429"><ele>60.0</ele><time>2026-04-04T11:50:57.999Z</time></trkpt><trkpt lat="43.34838465558854" lon="10.764395235535861"><ele>60.0</ele><time>2026-04-04T11:50:58.999Z</time></trkpt><trkpt lat="43.34846475667151" lon="10.764609873831905"><ele>60.0</ele><time>2026-04-04T11:50:59.999Z</time></trkpt><trkpt lat="43.34854880118021" lon="10.764811658679914"><ele>60.0</ele><time>2026-04-04T11:51:00.999Z</time></trkpt><trkpt lat="43.34862705227461" lon="10.765031692502236"><ele>60.33333333333333</ele><time>2026-04-04T11:51:01.999Z</time></trkpt><trkpt lat="43.34873039488012" lon="10.765244288078199"><ele>60.666666666666664</ele><time>2026-04-04T11:51:02.999Z</time></trkpt><trkpt lat="43.34884525808423" lon="10.765449374837903"><ele>61.0</ele><time>2026-04-04T11:51:03.999Z</time></trkpt><trkpt lat="43.34890731341962" lon="10.76556932184173"><ele>61.0</ele><time>2026-04-04T11:51:04.999Z</time></trkpt><trkpt lat="43.34900506115122" lon="10.765734426645542"><ele>61.0</ele><time>2026-04-04T11:51:05.999Z</time></trkpt><trkpt lat="43.349108134741535" lon="10.765895673697509"><ele>61.0</ele><time>2026-04-04T11:51:06.999Z</time></trkpt><trkpt lat="43.34920803163139" lon="10.76603348509259"><ele>59.75</ele><time>2026-04-04T11:51:07.999Z</time></trkpt><trkpt lat="43.34930403656211" lon="10.766159922499526"><ele>58.5</ele><time>2026-04-04T11:51:08.999Z</time></trkpt><trkpt lat="43.34938854109425" lon="10.766283503856254"><ele>57.25</ele><time>2026-04-04T11:51:09.999Z</time></trkpt><trkpt lat="43.34943420253645" lon="10.766428602022584"><ele>56.0</ele><time>2026-04-04T11:51:10.999Z</time></trkpt><trkpt lat="43.34947492594336" lon="10.766567145231955"><ele>56.0</ele><time>2026-04-04T11:51:11.999Z</time></trkpt><trkpt lat="43.34948520090072" lon="10.766706439129333"><ele>56.0</ele><time>2026-04-04T11:51:12.999Z</time></trkpt><trkpt lat="43.34947790405747" lon="10.766861266224758"><ele>56.0</ele><time>2026-04-04T11:51:13.999Z</time></trkpt><trkpt lat="43.34946375673643" lon="10.767030621975067"><ele>56.0</ele><time>2026-04-04T11:51:14.999Z</time></trkpt><trkpt lat="43.349448206220984" lon="10.767203743623345"><ele>55.66666666666667</ele><time>2026-04-04T11:51:15.999Z</time></trkpt><trkpt lat="43.34946008456318" lon="10.767408417619636"><ele>55.33333333333333</ele><time>2026-04-04T11:51:16.999Z</time></trkpt><trkpt lat="43.349490431962785" lon="10.767626819715499"><ele>55.0</ele><time>2026-04-04T11:51:17.999Z</time></trkpt><trkpt lat="43.349517148142624" lon="10.767862781130596"><ele>55.0</ele><time>2026-04-04T11:51:18.999Z</time></trkpt><trkpt lat="43.34956614177735" lon="10.768094076903049"><ele>55.0</ele><time>2026-04-04T11:51:19.999Z</time></trkpt><trkpt lat="43.349624996456846" lon="10.768320595211616"><ele>55.0</ele><time>2026-04-04T11:51:20.999Z</time></trkpt><trkpt lat="43.34969300006959" lon="10.768527972644982"><ele>55.33333333333333</ele><time>2026-04-04T11:51:21.999Z</time></trkpt><trkpt lat="43.349785965520844" lon="10.768748589094306"><ele>55.66666666666667</ele><time>2026-04-04T11:51:22.999Z</time></trkpt><trkpt lat="43.34989792906815" lon="10.768982330660714"><ele>56.0</ele><time>2026-04-04T11:51:23.999Z</time></trkpt><trkpt lat="43.35003278633581" lon="10.769238454306583"><ele>56.0</ele><time>2026-04-04T11:51:24.999Z</time></trkpt><trkpt lat="43.350170108313954" lon="10.769501027764685"><ele>56.0</ele><time>2026-04-04T11:51:25.999Z</time></trkpt><trkpt lat="43.350293200683716" lon="10.769744858357162"><ele>56.0</ele><time>2026-04-04T11:51:26.999Z</time></trkpt><trkpt lat="43.35040992199769" lon="10.769976341694354"><ele>56.0</ele><time>2026-04-04T11:51:27.999Z</time></trkpt><trkpt lat="43.350531974702" lon="10.77022296014575"><ele>56.0</ele><time>2026-04-04T11:51:28.999Z</time></trkpt><trkpt lat="43.35065886769434" lon="10.770464896940009"><ele>56.333333333333336</ele><time>2026-04-04T11:51:29.999Z</time></trkpt><trkpt lat="43.350780124251685" lon="10.770696517474486"><ele>56.66666666666667</ele><time>2026-04-04T11:51:30.999Z</time></trkpt><trkpt lat="43.35090731402973" lon="10.770928293097151"><ele>57.0</ele><time>2026-04-04T11:51:31.999Z</time></trkpt><trkpt lat="43.351047756156696" lon="10.771173131235294"><ele>55.5</ele><time>2026-04-04T11:51:32.999Z</time></trkpt><trkpt lat="43.351199020938424" lon="10.771425926344264"><ele>54.0</ele><time>2026-04-04T11:51:33.999Z</time></trkpt><trkpt lat="43.351351986524726" lon="10.77169312382221"><ele>54.5</ele><time>2026-04-04T11:51:34.999Z</time></trkpt><trkpt lat="43.35150479615117" lon="10.771965096558562"><ele>55.0</ele><time>2026-04-04T11:51:35.999Z</time></trkpt><trkpt lat="43.35165843196214" lon="10.772223360623705"><ele>55.0</ele><time>2026-04-04T11:51:36.999Z</time></trkpt><trkpt lat="43.351802518278824" lon="10.772461844521935"><ele>55.0</ele><time>2026-04-04T11:51:37.999Z</time></trkpt><trkpt lat="43.351934426899824" lon="10.772695905679395"><ele>55.0</ele><time>2026-04-04T11:51:38.999Z</time></trkpt><trkpt lat="43.35206430747484" lon="10.772916088522747"><ele>54.666666666666664</ele><time>2026-04-04T11:51:39.999Z</time></trkpt><trkpt lat="43.35219389780614" lon="10.77314058579693"><ele>54.33333333333333</ele><time>2026-04-04T11:51:40.999Z</time></trkpt><trkpt lat="43.352320834525436" lon="10.773354570922486"><ele>54.0</ele><time>2026-04-04T11:51:41.999Z</time></trkpt><trkpt lat="43.352434145198416" lon="10.77356103318015"><ele>54.66666666666667</ele><time>2026-04-04T11:51:42.999Z</time></trkpt><trkpt lat="43.35254849585169" lon="10.773755999684736"><ele>55.333333333333336</ele><time>2026-04-04T11:51:43.999Z</time></trkpt><trkpt lat="43.35265909177454" lon="10.773948359064354"><ele>56.0</ele><time>2026-04-04T11:51:44.999Z</time></trkpt><trkpt lat="43.35277315925281" lon="10.774146066612639"><ele>56.333333333333336</ele><time>2026-04-04T11:51:45.999Z</time></trkpt><trkpt lat="43.35289653249452" lon="10.7743571987921"><ele>56.66666666666667</ele><time>2026-04-04T11:51:46.999Z</time></trkpt><trkpt lat="43.35302976489914" lon="10.774578126545165"><ele>57.0</ele><time>2026-04-04T11:51:47.999Z</time></trkpt><trkpt lat="43.353154630060125" lon="10.77478834653586"><ele>57.0</ele><time>2026-04-04T11:51:48.999Z</time></trkpt><trkpt lat="43.353270517813854" lon="10.774987138951793"><ele>57.0</ele><time>2026-04-04T11:51:49.999Z</time></trkpt><trkpt lat="43.35337818583367" lon="10.77517202623572"><ele>57.0</ele><time>2026-04-04T11:51:50.999Z</time></trkpt><trkpt lat="43.35347752154429" lon="10.77533990537685"><ele>56.66666666666667</ele><time>2026-04-04T11:51:51.999Z</time></trkpt><trkpt lat="43.353571794671595" lon="10.775504959644582"><ele>56.333333333333336</ele><time>2026-04-04T11:51:52.999Z</time></trkpt><trkpt lat="43.35367257611214" lon="10.775659053957796"><ele>56.0</ele><time>2026-04-04T11:51:53.999Z</time></trkpt><trkpt lat="43.353798294630415" lon="10.775796079359834"><ele>56.333333333333336</ele><time>2026-04-04T11:51:54.999Z</time></trkpt><trkpt lat="43.353941227983654" lon="10.775909084044056"><ele>56.66666666666667</ele><time>2026-04-04T11:51:55.999Z</time></trkpt><trkpt lat="43.354077555435275" lon="10.776000380863188"><ele>57.0</ele><time>2026-04-04T11:51:56.999Z</time></trkpt><trkpt lat="43.3542043389818" lon="10.776078522678795"><ele>57.0</ele><time>2026-04-04T11:51:57.999Z</time></trkpt><trkpt lat="43.35432644185896" lon="10.776143745674538"><ele>57.0</ele><time>2026-04-04T11:51:58.999Z</time></trkpt><trkpt lat="43.354443601078536" lon="10.776210399836046"><ele>57.0</ele><time>2026-04-04T11:51:59.999Z</time></trkpt><trkpt lat="43.354550248287275" lon="10.77627775313489"><ele>57.0</ele><time>2026-04-04T11:52:00.999Z</time></trkpt><trkpt lat="43.35467703722869" lon="10.776356210897937"><ele>57.66666666666667</ele><time>2026-04-04T11:52:01.999Z</time></trkpt><trkpt lat="43.35481923726803" lon="10.776441026402837"><ele>58.333333333333336</ele><time>2026-04-04T11:52:02.999Z</time></trkpt><trkpt lat="43.35496988314463" lon="10.776533505083535"><ele>59.0</ele><time>2026-04-04T11:52:03.999Z</time></trkpt><trkpt lat="43.35511989906944" lon="10.776632302560825"><ele>59.0</ele><time>2026-04-04T11:52:04.999Z</time></trkpt><trkpt lat="43.35526367491377" lon="10.7767262113852"><ele>59.0</ele><time>2026-04-04T11:52:05.999Z</time></trkpt><trkpt lat="43.355400599171595" lon="10.776837419559175"><ele>59.0</ele><time>2026-04-04T11:52:06.999Z</time></trkpt><trkpt lat="43.35553423463352" lon="10.776966925021455"><ele>60.0</ele><time>2026-04-04T11:52:07.999Z</time></trkpt><trkpt lat="43.35565997005531" lon="10.77711996160099"><ele>61.0</ele><time>2026-04-04T11:52:08.999Z</time></trkpt><trkpt lat="43.35578376191829" lon="10.777291424456168"><ele>62.0</ele><time>2026-04-04T11:52:09.999Z</time></trkpt><trkpt lat="43.355903595333366" lon="10.777488976039672"><ele>60.66666666666667</ele><time>2026-04-04T11:52:10.999Z</time></trkpt><trkpt lat="43.35600936293552" lon="10.777706021364487"><ele>59.33333333333333</ele><time>2026-04-04T11:52:11.999Z</time></trkpt><trkpt lat="43.35610251461517" lon="10.77792024990465"><ele>58.0</ele><time>2026-04-04T11:52:12.999Z</time></trkpt><trkpt lat="43.35618271978963" lon="10.778138373849849"><ele>58.0</ele><time>2026-04-04T11:52:13.999Z</time></trkpt><trkpt lat="43.356246384699" lon="10.778354576818924"><ele>58.0</ele><time>2026-04-04T11:52:14.999Z</time></trkpt><trkpt lat="43.3562943748641" lon="10.778578264890724"><ele>58.0</ele><time>2026-04-04T11:52:15.999Z</time></trkpt><trkpt lat="43.35632945093509" lon="10.778814246954804"><ele>57.666666666666664</ele><time>2026-04-04T11:52:16.999Z</time></trkpt><trkpt lat="43.35635328979805" lon="10.779043862334525"><ele>57.33333333333333</ele><time>2026-04-04T11:52:17.999Z</time></trkpt><trkpt lat="43.35637751275424" lon="10.779280969776794"><ele>57.0</ele><time>2026-04-04T11:52:18.999Z</time></trkpt><trkpt lat="43.35639663331042" lon="10.779546647299036"><ele>58.0</ele><time>2026-04-04T11:52:19.999Z</time></trkpt><trkpt lat="43.3564039942875" lon="10.7798307015041"><ele>59.0</ele><time>2026-04-04T11:52:20.999Z</time></trkpt><trkpt lat="43.3564123576168" lon="10.780113443915134"><ele>60.0</ele><time>2026-04-04T11:52:21.999Z</time></trkpt><trkpt lat="43.356421822240144" lon="10.780414467394714"><ele>60.0</ele><time>2026-04-04T11:52:22.999Z</time></trkpt><trkpt lat="43.35642896621218" lon="10.780731401475077"><ele>60.0</ele><time>2026-04-04T11:52:23.999Z</time></trkpt><trkpt lat="43.35643821751534" lon="10.781059874275204"><ele>59.5</ele><time>2026-04-04T11:52:24.999Z</time></trkpt><trkpt lat="43.35644949540413" lon="10.781400518087045"><ele>59.0</ele><time>2026-04-04T11:52:25.999Z</time></trkpt><trkpt lat="43.356455732919144" lon="10.781759615136348"><ele>58.5</ele><time>2026-04-04T11:52:26.999Z</time></trkpt><trkpt lat="43.35646716639511" lon="10.782115095000155"><ele>58.0</ele><time>2026-04-04T11:52:27.999Z</time></trkpt><trkpt lat="43.3564846266143" lon="10.78245803914453"><ele>58.5</ele><time>2026-04-04T11:52:28.999Z</time></trkpt><trkpt lat="43.35651456774052" lon="10.782804811630088"><ele>59.0</ele><time>2026-04-04T11:52:29.999Z</time></trkpt><trkpt lat="43.35656570191569" lon="10.783160150801876"><ele>59.5</ele><time>2026-04-04T11:52:30.999Z</time></trkpt><trkpt lat="43.35662590527484" lon="10.783520960866507"><ele>60.0</ele><time>2026-04-04T11:52:31.999Z</time></trkpt><trkpt lat="43.35668738098896" lon="10.78388339964151"><ele>60.0</ele><time>2026-04-04T11:52:32.999Z</time></trkpt><trkpt lat="43.35674870157745" lon="10.784247082370985"><ele>60.0</ele><time>2026-04-04T11:52:33.999Z</time></trkpt><trkpt lat="43.3568097085582" lon="10.784616492092214"><ele>60.0</ele><time>2026-04-04T11:52:34.999Z</time></trkpt><trkpt lat="43.35687125760808" lon="10.784995163653285"><ele>60.0</ele><time>2026-04-04T11:52:35.999Z</time></trkpt><trkpt lat="43.356933263200744" lon="10.78538649231326"><ele>60.0</ele><time>2026-04-04T11:52:36.999Z</time></trkpt><trkpt lat="43.3569940419489" lon="10.785780377329829"><ele>60.0</ele><time>2026-04-04T11:52:37.999Z</time></trkpt><trkpt lat="43.3570528730209" lon="10.786170964621224"><ele>60.0</ele><time>2026-04-04T11:52:38.999Z</time></trkpt><trkpt lat="43.357110228547846" lon="10.786566944729591"><ele>60.0</ele><time>2026-04-04T11:52:39.999Z</time></trkpt><trkpt lat="43.357163673768866" lon="10.786946061468871"><ele>61.5</ele><time>2026-04-04T11:52:40.999Z</time></trkpt><trkpt lat="43.3572076777434" lon="10.787318038605786"><ele>63.0</ele><time>2026-04-04T11:52:41.999Z</time></trkpt><trkpt lat="43.35723384341382" lon="10.78770052990041"><ele>64.5</ele><time>2026-04-04T11:52:42.999Z</time></trkpt><trkpt lat="43.35725531658448" lon="10.788090306360973"><ele>66.0</ele><time>2026-04-04T11:52:43.999Z</time></trkpt><trkpt lat="43.357269752510256" lon="10.788482265947307"><ele>67.5</ele><time>2026-04-04T11:52:44.999Z</time></trkpt><trkpt lat="43.357280368245924" lon="10.788869143666577"><ele>69.0</ele><time>2026-04-04T11:52:45.999Z</time></trkpt><trkpt lat="43.357276881017505" lon="10.789265388014845"><ele>66.0</ele><time>2026-04-04T11:52:46.999Z</time></trkpt><trkpt lat="43.35725941797411" lon="10.7896690124615"><ele>63.0</ele><time>2026-04-04T11:52:47.999Z</time></trkpt><trkpt lat="43.35723531996983" lon="10.790075707349688"><ele>61.0</ele><time>2026-04-04T11:52:48.999Z</time></trkpt><trkpt lat="43.35719792261653" lon="10.79048156324777"><ele>59.0</ele><time>2026-04-04T11:52:49.999Z</time></trkpt><trkpt lat="43.35714744866871" lon="10.790882904364294"><ele>59.5</ele><time>2026-04-04T11:52:50.999Z</time></trkpt><trkpt lat="43.3570846754085" lon="10.791282925675786"><ele>60.0</ele><time>2026-04-04T11:52:51.999Z</time></trkpt><trkpt lat="43.35701153864145" lon="10.79167566215646"><ele>59.0</ele><time>2026-04-04T11:52:52.999Z</time></trkpt><trkpt lat="43.356931217123595" lon="10.792068475510153"><ele>58.0</ele><time>2026-04-04T11:52:53.999Z</time></trkpt><trkpt lat="43.356845204386765" lon="10.79245952239764"><ele>59.0</ele><time>2026-04-04T11:52:54.999Z</time></trkpt><trkpt lat="43.35675698944898" lon="10.7928464554607"><ele>60.0</ele><time>2026-04-04T11:52:55.999Z</time></trkpt><trkpt lat="43.356668167240514" lon="10.793234465699815"><ele>60.5</ele><time>2026-04-04T11:52:56.999Z</time></trkpt><trkpt lat="43.35658200317814" lon="10.793617574857288"><ele>61.0</ele><time>2026-04-04T11:52:57.999Z</time></trkpt><trkpt lat="43.356500325712496" lon="10.793981693617381"><ele>61.0</ele><time>2026-04-04T11:52:58.999Z</time></trkpt><trkpt lat="43.35642936259578" lon="10.794327513741363"><ele>61.0</ele><time>2026-04-04T11:52:59.999Z</time></trkpt><trkpt lat="43.35637365419548" lon="10.794676547294594"><ele>60.5</ele><time>2026-04-04T11:53:00.999Z</time></trkpt><trkpt lat="43.35633040688643" lon="10.795019246821466"><ele>60.0</ele><time>2026-04-04T11:53:01.999Z</time></trkpt><trkpt lat="43.356304062538754" lon="10.795367086822601"><ele>61.0</ele><time>2026-04-04T11:53:02.999Z</time></trkpt><trkpt lat="43.35629695379846" lon="10.795727752113"><ele>62.0</ele><time>2026-04-04T11:53:03.999Z</time></trkpt><trkpt lat="43.3563103480361" lon="10.79608678614851"><ele>62.0</ele><time>2026-04-04T11:53:04.999Z</time></trkpt><trkpt lat="43.35634789915219" lon="10.796435306778386"><ele>62.0</ele><time>2026-04-04T11:53:05.999Z</time></trkpt><trkpt lat="43.356407991618795" lon="10.796773451413692"><ele>66.0</ele><time>2026-04-04T11:53:06.999Z</time></trkpt><trkpt lat="43.35648277637991" lon="10.797083779780957"><ele>70.0</ele><time>2026-04-04T11:53:07.999Z</time></trkpt><trkpt lat="43.35657041995118" lon="10.797365270697755"><ele>70.0</ele><time>2026-04-04T11:53:08.999Z</time></trkpt><trkpt lat="43.35666379041561" lon="10.797632512278986"><ele>70.0</ele><time>2026-04-04T11:53:09.999Z</time></trkpt><trkpt lat="43.356767315484205" lon="10.797888770200885"><ele>70.0</ele><time>2026-04-04T11:53:10.999Z</time></trkpt><trkpt lat="43.35689171076778" lon="10.79815076784863"><ele>67.5</ele><time>2026-04-04T11:53:11.999Z</time></trkpt><trkpt lat="43.357035668903336" lon="10.798400558973368"><ele>65.0</ele><time>2026-04-04T11:53:12.999Z</time></trkpt><trkpt lat="43.357188066604834" lon="10.7986285096466"><ele>65.66666666666667</ele><time>2026-04-04T11:53:13.999Z</time></trkpt><trkpt lat="43.35733935316649" lon="10.798845669092733"><ele>66.33333333333333</ele><time>2026-04-04T11:53:14.999Z</time></trkpt><trkpt lat="43.3574768160764" lon="10.799047215411598"><ele>67.0</ele><time>2026-04-04T11:53:15.999Z</time></trkpt><trkpt lat="43.3575858230839" lon="10.799261684684131"><ele>66.33333333333333</ele><time>2026-04-04T11:53:16.999Z</time></trkpt><trkpt lat="43.35768255822683" lon="10.7994729995634"><ele>65.66666666666667</ele><time>2026-04-04T11:53:17.999Z</time></trkpt><trkpt lat="43.35776410263024" lon="10.7996929542489"><ele>65.0</ele><time>2026-04-04T11:53:18.999Z</time></trkpt><trkpt lat="43.35785802389081" lon="10.799921486764635"><ele>64.66666666666667</ele><time>2026-04-04T11:53:19.999Z</time></trkpt><trkpt lat="43.357934778664" lon="10.800183097018838"><ele>64.33333333333333</ele><time>2026-04-04T11:53:20.999Z</time></trkpt><trkpt lat="43.358025418857544" lon="10.800460200969255"><ele>64.0</ele><time>2026-04-04T11:53:21.999Z</time></trkpt><trkpt lat="43.358113180077055" lon="10.800718165988446"><ele>65.0</ele><time>2026-04-04T11:53:22.999Z</time></trkpt><trkpt lat="43.358198244492016" lon="10.8009648642552"><ele>66.0</ele><time>2026-04-04T11:53:23.999Z</time></trkpt><trkpt lat="43.358283466923105" lon="10.801190139101458"><ele>67.0</ele><time>2026-04-04T11:53:24.999Z</time></trkpt><trkpt lat="43.35838060696349" lon="10.801404254624286"><ele>67.0</ele><time>2026-04-04T11:53:25.999Z</time></trkpt><trkpt lat="43.35851213750679" lon="10.80161737872536"><ele>67.0</ele><time>2026-04-04T11:53:26.999Z</time></trkpt><trkpt lat="43.358638502844464" lon="10.801825420292188"><ele>67.0</ele><time>2026-04-04T11:53:27.999Z</time></trkpt><trkpt lat="43.35876171746388" lon="10.802014175757147"><ele>67.66666666666666</ele><time>2026-04-04T11:53:28.999Z</time></trkpt><trkpt lat="43.35888808215504" lon="10.802200405812286"><ele>68.33333333333333</ele><time>2026-04-04T11:53:29.999Z</time></trkpt><trkpt lat="43.35901829492368" lon="10.80239111100595"><ele>69.0</ele><time>2026-04-04T11:53:30.999Z</time></trkpt><trkpt lat="43.3591339644872" lon="10.802576649437885"><ele>68.0</ele><time>2026-04-04T11:53:31.999Z</time></trkpt><trkpt lat="43.35923398645959" lon="10.80276640779605"><ele>67.0</ele><time>2026-04-04T11:53:32.999Z</time></trkpt><trkpt lat="43.359310992222376" lon="10.802978663605963"><ele>66.0</ele><time>2026-04-04T11:53:33.999Z</time></trkpt><trkpt lat="43.35934922836718" lon="10.803229536737584"><ele>66.0</ele><time>2026-04-04T11:53:34.999Z</time></trkpt><trkpt lat="43.359392412965256" lon="10.80348978623668"><ele>66.0</ele><time>2026-04-04T11:53:35.999Z</time></trkpt><trkpt lat="43.35942379103516" lon="10.80373344204756"><ele>66.0</ele><time>2026-04-04T11:53:36.999Z</time></trkpt><trkpt lat="43.35942984846366" lon="10.803981861332648"><ele>65.66666666666667</ele><time>2026-04-04T11:53:37.999Z</time></trkpt><trkpt lat="43.35941781511526" lon="10.80423199162795"><ele>65.33333333333334</ele><time>2026-04-04T11:53:38.999Z</time></trkpt><trkpt lat="43.35938550472616" lon="10.804492402396823"><ele>65.0</ele><time>2026-04-04T11:53:39.999Z</time></trkpt><trkpt lat="43.35935278732692" lon="10.804760744371299"><ele>65.66666666666667</ele><time>2026-04-04T11:53:40.999Z</time></trkpt><trkpt lat="43.35933395350612" lon="10.805027671437898"><ele>66.33333333333333</ele><time>2026-04-04T11:53:41.999Z</time></trkpt><trkpt lat="43.35930698129664" lon="10.805279227562881"><ele>67.0</ele><time>2026-04-04T11:53:42.999Z</time></trkpt><trkpt lat="43.35927970934882" lon="10.805510709733655"><ele>67.5</ele><time>2026-04-04T11:53:43.999Z</time></trkpt><trkpt lat="43.35925577230387" lon="10.805717495336694"><ele>68.0</ele><time>2026-04-04T11:53:44.999Z</time></trkpt><trkpt lat="43.359227652039564" lon="10.805920396906195"><ele>68.5</ele><time>2026-04-04T11:53:45.999Z</time></trkpt><trkpt lat="43.35920094268959" lon="10.806105057895467"><ele>69.0</ele><time>2026-04-04T11:53:46.999Z</time></trkpt><trkpt lat="43.35918036591848" lon="10.806277235030636"><ele>69.0</ele><time>2026-04-04T11:53:47.999Z</time></trkpt><trkpt lat="43.35916908747905" lon="10.806444350956582"><ele>69.0</ele><time>2026-04-04T11:53:48.999Z</time></trkpt><trkpt lat="43.35919424682158" lon="10.806628953942381"><ele>69.0</ele><time>2026-04-04T11:53:49.999Z</time></trkpt><trkpt lat="43.3592639453323" lon="10.806825398357683"><ele>69.0</ele><time>2026-04-04T11:53:50.999Z</time></trkpt><trkpt lat="43.359342630229214" lon="10.807012626865669"><ele>69.25</ele><time>2026-04-04T11:53:51.999Z</time></trkpt><trkpt lat="43.35940673579303" lon="10.807194535717011"><ele>69.5</ele><time>2026-04-04T11:53:52.999Z</time></trkpt><trkpt lat="43.35945796809583" lon="10.807359691032998"><ele>69.75</ele><time>2026-04-04T11:53:53.999Z</time></trkpt><trkpt lat="43.359504736204094" lon="10.807514702954045"><ele>70.0</ele><time>2026-04-04T11:53:54.999Z</time></trkpt><trkpt lat="43.35955111493767" lon="10.80767079666751"><ele>70.0</ele><time>2026-04-04T11:53:55.999Z</time></trkpt><trkpt lat="43.35959774736508" lon="10.807818925062179"><ele>70.0</ele><time>2026-04-04T11:53:56.999Z</time></trkpt><trkpt lat="43.35964746461312" lon="10.807975058625525"><ele>70.0</ele><time>2026-04-04T11:53:57.999Z</time></trkpt><trkpt lat="43.35969198186895" lon="10.80812857914778"><ele>70.0</ele><time>2026-04-04T11:53:58.999Z</time></trkpt><trkpt lat="43.35974490897479" lon="10.808304736936805"><ele>71.0</ele><time>2026-04-04T11:53:59.999Z</time></trkpt><trkpt lat="43.359800121424364" lon="10.80848056449722"><ele>72.0</ele><time>2026-04-04T11:54:00.999Z</time></trkpt><trkpt lat="43.359851486724466" lon="10.808642934482945"><ele>73.0</ele><time>2026-04-04T11:54:01.999Z</time></trkpt><trkpt lat="43.35990351537518" lon="10.808801133983579"><ele>74.0</ele><time>2026-04-04T11:54:02.999Z</time></trkpt><trkpt lat="43.35995596708501" lon="10.80897019842188"><ele>74.0</ele><time>2026-04-04T11:54:03.999Z</time></trkpt><trkpt lat="43.36001396880234" lon="10.809145066670322"><ele>74.0</ele><time>2026-04-04T11:54:04.999Z</time></trkpt><trkpt lat="43.36005575188832" lon="10.80931809845405"><ele>74.0</ele><time>2026-04-04T11:54:05.999Z</time></trkpt><trkpt lat="43.360107629998595" lon="10.809477903947037"><ele>74.0</ele><time>2026-04-04T11:54:06.999Z</time></trkpt><trkpt lat="43.36016363927479" lon="10.809650435208944"><ele>73.5</ele><time>2026-04-04T11:54:07.999Z</time></trkpt><trkpt lat="43.36023613015272" lon="10.809822721773319"><ele>73.0</ele><time>2026-04-04T11:54:08.999Z</time></trkpt><trkpt lat="43.36029034108868" lon="10.810008854189615"><ele>72.5</ele><time>2026-04-04T11:54:09.999Z</time></trkpt><trkpt lat="43.360345429263155" lon="10.81018581918542"><ele>72.0</ele><time>2026-04-04T11:54:10.999Z</time></trkpt><trkpt lat="43.3603985366736" lon="10.810357903227535"><ele>71.75</ele><time>2026-04-04T11:54:11.999Z</time></trkpt><trkpt lat="43.36044978725212" lon="10.810529820425076"><ele>71.5</ele><time>2026-04-04T11:54:12.999Z</time></trkpt><trkpt lat="43.36050681946968" lon="10.81071225505619"><ele>71.25</ele><time>2026-04-04T11:54:13.999Z</time></trkpt><trkpt lat="43.36056313827318" lon="10.81088196973707"><ele>71.0</ele><time>2026-04-04T11:54:14.999Z</time></trkpt><trkpt lat="43.360614300976295" lon="10.811039862525996"><ele>72.0</ele><time>2026-04-04T11:54:15.999Z</time></trkpt><trkpt lat="43.360679033277165" lon="10.81119649180224"><ele>73.0</ele><time>2026-04-04T11:54:16.999Z</time></trkpt><trkpt lat="43.36075051811905" lon="10.811337610679763"><ele>74.0</ele><time>2026-04-04T11:54:17.999Z</time></trkpt><trkpt lat="43.36082258733435" lon="10.811466073903338"><ele>75.0</ele><time>2026-04-04T11:54:18.999Z</time></trkpt><trkpt lat="43.36088674201337" lon="10.811581364938698"><ele>75.0</ele><time>2026-04-04T11:54:19.999Z</time></trkpt><trkpt lat="43.36094608882605" lon="10.811691120102049"><ele>75.0</ele><time>2026-04-04T11:54:20.999Z</time></trkpt><trkpt lat="43.361002161000066" lon="10.811792176433308"><ele>75.0</ele><time>2026-04-04T11:54:21.999Z</time></trkpt><trkpt lat="43.36105553392371" lon="10.81187677951021"><ele>75.0</ele><time>2026-04-04T11:54:22.999Z</time></trkpt><trkpt lat="43.361113714408" lon="10.811960693062455"><ele>75.0</ele><time>2026-04-04T11:54:23.999Z</time></trkpt><trkpt lat="43.361178008784066" lon="10.812052520373188"><ele>75.2</ele><time>2026-04-04T11:54:24.999Z</time></trkpt><trkpt lat="43.36123985027528" lon="10.812136073786393"><ele>75.4</ele><time>2026-04-04T11:54:25.999Z</time></trkpt><trkpt lat="43.36130628050736" lon="10.812214637415208"><ele>75.6</ele><time>2026-04-04T11:54:26.999Z</time></trkpt><trkpt lat="43.36138319792556" lon="10.812295069509423"><ele>75.8</ele><time>2026-04-04T11:54:27.999Z</time></trkpt><trkpt lat="43.36147235306016" lon="10.812372403851928"><ele>76.0</ele><time>2026-04-04T11:54:28.999Z</time></trkpt><trkpt lat="43.36157305454599" lon="10.81243254103752"><ele>76.0</ele><time>2026-04-04T11:54:29.999Z</time></trkpt><trkpt lat="43.36167298409022" lon="10.812496646901016"><ele>76.0</ele><time>2026-04-04T11:54:30.999Z</time></trkpt><trkpt lat="43.36177145949577" lon="10.812546050641606"><ele>76.0</ele><time>2026-04-04T11:54:31.999Z</time></trkpt><trkpt lat="43.36186350552129" lon="10.812583318861762"><ele>76.0</ele><time>2026-04-04T11:54:32.999Z</time></trkpt><trkpt lat="43.36195698900792" lon="10.812613385507365"><ele>76.0</ele><time>2026-04-04T11:54:33.999Z</time></trkpt><trkpt lat="43.362060578955955" lon="10.812635799400747"><ele>76.0</ele><time>2026-04-04T11:54:34.999Z</time></trkpt><trkpt lat="43.36217013342883" lon="10.812653926010428"><ele>76.0</ele><time>2026-04-04T11:54:35.999Z</time></trkpt><trkpt lat="43.36228210728524" lon="10.81266400704137"><ele>76.0</ele><time>2026-04-04T11:54:36.999Z</time></trkpt><trkpt lat="43.362401593951724" lon="10.812665597051272"><ele>76.0</ele><time>2026-04-04T11:54:37.999Z</time></trkpt><trkpt lat="43.36252606087846" lon="10.812665876784047"><ele>75.25</ele><time>2026-04-04T11:54:38.999Z</time></trkpt><trkpt lat="43.362651083574306" lon="10.812668034736205"><ele>74.5</ele><time>2026-04-04T11:54:39.999Z</time></trkpt><trkpt lat="43.36276774575557" lon="10.812671358386062"><ele>73.75</ele><time>2026-04-04T11:54:40.999Z</time></trkpt><trkpt lat="43.36289099304937" lon="10.812671849868572"><ele>73.0</ele><time>2026-04-04T11:54:41.999Z</time></trkpt><trkpt lat="43.363027720507574" lon="10.812674552657702"><ele>73.2</ele><time>2026-04-04T11:54:42.999Z</time></trkpt><trkpt lat="43.36315230973469" lon="10.812675929641237"><ele>73.4</ele><time>2026-04-04T11:54:43.999Z</time></trkpt><trkpt lat="43.36326523959323" lon="10.812672424368209"><ele>73.60000000000001</ele><time>2026-04-04T11:54:44.999Z</time></trkpt><trkpt lat="43.363367092871606" lon="10.812674981052426"><ele>73.8</ele><time>2026-04-04T11:54:45.999Z</time></trkpt><trkpt lat="43.36346042719728" lon="10.812676281699039"><ele>74.0</ele><time>2026-04-04T11:54:46.999Z</time></trkpt><trkpt lat="43.363545290813306" lon="10.812679134481696"><ele>74.0</ele><time>2026-04-04T11:54:47.999Z</time></trkpt><trkpt lat="43.3636184711179" lon="10.81269040685559"><ele>74.0</ele><time>2026-04-04T11:54:48.999Z</time></trkpt><trkpt lat="43.36372327717079" lon="10.812729320701202"><ele>74.0</ele><time>2026-04-04T11:54:50.999Z</time></trkpt><trkpt lat="43.36381778937935" lon="10.81275974196063"><ele>74.0</ele><time>2026-04-04T11:54:52.999Z</time></trkpt><trkpt lat="43.363920648421846" lon="10.812684156323993"><ele>74.0</ele><time>2026-04-04T11:54:53.999Z</time></trkpt><trkpt lat="43.36401509687038" lon="10.812659342284643"><ele>75.0</ele><time>2026-04-04T11:54:54.999Z</time></trkpt><trkpt lat="43.36411304503305" lon="10.812650937843708"><ele>76.0</ele><time>2026-04-04T11:54:55.999Z</time></trkpt><trkpt lat="43.364216153423044" lon="10.812634246310742"><ele>77.0</ele><time>2026-04-04T11:54:56.999Z</time></trkpt><trkpt lat="43.364324591126845" lon="10.812598540354044"><ele>78.0</ele><time>2026-04-04T11:54:57.999Z</time></trkpt><trkpt lat="43.364428568039386" lon="10.812539458324363"><ele>79.0</ele><time>2026-04-04T11:54:58.999Z</time></trkpt><trkpt lat="43.36453283689494" lon="10.812437790056947"><ele>79.0</ele><time>2026-04-04T11:54:59.999Z</time></trkpt><trkpt lat="43.36464070050325" lon="10.812313566555991"><ele>79.0</ele><time>2026-04-04T11:55:00.999Z</time></trkpt><trkpt lat="43.36474991019362" lon="10.8121830180168"><ele>79.0</ele><time>2026-04-04T11:55:01.999Z</time></trkpt><trkpt lat="43.364854980018976" lon="10.812062386711121"><ele>79.0</ele><time>2026-04-04T11:55:02.999Z</time></trkpt><trkpt lat="43.36495375576661" lon="10.811944778131565"><ele>79.75</ele><time>2026-04-04T11:55:03.999Z</time></trkpt><trkpt lat="43.36506444598669" lon="10.811816709757698"><ele>80.5</ele><time>2026-04-04T11:55:04.999Z</time></trkpt><trkpt lat="43.365181866699125" lon="10.811683700943659"><ele>81.25</ele><time>2026-04-04T11:55:05.999Z</time></trkpt><trkpt lat="43.36529757536496" lon="10.811552689169334"><ele>82.0</ele><time>2026-04-04T11:55:06.999Z</time></trkpt><trkpt lat="43.36540501817244" lon="10.811437740227618"><ele>82.0</ele><time>2026-04-04T11:55:07.999Z</time></trkpt><trkpt lat="43.36549920697444" lon="10.811328719999711"><ele>82.0</ele><time>2026-04-04T11:55:08.999Z</time></trkpt><trkpt lat="43.3655862516609" lon="10.811225533386418"><ele>82.0</ele><time>2026-04-04T11:55:09.999Z</time></trkpt><trkpt lat="43.365669643650655" lon="10.811132987587639"><ele>82.0</ele><time>2026-04-04T11:55:10.999Z</time></trkpt><trkpt lat="43.36575263077647" lon="10.811042767565393"><ele>83.0</ele><time>2026-04-04T11:55:11.999Z</time></trkpt><trkpt lat="43.36583882854022" lon="10.81093388282909"><ele>84.0</ele><time>2026-04-04T11:55:12.999Z</time></trkpt><trkpt lat="43.36592073061709" lon="10.810804734985773"><ele>85.0</ele><time>2026-04-04T11:55:13.999Z</time></trkpt><trkpt lat="43.36599626738195" lon="10.81066134293828"><ele>86.0</ele><time>2026-04-04T11:55:14.999Z</time></trkpt><trkpt lat="43.366068117432114" lon="10.81050574392585"><ele>86.0</ele><time>2026-04-04T11:55:15.999Z</time></trkpt><trkpt lat="43.366144296963654" lon="10.810348544008614"><ele>86.0</ele><time>2026-04-04T11:55:16.999Z</time></trkpt><trkpt lat="43.366214798177666" lon="10.810193158907703"><ele>86.0</ele><time>2026-04-04T11:55:17.999Z</time></trkpt><trkpt lat="43.36628310937971" lon="10.810038128623404"><ele>86.0</ele><time>2026-04-04T11:55:18.999Z</time></trkpt><trkpt lat="43.366355204597184" lon="10.80989089524112"><ele>86.0</ele><time>2026-04-04T11:55:20Z</time></trkpt><trkpt lat="43.366420870258125" lon="10.80974265841719"><ele>86.0</ele><time>2026-04-04T11:55:21Z</time></trkpt><trkpt lat="43.36648652318467" lon="10.809591621523165"><ele>86.0</ele><time>2026-04-04T11:55:22Z</time></trkpt><trkpt lat="43.36655531637789" lon="10.80944210249061"><ele>86.0</ele><time>2026-04-04T11:55:23Z</time></trkpt><trkpt lat="43.36662033590877" lon="10.809297718369859"><ele>84.0</ele><time>2026-04-04T11:55:24Z</time></trkpt><trkpt lat="43.36669546910227" lon="10.809163689812785"><ele>82.0</ele><time>2026-04-04T11:55:25Z</time></trkpt><trkpt lat="43.36679485274566" lon="10.809033862463432"><ele>80.0</ele><time>2026-04-04T11:55:26Z</time></trkpt><trkpt lat="43.36689834298943" lon="10.808927987944337"><ele>78.0</ele><time>2026-04-04T11:55:27Z</time></trkpt><trkpt lat="43.36706952454358" lon="10.808801774264646"><ele>78.33333333333333</ele><time>2026-04-04T11:55:28Z</time></trkpt><trkpt lat="43.36722541324948" lon="10.808690610554287"><ele>78.66666666666666</ele><time>2026-04-04T11:55:29Z</time></trkpt><trkpt lat="43.36739055129084" lon="10.8085703502044"><ele>79.0</ele><time>2026-04-04T11:55:30Z</time></trkpt><trkpt lat="43.367559697001326" lon="10.808449002264334"><ele>77.33333333333333</ele><time>2026-04-04T11:55:31Z</time></trkpt><trkpt lat="43.367722967695975" lon="10.808320572554878"><ele>75.66666666666667</ele><time>2026-04-04T11:55:32Z</time></trkpt><trkpt lat="43.36787022416822" lon="10.808195091142899"><ele>74.0</ele><time>2026-04-04T11:55:33Z</time></trkpt><trkpt lat="43.36800729696677" lon="10.808062905592713"><ele>74.0</ele><time>2026-04-04T11:55:34Z</time></trkpt><trkpt lat="43.368138693997324" lon="10.807899409147774"><ele>74.0</ele><time>2026-04-04T11:55:35Z</time></trkpt><trkpt lat="43.368281185298315" lon="10.8076973919248"><ele>74.0</ele><time>2026-04-04T11:55:36Z</time></trkpt><trkpt lat="43.36843374571673" lon="10.807491372307288"><ele>73.5</ele><time>2026-04-04T11:55:37Z</time></trkpt><trkpt lat="43.36860047508832" lon="10.807279363081268"><ele>73.0</ele><time>2026-04-04T11:55:38Z</time></trkpt><trkpt lat="43.36876158564988" lon="10.807066342717352"><ele>72.33333333333333</ele><time>2026-04-04T11:55:39Z</time></trkpt><trkpt lat="43.368924946426" lon="10.80685582022582"><ele>71.66666666666667</ele><time>2026-04-04T11:55:40Z</time></trkpt><trkpt lat="43.36908074151627" lon="10.806651421698435"><ele>71.0</ele><time>2026-04-04T11:55:41Z</time></trkpt><trkpt lat="43.36923901450329" lon="10.806442687425848"><ele>71.0</ele><time>2026-04-04T11:55:42Z</time></trkpt><trkpt lat="43.36939559399128" lon="10.806238356884842"><ele>71.0</ele><time>2026-04-04T11:55:43Z</time></trkpt><trkpt lat="43.36955818041923" lon="10.806033638275263"><ele>71.0</ele><time>2026-04-04T11:55:44Z</time></trkpt><trkpt lat="43.36970901689227" lon="10.805840342868219"><ele>71.0</ele><time>2026-04-04T11:55:45Z</time></trkpt><trkpt lat="43.369849007646884" lon="10.805656576594988"><ele>71.0</ele><time>2026-04-04T11:55:46Z</time></trkpt><trkpt lat="43.36997947061769" lon="10.805480882467506"><ele>71.0</ele><time>2026-04-04T11:55:47Z</time></trkpt><trkpt lat="43.37012730560087" lon="10.805317419448253"><ele>71.66666666666667</ele><time>2026-04-04T11:55:48Z</time></trkpt><trkpt lat="43.37030059128645" lon="10.805160556293277"><ele>72.33333333333333</ele><time>2026-04-04T11:55:49Z</time></trkpt><trkpt lat="43.37051319695898" lon="10.80501769419969"><ele>73.0</ele><time>2026-04-04T11:55:50Z</time></trkpt><trkpt lat="43.37072396061331" lon="10.804869031807176"><ele>73.5</ele><time>2026-04-04T11:55:51Z</time></trkpt><trkpt lat="43.370928205632296" lon="10.804715502328833"><ele>74.0</ele><time>2026-04-04T11:55:52Z</time></trkpt><trkpt lat="43.37113471654659" lon="10.804559583348826"><ele>74.0</ele><time>2026-04-04T11:55:53Z</time></trkpt><trkpt lat="43.37134739580164" lon="10.804400057526914"><ele>74.0</ele><time>2026-04-04T11:55:54Z</time></trkpt><trkpt lat="43.371570097823124" lon="10.804225489082214"><ele>73.5</ele><time>2026-04-04T11:55:55Z</time></trkpt><trkpt lat="43.371807733067826" lon="10.804044109136813"><ele>73.0</ele><time>2026-04-04T11:55:56Z</time></trkpt><trkpt lat="43.372046426481006" lon="10.80386435301618"><ele>73.5</ele><time>2026-04-04T11:55:57Z</time></trkpt><trkpt lat="43.37228085089821" lon="10.803684673353711"><ele>74.0</ele><time>2026-04-04T11:55:58Z</time></trkpt><trkpt lat="43.37250934734668" lon="10.803507070711996"><ele>75.5</ele><time>2026-04-04T11:55:59Z</time></trkpt><trkpt lat="43.372732431996276" lon="10.803335909610094"><ele>77.0</ele><time>2026-04-04T11:56:00Z</time></trkpt><trkpt lat="43.37294769376184" lon="10.80317162832164"><ele>75.5</ele><time>2026-04-04T11:56:01Z</time></trkpt><trkpt lat="43.37316308361108" lon="10.80301176244292"><ele>74.0</ele><time>2026-04-04T11:56:02Z</time></trkpt><trkpt lat="43.37337846072684" lon="10.802852776711548"><ele>74.0</ele><time>2026-04-04T11:56:03Z</time></trkpt><trkpt lat="43.37359110455474" lon="10.802691248305042"><ele>74.0</ele><time>2026-04-04T11:56:04Z</time></trkpt><trkpt lat="43.37380146116846" lon="10.802531232276031"><ele>74.0</ele><time>2026-04-04T11:56:05Z</time></trkpt><trkpt lat="43.37401213128629" lon="10.802371159448343"><ele>74.0</ele><time>2026-04-04T11:56:06Z</time></trkpt><trkpt lat="43.374223091273564" lon="10.802210365210392"><ele>74.0</ele><time>2026-04-04T11:56:07Z</time></trkpt><trkpt lat="43.37443635148671" lon="10.802048360730135"><ele>74.0</ele><time>2026-04-04T11:56:08Z</time></trkpt><trkpt lat="43.37465071364855" lon="10.801883737215611"><ele>74.5</ele><time>2026-04-04T11:56:09Z</time></trkpt><trkpt lat="43.37486511736323" lon="10.80172059232114"><ele>75.0</ele><time>2026-04-04T11:56:10Z</time></trkpt><trkpt lat="43.37507320707854" lon="10.801561126681996"><ele>75.0</ele><time>2026-04-04T11:56:11Z</time></trkpt><trkpt lat="43.37527619792244" lon="10.801403918669847"><ele>75.0</ele><time>2026-04-04T11:56:12Z</time></trkpt><trkpt lat="43.37548457138899" lon="10.801243287844088"><ele>76.0</ele><time>2026-04-04T11:56:13Z</time></trkpt><trkpt lat="43.37569070882482" lon="10.801087299170554"><ele>77.0</ele><time>2026-04-04T11:56:14Z</time></trkpt><trkpt lat="43.37588333231061" lon="10.800941888145418"><ele>77.0</ele><time>2026-04-04T11:56:15Z</time></trkpt><trkpt lat="43.37606064184192" lon="10.800804320037846"><ele>77.0</ele><time>2026-04-04T11:56:16Z</time></trkpt><trkpt lat="43.37623040689588" lon="10.800677597570916"><ele>77.0</ele><time>2026-04-04T11:56:17Z</time></trkpt><trkpt lat="43.37639895090824" lon="10.800565362696894"><ele>77.66666666666667</ele><time>2026-04-04T11:56:18Z</time></trkpt><trkpt lat="43.37658000239407" lon="10.800463715042344"><ele>78.33333333333333</ele><time>2026-04-04T11:56:19Z</time></trkpt><trkpt lat="43.376773745263876" lon="10.80039844395912"><ele>79.0</ele><time>2026-04-04T11:56:20Z</time></trkpt><trkpt lat="43.37697042011121" lon="10.800387561767549"><ele>79.0</ele><time>2026-04-04T11:56:21Z</time></trkpt><trkpt lat="43.3771740342017" lon="10.80041947933482"><ele>79.0</ele><time>2026-04-04T11:56:22Z</time></trkpt><trkpt lat="43.37739527372118" lon="10.800475491580585"><ele>79.0</ele><time>2026-04-04T11:56:23Z</time></trkpt><trkpt lat="43.377619767431355" lon="10.800539149635783"><ele>78.5</ele><time>2026-04-04T11:56:24Z</time></trkpt><trkpt lat="43.37784176426539" lon="10.800598313577478"><ele>78.0</ele><time>2026-04-04T11:56:25Z</time></trkpt><trkpt lat="43.37806999949213" lon="10.800653060867363"><ele>78.0</ele><time>2026-04-04T11:56:26Z</time></trkpt><trkpt lat="43.378302952103326" lon="10.800706597676824"><ele>78.0</ele><time>2026-04-04T11:56:27Z</time></trkpt><trkpt lat="43.37851895921166" lon="10.800756831190814"><ele>78.0</ele><time>2026-04-04T11:56:28Z</time></trkpt><trkpt lat="43.378726814235485" lon="10.800803067803267"><ele>78.0</ele><time>2026-04-04T11:56:29Z</time></trkpt><trkpt lat="43.37892726720959" lon="10.800853301385235"><ele>78.0</ele><time>2026-04-04T11:56:30Z</time></trkpt><trkpt lat="43.379117363792" lon="10.80090009432198"><ele>77.66666666666667</ele><time>2026-04-04T11:56:31Z</time></trkpt><trkpt lat="43.379302129962795" lon="10.800946130534774"><ele>77.33333333333334</ele><time>2026-04-04T11:56:32Z</time></trkpt><trkpt lat="43.37946594699109" lon="10.80098793808223"><ele>77.0</ele><time>2026-04-04T11:56:33Z</time></trkpt><trkpt lat="43.37962208998954" lon="10.801020273642308"><ele>77.5</ele><time>2026-04-04T11:56:34Z</time></trkpt><trkpt lat="43.3797728881016" lon="10.80104295065162"><ele>78.0</ele><time>2026-04-04T11:56:35Z</time></trkpt><trkpt lat="43.37991754929297" lon="10.801041846021011"><ele>78.5</ele><time>2026-04-04T11:56:36Z</time></trkpt><trkpt lat="43.38005873367125" lon="10.80099520498545"><ele>79.0</ele><time>2026-04-04T11:56:37Z</time></trkpt><trkpt lat="43.380199836073096" lon="10.800882757356346"><ele>79.0</ele><time>2026-04-04T11:56:38Z</time></trkpt><trkpt lat="43.38034221830264" lon="10.800719630213202"><ele>79.0</ele><time>2026-04-04T11:56:39Z</time></trkpt><trkpt lat="43.38049268306072" lon="10.800548427523758"><ele>79.0</ele><time>2026-04-04T11:56:40Z</time></trkpt><trkpt lat="43.38065404137879" lon="10.80037511972683"><ele>79.5</ele><time>2026-04-04T11:56:41Z</time></trkpt><trkpt lat="43.380829654199715" lon="10.800187600062795"><ele>80.0</ele><time>2026-04-04T11:56:42Z</time></trkpt><trkpt lat="43.38102055631082" lon="10.799978158302192"><ele>80.0</ele><time>2026-04-04T11:56:43Z</time></trkpt><trkpt lat="43.3812237305463" lon="10.799758061834721"><ele>80.0</ele><time>2026-04-04T11:56:44Z</time></trkpt><trkpt lat="43.381440125875656" lon="10.799532797891635"><ele>81.0</ele><time>2026-04-04T11:56:45Z</time></trkpt><trkpt lat="43.381659229001535" lon="10.799296714242043"><ele>82.0</ele><time>2026-04-04T11:56:46Z</time></trkpt><trkpt lat="43.38188317837756" lon="10.79905463818564"><ele>82.0</ele><time>2026-04-04T11:56:47Z</time></trkpt><trkpt lat="43.382107748205236" lon="10.798814240626703"><ele>82.0</ele><time>2026-04-04T11:56:48Z</time></trkpt><trkpt lat="43.38233818671082" lon="10.798564132718706"><ele>82.0</ele><time>2026-04-04T11:56:49Z</time></trkpt><trkpt lat="43.382582409148085" lon="10.798300280352965"><ele>82.0</ele><time>2026-04-04T11:56:50Z</time></trkpt><trkpt lat="43.382838819854946" lon="10.798027970975975"><ele>82.5</ele><time>2026-04-04T11:56:51Z</time></trkpt><trkpt lat="43.383089334623406" lon="10.797761274961095"><ele>83.0</ele><time>2026-04-04T11:56:52Z</time></trkpt><trkpt lat="43.3833265410705" lon="10.797508417650876"><ele>82.0</ele><time>2026-04-04T11:56:52.999Z</time></trkpt><trkpt lat="43.383557720956034" lon="10.79726060754751"><ele>81.0</ele><time>2026-04-04T11:56:53.999Z</time></trkpt><trkpt lat="43.38379064374865" lon="10.79701838718147"><ele>81.5</ele><time>2026-04-04T11:56:54.999Z</time></trkpt><trkpt lat="43.384011040183665" lon="10.796783707555651"><ele>82.0</ele><time>2026-04-04T11:56:55.999Z</time></trkpt><trkpt lat="43.384212899072864" lon="10.796563556519141"><ele>82.0</ele><time>2026-04-04T11:56:56.999Z</time></trkpt><trkpt lat="43.384404866493014" lon="10.796360512975676"><ele>82.0</ele><time>2026-04-04T11:56:57.999Z</time></trkpt><trkpt lat="43.38458826097148" lon="10.796169599940301"><ele>83.5</ele><time>2026-04-04T11:56:58.999Z</time></trkpt><trkpt lat="43.3847646315658" lon="10.79597910350455"><ele>85.0</ele><time>2026-04-04T11:56:59.999Z</time></trkpt><trkpt lat="43.38494154643257" lon="10.795784823226535"><ele>85.0</ele><time>2026-04-04T11:57:00.999Z</time></trkpt><trkpt lat="43.38512465872945" lon="10.795579654110306"><ele>85.0</ele><time>2026-04-04T11:57:01.999Z</time></trkpt><trkpt lat="43.38529773440435" lon="10.795392472144403"><ele>85.0</ele><time>2026-04-04T11:57:02.999Z</time></trkpt><trkpt lat="43.38545996398344" lon="10.795216411404898"><ele>85.0</ele><time>2026-04-04T11:57:03.999Z</time></trkpt><trkpt lat="43.385607386657036" lon="10.79505712836717"><ele>85.0</ele><time>2026-04-04T11:57:04.999Z</time></trkpt><trkpt lat="43.38574036272605" lon="10.79491470234252"><ele>86.5</ele><time>2026-04-04T11:57:05.999Z</time></trkpt><trkpt lat="43.38586979992107" lon="10.79479134828416"><ele>88.0</ele><time>2026-04-04T11:57:06.999Z</time></trkpt><trkpt lat="43.38600306807948" lon="10.79470951259556"><ele>89.5</ele><time>2026-04-04T11:57:07.999Z</time></trkpt><trkpt lat="43.386137711663565" lon="10.79466784164391"><ele>91.0</ele><time>2026-04-04T11:57:08.999Z</time></trkpt><trkpt lat="43.38627955408854" lon="10.794673582387048"><ele>92.0</ele><time>2026-04-04T11:57:09.999Z</time></trkpt><trkpt lat="43.386428222209865" lon="10.794738831828392"><ele>93.0</ele><time>2026-04-04T11:57:10.999Z</time></trkpt><trkpt lat="43.386599074524035" lon="10.794807183364739"><ele>94.0</ele><time>2026-04-04T11:57:11.999Z</time></trkpt><trkpt lat="43.38677290300381" lon="10.79492930300812"><ele>94.0</ele><time>2026-04-04T11:57:12.999Z</time></trkpt><trkpt lat="43.38695602970803" lon="10.795076603537122"><ele>94.0</ele><time>2026-04-04T11:57:13.999Z</time></trkpt><trkpt lat="43.38713432484751" lon="10.795233656063857"><ele>94.0</ele><time>2026-04-04T11:57:14.999Z</time></trkpt><trkpt lat="43.38731487149051" lon="10.795401206625701"><ele>96.0</ele><time>2026-04-04T11:57:15.999Z</time></trkpt><trkpt lat="43.38749365429384" lon="10.795586973666818"><ele>98.0</ele><time>2026-04-04T11:57:16.999Z</time></trkpt><trkpt lat="43.38765272543834" lon="10.79577697032769"><ele>100.0</ele><time>2026-04-04T11:57:17.999Z</time></trkpt><trkpt lat="43.38778592109309" lon="10.795971583749168"><ele>100.0</ele><time>2026-04-04T11:57:18.999Z</time></trkpt><trkpt lat="43.38790264166844" lon="10.796153133255995"><ele>100.0</ele><time>2026-04-04T11:57:19.999Z</time></trkpt><trkpt lat="43.388015693282554" lon="10.796305155801221"><ele>100.0</ele><time>2026-04-04T11:57:20.999Z</time></trkpt><trkpt lat="43.38813097218969" lon="10.796428329765599"><ele>100.0</ele><time>2026-04-04T11:57:21.999Z</time></trkpt><trkpt lat="43.38824685338524" lon="10.796538763132906"><ele>100.0</ele><time>2026-04-04T11:57:22.999Z</time></trkpt><trkpt lat="43.38838115814895" lon="10.796627802417325"><ele>100.0</ele><time>2026-04-04T11:57:23.999Z</time></trkpt><trkpt lat="43.38853795033041" lon="10.796679495152484"><ele>100.0</ele><time>2026-04-04T11:57:24.999Z</time></trkpt><trkpt lat="43.38871954221419" lon="10.796698392592337"><ele>100.0</ele><time>2026-04-04T11:57:26Z</time></trkpt><trkpt lat="43.3889018017937" lon="10.796711819973316"><ele>100.0</ele><time>2026-04-04T11:57:27Z</time></trkpt><trkpt lat="43.38906399705655" lon="10.796733242682222"><ele>100.25</ele><time>2026-04-04T11:57:28Z</time></trkpt><trkpt lat="43.38921669065336" lon="10.796750955736037"><ele>100.5</ele><time>2026-04-04T11:57:29Z</time></trkpt><trkpt lat="43.38935778546443" lon="10.796761980436202"><ele>100.75</ele><time>2026-04-04T11:57:30Z</time></trkpt><trkpt lat="43.38948919440592" lon="10.79674341498765"><ele>101.0</ele><time>2026-04-04T11:57:31Z</time></trkpt><trkpt lat="43.38962632353908" lon="10.796683873056407"><ele>100.33333333333333</ele><time>2026-04-04T11:57:32Z</time></trkpt><trkpt lat="43.3897604896721" lon="10.796573722171763"><ele>99.66666666666666</ele><time>2026-04-04T11:57:33Z</time></trkpt><trkpt lat="43.38989029713751" lon="10.79642047584259"><ele>99.0</ele><time>2026-04-04T11:57:34Z</time></trkpt><trkpt lat="43.390014938954685" lon="10.796233635205883"><ele>99.0</ele><time>2026-04-04T11:57:35Z</time></trkpt><trkpt lat="43.39014063385218" lon="10.79603571931681"><ele>99.0</ele><time>2026-04-04T11:57:36Z</time></trkpt><trkpt lat="43.39026504460731" lon="10.795814739185301"><ele>99.0</ele><time>2026-04-04T11:57:37Z</time></trkpt><trkpt lat="43.39039069116696" lon="10.795585131814452"><ele>99.33333333333334</ele><time>2026-04-04T11:57:38Z</time></trkpt><trkpt lat="43.39052896635987" lon="10.795351722877568"><ele>99.66666666666667</ele><time>2026-04-04T11:57:39Z</time></trkpt><trkpt lat="43.390670958454834" lon="10.795116961168143"><ele>100.0</ele><time>2026-04-04T11:57:40Z</time></trkpt><trkpt lat="43.39081758968509" lon="10.79488938337564"><ele>103.66666666666667</ele><time>2026-04-04T11:57:41Z</time></trkpt><trkpt lat="43.390941525140335" lon="10.794646656944408"><ele>107.33333333333334</ele><time>2026-04-04T11:57:42Z</time></trkpt><trkpt lat="43.39103403888804" lon="10.794408846217156"><ele>111.0</ele><time>2026-04-04T11:57:43Z</time></trkpt><trkpt lat="43.39111988282592" lon="10.794188913800214"><ele>110.66666666666666</ele><time>2026-04-04T11:57:44Z</time></trkpt><trkpt lat="43.39120687843225" lon="10.79400842580008"><ele>110.33333333333333</ele><time>2026-04-04T11:57:45Z</time></trkpt><trkpt lat="43.391311209287764" lon="10.793856386580513"><ele>110.0</ele><time>2026-04-04T11:57:46Z</time></trkpt><trkpt lat="43.39144738901118" lon="10.79375073491165"><ele>110.0</ele><time>2026-04-04T11:57:47Z</time></trkpt><trkpt lat="43.39161814873425" lon="10.79368216697349"><ele>110.0</ele><time>2026-04-04T11:57:48Z</time></trkpt><trkpt lat="43.39180893525194" lon="10.79368206667068"><ele>110.0</ele><time>2026-04-04T11:57:49Z</time></trkpt><trkpt lat="43.392006884805895" lon="10.79369379590236"><ele>110.5</ele><time>2026-04-04T11:57:50Z</time></trkpt><trkpt lat="43.392230278654765" lon="10.793717144497863"><ele>111.0</ele><time>2026-04-04T11:57:51Z</time></trkpt><trkpt lat="43.3924689881529" lon="10.793730586359988"><ele>111.0</ele><time>2026-04-04T11:57:52Z</time></trkpt><trkpt lat="43.39271628375872" lon="10.793735666839234"><ele>111.0</ele><time>2026-04-04T11:57:53Z</time></trkpt><trkpt lat="43.39296389332018" lon="10.793742191863819"><ele>112.0</ele><time>2026-04-04T11:57:54Z</time></trkpt><trkpt lat="43.39321206176875" lon="10.793749491518252"><ele>113.0</ele><time>2026-04-04T11:57:55Z</time></trkpt><trkpt lat="43.393451968389066" lon="10.793751755856894"><ele>113.0</ele><time>2026-04-04T11:57:56Z</time></trkpt><trkpt lat="43.39367268126279" lon="10.793756890631041"><ele>113.0</ele><time>2026-04-04T11:57:57Z</time></trkpt><trkpt lat="43.3938786850433" lon="10.793767944023205"><ele>113.0</ele><time>2026-04-04T11:57:58Z</time></trkpt><trkpt lat="43.394074550754205" lon="10.793803928488616"><ele>114.25</ele><time>2026-04-04T11:57:59Z</time></trkpt><trkpt lat="43.39423609873485" lon="10.793877803195542"><ele>115.5</ele><time>2026-04-04T11:58:00Z</time></trkpt><trkpt lat="43.394374810572295" lon="10.793954416127841"><ele>116.75</ele><time>2026-04-04T11:58:01Z</time></trkpt><trkpt lat="43.39449318298661" lon="10.794018298507707"><ele>118.0</ele><time>2026-04-04T11:58:02Z</time></trkpt><trkpt lat="43.39460119464694" lon="10.794064292085416"><ele>118.83333333333334</ele><time>2026-04-04T11:58:03Z</time></trkpt><trkpt lat="43.39469167055198" lon="10.794098124874534"><ele>119.66666666666667</ele><time>2026-04-04T11:58:04Z</time></trkpt><trkpt lat="43.39477683322885" lon="10.794117166136402"><ele>120.5</ele><time>2026-04-04T11:58:05Z</time></trkpt><trkpt lat="43.39485874924825" lon="10.794121086836931"><ele>121.33333333333334</ele><time>2026-04-04T11:58:06Z</time></trkpt><trkpt lat="43.3949514704949" lon="10.794134838907498"><ele>122.16666666666667</ele><time>2026-04-04T11:58:07Z</time></trkpt><trkpt lat="43.39503902298389" lon="10.79410044204307"><ele>123.0</ele><time>2026-04-04T11:58:08Z</time></trkpt><trkpt lat="43.395124698118046" lon="10.794010880943478"><ele>123.0</ele><time>2026-04-04T11:58:09Z</time></trkpt><trkpt lat="43.39522266996629" lon="10.793902213213208"><ele>123.0</ele><time>2026-04-04T11:58:10Z</time></trkpt><trkpt lat="43.395331525944215" lon="10.793757196716708"><ele>123.0</ele><time>2026-04-04T11:58:11Z</time></trkpt><trkpt lat="43.39546335882764" lon="10.793581867699531"><ele>124.33333333333334</ele><time>2026-04-04T11:58:12Z</time></trkpt><trkpt lat="43.39560698014921" lon="10.79338404191734"><ele>125.66666666666667</ele><time>2026-04-04T11:58:13Z</time></trkpt><trkpt lat="43.39575210390095" lon="10.793175218448805"><ele>127.0</ele><time>2026-04-04T11:58:14Z</time></trkpt><trkpt lat="43.395904288636466" lon="10.792945751493082"><ele>127.0</ele><time>2026-04-04T11:58:15Z</time></trkpt><trkpt lat="43.39605764019185" lon="10.792736824186298"><ele>127.0</ele><time>2026-04-04T11:58:16Z</time></trkpt><trkpt lat="43.39621829782317" lon="10.792577310002994"><ele>127.0</ele><time>2026-04-04T11:58:17Z</time></trkpt><trkpt lat="43.396399046085214" lon="10.792509584951038"><ele>130.0</ele><time>2026-04-04T11:58:18Z</time></trkpt><trkpt lat="43.396561317190084" lon="10.792457246321629"><ele>133.0</ele><time>2026-04-04T11:58:19Z</time></trkpt><trkpt lat="43.39673261797361" lon="10.792426423446084"><ele>136.0</ele><time>2026-04-04T11:58:20Z</time></trkpt><trkpt lat="43.39689591602574" lon="10.792452499376873"><ele>136.0</ele><time>2026-04-04T11:58:21Z</time></trkpt><trkpt lat="43.397050717289964" lon="10.792477585033456"><ele>136.0</ele><time>2026-04-04T11:58:22Z</time></trkpt><trkpt lat="43.39722361152641" lon="10.792475671614268"><ele>136.0</ele><time>2026-04-04T11:58:23Z</time></trkpt><trkpt lat="43.39739882715144" lon="10.792473584670295"><ele>136.66666666666669</ele><time>2026-04-04T11:58:24Z</time></trkpt><trkpt lat="43.39757540602853" lon="10.79243405746337"><ele>137.33333333333334</ele><time>2026-04-04T11:58:25Z</time></trkpt><trkpt lat="43.397739814264064" lon="10.792391897858261"><ele>138.0</ele><time>2026-04-04T11:58:26Z</time></trkpt><trkpt lat="43.39789003084162" lon="10.792402234274515"><ele>137.33333333333334</ele><time>2026-04-04T11:58:27Z</time></trkpt><trkpt lat="43.39804996402613" lon="10.792430822515911"><ele>136.66666666666669</ele><time>2026-04-04T11:58:28Z</time></trkpt><trkpt lat="43.398220032240225" lon="10.792494304662407"><ele>136.0</ele><time>2026-04-04T11:58:29Z</time></trkpt><trkpt lat="43.398399270608294" lon="10.792587837461701"><ele>135.66666666666669</ele><time>2026-04-04T11:58:30Z</time></trkpt><trkpt lat="43.39856763802642" lon="10.79268129280896"><ele>135.33333333333334</ele><time>2026-04-04T11:58:31Z</time></trkpt><trkpt lat="43.398725378594165" lon="10.792771555965036"><ele>135.0</ele><time>2026-04-04T11:58:32Z</time></trkpt><trkpt lat="43.398874406494805" lon="10.792855642288457"><ele>136.0</ele><time>2026-04-04T11:58:33Z</time></trkpt><trkpt lat="43.399020802396606" lon="10.792909908767177"><ele>137.0</ele><time>2026-04-04T11:58:34Z</time></trkpt><trkpt lat="43.39915412077498" lon="10.79296666349858"><ele>138.0</ele><time>2026-04-04T11:58:35Z</time></trkpt><trkpt lat="43.399298907704434" lon="10.792990975467958"><ele>139.0</ele><time>2026-04-04T11:58:36Z</time></trkpt><trkpt lat="43.399464286625275" lon="10.792963956588167"><ele>139.0</ele><time>2026-04-04T11:58:37Z</time></trkpt><trkpt lat="43.39962886846188" lon="10.792896829302185"><ele>139.0</ele><time>2026-04-04T11:58:38Z</time></trkpt><trkpt lat="43.3997706398217" lon="10.792813563032547"><ele>139.0</ele><time>2026-04-04T11:58:39Z</time></trkpt><trkpt lat="43.39989477022532" lon="10.792689804925505"><ele>140.66666666666669</ele><time>2026-04-04T11:58:40Z</time></trkpt><trkpt lat="43.399991383932765" lon="10.792494295512217"><ele>142.33333333333334</ele><time>2026-04-04T11:58:41Z</time></trkpt><trkpt lat="43.40005000457128" lon="10.792291461781394"><ele>144.0</ele><time>2026-04-04T11:58:42Z</time></trkpt><trkpt lat="43.40009810475083" lon="10.79207946050479"><ele>144.0</ele><time>2026-04-04T11:58:43Z</time></trkpt><trkpt lat="43.40014263447788" lon="10.791897434903484"><ele>144.0</ele><time>2026-04-04T11:58:44Z</time></trkpt><trkpt lat="43.40021501310226" lon="10.791719288923138"><ele>144.0</ele><time>2026-04-04T11:58:45Z</time></trkpt><trkpt lat="43.400331952128035" lon="10.791614153299268"><ele>144.0</ele><time>2026-04-04T11:58:46Z</time></trkpt><trkpt lat="43.40045473517258" lon="10.791529586785883"><ele>146.0</ele><time>2026-04-04T11:58:47Z</time></trkpt><trkpt lat="43.400599233184394" lon="10.79146303369234"><ele>148.0</ele><time>2026-04-04T11:58:48Z</time></trkpt><trkpt lat="43.40074571089085" lon="10.791384294925574"><ele>150.0</ele><time>2026-04-04T11:58:49Z</time></trkpt><trkpt lat="43.400896743629445" lon="10.791339878463303"><ele>150.0</ele><time>2026-04-04T11:58:50Z</time></trkpt><trkpt lat="43.401026048066996" lon="10.791291468043196"><ele>150.0</ele><time>2026-04-04T11:58:51Z</time></trkpt><trkpt lat="43.4011537312229" lon="10.791220939572405"><ele>150.0</ele><time>2026-04-04T11:58:52Z</time></trkpt><trkpt lat="43.40126565018501" lon="10.79113255398801"><ele>150.0</ele><time>2026-04-04T11:58:53Z</time></trkpt><trkpt lat="43.401361612092444" lon="10.791047367930199"><ele>152.0</ele><time>2026-04-04T11:58:54Z</time></trkpt><trkpt lat="43.40143476456663" lon="10.790961279866275"><ele>154.0</ele><time>2026-04-04T11:58:55Z</time></trkpt><trkpt lat="43.40149700861896" lon="10.790854669158547"><ele>156.0</ele><time>2026-04-04T11:58:56Z</time></trkpt><trkpt lat="43.40154171702517" lon="10.790704298339413"><ele>158.0</ele><time>2026-04-04T11:58:57Z</time></trkpt><trkpt lat="43.40154399874625" lon="10.790536367303632"><ele>160.0</ele><time>2026-04-04T11:58:58Z</time></trkpt><trkpt lat="43.40149728245247" lon="10.79038300214719"><ele>160.0</ele><time>2026-04-04T11:58:59Z</time></trkpt><trkpt lat="43.40141696848998" lon="10.790253060792566"><ele>160.0</ele><time>2026-04-04T11:59:00Z</time></trkpt><trkpt lat="43.40133151677344" lon="10.790157577993677"><ele>160.0</ele><time>2026-04-04T11:59:01Z</time></trkpt><trkpt lat="43.40126636670651" lon="10.790063789596077"><ele>160.0</ele><time>2026-04-04T11:59:02Z</time></trkpt><trkpt lat="43.401213902698906" lon="10.789949392321825"><ele>160.0</ele><time>2026-04-04T11:59:03Z</time></trkpt><trkpt lat="43.40115315570272" lon="10.7898327378007"><ele>159.4</ele><time>2026-04-04T11:59:04Z</time></trkpt><trkpt lat="43.4011058746869" lon="10.789694690219127"><ele>158.8</ele><time>2026-04-04T11:59:05Z</time></trkpt><trkpt lat="43.40107150457509" lon="10.789558962964595"><ele>158.2</ele><time>2026-04-04T11:59:06Z</time></trkpt><trkpt lat="43.40106123874199" lon="10.789422430649475"><ele>157.6</ele><time>2026-04-04T11:59:07Z</time></trkpt><trkpt lat="43.40105878726623" lon="10.789291136648703"><ele>157.0</ele><time>2026-04-04T11:59:08Z</time></trkpt><trkpt lat="43.40111856562667" lon="10.789173921512042"><ele>157.0</ele><time>2026-04-04T11:59:09Z</time></trkpt><trkpt lat="43.40120184947454" lon="10.789093259382216"><ele>157.0</ele><time>2026-04-04T11:59:10Z</time></trkpt><trkpt lat="43.40131357054496" lon="10.789044327613837"><ele>157.0</ele><time>2026-04-04T11:59:11Z</time></trkpt><trkpt lat="43.40143865405642" lon="10.789039977060494"><ele>157.0</ele><time>2026-04-04T11:59:12Z</time></trkpt><trkpt lat="43.40156168438423" lon="10.789087970341088"><ele>160.75</ele><time>2026-04-04T11:59:13Z</time></trkpt><trkpt lat="43.40168494249735" lon="10.789149661906144"><ele>164.5</ele><time>2026-04-04T11:59:14Z</time></trkpt><trkpt lat="43.40181402995622" lon="10.789191317264331"><ele>168.25</ele><time>2026-04-04T11:59:15Z</time></trkpt><trkpt lat="43.40193072542891" lon="10.789212307167428"><ele>172.0</ele><time>2026-04-04T11:59:15.999Z</time></trkpt><trkpt lat="43.40203991049823" lon="10.789193109436043"><ele>172.0</ele><time>2026-04-04T11:59:16.999Z</time></trkpt><trkpt lat="43.40216118126801" lon="10.789137207083693"><ele>172.0</ele><time>2026-04-04T11:59:17.999Z</time></trkpt><trkpt lat="43.40227791164147" lon="10.789048242065666"><ele>172.0</ele><time>2026-04-04T11:59:18.999Z</time></trkpt><trkpt lat="43.40238955993963" lon="10.788922722702004"><ele>172.0</ele><time>2026-04-04T11:59:19.999Z</time></trkpt><trkpt lat="43.40249799317687" lon="10.788766840865959"><ele>172.75</ele><time>2026-04-04T11:59:20.999Z</time></trkpt><trkpt lat="43.40259265544597" lon="10.788621919034624"><ele>173.5</ele><time>2026-04-04T11:59:21.999Z</time></trkpt><trkpt lat="43.402665989162074" lon="10.788496935034228"><ele>174.25</ele><time>2026-04-04T11:59:22.999Z</time></trkpt><trkpt lat="43.40273396337869" lon="10.788388347489386"><ele>175.0</ele><time>2026-04-04T11:59:23.999Z</time></trkpt><trkpt lat="43.40280049518188" lon="10.788274742169198"><ele>175.0</ele><time>2026-04-04T11:59:24.999Z</time></trkpt><trkpt lat="43.402857813038175" lon="10.788131407506743"><ele>175.0</ele><time>2026-04-04T11:59:25.999Z</time></trkpt><trkpt lat="43.40289826595929" lon="10.787976802043028"><ele>175.0</ele><time>2026-04-04T11:59:26.999Z</time></trkpt><trkpt lat="43.402915807306584" lon="10.787833651335808"><ele>175.0</ele><time>2026-04-04T11:59:27.999Z</time></trkpt><trkpt lat="43.40292621857127" lon="10.787677093292825"><ele>172.66666666666669</ele><time>2026-04-04T11:59:28.999Z</time></trkpt><trkpt lat="43.402902264726" lon="10.787480733040876"><ele>170.33333333333334</ele><time>2026-04-04T11:59:29.999Z</time></trkpt><trkpt lat="43.40285286162527" lon="10.787260433488907"><ele>168.0</ele><time>2026-04-04T11:59:30.999Z</time></trkpt><trkpt lat="43.40279355198967" lon="10.787028136891978"><ele>167.33333333333334</ele><time>2026-04-04T11:59:32Z</time></trkpt><trkpt lat="43.40273582430134" lon="10.786793979970662"><ele>166.66666666666669</ele><time>2026-04-04T11:59:33Z</time></trkpt><trkpt lat="43.40267615550213" lon="10.786571185215145"><ele>166.0</ele><time>2026-04-04T11:59:34Z</time></trkpt><trkpt lat="43.40262249059249" lon="10.786356034270623"><ele>166.0</ele><time>2026-04-04T11:59:35Z</time></trkpt><trkpt lat="43.4025722235168" lon="10.786153791412765"><ele>166.0</ele><time>2026-04-04T11:59:36Z</time></trkpt><trkpt lat="43.40251939267138" lon="10.785953440372786"><ele>166.0</ele><time>2026-04-04T11:59:37Z</time></trkpt><trkpt lat="43.402467293397585" lon="10.785743996200344"><ele>165.33333333333334</ele><time>2026-04-04T11:59:38Z</time></trkpt><trkpt lat="43.40241085142575" lon="10.785518501422434"><ele>164.66666666666666</ele><time>2026-04-04T11:59:39Z</time></trkpt><trkpt lat="43.40236774859963" lon="10.785281015036317"><ele>164.0</ele><time>2026-04-04T11:59:40Z</time></trkpt><trkpt lat="43.40231045495647" lon="10.78505890211205"><ele>164.0</ele><time>2026-04-04T11:59:41Z</time></trkpt><trkpt lat="43.40223942793477" lon="10.784846066549994"><ele>164.0</ele><time>2026-04-04T11:59:42Z</time></trkpt><trkpt lat="43.40219295809606" lon="10.784638948193098"><ele>164.0</ele><time>2026-04-04T11:59:43Z</time></trkpt><trkpt lat="43.40214608783178" lon="10.784439207293577"><ele>162.0</ele><time>2026-04-04T11:59:44Z</time></trkpt><trkpt lat="43.40210238456783" lon="10.784233458828085"><ele>160.0</ele><time>2026-04-04T11:59:45Z</time></trkpt><trkpt lat="43.40209067566638" lon="10.784004081187389"><ele>158.0</ele><time>2026-04-04T11:59:46Z</time></trkpt><trkpt lat="43.40205439285961" lon="10.783764942277974"><ele>159.0</ele><time>2026-04-04T11:59:47Z</time></trkpt><trkpt lat="43.40202898525161" lon="10.783493616465957"><ele>160.0</ele><time>2026-04-04T11:59:48Z</time></trkpt><trkpt lat="43.40200499837299" lon="10.783223701736311"><ele>161.0</ele><time>2026-04-04T11:59:49Z</time></trkpt><trkpt lat="43.401977303308975" lon="10.7829750887698"><ele>161.0</ele><time>2026-04-04T11:59:50Z</time></trkpt><trkpt lat="43.40195487068673" lon="10.78273003189092"><ele>161.0</ele><time>2026-04-04T11:59:51Z</time></trkpt><trkpt lat="43.40193548514268" lon="10.78247882570391"><ele>161.0</ele><time>2026-04-04T11:59:52Z</time></trkpt><trkpt lat="43.40190971888653" lon="10.782203193908362"><ele>162.0</ele><time>2026-04-04T11:59:53Z</time></trkpt><trkpt lat="43.401886266990495" lon="10.781928712902682"><ele>163.0</ele><time>2026-04-04T11:59:54Z</time></trkpt><trkpt lat="43.4018941511273" lon="10.781670992716139"><ele>164.0</ele><time>2026-04-04T11:59:55Z</time></trkpt><trkpt lat="43.40188973605076" lon="10.781422636496533"><ele>164.33333333333331</ele><time>2026-04-04T11:59:56Z</time></trkpt><trkpt lat="43.401929102120036" lon="10.781174101609523"><ele>164.66666666666666</ele><time>2026-04-04T11:59:57Z</time></trkpt><trkpt lat="43.40194751780967" lon="10.780907833906875"><ele>165.0</ele><time>2026-04-04T11:59:58Z</time></trkpt><trkpt lat="43.401999019352374" lon="10.780630098817252"><ele>165.0</ele><time>2026-04-04T11:59:59Z</time></trkpt><trkpt lat="43.40203843478397" lon="10.780341480662837"><ele>165.0</ele><time>2026-04-04T12:00:00Z</time></trkpt><trkpt lat="43.40205908276543" lon="10.780064148348787"><ele>165.0</ele><time>2026-04-04T12:00:01Z</time></trkpt><trkpt lat="43.402078537017395" lon="10.779776251054447"><ele>165.5</ele><time>2026-04-04T12:00:02Z</time></trkpt><trkpt lat="43.40206545977951" lon="10.779457245415603"><ele>166.0</ele><time>2026-04-04T12:00:03Z</time></trkpt><trkpt lat="43.40204530155596" lon="10.779140574104188"><ele>166.0</ele><time>2026-04-04T12:00:04Z</time></trkpt><trkpt lat="43.4020445783313" lon="10.778849433847297"><ele>166.0</ele><time>2026-04-04T12:00:05Z</time></trkpt><trkpt lat="43.40202176860414" lon="10.77856659111428"><ele>166.0</ele><time>2026-04-04T12:00:06Z</time></trkpt><trkpt lat="43.402025048383564" lon="10.778274987353647"><ele>166.0</ele><time>2026-04-04T12:00:07Z</time></trkpt><trkpt lat="43.40204561667238" lon="10.777982822888779"><ele>166.0</ele><time>2026-04-04T12:00:08Z</time></trkpt><trkpt lat="43.40207981978342" lon="10.77768669413149"><ele>166.0</ele><time>2026-04-04T12:00:09Z</time></trkpt><trkpt lat="43.402136285130524" lon="10.777392589745542"><ele>163.33333333333334</ele><time>2026-04-04T12:00:10Z</time></trkpt><trkpt lat="43.40221889791376" lon="10.77712181145753"><ele>160.66666666666666</ele><time>2026-04-04T12:00:11Z</time></trkpt><trkpt lat="43.40229390143501" lon="10.776867099974103"><ele>158.0</ele><time>2026-04-04T12:00:12Z</time></trkpt><trkpt lat="43.402343412923905" lon="10.77661865985107"><ele>158.0</ele><time>2026-04-04T12:00:13Z</time></trkpt><trkpt lat="43.40236508760257" lon="10.776379313280014"><ele>158.0</ele><time>2026-04-04T12:00:14Z</time></trkpt><trkpt lat="43.40236845832783" lon="10.776167993162982"><ele>158.0</ele><time>2026-04-04T12:00:15Z</time></trkpt><trkpt lat="43.402382015463374" lon="10.775977087032684"><ele>158.0</ele><time>2026-04-04T12:00:16Z</time></trkpt><trkpt lat="43.40242969575596" lon="10.775798891900283"><ele>158.0</ele><time>2026-04-04T12:00:17Z</time></trkpt><trkpt lat="43.40251438895265" lon="10.775633804161362"><ele>158.0</ele><time>2026-04-04T12:00:18Z</time></trkpt><trkpt lat="43.40264696884237" lon="10.77552476937111"><ele>158.0</ele><time>2026-04-04T12:00:19Z</time></trkpt><trkpt lat="43.40279036720634" lon="10.775420785402057"><ele>158.0</ele><time>2026-04-04T12:00:20Z</time></trkpt><trkpt lat="43.40296420876077" lon="10.775321217270115"><ele>158.0</ele><time>2026-04-04T12:00:21Z</time></trkpt><trkpt lat="43.40315598553652" lon="10.775205411767578"><ele>158.0</ele><time>2026-04-04T12:00:22Z</time></trkpt><trkpt lat="43.40333270977659" lon="10.775088823059415"><ele>158.0</ele><time>2026-04-04T12:00:23Z</time></trkpt><trkpt lat="43.40349305360625" lon="10.774990907323692"><ele>158.0</ele><time>2026-04-04T12:00:24Z</time></trkpt><trkpt lat="43.403636050761264" lon="10.774898560261903"><ele>158.0</ele><time>2026-04-04T12:00:25Z</time></trkpt><trkpt lat="43.40376763554751" lon="10.77480209396528"><ele>155.33333333333331</ele><time>2026-04-04T12:00:26Z</time></trkpt><trkpt lat="43.40389681453293" lon="10.774720952549908"><ele>152.66666666666666</ele><time>2026-04-04T12:00:27Z</time></trkpt><trkpt lat="43.40405916720178" lon="10.774648346345309"><ele>150.0</ele><time>2026-04-04T12:00:28Z</time></trkpt><trkpt lat="43.404249431352305" lon="10.774628530161715"><ele>150.0</ele><time>2026-04-04T12:00:29Z</time></trkpt><trkpt lat="43.40445759729817" lon="10.774667311655408"><ele>150.0</ele><time>2026-04-04T12:00:30Z</time></trkpt><trkpt lat="43.40466657624448" lon="10.774748430031725"><ele>150.0</ele><time>2026-04-04T12:00:31Z</time></trkpt><trkpt lat="43.40486924655286" lon="10.77485482460756"><ele>150.0</ele><time>2026-04-04T12:00:32Z</time></trkpt><trkpt lat="43.405086856551875" lon="10.774991139109405"><ele>150.0</ele><time>2026-04-04T12:00:33Z</time></trkpt><trkpt lat="43.40530074773896" lon="10.775107826363854"><ele>148.33333333333334</ele><time>2026-04-04T12:00:34Z</time></trkpt><trkpt lat="43.40550596834872" lon="10.775198388524863"><ele>146.66666666666669</ele><time>2026-04-04T12:00:35Z</time></trkpt><trkpt lat="43.40568411348978" lon="10.77528052712509"><ele>145.0</ele><time>2026-04-04T12:00:36Z</time></trkpt><trkpt lat="43.40584791274365" lon="10.77537273522398"><ele>145.0</ele><time>2026-04-04T12:00:37Z</time></trkpt><trkpt lat="43.40600784790511" lon="10.77545932817615"><ele>145.0</ele><time>2026-04-04T12:00:38Z</time></trkpt><trkpt lat="43.406172665237" lon="10.77554339134624"><ele>145.0</ele><time>2026-04-04T12:00:39Z</time></trkpt><trkpt lat="43.40635862560774" lon="10.775611085141005"><ele>145.33333333333334</ele><time>2026-04-04T12:00:40Z</time></trkpt><trkpt lat="43.406553036395394" lon="10.775655155053418"><ele>145.66666666666666</ele><time>2026-04-04T12:00:41Z</time></trkpt><trkpt lat="43.40674211634321" lon="10.775670017952997"><ele>146.0</ele><time>2026-04-04T12:00:42Z</time></trkpt><trkpt lat="43.40693200956742" lon="10.775634122727666"><ele>146.0</ele><time>2026-04-04T12:00:43Z</time></trkpt><trkpt lat="43.4071174234251" lon="10.775548250042027"><ele>146.0</ele><time>2026-04-04T12:00:44Z</time></trkpt><trkpt lat="43.40731426135056" lon="10.775470403200973"><ele>146.0</ele><time>2026-04-04T12:00:45Z</time></trkpt><trkpt lat="43.40751713269596" lon="10.775444121400069"><ele>145.66666666666666</ele><time>2026-04-04T12:00:46Z</time></trkpt><trkpt lat="43.407707648056146" lon="10.775446860820189"><ele>145.33333333333334</ele><time>2026-04-04T12:00:47Z</time></trkpt><trkpt lat="43.40789558678185" lon="10.775459096877414"><ele>145.0</ele><time>2026-04-04T12:00:48Z</time></trkpt><trkpt lat="43.408099705216166" lon="10.775430681998692"><ele>144.0</ele><time>2026-04-04T12:00:49Z</time></trkpt><trkpt lat="43.40831421156812" lon="10.77537244230937"><ele>143.0</ele><time>2026-04-04T12:00:50Z</time></trkpt><trkpt lat="43.40850996779896" lon="10.775303958297847"><ele>142.0</ele><time>2026-04-04T12:00:51Z</time></trkpt><trkpt lat="43.408692146316014" lon="10.77522019963477"><ele>142.66666666666669</ele><time>2026-04-04T12:00:52Z</time></trkpt><trkpt lat="43.408873735669" lon="10.775123747134673"><ele>143.33333333333334</ele><time>2026-04-04T12:00:53Z</time></trkpt><trkpt lat="43.40903919486678" lon="10.775016418127446"><ele>144.0</ele><time>2026-04-04T12:00:54Z</time></trkpt><trkpt lat="43.409183418191375" lon="10.774915020771138"><ele>144.0</ele><time>2026-04-04T12:00:55Z</time></trkpt><trkpt lat="43.40929914922207" lon="10.774819208280308"><ele>144.0</ele><time>2026-04-04T12:00:56Z</time></trkpt><trkpt lat="43.40940390256372" lon="10.774718775406974"><ele>144.0</ele><time>2026-04-04T12:00:57Z</time></trkpt><trkpt lat="43.40949763686241" lon="10.774586248138949"><ele>144.0</ele><time>2026-04-04T12:00:58Z</time></trkpt><trkpt lat="43.40957830184936" lon="10.774425004455859"><ele>142.75</ele><time>2026-04-04T12:00:59Z</time></trkpt><trkpt lat="43.40962836976246" lon="10.77424996907894"><ele>141.5</ele><time>2026-04-04T12:01:00Z</time></trkpt><trkpt lat="43.409648675900755" lon="10.77405945128633"><ele>140.25</ele><time>2026-04-04T12:01:01Z</time></trkpt><trkpt lat="43.40966905411359" lon="10.773883545626896"><ele>139.0</ele><time>2026-04-04T12:01:02Z</time></trkpt><trkpt lat="43.40971762695369" lon="10.773729873649774"><ele>139.0</ele><time>2026-04-04T12:01:03Z</time></trkpt><trkpt lat="43.4098113925884" lon="10.773601745715911"><ele>139.0</ele><time>2026-04-04T12:01:04Z</time></trkpt><trkpt lat="43.40992751827195" lon="10.77351607214503"><ele>139.0</ele><time>2026-04-04T12:01:05Z</time></trkpt><trkpt lat="43.41006538213595" lon="10.773497854691453"><ele>139.0</ele><time>2026-04-04T12:01:06Z</time></trkpt><trkpt lat="43.41020913801267" lon="10.773535524278357"><ele>139.0</ele><time>2026-04-04T12:01:07Z</time></trkpt><trkpt lat="43.410342395593986" lon="10.773611052143481"><ele>139.0</ele><time>2026-04-04T12:01:08Z</time></trkpt><trkpt lat="43.41047886841354" lon="10.77367969447356"><ele>139.0</ele><time>2026-04-04T12:01:09Z</time></trkpt><trkpt lat="43.410615953202196" lon="10.773699542422936"><ele>139.0</ele><time>2026-04-04T12:01:10Z</time></trkpt><trkpt lat="43.41076925737144" lon="10.773692602288879"><ele>139.0</ele><time>2026-04-04T12:01:11Z</time></trkpt><trkpt lat="43.41093451882508" lon="10.77367802958649"><ele>139.0</ele><time>2026-04-04T12:01:12Z</time></trkpt><trkpt lat="43.41111577515067" lon="10.773677345616333"><ele>139.0</ele><time>2026-04-04T12:01:13Z</time></trkpt><trkpt lat="43.41129781430619" lon="10.773709302077554"><ele>138.33333333333334</ele><time>2026-04-04T12:01:14Z</time></trkpt><trkpt lat="43.41145238375254" lon="10.77378062813422"><ele>137.66666666666666</ele><time>2026-04-04T12:01:14.999Z</time></trkpt><trkpt lat="43.41160436295917" lon="10.773800865295609"><ele>137.0</ele><time>2026-04-04T12:01:15.999Z</time></trkpt><trkpt lat="43.411760627886835" lon="10.773776502115503"><ele>137.0</ele><time>2026-04-04T12:01:16.999Z</time></trkpt><trkpt lat="43.411929528522464" lon="10.773696183113016"><ele>137.0</ele><time>2026-04-04T12:01:17.999Z</time></trkpt><trkpt lat="43.4120927933913" lon="10.773595999958445"><ele>137.0</ele><time>2026-04-04T12:01:18.999Z</time></trkpt><trkpt lat="43.41224593127329" lon="10.7734897539932"><ele>137.5</ele><time>2026-04-04T12:01:19.999Z</time></trkpt><trkpt lat="43.41235907387413" lon="10.773375083549753"><ele>138.0</ele><time>2026-04-04T12:01:20.999Z</time></trkpt><trkpt lat="43.412459051512144" lon="10.773268697732105"><ele>138.5</ele><time>2026-04-04T12:01:21.999Z</time></trkpt><trkpt lat="43.41257220354949" lon="10.773196950638633"><ele>139.0</ele><time>2026-04-04T12:01:22.999Z</time></trkpt><trkpt lat="43.41270642769511" lon="10.773193741931893"><ele>139.0</ele><time>2026-04-04T12:01:23.999Z</time></trkpt><trkpt lat="43.41285153743297" lon="10.773222218185662"><ele>139.0</ele><time>2026-04-04T12:01:24.999Z</time></trkpt><trkpt lat="43.41299969179664" lon="10.773271902028435"><ele>139.0</ele><time>2026-04-04T12:01:25.999Z</time></trkpt><trkpt lat="43.41315032739445" lon="10.773348325300947"><ele>140.0</ele><time>2026-04-04T12:01:26.999Z</time></trkpt><trkpt lat="43.413305634564544" lon="10.773427903411672"><ele>141.0</ele><time>2026-04-04T12:01:27.999Z</time></trkpt><trkpt lat="43.413453371345234" lon="10.773524595452985"><ele>142.0</ele><time>2026-04-04T12:01:28.999Z</time></trkpt><trkpt lat="43.41362003922996" lon="10.773659425660673"><ele>140.33333333333334</ele><time>2026-04-04T12:01:29.999Z</time></trkpt><trkpt lat="43.413798185261285" lon="10.773783555336152"><ele>138.66666666666666</ele><time>2026-04-04T12:01:30.999Z</time></trkpt><trkpt lat="43.41398171179094" lon="10.773909054333638"><ele>137.0</ele><time>2026-04-04T12:01:31.999Z</time></trkpt><trkpt lat="43.414131967039694" lon="10.77403953004167"><ele>137.0</ele><time>2026-04-04T12:01:32.999Z</time></trkpt><trkpt lat="43.414272599398245" lon="10.77417002721579"><ele>137.0</ele><time>2026-04-04T12:01:33.999Z</time></trkpt><trkpt lat="43.414412093603524" lon="10.77427893295071"><ele>137.0</ele><time>2026-04-04T12:01:34.999Z</time></trkpt><trkpt lat="43.41456021048489" lon="10.774345414867234"><ele>136.66666666666666</ele><time>2026-04-04T12:01:35.999Z</time></trkpt><trkpt lat="43.4147138558114" lon="10.774366120718254"><ele>136.33333333333334</ele><time>2026-04-04T12:01:36.999Z</time></trkpt><trkpt lat="43.41488227268168" lon="10.774321754545321"><ele>136.0</ele><time>2026-04-04T12:01:38Z</time></trkpt><trkpt lat="43.41507185314343" lon="10.774224992817642"><ele>136.0</ele><time>2026-04-04T12:01:39Z</time></trkpt><trkpt lat="43.415281049468206" lon="10.774117619448603"><ele>136.0</ele><time>2026-04-04T12:01:40Z</time></trkpt><trkpt lat="43.41550180712848" lon="10.774011159559242"><ele>134.66666666666669</ele><time>2026-04-04T12:01:41Z</time></trkpt><trkpt lat="43.41570506593081" lon="10.773908515971756"><ele>133.33333333333334</ele><time>2026-04-04T12:01:42Z</time></trkpt><trkpt lat="43.41589336965772" lon="10.773817070661615"><ele>132.0</ele><time>2026-04-04T12:01:43Z</time></trkpt><trkpt lat="43.41605643638718" lon="10.77375434172519"><ele>132.0</ele><time>2026-04-04T12:01:44Z</time></trkpt><trkpt lat="43.41620150602723" lon="10.773663144572607"><ele>132.0</ele><time>2026-04-04T12:01:45Z</time></trkpt><trkpt lat="43.41633793476284" lon="10.773513636072147"><ele>132.0</ele><time>2026-04-04T12:01:46Z</time></trkpt><trkpt lat="43.416422422550205" lon="10.773326662371057"><ele>132.33333333333334</ele><time>2026-04-04T12:01:47Z</time></trkpt><trkpt lat="43.41652335861062" lon="10.773034821292576"><ele>132.66666666666669</ele><time>2026-04-04T12:01:48Z</time></trkpt><trkpt lat="43.41664102654233" lon="10.772873320424143"><ele>133.0</ele><time>2026-04-04T12:01:49Z</time></trkpt><trkpt lat="43.41676911295175" lon="10.772796570868516"><ele>133.0</ele><time>2026-04-04T12:01:50Z</time></trkpt><trkpt lat="43.416926432642065" lon="10.772752626835338"><ele>133.0</ele><time>2026-04-04T12:01:51Z</time></trkpt><trkpt lat="43.41710057985697" lon="10.772764510040266"><ele>133.0</ele><time>2026-04-04T12:01:52Z</time></trkpt><trkpt lat="43.41729537536569" lon="10.772804172388115"><ele>132.0</ele><time>2026-04-04T12:01:53Z</time></trkpt><trkpt lat="43.417507570777914" lon="10.772884310344386"><ele>131.0</ele><time>2026-04-04T12:01:54Z</time></trkpt><trkpt lat="43.41774033588439" lon="10.772958558325724"><ele>131.0</ele><time>2026-04-04T12:01:55Z</time></trkpt><trkpt lat="43.41798286066162" lon="10.773028398945954"><ele>131.0</ele><time>2026-04-04T12:01:56Z</time></trkpt><trkpt lat="43.418237314797295" lon="10.77310200587632"><ele>130.5</ele><time>2026-04-04T12:01:57Z</time></trkpt><trkpt lat="43.418490530983625" lon="10.773179620328126"><ele>130.0</ele><time>2026-04-04T12:01:58Z</time></trkpt><trkpt lat="43.41875866779319" lon="10.773259264569598"><ele>129.0</ele><time>2026-04-04T12:01:59Z</time></trkpt><trkpt lat="43.41903607318961" lon="10.773341217357789"><ele>128.0</ele><time>2026-04-04T12:02:00Z</time></trkpt><trkpt lat="43.41932015958037" lon="10.773424335829281"><ele>128.0</ele><time>2026-04-04T12:02:01Z</time></trkpt><trkpt lat="43.41959793749327" lon="10.773509152325653"><ele>128.0</ele><time>2026-04-04T12:02:02Z</time></trkpt><trkpt lat="43.419856529137576" lon="10.773592192087937"><ele>128.5</ele><time>2026-04-04T12:02:03Z</time></trkpt><trkpt lat="43.4201014103603" lon="10.773669694731604"><ele>129.0</ele><time>2026-04-04T12:02:04Z</time></trkpt><trkpt lat="43.42032832334409" lon="10.773736689444352"><ele>129.66666666666666</ele><time>2026-04-04T12:02:05Z</time></trkpt><trkpt lat="43.420550139202" lon="10.773800370822112"><ele>130.33333333333331</ele><time>2026-04-04T12:02:06Z</time></trkpt><trkpt lat="43.42075964911925" lon="10.77386240247903"><ele>131.0</ele><time>2026-04-04T12:02:07Z</time></trkpt><trkpt lat="43.42096088083629" lon="10.773911838547027"><ele>131.0</ele><time>2026-04-04T12:02:08Z</time></trkpt><trkpt lat="43.42114933850666" lon="10.773954894113553"><ele>131.0</ele><time>2026-04-04T12:02:09Z</time></trkpt><trkpt lat="43.421324558573765" lon="10.773979693647263"><ele>131.0</ele><time>2026-04-04T12:02:10Z</time></trkpt><trkpt lat="43.421482181039366" lon="10.773998963551135"><ele>130.5</ele><time>2026-04-04T12:02:11Z</time></trkpt><trkpt lat="43.42162842028819" lon="10.774026449424008"><ele>130.0</ele><time>2026-04-04T12:02:12Z</time></trkpt><trkpt lat="43.4217733054734" lon="10.774053740661007"><ele>129.5</ele><time>2026-04-04T12:02:13Z</time></trkpt><trkpt lat="43.42190675919166" lon="10.774079724636508"><ele>129.0</ele><time>2026-04-04T12:02:14Z</time></trkpt><trkpt lat="43.422027282579776" lon="10.77410238513281"><ele>129.0</ele><time>2026-04-04T12:02:15Z</time></trkpt><trkpt lat="43.42214631817424" lon="10.774097355535096"><ele>129.0</ele><time>2026-04-04T12:02:16Z</time></trkpt><trkpt lat="43.42227865018593" lon="10.774040406741543"><ele>129.0</ele><time>2026-04-04T12:02:17Z</time></trkpt><trkpt lat="43.42242453221808" lon="10.773913185242494"><ele>129.0</ele><time>2026-04-04T12:02:18Z</time></trkpt><trkpt lat="43.42257308937112" lon="10.773742913404076"><ele>128.0</ele><time>2026-04-04T12:02:19Z</time></trkpt><trkpt lat="43.42271470760655" lon="10.773556058587793"><ele>127.0</ele><time>2026-04-04T12:02:20Z</time></trkpt><trkpt lat="43.42284384685784" lon="10.773401787561863"><ele>126.0</ele><time>2026-04-04T12:02:21Z</time></trkpt><trkpt lat="43.422954001380134" lon="10.77327688170602"><ele>125.5</ele><time>2026-04-04T12:02:22Z</time></trkpt><trkpt lat="43.42305547745098" lon="10.77315997790792"><ele>125.0</ele><time>2026-04-04T12:02:23Z</time></trkpt><trkpt lat="43.42315024837901" lon="10.773048988372855"><ele>124.5</ele><time>2026-04-04T12:02:24Z</time></trkpt><trkpt lat="43.42322743354552" lon="10.772936649047766"><ele>124.0</ele><time>2026-04-04T12:02:25Z</time></trkpt><trkpt lat="43.42329426196584" lon="10.772811107500242"><ele>124.0</ele><time>2026-04-04T12:02:26Z</time></trkpt><trkpt lat="43.42332480090136" lon="10.77266214272154"><ele>124.0</ele><time>2026-04-04T12:02:27Z</time></trkpt><trkpt lat="43.4233214968913" lon="10.77250916018021"><ele>124.0</ele><time>2026-04-04T12:02:28Z</time></trkpt><trkpt lat="43.42326408992201" lon="10.772348627299479"><ele>124.0</ele><time>2026-04-04T12:02:29Z</time></trkpt><trkpt lat="43.42325662297849" lon="10.77219927218573"><ele>124.0</ele><time>2026-04-04T12:02:30Z</time></trkpt><trkpt lat="43.423271103991304" lon="10.772060724848496"><ele>124.0</ele><time>2026-04-04T12:02:31Z</time></trkpt><trkpt lat="43.423340099901544" lon="10.771913397820368"><ele>124.0</ele><time>2026-04-04T12:02:32Z</time></trkpt><trkpt lat="43.42346462738373" lon="10.771787263232312"><ele>124.0</ele><time>2026-04-04T12:02:33Z</time></trkpt><trkpt lat="43.42361312343583" lon="10.771692372983054"><ele>124.33333333333334</ele><time>2026-04-04T12:02:34Z</time></trkpt><trkpt lat="43.42374416765612" lon="10.771590485149842"><ele>124.66666666666666</ele><time>2026-04-04T12:02:35Z</time></trkpt><trkpt lat="43.42386194293664" lon="10.771433293479928"><ele>125.0</ele><time>2026-04-04T12:02:36Z</time></trkpt><trkpt lat="43.423977818822706" lon="10.771242983854918"><ele>125.0</ele><time>2026-04-04T12:02:37Z</time></trkpt><trkpt lat="43.42409077050643" lon="10.77105806645685"><ele>125.0</ele><time>2026-04-04T12:02:38Z</time></trkpt><trkpt lat="43.424188999486724" lon="10.770893589206157"><ele>125.0</ele><time>2026-04-04T12:02:39Z</time></trkpt><trkpt lat="43.424267950350135" lon="10.770746649541339"><ele>125.5</ele><time>2026-04-04T12:02:40Z</time></trkpt><trkpt lat="43.42432039455191" lon="10.770599549491573"><ele>126.0</ele><time>2026-04-04T12:02:41Z</time></trkpt><trkpt lat="43.42433801132796" lon="10.77043303904529"><ele>126.5</ele><time>2026-04-04T12:02:42Z</time></trkpt><trkpt lat="43.42432372564185" lon="10.770243570436769"><ele>127.0</ele><time>2026-04-04T12:02:43Z</time></trkpt><trkpt lat="43.424261561493516" lon="10.77004365837541"><ele>126.0</ele><time>2026-04-04T12:02:44Z</time></trkpt><trkpt lat="43.424165441810985" lon="10.769857909643479"><ele>125.0</ele><time>2026-04-04T12:02:45Z</time></trkpt><trkpt lat="43.424085274304474" lon="10.769691105862847"><ele>124.0</ele><time>2026-04-04T12:02:46Z</time></trkpt><trkpt lat="43.42401646089132" lon="10.769560866899715"><ele>123.0</ele><time>2026-04-04T12:02:47Z</time></trkpt><trkpt lat="43.42395900778144" lon="10.769440408460856"><ele>122.60000000000001</ele><time>2026-04-04T12:02:48Z</time></trkpt><trkpt lat="43.42389885192909" lon="10.76932679626595"><ele>122.20000000000002</ele><time>2026-04-04T12:02:49Z</time></trkpt><trkpt lat="43.42389799784126" lon="10.769196833728461"><ele>121.8</ele><time>2026-04-04T12:02:50Z</time></trkpt><trkpt lat="43.423931363347435" lon="10.769073553034989"><ele>121.4</ele><time>2026-04-04T12:02:51Z</time></trkpt><trkpt lat="43.424017175485304" lon="10.768976598232033"><ele>121.0</ele><time>2026-04-04T12:02:52Z</time></trkpt><trkpt lat="43.42410593519847" lon="10.768828357927328"><ele>121.0</ele><time>2026-04-04T12:02:53Z</time></trkpt><trkpt lat="43.42422637877663" lon="10.7686743651465"><ele>121.0</ele><time>2026-04-04T12:02:54Z</time></trkpt><trkpt lat="43.42435849469975" lon="10.76849063584931"><ele>121.0</ele><time>2026-04-04T12:02:55Z</time></trkpt><trkpt lat="43.4245064523388" lon="10.768292152397297"><ele>122.33333333333334</ele><time>2026-04-04T12:02:56Z</time></trkpt><trkpt lat="43.424669245631705" lon="10.768102176314219"><ele>123.66666666666666</ele><time>2026-04-04T12:02:57Z</time></trkpt><trkpt lat="43.42484727403023" lon="10.767937436362836"><ele>125.0</ele><time>2026-04-04T12:02:58Z</time></trkpt><trkpt lat="43.42500252328299" lon="10.767775940656973"><ele>126.33333333333333</ele><time>2026-04-04T12:02:59Z</time></trkpt><trkpt lat="43.42512252452863" lon="10.767549393831239"><ele>127.66666666666666</ele><time>2026-04-04T12:03:00Z</time></trkpt><trkpt lat="43.425209760672004" lon="10.767253566566682"><ele>129.0</ele><time>2026-04-04T12:03:01Z</time></trkpt><trkpt lat="43.425309248864416" lon="10.76695699903092"><ele>129.0</ele><time>2026-04-04T12:03:02Z</time></trkpt><trkpt lat="43.42541493940178" lon="10.766682866083672"><ele>129.0</ele><time>2026-04-04T12:03:03Z</time></trkpt><trkpt lat="43.42551881920542" lon="10.766425002490612"><ele>129.0</ele><time>2026-04-04T12:03:04Z</time></trkpt><trkpt lat="43.4256085698585" lon="10.766197310147655"><ele>131.33333333333334</ele><time>2026-04-04T12:03:05Z</time></trkpt><trkpt lat="43.42569250997154" lon="10.76599403893566"><ele>133.66666666666669</ele><time>2026-04-04T12:03:06Z</time></trkpt><trkpt lat="43.42579456890153" lon="10.76582355283721"><ele>136.0</ele><time>2026-04-04T12:03:07Z</time></trkpt><trkpt lat="43.42592234031595" lon="10.765688847286748"><ele>136.0</ele><time>2026-04-04T12:03:08Z</time></trkpt><trkpt lat="43.426036144724954" lon="10.765561847983852"><ele>136.0</ele><time>2026-04-04T12:03:09Z</time></trkpt><trkpt lat="43.426111956689425" lon="10.765424064261017"><ele>136.0</ele><time>2026-04-04T12:03:10Z</time></trkpt><trkpt lat="43.426148091214046" lon="10.765253774089487"><ele>136.0</ele><time>2026-04-04T12:03:11Z</time></trkpt><trkpt lat="43.426149442250065" lon="10.765059656442569"><ele>136.0</ele><time>2026-04-04T12:03:12Z</time></trkpt><trkpt lat="43.426129877800854" lon="10.764859999863662"><ele>136.0</ele><time>2026-04-04T12:03:13Z</time></trkpt><trkpt lat="43.42611195121491" lon="10.764690794488754"><ele>136.0</ele><time>2026-04-04T12:03:14Z</time></trkpt><trkpt lat="43.42614939520197" lon="10.764545688640395"><ele>136.0</ele><time>2026-04-04T12:03:15Z</time></trkpt><trkpt lat="43.42620657210441" lon="10.76440567967881"><ele>136.0</ele><time>2026-04-04T12:03:16Z</time></trkpt><trkpt lat="43.426302260516465" lon="10.764263161769112"><ele>136.0</ele><time>2026-04-04T12:03:17Z</time></trkpt><trkpt lat="43.42643784303603" lon="10.764197003807205"><ele>136.0</ele><time>2026-04-04T12:03:18Z</time></trkpt><trkpt lat="43.426539710246644" lon="10.764137093830042"><ele>136.0</ele><time>2026-04-04T12:03:19Z</time></trkpt><trkpt lat="43.42659085487378" lon="10.76403586340601"><ele>138.25</ele><time>2026-04-04T12:03:20Z</time></trkpt><trkpt lat="43.426613198964944" lon="10.763872606891303"><ele>140.5</ele><time>2026-04-04T12:03:21Z</time></trkpt><trkpt lat="43.4266204401081" lon="10.763670271842434"><ele>142.75</ele><time>2026-04-04T12:03:22Z</time></trkpt><trkpt lat="43.42664729134855" lon="10.763475079066136"><ele>145.0</ele><time>2026-04-04T12:03:23Z</time></trkpt><trkpt lat="43.42669749409244" lon="10.763321398783653"><ele>145.0</ele><time>2026-04-04T12:03:24Z</time></trkpt><trkpt lat="43.426789636991" lon="10.763185212142059"><ele>145.0</ele><time>2026-04-04T12:03:24.999Z</time></trkpt><trkpt lat="43.42690625695678" lon="10.763084801903517"><ele>145.0</ele><time>2026-04-04T12:03:25.999Z</time></trkpt><trkpt lat="43.42705788140961" lon="10.763025998874008"><ele>145.0</ele><time>2026-04-04T12:03:26.999Z</time></trkpt><trkpt lat="43.42721180290687" lon="10.762978383191633"><ele>147.25</ele><time>2026-04-04T12:03:27.999Z</time></trkpt><trkpt lat="43.42733531320177" lon="10.762910083471882"><ele>149.5</ele><time>2026-04-04T12:03:28.999Z</time></trkpt><trkpt lat="43.427432047949594" lon="10.762830745886983"><ele>151.75</ele><time>2026-04-04T12:03:29.999Z</time></trkpt><trkpt lat="43.427498244394904" lon="10.762710848297111"><ele>154.0</ele><time>2026-04-04T12:03:30.999Z</time></trkpt><trkpt lat="43.42752444895175" lon="10.762551246506288"><ele>154.0</ele><time>2026-04-04T12:03:31.999Z</time></trkpt><trkpt lat="43.42750938319782" lon="10.762362857955157"><ele>154.0</ele><time>2026-04-04T12:03:32.999Z</time></trkpt><trkpt lat="43.4274676475071" lon="10.762163453864531"><ele>154.0</ele><time>2026-04-04T12:03:33.999Z</time></trkpt><trkpt lat="43.427450463198184" lon="10.761980100111302"><ele>154.0</ele><time>2026-04-04T12:03:34.999Z</time></trkpt><trkpt lat="43.42746034661706" lon="10.76181788118635"><ele>153.66666666666669</ele><time>2026-04-04T12:03:35.999Z</time></trkpt><trkpt lat="43.427502616885704" lon="10.76164924837167"><ele>153.33333333333334</ele><time>2026-04-04T12:03:36.999Z</time></trkpt><trkpt lat="43.427562033035365" lon="10.761459286031442"><ele>153.0</ele><time>2026-04-04T12:03:37.999Z</time></trkpt><trkpt lat="43.42765410574474" lon="10.761260061041842"><ele>153.0</ele><time>2026-04-04T12:03:38.999Z</time></trkpt><trkpt lat="43.427754783531114" lon="10.761035394569351"><ele>153.0</ele><time>2026-04-04T12:03:39.999Z</time></trkpt><trkpt lat="43.427848117307214" lon="10.760834275321761"><ele>153.0</ele><time>2026-04-04T12:03:40.999Z</time></trkpt><trkpt lat="43.42791268155859" lon="10.760649661161919"><ele>152.5</ele><time>2026-04-04T12:03:41.999Z</time></trkpt><trkpt lat="43.427971337222104" lon="10.76049432203899"><ele>152.0</ele><time>2026-04-04T12:03:42.999Z</time></trkpt><trkpt lat="43.42805476728071" lon="10.760384002350586"><ele>151.5</ele><time>2026-04-04T12:03:44Z</time></trkpt><trkpt lat="43.42816783441851" lon="10.760314168293347"><ele>151.0</ele><time>2026-04-04T12:03:45Z</time></trkpt><trkpt lat="43.42830926408325" lon="10.76029125944737"><ele>153.33333333333334</ele><time>2026-04-04T12:03:46Z</time></trkpt><trkpt lat="43.42844887488589" lon="10.760268425199504"><ele>155.66666666666666</ele><time>2026-04-04T12:03:47Z</time></trkpt><trkpt lat="43.42858512269646" lon="10.760182297462615"><ele>158.0</ele><time>2026-04-04T12:03:48Z</time></trkpt><trkpt lat="43.42872635412651" lon="10.760015521966475"><ele>156.0</ele><time>2026-04-04T12:03:49Z</time></trkpt><trkpt lat="43.428854998842255" lon="10.759827006018433"><ele>154.0</ele><time>2026-04-04T12:03:50Z</time></trkpt><trkpt lat="43.42897341637289" lon="10.759672734401361"><ele>152.0</ele><time>2026-04-04T12:03:51Z</time></trkpt><trkpt lat="43.4291086707721" lon="10.759568740490081"><ele>152.0</ele><time>2026-04-04T12:03:52Z</time></trkpt><trkpt lat="43.429256720473305" lon="10.759507271326974"><ele>152.0</ele><time>2026-04-04T12:03:53Z</time></trkpt><trkpt lat="43.42942364029411" lon="10.75949802712724"><ele>152.0</ele><time>2026-04-04T12:03:54Z</time></trkpt><trkpt lat="43.42960979387531" lon="10.759579607252107"><ele>150.33333333333331</ele><time>2026-04-04T12:03:55Z</time></trkpt><trkpt lat="43.429794405123886" lon="10.759649779451385"><ele>148.66666666666666</ele><time>2026-04-04T12:03:56Z</time></trkpt><trkpt lat="43.42996437356053" lon="10.759738860645063"><ele>147.0</ele><time>2026-04-04T12:03:57Z</time></trkpt><trkpt lat="43.430116080633724" lon="10.759794659738926"><ele>147.0</ele><time>2026-04-04T12:03:58Z</time></trkpt><trkpt lat="43.43026870836713" lon="10.759823504137776"><ele>147.0</ele><time>2026-04-04T12:03:59Z</time></trkpt><trkpt lat="43.43043717778335" lon="10.759812916699886"><ele>147.0</ele><time>2026-04-04T12:04:00Z</time></trkpt><trkpt lat="43.430618910194774" lon="10.759762402741528"><ele>147.66666666666666</ele><time>2026-04-04T12:04:01Z</time></trkpt><trkpt lat="43.430796001755155" lon="10.759694874056358"><ele>148.33333333333331</ele><time>2026-04-04T12:04:02Z</time></trkpt><trkpt lat="43.43099161234594" lon="10.759633640823877"><ele>149.0</ele><time>2026-04-04T12:04:03Z</time></trkpt><trkpt lat="43.43119555917082" lon="10.759571392598442"><ele>149.66666666666666</ele><time>2026-04-04T12:04:04Z</time></trkpt><trkpt lat="43.431387385696254" lon="10.759506258415076"><ele>150.33333333333334</ele><time>2026-04-04T12:04:05Z</time></trkpt><trkpt lat="43.431562741877585" lon="10.759450589277256"><ele>151.0</ele><time>2026-04-04T12:04:06Z</time></trkpt><trkpt lat="43.43173229875079" lon="10.7593979401742"><ele>148.33333333333334</ele><time>2026-04-04T12:04:07Z</time></trkpt><trkpt lat="43.43190627658826" lon="10.759353312758464"><ele>145.66666666666666</ele><time>2026-04-04T12:04:08Z</time></trkpt><trkpt lat="43.432084585618945" lon="10.75932093789635"><ele>143.0</ele><time>2026-04-04T12:04:09Z</time></trkpt><trkpt lat="43.432238581421466" lon="10.759298985809302"><ele>144.33333333333331</ele><time>2026-04-04T12:04:10Z</time></trkpt><trkpt lat="43.43242733089259" lon="10.759307912592096"><ele>145.66666666666666</ele><time>2026-04-04T12:04:11Z</time></trkpt><trkpt lat="43.43262057822789" lon="10.759341102031383"><ele>147.0</ele><time>2026-04-04T12:04:12Z</time></trkpt><trkpt lat="43.432816944746754" lon="10.759392186704272"><ele>144.66666666666666</ele><time>2026-04-04T12:04:13Z</time></trkpt><trkpt lat="43.43301556065074" lon="10.759454402305572"><ele>142.33333333333331</ele><time>2026-04-04T12:04:14Z</time></trkpt><trkpt lat="43.43319974029836" lon="10.759517200609057"><ele>140.0</ele><time>2026-04-04T12:04:15Z</time></trkpt><trkpt lat="43.43336516251484" lon="10.759575855680753"><ele>140.0</ele><time>2026-04-04T12:04:16Z</time></trkpt><trkpt lat="43.43351048784524" lon="10.759633811552865"><ele>140.0</ele><time>2026-04-04T12:04:17Z</time></trkpt><trkpt lat="43.43366161799137" lon="10.759721888990077"><ele>140.0</ele><time>2026-04-04T12:04:18Z</time></trkpt><trkpt lat="43.43379280519844" lon="10.759866764555355"><ele>139.0</ele><time>2026-04-04T12:04:19Z</time></trkpt><trkpt lat="43.433939832589466" lon="10.760041738443032"><ele>138.0</ele><time>2026-04-04T12:04:20Z</time></trkpt><trkpt lat="43.43409059398273" lon="10.760222673099511"><ele>137.0</ele><time>2026-04-04T12:04:21Z</time></trkpt><trkpt lat="43.4342430715617" lon="10.760403955949554"><ele>137.0</ele><time>2026-04-04T12:04:22Z</time></trkpt><trkpt lat="43.43438385096139" lon="10.760569106696442"><ele>137.0</ele><time>2026-04-04T12:04:23Z</time></trkpt><trkpt lat="43.434502111425054" lon="10.76071341467467"><ele>137.0</ele><time>2026-04-04T12:04:24Z</time></trkpt><trkpt lat="43.43461225324079" lon="10.760871936136283"><ele>135.33333333333331</ele><time>2026-04-04T12:04:25Z</time></trkpt><trkpt lat="43.4347059476959" lon="10.76106679901207"><ele>133.66666666666666</ele><time>2026-04-04T12:04:26Z</time></trkpt><trkpt lat="43.434801576922844" lon="10.761307647724717"><ele>132.0</ele><time>2026-04-04T12:04:27Z</time></trkpt><trkpt lat="43.43490184589979" lon="10.761571428718208"><ele>132.0</ele><time>2026-04-04T12:04:28Z</time></trkpt><trkpt lat="43.43500072599504" lon="10.761830403150535"><ele>132.0</ele><time>2026-04-04T12:04:29Z</time></trkpt><trkpt lat="43.435099739771495" lon="10.762088175467836"><ele>132.0</ele><time>2026-04-04T12:04:30Z</time></trkpt><trkpt lat="43.43520751754178" lon="10.762368764020438"><ele>132.5</ele><time>2026-04-04T12:04:31Z</time></trkpt><trkpt lat="43.435326597338296" lon="10.762678776233292"><ele>133.0</ele><time>2026-04-04T12:04:32Z</time></trkpt><trkpt lat="43.435448484182665" lon="10.762993780258455"><ele>132.0</ele><time>2026-04-04T12:04:33Z</time></trkpt><trkpt lat="43.43556731637261" lon="10.763298934563622"><ele>131.0</ele><time>2026-04-04T12:04:34Z</time></trkpt><trkpt lat="43.43568227257077" lon="10.763594135546569"><ele>131.0</ele><time>2026-04-04T12:04:35Z</time></trkpt><trkpt lat="43.43579426441845" lon="10.76388038091449"><ele>131.0</ele><time>2026-04-04T12:04:36Z</time></trkpt><trkpt lat="43.43590840334148" lon="10.764172005801038"><ele>132.0</ele><time>2026-04-04T12:04:37Z</time></trkpt><trkpt lat="43.43602288051851" lon="10.7644722970657"><ele>133.0</ele><time>2026-04-04T12:04:38Z</time></trkpt><trkpt lat="43.43613708349478" lon="10.764771869014853"><ele>133.0</ele><time>2026-04-04T12:04:39Z</time></trkpt><trkpt lat="43.436252696216236" lon="10.765075138991234"><ele>133.0</ele><time>2026-04-04T12:04:40Z</time></trkpt><trkpt lat="43.436380828305055" lon="10.765371849285804"><ele>129.0</ele><time>2026-04-04T12:04:41Z</time></trkpt><trkpt lat="43.43649100879417" lon="10.765663086444423"><ele>125.0</ele><time>2026-04-04T12:04:42Z</time></trkpt><trkpt lat="43.43659817847163" lon="10.765935369373517"><ele>125.33333333333333</ele><time>2026-04-04T12:04:43Z</time></trkpt><trkpt lat="43.43669853453708" lon="10.76619129444636"><ele>125.66666666666666</ele><time>2026-04-04T12:04:44Z</time></trkpt><trkpt lat="43.43677710624911" lon="10.76644705480472"><ele>126.0</ele><time>2026-04-04T12:04:45Z</time></trkpt><trkpt lat="43.436887189990856" lon="10.766666342643603"><ele>125.33333333333334</ele><time>2026-04-04T12:04:46Z</time></trkpt><trkpt lat="43.43699161908949" lon="10.766888243802425"><ele>124.66666666666667</ele><time>2026-04-04T12:04:47Z</time></trkpt><trkpt lat="43.437116986000106" lon="10.767111703892791"><ele>124.0</ele><time>2026-04-04T12:04:48Z</time></trkpt><trkpt lat="43.4372767361956" lon="10.767322355952189"><ele>124.0</ele><time>2026-04-04T12:04:49Z</time></trkpt><trkpt lat="43.43744977640487" lon="10.76753821263808"><ele>124.0</ele><time>2026-04-04T12:04:50Z</time></trkpt><trkpt lat="43.437638148008304" lon="10.767782392539383"><ele>124.5</ele><time>2026-04-04T12:04:51Z</time></trkpt><trkpt lat="43.43783994646305" lon="10.76804406370514"><ele>125.0</ele><time>2026-04-04T12:04:52Z</time></trkpt><trkpt lat="43.43804916166998" lon="10.76832464903534"><ele>124.0</ele><time>2026-04-04T12:04:53Z</time></trkpt><trkpt lat="43.43826984342573" lon="10.768620028607916"><ele>123.0</ele><time>2026-04-04T12:04:54Z</time></trkpt><trkpt lat="43.4384962876171" lon="10.768918737559265"><ele>123.0</ele><time>2026-04-04T12:04:55Z</time></trkpt><trkpt lat="43.43870425491401" lon="10.769190017051404"><ele>123.0</ele><time>2026-04-04T12:04:56Z</time></trkpt><trkpt lat="43.43889543464414" lon="10.769450280274047"><ele>122.0</ele><time>2026-04-04T12:04:57Z</time></trkpt><trkpt lat="43.43907925777011" lon="10.76969395519861"><ele>121.0</ele><time>2026-04-04T12:04:58Z</time></trkpt><trkpt lat="43.439246475657484" lon="10.76992147616625"><ele>121.0</ele><time>2026-04-04T12:04:59Z</time></trkpt><trkpt lat="43.43940920566384" lon="10.770132951954007"><ele>121.0</ele><time>2026-04-04T12:05:00Z</time></trkpt><trkpt lat="43.439571860031556" lon="10.77034331275079"><ele>121.0</ele><time>2026-04-04T12:05:01Z</time></trkpt><trkpt lat="43.43972099700734" lon="10.770547497807769"><ele>120.33333333333334</ele><time>2026-04-04T12:05:02Z</time></trkpt><trkpt lat="43.43985945793977" lon="10.770750729519209"><ele>119.66666666666666</ele><time>2026-04-04T12:05:03Z</time></trkpt><trkpt lat="43.439992241209424" lon="10.77093880133368"><ele>119.0</ele><time>2026-04-04T12:05:04Z</time></trkpt><trkpt lat="43.44012578780399" lon="10.771113404985106"><ele>118.66666666666666</ele><time>2026-04-04T12:05:05Z</time></trkpt><trkpt lat="43.44025083724494" lon="10.771281273143522"><ele>118.33333333333334</ele><time>2026-04-04T12:05:06Z</time></trkpt><trkpt lat="43.44037247381401" lon="10.77142903207349"><ele>118.0</ele><time>2026-04-04T12:05:07Z</time></trkpt><trkpt lat="43.44051800214294" lon="10.7715514985436"><ele>118.0</ele><time>2026-04-04T12:05:08Z</time></trkpt><trkpt lat="43.440706393798486" lon="10.771642827847812"><ele>118.0</ele><time>2026-04-04T12:05:09Z</time></trkpt><trkpt lat="43.44092240410289" lon="10.771718968929028"><ele>118.0</ele><time>2026-04-04T12:05:10Z</time></trkpt><trkpt lat="43.44116502100579" lon="10.77176982888877"><ele>119.0</ele><time>2026-04-04T12:05:11Z</time></trkpt><trkpt lat="43.441398744155165" lon="10.771862729923487"><ele>120.0</ele><time>2026-04-04T12:05:12Z</time></trkpt><trkpt lat="43.44163506217309" lon="10.771963049463"><ele>120.0</ele><time>2026-04-04T12:05:13Z</time></trkpt><trkpt lat="43.44187097087626" lon="10.772065155539506"><ele>120.0</ele><time>2026-04-04T12:05:14Z</time></trkpt><trkpt lat="43.442107694932936" lon="10.77216186522289"><ele>117.5</ele><time>2026-04-04T12:05:15Z</time></trkpt><trkpt lat="43.44234538232714" lon="10.77225783150455"><ele>115.0</ele><time>2026-04-04T12:05:16Z</time></trkpt><trkpt lat="43.442569251957096" lon="10.772350621176551"><ele>115.0</ele><time>2026-04-04T12:05:17Z</time></trkpt><trkpt lat="43.44277910818883" lon="10.772438854769812"><ele>115.0</ele><time>2026-04-04T12:05:18Z</time></trkpt><trkpt lat="43.442977247731854" lon="10.772517472927918"><ele>115.0</ele><time>2026-04-04T12:05:19Z</time></trkpt><trkpt lat="43.44332596898593" lon="10.772669795157652"><ele>114.0</ele><time>2026-04-04T12:05:21Z</time></trkpt><trkpt lat="43.44350598674741" lon="10.772735359464058"><ele>113.0</ele><time>2026-04-04T12:05:22Z</time></trkpt><trkpt lat="43.44370592601796" lon="10.772761099243882"><ele>112.0</ele><time>2026-04-04T12:05:23Z</time></trkpt><trkpt lat="43.44392623075287" lon="10.772748028520718"><ele>109.5</ele><time>2026-04-04T12:05:24Z</time></trkpt><trkpt lat="43.44415448535635" lon="10.772716231749454"><ele>107.0</ele><time>2026-04-04T12:05:24.999Z</time></trkpt><trkpt lat="43.44438378281789" lon="10.77269162956721"><ele>109.0</ele><time>2026-04-04T12:05:25.999Z</time></trkpt><trkpt lat="43.444626460163725" lon="10.772680426320939"><ele>111.0</ele><time>2026-04-04T12:05:26.999Z</time></trkpt><trkpt lat="43.44488046121445" lon="10.772664170463022"><ele>111.0</ele><time>2026-04-04T12:05:27.999Z</time></trkpt><trkpt lat="43.44513690680036" lon="10.772642971007434"><ele>111.0</ele><time>2026-04-04T12:05:28.999Z</time></trkpt><trkpt lat="43.44540328689481" lon="10.77262570796236"><ele>110.0</ele><time>2026-04-04T12:05:29.999Z</time></trkpt><trkpt lat="43.44566617538524" lon="10.77260780633702"><ele>109.0</ele><time>2026-04-04T12:05:30.999Z</time></trkpt><trkpt lat="43.44593828577594" lon="10.77258314568813"><ele>109.0</ele><time>2026-04-04T12:05:31.999Z</time></trkpt><trkpt lat="43.44620708134856" lon="10.772556712267837"><ele>109.0</ele><time>2026-04-04T12:05:32.999Z</time></trkpt><trkpt lat="43.44647832321095" lon="10.772517883828579"><ele>108.5</ele><time>2026-04-04T12:05:33.999Z</time></trkpt><trkpt lat="43.446738972974806" lon="10.772468989185622"><ele>108.0</ele><time>2026-04-04T12:05:34.999Z</time></trkpt><trkpt lat="43.44698377260268" lon="10.772425549821643"><ele>108.5</ele><time>2026-04-04T12:05:35.999Z</time></trkpt><trkpt lat="43.44721342538053" lon="10.772392410460288"><ele>109.0</ele><time>2026-04-04T12:05:36.999Z</time></trkpt><trkpt lat="43.44744711350477" lon="10.772351033333626"><ele>109.0</ele><time>2026-04-04T12:05:37.999Z</time></trkpt><trkpt lat="43.44768556069654" lon="10.772330861531989"><ele>109.0</ele><time>2026-04-04T12:05:38.999Z</time></trkpt><trkpt lat="43.44791272605423" lon="10.772293959048202"><ele>109.0</ele><time>2026-04-04T12:05:39.999Z</time></trkpt><trkpt lat="43.448116956209795" lon="10.772260822107722"><ele>109.0</ele><time>2026-04-04T12:05:40.999Z</time></trkpt><trkpt lat="43.44830514149094" lon="10.772230288456768"><ele>109.0</ele><time>2026-04-04T12:05:41.999Z</time></trkpt><trkpt lat="43.44848232274127" lon="10.772204209760012"><ele>109.0</ele><time>2026-04-04T12:05:42.999Z</time></trkpt><trkpt lat="43.44865813989064" lon="10.77219428742998"><ele>109.0</ele><time>2026-04-04T12:05:43.999Z</time></trkpt><trkpt lat="43.44883338191109" lon="10.772211072456157"><ele>109.0</ele><time>2026-04-04T12:05:44.999Z</time></trkpt><trkpt lat="43.44901526151272" lon="10.77222080332048"><ele>106.66666666666667</ele><time>2026-04-04T12:05:45.999Z</time></trkpt><trkpt lat="43.44918740186182" lon="10.772263464378614"><ele>104.33333333333334</ele><time>2026-04-04T12:05:46.999Z</time></trkpt><trkpt lat="43.44935069121417" lon="10.772299024633835"><ele>102.0</ele><time>2026-04-04T12:05:47.999Z</time></trkpt><trkpt lat="43.4494858923025" lon="10.77232611365491"><ele>102.0</ele><time>2026-04-04T12:05:48.999Z</time></trkpt><trkpt lat="43.4496063367308" lon="10.77234310182769"><ele>102.0</ele><time>2026-04-04T12:05:50Z</time></trkpt><trkpt lat="43.44972658379021" lon="10.772347658798072"><ele>102.0</ele><time>2026-04-04T12:05:51Z</time></trkpt><trkpt lat="43.44983456949314" lon="10.772317100543555"><ele>102.0</ele><time>2026-04-04T12:05:52Z</time></trkpt><trkpt lat="43.449912543897476" lon="10.772212538452342"><ele>101.25</ele><time>2026-04-04T12:05:53Z</time></trkpt><trkpt lat="43.44996467811702" lon="10.772073238554784"><ele>100.5</ele><time>2026-04-04T12:05:54Z</time></trkpt><trkpt lat="43.44998956138054" lon="10.771900638050182"><ele>99.75</ele><time>2026-04-04T12:05:55Z</time></trkpt><trkpt lat="43.449974742418746" lon="10.771696367705843"><ele>99.0</ele><time>2026-04-04T12:05:56Z</time></trkpt><trkpt lat="43.44995512967994" lon="10.771474112389589"><ele>99.0</ele><time>2026-04-04T12:05:57Z</time></trkpt><trkpt lat="43.44995579652427" lon="10.771251161253826"><ele>99.0</ele><time>2026-04-04T12:05:58Z</time></trkpt><trkpt lat="43.44995505116876" lon="10.771063712622146"><ele>99.0</ele><time>2026-04-04T12:05:59Z</time></trkpt><trkpt lat="43.449963304534904" lon="10.770889843504497"><ele>99.0</ele><time>2026-04-04T12:06:00Z</time></trkpt><trkpt lat="43.45000153022184" lon="10.770737001390872"><ele>99.66666666666666</ele><time>2026-04-04T12:06:01Z</time></trkpt><trkpt lat="43.45006930704829" lon="10.770594844875234"><ele>100.33333333333333</ele><time>2026-04-04T12:06:02Z</time></trkpt><trkpt lat="43.45020583082539" lon="10.770482380196563"><ele>101.0</ele><time>2026-04-04T12:06:03Z</time></trkpt><trkpt lat="43.45037376350064" lon="10.770405839537748"><ele>101.0</ele><time>2026-04-04T12:06:04Z</time></trkpt><trkpt lat="43.450558798888395" lon="10.770289782669558"><ele>101.0</ele><time>2026-04-04T12:06:05Z</time></trkpt><trkpt lat="43.450772504224815" lon="10.7701864899288"><ele>101.0</ele><time>2026-04-04T12:06:06Z</time></trkpt><trkpt lat="43.45099752581205" lon="10.770061356271377"><ele>101.0</ele><time>2026-04-04T12:06:07Z</time></trkpt><trkpt lat="43.45122638931616" lon="10.769926046026985"><ele>101.0</ele><time>2026-04-04T12:06:08Z</time></trkpt><trkpt lat="43.45147189902058" lon="10.769785028343355"><ele>100.0</ele><time>2026-04-04T12:06:09Z</time></trkpt><trkpt lat="43.451737482923136" lon="10.769639526603239"><ele>99.0</ele><time>2026-04-04T12:06:10Z</time></trkpt><trkpt lat="43.4520011968606" lon="10.769492410522634"><ele>99.0</ele><time>2026-04-04T12:06:11Z</time></trkpt><trkpt lat="43.45226082259461" lon="10.769343407807387"><ele>99.0</ele><time>2026-04-04T12:06:12Z</time></trkpt><trkpt lat="43.45250234228661" lon="10.769206520881092"><ele>99.0</ele><time>2026-04-04T12:06:13Z</time></trkpt><trkpt lat="43.45273729735268" lon="10.7690748561245"><ele>99.0</ele><time>2026-04-04T12:06:14Z</time></trkpt><trkpt lat="43.45296176425522" lon="10.768949931309628"><ele>98.0</ele><time>2026-04-04T12:06:15Z</time></trkpt><trkpt lat="43.45318886442695" lon="10.768825045497378"><ele>97.0</ele><time>2026-04-04T12:06:16Z</time></trkpt><trkpt lat="43.4534096475879" lon="10.768704001497182"><ele>97.0</ele><time>2026-04-04T12:06:17Z</time></trkpt><trkpt lat="43.453620891106524" lon="10.768588990768615"><ele>97.0</ele><time>2026-04-04T12:06:18Z</time></trkpt><trkpt lat="43.45383198411065" lon="10.768472600234789"><ele>96.66666666666667</ele><time>2026-04-04T12:06:19Z</time></trkpt><trkpt lat="43.45402595604865" lon="10.768360381796183"><ele>96.33333333333334</ele><time>2026-04-04T12:06:20Z</time></trkpt><trkpt lat="43.454216908587405" lon="10.768246955779336"><ele>96.0</ele><time>2026-04-04T12:06:21Z</time></trkpt><trkpt lat="43.45439817328212" lon="10.768139809997155"><ele>96.0</ele><time>2026-04-04T12:06:22Z</time></trkpt><trkpt lat="43.454575429579286" lon="10.768014776518038"><ele>96.0</ele><time>2026-04-04T12:06:23Z</time></trkpt><trkpt lat="43.454753784738024" lon="10.767844001219654"><ele>96.0</ele><time>2026-04-04T12:06:24Z</time></trkpt><trkpt lat="43.45493454124401" lon="10.767622835484195"><ele>95.5</ele><time>2026-04-04T12:06:25Z</time></trkpt><trkpt lat="43.45511618091159" lon="10.767402564317191"><ele>95.0</ele><time>2026-04-04T12:06:26Z</time></trkpt><trkpt lat="43.45529980402562" lon="10.767185430216754"><ele>93.5</ele><time>2026-04-04T12:06:27Z</time></trkpt><trkpt lat="43.455485210304566" lon="10.766970825728325"><ele>92.0</ele><time>2026-04-04T12:06:28Z</time></trkpt><trkpt lat="43.45567508811169" lon="10.76676053161702"><ele>92.0</ele><time>2026-04-04T12:06:29Z</time></trkpt><trkpt lat="43.455863737955205" lon="10.766552733922909"><ele>92.0</ele><time>2026-04-04T12:06:30Z</time></trkpt><trkpt lat="43.456050734789486" lon="10.76634496022172"><ele>92.0</ele><time>2026-04-04T12:06:31Z</time></trkpt><trkpt lat="43.45624150955451" lon="10.766133064758447"><ele>92.0</ele><time>2026-04-04T12:06:32Z</time></trkpt><trkpt lat="43.4564355257603" lon="10.765902841869453"><ele>91.0</ele><time>2026-04-04T12:06:33Z</time></trkpt><trkpt lat="43.45663138692481" lon="10.765681463964151"><ele>90.0</ele><time>2026-04-04T12:06:34Z</time></trkpt><trkpt lat="43.456829309758" lon="10.76546038003961"><ele>90.0</ele><time>2026-04-04T12:06:35Z</time></trkpt><trkpt lat="43.45702567329785" lon="10.765235415064883"><ele>90.0</ele><time>2026-04-04T12:06:36Z</time></trkpt><trkpt lat="43.45722181267485" lon="10.765010935344037"><ele>89.5</ele><time>2026-04-04T12:06:37Z</time></trkpt><trkpt lat="43.45741622120891" lon="10.764788216487581"><ele>89.0</ele><time>2026-04-04T12:06:38Z</time></trkpt><trkpt lat="43.45759871118224" lon="10.76457868512853"><ele>89.0</ele><time>2026-04-04T12:06:39Z</time></trkpt><trkpt lat="43.457774973978765" lon="10.764384723498509"><ele>89.0</ele><time>2026-04-04T12:06:40Z</time></trkpt><trkpt lat="43.45793359694169" lon="10.764209639019874"><ele>89.0</ele><time>2026-04-04T12:06:41Z</time></trkpt><trkpt lat="43.4580800906721" lon="10.764041869537822"><ele>88.33333333333334</ele><time>2026-04-04T12:06:42Z</time></trkpt><trkpt lat="43.45820838459258" lon="10.763893383110585"><ele>87.66666666666667</ele><time>2026-04-04T12:06:43Z</time></trkpt><trkpt lat="43.45832718075113" lon="10.763756145147935"><ele>87.0</ele><time>2026-04-04T12:06:44Z</time></trkpt><trkpt lat="43.458430191369494" lon="10.763612981831775"><ele>88.0</ele><time>2026-04-04T12:06:45Z</time></trkpt><trkpt lat="43.45849476354098" lon="10.763425374364765"><ele>89.0</ele><time>2026-04-04T12:06:46Z</time></trkpt><trkpt lat="43.45851993984575" lon="10.763187426311074"><ele>90.0</ele><time>2026-04-04T12:06:47Z</time></trkpt><trkpt lat="43.4585122069238" lon="10.762920139457432"><ele>90.33333333333333</ele><time>2026-04-04T12:06:48Z</time></trkpt><trkpt lat="43.45849564076476" lon="10.762663194884068"><ele>90.66666666666666</ele><time>2026-04-04T12:06:49Z</time></trkpt><trkpt lat="43.45849161646348" lon="10.76244184269687"><ele>91.0</ele><time>2026-04-04T12:06:50Z</time></trkpt><trkpt lat="43.4585135343432" lon="10.762240466567787"><ele>91.0</ele><time>2026-04-04T12:06:51Z</time></trkpt><trkpt lat="43.45853878026746" lon="10.76204349935121"><ele>91.0</ele><time>2026-04-04T12:06:52Z</time></trkpt><trkpt lat="43.45860092621953" lon="10.76183893099265"><ele>91.0</ele><time>2026-04-04T12:06:53Z</time></trkpt><trkpt lat="43.45868722972414" lon="10.76159315199182"><ele>90.33333333333333</ele><time>2026-04-04T12:06:54Z</time></trkpt><trkpt lat="43.45877675873238" lon="10.761342189718855"><ele>89.66666666666667</ele><time>2026-04-04T12:06:55Z</time></trkpt><trkpt lat="43.45885722323979" lon="10.761079593115944"><ele>89.0</ele><time>2026-04-04T12:06:56Z</time></trkpt><trkpt lat="43.45894138730555" lon="10.760840040197445"><ele>87.66666666666667</ele><time>2026-04-04T12:06:57Z</time></trkpt><trkpt lat="43.45902963451805" lon="10.760633409103258"><ele>86.33333333333333</ele><time>2026-04-04T12:06:58Z</time></trkpt><trkpt lat="43.459097747357234" lon="10.760444397212245"><ele>85.0</ele><time>2026-04-04T12:06:59Z</time></trkpt><trkpt lat="43.45915951694739" lon="10.760270918806382"><ele>85.0</ele><time>2026-04-04T12:07:00Z</time></trkpt><trkpt lat="43.45920484168853" lon="10.760102694743097"><ele>85.0</ele><time>2026-04-04T12:07:01Z</time></trkpt><trkpt lat="43.45926031233738" lon="10.759958274039525"><ele>85.0</ele><time>2026-04-04T12:07:02Z</time></trkpt><trkpt lat="43.45933261738233" lon="10.759835304905662"><ele>85.0</ele><time>2026-04-04T12:07:03Z</time></trkpt><trkpt lat="43.459408259103306" lon="10.759718389960407"><ele>85.0</ele><time>2026-04-04T12:07:04Z</time></trkpt><trkpt lat="43.45948489489957" lon="10.759602223966148"><ele>85.0</ele><time>2026-04-04T12:07:05Z</time></trkpt><trkpt lat="43.4595905572243" lon="10.75953994805699"><ele>85.0</ele><time>2026-04-04T12:07:06Z</time></trkpt><trkpt lat="43.45970614736358" lon="10.759498751260603"><ele>85.0</ele><time>2026-04-04T12:07:07Z</time></trkpt><trkpt lat="43.45983589800085" lon="10.759476099657437"><ele>85.75</ele><time>2026-04-04T12:07:08Z</time></trkpt><trkpt lat="43.4599768252754" lon="10.759494023901448"><ele>86.5</ele><time>2026-04-04T12:07:09Z</time></trkpt><trkpt lat="43.46011941301316" lon="10.759557655101663"><ele>87.25</ele><time>2026-04-04T12:07:10Z</time></trkpt><trkpt lat="43.4602529173147" lon="10.759648536918377"><ele>88.0</ele><time>2026-04-04T12:07:11Z</time></trkpt><trkpt lat="43.46039991196028" lon="10.759762599306022"><ele>89.33333333333333</ele><time>2026-04-04T12:07:12Z</time></trkpt><trkpt lat="43.46057050565132" lon="10.759887603796049"><ele>90.66666666666667</ele><time>2026-04-04T12:07:13Z</time></trkpt><trkpt lat="43.460756420985135" lon="10.760015227231289"><ele>92.0</ele><time>2026-04-04T12:07:14Z</time></trkpt><trkpt lat="43.460933565802854" lon="10.760139638040942"><ele>90.66666666666667</ele><time>2026-04-04T12:07:15Z</time></trkpt><trkpt lat="43.46109571480168" lon="10.76025545742964"><ele>89.33333333333333</ele><time>2026-04-04T12:07:16Z</time></trkpt><trkpt lat="43.461247354330695" lon="10.760362051124071"><ele>88.0</ele><time>2026-04-04T12:07:17Z</time></trkpt><trkpt lat="43.46139659447775" lon="10.76046348535429"><ele>88.0</ele><time>2026-04-04T12:07:18Z</time></trkpt><trkpt lat="43.461536331049295" lon="10.76056202622202"><ele>88.0</ele><time>2026-04-04T12:07:19Z</time></trkpt><trkpt lat="43.46167127058815" lon="10.760658236279012"><ele>88.0</ele><time>2026-04-04T12:07:20Z</time></trkpt><trkpt lat="43.461809356521634" lon="10.760740840255671"><ele>88.0</ele><time>2026-04-04T12:07:21Z</time></trkpt><trkpt lat="43.46196285203035" lon="10.760807781774675"><ele>88.0</ele><time>2026-04-04T12:07:22Z</time></trkpt><trkpt lat="43.462142596448025" lon="10.760827046932828"><ele>88.0</ele><time>2026-04-04T12:07:23Z</time></trkpt><trkpt lat="43.46233309029089" lon="10.760807886312291"><ele>88.0</ele><time>2026-04-04T12:07:24Z</time></trkpt><trkpt lat="43.46253517543531" lon="10.760750072496078"><ele>88.0</ele><time>2026-04-04T12:07:25Z</time></trkpt><trkpt lat="43.46274662018022" lon="10.760683816103521"><ele>88.0</ele><time>2026-04-04T12:07:25.999Z</time></trkpt><trkpt lat="43.46296269578205" lon="10.760660508491318"><ele>87.0</ele><time>2026-04-04T12:07:26.999Z</time></trkpt><trkpt lat="43.463185409317816" lon="10.760604621212543"><ele>86.0</ele><time>2026-04-04T12:07:27.999Z</time></trkpt><trkpt lat="43.46342725523628" lon="10.760622279933719"><ele>86.0</ele><time>2026-04-04T12:07:28.999Z</time></trkpt><trkpt lat="43.463683672725" lon="10.76063940411264"><ele>86.0</ele><time>2026-04-04T12:07:29.999Z</time></trkpt><trkpt lat="43.46392099697481" lon="10.760670924193242"><ele>85.0</ele><time>2026-04-04T12:07:30.999Z</time></trkpt><trkpt lat="43.46414997894519" lon="10.760670119517032"><ele>84.0</ele><time>2026-04-04T12:07:31.999Z</time></trkpt><trkpt lat="43.46436878312272" lon="10.760640319141842"><ele>83.0</ele><time>2026-04-04T12:07:32.999Z</time></trkpt><trkpt lat="43.46458615618907" lon="10.76060204925624"><ele>82.66666666666667</ele><time>2026-04-04T12:07:33.999Z</time></trkpt><trkpt lat="43.46481350024227" lon="10.760562194180043"><ele>82.33333333333333</ele><time>2026-04-04T12:07:34.999Z</time></trkpt><trkpt lat="43.46502612963772" lon="10.760527594257027"><ele>82.0</ele><time>2026-04-04T12:07:35.999Z</time></trkpt><trkpt lat="43.46522042284191" lon="10.760496358317107"><ele>82.0</ele><time>2026-04-04T12:07:36.999Z</time></trkpt><trkpt lat="43.46539920398178" lon="10.760469539087198"><ele>82.0</ele><time>2026-04-04T12:07:37.999Z</time></trkpt><trkpt lat="43.46556978245957" lon="10.760453166933672"><ele>82.0</ele><time>2026-04-04T12:07:38.999Z</time></trkpt><trkpt lat="43.46573582637263" lon="10.76045765398229"><ele>81.66666666666666</ele><time>2026-04-04T12:07:39.999Z</time></trkpt><trkpt lat="43.465911444945796" lon="10.760476547924766"><ele>81.33333333333333</ele><time>2026-04-04T12:07:40.999Z</time></trkpt><trkpt lat="43.46609249043058" lon="10.76054930874551"><ele>81.0</ele><time>2026-04-04T12:07:41.999Z</time></trkpt><trkpt lat="43.46629061651637" lon="10.76058842261113"><ele>81.66666666666667</ele><time>2026-04-04T12:07:42.999Z</time></trkpt><trkpt lat="43.466499975153276" lon="10.76067080506429"><ele>82.33333333333334</ele><time>2026-04-04T12:07:43.999Z</time></trkpt><trkpt lat="43.466716586607276" lon="10.760743120150368"><ele>83.0</ele><time>2026-04-04T12:07:44.999Z</time></trkpt><trkpt lat="43.46693610099168" lon="10.760813035656001"><ele>85.0</ele><time>2026-04-04T12:07:45.999Z</time></trkpt><trkpt lat="43.467157483390565" lon="10.760880747557769"><ele>87.0</ele><time>2026-04-04T12:07:46.999Z</time></trkpt><trkpt lat="43.467388269527056" lon="10.760958700094347"><ele>87.0</ele><time>2026-04-04T12:07:47.999Z</time></trkpt><trkpt lat="43.46761082324469" lon="10.761024929836013"><ele>87.0</ele><time>2026-04-04T12:07:48.999Z</time></trkpt><trkpt lat="43.46782381957977" lon="10.761084926855627"><ele>87.0</ele><time>2026-04-04T12:07:49.999Z</time></trkpt><trkpt lat="43.46803626799453" lon="10.761150479903641"><ele>85.0</ele><time>2026-04-04T12:07:50.999Z</time></trkpt><trkpt lat="43.46824045344695" lon="10.76121474786429"><ele>83.0</ele><time>2026-04-04T12:07:51.999Z</time></trkpt><trkpt lat="43.468440946283664" lon="10.761278573662075"><ele>81.0</ele><time>2026-04-04T12:07:52.999Z</time></trkpt><trkpt lat="43.468648740279114" lon="10.761345708397469"><ele>82.0</ele><time>2026-04-04T12:07:53.999Z</time></trkpt><trkpt lat="43.46885326981045" lon="10.761407076137516"><ele>83.0</ele><time>2026-04-04T12:07:55Z</time></trkpt><trkpt lat="43.46903888841951" lon="10.7614688169677"><ele>84.0</ele><time>2026-04-04T12:07:56Z</time></trkpt><trkpt lat="43.46922085863971" lon="10.761533704093932"><ele>84.0</ele><time>2026-04-04T12:07:57Z</time></trkpt><trkpt lat="43.46940398235101" lon="10.761589979245171"><ele>84.0</ele><time>2026-04-04T12:07:58Z</time></trkpt><trkpt lat="43.46958463351175" lon="10.761650163773576"><ele>84.0</ele><time>2026-04-04T12:07:59Z</time></trkpt><trkpt lat="43.46977581179122" lon="10.761727737823612"><ele>84.0</ele><time>2026-04-04T12:08:00Z</time></trkpt><trkpt lat="43.46995930979166" lon="10.761814892565248"><ele>84.0</ele><time>2026-04-04T12:08:01Z</time></trkpt><trkpt lat="43.47013487530506" lon="10.76191522922622"><ele>84.0</ele><time>2026-04-04T12:08:02Z</time></trkpt><trkpt lat="43.47028589278787" lon="10.762003855753788"><ele>83.75</ele><time>2026-04-04T12:08:03Z</time></trkpt><trkpt lat="43.47041457922137" lon="10.762086965271028"><ele>83.5</ele><time>2026-04-04T12:08:04Z</time></trkpt><trkpt lat="43.47053652542982" lon="10.762165400664992"><ele>83.25</ele><time>2026-04-04T12:08:05Z</time></trkpt><trkpt lat="43.470657763975645" lon="10.762237659959984"><ele>83.0</ele><time>2026-04-04T12:08:06Z</time></trkpt><trkpt lat="43.470775411065254" lon="10.762310588857774"><ele>83.0</ele><time>2026-04-04T12:08:07Z</time></trkpt><trkpt lat="43.47089819670065" lon="10.762383707358186"><ele>83.0</ele><time>2026-04-04T12:08:08Z</time></trkpt><trkpt lat="43.471021532977744" lon="10.762456661841664"><ele>83.0</ele><time>2026-04-04T12:08:09Z</time></trkpt><trkpt lat="43.47114104072298" lon="10.762536951720353"><ele>83.0</ele><time>2026-04-04T12:08:10Z</time></trkpt><trkpt lat="43.47126087514047" lon="10.76261264517026"><ele>83.25</ele><time>2026-04-04T12:08:11Z</time></trkpt><trkpt lat="43.47139008104561" lon="10.762688335618991"><ele>83.5</ele><time>2026-04-04T12:08:12Z</time></trkpt><trkpt lat="43.47152049379808" lon="10.762766751739019"><ele>83.75</ele><time>2026-04-04T12:08:13Z</time></trkpt><trkpt lat="43.471657573426576" lon="10.762850701607547"><ele>84.0</ele><time>2026-04-04T12:08:14Z</time></trkpt><trkpt lat="43.47179126260006" lon="10.762934015467467"><ele>83.25</ele><time>2026-04-04T12:08:15Z</time></trkpt><trkpt lat="43.47191841158695" lon="10.763006871187342"><ele>82.5</ele><time>2026-04-04T12:08:16Z</time></trkpt><trkpt lat="43.47204090829973" lon="10.763078358308112"><ele>81.75</ele><time>2026-04-04T12:08:17Z</time></trkpt><trkpt lat="43.47215677192525" lon="10.76314522820507"><ele>81.0</ele><time>2026-04-04T12:08:18Z</time></trkpt><trkpt lat="43.47226185219917" lon="10.763192972804804"><ele>81.0</ele><time>2026-04-04T12:08:19Z</time></trkpt><trkpt lat="43.47236629704903" lon="10.763235148574152"><ele>81.0</ele><time>2026-04-04T12:08:20Z</time></trkpt><trkpt lat="43.47247422055049" lon="10.763272729797619"><ele>81.0</ele><time>2026-04-04T12:08:21Z</time></trkpt><trkpt lat="43.472586316073176" lon="10.763293925387266"><ele>81.0</ele><time>2026-04-04T12:08:22Z</time></trkpt><trkpt lat="43.47269138146852" lon="10.763301650696052"><ele>81.0</ele><time>2026-04-04T12:08:23Z</time></trkpt><trkpt lat="43.47277653795611" lon="10.763313616169757"><ele>81.0</ele><time>2026-04-04T12:08:24Z</time></trkpt><trkpt lat="43.47285423914969" lon="10.763321975555222"><ele>81.0</ele><time>2026-04-04T12:08:25Z</time></trkpt><trkpt lat="43.472923323792195" lon="10.763335213760099"><ele>81.0</ele><time>2026-04-04T12:08:26Z</time></trkpt><trkpt lat="43.47298333518709" lon="10.76337227246439"><ele>81.0</ele><time>2026-04-04T12:08:27Z</time></trkpt><trkpt lat="43.47300269692577" lon="10.763539723541642"><ele>81.0</ele><time>2026-04-04T12:08:29Z</time></trkpt><trkpt lat="43.47299542963171" lon="10.763660937464998"><ele>81.0</ele><time>2026-04-04T12:08:30Z</time></trkpt><trkpt lat="43.4729845501047" lon="10.763818669761996"><ele>80.33333333333333</ele><time>2026-04-04T12:08:31Z</time></trkpt><trkpt lat="43.472986334955365" lon="10.764012767130085"><ele>79.66666666666666</ele><time>2026-04-04T12:08:32Z</time></trkpt><trkpt lat="43.472970645139846" lon="10.764238380246919"><ele>79.0</ele><time>2026-04-04T12:08:33Z</time></trkpt><trkpt lat="43.472934606415514" lon="10.764464987069502"><ele>79.0</ele><time>2026-04-04T12:08:34Z</time></trkpt><trkpt lat="43.4729073196829" lon="10.764700874748733"><ele>79.0</ele><time>2026-04-04T12:08:35Z</time></trkpt><trkpt lat="43.47286893536384" lon="10.76495761106956"><ele>79.0</ele><time>2026-04-04T12:08:36Z</time></trkpt><trkpt lat="43.472816324272664" lon="10.7652206359589"><ele>78.66666666666666</ele><time>2026-04-04T12:08:37Z</time></trkpt><trkpt lat="43.47274549413686" lon="10.765490879135196"><ele>78.33333333333333</ele><time>2026-04-04T12:08:38Z</time></trkpt><trkpt lat="43.47266905917463" lon="10.765769088916073"><ele>78.0</ele><time>2026-04-04T12:08:39Z</time></trkpt><trkpt lat="43.47259933269201" lon="10.766023080647898"><ele>77.5</ele><time>2026-04-04T12:08:40Z</time></trkpt><trkpt lat="43.47254078146814" lon="10.766236622334254"><ele>77.0</ele><time>2026-04-04T12:08:41Z</time></trkpt><trkpt lat="43.4724890291023" lon="10.76642536774945"><ele>76.5</ele><time>2026-04-04T12:08:42Z</time></trkpt><trkpt lat="43.47244081002917" lon="10.766601277376765"><ele>76.0</ele><time>2026-04-04T12:08:43Z</time></trkpt><trkpt lat="43.47239395002078" lon="10.766773299339738"><ele>76.0</ele><time>2026-04-04T12:08:44Z</time></trkpt><trkpt lat="43.47234353345748" lon="10.76695837738376"><ele>76.0</ele><time>2026-04-04T12:08:45Z</time></trkpt><trkpt lat="43.47229097077988" lon="10.767149741453983"><ele>76.0</ele><time>2026-04-04T12:08:46Z</time></trkpt><trkpt lat="43.472239999684575" lon="10.76733049749153"><ele>76.0</ele><time>2026-04-04T12:08:47Z</time></trkpt><trkpt lat="43.472192502559935" lon="10.767498934226941"><ele>76.0</ele><time>2026-04-04T12:08:48Z</time></trkpt><trkpt lat="43.472148513043614" lon="10.767655007960274"><ele>76.0</ele><time>2026-04-04T12:08:49Z</time></trkpt><trkpt lat="43.47210189818512" lon="10.767820258510255"><ele>76.0</ele><time>2026-04-04T12:08:50Z</time></trkpt><trkpt lat="43.47205642859762" lon="10.76798073922874"><ele>76.0</ele><time>2026-04-04T12:08:51Z</time></trkpt><trkpt lat="43.472012784036686" lon="10.768135184536527"><ele>76.5</ele><time>2026-04-04T12:08:52Z</time></trkpt><trkpt lat="43.47196786888707" lon="10.768296079228593"><ele>77.0</ele><time>2026-04-04T12:08:53Z</time></trkpt><trkpt lat="43.47192022252028" lon="10.76846618125816"><ele>77.5</ele><time>2026-04-04T12:08:54Z</time></trkpt><trkpt lat="43.47187425387879" lon="10.768632176816183"><ele>78.0</ele><time>2026-04-04T12:08:55Z</time></trkpt><trkpt lat="43.47182789413856" lon="10.768801291238233"><ele>78.75</ele><time>2026-04-04T12:08:56Z</time></trkpt><trkpt lat="43.47177603480869" lon="10.768980991278704"><ele>79.5</ele><time>2026-04-04T12:08:57Z</time></trkpt><trkpt lat="43.47171387740693" lon="10.769158526996566"><ele>80.25</ele><time>2026-04-04T12:08:58Z</time></trkpt><trkpt lat="43.471637592970595" lon="10.769343853339066"><ele>81.0</ele><time>2026-04-04T12:08:59Z</time></trkpt><trkpt lat="43.47155151386803" lon="10.769526624863547"><ele>82.0</ele><time>2026-04-04T12:09:00Z</time></trkpt><trkpt lat="43.47146600208677" lon="10.769692283077465"><ele>83.0</ele><time>2026-04-04T12:09:01Z</time></trkpt><trkpt lat="43.47137683073117" lon="10.76985125094848"><ele>84.0</ele><time>2026-04-04T12:09:02Z</time></trkpt><trkpt lat="43.471284173403994" lon="10.770012690238511"><ele>85.0</ele><time>2026-04-04T12:09:03Z</time></trkpt><trkpt lat="43.4711863385987" lon="10.770179752538112"><ele>83.0</ele><time>2026-04-04T12:09:04Z</time></trkpt><trkpt lat="43.471088394386484" lon="10.77034339729351"><ele>81.0</ele><time>2026-04-04T12:09:05Z</time></trkpt><trkpt lat="43.47098906756088" lon="10.77050108246736"><ele>79.0</ele><time>2026-04-04T12:09:06Z</time></trkpt><trkpt lat="43.47087155547124" lon="10.770665627635665"><ele>79.0</ele><time>2026-04-04T12:09:07Z</time></trkpt><trkpt lat="43.470751388297984" lon="10.770823207829366"><ele>79.0</ele><time>2026-04-04T12:09:08Z</time></trkpt><trkpt lat="43.47062103675427" lon="10.770985529724845"><ele>79.0</ele><time>2026-04-04T12:09:09Z</time></trkpt><trkpt lat="43.47048091689751" lon="10.771154627238612"><ele>80.33333333333333</ele><time>2026-04-04T12:09:10Z</time></trkpt><trkpt lat="43.47033083605902" lon="10.771334597848405"><ele>81.66666666666667</ele><time>2026-04-04T12:09:11Z</time></trkpt><trkpt lat="43.470168124741015" lon="10.771525177555949"><ele>83.0</ele><time>2026-04-04T12:09:12Z</time></trkpt><trkpt lat="43.4700013547821" lon="10.771719609386908"><ele>79.0</ele><time>2026-04-04T12:09:13Z</time></trkpt><trkpt lat="43.46983246990233" lon="10.771918167896095"><ele>75.0</ele><time>2026-04-04T12:09:14Z</time></trkpt><trkpt lat="43.46965555888674" lon="10.772119816827018"><ele>78.5</ele><time>2026-04-04T12:09:15Z</time></trkpt><trkpt lat="43.46947223300815" lon="10.772316784344039"><ele>82.0</ele><time>2026-04-04T12:09:16Z</time></trkpt><trkpt lat="43.469281631453434" lon="10.772515974798305"><ele>79.5</ele><time>2026-04-04T12:09:17Z</time></trkpt><trkpt lat="43.469089714211464" lon="10.772714958074483"><ele>77.0</ele><time>2026-04-04T12:09:18Z</time></trkpt><trkpt lat="43.46889541734764" lon="10.772916408578281"><ele>81.5</ele><time>2026-04-04T12:09:19Z</time></trkpt><trkpt lat="43.468697945767644" lon="10.773120454028403"><ele>86.0</ele><time>2026-04-04T12:09:20Z</time></trkpt><trkpt lat="43.46850636252113" lon="10.773318254739449"><ele>86.0</ele><time>2026-04-04T12:09:21Z</time></trkpt><trkpt lat="43.468327322426255" lon="10.773503105108775"><ele>86.0</ele><time>2026-04-04T12:09:22Z</time></trkpt><trkpt lat="43.46816492968843" lon="10.773672872387017"><ele>86.0</ele><time>2026-04-04T12:09:22.999Z</time></trkpt><trkpt lat="43.468010503702146" lon="10.77383640106104"><ele>85.0</ele><time>2026-04-04T12:09:23.999Z</time></trkpt><trkpt lat="43.467864214828424" lon="10.773984371545222"><ele>84.0</ele><time>2026-04-04T12:09:24.999Z</time></trkpt><trkpt lat="43.46770010155671" lon="10.774109456890729"><ele>83.0</ele><time>2026-04-04T12:09:25.999Z</time></trkpt><trkpt lat="43.46751321579618" lon="10.774212858177608"><ele>83.0</ele><time>2026-04-04T12:09:26.999Z</time></trkpt><trkpt lat="43.46731739926885" lon="10.774280236293073"><ele>83.0</ele><time>2026-04-04T12:09:27.999Z</time></trkpt><trkpt lat="43.46712498140551" lon="10.774336416353142"><ele>83.0</ele><time>2026-04-04T12:09:28.999Z</time></trkpt><trkpt lat="43.466924726210436" lon="10.774395103562025"><ele>81.0</ele><time>2026-04-04T12:09:29.999Z</time></trkpt><trkpt lat="43.466720510493126" lon="10.774455440991694"><ele>79.0</ele><time>2026-04-04T12:09:30.999Z</time></trkpt><trkpt lat="43.466520690283055" lon="10.774516305183212"><ele>77.0</ele><time>2026-04-04T12:09:31.999Z</time></trkpt><trkpt lat="43.46633486021938" lon="10.77457234194758"><ele>77.33333333333334</ele><time>2026-04-04T12:09:32.999Z</time></trkpt><trkpt lat="43.466146522463944" lon="10.77462685597349"><ele>77.66666666666667</ele><time>2026-04-04T12:09:33.999Z</time></trkpt><trkpt lat="43.4659482177238" lon="10.774694491809722"><ele>78.0</ele><time>2026-04-04T12:09:34.999Z</time></trkpt><trkpt lat="43.46574409772746" lon="10.77480115139255"><ele>78.0</ele><time>2026-04-04T12:09:35.999Z</time></trkpt><trkpt lat="43.4655398554344" lon="10.774944013131448"><ele>78.0</ele><time>2026-04-04T12:09:36.999Z</time></trkpt><trkpt lat="43.46533577275358" lon="10.775105640420385"><ele>78.5</ele><time>2026-04-04T12:09:37.999Z</time></trkpt><trkpt lat="43.46513294112119" lon="10.77526815055888"><ele>79.0</ele><time>2026-04-04T12:09:38.999Z</time></trkpt><trkpt lat="43.46492898364785" lon="10.7754299030621"><ele>79.0</ele><time>2026-04-04T12:09:39.999Z</time></trkpt><trkpt lat="43.46472111246396" lon="10.77559588303854"><ele>79.0</ele><time>2026-04-04T12:09:40.999Z</time></trkpt><trkpt lat="43.46451920605105" lon="10.775757734959967"><ele>79.0</ele><time>2026-04-04T12:09:41.999Z</time></trkpt><trkpt lat="43.46432338242054" lon="10.77591395648137"><ele>79.0</ele><time>2026-04-04T12:09:42.999Z</time></trkpt><trkpt lat="43.46413153265242" lon="10.776063695209078"><ele>79.0</ele><time>2026-04-04T12:09:43.999Z</time></trkpt><trkpt lat="43.46393193652831" lon="10.776218409830696"><ele>80.0</ele><time>2026-04-04T12:09:44.999Z</time></trkpt><trkpt lat="43.46373232533256" lon="10.776373136194138"><ele>81.0</ele><time>2026-04-04T12:09:45.999Z</time></trkpt><trkpt lat="43.46353443346122" lon="10.77653253219917"><ele>81.0</ele><time>2026-04-04T12:09:46.999Z</time></trkpt><trkpt lat="43.46334028886804" lon="10.776688731614755"><ele>81.0</ele><time>2026-04-04T12:09:47.999Z</time></trkpt><trkpt lat="43.463148314339385" lon="10.77684012113269"><ele>81.0</ele><time>2026-04-04T12:09:48.999Z</time></trkpt><trkpt lat="43.46295411429963" lon="10.776990823172321"><ele>81.66666666666667</ele><time>2026-04-04T12:09:49.999Z</time></trkpt><trkpt lat="43.462765871200844" lon="10.777138684047175"><ele>82.33333333333334</ele><time>2026-04-04T12:09:50.999Z</time></trkpt><trkpt lat="43.462570327450315" lon="10.777292279372055"><ele>83.0</ele><time>2026-04-04T12:09:51.999Z</time></trkpt><trkpt lat="43.462376487549655" lon="10.777444536402296"><ele>83.0</ele><time>2026-04-04T12:09:52.999Z</time></trkpt><trkpt lat="43.46218274834401" lon="10.777596606500776"><ele>83.0</ele><time>2026-04-04T12:09:53.999Z</time></trkpt><trkpt lat="43.461983395185" lon="10.777752605068175"><ele>83.0</ele><time>2026-04-04T12:09:54.999Z</time></trkpt><trkpt lat="43.46178493140176" lon="10.777907820729617"><ele>83.0</ele><time>2026-04-04T12:09:55.999Z</time></trkpt><trkpt lat="43.461584012642014" lon="10.778068320906689"><ele>83.0</ele><time>2026-04-04T12:09:56.999Z</time></trkpt><trkpt lat="43.461381727870204" lon="10.778238933011254"><ele>83.0</ele><time>2026-04-04T12:09:57.999Z</time></trkpt><trkpt lat="43.461189747698135" lon="10.778450233728941"><ele>84.0</ele><time>2026-04-04T12:09:58.999Z</time></trkpt><trkpt lat="43.46098258310809" lon="10.778634917867462"><ele>85.0</ele><time>2026-04-04T12:09:59.999Z</time></trkpt><trkpt lat="43.460784203015955" lon="10.778842631466317"><ele>85.0</ele><time>2026-04-04T12:10:01Z</time></trkpt><trkpt lat="43.46058541506678" lon="10.779051050578943"><ele>85.0</ele><time>2026-04-04T12:10:02Z</time></trkpt><trkpt lat="43.460382719947205" lon="10.779263566212405"><ele>84.5</ele><time>2026-04-04T12:10:03Z</time></trkpt><trkpt lat="43.46018487744143" lon="10.779470994119194"><ele>84.0</ele><time>2026-04-04T12:10:04Z</time></trkpt><trkpt lat="43.459984138777244" lon="10.779683138922938"><ele>84.0</ele><time>2026-04-04T12:10:05Z</time></trkpt><trkpt lat="43.459784539899886" lon="10.779893852454562"><ele>84.0</ele><time>2026-04-04T12:10:06Z</time></trkpt><trkpt lat="43.45958094604182" lon="10.780099405621437"><ele>83.0</ele><time>2026-04-04T12:10:07Z</time></trkpt><trkpt lat="43.45937494463696" lon="10.780314944013142"><ele>82.0</ele><time>2026-04-04T12:10:08Z</time></trkpt><trkpt lat="43.45916799573553" lon="10.780532991570432"><ele>82.0</ele><time>2026-04-04T12:10:09Z</time></trkpt><trkpt lat="43.458960074797815" lon="10.780752063129373"><ele>82.0</ele><time>2026-04-04T12:10:10Z</time></trkpt><trkpt lat="43.4587529612098" lon="10.780969515368522"><ele>82.5</ele><time>2026-04-04T12:10:11Z</time></trkpt><trkpt lat="43.45854483062998" lon="10.781187567229239"><ele>83.0</ele><time>2026-04-04T12:10:12Z</time></trkpt><trkpt lat="43.458337554087485" lon="10.781404725683535"><ele>83.0</ele><time>2026-04-04T12:10:13Z</time></trkpt><trkpt lat="43.458130666749355" lon="10.781621475024041"><ele>83.0</ele><time>2026-04-04T12:10:14Z</time></trkpt><trkpt lat="43.457930375832724" lon="10.781831928974754"><ele>83.0</ele><time>2026-04-04T12:10:15Z</time></trkpt><trkpt lat="43.45774096219478" lon="10.78203040423645"><ele>83.0</ele><time>2026-04-04T12:10:16Z</time></trkpt><trkpt lat="43.45755985044121" lon="10.782219903001362"><ele>83.0</ele><time>2026-04-04T12:10:17Z</time></trkpt><trkpt lat="43.45737940025813" lon="10.782408500625312"><ele>83.0</ele><time>2026-04-04T12:10:18Z</time></trkpt><trkpt lat="43.457205225553906" lon="10.782590424528376"><ele>83.0</ele><time>2026-04-04T12:10:19Z</time></trkpt><trkpt lat="43.45702866411098" lon="10.782774795268798"><ele>82.66666666666667</ele><time>2026-04-04T12:10:20Z</time></trkpt><trkpt lat="43.456849872228844" lon="10.782961495069445"><ele>82.33333333333333</ele><time>2026-04-04T12:10:21Z</time></trkpt><trkpt lat="43.45667102508427" lon="10.783148252597867"><ele>82.0</ele><time>2026-04-04T12:10:22Z</time></trkpt><trkpt lat="43.45649255353287" lon="10.783334617923293"><ele>82.0</ele><time>2026-04-04T12:10:23Z</time></trkpt><trkpt lat="43.456317092859955" lon="10.78351783920025"><ele>82.0</ele><time>2026-04-04T12:10:24Z</time></trkpt><trkpt lat="43.45615214903461" lon="10.783690078477013"><ele>82.0</ele><time>2026-04-04T12:10:25Z</time></trkpt><trkpt lat="43.455994158165815" lon="10.783855057281466"><ele>83.0</ele><time>2026-04-04T12:10:26Z</time></trkpt><trkpt lat="43.45584708051417" lon="10.784008639990862"><ele>84.0</ele><time>2026-04-04T12:10:27Z</time></trkpt><trkpt lat="43.45571010003723" lon="10.784159469445974"><ele>85.0</ele><time>2026-04-04T12:10:28Z</time></trkpt><trkpt lat="43.45558404592153" lon="10.784341616471659"><ele>84.66666666666666</ele><time>2026-04-04T12:10:29Z</time></trkpt><trkpt lat="43.455460426881814" lon="10.784554708584935"><ele>84.33333333333333</ele><time>2026-04-04T12:10:30Z</time></trkpt><trkpt lat="43.45534745660277" lon="10.78480628273233"><ele>84.0</ele><time>2026-04-04T12:10:31Z</time></trkpt><trkpt lat="43.45523430784206" lon="10.78506671017606"><ele>84.5</ele><time>2026-04-04T12:10:32Z</time></trkpt><trkpt lat="43.45510213249528" lon="10.785322465891513"><ele>85.0</ele><time>2026-04-04T12:10:33Z</time></trkpt><trkpt lat="43.454974689710824" lon="10.785604986725904"><ele>85.0</ele><time>2026-04-04T12:10:34Z</time></trkpt><trkpt lat="43.45484409666796" lon="10.78589450433829"><ele>85.0</ele><time>2026-04-04T12:10:35Z</time></trkpt><trkpt lat="43.45471692315102" lon="10.786194568047183"><ele>86.0</ele><time>2026-04-04T12:10:36Z</time></trkpt><trkpt lat="43.454593989189114" lon="10.786500021105342"><ele>87.0</ele><time>2026-04-04T12:10:37Z</time></trkpt><trkpt lat="43.45447848844128" lon="10.786814147232542"><ele>86.0</ele><time>2026-04-04T12:10:38Z</time></trkpt><trkpt lat="43.45436400883823" lon="10.787132801530275"><ele>85.0</ele><time>2026-04-04T12:10:39Z</time></trkpt><trkpt lat="43.454248384787384" lon="10.787451474027502"><ele>84.5</ele><time>2026-04-04T12:10:40Z</time></trkpt><trkpt lat="43.4541317048203" lon="10.787777985308157"><ele>84.0</ele><time>2026-04-04T12:10:41Z</time></trkpt><trkpt lat="43.454011280231875" lon="10.78811680812383"><ele>84.0</ele><time>2026-04-04T12:10:42Z</time></trkpt><trkpt lat="43.45389001504276" lon="10.7884580187249"><ele>84.0</ele><time>2026-04-04T12:10:43Z</time></trkpt><trkpt lat="43.453768901292406" lon="10.788791605063865"><ele>84.5</ele><time>2026-04-04T12:10:44Z</time></trkpt><trkpt lat="43.45364772753197" lon="10.789121913734592"><ele>85.0</ele><time>2026-04-04T12:10:45Z</time></trkpt><trkpt lat="43.45353230290549" lon="10.789436549819838"><ele>85.33333333333333</ele><time>2026-04-04T12:10:46Z</time></trkpt><trkpt lat="43.45342821697139" lon="10.789720278089638"><ele>85.66666666666667</ele><time>2026-04-04T12:10:47Z</time></trkpt><trkpt lat="43.45333163050107" lon="10.789987936562893"><ele>86.0</ele><time>2026-04-04T12:10:48Z</time></trkpt><trkpt lat="43.45324708446496" lon="10.790227808882301"><ele>86.66666666666667</ele><time>2026-04-04T12:10:49Z</time></trkpt><trkpt lat="43.45319625785003" lon="10.79047529402935"><ele>87.33333333333333</ele><time>2026-04-04T12:10:50Z</time></trkpt><trkpt lat="43.45315224276258" lon="10.790721659722358"><ele>88.0</ele><time>2026-04-04T12:10:51Z</time></trkpt><trkpt lat="43.45314429752494" lon="10.790949919691483"><ele>87.66666666666666</ele><time>2026-04-04T12:10:52Z</time></trkpt><trkpt lat="43.45313775801015" lon="10.79115712260854"><ele>87.33333333333333</ele><time>2026-04-04T12:10:53Z</time></trkpt><trkpt lat="43.45311034176322" lon="10.791370848247391"><ele>87.0</ele><time>2026-04-04T12:10:54Z</time></trkpt><trkpt lat="43.453113675823644" lon="10.791622858142597"><ele>86.66666666666667</ele><time>2026-04-04T12:10:55Z</time></trkpt><trkpt lat="43.453154392832396" lon="10.791892803928953"><ele>86.33333333333334</ele><time>2026-04-04T12:10:56Z</time></trkpt><trkpt lat="43.45319790165451" lon="10.792182357729702"><ele>86.0</ele><time>2026-04-04T12:10:57Z</time></trkpt><trkpt lat="43.45322841487461" lon="10.792486496234831"><ele>86.0</ele><time>2026-04-04T12:10:58Z</time></trkpt><trkpt lat="43.4532730358409" lon="10.792786881174917"><ele>86.0</ele><time>2026-04-04T12:10:59Z</time></trkpt><trkpt lat="43.45331684944664" lon="10.793093743261615"><ele>86.0</ele><time>2026-04-04T12:11:00Z</time></trkpt><trkpt lat="43.45336196725197" lon="10.793401667162303"><ele>86.0</ele><time>2026-04-04T12:11:01Z</time></trkpt><trkpt lat="43.45340578657061" lon="10.793700225050767"><ele>86.0</ele><time>2026-04-04T12:11:02Z</time></trkpt><trkpt lat="43.453444783594044" lon="10.793983643769163"><ele>86.0</ele><time>2026-04-04T12:11:03Z</time></trkpt><trkpt lat="43.45347303150395" lon="10.794271604340722"><ele>86.0</ele><time>2026-04-04T12:11:04Z</time></trkpt><trkpt lat="43.45346887683864" lon="10.794552464402974"><ele>86.0</ele><time>2026-04-04T12:11:05Z</time></trkpt><trkpt lat="43.45343144466417" lon="10.794843652202632"><ele>86.0</ele><time>2026-04-04T12:11:06Z</time></trkpt><trkpt lat="43.45335827635494" lon="10.795157005625118"><ele>86.0</ele><time>2026-04-04T12:11:07Z</time></trkpt><trkpt lat="43.453268089007246" lon="10.795494946161243"><ele>87.0</ele><time>2026-04-04T12:11:08Z</time></trkpt><trkpt lat="43.45317567800989" lon="10.795841218791573"><ele>88.0</ele><time>2026-04-04T12:11:09Z</time></trkpt><trkpt lat="43.453084414037185" lon="10.796183193340227"><ele>88.5</ele><time>2026-04-04T12:11:10Z</time></trkpt><trkpt lat="43.452993744055114" lon="10.796527935849138"><ele>89.0</ele><time>2026-04-04T12:11:11Z</time></trkpt><trkpt lat="43.452900312179835" lon="10.796884014535962"><ele>89.0</ele><time>2026-04-04T12:11:12Z</time></trkpt><trkpt lat="43.452808015806625" lon="10.797233385203176"><ele>89.0</ele><time>2026-04-04T12:11:13Z</time></trkpt><trkpt lat="43.452715294477045" lon="10.797584364342445"><ele>89.0</ele><time>2026-04-04T12:11:14Z</time></trkpt><trkpt lat="43.45262423255837" lon="10.797929062134806"><ele>89.0</ele><time>2026-04-04T12:11:15Z</time></trkpt><trkpt lat="43.45253294164593" lon="10.798274990154951"><ele>89.0</ele><time>2026-04-04T12:11:16Z</time></trkpt><trkpt lat="43.45244272676033" lon="10.798618682753602"><ele>89.0</ele><time>2026-04-04T12:11:17Z</time></trkpt><trkpt lat="43.452350789613845" lon="10.798968144998607"><ele>89.0</ele><time>2026-04-04T12:11:18Z</time></trkpt><trkpt lat="43.45225813259411" lon="10.799317033128169"><ele>89.0</ele><time>2026-04-04T12:11:19Z</time></trkpt><trkpt lat="43.45216618948984" lon="10.799663229177765"><ele>90.0</ele><time>2026-04-04T12:11:20Z</time></trkpt><trkpt lat="43.452074283396335" lon="10.800009285184984"><ele>91.0</ele><time>2026-04-04T12:11:21Z</time></trkpt><trkpt lat="43.451983542614485" lon="10.800355754000158"><ele>91.5</ele><time>2026-04-04T12:11:22Z</time></trkpt><trkpt lat="43.451918482812" lon="10.800706384858659"><ele>92.0</ele><time>2026-04-04T12:11:23Z</time></trkpt><trkpt lat="43.451832008818464" lon="10.801028677196113"><ele>92.0</ele><time>2026-04-04T12:11:24Z</time></trkpt><trkpt lat="43.451752602776075" lon="10.801324083706204"><ele>92.0</ele><time>2026-04-04T12:11:25Z</time></trkpt><trkpt lat="43.451678632595865" lon="10.801602224697751"><ele>92.0</ele><time>2026-04-04T12:11:26Z</time></trkpt><trkpt lat="43.45160662465059" lon="10.801865645905139"><ele>92.33333333333334</ele><time>2026-04-04T12:11:27Z</time></trkpt><trkpt lat="43.45153720821122" lon="10.80212002515396"><ele>92.66666666666667</ele><time>2026-04-04T12:11:27.999Z</time></trkpt><trkpt lat="43.4514743369412" lon="10.802387555018456"><ele>93.0</ele><time>2026-04-04T12:11:28.999Z</time></trkpt><trkpt lat="43.45143089103345" lon="10.80266973679695"><ele>93.66666666666667</ele><time>2026-04-04T12:11:29.999Z</time></trkpt><trkpt lat="43.451411020892486" lon="10.802949746302154"><ele>94.33333333333334</ele><time>2026-04-04T12:11:30.999Z</time></trkpt><trkpt lat="43.45141168960744" lon="10.803218069626064"><ele>95.0</ele><time>2026-04-04T12:11:31.999Z</time></trkpt><trkpt lat="43.451409736868364" lon="10.80347327295641"><ele>94.66666666666667</ele><time>2026-04-04T12:11:32.999Z</time></trkpt><trkpt lat="43.451390317571935" lon="10.80371612424996"><ele>94.33333333333333</ele><time>2026-04-04T12:11:33.999Z</time></trkpt><trkpt lat="43.45134604202522" lon="10.803962475069994"><ele>94.0</ele><time>2026-04-04T12:11:34.999Z</time></trkpt><trkpt lat="43.45127467297801" lon="10.80422373174517"><ele>95.0</ele><time>2026-04-04T12:11:35.999Z</time></trkpt><trkpt lat="43.451201888782556" lon="10.804489019409498"><ele>96.0</ele><time>2026-04-04T12:11:36.999Z</time></trkpt><trkpt lat="43.45113874071348" lon="10.804759582929977"><ele>97.0</ele><time>2026-04-04T12:11:37.999Z</time></trkpt><trkpt lat="43.45107386893089" lon="10.805031674596338"><ele>96.66666666666667</ele><time>2026-04-04T12:11:38.999Z</time></trkpt><trkpt lat="43.451009930213296" lon="10.805304180894105"><ele>96.33333333333334</ele><time>2026-04-04T12:11:39.999Z</time></trkpt><trkpt lat="43.45094823469665" lon="10.805557733265452"><ele>96.0</ele><time>2026-04-04T12:11:40.999Z</time></trkpt><trkpt lat="43.45088592218261" lon="10.805818556276744"><ele>95.33333333333333</ele><time>2026-04-04T12:11:41.999Z</time></trkpt><trkpt lat="43.45083139725166" lon="10.806099248053027"><ele>94.66666666666666</ele><time>2026-04-04T12:11:42.999Z</time></trkpt><trkpt lat="43.450793968133745" lon="10.806395809368604"><ele>94.0</ele><time>2026-04-04T12:11:43.999Z</time></trkpt><trkpt lat="43.450775187741435" lon="10.806680106289207"><ele>94.33333333333333</ele><time>2026-04-04T12:11:44.999Z</time></trkpt><trkpt lat="43.450762530848294" lon="10.806948885398434"><ele>94.66666666666667</ele><time>2026-04-04T12:11:45.999Z</time></trkpt><trkpt lat="43.45074928053629" lon="10.807198510369062"><ele>95.0</ele><time>2026-04-04T12:11:46.999Z</time></trkpt><trkpt lat="43.45073974989816" lon="10.807431217191784"><ele>95.0</ele><time>2026-04-04T12:11:47.999Z</time></trkpt><trkpt lat="43.45072127996859" lon="10.807668928283165"><ele>95.0</ele><time>2026-04-04T12:11:48.999Z</time></trkpt><trkpt lat="43.45072768977009" lon="10.80791617273222"><ele>95.0</ele><time>2026-04-04T12:11:49.999Z</time></trkpt><trkpt lat="43.45074929971482" lon="10.80820738577868"><ele>95.5</ele><time>2026-04-04T12:11:50.999Z</time></trkpt><trkpt lat="43.4507808680884" lon="10.808534678047076"><ele>96.0</ele><time>2026-04-04T12:11:51.999Z</time></trkpt><trkpt lat="43.45080745486269" lon="10.808844639688845"><ele>96.0</ele><time>2026-04-04T12:11:52.999Z</time></trkpt><trkpt lat="43.45083366325495" lon="10.8091292979514"><ele>96.0</ele><time>2026-04-04T12:11:53.999Z</time></trkpt><trkpt lat="43.45085474237586" lon="10.809404627972814"><ele>96.0</ele><time>2026-04-04T12:11:54.999Z</time></trkpt><trkpt lat="43.450879155129584" lon="10.809670828445284"><ele>96.33333333333334</ele><time>2026-04-04T12:11:55.999Z</time></trkpt><trkpt lat="43.450902779173454" lon="10.80992103821672"><ele>96.66666666666667</ele><time>2026-04-04T12:11:56.999Z</time></trkpt><trkpt lat="43.45093216881104" lon="10.810162637722824"><ele>97.0</ele><time>2026-04-04T12:11:57.999Z</time></trkpt><trkpt lat="43.450973451726995" lon="10.810394690240061"><ele>99.0</ele><time>2026-04-04T12:11:58.999Z</time></trkpt><trkpt lat="43.45101855889284" lon="10.81064350949181"><ele>101.0</ele><time>2026-04-04T12:11:59.999Z</time></trkpt><trkpt lat="43.45108143556337" lon="10.810899426254263"><ele>103.0</ele><time>2026-04-04T12:12:00.999Z</time></trkpt><trkpt lat="43.45114409211032" lon="10.811160120491671"><ele>104.33333333333334</ele><time>2026-04-04T12:12:01.999Z</time></trkpt><trkpt lat="43.451204462988116" lon="10.81140078506562"><ele>105.66666666666666</ele><time>2026-04-04T12:12:02.999Z</time></trkpt><trkpt lat="43.451268335140824" lon="10.811637628417985"><ele>107.0</ele><time>2026-04-04T12:12:03.999Z</time></trkpt><trkpt lat="43.45132493416718" lon="10.81188599399413"><ele>104.66666666666666</ele><time>2026-04-04T12:12:04.999Z</time></trkpt><trkpt lat="43.451367867718176" lon="10.812159410451729"><ele>102.33333333333334</ele><time>2026-04-04T12:12:05.999Z</time></trkpt><trkpt lat="43.45139241318374" lon="10.812446666435745"><ele>100.0</ele><time>2026-04-04T12:12:07Z</time></trkpt><trkpt lat="43.451395936804694" lon="10.812726874182927"><ele>100.0</ele><time>2026-04-04T12:12:08Z</time></trkpt><trkpt lat="43.4513977610535" lon="10.8129838755601"><ele>100.0</ele><time>2026-04-04T12:12:09Z</time></trkpt><trkpt lat="43.45140910961448" lon="10.813218113152635"><ele>100.0</ele><time>2026-04-04T12:12:10Z</time></trkpt><trkpt lat="43.45141819266377" lon="10.813431906025015"><ele>100.25</ele><time>2026-04-04T12:12:11Z</time></trkpt><trkpt lat="43.45142906937484" lon="10.813642405411523"><ele>100.5</ele><time>2026-04-04T12:12:12Z</time></trkpt><trkpt lat="43.45144811165616" lon="10.813837215330446"><ele>100.75</ele><time>2026-04-04T12:12:13Z</time></trkpt><trkpt lat="43.451475004574824" lon="10.814022132756131"><ele>101.0</ele><time>2026-04-04T12:12:14Z</time></trkpt><trkpt lat="43.451501940898964" lon="10.814199346097077"><ele>101.0</ele><time>2026-04-04T12:12:15Z</time></trkpt><trkpt lat="43.451537565110314" lon="10.814369448982275"><ele>101.0</ele><time>2026-04-04T12:12:16Z</time></trkpt><trkpt lat="43.45158160963601" lon="10.814531797222603"><ele>101.0</ele><time>2026-04-04T12:12:17Z</time></trkpt><trkpt lat="43.45162359646934" lon="10.814699337578364"><ele>101.0</ele><time>2026-04-04T12:12:18Z</time></trkpt><trkpt lat="43.451673882896195" lon="10.814870593705981"><ele>101.0</ele><time>2026-04-04T12:12:19Z</time></trkpt><trkpt lat="43.45172364970973" lon="10.815054712322047"><ele>101.0</ele><time>2026-04-04T12:12:20Z</time></trkpt><trkpt lat="43.45176889194881" lon="10.81524975974037"><ele>101.0</ele><time>2026-04-04T12:12:21Z</time></trkpt><trkpt lat="43.451828937285924" lon="10.815464929251574"><ele>100.0</ele><time>2026-04-04T12:12:22Z</time></trkpt><trkpt lat="43.45189665430207" lon="10.815700716777298"><ele>99.0</ele><time>2026-04-04T12:12:23Z</time></trkpt><trkpt lat="43.451965665061415" lon="10.815963389733877"><ele>98.0</ele><time>2026-04-04T12:12:24Z</time></trkpt><trkpt lat="43.45204062223009" lon="10.816241951979046"><ele>99.5</ele><time>2026-04-04T12:12:25Z</time></trkpt><trkpt lat="43.452119865856275" lon="10.816536610807182"><ele>101.0</ele><time>2026-04-04T12:12:26Z</time></trkpt><trkpt lat="43.452202233719206" lon="10.816842543586677"><ele>101.0</ele><time>2026-04-04T12:12:27Z</time></trkpt><trkpt lat="43.4522631592222" lon="10.817173333234283"><ele>101.0</ele><time>2026-04-04T12:12:28Z</time></trkpt><trkpt lat="43.45233919207443" lon="10.817508736453162"><ele>104.0</ele><time>2026-04-04T12:12:29Z</time></trkpt><trkpt lat="43.45240036811244" lon="10.817853987626206"><ele>107.0</ele><time>2026-04-04T12:12:30Z</time></trkpt><trkpt lat="43.45245812185159" lon="10.818206115474593"><ele>110.5</ele><time>2026-04-04T12:12:31Z</time></trkpt><trkpt lat="43.45251318989069" lon="10.818546540796774"><ele>114.0</ele><time>2026-04-04T12:12:32Z</time></trkpt><trkpt lat="43.452568461390015" lon="10.818869344099172"><ele>114.0</ele><time>2026-04-04T12:12:33Z</time></trkpt><trkpt lat="43.452641453089306" lon="10.819192948263993"><ele>114.0</ele><time>2026-04-04T12:12:34Z</time></trkpt><trkpt lat="43.452741514111004" lon="10.81951207207763"><ele>120.0</ele><time>2026-04-04T12:12:35Z</time></trkpt><trkpt lat="43.452858456523835" lon="10.819822933862762"><ele>126.0</ele><time>2026-04-04T12:12:36Z</time></trkpt><trkpt lat="43.452936379256926" lon="10.820160393593973"><ele>114.5</ele><time>2026-04-04T12:12:37Z</time></trkpt><trkpt lat="43.45302408869904" lon="10.820496819780919"><ele>103.0</ele><time>2026-04-04T12:12:38Z</time></trkpt><trkpt lat="43.45310495664783" lon="10.820831728168123"><ele>104.5</ele><time>2026-04-04T12:12:39Z</time></trkpt><trkpt lat="43.45318546785658" lon="10.821165311189198"><ele>106.0</ele><time>2026-04-04T12:12:40Z</time></trkpt><trkpt lat="43.453265824375464" lon="10.82149825332933"><ele>110.5</ele><time>2026-04-04T12:12:41Z</time></trkpt><trkpt lat="43.45334709764787" lon="10.821828513046485"><ele>115.0</ele><time>2026-04-04T12:12:42Z</time></trkpt><trkpt lat="43.453427535370004" lon="10.82215579367635"><ele>115.0</ele><time>2026-04-04T12:12:43Z</time></trkpt><trkpt lat="43.45350816530527" lon="10.822483856312585"><ele>115.0</ele><time>2026-04-04T12:12:44Z</time></trkpt><trkpt lat="43.453585269904096" lon="10.82279602926324"><ele>120.5</ele><time>2026-04-04T12:12:45Z</time></trkpt><trkpt lat="43.453659559260096" lon="10.823100947564097"><ele>126.0</ele><time>2026-04-04T12:12:46Z</time></trkpt><trkpt lat="43.453723095945804" lon="10.823427425892028"><ele>126.5</ele><time>2026-04-04T12:12:47Z</time></trkpt><trkpt lat="43.45377707438031" lon="10.823783893420075"><ele>127.0</ele><time>2026-04-04T12:12:48Z</time></trkpt><trkpt lat="43.45382565828067" lon="10.824169761313266"><ele>114.0</ele><time>2026-04-04T12:12:49Z</time></trkpt><trkpt lat="43.45387523616915" lon="10.824564042939752"><ele>101.0</ele><time>2026-04-04T12:12:50Z</time></trkpt><trkpt lat="43.453921179807324" lon="10.824929422400821"><ele>103.0</ele><time>2026-04-04T12:12:51Z</time></trkpt><trkpt lat="43.453964141009465" lon="10.825271082931534"><ele>105.0</ele><time>2026-04-04T12:12:52Z</time></trkpt><trkpt lat="43.45400412158213" lon="10.8255847872838"><ele>105.0</ele><time>2026-04-04T12:12:53Z</time></trkpt><trkpt lat="43.45404169814498" lon="10.825878556852166"><ele>105.0</ele><time>2026-04-04T12:12:54Z</time></trkpt><trkpt lat="43.45407679030983" lon="10.826152904010153"><ele>105.0</ele><time>2026-04-04T12:12:55Z</time></trkpt><trkpt lat="43.45411066261655" lon="10.826417713260518"><ele>105.0</ele><time>2026-04-04T12:12:56Z</time></trkpt><trkpt lat="43.454143329128506" lon="10.826666149912796"><ele>105.0</ele><time>2026-04-04T12:12:57Z</time></trkpt><trkpt lat="43.45419814148353" lon="10.82688454299661"><ele>105.0</ele><time>2026-04-04T12:12:58Z</time></trkpt><trkpt lat="43.45422581140059" lon="10.827088640991095"><ele>105.25</ele><time>2026-04-04T12:12:59Z</time></trkpt><trkpt lat="43.454255840300874" lon="10.827280619257438"><ele>105.5</ele><time>2026-04-04T12:13:00Z</time></trkpt><trkpt lat="43.45427591564853" lon="10.827459954568898"><ele>105.75</ele><time>2026-04-04T12:13:01Z</time></trkpt><trkpt lat="43.454291660704364" lon="10.827640265719905"><ele>106.0</ele><time>2026-04-04T12:13:02Z</time></trkpt><trkpt lat="43.45423594187416" lon="10.827821471592612"><ele>106.0</ele><time>2026-04-04T12:13:03Z</time></trkpt><trkpt lat="43.45420906495796" lon="10.8279904522907"><ele>106.0</ele><time>2026-04-04T12:13:04Z</time></trkpt><trkpt lat="43.45417727652087" lon="10.828138718377375"><ele>106.0</ele><time>2026-04-04T12:13:05Z</time></trkpt><trkpt lat="43.45414198679739" lon="10.828290102087372"><ele>106.0</ele><time>2026-04-04T12:13:06Z</time></trkpt><trkpt lat="43.45410948226295" lon="10.828448752499149"><ele>105.66666666666667</ele><time>2026-04-04T12:13:07Z</time></trkpt><trkpt lat="43.45408279850468" lon="10.82863077978298"><ele>105.33333333333334</ele><time>2026-04-04T12:13:08Z</time></trkpt><trkpt lat="43.454070825266115" lon="10.828846053901175"><ele>105.0</ele><time>2026-04-04T12:13:09Z</time></trkpt><trkpt lat="43.454079890829576" lon="10.829068684560015"><ele>105.0</ele><time>2026-04-04T12:13:10Z</time></trkpt><trkpt lat="43.45408935106244" lon="10.82926593485052"><ele>105.0</ele><time>2026-04-04T12:13:11Z</time></trkpt><trkpt lat="43.45409803591129" lon="10.829447018020637"><ele>105.0</ele><time>2026-04-04T12:13:12Z</time></trkpt><trkpt lat="43.45410568271162" lon="10.829606466081609"><ele>105.0</ele><time>2026-04-04T12:13:13Z</time></trkpt><trkpt lat="43.45411170877814" lon="10.829751570935354"><ele>105.0</ele><time>2026-04-04T12:13:14Z</time></trkpt><trkpt lat="43.454116164386825" lon="10.82988514552961"><ele>105.0</ele><time>2026-04-04T12:13:15Z</time></trkpt><trkpt lat="43.45413325632386" lon="10.830011876506962"><ele>105.0</ele><time>2026-04-04T12:13:16Z</time></trkpt><trkpt lat="43.4541540532065" lon="10.83014213276034"><ele>105.0</ele><time>2026-04-04T12:13:17Z</time></trkpt><trkpt lat="43.4541787194245" lon="10.830271700393453"><ele>105.0</ele><time>2026-04-04T12:13:18Z</time></trkpt><trkpt lat="43.45420364053449" lon="10.830406514296453"><ele>104.75</ele><time>2026-04-04T12:13:19Z</time></trkpt><trkpt lat="43.4543064740737" lon="10.830484246701321"><ele>104.5</ele><time>2026-04-04T12:13:20Z</time></trkpt><trkpt lat="43.45441001998293" lon="10.830541742980394"><ele>104.25</ele><time>2026-04-04T12:13:21Z</time></trkpt><trkpt lat="43.45453769548556" lon="10.830555760348078"><ele>104.0</ele><time>2026-04-04T12:13:22Z</time></trkpt><trkpt lat="43.45467743092213" lon="10.830523527365566"><ele>103.33333333333333</ele><time>2026-04-04T12:13:23Z</time></trkpt><trkpt lat="43.45482322424398" lon="10.83047821647968"><ele>102.66666666666666</ele><time>2026-04-04T12:13:24Z</time></trkpt><trkpt lat="43.45498004632656" lon="10.830421288032497"><ele>102.0</ele><time>2026-04-04T12:13:25Z</time></trkpt><trkpt lat="43.455165008559824" lon="10.830347559319597"><ele>102.0</ele><time>2026-04-04T12:13:26Z</time></trkpt><trkpt lat="43.45534344727611" lon="10.830259701303593"><ele>102.0</ele><time>2026-04-04T12:13:27Z</time></trkpt><trkpt lat="43.45549630092868" lon="10.830184541148872"><ele>102.0</ele><time>2026-04-04T12:13:28Z</time></trkpt><trkpt lat="43.45564168996343" lon="10.83011058860757"><ele>102.0</ele><time>2026-04-04T12:13:29Z</time></trkpt><trkpt lat="43.45580366079296" lon="10.83003213049237"><ele>102.0</ele><time>2026-04-04T12:13:30Z</time></trkpt><trkpt lat="43.455975927771476" lon="10.829956583496193"><ele>102.0</ele><time>2026-04-04T12:13:31Z</time></trkpt><trkpt lat="43.45616397556544" lon="10.829883541310434"><ele>101.33333333333334</ele><time>2026-04-04T12:13:32Z</time></trkpt><trkpt lat="43.45635531428489" lon="10.829817092101424"><ele>100.66666666666667</ele><time>2026-04-04T12:13:33Z</time></trkpt><trkpt lat="43.45652534808334" lon="10.829768487801427"><ele>100.0</ele><time>2026-04-04T12:13:34Z</time></trkpt><trkpt lat="43.45664377893923" lon="10.829751739949607"><ele>100.0</ele><time>2026-04-04T12:13:35Z</time></trkpt><trkpt lat="43.45673808114472" lon="10.829784409504672"><ele>100.0</ele><time>2026-04-04T12:13:36Z</time></trkpt><trkpt lat="43.45681703720524" lon="10.829824728544589"><ele>100.0</ele><time>2026-04-04T12:13:37Z</time></trkpt><trkpt lat="43.45688433506835" lon="10.829883479761476"><ele>100.0</ele><time>2026-04-04T12:13:38Z</time></trkpt><trkpt lat="43.45694988236925" lon="10.829935244614962"><ele>100.0</ele><time>2026-04-04T12:13:38.999Z</time></trkpt><trkpt lat="43.45708179044318" lon="10.829814250823357"><ele>100.25</ele><time>2026-04-04T12:13:39.999Z</time></trkpt><trkpt lat="43.45716868924694" lon="10.829783260804165"><ele>100.5</ele><time>2026-04-04T12:13:40.999Z</time></trkpt><trkpt lat="43.45727825733582" lon="10.829784509206936"><ele>100.75</ele><time>2026-04-04T12:13:41.999Z</time></trkpt><trkpt lat="43.457403091639435" lon="10.829841464589508"><ele>101.0</ele><time>2026-04-04T12:13:42.999Z</time></trkpt><trkpt lat="43.45755817875438" lon="10.829875240079232"><ele>101.0</ele><time>2026-04-04T12:13:43.999Z</time></trkpt><trkpt lat="43.45771528827056" lon="10.829939893874954"><ele>101.0</ele><time>2026-04-04T12:13:44.999Z</time></trkpt><trkpt lat="43.457888552624965" lon="10.830008895049232"><ele>101.0</ele><time>2026-04-04T12:13:45.999Z</time></trkpt><trkpt lat="43.4580677592563" lon="10.830096274235057"><ele>101.0</ele><time>2026-04-04T12:13:46.999Z</time></trkpt><trkpt lat="43.45825654247489" lon="10.83018397707793"><ele>101.0</ele><time>2026-04-04T12:13:47.999Z</time></trkpt><trkpt lat="43.458469324444046" lon="10.83026838784804"><ele>101.0</ele><time>2026-04-04T12:13:48.999Z</time></trkpt><trkpt lat="43.458700450550815" lon="10.830361976401385"><ele>106.0</ele><time>2026-04-04T12:13:49.999Z</time></trkpt><trkpt lat="43.45892534167868" lon="10.830466039206431"><ele>111.0</ele><time>2026-04-04T12:13:50.999Z</time></trkpt><trkpt lat="43.459142087017824" lon="10.830561885924348"><ele>111.0</ele><time>2026-04-04T12:13:51.999Z</time></trkpt><trkpt lat="43.45937080294782" lon="10.830655147731225"><ele>111.0</ele><time>2026-04-04T12:13:52.999Z</time></trkpt><trkpt lat="43.45959715402017" lon="10.830772209745845"><ele>115.0</ele><time>2026-04-04T12:13:53.999Z</time></trkpt><trkpt lat="43.45983406022406" lon="10.830876042486409"><ele>119.0</ele><time>2026-04-04T12:13:54.999Z</time></trkpt><trkpt lat="43.46006922242089" lon="10.83097926190457"><ele>125.0</ele><time>2026-04-04T12:13:55.999Z</time></trkpt><trkpt lat="43.46032094110225" lon="10.831066851210922"><ele>131.0</ele><time>2026-04-04T12:13:56.999Z</time></trkpt><trkpt lat="43.460561470628654" lon="10.83117979754402"><ele>131.5</ele><time>2026-04-04T12:13:57.999Z</time></trkpt><trkpt lat="43.460805554825015" lon="10.831284518479196"><ele>132.0</ele><time>2026-04-04T12:13:58.999Z</time></trkpt><trkpt lat="43.46106151719264" lon="10.831399835205376"><ele>132.0</ele><time>2026-04-04T12:13:59.999Z</time></trkpt><trkpt lat="43.46131494023928" lon="10.831513118014263"><ele>132.0</ele><time>2026-04-04T12:14:00.999Z</time></trkpt><trkpt lat="43.46156859924493" lon="10.831623406453895"><ele>132.0</ele><time>2026-04-04T12:14:01.999Z</time></trkpt><trkpt lat="43.46181666453615" lon="10.831736742338023"><ele>132.0</ele><time>2026-04-04T12:14:02.999Z</time></trkpt><trkpt lat="43.462069019782085" lon="10.831849784001365"><ele>133.0</ele><time>2026-04-04T12:14:03.999Z</time></trkpt><trkpt lat="43.46231780940264" lon="10.831959903403003"><ele>134.0</ele><time>2026-04-04T12:14:04.999Z</time></trkpt><trkpt lat="43.46256386776592" lon="10.832064346990473"><ele>134.0</ele><time>2026-04-04T12:14:05.999Z</time></trkpt><trkpt lat="43.462817447254466" lon="10.832162511083133"><ele>134.0</ele><time>2026-04-04T12:14:06.999Z</time></trkpt><trkpt lat="43.46307577079316" lon="10.832241190560914"><ele>141.0</ele><time>2026-04-04T12:14:07.999Z</time></trkpt><trkpt lat="43.46332303713248" lon="10.832287563351516"><ele>148.0</ele><time>2026-04-04T12:14:08.999Z</time></trkpt><trkpt lat="43.46355703175419" lon="10.832333759858939"><ele>148.0</ele><time>2026-04-04T12:14:09.999Z</time></trkpt><trkpt lat="43.46377404672236" lon="10.832385636912846"><ele>148.0</ele><time>2026-04-04T12:14:10.999Z</time></trkpt><trkpt lat="43.463981499985096" lon="10.83244033253358"><ele>148.0</ele><time>2026-04-04T12:14:12Z</time></trkpt><trkpt lat="43.46418619818254" lon="10.832549643303897"><ele>148.33333333333334</ele><time>2026-04-04T12:14:13Z</time></trkpt><trkpt lat="43.46437900326892" lon="10.832681554796808"><ele>148.66666666666666</ele><time>2026-04-04T12:14:14Z</time></trkpt><trkpt lat="43.46456854144089" lon="10.832846904439469"><ele>149.0</ele><time>2026-04-04T12:14:15Z</time></trkpt><trkpt lat="43.46472598264114" lon="10.833058442627744"><ele>154.5</ele><time>2026-04-04T12:14:16Z</time></trkpt><trkpt lat="43.46483934284429" lon="10.833312802302622"><ele>160.0</ele><time>2026-04-04T12:14:17Z</time></trkpt><trkpt lat="43.464969213930296" lon="10.833582566230623"><ele>161.5</ele><time>2026-04-04T12:14:18Z</time></trkpt><trkpt lat="43.465110475441726" lon="10.833850045103063"><ele>163.0</ele><time>2026-04-04T12:14:19Z</time></trkpt><trkpt lat="43.46523142027694" lon="10.83410533202435"><ele>163.5</ele><time>2026-04-04T12:14:20Z</time></trkpt><trkpt lat="43.465357843763066" lon="10.834362765750353"><ele>164.0</ele><time>2026-04-04T12:14:21Z</time></trkpt><trkpt lat="43.465481474048566" lon="10.834644932289978"><ele>165.5</ele><time>2026-04-04T12:14:22Z</time></trkpt><trkpt lat="43.465627008531705" lon="10.834906961639971"><ele>167.0</ele><time>2026-04-04T12:14:23Z</time></trkpt><trkpt lat="43.4657456228607" lon="10.83515217849972"><ele>169.66666666666666</ele><time>2026-04-04T12:14:24Z</time></trkpt><trkpt lat="43.46585690670332" lon="10.83538200693361"><ele>172.33333333333334</ele><time>2026-04-04T12:14:25Z</time></trkpt><trkpt lat="43.46596282333441" lon="10.83558982691813"><ele>175.0</ele><time>2026-04-04T12:14:26Z</time></trkpt><trkpt lat="43.46606909448438" lon="10.835794928277902"><ele>175.0</ele><time>2026-04-04T12:14:27Z</time></trkpt><trkpt lat="43.466195933092195" lon="10.83599302579655"><ele>175.0</ele><time>2026-04-04T12:14:28Z</time></trkpt><trkpt lat="43.46634466254796" lon="10.836190100041792"><ele>175.0</ele><time>2026-04-04T12:14:29Z</time></trkpt><trkpt lat="43.46652232865231" lon="10.836374672849303"><ele>176.0</ele><time>2026-04-04T12:14:30Z</time></trkpt><trkpt lat="43.46671510707483" lon="10.836534009280701"><ele>177.0</ele><time>2026-04-04T12:14:31Z</time></trkpt><trkpt lat="43.466906581490974" lon="10.836663643811919"><ele>178.0</ele><time>2026-04-04T12:14:32Z</time></trkpt><trkpt lat="43.46709012814327" lon="10.836769997866151"><ele>181.33333333333334</ele><time>2026-04-04T12:14:33Z</time></trkpt><trkpt lat="43.46726617126349" lon="10.836833375376399"><ele>184.66666666666666</ele><time>2026-04-04T12:14:34Z</time></trkpt><trkpt lat="43.46743167923103" lon="10.836874294315093"><ele>188.0</ele><time>2026-04-04T12:14:35Z</time></trkpt><trkpt lat="43.46757428930939" lon="10.836962167713862"><ele>188.0</ele><time>2026-04-04T12:14:36Z</time></trkpt><trkpt lat="43.46772351142977" lon="10.83704698562969"><ele>188.0</ele><time>2026-04-04T12:14:37Z</time></trkpt><trkpt lat="43.467883314038" lon="10.837164294288431"><ele>188.0</ele><time>2026-04-04T12:14:38Z</time></trkpt><trkpt lat="43.468035645736514" lon="10.83730661571034"><ele>190.0</ele><time>2026-04-04T12:14:39Z</time></trkpt><trkpt lat="43.46816729060546" lon="10.83745633010622"><ele>192.0</ele><time>2026-04-04T12:14:40Z</time></trkpt><trkpt lat="43.46828520330455" lon="10.837619060344547"><ele>194.0</ele><time>2026-04-04T12:14:41Z</time></trkpt><trkpt lat="43.468400345484746" lon="10.837798508974616"><ele>194.0</ele><time>2026-04-04T12:14:42Z</time></trkpt><trkpt lat="43.468506546515144" lon="10.838005351144247"><ele>194.0</ele><time>2026-04-04T12:14:43Z</time></trkpt><trkpt lat="43.468598965233255" lon="10.838232552704788"><ele>194.0</ele><time>2026-04-04T12:14:44Z</time></trkpt><trkpt lat="43.468679089837416" lon="10.838486959344978"><ele>195.66666666666669</ele><time>2026-04-04T12:14:45Z</time></trkpt><trkpt lat="43.46875923135017" lon="10.83875419037073"><ele>197.33333333333331</ele><time>2026-04-04T12:14:46Z</time></trkpt><trkpt lat="43.4688534712891" lon="10.839015149322643"><ele>199.0</ele><time>2026-04-04T12:14:47Z</time></trkpt><trkpt lat="43.46894025822043" lon="10.839297785091736"><ele>196.33333333333331</ele><time>2026-04-04T12:14:48Z</time></trkpt><trkpt lat="43.46902850297006" lon="10.839584295932264"><ele>193.66666666666666</ele><time>2026-04-04T12:14:49Z</time></trkpt><trkpt lat="43.46910566239551" lon="10.839844384734064"><ele>191.0</ele><time>2026-04-04T12:14:50Z</time></trkpt><trkpt lat="43.46917323634056" lon="10.840073538545584"><ele>192.75</ele><time>2026-04-04T12:14:51Z</time></trkpt><trkpt lat="43.46923410541026" lon="10.840268898059923"><ele>194.5</ele><time>2026-04-04T12:14:52Z</time></trkpt><trkpt lat="43.46928450652291" lon="10.840452423994433"><ele>196.25</ele><time>2026-04-04T12:14:53Z</time></trkpt><trkpt lat="43.46932157499021" lon="10.840639180897986"><ele>198.0</ele><time>2026-04-04T12:14:54Z</time></trkpt><trkpt lat="43.469363624324075" lon="10.840811073385826"><ele>196.75</ele><time>2026-04-04T12:14:55Z</time></trkpt><trkpt lat="43.469382470749885" lon="10.840975819721546"><ele>195.5</ele><time>2026-04-04T12:14:56Z</time></trkpt><trkpt lat="43.46936883866992" lon="10.84115807597431"><ele>194.25</ele><time>2026-04-04T12:14:57Z</time></trkpt><trkpt lat="43.46931078824655" lon="10.841338538887827"><ele>193.0</ele><time>2026-04-04T12:14:58Z</time></trkpt><trkpt lat="43.469234059345496" lon="10.841535423550948"><ele>193.0</ele><time>2026-04-04T12:14:59Z</time></trkpt><trkpt lat="43.46916645133469" lon="10.841722184695094"><ele>193.0</ele><time>2026-04-04T12:15:00Z</time></trkpt><trkpt lat="43.46910891955955" lon="10.84190731058287"><ele>193.0</ele><time>2026-04-04T12:15:01Z</time></trkpt><trkpt lat="43.469090249510806" lon="10.842098164468897"><ele>193.0</ele><time>2026-04-04T12:15:02Z</time></trkpt><trkpt lat="43.46910138672762" lon="10.84229454925445"><ele>192.66666666666666</ele><time>2026-04-04T12:15:03Z</time></trkpt><trkpt lat="43.46915393865571" lon="10.842495903851336"><ele>192.33333333333331</ele><time>2026-04-04T12:15:04Z</time></trkpt><trkpt lat="43.46922565940359" lon="10.842714214571778"><ele>192.0</ele><time>2026-04-04T12:15:05Z</time></trkpt><trkpt lat="43.46927813130386" lon="10.842960499669786"><ele>191.66666666666666</ele><time>2026-04-04T12:15:06Z</time></trkpt><trkpt lat="43.469362994880356" lon="10.84320123709655"><ele>191.33333333333331</ele><time>2026-04-04T12:15:07Z</time></trkpt><trkpt lat="43.46942667275586" lon="10.843427942746287"><ele>191.0</ele><time>2026-04-04T12:15:08Z</time></trkpt><trkpt lat="43.469489464000496" lon="10.843651929597943"><ele>189.0</ele><time>2026-04-04T12:15:09Z</time></trkpt><trkpt lat="43.46953762642905" lon="10.843888930258974"><ele>187.0</ele><time>2026-04-04T12:15:10Z</time></trkpt><trkpt lat="43.46955597529035" lon="10.844146706129258"><ele>185.0</ele><time>2026-04-04T12:15:11Z</time></trkpt><trkpt lat="43.469556404536846" lon="10.844418199669796"><ele>185.0</ele><time>2026-04-04T12:15:12Z</time></trkpt><trkpt lat="43.46950200041147" lon="10.844692533832271"><ele>185.0</ele><time>2026-04-04T12:15:13Z</time></trkpt><trkpt lat="43.469501604565636" lon="10.844982879991054"><ele>185.0</ele><time>2026-04-04T12:15:14Z</time></trkpt><trkpt lat="43.46948227449028" lon="10.845243581519089"><ele>184.0</ele><time>2026-04-04T12:15:15Z</time></trkpt><trkpt lat="43.469475156994044" lon="10.845475337677996"><ele>183.0</ele><time>2026-04-04T12:15:16Z</time></trkpt><trkpt lat="43.46947086801237" lon="10.845686006100882"><ele>182.0</ele><time>2026-04-04T12:15:17Z</time></trkpt><trkpt lat="43.46947972187982" lon="10.845878562417443"><ele>178.66666666666666</ele><time>2026-04-04T12:15:18Z</time></trkpt><trkpt lat="43.46951643883556" lon="10.84606910698339"><ele>175.33333333333334</ele><time>2026-04-04T12:15:19Z</time></trkpt><trkpt lat="43.46958821519424" lon="10.846264137247935"><ele>172.0</ele><time>2026-04-04T12:15:20Z</time></trkpt><trkpt lat="43.46969710460355" lon="10.846472765330057"><ele>178.0</ele><time>2026-04-04T12:15:21Z</time></trkpt><trkpt lat="43.469824268757705" lon="10.846683608318694"><ele>184.0</ele><time>2026-04-04T12:15:22Z</time></trkpt><trkpt lat="43.469928999354686" lon="10.846901178696182"><ele>190.0</ele><time>2026-04-04T12:15:23Z</time></trkpt><trkpt lat="43.47002528802264" lon="10.84710230577707"><ele>190.0</ele><time>2026-04-04T12:15:24Z</time></trkpt><trkpt lat="43.47012326779007" lon="10.847324633701609"><ele>190.0</ele><time>2026-04-04T12:15:25Z</time></trkpt><trkpt lat="43.47021879223659" lon="10.847573452662647"><ele>190.0</ele><time>2026-04-04T12:15:26Z</time></trkpt><trkpt lat="43.470307628085195" lon="10.84784698867748"><ele>185.5</ele><time>2026-04-04T12:15:27Z</time></trkpt><trkpt lat="43.47039102509401" lon="10.848133882989142"><ele>181.0</ele><time>2026-04-04T12:15:28Z</time></trkpt><trkpt lat="43.47047564921691" lon="10.848431969691191"><ele>191.5</ele><time>2026-04-04T12:15:29Z</time></trkpt><trkpt lat="43.470573042247494" lon="10.84872281472176"><ele>202.0</ele><time>2026-04-04T12:15:30Z</time></trkpt><trkpt lat="43.47064243917545" lon="10.849033977421746"><ele>198.5</ele><time>2026-04-04T12:15:31Z</time></trkpt><trkpt lat="43.47072339886442" lon="10.849339985876433"><ele>195.0</ele><time>2026-04-04T12:15:32Z</time></trkpt><trkpt lat="43.47079851525962" lon="10.849649643066856"><ele>195.0</ele><time>2026-04-04T12:15:33Z</time></trkpt><trkpt lat="43.47086975015778" lon="10.84996186760215"><ele>195.0</ele><time>2026-04-04T12:15:34Z</time></trkpt><trkpt lat="43.47095056199822" lon="10.850247801871971"><ele>193.33333333333334</ele><time>2026-04-04T12:15:35Z</time></trkpt><trkpt lat="43.47101192217332" lon="10.850525463479654"><ele>191.66666666666669</ele><time>2026-04-04T12:15:36Z</time></trkpt><trkpt lat="43.47107232667985" lon="10.850795577385767"><ele>190.0</ele><time>2026-04-04T12:15:37Z</time></trkpt><trkpt lat="43.47112026367866" lon="10.851072334134503"><ele>189.33333333333334</ele><time>2026-04-04T12:15:38Z</time></trkpt><trkpt lat="43.4711824328716" lon="10.85134544393266"><ele>188.66666666666666</ele><time>2026-04-04T12:15:39Z</time></trkpt><trkpt lat="43.47123806215327" lon="10.851618785405298"><ele>188.0</ele><time>2026-04-04T12:15:39.999Z</time></trkpt><trkpt lat="43.471269568718185" lon="10.851878482714648"><ele>189.66666666666666</ele><time>2026-04-04T12:15:40.999Z</time></trkpt><trkpt lat="43.47126900407067" lon="10.852145486302948"><ele>191.33333333333331</ele><time>2026-04-04T12:15:41.999Z</time></trkpt><trkpt lat="43.47122664705914" lon="10.85241609628789"><ele>193.0</ele><time>2026-04-04T12:15:42.999Z</time></trkpt><trkpt lat="43.47116734607981" lon="10.852704942407309"><ele>194.66666666666666</ele><time>2026-04-04T12:15:43.999Z</time></trkpt><trkpt lat="43.47111644139102" lon="10.85299623375546"><ele>196.33333333333331</ele><time>2026-04-04T12:15:44.999Z</time></trkpt><trkpt lat="43.47106044415539" lon="10.853256618701007"><ele>198.0</ele><time>2026-04-04T12:15:45.999Z</time></trkpt><trkpt lat="43.471012732357906" lon="10.853504879271394"><ele>199.66666666666669</ele><time>2026-04-04T12:15:46.999Z</time></trkpt><trkpt lat="43.47096764607237" lon="10.853738822140947"><ele>201.33333333333334</ele><time>2026-04-04T12:15:47.999Z</time></trkpt><trkpt lat="43.47093696313389" lon="10.853959647556884"><ele>203.0</ele><time>2026-04-04T12:15:48.999Z</time></trkpt><trkpt lat="43.470932951221975" lon="10.854193195070804"><ele>205.33333333333334</ele><time>2026-04-04T12:15:49.999Z</time></trkpt><trkpt lat="43.47097460106694" lon="10.85444927711932"><ele>207.66666666666669</ele><time>2026-04-04T12:15:50.999Z</time></trkpt><trkpt lat="43.47103671687441" lon="10.854726127371611"><ele>210.0</ele><time>2026-04-04T12:15:51.999Z</time></trkpt><trkpt lat="43.471075826919105" lon="10.855025866940117"><ele>210.66666666666669</ele><time>2026-04-04T12:15:52.999Z</time></trkpt><trkpt lat="43.47112369497686" lon="10.855292826933232"><ele>211.33333333333334</ele><time>2026-04-04T12:15:53.999Z</time></trkpt><trkpt lat="43.47115903389212" lon="10.855522078373049"><ele>212.0</ele><time>2026-04-04T12:15:54.999Z</time></trkpt><trkpt lat="43.47117985279201" lon="10.855740810019956"><ele>210.66666666666669</ele><time>2026-04-04T12:15:55.999Z</time></trkpt><trkpt lat="43.47118296573115" lon="10.855962393405129"><ele>209.33333333333331</ele><time>2026-04-04T12:15:56.999Z</time></trkpt><trkpt lat="43.471169150844574" lon="10.856203978528127"><ele>208.0</ele><time>2026-04-04T12:15:57.999Z</time></trkpt><trkpt lat="43.47113977066546" lon="10.856466381527886"><ele>208.0</ele><time>2026-04-04T12:15:58.999Z</time></trkpt><trkpt lat="43.47112711732337" lon="10.856750484374611"><ele>208.0</ele><time>2026-04-04T12:15:59.999Z</time></trkpt><trkpt lat="43.47110663581596" lon="10.857019372229093"><ele>208.0</ele><time>2026-04-04T12:16:00.999Z</time></trkpt><trkpt lat="43.471109612682206" lon="10.857283687530106"><ele>206.0</ele><time>2026-04-04T12:16:01.999Z</time></trkpt><trkpt lat="43.471143243505004" lon="10.857552134522546"><ele>204.0</ele><time>2026-04-04T12:16:02.999Z</time></trkpt><trkpt lat="43.47119656835208" lon="10.857832268302847"><ele>202.0</ele><time>2026-04-04T12:16:03.999Z</time></trkpt><trkpt lat="43.471259380028265" lon="10.858107282736883"><ele>202.33333333333331</ele><time>2026-04-04T12:16:04.999Z</time></trkpt><trkpt lat="43.47132748233482" lon="10.85837412534902"><ele>202.66666666666669</ele><time>2026-04-04T12:16:05.999Z</time></trkpt><trkpt lat="43.4713903181302" lon="10.85864561867123"><ele>203.0</ele><time>2026-04-04T12:16:06.999Z</time></trkpt><trkpt lat="43.471447104482685" lon="10.858913044062113"><ele>203.33333333333334</ele><time>2026-04-04T12:16:07.999Z</time></trkpt><trkpt lat="43.471495849370676" lon="10.859155943494853"><ele>203.66666666666669</ele><time>2026-04-04T12:16:08.999Z</time></trkpt><trkpt lat="43.47154879495854" lon="10.859390771178273"><ele>204.0</ele><time>2026-04-04T12:16:09.999Z</time></trkpt><trkpt lat="43.47160529637157" lon="10.859631311314704"><ele>205.0</ele><time>2026-04-04T12:16:10.999Z</time></trkpt><trkpt lat="43.47167641963381" lon="10.859886569162702"><ele>206.0</ele><time>2026-04-04T12:16:11.999Z</time></trkpt><trkpt lat="43.471764163328345" lon="10.860147420069234"><ele>207.0</ele><time>2026-04-04T12:16:12.999Z</time></trkpt><trkpt lat="43.4718456739792" lon="10.86041587035182"><ele>208.0</ele><time>2026-04-04T12:16:13.999Z</time></trkpt><trkpt lat="43.47194193883778" lon="10.860666516021432"><ele>209.0</ele><time>2026-04-04T12:16:14.999Z</time></trkpt><trkpt lat="43.47202319047246" lon="10.860911110356309"><ele>210.0</ele><time>2026-04-04T12:16:15.999Z</time></trkpt><trkpt lat="43.47207583702334" lon="10.861139467866982"><ele>208.0</ele><time>2026-04-04T12:16:16.999Z</time></trkpt><trkpt lat="43.472107685651366" lon="10.861369130791285"><ele>206.0</ele><time>2026-04-04T12:16:18Z</time></trkpt><trkpt lat="43.47212407558028" lon="10.861595628854761"><ele>204.0</ele><time>2026-04-04T12:16:19Z</time></trkpt><trkpt lat="43.47212430138898" lon="10.861818764957293"><ele>203.0</ele><time>2026-04-04T12:16:20Z</time></trkpt><trkpt lat="43.472117536952986" lon="10.862053718785253"><ele>202.0</ele><time>2026-04-04T12:16:21Z</time></trkpt><trkpt lat="43.47210918188073" lon="10.86229531692443"><ele>201.0</ele><time>2026-04-04T12:16:22Z</time></trkpt><trkpt lat="43.47211281541766" lon="10.86253651041975"><ele>201.33333333333331</ele><time>2026-04-04T12:16:23Z</time></trkpt><trkpt lat="43.47210841214704" lon="10.862762174271875"><ele>201.66666666666666</ele><time>2026-04-04T12:16:24Z</time></trkpt><trkpt lat="43.4720862447782" lon="10.862980510061194"><ele>202.0</ele><time>2026-04-04T12:16:25Z</time></trkpt><trkpt lat="43.47208130250348" lon="10.863193578682196"><ele>203.0</ele><time>2026-04-04T12:16:26Z</time></trkpt><trkpt lat="43.4720931639975" lon="10.863393822797462"><ele>204.0</ele><time>2026-04-04T12:16:27Z</time></trkpt><trkpt lat="43.47210776274184" lon="10.863599817542667"><ele>205.0</ele><time>2026-04-04T12:16:28Z</time></trkpt><trkpt lat="43.47216180594082" lon="10.863807515769976"><ele>205.66666666666666</ele><time>2026-04-04T12:16:29Z</time></trkpt><trkpt lat="43.472232077746824" lon="10.864010997163994"><ele>206.33333333333331</ele><time>2026-04-04T12:16:30Z</time></trkpt><trkpt lat="43.472314502059945" lon="10.864199835165014"><ele>207.0</ele><time>2026-04-04T12:16:31Z</time></trkpt><trkpt lat="43.47241334791068" lon="10.86437775539659"><ele>208.33333333333331</ele><time>2026-04-04T12:16:32Z</time></trkpt><trkpt lat="43.47252031197869" lon="10.864541862918543"><ele>209.66666666666666</ele><time>2026-04-04T12:16:33Z</time></trkpt><trkpt lat="43.4726188446662" lon="10.864723315365286"><ele>211.0</ele><time>2026-04-04T12:16:34Z</time></trkpt><trkpt lat="43.472722607452695" lon="10.864897889702352"><ele>211.0</ele><time>2026-04-04T12:16:35Z</time></trkpt><trkpt lat="43.472839299486125" lon="10.865069023297751"><ele>211.0</ele><time>2026-04-04T12:16:36Z</time></trkpt><trkpt lat="43.4729578978953" lon="10.86526857217244"><ele>211.0</ele><time>2026-04-04T12:16:37Z</time></trkpt><trkpt lat="43.473082839670894" lon="10.865472488208107"><ele>211.0</ele><time>2026-04-04T12:16:38Z</time></trkpt><trkpt lat="43.473215602745015" lon="10.865690437344435"><ele>211.0</ele><time>2026-04-04T12:16:39Z</time></trkpt><trkpt lat="43.47335580028598" lon="10.865926049992307"><ele>211.0</ele><time>2026-04-04T12:16:40Z</time></trkpt><trkpt lat="43.47349868855982" lon="10.866165824130837"><ele>210.5</ele><time>2026-04-04T12:16:41Z</time></trkpt><trkpt lat="43.473647120273725" lon="10.866418729845872"><ele>210.0</ele><time>2026-04-04T12:16:42Z</time></trkpt><trkpt lat="43.47379983769136" lon="10.866677305162847"><ele>211.5</ele><time>2026-04-04T12:16:43Z</time></trkpt><trkpt lat="43.47395911614063" lon="10.866940132848018"><ele>213.0</ele><time>2026-04-04T12:16:44Z</time></trkpt><trkpt lat="43.47410135001663" lon="10.867211439055204"><ele>213.0</ele><time>2026-04-04T12:16:45Z</time></trkpt><trkpt lat="43.47426386583569" lon="10.867440602311023"><ele>213.0</ele><time>2026-04-04T12:16:46Z</time></trkpt><trkpt lat="43.474398611809136" lon="10.86766555701616"><ele>213.0</ele><time>2026-04-04T12:16:47Z</time></trkpt><trkpt lat="43.47451597605227" lon="10.867902008658465"><ele>213.66666666666669</ele><time>2026-04-04T12:16:48Z</time></trkpt><trkpt lat="43.4746274970199" lon="10.868132056229364"><ele>214.33333333333334</ele><time>2026-04-04T12:16:49Z</time></trkpt><trkpt lat="43.47472236243263" lon="10.868392474714486"><ele>215.0</ele><time>2026-04-04T12:16:50Z</time></trkpt><trkpt lat="43.474786630167586" lon="10.868670626504311"><ele>216.33333333333334</ele><time>2026-04-04T12:16:51Z</time></trkpt><trkpt lat="43.47483815959661" lon="10.868957881491742"><ele>217.66666666666669</ele><time>2026-04-04T12:16:52Z</time></trkpt><trkpt lat="43.47488488167113" lon="10.869240091622213"><ele>219.0</ele><time>2026-04-04T12:16:53Z</time></trkpt><trkpt lat="43.47492821205104" lon="10.869499966156376"><ele>219.0</ele><time>2026-04-04T12:16:54Z</time></trkpt><trkpt lat="43.4749685200767" lon="10.869734997826924"><ele>219.0</ele><time>2026-04-04T12:16:55Z</time></trkpt><trkpt lat="43.47502199699307" lon="10.869947593452435"><ele>219.0</ele><time>2026-04-04T12:16:56Z</time></trkpt><trkpt lat="43.475039766879426" lon="10.870150430101306"><ele>218.75</ele><time>2026-04-04T12:16:57Z</time></trkpt><trkpt lat="43.47507140563568" lon="10.870332566615245"><ele>218.5</ele><time>2026-04-04T12:16:58Z</time></trkpt><trkpt lat="43.475101090050835" lon="10.870502559369276"><ele>218.25</ele><time>2026-04-04T12:16:59Z</time></trkpt><trkpt lat="43.47514254389395" lon="10.87065430883846"><ele>218.0</ele><time>2026-04-04T12:17:00Z</time></trkpt><trkpt lat="43.47516640699032" lon="10.870797573242417"><ele>218.0</ele><time>2026-04-04T12:17:01Z</time></trkpt><trkpt lat="43.475191074688" lon="10.870934137706692"><ele>218.0</ele><time>2026-04-04T12:17:02Z</time></trkpt><trkpt lat="43.47521616249825" lon="10.871068181151152"><ele>218.0</ele><time>2026-04-04T12:17:03Z</time></trkpt><trkpt lat="43.47524362031598" lon="10.871222599277825"><ele>218.0</ele><time>2026-04-04T12:17:04Z</time></trkpt><trkpt lat="43.47528592707178" lon="10.871408306311285"><ele>217.0</ele><time>2026-04-04T12:17:05Z</time></trkpt><trkpt lat="43.47534367938461" lon="10.87160904699947"><ele>216.0</ele><time>2026-04-04T12:17:06Z</time></trkpt><trkpt lat="43.475417474179224" lon="10.87181045809495"><ele>215.0</ele><time>2026-04-04T12:17:07Z</time></trkpt><trkpt lat="43.4754991359987" lon="10.872012741018587"><ele>217.0</ele><time>2026-04-04T12:17:08Z</time></trkpt><trkpt lat="43.475585918440956" lon="10.872219848722668"><ele>219.0</ele><time>2026-04-04T12:17:09Z</time></trkpt><trkpt lat="43.47566737418604" lon="10.872403359619108"><ele>221.0</ele><time>2026-04-04T12:17:10Z</time></trkpt><trkpt lat="43.47574947266979" lon="10.872566071156324"><ele>219.66666666666669</ele><time>2026-04-04T12:17:11Z</time></trkpt><trkpt lat="43.47585569787509" lon="10.872724060143574"><ele>218.33333333333331</ele><time>2026-04-04T12:17:12Z</time></trkpt><trkpt lat="43.475998472964946" lon="10.872882422729123"><ele>217.0</ele><time>2026-04-04T12:17:13Z</time></trkpt><trkpt lat="43.4761550432668" lon="10.873047270283484"><ele>220.0</ele><time>2026-04-04T12:17:14Z</time></trkpt><trkpt lat="43.476315495124666" lon="10.87320960404589"><ele>223.0</ele><time>2026-04-04T12:17:15Z</time></trkpt><trkpt lat="43.476484859065884" lon="10.873380207073458"><ele>226.0</ele><time>2026-04-04T12:17:16Z</time></trkpt><trkpt lat="43.47666250261025" lon="10.873558503986978"><ele>227.66666666666666</ele><time>2026-04-04T12:17:17Z</time></trkpt><trkpt lat="43.47683158052966" lon="10.873725670261434"><ele>229.33333333333331</ele><time>2026-04-04T12:17:18Z</time></trkpt><trkpt lat="43.47698836532192" lon="10.87388062625507"><ele>231.0</ele><time>2026-04-04T12:17:19Z</time></trkpt><trkpt lat="43.47713261557087" lon="10.874026648119111"><ele>231.33333333333331</ele><time>2026-04-04T12:17:20Z</time></trkpt><trkpt lat="43.47727711128827" lon="10.874179144808513"><ele>231.66666666666666</ele><time>2026-04-04T12:17:21Z</time></trkpt><trkpt lat="43.47743360211957" lon="10.874327131566737"><ele>232.0</ele><time>2026-04-04T12:17:22Z</time></trkpt><trkpt lat="43.47759885909338" lon="10.874462548780446"><ele>235.0</ele><time>2026-04-04T12:17:23Z</time></trkpt><trkpt lat="43.47777531954533" lon="10.874591986838574"><ele>238.0</ele><time>2026-04-04T12:17:24Z</time></trkpt><trkpt lat="43.47797009049242" lon="10.87471041448313"><ele>241.0</ele><time>2026-04-04T12:17:25Z</time></trkpt><trkpt lat="43.478152385134614" lon="10.87481892504579"><ele>241.66666666666666</ele><time>2026-04-04T12:17:26Z</time></trkpt><trkpt lat="43.47831006349069" lon="10.874945302761606"><ele>242.33333333333331</ele><time>2026-04-04T12:17:27Z</time></trkpt><trkpt lat="43.47845906037579" lon="10.875040918959892"><ele>243.0</ele><time>2026-04-04T12:17:28Z</time></trkpt><trkpt lat="43.47861470687546" lon="10.875120599590348"><ele>244.5</ele><time>2026-04-04T12:17:29Z</time></trkpt><trkpt lat="43.47875685656481" lon="10.875210261501397"><ele>246.0</ele><time>2026-04-04T12:17:29.999Z</time></trkpt><trkpt lat="43.478889642885584" lon="10.875297685508452"><ele>247.5</ele><time>2026-04-04T12:17:30.999Z</time></trkpt><trkpt lat="43.478997949536925" lon="10.87539348197299"><ele>249.0</ele><time>2026-04-04T12:17:31.999Z</time></trkpt><trkpt lat="43.47909839075257" lon="10.87545472380518"><ele>249.0</ele><time>2026-04-04T12:17:32.999Z</time></trkpt><trkpt lat="43.479166233754746" lon="10.875589614111353"><ele>249.0</ele><time>2026-04-04T12:17:33.999Z</time></trkpt><trkpt lat="43.47921999393019" lon="10.875747360180402"><ele>249.0</ele><time>2026-04-04T12:17:34.999Z</time></trkpt><trkpt lat="43.47924524156294" lon="10.875928375629044"><ele>249.0</ele><time>2026-04-04T12:17:35.999Z</time></trkpt><trkpt lat="43.47928019193008" lon="10.876126677865221"><ele>250.0</ele><time>2026-04-04T12:17:36.999Z</time></trkpt><trkpt lat="43.47928311481411" lon="10.876340411441783"><ele>251.0</ele><time>2026-04-04T12:17:37.999Z</time></trkpt><trkpt lat="43.479299537033384" lon="10.876561152614572"><ele>252.0</ele><time>2026-04-04T12:17:38.999Z</time></trkpt><trkpt lat="43.47932645088309" lon="10.876781467555224"><ele>252.0</ele><time>2026-04-04T12:17:39.999Z</time></trkpt><trkpt lat="43.47937762090309" lon="10.877002694465679"><ele>252.0</ele><time>2026-04-04T12:17:40.999Z</time></trkpt><trkpt lat="43.47945900593163" lon="10.877231373081498"><ele>252.0</ele><time>2026-04-04T12:17:41.999Z</time></trkpt><trkpt lat="43.47956205997279" lon="10.877456945941647"><ele>252.0</ele><time>2026-04-04T12:17:42.999Z</time></trkpt><trkpt lat="43.47967057901917" lon="10.877681550442334"><ele>252.0</ele><time>2026-04-04T12:17:43.999Z</time></trkpt><trkpt lat="43.47977842446262" lon="10.87790949192312"><ele>252.0</ele><time>2026-04-04T12:17:44.999Z</time></trkpt><trkpt lat="43.47989210835469" lon="10.87815931054389"><ele>252.0</ele><time>2026-04-04T12:17:45.999Z</time></trkpt><trkpt lat="43.480005126618565" lon="10.878413168473015"><ele>252.0</ele><time>2026-04-04T12:17:46.999Z</time></trkpt><trkpt lat="43.48012192789538" lon="10.878673215519731"><ele>252.0</ele><time>2026-04-04T12:17:47.999Z</time></trkpt><trkpt lat="43.480238816685244" lon="10.878927855249088"><ele>255.0</ele><time>2026-04-04T12:17:48.999Z</time></trkpt><trkpt lat="43.48035224859952" lon="10.879161678206826"><ele>258.0</ele><time>2026-04-04T12:17:49.999Z</time></trkpt><trkpt lat="43.48045296843593" lon="10.879385554331556"><ele>261.0</ele><time>2026-04-04T12:17:50.999Z</time></trkpt><trkpt lat="43.48055703435872" lon="10.879612044464176"><ele>261.3333333333333</ele><time>2026-04-04T12:17:51.999Z</time></trkpt><trkpt lat="43.48065874037782" lon="10.879832492395977"><ele>261.66666666666663</ele><time>2026-04-04T12:17:52.999Z</time></trkpt><trkpt lat="43.480756656187964" lon="10.880043511307605"><ele>262.0</ele><time>2026-04-04T12:17:53.999Z</time></trkpt><trkpt lat="43.480837404517565" lon="10.880255091537332"><ele>264.0</ele><time>2026-04-04T12:17:54.999Z</time></trkpt><trkpt lat="43.48092677693891" lon="10.880447850256006"><ele>266.0</ele><time>2026-04-04T12:17:55.999Z</time></trkpt><trkpt lat="43.48102854358742" lon="10.8806268295207"><ele>268.0</ele><time>2026-04-04T12:17:56.999Z</time></trkpt><trkpt lat="43.48111279743739" lon="10.880809783346697"><ele>266.0</ele><time>2026-04-04T12:17:57.999Z</time></trkpt><trkpt lat="43.48117750308395" lon="10.881001403933496"><ele>264.0</ele><time>2026-04-04T12:17:58.999Z</time></trkpt><trkpt lat="43.48124282292238" lon="10.881195464885405"><ele>262.0</ele><time>2026-04-04T12:17:59.999Z</time></trkpt><trkpt lat="43.48128602020411" lon="10.881404172692655"><ele>262.0</ele><time>2026-04-04T12:18:00.999Z</time></trkpt><trkpt lat="43.48131818124076" lon="10.881622425016406"><ele>262.0</ele><time>2026-04-04T12:18:01.999Z</time></trkpt><trkpt lat="43.48136044985489" lon="10.88182365110638"><ele>262.0</ele><time>2026-04-04T12:18:02.999Z</time></trkpt><trkpt lat="43.481387771502696" lon="10.881999659777227"><ele>262.0</ele><time>2026-04-04T12:18:03.999Z</time></trkpt><trkpt lat="43.48139726566501" lon="10.882148850130791"><ele>264.0</ele><time>2026-04-04T12:18:04.999Z</time></trkpt><trkpt lat="43.48142168706433" lon="10.882277036199161"><ele>266.0</ele><time>2026-04-04T12:18:05.999Z</time></trkpt><trkpt lat="43.481468923159795" lon="10.882387459411477"><ele>268.0</ele><time>2026-04-04T12:18:06.999Z</time></trkpt><trkpt lat="43.48151738908878" lon="10.88248131554418"><ele>270.0</ele><time>2026-04-04T12:18:07.999Z</time></trkpt><trkpt lat="43.481603216723926" lon="10.882558161049067"><ele>272.0</ele><time>2026-04-04T12:18:08.999Z</time></trkpt><trkpt lat="43.48170774307224" lon="10.882558472938458"><ele>272.0</ele><time>2026-04-04T12:18:09.999Z</time></trkpt><trkpt lat="43.481815971568494" lon="10.882531500669792"><ele>272.0</ele><time>2026-04-04T12:18:10.999Z</time></trkpt><trkpt lat="43.48192771989939" lon="10.882452119299563"><ele>272.0</ele><time>2026-04-04T12:18:11.999Z</time></trkpt><trkpt lat="43.482037891763746" lon="10.88234422342369"><ele>272.0</ele><time>2026-04-04T12:18:12.999Z</time></trkpt><trkpt lat="43.482129257751716" lon="10.882232738215299"><ele>274.6666666666667</ele><time>2026-04-04T12:18:13.999Z</time></trkpt><trkpt lat="43.48225582003607" lon="10.882099129841686"><ele>277.3333333333333</ele><time>2026-04-04T12:18:14.999Z</time></trkpt><trkpt lat="43.48238414946981" lon="10.881958012098291"><ele>280.0</ele><time>2026-04-04T12:18:15.999Z</time></trkpt><trkpt lat="43.48250773018788" lon="10.881858295080724"><ele>280.0</ele><time>2026-04-04T12:18:16.999Z</time></trkpt><trkpt lat="43.482628369517336" lon="10.881769582700539"><ele>280.0</ele><time>2026-04-04T12:18:17.999Z</time></trkpt><trkpt lat="43.48275057340393" lon="10.881712048466694"><ele>280.0</ele><time>2026-04-04T12:18:18.999Z</time></trkpt><trkpt lat="43.48287822915997" lon="10.881712402311411"><ele>280.0</ele><time>2026-04-04T12:18:19.999Z</time></trkpt><trkpt lat="43.48302339220559" lon="10.881724209124336"><ele>280.0</ele><time>2026-04-04T12:18:20.999Z</time></trkpt><trkpt lat="43.48316679490444" lon="10.881756816308709"><ele>280.0</ele><time>2026-04-04T12:18:21.999Z</time></trkpt><trkpt lat="43.48328760902285" lon="10.881794313960228"><ele>280.0</ele><time>2026-04-04T12:18:22.999Z</time></trkpt><trkpt lat="43.48339630697653" lon="10.881855572162783"><ele>280.0</ele><time>2026-04-04T12:18:23.999Z</time></trkpt><trkpt lat="43.483474239753264" lon="10.881979116796362"><ele>280.0</ele><time>2026-04-04T12:18:24.999Z</time></trkpt><trkpt lat="43.483539043207756" lon="10.882142080561513"><ele>280.0</ele><time>2026-04-04T12:18:25.999Z</time></trkpt><trkpt lat="43.48357772746055" lon="10.882352671247574"><ele>280.0</ele><time>2026-04-04T12:18:26.999Z</time></trkpt><trkpt lat="43.4836222619944" lon="10.882581658283245"><ele>280.0</ele><time>2026-04-04T12:18:27.999Z</time></trkpt><trkpt lat="43.48366965547" lon="10.882814308785079"><ele>280.0</ele><time>2026-04-04T12:18:28.999Z</time></trkpt><trkpt lat="43.48373154005382" lon="10.883035409367217"><ele>280.0</ele><time>2026-04-04T12:18:29.999Z</time></trkpt><trkpt lat="43.48381942207986" lon="10.883211678714895"><ele>280.0</ele><time>2026-04-04T12:18:30.999Z</time></trkpt><trkpt lat="43.48392639899779" lon="10.883395260437085"><ele>280.0</ele><time>2026-04-04T12:18:31.999Z</time></trkpt><trkpt lat="43.48404672374645" lon="10.883539179111516"><ele>280.0</ele><time>2026-04-04T12:18:32.999Z</time></trkpt><trkpt lat="43.484130761269256" lon="10.883682509674871"><ele>281.75</ele><time>2026-04-04T12:18:33.999Z</time></trkpt><trkpt lat="43.48418758526379" lon="10.883824799798349"><ele>283.5</ele><time>2026-04-04T12:18:34.999Z</time></trkpt><trkpt lat="43.48422761606479" lon="10.884001029986923"><ele>285.25</ele><time>2026-04-04T12:18:35.999Z</time></trkpt><trkpt lat="43.484264139453416" lon="10.884225393459714"><ele>287.0</ele><time>2026-04-04T12:18:36.999Z</time></trkpt><trkpt lat="43.484307505904404" lon="10.884462873696243"><ele>288.33333333333337</ele><time>2026-04-04T12:18:37.999Z</time></trkpt><trkpt lat="43.484357427411794" lon="10.884736250561309"><ele>289.6666666666667</ele><time>2026-04-04T12:18:38.999Z</time></trkpt><trkpt lat="43.484407418418776" lon="10.884995217151944"><ele>291.0</ele><time>2026-04-04T12:18:39.999Z</time></trkpt><trkpt lat="43.484453014653845" lon="10.885230691856309"><ele>291.5</ele><time>2026-04-04T12:18:40.999Z</time></trkpt><trkpt lat="43.48449483911018" lon="10.885446687526974"><ele>292.0</ele><time>2026-04-04T12:18:41.999Z</time></trkpt><trkpt lat="43.48453403548435" lon="10.885657072062601"><ele>292.5</ele><time>2026-04-04T12:18:42.999Z</time></trkpt><trkpt lat="43.48454396739981" lon="10.885829712929155"><ele>293.0</ele><time>2026-04-04T12:18:43.999Z</time></trkpt><trkpt lat="43.48450024375125" lon="10.885978899635282"><ele>293.0</ele><time>2026-04-04T12:18:44.999Z</time></trkpt><trkpt lat="43.48443076230183" lon="10.8861097613477"><ele>293.0</ele><time>2026-04-04T12:18:45.999Z</time></trkpt><trkpt lat="43.48433715334044" lon="10.88629317790402"><ele>293.0</ele><time>2026-04-04T12:18:46.999Z</time></trkpt><trkpt lat="43.484233030687705" lon="10.886494568190226"><ele>293.0</ele><time>2026-04-04T12:18:47.999Z</time></trkpt><trkpt lat="43.484112284163366" lon="10.886721908624533"><ele>293.0</ele><time>2026-04-04T12:18:48.999Z</time></trkpt><trkpt lat="43.484001023598424" lon="10.886919349882175"><ele>293.0</ele><time>2026-04-04T12:18:49.999Z</time></trkpt><trkpt lat="43.48390132414615" lon="10.887107162893555"><ele>295.0</ele><time>2026-04-04T12:18:50.999Z</time></trkpt><trkpt lat="43.48375949723935" lon="10.88722858223346"><ele>297.0</ele><time>2026-04-04T12:18:51.999Z</time></trkpt><trkpt lat="43.48363971952641" lon="10.887353371276856"><ele>299.0</ele><time>2026-04-04T12:18:52.999Z</time></trkpt><trkpt lat="43.483534357640956" lon="10.887452109712395"><ele>301.0</ele><time>2026-04-04T12:18:53.999Z</time></trkpt><trkpt lat="43.483443878187565" lon="10.887542775996325"><ele>301.8</ele><time>2026-04-04T12:18:54.999Z</time></trkpt><trkpt lat="43.48338555868125" lon="10.887655130698732"><ele>302.6</ele><time>2026-04-04T12:18:55.999Z</time></trkpt><trkpt lat="43.48336348601499" lon="10.88778943549943"><ele>303.4</ele><time>2026-04-04T12:18:56.999Z</time></trkpt><trkpt lat="43.48339144518088" lon="10.88792813566294"><ele>304.2</ele><time>2026-04-04T12:18:57.999Z</time></trkpt><trkpt lat="43.483467231964376" lon="10.888045288261061"><ele>305.0</ele><time>2026-04-04T12:18:58.999Z</time></trkpt><trkpt lat="43.48357779960225" lon="10.88812437409292"><ele>305.0</ele><time>2026-04-04T12:18:59.999Z</time></trkpt><trkpt lat="43.48368236129318" lon="10.88822791816839"><ele>305.0</ele><time>2026-04-04T12:19:00.999Z</time></trkpt><trkpt lat="43.48376817906326" lon="10.888318524657533"><ele>305.0</ele><time>2026-04-04T12:19:01.999Z</time></trkpt><trkpt lat="43.48384389576362" lon="10.888426093869315"><ele>305.0</ele><time>2026-04-04T12:19:02.999Z</time></trkpt><trkpt lat="43.48391154624825" lon="10.888578364186223"><ele>305.0</ele><time>2026-04-04T12:19:03.999Z</time></trkpt><trkpt lat="43.483950216299085" lon="10.888745044500213"><ele>305.0</ele><time>2026-04-04T12:19:04.999Z</time></trkpt><trkpt lat="43.48400073218735" lon="10.88889703805857"><ele>305.0</ele><time>2026-04-04T12:19:05.999Z</time></trkpt><trkpt lat="43.48404493623538" lon="10.889076512794775"><ele>305.0</ele><time>2026-04-04T12:19:06.999Z</time></trkpt><trkpt lat="43.48408242144693" lon="10.88927060804994"><ele>305.0</ele><time>2026-04-04T12:19:07.999Z</time></trkpt><trkpt lat="43.48418312488192" lon="10.889439182276787"><ele>305.0</ele><time>2026-04-04T12:19:08.999Z</time></trkpt><trkpt lat="43.48431948094782" lon="10.889586783153732"><ele>305.0</ele><time>2026-04-04T12:19:09.999Z</time></trkpt><trkpt lat="43.48445649088328" lon="10.889702307656131"><ele>305.0</ele><time>2026-04-04T12:19:10.999Z</time></trkpt><trkpt lat="43.4845625848252" lon="10.88982812181872"><ele>305.0</ele><time>2026-04-04T12:19:11.999Z</time></trkpt><trkpt lat="43.48465863888543" lon="10.889939636261015"><ele>305.0</ele><time>2026-04-04T12:19:12.999Z</time></trkpt><trkpt lat="43.48474393919637" lon="10.890079729292722"><ele>305.0</ele><time>2026-04-04T12:19:13.999Z</time></trkpt><trkpt lat="43.48481708804533" lon="10.890253574909792"><ele>304.0</ele><time>2026-04-04T12:19:14.999Z</time></trkpt><trkpt lat="43.484892318004384" lon="10.89046858800423"><ele>303.0</ele><time>2026-04-04T12:19:15.999Z</time></trkpt><trkpt lat="43.48497745652993" lon="10.890707683760683"><ele>302.0</ele><time>2026-04-04T12:19:16.999Z</time></trkpt><trkpt lat="43.48507444270401" lon="10.89094168174238"><ele>301.33333333333337</ele><time>2026-04-04T12:19:17.999Z</time></trkpt><trkpt lat="43.48516206202549" lon="10.89119853940864"><ele>300.6666666666667</ele><time>2026-04-04T12:19:18.999Z</time></trkpt><trkpt lat="43.485249880668405" lon="10.891450978884974"><ele>300.0</ele><time>2026-04-04T12:19:19.999Z</time></trkpt><trkpt lat="43.48533963569314" lon="10.891705940218586"><ele>300.3333333333333</ele><time>2026-04-04T12:19:20.999Z</time></trkpt><trkpt lat="43.48542476592911" lon="10.89194447022833"><ele>300.66666666666663</ele><time>2026-04-04T12:19:21.999Z</time></trkpt><trkpt lat="43.48548885149584" lon="10.892172284741067"><ele>301.0</ele><time>2026-04-04T12:19:22.999Z</time></trkpt><trkpt lat="43.48555874742654" lon="10.892367862611556"><ele>303.25</ele><time>2026-04-04T12:19:23.999Z</time></trkpt><trkpt lat="43.48562744768841" lon="10.892554491321517"><ele>305.5</ele><time>2026-04-04T12:19:24.999Z</time></trkpt><trkpt lat="43.48569804029246" lon="10.892716450968779"><ele>307.75</ele><time>2026-04-04T12:19:25.999Z</time></trkpt><trkpt lat="43.48573806003091" lon="10.892886471163047"><ele>310.0</ele><time>2026-04-04T12:19:26.999Z</time></trkpt><trkpt lat="43.48577363486032" lon="10.893074148861633"><ele>310.3333333333333</ele><time>2026-04-04T12:19:27.999Z</time></trkpt><trkpt lat="43.48578709413325" lon="10.893300989439672"><ele>310.6666666666667</ele><time>2026-04-04T12:19:28.999Z</time></trkpt><trkpt lat="43.485825621167194" lon="10.893538910953867"><ele>311.0</ele><time>2026-04-04T12:19:29.999Z</time></trkpt><trkpt lat="43.485859648355145" lon="10.893755881769088"><ele>311.0</ele><time>2026-04-04T12:19:30.999Z</time></trkpt><trkpt lat="43.4859211883673" lon="10.893933953998038"><ele>311.0</ele><time>2026-04-04T12:19:31.999Z</time></trkpt><trkpt lat="43.486012110412325" lon="10.894066539761544"><ele>311.0</ele><time>2026-04-04T12:19:32.999Z</time></trkpt><trkpt lat="43.48613103096601" lon="10.894171642835001"><ele>311.0</ele><time>2026-04-04T12:19:33.999Z</time></trkpt><trkpt lat="43.486297918697055" lon="10.894252078035308"><ele>312.6666666666667</ele><time>2026-04-04T12:19:34.999Z</time></trkpt><trkpt lat="43.48647452344914" lon="10.894374122321963"><ele>314.3333333333333</ele><time>2026-04-04T12:19:35.999Z</time></trkpt><trkpt lat="43.48668048394421" lon="10.894503601657041"><ele>316.0</ele><time>2026-04-04T12:19:36.999Z</time></trkpt><trkpt lat="43.48688139131746" lon="10.89463021707183"><ele>316.0</ele><time>2026-04-04T12:19:37.999Z</time></trkpt><trkpt lat="43.48706194921361" lon="10.894719940392864"><ele>316.0</ele><time>2026-04-04T12:19:38.999Z</time></trkpt><trkpt lat="43.48721726272064" lon="10.894819698594738"><ele>316.0</ele><time>2026-04-04T12:19:39.999Z</time></trkpt><trkpt lat="43.48734982777401" lon="10.894929240380652"><ele>320.66666666666663</ele><time>2026-04-04T12:19:40.999Z</time></trkpt><trkpt lat="43.487472949837795" lon="10.895037068851442"><ele>325.3333333333333</ele><time>2026-04-04T12:19:41.999Z</time></trkpt><trkpt lat="43.487559863260316" lon="10.895194814239545"><ele>330.0</ele><time>2026-04-04T12:19:42.999Z</time></trkpt><trkpt lat="43.48761281363833" lon="10.895409261219253"><ele>330.0</ele><time>2026-04-04T12:19:43.999Z</time></trkpt><trkpt lat="43.48760964081438" lon="10.895672076597066"><ele>330.0</ele><time>2026-04-04T12:19:44.999Z</time></trkpt><trkpt lat="43.48761921978757" lon="10.895975020533916"><ele>330.0</ele><time>2026-04-04T12:19:45.999Z</time></trkpt><trkpt lat="43.4876098738592" lon="10.896275636391561"><ele>331.0</ele><time>2026-04-04T12:19:46.999Z</time></trkpt><trkpt lat="43.487645265115965" lon="10.896584086492037"><ele>332.0</ele><time>2026-04-04T12:19:47.999Z</time></trkpt><trkpt lat="43.487718501886036" lon="10.896895588802389"><ele>333.0</ele><time>2026-04-04T12:19:48.999Z</time></trkpt><trkpt lat="43.48778576332316" lon="10.897176523129927"><ele>334.0</ele><time>2026-04-04T12:19:49.999Z</time></trkpt><trkpt lat="43.487794543391544" lon="10.897447366849494"><ele>335.0</ele><time>2026-04-04T12:19:50.999Z</time></trkpt><trkpt lat="43.487768845562286" lon="10.897713376743777"><ele>337.6666666666667</ele><time>2026-04-04T12:19:51.999Z</time></trkpt><trkpt lat="43.48772908332112" lon="10.898009752750625"><ele>340.3333333333333</ele><time>2026-04-04T12:19:52.999Z</time></trkpt><trkpt lat="43.48765837008088" lon="10.898311201446877"><ele>343.0</ele><time>2026-04-04T12:19:53.999Z</time></trkpt><trkpt lat="43.487596617812414" lon="10.898603545921535"><ele>343.66666666666663</ele><time>2026-04-04T12:19:54.999Z</time></trkpt><trkpt lat="43.48754516847159" lon="10.898860373524208"><ele>344.3333333333333</ele><time>2026-04-04T12:19:55.999Z</time></trkpt><trkpt lat="43.48751618680892" lon="10.89909678055059"><ele>345.0</ele><time>2026-04-04T12:19:56.999Z</time></trkpt><trkpt lat="43.48752084604652" lon="10.89933977153113"><ele>345.0</ele><time>2026-04-04T12:19:57.999Z</time></trkpt><trkpt lat="43.487587357153394" lon="10.899605956651401"><ele>345.0</ele><time>2026-04-04T12:19:58.999Z</time></trkpt><trkpt lat="43.48768807754911" lon="10.89984114235825"><ele>345.0</ele><time>2026-04-04T12:19:59.999Z</time></trkpt><trkpt lat="43.487779940338775" lon="10.90003314648728"><ele>347.0</ele><time>2026-04-04T12:20:00.999Z</time></trkpt><trkpt lat="43.4878117128825" lon="10.900231460069966"><ele>349.0</ele><time>2026-04-04T12:20:01.999Z</time></trkpt><trkpt lat="43.487771030117656" lon="10.900423281903455"><ele>351.0</ele><time>2026-04-04T12:20:02.999Z</time></trkpt><trkpt lat="43.487646846189364" lon="10.900583372865542"><ele>351.0</ele><time>2026-04-04T12:20:03.999Z</time></trkpt><trkpt lat="43.48755931224905" lon="10.900741998640324"><ele>351.0</ele><time>2026-04-04T12:20:04.999Z</time></trkpt><trkpt lat="43.487482751705095" lon="10.90087599811385"><ele>351.0</ele><time>2026-04-04T12:20:05.999Z</time></trkpt><trkpt lat="43.487450433549434" lon="10.901056301787513"><ele>351.0</ele><time>2026-04-04T12:20:06.999Z</time></trkpt><trkpt lat="43.487454177362096" lon="10.901287651037107"><ele>351.0</ele><time>2026-04-04T12:20:07.999Z</time></trkpt><trkpt lat="43.48748093315775" lon="10.901542384617622"><ele>351.0</ele><time>2026-04-04T12:20:08.999Z</time></trkpt><trkpt lat="43.48748065179593" lon="10.901763223479017"><ele>351.0</ele><time>2026-04-04T12:20:09.999Z</time></trkpt><trkpt lat="43.487485920911006" lon="10.902001898787521"><ele>351.0</ele><time>2026-04-04T12:20:10.999Z</time></trkpt><trkpt lat="43.48749155246727" lon="10.902256995114366"><ele>351.0</ele><time>2026-04-04T12:20:11.999Z</time></trkpt><trkpt lat="43.48753967864656" lon="10.902480803885128"><ele>351.0</ele><time>2026-04-04T12:20:12.999Z</time></trkpt><trkpt lat="43.48762240656414" lon="10.902690126930423"><ele>351.0</ele><time>2026-04-04T12:20:13.999Z</time></trkpt><trkpt lat="43.487730129451236" lon="10.902878027598144"><ele>351.0</ele><time>2026-04-04T12:20:14.999Z</time></trkpt><trkpt lat="43.48782357899572" lon="10.90310151384987"><ele>351.0</ele><time>2026-04-04T12:20:15.999Z</time></trkpt><trkpt lat="43.48786802526755" lon="10.903361684613083"><ele>351.0</ele><time>2026-04-04T12:20:16.999Z</time></trkpt><trkpt lat="43.487829987468956" lon="10.903626609251935"><ele>351.0</ele><time>2026-04-04T12:20:17.999Z</time></trkpt><trkpt lat="43.487794366808544" lon="10.903912005639233"><ele>351.0</ele><time>2026-04-04T12:20:18.999Z</time></trkpt><trkpt lat="43.48777364893627" lon="10.904216940636053"><ele>350.5</ele><time>2026-04-04T12:20:19.999Z</time></trkpt><trkpt lat="43.48777009501809" lon="10.904531654301302"><ele>350.0</ele><time>2026-04-04T12:20:20.999Z</time></trkpt><trkpt lat="43.48779298215626" lon="10.904863272375854"><ele>351.0</ele><time>2026-04-04T12:20:21.999Z</time></trkpt><trkpt lat="43.48782788062515" lon="10.905218075545383"><ele>352.0</ele><time>2026-04-04T12:20:22.999Z</time></trkpt><trkpt lat="43.48785395471544" lon="10.905574127752097"><ele>352.0</ele><time>2026-04-04T12:20:23.999Z</time></trkpt><trkpt lat="43.48787935147348" lon="10.905904789822818"><ele>352.0</ele><time>2026-04-04T12:20:24.999Z</time></trkpt><trkpt lat="43.48790405827046" lon="10.906213208012261"><ele>356.3333333333333</ele><time>2026-04-04T12:20:25.999Z</time></trkpt><trkpt lat="43.487927718352765" lon="10.906501171427822"><ele>360.6666666666667</ele><time>2026-04-04T12:20:26.999Z</time></trkpt><trkpt lat="43.48794738568907" lon="10.906790199048844"><ele>365.0</ele><time>2026-04-04T12:20:27.999Z</time></trkpt><trkpt lat="43.4879581564491" lon="10.907094800380941"><ele>362.0</ele><time>2026-04-04T12:20:28.999Z</time></trkpt><trkpt lat="43.48792545262705" lon="10.907404554473665"><ele>359.0</ele><time>2026-04-04T12:20:29.999Z</time></trkpt><trkpt lat="43.48788561872709" lon="10.907699449992048"><ele>356.0</ele><time>2026-04-04T12:20:30.999Z</time></trkpt><trkpt lat="43.487850607260704" lon="10.90801201730353"><ele>356.0</ele><time>2026-04-04T12:20:31.999Z</time></trkpt><trkpt lat="43.48779649305839" lon="10.908326421296708"><ele>356.0</ele><time>2026-04-04T12:20:32.999Z</time></trkpt><trkpt lat="43.487743670886786" lon="10.908614771130631"><ele>357.0</ele><time>2026-04-04T12:20:33.999Z</time></trkpt><trkpt lat="43.487681934020586" lon="10.908903201673718"><ele>358.0</ele><time>2026-04-04T12:20:34.999Z</time></trkpt><trkpt lat="43.48760094833181" lon="10.909170369241163"><ele>359.0</ele><time>2026-04-04T12:20:35.999Z</time></trkpt><trkpt lat="43.487502018132034" lon="10.909411599978727"><ele>365.0</ele><time>2026-04-04T12:20:36.999Z</time></trkpt><trkpt lat="43.48739904439812" lon="10.909636298790137"><ele>371.0</ele><time>2026-04-04T12:20:37.999Z</time></trkpt><trkpt lat="43.487288201130774" lon="10.909854126134679"><ele>377.0</ele><time>2026-04-04T12:20:38.999Z</time></trkpt><trkpt lat="43.48714215621514" lon="10.910033075179978"><ele>375.6666666666667</ele><time>2026-04-04T12:20:39.999Z</time></trkpt><trkpt lat="43.4870159416617" lon="10.910202204777741"><ele>374.3333333333333</ele><time>2026-04-04T12:20:40.999Z</time></trkpt><trkpt lat="43.48689589461816" lon="10.910316713634487"><ele>373.0</ele><time>2026-04-04T12:20:41.999Z</time></trkpt><trkpt lat="43.486757093688006" lon="10.910408301150412"><ele>373.0</ele><time>2026-04-04T12:20:42.999Z</time></trkpt><trkpt lat="43.48658232496403" lon="10.910406280704072"><ele>373.0</ele><time>2026-04-04T12:20:43.999Z</time></trkpt><trkpt lat="43.48638406483575" lon="10.91041791262798"><ele>373.0</ele><time>2026-04-04T12:20:44.999Z</time></trkpt><trkpt lat="43.48617682505426" lon="10.910398598534425"><ele>375.66666666666663</ele><time>2026-04-04T12:20:45.999Z</time></trkpt><trkpt lat="43.48595991631033" lon="10.91041296708376"><ele>378.3333333333333</ele><time>2026-04-04T12:20:46.999Z</time></trkpt><trkpt lat="43.48573459500438" lon="10.910450477911905"><ele>381.0</ele><time>2026-04-04T12:20:47.999Z</time></trkpt><trkpt lat="43.48550988226393" lon="10.910494006610351"><ele>379.6666666666667</ele><time>2026-04-04T12:20:48.999Z</time></trkpt><trkpt lat="43.48530531771666" lon="10.910522464282764"><ele>378.33333333333337</ele><time>2026-04-04T12:20:49.999Z</time></trkpt><trkpt lat="43.48513724872794" lon="10.910548061384166"><ele>377.0</ele><time>2026-04-04T12:20:50.999Z</time></trkpt><trkpt lat="43.484995119758956" lon="10.910575650839583"><ele>377.0</ele><time>2026-04-04T12:20:51.999Z</time></trkpt><trkpt lat="43.48486942143486" lon="10.910634990247724"><ele>377.0</ele><time>2026-04-04T12:20:52.999Z</time></trkpt><trkpt lat="43.484749377524196" lon="10.91077183687835"><ele>377.0</ele><time>2026-04-04T12:20:53.999Z</time></trkpt><trkpt lat="43.48462342712128" lon="10.910966962842325"><ele>377.33333333333337</ele><time>2026-04-04T12:20:54.999Z</time></trkpt><trkpt lat="43.484503684705224" lon="10.911201229877038"><ele>377.6666666666667</ele><time>2026-04-04T12:20:55.999Z</time></trkpt><trkpt lat="43.48437284078827" lon="10.911448233290372"><ele>378.0</ele><time>2026-04-04T12:20:56.999Z</time></trkpt><trkpt lat="43.48423990279694" lon="10.911684835674299"><ele>380.66666666666663</ele><time>2026-04-04T12:20:57.999Z</time></trkpt><trkpt lat="43.48411714125931" lon="10.911896869909723"><ele>383.3333333333333</ele><time>2026-04-04T12:20:58.999Z</time></trkpt><trkpt lat="43.48401768543199" lon="10.912061194014615"><ele>386.0</ele><time>2026-04-04T12:20:59.999Z</time></trkpt><trkpt lat="43.48393809727727" lon="10.912212076158786"><ele>386.0</ele><time>2026-04-04T12:21:00.999Z</time></trkpt><trkpt lat="43.483888222137054" lon="10.912364556019982"><ele>386.0</ele><time>2026-04-04T12:21:01.999Z</time></trkpt><trkpt lat="43.483888133592416" lon="10.912521454729355"><ele>386.0</ele><time>2026-04-04T12:21:02.999Z</time></trkpt><trkpt lat="43.48393729859299" lon="10.912702356852346"><ele>386.0</ele><time>2026-04-04T12:21:03.999Z</time></trkpt><trkpt lat="43.484037410522006" lon="10.912901295038374"><ele>384.3333333333333</ele><time>2026-04-04T12:21:04.999Z</time></trkpt><trkpt lat="43.48416255548813" lon="10.913108659854808"><ele>382.66666666666663</ele><time>2026-04-04T12:21:05.999Z</time></trkpt><trkpt lat="43.48428756110276" lon="10.913334751591432"><ele>381.0</ele><time>2026-04-04T12:21:06.999Z</time></trkpt><trkpt lat="43.48441648943508" lon="10.913569007459484"><ele>378.5</ele><time>2026-04-04T12:21:07.999Z</time></trkpt><trkpt lat="43.48454707526694" lon="10.913825772161974"><ele>376.0</ele><time>2026-04-04T12:21:08.999Z</time></trkpt><trkpt lat="43.484646287688925" lon="10.914110295143669"><ele>386.5</ele><time>2026-04-04T12:21:09.999Z</time></trkpt><trkpt lat="43.48469483321114" lon="10.914424942180304"><ele>397.0</ele><time>2026-04-04T12:21:10.999Z</time></trkpt><trkpt lat="43.48476134711181" lon="10.914716914718742"><ele>397.0</ele><time>2026-04-04T12:21:11.999Z</time></trkpt><trkpt lat="43.48482863839848" lon="10.915000536133462"><ele>397.0</ele><time>2026-04-04T12:21:12.999Z</time></trkpt><trkpt lat="43.484923839788486" lon="10.915282568697485"><ele>397.0</ele><time>2026-04-04T12:21:13.999Z</time></trkpt><trkpt lat="43.48503656048376" lon="10.91556948416631"><ele>393.5</ele><time>2026-04-04T12:21:14.999Z</time></trkpt><trkpt lat="43.48515349487749" lon="10.91587491964582"><ele>390.0</ele><time>2026-04-04T12:21:15.999Z</time></trkpt><trkpt lat="43.48526529243866" lon="10.916194667951412"><ele>386.5</ele><time>2026-04-04T12:21:16.999Z</time></trkpt><trkpt lat="43.48537600011182" lon="10.916513996952583"><ele>383.0</ele><time>2026-04-04T12:21:17.999Z</time></trkpt><trkpt lat="43.485490908667956" lon="10.91683341142094"><ele>391.0</ele><time>2026-04-04T12:21:18.999Z</time></trkpt><trkpt lat="43.48560101341185" lon="10.917154390041816"><ele>399.0</ele><time>2026-04-04T12:21:19.999Z</time></trkpt><trkpt lat="43.48570085536377" lon="10.917453545673359"><ele>396.33333333333337</ele><time>2026-04-04T12:21:20.999Z</time></trkpt><trkpt lat="43.485790717346646" lon="10.917706095255467"><ele>393.6666666666667</ele><time>2026-04-04T12:21:21.999Z</time></trkpt><trkpt lat="43.48588722137334" lon="10.91795635443034"><ele>391.0</ele><time>2026-04-04T12:21:22.999Z</time></trkpt><trkpt lat="43.48602576934964" lon="10.918205243555423"><ele>393.5</ele><time>2026-04-04T12:21:23.999Z</time></trkpt><trkpt lat="43.48619639685307" lon="10.918443497353852"><ele>396.0</ele><time>2026-04-04T12:21:24.999Z</time></trkpt><trkpt lat="43.48637850935108" lon="10.918659169083154"><ele>396.0</ele><time>2026-04-04T12:21:25.999Z</time></trkpt><trkpt lat="43.486561480592144" lon="10.918880134077595"><ele>396.0</ele><time>2026-04-04T12:21:26.999Z</time></trkpt><trkpt lat="43.486747827107834" lon="10.91910702990082"><ele>393.5</ele><time>2026-04-04T12:21:27.999Z</time></trkpt><trkpt lat="43.486931540708845" lon="10.919340777675544"><ele>391.0</ele><time>2026-04-04T12:21:28.999Z</time></trkpt><trkpt lat="43.48711803540768" lon="10.91957972288853"><ele>398.0</ele><time>2026-04-04T12:21:29.999Z</time></trkpt><trkpt lat="43.4873049286735" lon="10.91981563368256"><ele>405.0</ele><time>2026-04-04T12:21:30.999Z</time></trkpt><trkpt lat="43.48748653388083" lon="10.920054251859334"><ele>401.0</ele><time>2026-04-04T12:21:31.999Z</time></trkpt><trkpt lat="43.48765933867339" lon="10.920284246552074"><ele>397.0</ele><time>2026-04-04T12:21:32.999Z</time></trkpt><trkpt lat="43.48783725179183" lon="10.920510947210621"><ele>400.5</ele><time>2026-04-04T12:21:33.999Z</time></trkpt><trkpt lat="43.48801876461633" lon="10.920737050089938"><ele>404.0</ele><time>2026-04-04T12:21:34.999Z</time></trkpt><trkpt lat="43.4882027860879" lon="10.920963359913292"><ele>404.0</ele><time>2026-04-04T12:21:35.999Z</time></trkpt><trkpt lat="43.48837382543229" lon="10.921172826138555"><ele>404.0</ele><time>2026-04-04T12:21:36.999Z</time></trkpt><trkpt lat="43.48852935322189" lon="10.921407234862162"><ele>404.0</ele><time>2026-04-04T12:21:37.999Z</time></trkpt><trkpt lat="43.488693920891684" lon="10.92160459602216"><ele>404.0</ele><time>2026-04-04T12:21:38.999Z</time></trkpt><trkpt lat="43.48883779520812" lon="10.921834677144812"><ele>404.0</ele><time>2026-04-04T12:21:39.999Z</time></trkpt><trkpt lat="43.48894974832621" lon="10.922065031700457"><ele>406.66666666666663</ele><time>2026-04-04T12:21:40.999Z</time></trkpt><trkpt lat="43.48905967904161" lon="10.922267335588257"><ele>409.33333333333337</ele><time>2026-04-04T12:21:41.999Z</time></trkpt><trkpt lat="43.48918584132367" lon="10.922441010943848"><ele>412.0</ele><time>2026-04-04T12:21:42.999Z</time></trkpt><trkpt lat="43.489320762913586" lon="10.92258237895645"><ele>412.0</ele><time>2026-04-04T12:21:43.999Z</time></trkpt><trkpt lat="43.48946523933507" lon="10.92267736069397"><ele>412.0</ele><time>2026-04-04T12:21:44.999Z</time></trkpt><trkpt lat="43.489592373280495" lon="10.922758378972535"><ele>412.0</ele><time>2026-04-04T12:21:45.999Z</time></trkpt><trkpt lat="43.48969096707229" lon="10.922865211324792"><ele>412.0</ele><time>2026-04-04T12:21:46.999Z</time></trkpt><trkpt lat="43.48977918040825" lon="10.922964812391458"><ele>414.6</ele><time>2026-04-04T12:21:47.999Z</time></trkpt><trkpt lat="43.48984156357619" lon="10.923072280828029"><ele>417.20000000000005</ele><time>2026-04-04T12:21:48.999Z</time></trkpt><trkpt lat="43.489868751862964" lon="10.92320216832792"><ele>419.8</ele><time>2026-04-04T12:21:49.999Z</time></trkpt><trkpt lat="43.489885625574594" lon="10.923345208486907"><ele>422.4</ele><time>2026-04-04T12:21:50.999Z</time></trkpt><trkpt lat="43.48986566193906" lon="10.923492595166566"><ele>425.0</ele><time>2026-04-04T12:21:51.999Z</time></trkpt><trkpt lat="43.489833935802366" lon="10.923642160444182"><ele>425.0</ele><time>2026-04-04T12:21:52.999Z</time></trkpt><trkpt lat="43.48980635670751" lon="10.92381027135246"><ele>425.0</ele><time>2026-04-04T12:21:53.999Z</time></trkpt><trkpt lat="43.48977843920495" lon="10.923989744312978"><ele>425.0</ele><time>2026-04-04T12:21:54.999Z</time></trkpt><trkpt lat="43.48974858327701" lon="10.924187206833091"><ele>425.0</ele><time>2026-04-04T12:21:55.999Z</time></trkpt><trkpt lat="43.48971122556776" lon="10.924398001108608"><ele>425.0</ele><time>2026-04-04T12:21:56.999Z</time></trkpt><trkpt lat="43.48968397694761" lon="10.92461644402214"><ele>425.0</ele><time>2026-04-04T12:21:57.999Z</time></trkpt><trkpt lat="43.489654933277016" lon="10.924837371076771"><ele>425.0</ele><time>2026-04-04T12:21:58.999Z</time></trkpt><trkpt lat="43.48961979955827" lon="10.925055859358398"><ele>422.3333333333333</ele><time>2026-04-04T12:21:59.999Z</time></trkpt><trkpt lat="43.48958250833455" lon="10.925278933496793"><ele>419.66666666666663</ele><time>2026-04-04T12:22:00.999Z</time></trkpt><trkpt lat="43.48954199073532" lon="10.92553364337214"><ele>417.0</ele><time>2026-04-04T12:22:01.999Z</time></trkpt><trkpt lat="43.489509113188575" lon="10.92579846268646"><ele>419.66666666666663</ele><time>2026-04-04T12:22:02.999Z</time></trkpt><trkpt lat="43.48947164915332" lon="10.926067544321873"><ele>422.3333333333333</ele><time>2026-04-04T12:22:03.999Z</time></trkpt><trkpt lat="43.48943384292143" lon="10.926346233128042"><ele>425.0</ele><time>2026-04-04T12:22:04.999Z</time></trkpt><trkpt lat="43.489393665721984" lon="10.926619262295555"><ele>427.3333333333333</ele><time>2026-04-04T12:22:05.999Z</time></trkpt><trkpt lat="43.48935409371359" lon="10.926885548069247"><ele>429.66666666666663</ele><time>2026-04-04T12:22:06.999Z</time></trkpt><trkpt lat="43.48932205290514" lon="10.927142371092897"><ele>432.0</ele><time>2026-04-04T12:22:07.999Z</time></trkpt><trkpt lat="43.48930795647003" lon="10.927391664809228"><ele>432.66666666666663</ele><time>2026-04-04T12:22:08.999Z</time></trkpt><trkpt lat="43.48928352433989" lon="10.927651776644039"><ele>433.3333333333333</ele><time>2026-04-04T12:22:09.999Z</time></trkpt><trkpt lat="43.489263089263616" lon="10.927915451571296"><ele>434.0</ele><time>2026-04-04T12:22:10.999Z</time></trkpt><trkpt lat="43.489247282746945" lon="10.928180136056547"><ele>434.66666666666663</ele><time>2026-04-04T12:22:11.999Z</time></trkpt><trkpt lat="43.48922701055381" lon="10.928451499184643"><ele>435.33333333333337</ele><time>2026-04-04T12:22:12.999Z</time></trkpt><trkpt lat="43.48920169022079" lon="10.92870116335222"><ele>436.0</ele><time>2026-04-04T12:22:13.999Z</time></trkpt><trkpt lat="43.48919458155658" lon="10.928950827315576"><ele>436.0</ele><time>2026-04-04T12:22:14.999Z</time></trkpt><trkpt lat="43.48922530299346" lon="10.929218332925728"><ele>436.0</ele><time>2026-04-04T12:22:15.999Z</time></trkpt><trkpt lat="43.489304245941305" lon="10.929493966593142"><ele>436.0</ele><time>2026-04-04T12:22:16.999Z</time></trkpt><trkpt lat="43.48940515456184" lon="10.929752710442443"><ele>436.33333333333337</ele><time>2026-04-04T12:22:17.999Z</time></trkpt><trkpt lat="43.489489969116896" lon="10.929995428704755"><ele>436.66666666666663</ele><time>2026-04-04T12:22:18.999Z</time></trkpt><trkpt lat="43.48954990465441" lon="10.930216488642243"><ele>437.0</ele><time>2026-04-04T12:22:19.999Z</time></trkpt><trkpt lat="43.48959036517496" lon="10.930433150117823"><ele>443.0</ele><time>2026-04-04T12:22:20.999Z</time></trkpt><trkpt lat="43.48960904112943" lon="10.930636642831864"><ele>449.0</ele><time>2026-04-04T12:22:21.999Z</time></trkpt><trkpt lat="43.48961832645577" lon="10.930842977733514"><ele>455.0</ele><time>2026-04-04T12:22:22.999Z</time></trkpt><trkpt lat="43.48962838029655" lon="10.931040315608172"><ele>461.0</ele><time>2026-04-04T12:22:23.999Z</time></trkpt><trkpt lat="43.48964689629164" lon="10.93122229920271"><ele>461.0</ele><time>2026-04-04T12:22:24.999Z</time></trkpt><trkpt lat="43.4896598752954" lon="10.931386252422701"><ele>461.0</ele><time>2026-04-04T12:22:25.999Z</time></trkpt><trkpt lat="43.48966793386653" lon="10.931537919499554"><ele>461.0</ele><time>2026-04-04T12:22:26.999Z</time></trkpt><trkpt lat="43.489671870739635" lon="10.931674106511329"><ele>461.0</ele><time>2026-04-04T12:22:27.999Z</time></trkpt><trkpt lat="43.48967707946724" lon="10.931799098535373"><ele>461.0</ele><time>2026-04-04T12:22:28.999Z</time></trkpt><trkpt lat="43.48968639095704" lon="10.931913504126046"><ele>460.4</ele><time>2026-04-04T12:22:29.999Z</time></trkpt><trkpt lat="43.48969649985085" lon="10.932012728930502"><ele>459.8</ele><time>2026-04-04T12:22:30.999Z</time></trkpt><trkpt lat="43.48970870906208" lon="10.932166423449022"><ele>459.19999999999993</ele><time>2026-04-04T12:22:32.999Z</time></trkpt><trkpt lat="43.489720692351405" lon="10.932286386934766"><ele>458.59999999999997</ele><time>2026-04-04T12:22:34.999Z</time></trkpt><trkpt lat="43.4897450328739" lon="10.93241860797016"><ele>458.0</ele><time>2026-04-04T12:22:37.999Z</time></trkpt><trkpt lat="43.489815570287924" lon="10.932510632151832"><ele>457.99999999999994</ele><time>2026-04-04T12:22:39.999Z</time></trkpt><trkpt lat="43.489875565037245" lon="10.932553176464861"><ele>458.0</ele><time>2026-04-04T12:22:41.999Z</time></trkpt><trkpt lat="43.4899495139812" lon="10.932589975217304"><ele>458.0</ele><time>2026-04-04T12:23:05.999Z</time></trkpt><trkpt lat="43.490037606982725" lon="10.932715375600791"><ele>458.0</ele><time>2026-04-04T12:23:07.999Z</time></trkpt><trkpt lat="43.490060160483814" lon="10.932826094351627"><ele>457.99999999999994</ele><time>2026-04-04T12:23:08.999Z</time></trkpt><trkpt lat="43.49006580303284" lon="10.93293743257016"><ele>458.0</ele><time>2026-04-04T12:23:09.999Z</time></trkpt><trkpt lat="43.490065523225596" lon="10.933069480078126"><ele>458.0</ele><time>2026-04-04T12:23:10.999Z</time></trkpt><trkpt lat="43.490064886254316" lon="10.933206798424354"><ele>457.99999999999994</ele><time>2026-04-04T12:23:11.999Z</time></trkpt><trkpt lat="43.49005454358045" lon="10.933334000083393"><ele>457.99999999999994</ele><time>2026-04-04T12:23:12.999Z</time></trkpt><trkpt lat="43.49003474657645" lon="10.933467218184703"><ele>458.0</ele><time>2026-04-04T12:23:13.999Z</time></trkpt><trkpt lat="43.49000618249198" lon="10.933607347615126"><ele>458.0</ele><time>2026-04-04T12:23:14.999Z</time></trkpt><trkpt lat="43.49002246516989" lon="10.933745560380443"><ele>458.0</ele><time>2026-04-04T12:23:15.999Z</time></trkpt><trkpt lat="43.490008418744786" lon="10.933893114735284"><ele>458.0</ele><time>2026-04-04T12:23:16.999Z</time></trkpt><trkpt lat="43.489992377581885" lon="10.93405879493503"><ele>458.0</ele><time>2026-04-04T12:23:17.999Z</time></trkpt><trkpt lat="43.489978691970464" lon="10.93422636186634"><ele>458.0</ele><time>2026-04-04T12:23:18.999Z</time></trkpt><trkpt lat="43.4899611576888" lon="10.934412018648027"><ele>458.0</ele><time>2026-04-04T12:23:19.999Z</time></trkpt><trkpt lat="43.4899252575265" lon="10.934600650341302"><ele>458.0</ele><time>2026-04-04T12:23:20.999Z</time></trkpt><trkpt lat="43.489916351039746" lon="10.934795824965308"><ele>458.0</ele><time>2026-04-04T12:23:21.999Z</time></trkpt><trkpt lat="43.4898921474518" lon="10.935006461035588"><ele>458.0</ele><time>2026-04-04T12:23:22.999Z</time></trkpt><trkpt lat="43.48987347025306" lon="10.935215295608552"><ele>457.0</ele><time>2026-04-04T12:23:23.999Z</time></trkpt><trkpt lat="43.489842573739466" lon="10.935408511537014"><ele>456.0</ele><time>2026-04-04T12:23:24.999Z</time></trkpt><trkpt lat="43.48982370186046" lon="10.93559273846141"><ele>455.0</ele><time>2026-04-04T12:23:25.999Z</time></trkpt><trkpt lat="43.48980504125326" lon="10.935774899354886"><ele>454.0</ele><time>2026-04-04T12:23:26.999Z</time></trkpt><trkpt lat="43.48978710107616" lon="10.93595196282269"><ele>452.6666666666667</ele><time>2026-04-04T12:23:27.999Z</time></trkpt><trkpt lat="43.489766383962994" lon="10.936155738591994"><ele>451.33333333333337</ele><time>2026-04-04T12:23:28.999Z</time></trkpt><trkpt lat="43.48974287719551" lon="10.936386953610135"><ele>450.0</ele><time>2026-04-04T12:23:29.999Z</time></trkpt><trkpt lat="43.489717105400736" lon="10.936640598465143"><ele>449.66666666666663</ele><time>2026-04-04T12:23:30.999Z</time></trkpt><trkpt lat="43.48968972971518" lon="10.936910039959791"><ele>449.3333333333333</ele><time>2026-04-04T12:23:31.999Z</time></trkpt><trkpt lat="43.489660921476684" lon="10.937193581896635"><ele>449.0</ele><time>2026-04-04T12:23:32.999Z</time></trkpt><trkpt lat="43.489641617421825" lon="10.937494665087675"><ele>449.0</ele><time>2026-04-04T12:23:33.999Z</time></trkpt><trkpt lat="43.489609756907456" lon="10.937803778456537"><ele>449.0</ele><time>2026-04-04T12:23:34.999Z</time></trkpt><trkpt lat="43.489574113802234" lon="10.938121766271824"><ele>451.0</ele><time>2026-04-04T12:23:35.999Z</time></trkpt><trkpt lat="43.489538251734196" lon="10.938452848628788"><ele>453.0</ele><time>2026-04-04T12:23:36.999Z</time></trkpt><trkpt lat="43.48950431707883" lon="10.938765016800618"><ele>453.0</ele><time>2026-04-04T12:23:37.999Z</time></trkpt><trkpt lat="43.48947775096566" lon="10.939039675626065"><ele>453.0</ele><time>2026-04-04T12:23:38.999Z</time></trkpt><trkpt lat="43.48945335054252" lon="10.939298334113088"><ele>453.0</ele><time>2026-04-04T12:23:39.999Z</time></trkpt><trkpt lat="43.48943117054581" lon="10.939543248388366"><ele>453.66666666666663</ele><time>2026-04-04T12:23:40.999Z</time></trkpt><trkpt lat="43.48939118640745" lon="10.939768141101045"><ele>454.3333333333333</ele><time>2026-04-04T12:23:41.999Z</time></trkpt><trkpt lat="43.489361969259384" lon="10.93997308235219"><ele>455.0</ele><time>2026-04-04T12:23:42.999Z</time></trkpt><trkpt lat="43.489313514129954" lon="10.940161967204158"><ele>453.3333333333333</ele><time>2026-04-04T12:23:43.999Z</time></trkpt><trkpt lat="43.489222581478266" lon="10.940310792125251"><ele>451.66666666666663</ele><time>2026-04-04T12:23:44.999Z</time></trkpt><trkpt lat="43.48910462615663" lon="10.940440229377597"><ele>450.0</ele><time>2026-04-04T12:23:45.999Z</time></trkpt><trkpt lat="43.48896160688228" lon="10.940532556288746"><ele>450.0</ele><time>2026-04-04T12:23:46.999Z</time></trkpt><trkpt lat="43.48879779085024" lon="10.940640475903185"><ele>450.0</ele><time>2026-04-04T12:23:47.999Z</time></trkpt><trkpt lat="43.4886262909991" lon="10.940731440068726"><ele>450.0</ele><time>2026-04-04T12:23:48.999Z</time></trkpt><trkpt lat="43.488481944891696" lon="10.940818233280918"><ele>451.5</ele><time>2026-04-04T12:23:49.999Z</time></trkpt><trkpt lat="43.48836316482584" lon="10.94089763926331"><ele>453.0</ele><time>2026-04-04T12:23:50.999Z</time></trkpt><trkpt lat="43.488259249806156" lon="10.941005174840113"><ele>454.5</ele><time>2026-04-04T12:23:51.999Z</time></trkpt><trkpt lat="43.48817812364666" lon="10.941144539916595"><ele>456.0</ele><time>2026-04-04T12:23:52.999Z</time></trkpt><trkpt lat="43.488137446437484" lon="10.941341646249086"><ele>456.0</ele><time>2026-04-04T12:23:53.999Z</time></trkpt><trkpt lat="43.48810754151506" lon="10.941586098330045"><ele>456.0</ele><time>2026-04-04T12:23:54.999Z</time></trkpt><trkpt lat="43.48805217435857" lon="10.941837329867644"><ele>456.0</ele><time>2026-04-04T12:23:55.999Z</time></trkpt><trkpt lat="43.488018233856465" lon="10.942069877888242"><ele>457.0</ele><time>2026-04-04T12:23:56.999Z</time></trkpt><trkpt lat="43.48794446765978" lon="10.942264076691181"><ele>458.0</ele><time>2026-04-04T12:23:57.999Z</time></trkpt><trkpt lat="43.48786608939207" lon="10.942434881723509"><ele>459.0</ele><time>2026-04-04T12:23:58.999Z</time></trkpt><trkpt lat="43.487753208750696" lon="10.9426015246637"><ele>459.0</ele><time>2026-04-04T12:23:59.999Z</time></trkpt><trkpt lat="43.48761050236339" lon="10.942776074822824"><ele>459.0</ele><time>2026-04-04T12:24:00.999Z</time></trkpt><trkpt lat="43.48746549094807" lon="10.942961443424657"><ele>459.0</ele><time>2026-04-04T12:24:01.999Z</time></trkpt><trkpt lat="43.48733333466482" lon="10.943114317357642"><ele>459.0</ele><time>2026-04-04T12:24:02.999Z</time></trkpt><trkpt lat="43.487237425482014" lon="10.94324213187363"><ele>459.0</ele><time>2026-04-04T12:24:03.999Z</time></trkpt><trkpt lat="43.48714419046614" lon="10.943355977484867"><ele>459.0</ele><time>2026-04-04T12:24:04.999Z</time></trkpt><trkpt lat="43.487065466011956" lon="10.943483059898883"><ele>459.0</ele><time>2026-04-04T12:24:05.999Z</time></trkpt><trkpt lat="43.48700180365872" lon="10.943649160641913"><ele>453.66666666666663</ele><time>2026-04-04T12:24:06.999Z</time></trkpt><trkpt lat="43.486941587270195" lon="10.943869907509248"><ele>448.3333333333333</ele><time>2026-04-04T12:24:07.999Z</time></trkpt><trkpt lat="43.486885577004166" lon="10.944134709656714"><ele>443.0</ele><time>2026-04-04T12:24:08.999Z</time></trkpt><trkpt lat="43.486824194187" lon="10.944395281881992"><ele>443.0</ele><time>2026-04-04T12:24:09.999Z</time></trkpt><trkpt lat="43.486765790756785" lon="10.944632306167344"><ele>443.0</ele><time>2026-04-04T12:24:10.999Z</time></trkpt><trkpt lat="43.48670627447674" lon="10.944858495864267"><ele>443.0</ele><time>2026-04-04T12:24:11.999Z</time></trkpt><trkpt lat="43.486638505612895" lon="10.945080308934086"><ele>443.3333333333333</ele><time>2026-04-04T12:24:12.999Z</time></trkpt><trkpt lat="43.48654956151465" lon="10.94529799509321"><ele>443.66666666666663</ele><time>2026-04-04T12:24:13.999Z</time></trkpt><trkpt lat="43.48640558533336" lon="10.945488378297535"><ele>444.0</ele><time>2026-04-04T12:24:14.999Z</time></trkpt><trkpt lat="43.48626593485437" lon="10.94570017645162"><ele>443.66666666666663</ele><time>2026-04-04T12:24:15.999Z</time></trkpt><trkpt lat="43.48612760908192" lon="10.945869681458426"><ele>443.3333333333333</ele><time>2026-04-04T12:24:16.999Z</time></trkpt><trkpt lat="43.48601003767537" lon="10.946032505324569"><ele>443.0</ele><time>2026-04-04T12:24:17.999Z</time></trkpt><trkpt lat="43.48591390671665" lon="10.94619628284099"><ele>443.0</ele><time>2026-04-04T12:24:18.999Z</time></trkpt><trkpt lat="43.48583983817061" lon="10.946404510579606"><ele>443.0</ele><time>2026-04-04T12:24:19.999Z</time></trkpt><trkpt lat="43.4857895964787" lon="10.946642976880481"><ele>443.0</ele><time>2026-04-04T12:24:20.999Z</time></trkpt><trkpt lat="43.48572891448907" lon="10.946883032423942"><ele>443.3333333333333</ele><time>2026-04-04T12:24:21.999Z</time></trkpt><trkpt lat="43.48566079195305" lon="10.94713252909115"><ele>443.66666666666663</ele><time>2026-04-04T12:24:22.999Z</time></trkpt><trkpt lat="43.48559851915174" lon="10.947373546768876"><ele>444.0</ele><time>2026-04-04T12:24:23.999Z</time></trkpt><trkpt lat="43.48553824794376" lon="10.947599737786312"><ele>444.0</ele><time>2026-04-04T12:24:24.999Z</time></trkpt><trkpt lat="43.48548538042086" lon="10.94780899696079"><ele>444.0</ele><time>2026-04-04T12:24:25.999Z</time></trkpt><trkpt lat="43.48543115341801" lon="10.948002275371955"><ele>444.0</ele><time>2026-04-04T12:24:26.999Z</time></trkpt><trkpt lat="43.48538191728376" lon="10.948191224863862"><ele>442.5</ele><time>2026-04-04T12:24:27.999Z</time></trkpt><trkpt lat="43.48535021584802" lon="10.948382154997686"><ele>441.0</ele><time>2026-04-04T12:24:28.999Z</time></trkpt><trkpt lat="43.485333851097046" lon="10.948568289947273"><ele>439.5</ele><time>2026-04-04T12:24:29.999Z</time></trkpt><trkpt lat="43.485334944720144" lon="10.948776057241872"><ele>438.0</ele><time>2026-04-04T12:24:30.999Z</time></trkpt><trkpt lat="43.48534067123046" lon="10.948996611908113"><ele>440.66666666666663</ele><time>2026-04-04T12:24:31.999Z</time></trkpt><trkpt lat="43.485356342496786" lon="10.949236047437566"><ele>443.3333333333333</ele><time>2026-04-04T12:24:32.999Z</time></trkpt><trkpt lat="43.48537557200022" lon="10.949458744350146"><ele>446.0</ele><time>2026-04-04T12:24:33.999Z</time></trkpt><trkpt lat="43.48539306366379" lon="10.94967320420642"><ele>446.0</ele><time>2026-04-04T12:24:34.999Z</time></trkpt><trkpt lat="43.48539611809172" lon="10.949858013806534"><ele>446.0</ele><time>2026-04-04T12:24:35.999Z</time></trkpt><trkpt lat="43.48535534615602" lon="10.950031850166285"><ele>446.0</ele><time>2026-04-04T12:24:36.999Z</time></trkpt><trkpt lat="43.48529760300392" lon="10.95019115299326"><ele>446.0</ele><time>2026-04-04T12:24:37.999Z</time></trkpt><trkpt lat="43.48516818873154" lon="10.950281503539957"><ele>449.0</ele><time>2026-04-04T12:24:38.999Z</time></trkpt><trkpt lat="43.48504258305165" lon="10.950332734606661"><ele>452.0</ele><time>2026-04-04T12:24:39.999Z</time></trkpt><trkpt lat="43.48493479535631" lon="10.950377466119463"><ele>455.0</ele><time>2026-04-04T12:24:40.999Z</time></trkpt><trkpt lat="43.484850410986155" lon="10.950432733762948"><ele>458.0</ele><time>2026-04-04T12:24:41.999Z</time></trkpt><trkpt lat="43.484802997925236" lon="10.950564577053923"><ele>461.0</ele><time>2026-04-04T12:24:42.999Z</time></trkpt><trkpt lat="43.48479051822405" lon="10.950743792090185"><ele>462.5</ele><time>2026-04-04T12:24:43.999Z</time></trkpt><trkpt lat="43.48481489308346" lon="10.950958158139198"><ele>464.0</ele><time>2026-04-04T12:24:44.999Z</time></trkpt><trkpt lat="43.48484614982983" lon="10.951160869399482"><ele>465.5</ele><time>2026-04-04T12:24:45.999Z</time></trkpt><trkpt lat="43.48487150656988" lon="10.951348202826116"><ele>467.0</ele><time>2026-04-04T12:24:46.999Z</time></trkpt><trkpt lat="43.48485397256994" lon="10.951507813878962"><ele>467.0</ele><time>2026-04-04T12:24:47.999Z</time></trkpt><trkpt lat="43.48482134306045" lon="10.951660846403694"><ele>467.0</ele><time>2026-04-04T12:24:48.999Z</time></trkpt><trkpt lat="43.484754568196436" lon="10.951826571084036"><ele>467.0</ele><time>2026-04-04T12:24:49.999Z</time></trkpt><trkpt lat="43.48467615256111" lon="10.952001823703398"><ele>467.0</ele><time>2026-04-04T12:24:50.999Z</time></trkpt><trkpt lat="43.48459716735247" lon="10.952174393526857"><ele>467.20000000000005</ele><time>2026-04-04T12:24:51.999Z</time></trkpt><trkpt lat="43.48452746217289" lon="10.952322330464307"><ele>467.40000000000003</ele><time>2026-04-04T12:24:52.999Z</time></trkpt><trkpt lat="43.484466486153394" lon="10.952443519268126"><ele>467.59999999999997</ele><time>2026-04-04T12:24:53.999Z</time></trkpt><trkpt lat="43.48440176524782" lon="10.95255367333269"><ele>467.79999999999995</ele><time>2026-04-04T12:24:54.999Z</time></trkpt><trkpt lat="43.48432200946126" lon="10.952658909782615"><ele>468.0</ele><time>2026-04-04T12:24:55.999Z</time></trkpt><trkpt lat="43.48421315940472" lon="10.952725514376922"><ele>468.0</ele><time>2026-04-04T12:24:56.999Z</time></trkpt><trkpt lat="43.484068770311445" lon="10.952749565040822"><ele>468.0</ele><time>2026-04-04T12:24:57.999Z</time></trkpt><trkpt lat="43.48389859954851" lon="10.95278045592879"><ele>468.0</ele><time>2026-04-04T12:24:58.999Z</time></trkpt><trkpt lat="43.48372279003571" lon="10.952783351394245"><ele>467.33333333333337</ele><time>2026-04-04T12:24:59.999Z</time></trkpt><trkpt lat="43.483536856128225" lon="10.952804845752677"><ele>466.6666666666667</ele><time>2026-04-04T12:25:00.999Z</time></trkpt><trkpt lat="43.483338657118324" lon="10.952821276204062"><ele>466.0</ele><time>2026-04-04T12:25:01.999Z</time></trkpt><trkpt lat="43.483144597679825" lon="10.952836699535391"><ele>466.0</ele><time>2026-04-04T12:25:02.999Z</time></trkpt><trkpt lat="43.482971781665626" lon="10.952853893230941"><ele>466.0</ele><time>2026-04-04T12:25:03.999Z</time></trkpt><trkpt lat="43.482810269541815" lon="10.95286456564895"><ele>466.0</ele><time>2026-04-04T12:25:04.999Z</time></trkpt><trkpt lat="43.48265445823594" lon="10.952873907700713"><ele>467.75</ele><time>2026-04-04T12:25:05.999Z</time></trkpt><trkpt lat="43.48250800385404" lon="10.952889954979835"><ele>469.5</ele><time>2026-04-04T12:25:06.999Z</time></trkpt><trkpt lat="43.48237877682192" lon="10.952867076177291"><ele>471.25</ele><time>2026-04-04T12:25:07.999Z</time></trkpt><trkpt lat="43.482255341943684" lon="10.952816961027493"><ele>473.0</ele><time>2026-04-04T12:25:08.999Z</time></trkpt><trkpt lat="43.48213431915812" lon="10.952756259326783"><ele>472.2</ele><time>2026-04-04T12:25:09.999Z</time></trkpt><trkpt lat="43.482044770224746" lon="10.952661824947604"><ele>471.4</ele><time>2026-04-04T12:25:10.999Z</time></trkpt><trkpt lat="43.481951325807195" lon="10.95260756666921"><ele>470.59999999999997</ele><time>2026-04-04T12:25:11.999Z</time></trkpt><trkpt lat="43.4818555716189" lon="10.952588541687096"><ele>469.79999999999995</ele><time>2026-04-04T12:25:12.999Z</time></trkpt><trkpt lat="43.48175462010227" lon="10.952620877323346"><ele>469.0</ele><time>2026-04-04T12:25:13.999Z</time></trkpt><trkpt lat="43.48164706675431" lon="10.952705508496132"><ele>469.0</ele><time>2026-04-04T12:25:14.999Z</time></trkpt><trkpt lat="43.48154082521591" lon="10.95284015861122"><ele>469.0</ele><time>2026-04-04T12:25:15.999Z</time></trkpt><trkpt lat="43.48144739886735" lon="10.95298613143359"><ele>469.0</ele><time>2026-04-04T12:25:16.999Z</time></trkpt><trkpt lat="43.48135416397412" lon="10.953097418825019"><ele>469.0</ele><time>2026-04-04T12:25:17.999Z</time></trkpt><trkpt lat="43.48126478446186" lon="10.95320392877631"><ele>469.0</ele><time>2026-04-04T12:25:18.999Z</time></trkpt><trkpt lat="43.4811916572779" lon="10.95330221891347"><ele>469.0</ele><time>2026-04-04T12:25:19.999Z</time></trkpt><trkpt lat="43.48109139782234" lon="10.953367285653547"><ele>469.0</ele><time>2026-04-04T12:25:20.999Z</time></trkpt><trkpt lat="43.48101026101647" lon="10.95343104412667"><ele>469.0</ele><time>2026-04-04T12:25:21.999Z</time></trkpt><trkpt lat="43.4809405653402" lon="10.953483911673725"><ele>469.0</ele><time>2026-04-04T12:25:22.999Z</time></trkpt><trkpt lat="43.48087941910548" lon="10.953537850496119"><ele>469.00000000000006</ele><time>2026-04-04T12:25:23.999Z</time></trkpt><trkpt lat="43.4808245062738" lon="10.953594806087208"><ele>469.0</ele><time>2026-04-04T12:25:24.999Z</time></trkpt><trkpt lat="43.48077709432379" lon="10.953678301776499"><ele>469.0</ele><time>2026-04-04T12:25:25.999Z</time></trkpt><trkpt lat="43.480745734150844" lon="10.953774474163735"><ele>469.0</ele><time>2026-04-04T12:25:26.999Z</time></trkpt><trkpt lat="43.48072808814426" lon="10.95388816040458"><ele>469.00000000000006</ele><time>2026-04-04T12:25:27.999Z</time></trkpt><trkpt lat="43.480700372500756" lon="10.954009794445684"><ele>469.0</ele><time>2026-04-04T12:25:28.999Z</time></trkpt><trkpt lat="43.48069276229508" lon="10.954159232580874"><ele>468.75</ele><time>2026-04-04T12:25:29.999Z</time></trkpt><trkpt lat="43.48066988762977" lon="10.954335845724165"><ele>468.5</ele><time>2026-04-04T12:25:30.999Z</time></trkpt><trkpt lat="43.4806552953388" lon="10.954529469206388"><ele>468.25</ele><time>2026-04-04T12:25:31.999Z</time></trkpt><trkpt lat="43.48065311407032" lon="10.954740669289242"><ele>468.0</ele><time>2026-04-04T12:25:32.999Z</time></trkpt><trkpt lat="43.48063079552596" lon="10.954957467700368"><ele>466.75</ele><time>2026-04-04T12:25:33.999Z</time></trkpt><trkpt lat="43.48062419052874" lon="10.955155537310876"><ele>465.5</ele><time>2026-04-04T12:25:34.999Z</time></trkpt><trkpt lat="43.48061794829339" lon="10.955346222135287"><ele>464.25</ele><time>2026-04-04T12:25:35.999Z</time></trkpt><trkpt lat="43.48061181682043" lon="10.955533523416415"><ele>463.0</ele><time>2026-04-04T12:25:36.999Z</time></trkpt><trkpt lat="43.48060548182993" lon="10.95572704151972"><ele>462.33333333333337</ele><time>2026-04-04T12:25:37.999Z</time></trkpt><trkpt lat="43.48059935030824" lon="10.955936918929275"><ele>461.66666666666663</ele><time>2026-04-04T12:25:38.999Z</time></trkpt><trkpt lat="43.4805998043619" lon="10.956151420827716"><ele>461.0</ele><time>2026-04-04T12:25:39.999Z</time></trkpt><trkpt lat="43.48063019116917" lon="10.956369416491068"><ele>461.0</ele><time>2026-04-04T12:25:40.999Z</time></trkpt><trkpt lat="43.48064529728035" lon="10.956597936104144"><ele>461.0</ele><time>2026-04-04T12:25:41.999Z</time></trkpt><trkpt lat="43.48068217270368" lon="10.95684309825654"><ele>461.0</ele><time>2026-04-04T12:25:42.999Z</time></trkpt><trkpt lat="43.48072230756582" lon="10.957099494335145"><ele>459.0</ele><time>2026-04-04T12:25:43.999Z</time></trkpt><trkpt lat="43.48076466307202" lon="10.95737101309764"><ele>457.0</ele><time>2026-04-04T12:25:44.999Z</time></trkpt><trkpt lat="43.48080924155038" lon="10.957658072142872"><ele>455.0</ele><time>2026-04-04T12:25:45.999Z</time></trkpt><trkpt lat="43.480855436745216" lon="10.95795526511664"><ele>454.0</ele><time>2026-04-04T12:25:46.999Z</time></trkpt><trkpt lat="43.48090519378494" lon="10.95826222356833"><ele>453.0</ele><time>2026-04-04T12:25:47.999Z</time></trkpt><trkpt lat="43.480953846359064" lon="10.95856453628834"><ele>453.0</ele><time>2026-04-04T12:25:48.999Z</time></trkpt><trkpt lat="43.48101219572453" lon="10.95888112005409"><ele>453.0</ele><time>2026-04-04T12:25:49.999Z</time></trkpt><trkpt lat="43.48108003710429" lon="10.959192415587104"><ele>452.66666666666663</ele><time>2026-04-04T12:25:50.999Z</time></trkpt><trkpt lat="43.48114949333409" lon="10.959479830862657"><ele>452.3333333333333</ele><time>2026-04-04T12:25:51.999Z</time></trkpt><trkpt lat="43.48123095748583" lon="10.959739138753317"><ele>452.0</ele><time>2026-04-04T12:25:52.999Z</time></trkpt><trkpt lat="43.4812926050233" lon="10.959993997275866"><ele>453.0</ele><time>2026-04-04T12:25:53.999Z</time></trkpt><trkpt lat="43.48136206162372" lon="10.960223835430009"><ele>454.0</ele><time>2026-04-04T12:25:54.999Z</time></trkpt><trkpt lat="43.481456746081555" lon="10.96044068419608"><ele>455.0</ele><time>2026-04-04T12:25:55.999Z</time></trkpt><trkpt lat="43.4815836810116" lon="10.960648524663851"><ele>455.0</ele><time>2026-04-04T12:25:56.999Z</time></trkpt><trkpt lat="43.481741573580145" lon="10.960830247533663"><ele>455.0</ele><time>2026-04-04T12:25:57.999Z</time></trkpt><trkpt lat="43.48190780894465" lon="10.960992745248243"><ele>455.0</ele><time>2026-04-04T12:25:58.999Z</time></trkpt><trkpt lat="43.48204333928436" lon="10.961152998277594"><ele>455.66666666666663</ele><time>2026-04-04T12:25:59.999Z</time></trkpt><trkpt lat="43.48217336186715" lon="10.961299649935286"><ele>456.33333333333337</ele><time>2026-04-04T12:26:00.999Z</time></trkpt><trkpt lat="43.48230373400785" lon="10.961455868038122"><ele>457.0</ele><time>2026-04-04T12:26:01.999Z</time></trkpt><trkpt lat="43.48243596930745" lon="10.961614318742338"><ele>456.33333333333337</ele><time>2026-04-04T12:26:02.999Z</time></trkpt><trkpt lat="43.482571394111744" lon="10.96177899484358"><ele>455.66666666666663</ele><time>2026-04-04T12:26:03.999Z</time></trkpt><trkpt lat="43.482696847857525" lon="10.961931651756798"><ele>455.0</ele><time>2026-04-04T12:26:04.999Z</time></trkpt><trkpt lat="43.48284964617943" lon="10.962087842942877"><ele>453.66666666666663</ele><time>2026-04-04T12:26:05.999Z</time></trkpt><trkpt lat="43.48299403348599" lon="10.96226105347943"><ele>452.33333333333337</ele><time>2026-04-04T12:26:06.999Z</time></trkpt><trkpt lat="43.48312909105494" lon="10.962424937936186"><ele>451.0</ele><time>2026-04-04T12:26:07.999Z</time></trkpt><trkpt lat="43.48325289460087" lon="10.96258171663819"><ele>449.0</ele><time>2026-04-04T12:26:08.999Z</time></trkpt><trkpt lat="43.48337454195084" lon="10.962732146522502"><ele>447.0</ele><time>2026-04-04T12:26:09.999Z</time></trkpt><trkpt lat="43.483495154591935" lon="10.9628806391094"><ele>445.0</ele><time>2026-04-04T12:26:10.999Z</time></trkpt><trkpt lat="43.48361845527853" lon="10.963029020108978"><ele>445.0</ele><time>2026-04-04T12:26:11.999Z</time></trkpt><trkpt lat="43.48373875343411" lon="10.963177499399466"><ele>445.0</ele><time>2026-04-04T12:26:12.999Z</time></trkpt><trkpt lat="43.483832076884624" lon="10.963349051961051"><ele>445.0</ele><time>2026-04-04T12:26:13.999Z</time></trkpt><trkpt lat="43.48392451865225" lon="10.963519143598388"><ele>444.0</ele><time>2026-04-04T12:26:14.999Z</time></trkpt><trkpt lat="43.484016611303176" lon="10.963703067479713"><ele>443.0</ele><time>2026-04-04T12:26:15.999Z</time></trkpt><trkpt lat="43.48411458406289" lon="10.963902699346063"><ele>442.0</ele><time>2026-04-04T12:26:16.999Z</time></trkpt><trkpt lat="43.484219803261205" lon="10.964114576769267"><ele>440.33333333333337</ele><time>2026-04-04T12:26:17.999Z</time></trkpt><trkpt lat="43.484334451808316" lon="10.964345442349963"><ele>438.66666666666663</ele><time>2026-04-04T12:26:18.999Z</time></trkpt><trkpt lat="43.48445367611731" lon="10.964584118514168"><ele>437.0</ele><time>2026-04-04T12:26:19.999Z</time></trkpt><trkpt lat="43.484572575821716" lon="10.964821997632672"><ele>435.66666666666663</ele><time>2026-04-04T12:26:20.999Z</time></trkpt><trkpt lat="43.484684487799626" lon="10.965045895829686"><ele>434.33333333333337</ele><time>2026-04-04T12:26:21.999Z</time></trkpt><trkpt lat="43.48478754092778" lon="10.965252070420874"><ele>433.0</ele><time>2026-04-04T12:26:22.999Z</time></trkpt><trkpt lat="43.484877581896825" lon="10.965440516818125"><ele>433.0</ele><time>2026-04-04T12:26:23.999Z</time></trkpt><trkpt lat="43.484957996353934" lon="10.965629215759465"><ele>433.0</ele><time>2026-04-04T12:26:24.999Z</time></trkpt><trkpt lat="43.485000846067265" lon="10.965827230062128"><ele>433.0</ele><time>2026-04-04T12:26:25.999Z</time></trkpt><trkpt lat="43.48500670880614" lon="10.966045805519725"><ele>431.0</ele><time>2026-04-04T12:26:26.999Z</time></trkpt><trkpt lat="43.48497108212382" lon="10.966298207876562"><ele>429.0</ele><time>2026-04-04T12:26:27.999Z</time></trkpt><trkpt lat="43.48492101443991" lon="10.966580378298364"><ele>427.0</ele><time>2026-04-04T12:26:28.999Z</time></trkpt><trkpt lat="43.48487427529824" lon="10.966842283197085"><ele>426.0</ele><time>2026-04-04T12:26:29.999Z</time></trkpt><trkpt lat="43.484830137685094" lon="10.967075841213429"><ele>425.0</ele><time>2026-04-04T12:26:30.999Z</time></trkpt><trkpt lat="43.48479561278579" lon="10.96727853043959"><ele>424.0</ele><time>2026-04-04T12:26:31.999Z</time></trkpt><trkpt lat="43.48478551848972" lon="10.967470169186507"><ele>423.33333333333337</ele><time>2026-04-04T12:26:32.999Z</time></trkpt><trkpt lat="43.48477617249825" lon="10.967678366436475"><ele>422.66666666666663</ele><time>2026-04-04T12:26:33.999Z</time></trkpt><trkpt lat="43.484795357928206" lon="10.96791228070931"><ele>422.0</ele><time>2026-04-04T12:26:34.999Z</time></trkpt><trkpt lat="43.4848515837919" lon="10.96816566901546"><ele>421.66666666666663</ele><time>2026-04-04T12:26:35.999Z</time></trkpt><trkpt lat="43.48492694799838" lon="10.96843264086132"><ele>421.33333333333337</ele><time>2026-04-04T12:26:36.999Z</time></trkpt><trkpt lat="43.485009412675176" lon="10.968713936094723"><ele>421.0</ele><time>2026-04-04T12:26:37.999Z</time></trkpt><trkpt lat="43.48507319539046" lon="10.96901134630993"><ele>420.0</ele><time>2026-04-04T12:26:38.999Z</time></trkpt><trkpt lat="43.48515008431305" lon="10.969310631687437"><ele>419.0</ele><time>2026-04-04T12:26:39.999Z</time></trkpt><trkpt lat="43.485225757520865" lon="10.969600988810429"><ele>419.0</ele><time>2026-04-04T12:26:40.999Z</time></trkpt><trkpt lat="43.48529560662975" lon="10.96986590971227"><ele>419.0</ele><time>2026-04-04T12:26:41.999Z</time></trkpt><trkpt lat="43.485383923131536" lon="10.970128314628905"><ele>419.0</ele><time>2026-04-04T12:26:42.999Z</time></trkpt><trkpt lat="43.485461897812925" lon="10.97040257093447"><ele>418.5</ele><time>2026-04-04T12:26:43.999Z</time></trkpt><trkpt lat="43.48554126180222" lon="10.970693897568966"><ele>418.0</ele><time>2026-04-04T12:26:44.999Z</time></trkpt><trkpt lat="43.48563381895236" lon="10.970979374538393"><ele>418.0</ele><time>2026-04-04T12:26:45.999Z</time></trkpt><trkpt lat="43.48572702058114" lon="10.971269503615492"><ele>418.0</ele><time>2026-04-04T12:26:46.999Z</time></trkpt><trkpt lat="43.48581701072575" lon="10.971550644303878"><ele>416.0</ele><time>2026-04-04T12:26:47.999Z</time></trkpt><trkpt lat="43.4859032431604" lon="10.971820046452326"><ele>414.0</ele><time>2026-04-04T12:26:48.999Z</time></trkpt><trkpt lat="43.48598700924435" lon="10.972078185361493"><ele>412.0</ele><time>2026-04-04T12:26:49.999Z</time></trkpt><trkpt lat="43.486063848486715" lon="10.972315797850813"><ele>413.0</ele><time>2026-04-04T12:26:51Z</time></trkpt><trkpt lat="43.486137626112665" lon="10.97254602905118"><ele>414.0</ele><time>2026-04-04T12:26:52Z</time></trkpt><trkpt lat="43.48620521520269" lon="10.97275707163911"><ele>415.0</ele><time>2026-04-04T12:26:53Z</time></trkpt><trkpt lat="43.486262807037214" lon="10.972952560004869"><ele>416.25</ele><time>2026-04-04T12:26:54Z</time></trkpt><trkpt lat="43.48630180343655" lon="10.973136167084602"><ele>417.5</ele><time>2026-04-04T12:26:55Z</time></trkpt><trkpt lat="43.48632405654842" lon="10.973324097791702"><ele>418.75</ele><time>2026-04-04T12:26:56Z</time></trkpt><trkpt lat="43.486320649308766" lon="10.97352813789911"><ele>420.0</ele><time>2026-04-04T12:26:57Z</time></trkpt><trkpt lat="43.48630061682019" lon="10.973749814797884"><ele>421.66666666666663</ele><time>2026-04-04T12:26:58Z</time></trkpt><trkpt lat="43.486274205938884" lon="10.973985355964405"><ele>423.3333333333333</ele><time>2026-04-04T12:26:59Z</time></trkpt><trkpt lat="43.486262439363756" lon="10.974235548696445"><ele>425.0</ele><time>2026-04-04T12:27:00Z</time></trkpt><trkpt lat="43.486231811145814" lon="10.974497482802079"><ele>426.66666666666663</ele><time>2026-04-04T12:27:01Z</time></trkpt><trkpt lat="43.486207533443405" lon="10.97473330660129"><ele>428.33333333333337</ele><time>2026-04-04T12:27:02Z</time></trkpt><trkpt lat="43.48618414276447" lon="10.974935866258804"><ele>430.0</ele><time>2026-04-04T12:27:03Z</time></trkpt><trkpt lat="43.48617482267863" lon="10.9751463075783"><ele>430.33333333333337</ele><time>2026-04-04T12:27:04Z</time></trkpt><trkpt lat="43.48620255441662" lon="10.97538355476403"><ele>430.66666666666663</ele><time>2026-04-04T12:27:05Z</time></trkpt><trkpt lat="43.48625604867416" lon="10.975637061897348"><ele>431.0</ele><time>2026-04-04T12:27:06Z</time></trkpt><trkpt lat="43.486315282710855" lon="10.975874844071011"><ele>437.3333333333333</ele><time>2026-04-04T12:27:07Z</time></trkpt><trkpt lat="43.48636610762209" lon="10.976124554820325"><ele>443.66666666666663</ele><time>2026-04-04T12:27:08Z</time></trkpt><trkpt lat="43.486409767643714" lon="10.976351163038636"><ele>450.0</ele><time>2026-04-04T12:27:09Z</time></trkpt><trkpt lat="43.48645475205107" lon="10.976544676748247"><ele>447.66666666666663</ele><time>2026-04-04T12:27:10Z</time></trkpt><trkpt lat="43.48651213898852" lon="10.97673770753735"><ele>445.3333333333333</ele><time>2026-04-04T12:27:11Z</time></trkpt><trkpt lat="43.4866010249225" lon="10.976942547115248"><ele>443.0</ele><time>2026-04-04T12:27:12Z</time></trkpt><trkpt lat="43.486693727612" lon="10.977120067706313"><ele>443.0</ele><time>2026-04-04T12:27:13Z</time></trkpt><trkpt lat="43.486771031790006" lon="10.977305767845975"><ele>443.0</ele><time>2026-04-04T12:27:14Z</time></trkpt><trkpt lat="43.48687091646949" lon="10.977470456039182"><ele>443.0</ele><time>2026-04-04T12:27:15Z</time></trkpt><trkpt lat="43.486948525538686" lon="10.977638570388143"><ele>442.75</ele><time>2026-04-04T12:27:16Z</time></trkpt><trkpt lat="43.48702036770901" lon="10.977798403272864"><ele>442.5</ele><time>2026-04-04T12:27:17Z</time></trkpt><trkpt lat="43.48709461243592" lon="10.97794539089617"><ele>442.25</ele><time>2026-04-04T12:27:18Z</time></trkpt><trkpt lat="43.48715476492776" lon="10.978091317960871"><ele>442.0</ele><time>2026-04-04T12:27:19Z</time></trkpt><trkpt lat="43.48719542715273" lon="10.978265651903493"><ele>442.0</ele><time>2026-04-04T12:27:20Z</time></trkpt><trkpt lat="43.487188636074436" lon="10.978462807329182"><ele>442.0</ele><time>2026-04-04T12:27:21Z</time></trkpt><trkpt lat="43.48713167204617" lon="10.978644246768852"><ele>442.0</ele><time>2026-04-04T12:27:22Z</time></trkpt><trkpt lat="43.487060480866774" lon="10.97884005296781"><ele>442.0</ele><time>2026-04-04T12:27:23Z</time></trkpt><trkpt lat="43.48698339427949" lon="10.979070957558351"><ele>445.0</ele><time>2026-04-04T12:27:24Z</time></trkpt><trkpt lat="43.48688922204926" lon="10.979291449945539"><ele>448.0</ele><time>2026-04-04T12:27:25Z</time></trkpt><trkpt lat="43.486806974266294" lon="10.979488239620537"><ele>451.0</ele><time>2026-04-04T12:27:26Z</time></trkpt><trkpt lat="43.48673651941723" lon="10.979673782716992"><ele>451.0</ele><time>2026-04-04T12:27:27Z</time></trkpt><trkpt lat="43.48667916099668" lon="10.979844008187742"><ele>451.0</ele><time>2026-04-04T12:27:28Z</time></trkpt><trkpt lat="43.48663638123014" lon="10.980022033776523"><ele>451.0</ele><time>2026-04-04T12:27:29Z</time></trkpt><trkpt lat="43.48663087318387" lon="10.980224752720737"><ele>451.0</ele><time>2026-04-04T12:27:30Z</time></trkpt><trkpt lat="43.486653404831465" lon="10.98045455345784"><ele>451.6666666666667</ele><time>2026-04-04T12:27:31Z</time></trkpt><trkpt lat="43.48671522299261" lon="10.980686980503922"><ele>452.33333333333337</ele><time>2026-04-04T12:27:32Z</time></trkpt><trkpt lat="43.48678135572207" lon="10.980913179499481"><ele>453.0</ele><time>2026-04-04T12:27:33Z</time></trkpt><trkpt lat="43.48683456942329" lon="10.981143342823978"><ele>454.33333333333337</ele><time>2026-04-04T12:27:34Z</time></trkpt><trkpt lat="43.486884749405334" lon="10.981367655566203"><ele>455.6666666666667</ele><time>2026-04-04T12:27:35Z</time></trkpt><trkpt lat="43.48693784925199" lon="10.981595241736926"><ele>457.0</ele><time>2026-04-04T12:27:36Z</time></trkpt><trkpt lat="43.48698057908878" lon="10.981808815096118"><ele>457.75</ele><time>2026-04-04T12:27:37Z</time></trkpt><trkpt lat="43.48699257573142" lon="10.982014540007835"><ele>458.5</ele><time>2026-04-04T12:27:38Z</time></trkpt><trkpt lat="43.48700231472879" lon="10.98220809660788"><ele>459.25</ele><time>2026-04-04T12:27:39Z</time></trkpt><trkpt lat="43.487001170477015" lon="10.982405633203836"><ele>460.0</ele><time>2026-04-04T12:27:40Z</time></trkpt><trkpt lat="43.487010944147244" lon="10.982610720704761"><ele>460.0</ele><time>2026-04-04T12:27:41Z</time></trkpt><trkpt lat="43.48700511492825" lon="10.982813405404242"><ele>460.0</ele><time>2026-04-04T12:27:42Z</time></trkpt><trkpt lat="43.4870052022665" lon="10.983021803118259"><ele>460.0</ele><time>2026-04-04T12:27:43Z</time></trkpt><trkpt lat="43.486989964475086" lon="10.983225730833446"><ele>460.0</ele><time>2026-04-04T12:27:44Z</time></trkpt><trkpt lat="43.48698950912207" lon="10.983419130198053"><ele>458.0</ele><time>2026-04-04T12:27:45Z</time></trkpt><trkpt lat="43.48699800492264" lon="10.983598873444215"><ele>456.0</ele><time>2026-04-04T12:27:46Z</time></trkpt><trkpt lat="43.487042874787974" lon="10.983767687647576"><ele>454.0</ele><time>2026-04-04T12:27:47Z</time></trkpt><trkpt lat="43.48708911346357" lon="10.983931723824533"><ele>452.0</ele><time>2026-04-04T12:27:48Z</time></trkpt><trkpt lat="43.487156132526984" lon="10.984107461891009"><ele>451.3333333333333</ele><time>2026-04-04T12:27:49Z</time></trkpt><trkpt lat="43.487234642953986" lon="10.984280558453884"><ele>450.66666666666663</ele><time>2026-04-04T12:27:50Z</time></trkpt><trkpt lat="43.48730935918601" lon="10.984462153446067"><ele>450.0</ele><time>2026-04-04T12:27:51Z</time></trkpt><trkpt lat="43.487380616937116" lon="10.98465521048433"><ele>450.0</ele><time>2026-04-04T12:27:52Z</time></trkpt><trkpt lat="43.487454419326404" lon="10.984849204065469"><ele>450.0</ele><time>2026-04-04T12:27:53Z</time></trkpt><trkpt lat="43.48752058698876" lon="10.985059330300395"><ele>450.0</ele><time>2026-04-04T12:27:54Z</time></trkpt><trkpt lat="43.48761320005901" lon="10.985249247521574"><ele>449.66666666666663</ele><time>2026-04-04T12:27:55Z</time></trkpt><trkpt lat="43.48768210215117" lon="10.985444909608447"><ele>449.3333333333333</ele><time>2026-04-04T12:27:56Z</time></trkpt><trkpt lat="43.487758906691624" lon="10.985637034945636"><ele>449.0</ele><time>2026-04-04T12:27:57Z</time></trkpt><trkpt lat="43.48783118560399" lon="10.9858203876791"><ele>448.5</ele><time>2026-04-04T12:27:58Z</time></trkpt><trkpt lat="43.48789733902378" lon="10.986003830919989"><ele>448.0</ele><time>2026-04-04T12:27:59Z</time></trkpt><trkpt lat="43.48792825219288" lon="10.986202461227034"><ele>447.5</ele><time>2026-04-04T12:28:00Z</time></trkpt><trkpt lat="43.48795389256607" lon="10.986399906451457"><ele>447.0</ele><time>2026-04-04T12:28:01Z</time></trkpt><trkpt lat="43.487970735661456" lon="10.986602750819197"><ele>446.0</ele><time>2026-04-04T12:28:02Z</time></trkpt><trkpt lat="43.48799489998907" lon="10.986805315771582"><ele>445.0</ele><time>2026-04-04T12:28:03Z</time></trkpt><trkpt lat="43.48800637777882" lon="10.987009446854598"><ele>444.0</ele><time>2026-04-04T12:28:04Z</time></trkpt><trkpt lat="43.48802660730004" lon="10.987215360458915"><ele>443.0</ele><time>2026-04-04T12:28:05Z</time></trkpt><trkpt lat="43.48800829674711" lon="10.987414106487533"><ele>441.0</ele><time>2026-04-04T12:28:06Z</time></trkpt><trkpt lat="43.48798345134807" lon="10.98761208168397"><ele>439.0</ele><time>2026-04-04T12:28:07Z</time></trkpt><trkpt lat="43.48793734214241" lon="10.987803311546314"><ele>437.0</ele><time>2026-04-04T12:28:08Z</time></trkpt><trkpt lat="43.48789085543534" lon="10.988013215672362"><ele>436.0</ele><time>2026-04-04T12:28:09Z</time></trkpt><trkpt lat="43.48781894557893" lon="10.98822708429714"><ele>435.0</ele><time>2026-04-04T12:28:10Z</time></trkpt><trkpt lat="43.487748678050195" lon="10.988466530641176"><ele>434.0</ele><time>2026-04-04T12:28:11Z</time></trkpt><trkpt lat="43.487673220373914" lon="10.98871683232652"><ele>433.3333333333333</ele><time>2026-04-04T12:28:12Z</time></trkpt><trkpt lat="43.48759844370748" lon="10.988991021080139"><ele>432.66666666666663</ele><time>2026-04-04T12:28:13Z</time></trkpt><trkpt lat="43.48751623076612" lon="10.98927059355671"><ele>432.0</ele><time>2026-04-04T12:28:14Z</time></trkpt><trkpt lat="43.4874306704015" lon="10.989549870772871"><ele>429.33333333333337</ele><time>2026-04-04T12:28:15Z</time></trkpt><trkpt lat="43.48734583988055" lon="10.989825536671372"><ele>426.6666666666667</ele><time>2026-04-04T12:28:16Z</time></trkpt><trkpt lat="43.48726467079514" lon="10.990099021719564"><ele>424.0</ele><time>2026-04-04T12:28:17Z</time></trkpt><trkpt lat="43.48718840284719" lon="10.990369593610467"><ele>420.6666666666667</ele><time>2026-04-04T12:28:18Z</time></trkpt><trkpt lat="43.487117629717865" lon="10.990646623788791"><ele>417.33333333333337</ele><time>2026-04-04T12:28:19Z</time></trkpt><trkpt lat="43.48705822614044" lon="10.990928664123615"><ele>414.0</ele><time>2026-04-04T12:28:20Z</time></trkpt><trkpt lat="43.48699813203659" lon="10.99121016856681"><ele>413.0</ele><time>2026-04-04T12:28:21Z</time></trkpt><trkpt lat="43.48693872901283" lon="10.991490976351955"><ele>412.0</ele><time>2026-04-04T12:28:22Z</time></trkpt><trkpt lat="43.48687842645545" lon="10.991765003351352"><ele>411.0</ele><time>2026-04-04T12:28:23Z</time></trkpt><trkpt lat="43.48681958904647" lon="10.99203280544254"><ele>410.66666666666663</ele><time>2026-04-04T12:28:24Z</time></trkpt><trkpt lat="43.48676254193011" lon="10.992289708045762"><ele>410.3333333333333</ele><time>2026-04-04T12:28:25Z</time></trkpt><trkpt lat="43.48671161685819" lon="10.992550938651561"><ele>410.0</ele><time>2026-04-04T12:28:26Z</time></trkpt><trkpt lat="43.48667333880569" lon="10.992811109119346"><ele>409.66666666666663</ele><time>2026-04-04T12:28:27Z</time></trkpt><trkpt lat="43.48665425709167" lon="10.993083814674076"><ele>409.33333333333337</ele><time>2026-04-04T12:28:28Z</time></trkpt><trkpt lat="43.486643131820124" lon="10.993365515453384"><ele>409.0</ele><time>2026-04-04T12:28:29Z</time></trkpt><trkpt lat="43.48662566589181" lon="10.993620804098734"><ele>407.6666666666667</ele><time>2026-04-04T12:28:30Z</time></trkpt><trkpt lat="43.48660822025114" lon="10.993874215112148"><ele>406.33333333333337</ele><time>2026-04-04T12:28:31Z</time></trkpt><trkpt lat="43.486585973497746" lon="10.99411764242952"><ele>405.0</ele><time>2026-04-04T12:28:32Z</time></trkpt><trkpt lat="43.486567850732854" lon="10.9943685875555"><ele>405.0</ele><time>2026-04-04T12:28:33Z</time></trkpt><trkpt lat="43.48655319259084" lon="10.9946218141795"><ele>405.0</ele><time>2026-04-04T12:28:34Z</time></trkpt><trkpt lat="43.48655250751221" lon="10.99487352976052"><ele>405.0</ele><time>2026-04-04T12:28:35Z</time></trkpt><trkpt lat="43.48657718906034" lon="10.995127794966322"><ele>405.0</ele><time>2026-04-04T12:28:36Z</time></trkpt><trkpt lat="43.486635033941944" lon="10.995391362206346"><ele>405.0</ele><time>2026-04-04T12:28:37Z</time></trkpt><trkpt lat="43.4867103717922" lon="10.995649858257943"><ele>405.0</ele><time>2026-04-04T12:28:38Z</time></trkpt><trkpt lat="43.48678935836181" lon="10.995896729198439"><ele>404.33333333333337</ele><time>2026-04-04T12:28:39Z</time></trkpt><trkpt lat="43.48684060185767" lon="10.996144812874647"><ele>403.6666666666667</ele><time>2026-04-04T12:28:40Z</time></trkpt><trkpt lat="43.486890803940724" lon="10.996376544115916"><ele>403.0</ele><time>2026-04-04T12:28:41Z</time></trkpt><trkpt lat="43.48691205721421" lon="10.996613982240282"><ele>400.0</ele><time>2026-04-04T12:28:42Z</time></trkpt><trkpt lat="43.486905763979095" lon="10.996865475978325"><ele>397.0</ele><time>2026-04-04T12:28:43Z</time></trkpt><trkpt lat="43.4868777022266" lon="10.997136009396371"><ele>394.0</ele><time>2026-04-04T12:28:44Z</time></trkpt><trkpt lat="43.486843240120336" lon="10.997388884714557"><ele>389.6666666666667</ele><time>2026-04-04T12:28:45Z</time></trkpt><trkpt lat="43.48681372918514" lon="10.99764574561346"><ele>385.33333333333337</ele><time>2026-04-04T12:28:46Z</time></trkpt><trkpt lat="43.486758519057915" lon="10.997883586780448"><ele>381.0</ele><time>2026-04-04T12:28:47Z</time></trkpt><trkpt lat="43.48664925379986" lon="10.998087073407076"><ele>381.0</ele><time>2026-04-04T12:28:48Z</time></trkpt><trkpt lat="43.48653575386749" lon="10.99830489628168"><ele>381.0</ele><time>2026-04-04T12:28:49Z</time></trkpt><trkpt lat="43.48642505767587" lon="10.99854423743246"><ele>381.0</ele><time>2026-04-04T12:28:50Z</time></trkpt><trkpt lat="43.486294677106244" lon="10.998773088799197"><ele>379.6666666666667</ele><time>2026-04-04T12:28:51Z</time></trkpt><trkpt lat="43.48616941613685" lon="10.999011548023569"><ele>378.33333333333337</ele><time>2026-04-04T12:28:52Z</time></trkpt><trkpt lat="43.486048835231" lon="10.999244931945837"><ele>377.0</ele><time>2026-04-04T12:28:53Z</time></trkpt><trkpt lat="43.48592298981489" lon="10.999475172135217"><ele>377.0</ele><time>2026-04-04T12:28:54Z</time></trkpt><trkpt lat="43.48579031356813" lon="10.999711823492563"><ele>377.0</ele><time>2026-04-04T12:28:55Z</time></trkpt><trkpt lat="43.48563345615736" lon="10.999931070624179"><ele>377.0</ele><time>2026-04-04T12:28:56Z</time></trkpt><trkpt lat="43.48548717015758" lon="11.000167511728312"><ele>375.6666666666667</ele><time>2026-04-04T12:28:57Z</time></trkpt><trkpt lat="43.485334415230476" lon="11.000369341567993"><ele>374.3333333333333</ele><time>2026-04-04T12:28:58Z</time></trkpt><trkpt lat="43.485196295775815" lon="11.000565929281299"><ele>373.0</ele><time>2026-04-04T12:28:59Z</time></trkpt><trkpt lat="43.48507353225158" lon="11.000756816569355"><ele>373.66666666666663</ele><time>2026-04-04T12:29:00Z</time></trkpt><trkpt lat="43.484955514169904" lon="11.000952117348838"><ele>374.3333333333333</ele><time>2026-04-04T12:29:01Z</time></trkpt><trkpt lat="43.48485357704448" lon="11.001186502095027"><ele>375.0</ele><time>2026-04-04T12:29:02Z</time></trkpt><trkpt lat="43.484757258171626" lon="11.001445033043899"><ele>376.3333333333333</ele><time>2026-04-04T12:29:03Z</time></trkpt><trkpt lat="43.48465307515723" lon="11.001712865536486"><ele>377.66666666666663</ele><time>2026-04-04T12:29:04Z</time></trkpt><trkpt lat="43.484549093666814" lon="11.001963635245493"><ele>379.0</ele><time>2026-04-04T12:29:05Z</time></trkpt><trkpt lat="43.48445183502078" lon="11.002203952006148"><ele>375.0</ele><time>2026-04-04T12:29:06Z</time></trkpt><trkpt lat="43.484356846643536" lon="11.002443778091857"><ele>371.0</ele><time>2026-04-04T12:29:07Z</time></trkpt><trkpt lat="43.4842584327669" lon="11.002694433915014"><ele>367.0</ele><time>2026-04-04T12:29:08Z</time></trkpt><trkpt lat="43.48415149016288" lon="11.002951666773042"><ele>367.0</ele><time>2026-04-04T12:29:09Z</time></trkpt><trkpt lat="43.48405089325595" lon="11.003195012057871"><ele>367.0</ele><time>2026-04-04T12:29:10Z</time></trkpt><trkpt lat="43.483954374570104" lon="11.003433942414953"><ele>367.0</ele><time>2026-04-04T12:29:11Z</time></trkpt><trkpt lat="43.48386363284461" lon="11.003663460852088"><ele>368.3333333333333</ele><time>2026-04-04T12:29:12Z</time></trkpt><trkpt lat="43.48376785002411" lon="11.00388384250186"><ele>369.6666666666667</ele><time>2026-04-04T12:29:13Z</time></trkpt><trkpt lat="43.48367809442079" lon="11.004106984585324"><ele>371.0</ele><time>2026-04-04T12:29:14Z</time></trkpt><trkpt lat="43.483601394189364" lon="11.004333145089992"><ele>366.6666666666667</ele><time>2026-04-04T12:29:15Z</time></trkpt><trkpt lat="43.483530158528914" lon="11.004583681903645"><ele>362.3333333333333</ele><time>2026-04-04T12:29:16Z</time></trkpt><trkpt lat="43.48346873573579" lon="11.004849146139854"><ele>358.0</ele><time>2026-04-04T12:29:17Z</time></trkpt><trkpt lat="43.483415179448286" lon="11.005141300594763"><ele>358.0</ele><time>2026-04-04T12:29:18Z</time></trkpt><trkpt lat="43.483359125829196" lon="11.00543308299393"><ele>358.0</ele><time>2026-04-04T12:29:19Z</time></trkpt><trkpt lat="43.48330236833424" lon="11.005708050379003"><ele>358.0</ele><time>2026-04-04T12:29:20Z</time></trkpt><trkpt lat="43.48324752319889" lon="11.00596848088527"><ele>358.3333333333333</ele><time>2026-04-04T12:29:21Z</time></trkpt><trkpt lat="43.48320348438089" lon="11.00622884199078"><ele>358.6666666666667</ele><time>2026-04-04T12:29:22Z</time></trkpt><trkpt lat="43.48315319035475" lon="11.006476243805167"><ele>359.0</ele><time>2026-04-04T12:29:23Z</time></trkpt><trkpt lat="43.483099415889654" lon="11.00671759756359"><ele>359.6666666666667</ele><time>2026-04-04T12:29:24Z</time></trkpt><trkpt lat="43.48303824915299" lon="11.006945967822144"><ele>360.3333333333333</ele><time>2026-04-04T12:29:25Z</time></trkpt><trkpt lat="43.4829327244453" lon="11.007146960022277"><ele>361.0</ele><time>2026-04-04T12:29:26Z</time></trkpt><trkpt lat="43.482817728900294" lon="11.007361479735119"><ele>358.3333333333333</ele><time>2026-04-04T12:29:27Z</time></trkpt><trkpt lat="43.48268533958508" lon="11.007566666516611"><ele>355.6666666666667</ele><time>2026-04-04T12:29:28Z</time></trkpt><trkpt lat="43.4825343023689" lon="11.007725737505853"><ele>353.0</ele><time>2026-04-04T12:29:29Z</time></trkpt><trkpt lat="43.482390093257884" lon="11.007875905165116"><ele>353.0</ele><time>2026-04-04T12:29:30Z</time></trkpt><trkpt lat="43.48225472466975" lon="11.008047180180654"><ele>353.0</ele><time>2026-04-04T12:29:31Z</time></trkpt><trkpt lat="43.482133168569035" lon="11.008236845920578"><ele>353.0</ele><time>2026-04-04T12:29:32Z</time></trkpt><trkpt lat="43.482022657431614" lon="11.008446188469208"><ele>351.0</ele><time>2026-04-04T12:29:33Z</time></trkpt><trkpt lat="43.481917604019074" lon="11.008640274715088"><ele>349.0</ele><time>2026-04-04T12:29:34Z</time></trkpt><trkpt lat="43.48181401805714" lon="11.008829481126265"><ele>347.0</ele><time>2026-04-04T12:29:35Z</time></trkpt><trkpt lat="43.48171470933786" lon="11.009006253980798"><ele>349.0</ele><time>2026-04-04T12:29:36Z</time></trkpt><trkpt lat="43.48161669619006" lon="11.00917635138112"><ele>351.0</ele><time>2026-04-04T12:29:37Z</time></trkpt><trkpt lat="43.481522522135386" lon="11.00934800527637"><ele>353.0</ele><time>2026-04-04T12:29:38Z</time></trkpt><trkpt lat="43.48143363668299" lon="11.009546865534523"><ele>353.0</ele><time>2026-04-04T12:29:39Z</time></trkpt><trkpt lat="43.48137336911099" lon="11.009792040430087"><ele>353.0</ele><time>2026-04-04T12:29:40Z</time></trkpt><trkpt lat="43.481304776735094" lon="11.010034492593281"><ele>353.0</ele><time>2026-04-04T12:29:41Z</time></trkpt><trkpt lat="43.481239429857744" lon="11.01028120093537"><ele>349.6666666666667</ele><time>2026-04-04T12:29:42Z</time></trkpt><trkpt lat="43.4811708035255" lon="11.010537588432554"><ele>346.3333333333333</ele><time>2026-04-04T12:29:43Z</time></trkpt><trkpt lat="43.48110379382081" lon="11.010775521256372"><ele>343.0</ele><time>2026-04-04T12:29:44Z</time></trkpt><trkpt lat="43.481039396834774" lon="11.011012101831765"><ele>342.3333333333333</ele><time>2026-04-04T12:29:45Z</time></trkpt><trkpt lat="43.48097710742563" lon="11.011242774769428"><ele>341.6666666666667</ele><time>2026-04-04T12:29:46Z</time></trkpt><trkpt lat="43.48091684609163" lon="11.011469626661965"><ele>341.0</ele><time>2026-04-04T12:29:47Z</time></trkpt><trkpt lat="43.48085828332701" lon="11.011687393108566"><ele>340.25</ele><time>2026-04-04T12:29:48Z</time></trkpt><trkpt lat="43.480804436326" lon="11.011890786673835"><ele>339.5</ele><time>2026-04-04T12:29:49Z</time></trkpt><trkpt lat="43.480750499202564" lon="11.012077291481482"><ele>338.75</ele><time>2026-04-04T12:29:50Z</time></trkpt><trkpt lat="43.48069707508613" lon="11.012264138168746"><ele>338.0</ele><time>2026-04-04T12:29:51Z</time></trkpt><trkpt lat="43.4806444893431" lon="11.012452510982019"><ele>338.5</ele><time>2026-04-04T12:29:52Z</time></trkpt><trkpt lat="43.48059377100198" lon="11.01263938889712"><ele>339.0</ele><time>2026-04-04T12:29:53Z</time></trkpt><trkpt lat="43.48054486271406" lon="11.012824352549329"><ele>339.5</ele><time>2026-04-04T12:29:54Z</time></trkpt><trkpt lat="43.48049412225479" lon="11.01300488854716"><ele>340.0</ele><time>2026-04-04T12:29:55Z</time></trkpt><trkpt lat="43.48045291991229" lon="11.013185259451767"><ele>339.25</ele><time>2026-04-04T12:29:56Z</time></trkpt><trkpt lat="43.48043001320292" lon="11.013371401386507"><ele>338.5</ele><time>2026-04-04T12:29:57Z</time></trkpt><trkpt lat="43.48042305177289" lon="11.013569346151197"><ele>337.75</ele><time>2026-04-04T12:29:58Z</time></trkpt><trkpt lat="43.480431159400204" lon="11.013758394443148"><ele>337.0</ele><time>2026-04-04T12:29:59Z</time></trkpt><trkpt lat="43.48043684237035" lon="11.013925833439956"><ele>337.0</ele><time>2026-04-04T12:30:00Z</time></trkpt><trkpt lat="43.4804404399158" lon="11.0140767371202"><ele>337.0</ele><time>2026-04-04T12:30:01Z</time></trkpt><trkpt lat="43.480444366740706" lon="11.014194820604768"><ele>337.0</ele><time>2026-04-04T12:30:02Z</time></trkpt><trkpt lat="43.48044882141756" lon="11.014285752079354"><ele>337.0</ele><time>2026-04-04T12:30:03Z</time></trkpt><trkpt lat="43.48047823863398" lon="11.014386860090214"><ele>337.0</ele><time>2026-04-04T12:30:05Z</time></trkpt><trkpt lat="43.4805892733946" lon="11.014479325835792"><ele>336.0</ele><time>2026-04-04T12:30:07Z</time></trkpt><trkpt lat="43.48068339648591" lon="11.0145175276381"><ele>335.0</ele><time>2026-04-04T12:30:08Z</time></trkpt><trkpt lat="43.48077271950038" lon="11.014558132103618"><ele>334.0</ele><time>2026-04-04T12:30:09Z</time></trkpt><trkpt lat="43.4808550018587" lon="11.01458476482367"><ele>333.0</ele><time>2026-04-04T12:30:10Z</time></trkpt><trkpt lat="43.4809238503779" lon="11.014586228025138"><ele>332.0</ele><time>2026-04-04T12:30:11Z</time></trkpt><trkpt lat="43.48099390314356" lon="11.014567977829884"><ele>331.0</ele><time>2026-04-04T12:30:12Z</time></trkpt><trkpt lat="43.481056013020066" lon="11.014535977848663"><ele>331.0</ele><time>2026-04-04T12:30:13Z</time></trkpt><trkpt lat="43.48119792297847" lon="11.014456637375181"><ele>331.0</ele><time>2026-04-04T12:30:15Z</time></trkpt><trkpt lat="43.481293736264035" lon="11.014402325148716"><ele>331.0</ele><time>2026-04-04T12:30:16Z</time></trkpt><trkpt lat="43.48140534503505" lon="11.014348912930123"><ele>331.0</ele><time>2026-04-04T12:30:17Z</time></trkpt><trkpt lat="43.48152401169073" lon="11.014288772012824"><ele>330.75</ele><time>2026-04-04T12:30:18Z</time></trkpt><trkpt lat="43.48165092294475" lon="11.01424044483321"><ele>330.5</ele><time>2026-04-04T12:30:19Z</time></trkpt><trkpt lat="43.48176756144723" lon="11.014207095331113"><ele>330.25</ele><time>2026-04-04T12:30:20Z</time></trkpt><trkpt lat="43.481883933224076" lon="11.01415865841204"><ele>330.0</ele><time>2026-04-04T12:30:21Z</time></trkpt><trkpt lat="43.48199719865863" lon="11.014118391281592"><ele>330.25</ele><time>2026-04-04T12:30:22Z</time></trkpt><trkpt lat="43.48210706422707" lon="11.014082753822683"><ele>330.5</ele><time>2026-04-04T12:30:23Z</time></trkpt><trkpt lat="43.48221885883237" lon="11.014042483705058"><ele>330.75</ele><time>2026-04-04T12:30:24Z</time></trkpt><trkpt lat="43.48233526359216" lon="11.013996076743485"><ele>331.0</ele><time>2026-04-04T12:30:25Z</time></trkpt><trkpt lat="43.482457196253584" lon="11.013937683226501"><ele>331.0</ele><time>2026-04-04T12:30:26Z</time></trkpt><trkpt lat="43.482594551419275" lon="11.01388005751075"><ele>331.0</ele><time>2026-04-04T12:30:27Z</time></trkpt><trkpt lat="43.48273251745786" lon="11.013806353280186"><ele>331.0</ele><time>2026-04-04T12:30:28Z</time></trkpt><trkpt lat="43.4828760986204" lon="11.013732287595984"><ele>331.0</ele><time>2026-04-04T12:30:29Z</time></trkpt><trkpt lat="43.4830160175253" lon="11.01366768657611"><ele>329.0</ele><time>2026-04-04T12:30:30Z</time></trkpt><trkpt lat="43.48314798786576" lon="11.013611719112543"><ele>327.0</ele><time>2026-04-04T12:30:31Z</time></trkpt><trkpt lat="43.48328164572966" lon="11.013577911517126"><ele>325.0</ele><time>2026-04-04T12:30:32Z</time></trkpt><trkpt lat="43.48342166024888" lon="11.013554102800626"><ele>323.0</ele><time>2026-04-04T12:30:33Z</time></trkpt><trkpt lat="43.48355697997574" lon="11.013530682078708"><ele>323.0</ele><time>2026-04-04T12:30:34Z</time></trkpt><trkpt lat="43.48369780071579" lon="11.013483093805277"><ele>323.0</ele><time>2026-04-04T12:30:35Z</time></trkpt><trkpt lat="43.483831579209195" lon="11.013462826582872"><ele>323.0</ele><time>2026-04-04T12:30:36Z</time></trkpt><trkpt lat="43.48395978596098" lon="11.013442109393155"><ele>323.0</ele><time>2026-04-04T12:30:37Z</time></trkpt><trkpt lat="43.48407676717515" lon="11.01342383367801"><ele>322.0</ele><time>2026-04-04T12:30:38Z</time></trkpt><trkpt lat="43.48419445476319" lon="11.013395749362497"><ele>321.0</ele><time>2026-04-04T12:30:39Z</time></trkpt><trkpt lat="43.484304644705226" lon="11.013366052207624"><ele>320.0</ele><time>2026-04-04T12:30:40Z</time></trkpt><trkpt lat="43.484398257077" lon="11.013328668860785"><ele>319.0</ele><time>2026-04-04T12:30:41Z</time></trkpt><trkpt lat="43.484491388124965" lon="11.013269224100119"><ele>318.0</ele><time>2026-04-04T12:30:42Z</time></trkpt><trkpt lat="43.48458936357037" lon="11.013205780004277"><ele>316.5</ele><time>2026-04-04T12:30:43Z</time></trkpt><trkpt lat="43.484691170334195" lon="11.013119761357608"><ele>315.0</ele><time>2026-04-04T12:30:44Z</time></trkpt><trkpt lat="43.48481463830305" lon="11.013000920565608"><ele>313.5</ele><time>2026-04-04T12:30:45Z</time></trkpt><trkpt lat="43.48493966161166" lon="11.012881032163133"><ele>312.0</ele><time>2026-04-04T12:30:46Z</time></trkpt><trkpt lat="43.48506357318801" lon="11.012751506547739"><ele>312.0</ele><time>2026-04-04T12:30:47Z</time></trkpt><trkpt lat="43.48518285169627" lon="11.012622336355044"><ele>312.0</ele><time>2026-04-04T12:30:48Z</time></trkpt><trkpt lat="43.48529968605111" lon="11.01250695795887"><ele>312.0</ele><time>2026-04-04T12:30:49Z</time></trkpt><trkpt lat="43.48540373649086" lon="11.012391584339252"><ele>312.0</ele><time>2026-04-04T12:30:50Z</time></trkpt><trkpt lat="43.48549537929019" lon="11.012298201954053"><ele>311.25</ele><time>2026-04-04T12:30:51Z</time></trkpt><trkpt lat="43.48557994435851" lon="11.01217603848656"><ele>310.5</ele><time>2026-04-04T12:30:52Z</time></trkpt><trkpt lat="43.48565935024391" lon="11.01205742296865"><ele>309.75</ele><time>2026-04-04T12:30:53Z</time></trkpt><trkpt lat="43.485747815919915" lon="11.011960311483659"><ele>309.0</ele><time>2026-04-04T12:30:54Z</time></trkpt><trkpt lat="43.4858544567297" lon="11.011880991879305"><ele>309.0</ele><time>2026-04-04T12:30:55Z</time></trkpt><trkpt lat="43.48598136800242" lon="11.011811267363598"><ele>309.0</ele><time>2026-04-04T12:30:56Z</time></trkpt><trkpt lat="43.48611078614539" lon="11.011737884371039"><ele>309.0</ele><time>2026-04-04T12:30:57Z</time></trkpt><trkpt lat="43.48622791859676" lon="11.011679047240566"><ele>309.0</ele><time>2026-04-04T12:30:58Z</time></trkpt><trkpt lat="43.48632929660935" lon="11.011614072008491"><ele>311.2</ele><time>2026-04-04T12:30:59Z</time></trkpt><trkpt lat="43.48642565153522" lon="11.011568337588749"><ele>313.4</ele><time>2026-04-04T12:31:00Z</time></trkpt><trkpt lat="43.48652312383289" lon="11.011519264883574"><ele>315.6</ele><time>2026-04-04T12:31:01Z</time></trkpt><trkpt lat="43.48663365102356" lon="11.011463044771654"><ele>317.8</ele><time>2026-04-04T12:31:02Z</time></trkpt><trkpt lat="43.486746812412036" lon="11.011397625972656"><ele>320.0</ele><time>2026-04-04T12:31:03Z</time></trkpt><trkpt lat="43.48686503348538" lon="11.011323589667656"><ele>320.0</ele><time>2026-04-04T12:31:04Z</time></trkpt><trkpt lat="43.48698349109471" lon="11.011242229402962"><ele>320.0</ele><time>2026-04-04T12:31:05Z</time></trkpt><trkpt lat="43.48708974557688" lon="11.011168492404405"><ele>320.0</ele><time>2026-04-04T12:31:06Z</time></trkpt><trkpt lat="43.487176631103424" lon="11.011107055711793"><ele>320.0</ele><time>2026-04-04T12:31:07Z</time></trkpt><trkpt lat="43.487256908275725" lon="11.011061492651615"><ele>320.0</ele><time>2026-04-04T12:31:08Z</time></trkpt><trkpt lat="43.487332366897725" lon="11.010978990738836"><ele>319.4</ele><time>2026-04-04T12:31:09Z</time></trkpt><trkpt lat="43.48740424219983" lon="11.010886734926965"><ele>318.8</ele><time>2026-04-04T12:31:10Z</time></trkpt><trkpt lat="43.487477724409196" lon="11.010780067559761"><ele>318.2</ele><time>2026-04-04T12:31:11Z</time></trkpt><trkpt lat="43.48754753631855" lon="11.01066330913921"><ele>317.6</ele><time>2026-04-04T12:31:12Z</time></trkpt><trkpt lat="43.48762158538343" lon="11.010585097331363"><ele>317.0</ele><time>2026-04-04T12:31:13Z</time></trkpt><trkpt lat="43.48767487928376" lon="11.01052412146535"><ele>317.8</ele><time>2026-04-04T12:31:14Z</time></trkpt><trkpt lat="43.48774935341874" lon="11.010482145765877"><ele>318.6</ele><time>2026-04-04T12:31:15Z</time></trkpt><trkpt lat="43.48784670543798" lon="11.010462518957235"><ele>319.40000000000003</ele><time>2026-04-04T12:31:16Z</time></trkpt><trkpt lat="43.48796188531801" lon="11.010438947536205"><ele>320.2</ele><time>2026-04-04T12:31:17Z</time></trkpt><trkpt lat="43.488071734299496" lon="11.01041202192195"><ele>321.0</ele><time>2026-04-04T12:31:18Z</time></trkpt><trkpt lat="43.48817993575496" lon="11.010396248741003"><ele>321.0</ele><time>2026-04-04T12:31:19Z</time></trkpt><trkpt lat="43.48828331313843" lon="11.01038604899754"><ele>321.0</ele><time>2026-04-04T12:31:20Z</time></trkpt><trkpt lat="43.488378712243616" lon="11.01037300371446"><ele>321.0</ele><time>2026-04-04T12:31:21Z</time></trkpt><trkpt lat="43.48846959049932" lon="11.010348095096669"><ele>321.0</ele><time>2026-04-04T12:31:22Z</time></trkpt><trkpt lat="43.48857138622575" lon="11.01031371143606"><ele>321.0</ele><time>2026-04-04T12:31:23Z</time></trkpt><trkpt lat="43.48869250158686" lon="11.010264375600393"><ele>319.25</ele><time>2026-04-04T12:31:24Z</time></trkpt><trkpt lat="43.48882882665929" lon="11.010208454069469"><ele>317.5</ele><time>2026-04-04T12:31:25Z</time></trkpt><trkpt lat="43.48897648790091" lon="11.010171658840143"><ele>315.75</ele><time>2026-04-04T12:31:26Z</time></trkpt><trkpt lat="43.48910224730117" lon="11.010078362626064"><ele>314.0</ele><time>2026-04-04T12:31:27Z</time></trkpt><trkpt lat="43.48921288236434" lon="11.009996078192884"><ele>314.2</ele><time>2026-04-04T12:31:28Z</time></trkpt><trkpt lat="43.48931212429664" lon="11.009910721694363"><ele>314.4</ele><time>2026-04-04T12:31:29Z</time></trkpt><trkpt lat="43.48939646694867" lon="11.00983619750876"><ele>314.6</ele><time>2026-04-04T12:31:30Z</time></trkpt><trkpt lat="43.489466774289134" lon="11.00980288462391"><ele>314.8</ele><time>2026-04-04T12:31:31Z</time></trkpt><trkpt lat="43.489567649721536" lon="11.009719338833056"><ele>315.0</ele><time>2026-04-04T12:31:33Z</time></trkpt><trkpt lat="43.48964006304606" lon="11.009715084381085"><ele>315.0</ele><time>2026-04-04T12:31:35Z</time></trkpt><trkpt lat="43.4897220459261" lon="11.009903319109405"><ele>315.0</ele><time>2026-04-04T12:31:36Z</time></trkpt><trkpt lat="43.48980723185474" lon="11.009980542285922"><ele>315.0</ele><time>2026-04-04T12:31:37Z</time></trkpt><trkpt lat="43.48988467660485" lon="11.010070672537474"><ele>315.0</ele><time>2026-04-04T12:31:38Z</time></trkpt><trkpt lat="43.48997211819081" lon="11.01015550439961"><ele>313.5</ele><time>2026-04-04T12:31:39Z</time></trkpt><trkpt lat="43.49006992322441" lon="11.010251402248517"><ele>312.0</ele><time>2026-04-04T12:31:40Z</time></trkpt><trkpt lat="43.490162746548116" lon="11.010351794727672"><ele>310.5</ele><time>2026-04-04T12:31:41Z</time></trkpt><trkpt lat="43.490253730279406" lon="11.010449284152175"><ele>309.0</ele><time>2026-04-04T12:31:42Z</time></trkpt><trkpt lat="43.49033855466983" lon="11.010563349696941"><ele>307.4</ele><time>2026-04-04T12:31:43Z</time></trkpt><trkpt lat="43.490430106706974" lon="11.01066120653401"><ele>305.79999999999995</ele><time>2026-04-04T12:31:44Z</time></trkpt><trkpt lat="43.49052436911286" lon="11.010737114702334"><ele>304.20000000000005</ele><time>2026-04-04T12:31:45Z</time></trkpt><trkpt lat="43.49061239769132" lon="11.01083245958041"><ele>302.6</ele><time>2026-04-04T12:31:46Z</time></trkpt><trkpt lat="43.49070108003896" lon="11.01092704622057"><ele>301.0</ele><time>2026-04-04T12:31:47Z</time></trkpt><trkpt lat="43.490786974764305" lon="11.011019111371283"><ele>299.8</ele><time>2026-04-04T12:31:48Z</time></trkpt><trkpt lat="43.49086979036898" lon="11.01111123087133"><ele>298.6</ele><time>2026-04-04T12:31:49Z</time></trkpt><trkpt lat="43.490953379069815" lon="11.01119646183541"><ele>297.4</ele><time>2026-04-04T12:31:50Z</time></trkpt><trkpt lat="43.49103237651741" lon="11.011282504316828"><ele>296.2</ele><time>2026-04-04T12:31:51Z</time></trkpt><trkpt lat="43.49110295560595" lon="11.011374211808208"><ele>295.0</ele><time>2026-04-04T12:31:52Z</time></trkpt><trkpt lat="43.49116780977042" lon="11.0114771626286"><ele>295.0</ele><time>2026-04-04T12:31:53Z</time></trkpt><trkpt lat="43.49121804456552" lon="11.01159640478591"><ele>295.0</ele><time>2026-04-04T12:31:54Z</time></trkpt><trkpt lat="43.491255068780426" lon="11.011733385339596"><ele>295.0</ele><time>2026-04-04T12:31:55Z</time></trkpt><trkpt lat="43.49128935414399" lon="11.011879240926442"><ele>295.0</ele><time>2026-04-04T12:31:56Z</time></trkpt><trkpt lat="43.49131606937528" lon="11.012023245953245"><ele>295.0</ele><time>2026-04-04T12:31:57Z</time></trkpt><trkpt lat="43.49134527045807" lon="11.0121661934406"><ele>292.6</ele><time>2026-04-04T12:31:58Z</time></trkpt><trkpt lat="43.491369823318166" lon="11.012310699006866"><ele>290.2</ele><time>2026-04-04T12:31:59Z</time></trkpt><trkpt lat="43.49138771739265" lon="11.012462019077867"><ele>287.8</ele><time>2026-04-04T12:32:00Z</time></trkpt><trkpt lat="43.49138196052228" lon="11.01261048084744"><ele>285.4</ele><time>2026-04-04T12:32:01Z</time></trkpt><trkpt lat="43.49138338438579" lon="11.01275901398118"><ele>283.0</ele><time>2026-04-04T12:32:02Z</time></trkpt><trkpt lat="43.491396910571815" lon="11.012906800181746"><ele>282.8</ele><time>2026-04-04T12:32:03Z</time></trkpt><trkpt lat="43.49138235347896" lon="11.013058458778534"><ele>282.6</ele><time>2026-04-04T12:32:04Z</time></trkpt><trkpt lat="43.491378114053745" lon="11.01320499965427"><ele>282.4</ele><time>2026-04-04T12:32:05Z</time></trkpt><trkpt lat="43.491363432138755" lon="11.013352272320953"><ele>282.2</ele><time>2026-04-04T12:32:06Z</time></trkpt><trkpt lat="43.49134289973637" lon="11.013491418555454"><ele>282.0</ele><time>2026-04-04T12:32:07Z</time></trkpt><trkpt lat="43.49131862511039" lon="11.013630961182605"><ele>281.25</ele><time>2026-04-04T12:32:08Z</time></trkpt><trkpt lat="43.49125715082632" lon="11.013756553587447"><ele>280.5</ele><time>2026-04-04T12:32:09Z</time></trkpt><trkpt lat="43.49120395204759" lon="11.01390316248036"><ele>279.75</ele><time>2026-04-04T12:32:10Z</time></trkpt><trkpt lat="43.49115001634725" lon="11.014051802301518"><ele>279.0</ele><time>2026-04-04T12:32:11Z</time></trkpt><trkpt lat="43.49109568912899" lon="11.01420152104102"><ele>277.2</ele><time>2026-04-04T12:32:12Z</time></trkpt><trkpt lat="43.491048599124895" lon="11.01433460191973"><ele>275.4</ele><time>2026-04-04T12:32:13Z</time></trkpt><trkpt lat="43.49101693484596" lon="11.014460024428066"><ele>273.6</ele><time>2026-04-04T12:32:14Z</time></trkpt><trkpt lat="43.49096546563007" lon="11.01455727966796"><ele>271.8</ele><time>2026-04-04T12:32:15Z</time></trkpt><trkpt lat="43.49093764490525" lon="11.014650625371976"><ele>270.0</ele><time>2026-04-04T12:32:16Z</time></trkpt><trkpt lat="43.490843793005226" lon="11.014745070438714"><ele>270.0</ele><time>2026-04-04T12:32:18Z</time></trkpt><trkpt lat="43.49077746733593" lon="11.014818407941712"><ele>270.0</ele><time>2026-04-04T12:32:21Z</time></trkpt><trkpt lat="43.490712473165985" lon="11.014890345157243"><ele>270.0</ele><time>2026-04-04T12:32:23Z</time></trkpt><trkpt lat="43.49075020813537" lon="11.015068650974058"><ele>270.0</ele><time>2026-04-04T12:32:24Z</time></trkpt><trkpt lat="43.490764622021985" lon="11.015222951682174"><ele>270.0</ele><time>2026-04-04T12:32:25Z</time></trkpt><trkpt lat="43.49076080008999" lon="11.015394519647735"><ele>269.0</ele><time>2026-04-04T12:32:26Z</time></trkpt><trkpt lat="43.49070844908103" lon="11.015564358604752"><ele>268.0</ele><time>2026-04-04T12:32:27Z</time></trkpt><trkpt lat="43.490651241592744" lon="11.015751754458366"><ele>267.0</ele><time>2026-04-04T12:32:28Z</time></trkpt><trkpt lat="43.49060027461619" lon="11.01593344025043"><ele>266.0</ele><time>2026-04-04T12:32:29Z</time></trkpt><trkpt lat="43.49053294647309" lon="11.01610041774501"><ele>265.75</ele><time>2026-04-04T12:32:30Z</time></trkpt><trkpt lat="43.49046255417557" lon="11.016260851605738"><ele>265.5</ele><time>2026-04-04T12:32:31Z</time></trkpt><trkpt lat="43.490398209447584" lon="11.016426172537422"><ele>265.25</ele><time>2026-04-04T12:32:32Z</time></trkpt><trkpt lat="43.490333883174564" lon="11.016587004388931"><ele>265.0</ele><time>2026-04-04T12:32:33Z</time></trkpt><trkpt lat="43.49027233734617" lon="11.016734759812351"><ele>262.2</ele><time>2026-04-04T12:32:34Z</time></trkpt><trkpt lat="43.4902246617144" lon="11.0168658910917"><ele>259.4</ele><time>2026-04-04T12:32:35Z</time></trkpt><trkpt lat="43.49017994758763" lon="11.016986441766107"><ele>256.6</ele><time>2026-04-04T12:32:36Z</time></trkpt><trkpt lat="43.490139167074524" lon="11.017101320382602"><ele>253.8</ele><time>2026-04-04T12:32:37Z</time></trkpt><trkpt lat="43.490118537469584" lon="11.01723123079893"><ele>251.0</ele><time>2026-04-04T12:32:38Z</time></trkpt><trkpt lat="43.490127861084325" lon="11.017374614548904"><ele>250.25</ele><time>2026-04-04T12:32:39Z</time></trkpt><trkpt lat="43.49017526166849" lon="11.017507725925453"><ele>249.5</ele><time>2026-04-04T12:32:40Z</time></trkpt><trkpt lat="43.49026217969915" lon="11.017611627769964"><ele>248.75</ele><time>2026-04-04T12:32:41Z</time></trkpt><trkpt lat="43.49036660506096" lon="11.017670066455771"><ele>248.0</ele><time>2026-04-04T12:32:42Z</time></trkpt><trkpt lat="43.49048804716923" lon="11.017662821434602"><ele>250.25</ele><time>2026-04-04T12:32:43Z</time></trkpt><trkpt lat="43.49061701004321" lon="11.017612286696135"><ele>252.5</ele><time>2026-04-04T12:32:44Z</time></trkpt><trkpt lat="43.49075043488963" lon="11.017533791996511"><ele>254.75</ele><time>2026-04-04T12:32:45Z</time></trkpt><trkpt lat="43.490885575839094" lon="11.01749856433658"><ele>257.0</ele><time>2026-04-04T12:32:46Z</time></trkpt><trkpt lat="43.49100023434946" lon="11.017432085741103"><ele>257.0</ele><time>2026-04-04T12:32:47Z</time></trkpt><trkpt lat="43.491111731162896" lon="11.017416176159145"><ele>257.0</ele><time>2026-04-04T12:32:48Z</time></trkpt><trkpt lat="43.49121512283215" lon="11.017384338349707"><ele>257.0</ele><time>2026-04-04T12:32:49Z</time></trkpt><trkpt lat="43.49131395430769" lon="11.017405508590539"><ele>257.0</ele><time>2026-04-04T12:32:50Z</time></trkpt><trkpt lat="43.49140311174778" lon="11.017470643601492"><ele>257.0</ele><time>2026-04-04T12:32:51Z</time></trkpt><trkpt lat="43.49145991313217" lon="11.017574230257187"><ele>257.0</ele><time>2026-04-04T12:32:52Z</time></trkpt><trkpt lat="43.491514899900636" lon="11.017680422092225"><ele>257.0</ele><time>2026-04-04T12:32:53Z</time></trkpt><trkpt lat="43.4915337876462" lon="11.017846462170972"><ele>257.0</ele><time>2026-04-04T12:32:54Z</time></trkpt><trkpt lat="43.49153127197574" lon="11.018019887760587"><ele>257.0</ele><time>2026-04-04T12:32:55Z</time></trkpt><trkpt lat="43.49147792497397" lon="11.018173337821345"><ele>256.5</ele><time>2026-04-04T12:32:56Z</time></trkpt><trkpt lat="43.49139058445896" lon="11.018326248661051"><ele>256.0</ele><time>2026-04-04T12:32:57Z</time></trkpt><trkpt lat="43.491288385826515" lon="11.018487777095315"><ele>255.5</ele><time>2026-04-04T12:32:58Z</time></trkpt><trkpt lat="43.49120376137838" lon="11.018638987536901"><ele>255.0</ele><time>2026-04-04T12:32:59Z</time></trkpt><trkpt lat="43.49113519486971" lon="11.018773906197946"><ele>252.4</ele><time>2026-04-04T12:33:00Z</time></trkpt><trkpt lat="43.49107377260253" lon="11.018883966726031"><ele>249.8</ele><time>2026-04-04T12:33:01Z</time></trkpt><trkpt lat="43.49102007172365" lon="11.018990886767183"><ele>247.2</ele><time>2026-04-04T12:33:02Z</time></trkpt><trkpt lat="43.490991952226466" lon="11.01911601894523"><ele>244.6</ele><time>2026-04-04T12:33:03Z</time></trkpt><trkpt lat="43.4909952855518" lon="11.019274997754454"><ele>242.0</ele><time>2026-04-04T12:33:04Z</time></trkpt><trkpt lat="43.49102821771107" lon="11.01947972268131"><ele>240.75</ele><time>2026-04-04T12:33:05.001Z</time></trkpt><trkpt lat="43.4910652365726" lon="11.019689977159741"><ele>239.5</ele><time>2026-04-04T12:33:06.001Z</time></trkpt><trkpt lat="43.49108522465042" lon="11.019888430733719"><ele>238.25</ele><time>2026-04-04T12:33:07.001Z</time></trkpt><trkpt lat="43.49110627716434" lon="11.020077028593937"><ele>237.0</ele><time>2026-04-04T12:33:08.001Z</time></trkpt><trkpt lat="43.49112792643422" lon="11.020263046317012"><ele>236.0</ele><time>2026-04-04T12:33:09.001Z</time></trkpt><trkpt lat="43.49114557052106" lon="11.020434703674903"><ele>235.0</ele><time>2026-04-04T12:33:10.001Z</time></trkpt><trkpt lat="43.491158814208454" lon="11.020604905471133"><ele>234.0</ele><time>2026-04-04T12:33:11.001Z</time></trkpt><trkpt lat="43.491180756092106" lon="11.020781629526033"><ele>233.0</ele><time>2026-04-04T12:33:12.001Z</time></trkpt><trkpt lat="43.49121218167314" lon="11.02097359912255"><ele>232.25</ele><time>2026-04-04T12:33:13.001Z</time></trkpt><trkpt lat="43.49125198900116" lon="11.021149889278224"><ele>231.5</ele><time>2026-04-04T12:33:14.001Z</time></trkpt><trkpt lat="43.49129170199268" lon="11.021324565019615"><ele>230.75</ele><time>2026-04-04T12:33:15.001Z</time></trkpt><trkpt lat="43.49132919595151" lon="11.021476349974781"><ele>230.0</ele><time>2026-04-04T12:33:16.001Z</time></trkpt><trkpt lat="43.49136982981485" lon="11.021615822351237"><ele>231.6</ele><time>2026-04-04T12:33:17.001Z</time></trkpt><trkpt lat="43.49141751507984" lon="11.02173644749124"><ele>233.2</ele><time>2026-04-04T12:33:18.001Z</time></trkpt><trkpt lat="43.49149057214516" lon="11.02183394733315"><ele>234.8</ele><time>2026-04-04T12:33:19.001Z</time></trkpt><trkpt lat="43.49157632973495" lon="11.021890891952127"><ele>236.4</ele><time>2026-04-04T12:33:20.001Z</time></trkpt><trkpt lat="43.49168521149031" lon="11.021918304301902"><ele>238.0</ele><time>2026-04-04T12:33:21.001Z</time></trkpt><trkpt lat="43.491791473275505" lon="11.021906386991935"><ele>238.0</ele><time>2026-04-04T12:33:22.001Z</time></trkpt><trkpt lat="43.49190056048622" lon="11.021836015721776"><ele>238.0</ele><time>2026-04-04T12:33:23.001Z</time></trkpt><trkpt lat="43.49199567969317" lon="11.021729861882196"><ele>238.0</ele><time>2026-04-04T12:33:24.001Z</time></trkpt><trkpt lat="43.49209223796449" lon="11.021635725347046"><ele>238.0</ele><time>2026-04-04T12:33:25Z</time></trkpt><trkpt lat="43.49216939418562" lon="11.021549813725455"><ele>239.4</ele><time>2026-04-04T12:33:26Z</time></trkpt><trkpt lat="43.49224600741053" lon="11.021489561112855"><ele>240.8</ele><time>2026-04-04T12:33:27Z</time></trkpt><trkpt lat="43.49233406874489" lon="11.021461387576784"><ele>242.2</ele><time>2026-04-04T12:33:28Z</time></trkpt><trkpt lat="43.49242954802907" lon="11.02145587839461"><ele>243.6</ele><time>2026-04-04T12:33:29Z</time></trkpt><trkpt lat="43.49251972887541" lon="11.021516839222127"><ele>245.0</ele><time>2026-04-04T12:33:30Z</time></trkpt><trkpt lat="43.492583770853734" lon="11.021607290221585"><ele>242.5</ele><time>2026-04-04T12:33:31Z</time></trkpt><trkpt lat="43.492632297354625" lon="11.02172667866576"><ele>240.0</ele><time>2026-04-04T12:33:32Z</time></trkpt><trkpt lat="43.49266495126879" lon="11.021886706447642"><ele>237.5</ele><time>2026-04-04T12:33:33Z</time></trkpt><trkpt lat="43.49266470756962" lon="11.02207801250936"><ele>235.0</ele><time>2026-04-04T12:33:34Z</time></trkpt><trkpt lat="43.492666126031665" lon="11.022260912851298"><ele>235.0</ele><time>2026-04-04T12:33:35Z</time></trkpt><trkpt lat="43.49268413436832" lon="11.02242785096396"><ele>235.0</ele><time>2026-04-04T12:33:36Z</time></trkpt><trkpt lat="43.49273554660463" lon="11.022573283373495"><ele>235.0</ele><time>2026-04-04T12:33:37Z</time></trkpt><trkpt lat="43.492812812422706" lon="11.022702888010889"><ele>235.0</ele><time>2026-04-04T12:33:38Z</time></trkpt><trkpt lat="43.49287238426189" lon="11.02279997766951"><ele>234.25</ele><time>2026-04-04T12:33:39Z</time></trkpt><trkpt lat="43.49299796747024" lon="11.022840470035597"><ele>233.5</ele><time>2026-04-04T12:33:40Z</time></trkpt><trkpt lat="43.49314148660274" lon="11.022807819516352"><ele>232.75</ele><time>2026-04-04T12:33:41Z</time></trkpt><trkpt lat="43.493259655927986" lon="11.022775175566501"><ele>232.0</ele><time>2026-04-04T12:33:42Z</time></trkpt><trkpt lat="43.49336256445464" lon="11.022856820131235"><ele>232.0</ele><time>2026-04-04T12:33:43Z</time></trkpt><trkpt lat="43.49342885469147" lon="11.022974635416444"><ele>232.0</ele><time>2026-04-04T12:33:44Z</time></trkpt><trkpt lat="43.49351512884511" lon="11.023081956172398"><ele>232.0</ele><time>2026-04-04T12:33:45Z</time></trkpt><trkpt lat="43.49347049487813" lon="11.023259532961475"><ele>232.0</ele><time>2026-04-04T12:33:46Z</time></trkpt><trkpt lat="43.493427490377435" lon="11.023406546000725"><ele>230.25</ele><time>2026-04-04T12:33:47Z</time></trkpt><trkpt lat="43.49334925319854" lon="11.02353736676494"><ele>228.5</ele><time>2026-04-04T12:33:48Z</time></trkpt><trkpt lat="43.49328006439235" lon="11.02369140162434"><ele>226.75</ele><time>2026-04-04T12:33:49Z</time></trkpt><trkpt lat="43.49320583188642" lon="11.023810339519898"><ele>225.0</ele><time>2026-04-04T12:33:50Z</time></trkpt><trkpt lat="43.49318214645279" lon="11.023920311844341"><ele>225.0</ele><time>2026-04-04T12:33:51Z</time></trkpt><trkpt lat="43.49319414307048" lon="11.024045760480602"><ele>225.0</ele><time>2026-04-04T12:33:52Z</time></trkpt><trkpt lat="43.49325529034409" lon="11.024169689126982"><ele>225.0</ele><time>2026-04-04T12:33:53Z</time></trkpt><trkpt lat="43.49335606260111" lon="11.024251689179524"><ele>225.0</ele><time>2026-04-04T12:33:54Z</time></trkpt><trkpt lat="43.493473941199134" lon="11.024278775807408"><ele>225.0</ele><time>2026-04-04T12:33:55Z</time></trkpt><trkpt lat="43.493606205868645" lon="11.024231311687668"><ele>225.0</ele><time>2026-04-04T12:33:56Z</time></trkpt><trkpt lat="43.49373703635324" lon="11.02414290122651"><ele>225.0</ele><time>2026-04-04T12:33:57Z</time></trkpt><trkpt lat="43.493862661078104" lon="11.024043078745734"><ele>225.0</ele><time>2026-04-04T12:33:58Z</time></trkpt><trkpt lat="43.49398020299331" lon="11.023984665893996"><ele>225.0</ele><time>2026-04-04T12:33:59Z</time></trkpt><trkpt lat="43.49409268466739" lon="11.02393720711789"><ele>225.0</ele><time>2026-04-04T12:34:00Z</time></trkpt><trkpt lat="43.49420437480947" lon="11.023954818298334"><ele>225.0</ele><time>2026-04-04T12:34:01Z</time></trkpt><trkpt lat="43.49432958580282" lon="11.02400799505418"><ele>225.0</ele><time>2026-04-04T12:34:02Z</time></trkpt><trkpt lat="43.494432851256725" lon="11.024123361811201"><ele>225.0</ele><time>2026-04-04T12:34:03Z</time></trkpt><trkpt lat="43.49450264915829" lon="11.024285428891897"><ele>224.0</ele><time>2026-04-04T12:34:04Z</time></trkpt><trkpt lat="43.49457671068454" lon="11.02446853374429"><ele>223.0</ele><time>2026-04-04T12:34:05Z</time></trkpt><trkpt lat="43.49466565377502" lon="11.024648196902517"><ele>222.0</ele><time>2026-04-04T12:34:06Z</time></trkpt><trkpt lat="43.494737525962535" lon="11.024823829258686"><ele>220.25</ele><time>2026-04-04T12:34:07Z</time></trkpt><trkpt lat="43.49478967448863" lon="11.02499783737559"><ele>218.5</ele><time>2026-04-04T12:34:08Z</time></trkpt><trkpt lat="43.49485781544929" lon="11.025136024185956"><ele>216.75</ele><time>2026-04-04T12:34:09Z</time></trkpt><trkpt lat="43.49491489179428" lon="11.025278134238773"><ele>215.0</ele><time>2026-04-04T12:34:10Z</time></trkpt><trkpt lat="43.49497294503726" lon="11.025394006279676"><ele>215.0</ele><time>2026-04-04T12:34:11Z</time></trkpt><trkpt lat="43.49505362073706" lon="11.025498488523807"><ele>215.0</ele><time>2026-04-04T12:34:12Z</time></trkpt><trkpt lat="43.49514616190069" lon="11.025576418964048"><ele>215.0</ele><time>2026-04-04T12:34:13Z</time></trkpt><trkpt lat="43.49525064446499" lon="11.025631255601937"><ele>215.0</ele><time>2026-04-04T12:34:14Z</time></trkpt><trkpt lat="43.49536141599647" lon="11.025667752210516"><ele>215.0</ele><time>2026-04-04T12:34:15Z</time></trkpt><trkpt lat="43.49546872436922" lon="11.02567849912311"><ele>213.5</ele><time>2026-04-04T12:34:16Z</time></trkpt><trkpt lat="43.49557385167816" lon="11.02567168678062"><ele>212.0</ele><time>2026-04-04T12:34:17Z</time></trkpt><trkpt lat="43.495676625579755" lon="11.025628859816912"><ele>210.5</ele><time>2026-04-04T12:34:18Z</time></trkpt><trkpt lat="43.49577016108758" lon="11.025542204802328"><ele>209.0</ele><time>2026-04-04T12:34:19Z</time></trkpt><trkpt lat="43.49585331590913" lon="11.025399708640263"><ele>209.0</ele><time>2026-04-04T12:34:20Z</time></trkpt><trkpt lat="43.49591569541319" lon="11.025226782049737"><ele>209.0</ele><time>2026-04-04T12:34:21Z</time></trkpt><trkpt lat="43.49596037478965" lon="11.025058196776028"><ele>209.0</ele><time>2026-04-04T12:34:22Z</time></trkpt><trkpt lat="43.49602833576587" lon="11.024922118615411"><ele>209.0</ele><time>2026-04-04T12:34:23Z</time></trkpt><trkpt lat="43.49608790775556" lon="11.024800664542543"><ele>208.75</ele><time>2026-04-04T12:34:24Z</time></trkpt><trkpt lat="43.496163261498296" lon="11.024715745134348"><ele>208.5</ele><time>2026-04-04T12:34:25Z</time></trkpt><trkpt lat="43.49626073326256" lon="11.024675617396989"><ele>208.25</ele><time>2026-04-04T12:34:26Z</time></trkpt><trkpt lat="43.4963547394909" lon="11.024563450628225"><ele>208.0</ele><time>2026-04-04T12:34:27Z</time></trkpt><trkpt lat="43.49648059813823" lon="11.024712699655193"><ele>208.0</ele><time>2026-04-04T12:34:28Z</time></trkpt><trkpt lat="43.4966122123298" lon="11.024823072983617"><ele>208.0</ele><time>2026-04-04T12:34:29Z</time></trkpt><trkpt lat="43.49674614094872" lon="11.024942797243448"><ele>208.0</ele><time>2026-04-04T12:34:30Z</time></trkpt><trkpt lat="43.496871702344066" lon="11.025036721372286"><ele>206.5</ele><time>2026-04-04T12:34:31Z</time></trkpt><trkpt lat="43.496994814634945" lon="11.02511999950288"><ele>205.0</ele><time>2026-04-04T12:34:32Z</time></trkpt><trkpt lat="43.49711987230663" lon="11.025186457440254"><ele>203.5</ele><time>2026-04-04T12:34:33Z</time></trkpt><trkpt lat="43.49725327403356" lon="11.025220761511788"><ele>202.0</ele><time>2026-04-04T12:34:34Z</time></trkpt><trkpt lat="43.49740452138403" lon="11.025221252140948"><ele>201.0</ele><time>2026-04-04T12:34:35Z</time></trkpt><trkpt lat="43.49754954649928" lon="11.025172861896182"><ele>200.0</ele><time>2026-04-04T12:34:36Z</time></trkpt><trkpt lat="43.497692776665545" lon="11.0250913527279"><ele>199.0</ele><time>2026-04-04T12:34:37Z</time></trkpt><trkpt lat="43.49783330948279" lon="11.02502600296857"><ele>199.25</ele><time>2026-04-04T12:34:38Z</time></trkpt><trkpt lat="43.497972430754935" lon="11.024976350512562"><ele>199.5</ele><time>2026-04-04T12:34:39Z</time></trkpt><trkpt lat="43.49811997268175" lon="11.024941936194045"><ele>199.75</ele><time>2026-04-04T12:34:40Z</time></trkpt><trkpt lat="43.498263600594235" lon="11.024930711467366"><ele>200.0</ele><time>2026-04-04T12:34:41Z</time></trkpt><trkpt lat="43.498410266265424" lon="11.024936879061494"><ele>200.0</ele><time>2026-04-04T12:34:42Z</time></trkpt><trkpt lat="43.49854859715823" lon="11.024964280719981"><ele>200.0</ele><time>2026-04-04T12:34:43Z</time></trkpt><trkpt lat="43.498684651014955" lon="11.024998697168465"><ele>200.0</ele><time>2026-04-04T12:34:44Z</time></trkpt><trkpt lat="43.498821546968756" lon="11.025020483791163"><ele>200.0</ele><time>2026-04-04T12:34:45Z</time></trkpt><trkpt lat="43.498953701216706" lon="11.025022709276193"><ele>198.5</ele><time>2026-04-04T12:34:46Z</time></trkpt><trkpt lat="43.499078259090034" lon="11.024989887451408"><ele>197.0</ele><time>2026-04-04T12:34:47Z</time></trkpt><trkpt lat="43.499195620788605" lon="11.024917316324922"><ele>195.5</ele><time>2026-04-04T12:34:48Z</time></trkpt><trkpt lat="43.49930230659265" lon="11.024797046593584"><ele>194.0</ele><time>2026-04-04T12:34:49Z</time></trkpt><trkpt lat="43.49937645481053" lon="11.024642318968414"><ele>194.0</ele><time>2026-04-04T12:34:50Z</time></trkpt><trkpt lat="43.49945550965372" lon="11.024509906091915"><ele>194.0</ele><time>2026-04-04T12:34:51Z</time></trkpt><trkpt lat="43.49951924409476" lon="11.024401413095251"><ele>194.0</ele><time>2026-04-04T12:34:52Z</time></trkpt><trkpt lat="43.4995747696857" lon="11.024304118029022"><ele>194.0</ele><time>2026-04-04T12:34:53Z</time></trkpt><trkpt lat="43.49966773304555" lon="11.024260970948765"><ele>194.0</ele><time>2026-04-04T12:34:54Z</time></trkpt><trkpt lat="43.49978833414552" lon="11.024283119521288"><ele>192.5</ele><time>2026-04-04T12:34:55Z</time></trkpt><trkpt lat="43.49990242163212" lon="11.024383133965358"><ele>191.0</ele><time>2026-04-04T12:34:56Z</time></trkpt><trkpt lat="43.50002989359591" lon="11.024492317612102"><ele>189.5</ele><time>2026-04-04T12:34:57Z</time></trkpt><trkpt lat="43.500141004923904" lon="11.0246170062984"><ele>188.0</ele><time>2026-04-04T12:34:58Z</time></trkpt><trkpt lat="43.50025063787832" lon="11.024724248041231"><ele>188.0</ele><time>2026-04-04T12:34:59Z</time></trkpt><trkpt lat="43.50037892344643" lon="11.024786191576705"><ele>188.0</ele><time>2026-04-04T12:35:00Z</time></trkpt><trkpt lat="43.50053162741392" lon="11.024818474599636"><ele>188.0</ele><time>2026-04-04T12:35:01Z</time></trkpt><trkpt lat="43.50069136012196" lon="11.024844308459446"><ele>186.5</ele><time>2026-04-04T12:35:02Z</time></trkpt><trkpt lat="43.500840274240666" lon="11.024886478004039"><ele>185.0</ele><time>2026-04-04T12:35:03Z</time></trkpt><trkpt lat="43.50098447153788" lon="11.024925043961971"><ele>183.5</ele><time>2026-04-04T12:35:04Z</time></trkpt><trkpt lat="43.50112185992312" lon="11.024958693154739"><ele>182.0</ele><time>2026-04-04T12:35:05Z</time></trkpt><trkpt lat="43.50126639806653" lon="11.024973847616202"><ele>179.33333333333331</ele><time>2026-04-04T12:35:06Z</time></trkpt><trkpt lat="43.50142147754743" lon="11.024961810630106"><ele>176.66666666666666</ele><time>2026-04-04T12:35:07Z</time></trkpt><trkpt lat="43.50158401628651" lon="11.024934632048872"><ele>174.0</ele><time>2026-04-04T12:35:08Z</time></trkpt><trkpt lat="43.50174492281199" lon="11.024919546081344"><ele>174.0</ele><time>2026-04-04T12:35:09Z</time></trkpt><trkpt lat="43.50189773113757" lon="11.024897789490678"><ele>174.0</ele><time>2026-04-04T12:35:10Z</time></trkpt><trkpt lat="43.502037304415744" lon="11.024872623832485"><ele>174.0</ele><time>2026-04-04T12:35:11.001Z</time></trkpt><trkpt lat="43.5021765270903" lon="11.024845405902559"><ele>174.0</ele><time>2026-04-04T12:35:12.001Z</time></trkpt><trkpt lat="43.50231137582746" lon="11.024828196006233"><ele>172.5</ele><time>2026-04-04T12:35:13.001Z</time></trkpt><trkpt lat="43.5024587843775" lon="11.024832949428195"><ele>171.0</ele><time>2026-04-04T12:35:14.001Z</time></trkpt><trkpt lat="43.50260605440151" lon="11.024867632180895"><ele>169.5</ele><time>2026-04-04T12:35:15.001Z</time></trkpt><trkpt lat="43.5027535504527" lon="11.024920889517256"><ele>168.0</ele><time>2026-04-04T12:35:16.001Z</time></trkpt><trkpt lat="43.502899722188616" lon="11.02498505899341"><ele>167.75</ele><time>2026-04-04T12:35:17.001Z</time></trkpt><trkpt lat="43.50303640140504" lon="11.02508232835176"><ele>167.5</ele><time>2026-04-04T12:35:18.001Z</time></trkpt><trkpt lat="43.50317581491214" lon="11.025147518045198"><ele>167.25</ele><time>2026-04-04T12:35:19.001Z</time></trkpt><trkpt lat="43.50330588320558" lon="11.025241576914135"><ele>167.0</ele><time>2026-04-04T12:35:20.001Z</time></trkpt><trkpt lat="43.50342950452079" lon="11.025327286127224"><ele>167.0</ele><time>2026-04-04T12:35:21.001Z</time></trkpt><trkpt lat="43.50355222920183" lon="11.02541576197556"><ele>167.0</ele><time>2026-04-04T12:35:22.001Z</time></trkpt><trkpt lat="43.50367458313478" lon="11.025482875717678"><ele>167.0</ele><time>2026-04-04T12:35:23.001Z</time></trkpt><trkpt lat="43.50381690537848" lon="11.025494130749463"><ele>167.0</ele><time>2026-04-04T12:35:24.001Z</time></trkpt><trkpt lat="43.50397443611205" lon="11.025474912648896"><ele>166.66666666666666</ele><time>2026-04-04T12:35:25.001Z</time></trkpt><trkpt lat="43.50414511338437" lon="11.025455897348683"><ele>166.33333333333334</ele><time>2026-04-04T12:35:26.001Z</time></trkpt><trkpt lat="43.50432179695033" lon="11.025423997455052"><ele>166.0</ele><time>2026-04-04T12:35:27.001Z</time></trkpt><trkpt lat="43.50449900745525" lon="11.025379784252832"><ele>164.0</ele><time>2026-04-04T12:35:28.001Z</time></trkpt><trkpt lat="43.50467273556777" lon="11.025333834766446"><ele>162.0</ele><time>2026-04-04T12:35:29.001Z</time></trkpt><trkpt lat="43.50483774948039" lon="11.02529406366109"><ele>160.0</ele><time>2026-04-04T12:35:30.001Z</time></trkpt><trkpt lat="43.50500115115402" lon="11.02526983854863"><ele>160.0</ele><time>2026-04-04T12:35:31Z</time></trkpt><trkpt lat="43.50516005343227" lon="11.02526487870038"><ele>160.0</ele><time>2026-04-04T12:35:32Z</time></trkpt><trkpt lat="43.505313579617095" lon="11.025309370016544"><ele>160.0</ele><time>2026-04-04T12:35:33Z</time></trkpt><trkpt lat="43.505457933862736" lon="11.025374823309146"><ele>160.66666666666669</ele><time>2026-04-04T12:35:34Z</time></trkpt><trkpt lat="43.505613343477265" lon="11.02543213188264"><ele>161.33333333333334</ele><time>2026-04-04T12:35:35Z</time></trkpt><trkpt lat="43.50576684994663" lon="11.025515864640093"><ele>162.0</ele><time>2026-04-04T12:35:36Z</time></trkpt><trkpt lat="43.505908798814254" lon="11.025626001593695"><ele>162.0</ele><time>2026-04-04T12:35:37Z</time></trkpt><trkpt lat="43.50604685863528" lon="11.025726032993058"><ele>162.0</ele><time>2026-04-04T12:35:38Z</time></trkpt><trkpt lat="43.50618645500179" lon="11.025818861395692"><ele>162.0</ele><time>2026-04-04T12:35:39Z</time></trkpt><trkpt lat="43.506310422801434" lon="11.025940969494144"><ele>159.75</ele><time>2026-04-04T12:35:40Z</time></trkpt><trkpt lat="43.50642398106117" lon="11.02607718879663"><ele>157.5</ele><time>2026-04-04T12:35:41Z</time></trkpt><trkpt lat="43.50652192098446" lon="11.026222461568024"><ele>155.25</ele><time>2026-04-04T12:35:42Z</time></trkpt><trkpt lat="43.506615501530874" lon="11.02636748720693"><ele>153.0</ele><time>2026-04-04T12:35:43Z</time></trkpt><trkpt lat="43.506722348599006" lon="11.026489975607905"><ele>153.0</ele><time>2026-04-04T12:35:44Z</time></trkpt><trkpt lat="43.50686115003179" lon="11.026587792310929"><ele>153.0</ele><time>2026-04-04T12:35:45Z</time></trkpt><trkpt lat="43.507017688279944" lon="11.026645268523737"><ele>153.0</ele><time>2026-04-04T12:35:46Z</time></trkpt><trkpt lat="43.50719108668861" lon="11.0266780151583"><ele>147.66666666666666</ele><time>2026-04-04T12:35:47Z</time></trkpt><trkpt lat="43.50736904638443" lon="11.026709416066865"><ele>142.33333333333331</ele><time>2026-04-04T12:35:48Z</time></trkpt><trkpt lat="43.507557659106034" lon="11.02674725132718"><ele>137.0</ele><time>2026-04-04T12:35:49Z</time></trkpt><trkpt lat="43.50775383112809" lon="11.026792528777127"><ele>136.66666666666666</ele><time>2026-04-04T12:35:50Z</time></trkpt><trkpt lat="43.50794960342538" lon="11.026825816341171"><ele>136.33333333333334</ele><time>2026-04-04T12:35:51Z</time></trkpt><trkpt lat="43.5081380281021" lon="11.026846174212404"><ele>136.0</ele><time>2026-04-04T12:35:52Z</time></trkpt><trkpt lat="43.50831782778681" lon="11.026865783175879"><ele>136.0</ele><time>2026-04-04T12:35:53Z</time></trkpt><trkpt lat="43.50849666766115" lon="11.026891136429027"><ele>136.0</ele><time>2026-04-04T12:35:54Z</time></trkpt><trkpt lat="43.508671545020725" lon="11.026911494414792"><ele>136.0</ele><time>2026-04-04T12:35:55Z</time></trkpt><trkpt lat="43.50883814676239" lon="11.026911631064081"><ele>134.0</ele><time>2026-04-04T12:35:56Z</time></trkpt><trkpt lat="43.50900641382436" lon="11.026895578241101"><ele>132.0</ele><time>2026-04-04T12:35:57Z</time></trkpt><trkpt lat="43.50916496187422" lon="11.026861828624602"><ele>130.0</ele><time>2026-04-04T12:35:58Z</time></trkpt><trkpt lat="43.5093241435567" lon="11.026808090067245"><ele>130.0</ele><time>2026-04-04T12:35:59Z</time></trkpt><trkpt lat="43.509483022112725" lon="11.026754391869316"><ele>130.0</ele><time>2026-04-04T12:36:00Z</time></trkpt><trkpt lat="43.50965419526415" lon="11.026706717105931"><ele>130.0</ele><time>2026-04-04T12:36:01Z</time></trkpt><trkpt lat="43.509835290755376" lon="11.026662247207689"><ele>133.33333333333334</ele><time>2026-04-04T12:36:02Z</time></trkpt><trkpt lat="43.510022762840045" lon="11.026613313044683"><ele>136.66666666666666</ele><time>2026-04-04T12:36:03Z</time></trkpt><trkpt lat="43.51019888691121" lon="11.02656869319427"><ele>140.0</ele><time>2026-04-04T12:36:04Z</time></trkpt><trkpt lat="43.51037282470829" lon="11.026526868114871"><ele>135.66666666666666</ele><time>2026-04-04T12:36:05Z</time></trkpt><trkpt lat="43.51054176210014" lon="11.026492716553268"><ele>131.33333333333334</ele><time>2026-04-04T12:36:06Z</time></trkpt><trkpt lat="43.51070208667531" lon="11.026457086430273"><ele>127.0</ele><time>2026-04-04T12:36:07Z</time></trkpt><trkpt lat="43.51086030235561" lon="11.026401482796285"><ele>127.0</ele><time>2026-04-04T12:36:08Z</time></trkpt><trkpt lat="43.51101365806951" lon="11.02633871000576"><ele>127.0</ele><time>2026-04-04T12:36:09Z</time></trkpt><trkpt lat="43.511163366568994" lon="11.02628031826553"><ele>127.0</ele><time>2026-04-04T12:36:10Z</time></trkpt><trkpt lat="43.511320855118576" lon="11.026246463566814"><ele>125.33333333333334</ele><time>2026-04-04T12:36:11Z</time></trkpt><trkpt lat="43.51149876600317" lon="11.02622900722438"><ele>123.66666666666666</ele><time>2026-04-04T12:36:12Z</time></trkpt><trkpt lat="43.511696882978846" lon="11.02621034765797"><ele>122.0</ele><time>2026-04-04T12:36:13Z</time></trkpt><trkpt lat="43.511918983846975" lon="11.026189172230273"><ele>120.33333333333333</ele><time>2026-04-04T12:36:14Z</time></trkpt><trkpt lat="43.51214377224807" lon="11.026162980550941"><ele>118.66666666666666</ele><time>2026-04-04T12:36:15Z</time></trkpt><trkpt lat="43.51235024667368" lon="11.026122233422674"><ele>117.0</ele><time>2026-04-04T12:36:16Z</time></trkpt><trkpt lat="43.51254965538332" lon="11.0260690418288"><ele>117.0</ele><time>2026-04-04T12:36:17Z</time></trkpt><trkpt lat="43.512757420883545" lon="11.02597952876898"><ele>117.0</ele><time>2026-04-04T12:36:18Z</time></trkpt><trkpt lat="43.512969046642155" lon="11.025866915155861"><ele>117.0</ele><time>2026-04-04T12:36:19Z</time></trkpt><trkpt lat="43.51316915521989" lon="11.025767204099871"><ele>113.66666666666666</ele><time>2026-04-04T12:36:20Z</time></trkpt><trkpt lat="43.513364666604474" lon="11.025693689865813"><ele>110.33333333333333</ele><time>2026-04-04T12:36:21Z</time></trkpt><trkpt lat="43.513559046031816" lon="11.025653405249907"><ele>107.0</ele><time>2026-04-04T12:36:22Z</time></trkpt><trkpt lat="43.513763157315864" lon="11.02565790925821"><ele>103.33333333333333</ele><time>2026-04-04T12:36:23Z</time></trkpt><trkpt lat="43.513982438836535" lon="11.025713636872696"><ele>99.66666666666666</ele><time>2026-04-04T12:36:24Z</time></trkpt><trkpt lat="43.5142040792206" lon="11.025754582926796"><ele>96.0</ele><time>2026-04-04T12:36:25Z</time></trkpt><trkpt lat="43.51441457863492" lon="11.025829240496252"><ele>93.33333333333333</ele><time>2026-04-04T12:36:26Z</time></trkpt><trkpt lat="43.51461460262839" lon="11.025884540575609"><ele>90.66666666666666</ele><time>2026-04-04T12:36:27Z</time></trkpt><trkpt lat="43.51480003956205" lon="11.025932004831503"><ele>88.0</ele><time>2026-04-04T12:36:28Z</time></trkpt><trkpt lat="43.514973142014895" lon="11.025970411629878"><ele>88.0</ele><time>2026-04-04T12:36:29Z</time></trkpt><trkpt lat="43.51513518474795" lon="11.025990198086701"><ele>88.0</ele><time>2026-04-04T12:36:30Z</time></trkpt><trkpt lat="43.515283438895125" lon="11.025959561687078"><ele>88.0</ele><time>2026-04-04T12:36:31Z</time></trkpt><trkpt lat="43.51543935652319" lon="11.025870536354976"><ele>87.0</ele><time>2026-04-04T12:36:32Z</time></trkpt><trkpt lat="43.51557571044752" lon="11.025726704904304"><ele>86.0</ele><time>2026-04-04T12:36:33Z</time></trkpt><trkpt lat="43.51570100622794" lon="11.02556890399887"><ele>85.0</ele><time>2026-04-04T12:36:34Z</time></trkpt><trkpt lat="43.51585348164265" lon="11.02548491727602"><ele>85.0</ele><time>2026-04-04T12:36:35Z</time></trkpt><trkpt lat="43.51602532854846" lon="11.025437351897596"><ele>85.0</ele><time>2026-04-04T12:36:36Z</time></trkpt><trkpt lat="43.516209756437874" lon="11.025407892489621"><ele>85.0</ele><time>2026-04-04T12:36:37Z</time></trkpt><trkpt lat="43.51638344084372" lon="11.025354419423646"><ele>85.66666666666666</ele><time>2026-04-04T12:36:38Z</time></trkpt><trkpt lat="43.5165476347838" lon="11.025332356976877"><ele>86.33333333333333</ele><time>2026-04-04T12:36:39Z</time></trkpt><trkpt lat="43.51671192110122" lon="11.025307467204025"><ele>87.0</ele><time>2026-04-04T12:36:40Z</time></trkpt><trkpt lat="43.51687795732396" lon="11.025299916221252"><ele>87.0</ele><time>2026-04-04T12:36:41Z</time></trkpt><trkpt lat="43.51703030088049" lon="11.025300363740024"><ele>87.0</ele><time>2026-04-04T12:36:42Z</time></trkpt><trkpt lat="43.51717237085918" lon="11.025330447884988"><ele>87.0</ele><time>2026-04-04T12:36:43Z</time></trkpt><trkpt lat="43.51730713000147" lon="11.025338760961718"><ele>87.0</ele><time>2026-04-04T12:36:44Z</time></trkpt><trkpt lat="43.517443236587106" lon="11.025347157256515"><ele>88.33333333333333</ele><time>2026-04-04T12:36:45Z</time></trkpt><trkpt lat="43.51759605934397" lon="11.025343563742737"><ele>89.66666666666666</ele><time>2026-04-04T12:36:46Z</time></trkpt><trkpt lat="43.51775800376658" lon="11.025361492277728"><ele>91.0</ele><time>2026-04-04T12:36:47Z</time></trkpt><trkpt lat="43.51792347267211" lon="11.025374589975687"><ele>91.33333333333333</ele><time>2026-04-04T12:36:48Z</time></trkpt><trkpt lat="43.51809407071927" lon="11.025381923959408"><ele>91.66666666666667</ele><time>2026-04-04T12:36:49Z</time></trkpt><trkpt lat="43.51826688145684" lon="11.025389992103431"><ele>92.0</ele><time>2026-04-04T12:36:50Z</time></trkpt><trkpt lat="43.51844421213397" lon="11.025398722428426"><ele>92.0</ele><time>2026-04-04T12:36:51Z</time></trkpt><trkpt lat="43.5186227242228" lon="11.025433529318544"><ele>92.0</ele><time>2026-04-04T12:36:52Z</time></trkpt><trkpt lat="43.51880899184477" lon="11.025415366260793"><ele>92.0</ele><time>2026-04-04T12:36:53Z</time></trkpt><trkpt lat="43.51899738737053" lon="11.025411672159752"><ele>91.66666666666667</ele><time>2026-04-04T12:36:54Z</time></trkpt><trkpt lat="43.5191826020311" lon="11.025398499586627"><ele>91.33333333333333</ele><time>2026-04-04T12:36:55Z</time></trkpt><trkpt lat="43.51935666706984" lon="11.02538736723349"><ele>91.0</ele><time>2026-04-04T12:36:56Z</time></trkpt><trkpt lat="43.519521300602094" lon="11.025384063624536"><ele>90.33333333333333</ele><time>2026-04-04T12:36:57Z</time></trkpt><trkpt lat="43.519683752021905" lon="11.025388645644497"><ele>89.66666666666667</ele><time>2026-04-04T12:36:58Z</time></trkpt><trkpt lat="43.51983969988337" lon="11.025396027245222"><ele>89.0</ele><time>2026-04-04T12:36:59Z</time></trkpt><trkpt lat="43.51999354862037" lon="11.025412863929558"><ele>89.0</ele><time>2026-04-04T12:37:00Z</time></trkpt><trkpt lat="43.52013951329964" lon="11.025427393207268"><ele>89.0</ele><time>2026-04-04T12:37:01Z</time></trkpt><trkpt lat="43.520295155490764" lon="11.025433194605936"><ele>89.0</ele><time>2026-04-04T12:37:02Z</time></trkpt><trkpt lat="43.520457298714426" lon="11.025396199969622"><ele>86.66666666666667</ele><time>2026-04-04T12:37:03Z</time></trkpt><trkpt lat="43.52062383346789" lon="11.025347436729284"><ele>84.33333333333333</ele><time>2026-04-04T12:37:04Z</time></trkpt><trkpt lat="43.520795506284095" lon="11.025281736817591"><ele>82.0</ele><time>2026-04-04T12:37:05Z</time></trkpt><trkpt lat="43.52095645231322" lon="11.025192155487652"><ele>82.0</ele><time>2026-04-04T12:37:06Z</time></trkpt><trkpt lat="43.52110938366406" lon="11.025115519838948"><ele>82.0</ele><time>2026-04-04T12:37:07Z</time></trkpt><trkpt lat="43.5212601027812" lon="11.025047947971121"><ele>82.0</ele><time>2026-04-04T12:37:08Z</time></trkpt><trkpt lat="43.52140563382749" lon="11.02498059097067"><ele>81.0</ele><time>2026-04-04T12:37:09Z</time></trkpt><trkpt lat="43.5215427056491" lon="11.024920183896334"><ele>80.0</ele><time>2026-04-04T12:37:10Z</time></trkpt><trkpt lat="43.52167897305855" lon="11.024888712400692"><ele>79.0</ele><time>2026-04-04T12:37:11Z</time></trkpt><trkpt lat="43.521829364950605" lon="11.024854713992196"><ele>78.0</ele><time>2026-04-04T12:37:12Z</time></trkpt><trkpt lat="43.52198602336641" lon="11.024885874186175"><ele>80.33333333333333</ele><time>2026-04-04T12:37:13Z</time></trkpt><trkpt lat="43.52214453747256" lon="11.024953393352"><ele>82.66666666666666</ele><time>2026-04-04T12:37:14Z</time></trkpt><trkpt lat="43.52229225567096" lon="11.025068294683964"><ele>85.0</ele><time>2026-04-04T12:37:15Z</time></trkpt><trkpt lat="43.522431245238295" lon="11.025232056170625"><ele>85.0</ele><time>2026-04-04T12:37:16Z</time></trkpt><trkpt lat="43.522548480322044" lon="11.025423415018524"><ele>85.0</ele><time>2026-04-04T12:37:17.001Z</time></trkpt><trkpt lat="43.52268580470431" lon="11.025610181608375"><ele>85.0</ele><time>2026-04-04T12:37:18.001Z</time></trkpt><trkpt lat="43.52283200110254" lon="11.025803473558613"><ele>85.0</ele><time>2026-04-04T12:37:19.001Z</time></trkpt><trkpt lat="43.522986023624064" lon="11.025951986416626"><ele>85.0</ele><time>2026-04-04T12:37:20.001Z</time></trkpt><trkpt lat="43.52314716677999" lon="11.026081621934187"><ele>85.0</ele><time>2026-04-04T12:37:21.001Z</time></trkpt><trkpt lat="43.52330315868476" lon="11.026209777932465"><ele>85.0</ele><time>2026-04-04T12:37:22.001Z</time></trkpt><trkpt lat="43.52346336479907" lon="11.026335044860952"><ele>85.0</ele><time>2026-04-04T12:37:23.001Z</time></trkpt><trkpt lat="43.5236170766187" lon="11.026461408239511"><ele>85.0</ele><time>2026-04-04T12:37:24.001Z</time></trkpt><trkpt lat="43.52376198509159" lon="11.0265818441264"><ele>83.5</ele><time>2026-04-04T12:37:25.001Z</time></trkpt><trkpt lat="43.52389424046979" lon="11.02668940285742"><ele>82.0</ele><time>2026-04-04T12:37:26.001Z</time></trkpt><trkpt lat="43.52402291373127" lon="11.026790960666377"><ele>80.5</ele><time>2026-04-04T12:37:27.001Z</time></trkpt><trkpt lat="43.52415314962806" lon="11.026874006726642"><ele>79.0</ele><time>2026-04-04T12:37:28.001Z</time></trkpt><trkpt lat="43.52428094658312" lon="11.02692309625597"><ele>79.0</ele><time>2026-04-04T12:37:29.001Z</time></trkpt><trkpt lat="43.524425160018545" lon="11.026963731378197"><ele>79.0</ele><time>2026-04-04T12:37:30Z</time></trkpt><trkpt lat="43.52457504961391" lon="11.027019604750784"><ele>79.0</ele><time>2026-04-04T12:37:31Z</time></trkpt><trkpt lat="43.52471969580696" lon="11.0270932724908"><ele>80.66666666666666</ele><time>2026-04-04T12:37:32Z</time></trkpt><trkpt lat="43.524850366955356" lon="11.02722061334956"><ele>82.33333333333333</ele><time>2026-04-04T12:37:33Z</time></trkpt><trkpt lat="43.52500577524922" lon="11.027323712948226"><ele>84.0</ele><time>2026-04-04T12:37:34Z</time></trkpt><trkpt lat="43.52515297619619" lon="11.027449052961222"><ele>83.0</ele><time>2026-04-04T12:37:35Z</time></trkpt><trkpt lat="43.52531480372455" lon="11.02756389672678"><ele>82.0</ele><time>2026-04-04T12:37:36Z</time></trkpt><trkpt lat="43.52549167346466" lon="11.027681219518422"><ele>81.0</ele><time>2026-04-04T12:37:37Z</time></trkpt><trkpt lat="43.52566943359585" lon="11.027810827739644"><ele>81.0</ele><time>2026-04-04T12:37:38Z</time></trkpt><trkpt lat="43.525859543175045" lon="11.027946246968995"><ele>81.0</ele><time>2026-04-04T12:37:39Z</time></trkpt><trkpt lat="43.52605443058744" lon="11.028076611416457"><ele>81.0</ele><time>2026-04-04T12:37:40Z</time></trkpt><trkpt lat="43.526233515152434" lon="11.02820032567154"><ele>80.33333333333333</ele><time>2026-04-04T12:37:41Z</time></trkpt><trkpt lat="43.52641134986935" lon="11.028328659335774"><ele>79.66666666666666</ele><time>2026-04-04T12:37:42Z</time></trkpt><trkpt lat="43.52659039956796" lon="11.028469048920147"><ele>79.0</ele><time>2026-04-04T12:37:43Z</time></trkpt><trkpt lat="43.52675045488802" lon="11.02865394556283"><ele>79.0</ele><time>2026-04-04T12:37:44Z</time></trkpt><trkpt lat="43.52692704687902" lon="11.028841894980982"><ele>79.0</ele><time>2026-04-04T12:37:45Z</time></trkpt><trkpt lat="43.52708361893064" lon="11.029074020908315"><ele>79.5</ele><time>2026-04-04T12:37:46Z</time></trkpt><trkpt lat="43.527234861723635" lon="11.029321734365443"><ele>80.0</ele><time>2026-04-04T12:37:47Z</time></trkpt><trkpt lat="43.52738405203025" lon="11.029570716097785"><ele>80.0</ele><time>2026-04-04T12:37:48Z</time></trkpt><trkpt lat="43.52753654838502" lon="11.029810519667642"><ele>80.0</ele><time>2026-04-04T12:37:49Z</time></trkpt><trkpt lat="43.52768212384561" lon="11.030038798761456"><ele>81.0</ele><time>2026-04-04T12:37:50Z</time></trkpt><trkpt lat="43.52780970696697" lon="11.030267675116466"><ele>82.0</ele><time>2026-04-04T12:37:51Z</time></trkpt><trkpt lat="43.52795798118787" lon="11.030481264298233"><ele>83.0</ele><time>2026-04-04T12:37:52Z</time></trkpt><trkpt lat="43.528079050533364" lon="11.030703317539881"><ele>81.0</ele><time>2026-04-04T12:37:53Z</time></trkpt><trkpt lat="43.52820764083229" lon="11.030909568975947"><ele>79.0</ele><time>2026-04-04T12:37:54Z</time></trkpt><trkpt lat="43.52833135048692" lon="11.031107533746711"><ele>77.0</ele><time>2026-04-04T12:37:55Z</time></trkpt><trkpt lat="43.528454917948544" lon="11.031287527726057"><ele>77.0</ele><time>2026-04-04T12:37:56Z</time></trkpt><trkpt lat="43.52852436793309" lon="11.031520889932262"><ele>77.0</ele><time>2026-04-04T12:37:57Z</time></trkpt><trkpt lat="43.528585994044576" lon="11.031785355476165"><ele>77.0</ele><time>2026-04-04T12:37:58Z</time></trkpt><trkpt lat="43.52865401599167" lon="11.032062808619331"><ele>76.0</ele><time>2026-04-04T12:37:59Z</time></trkpt><trkpt lat="43.52870913696375" lon="11.032347769779573"><ele>75.0</ele><time>2026-04-04T12:38:00Z</time></trkpt><trkpt lat="43.52876402210923" lon="11.032626782145568"><ele>74.0</ele><time>2026-04-04T12:38:01Z</time></trkpt><trkpt lat="43.52881888732498" lon="11.03289464206053"><ele>76.0</ele><time>2026-04-04T12:38:02Z</time></trkpt><trkpt lat="43.52887166304789" lon="11.033162170967728"><ele>78.0</ele><time>2026-04-04T12:38:03Z</time></trkpt><trkpt lat="43.52892107904426" lon="11.033426218466985"><ele>80.0</ele><time>2026-04-04T12:38:04Z</time></trkpt><trkpt lat="43.52897094344249" lon="11.033682291040428"><ele>80.0</ele><time>2026-04-04T12:38:05Z</time></trkpt><trkpt lat="43.52902313768529" lon="11.033935568647529"><ele>80.0</ele><time>2026-04-04T12:38:06Z</time></trkpt><trkpt lat="43.52906947608694" lon="11.03419254990251"><ele>80.0</ele><time>2026-04-04T12:38:07Z</time></trkpt><trkpt lat="43.52911621909662" lon="11.034436313804997"><ele>79.33333333333334</ele><time>2026-04-04T12:38:08Z</time></trkpt><trkpt lat="43.529158173934384" lon="11.034632637368162"><ele>78.66666666666667</ele><time>2026-04-04T12:38:09Z</time></trkpt><trkpt lat="43.529194271456724" lon="11.034820038799515"><ele>78.0</ele><time>2026-04-04T12:38:10Z</time></trkpt><trkpt lat="43.529227872036266" lon="11.03503821949253"><ele>77.33333333333333</ele><time>2026-04-04T12:38:11Z</time></trkpt><trkpt lat="43.52927540656534" lon="11.03527875569656"><ele>76.66666666666666</ele><time>2026-04-04T12:38:12Z</time></trkpt><trkpt lat="43.52931816464819" lon="11.035526761132665"><ele>76.0</ele><time>2026-04-04T12:38:13Z</time></trkpt><trkpt lat="43.52935748109651" lon="11.035762923443146"><ele>76.0</ele><time>2026-04-04T12:38:14Z</time></trkpt><trkpt lat="43.5293967977649" lon="11.035969173489287"><ele>76.0</ele><time>2026-04-04T12:38:15Z</time></trkpt><trkpt lat="43.529442100150575" lon="11.03615852801511"><ele>76.0</ele><time>2026-04-04T12:38:16Z</time></trkpt><trkpt lat="43.52948406861717" lon="11.03634152915462"><ele>76.0</ele><time>2026-04-04T12:38:17Z</time></trkpt><trkpt lat="43.52954414609495" lon="11.036531174341153"><ele>75.66666666666666</ele><time>2026-04-04T12:38:18Z</time></trkpt><trkpt lat="43.5296213775789" lon="11.036730159802483"><ele>75.33333333333333</ele><time>2026-04-04T12:38:19Z</time></trkpt><trkpt lat="43.52971211583715" lon="11.03692417698567"><ele>75.0</ele><time>2026-04-04T12:38:20Z</time></trkpt><trkpt lat="43.52980287668316" lon="11.037113118467712"><ele>75.0</ele><time>2026-04-04T12:38:21Z</time></trkpt><trkpt lat="43.529896447786555" lon="11.037303663792589"><ele>75.0</ele><time>2026-04-04T12:38:22Z</time></trkpt><trkpt lat="43.529987616262396" lon="11.037476188218431"><ele>75.0</ele><time>2026-04-04T12:38:23Z</time></trkpt><trkpt lat="43.53008035599837" lon="11.037646717896406"><ele>73.66666666666667</ele><time>2026-04-04T12:38:24Z</time></trkpt><trkpt lat="43.530168663090095" lon="11.037825089918037"><ele>72.33333333333334</ele><time>2026-04-04T12:38:25Z</time></trkpt><trkpt lat="43.53026385435975" lon="11.03801242426614"><ele>71.0</ele><time>2026-04-04T12:38:26Z</time></trkpt><trkpt lat="43.530363719594426" lon="11.038207543437384"><ele>70.66666666666667</ele><time>2026-04-04T12:38:27Z</time></trkpt><trkpt lat="43.53046640353799" lon="11.038391593908297"><ele>70.33333333333333</ele><time>2026-04-04T12:38:28Z</time></trkpt><trkpt lat="43.53056414243048" lon="11.038574146941137"><ele>70.0</ele><time>2026-04-04T12:38:29Z</time></trkpt><trkpt lat="43.53067108776979" lon="11.038752090672148"><ele>70.0</ele><time>2026-04-04T12:38:30Z</time></trkpt><trkpt lat="43.53078094231532" lon="11.03891854831933"><ele>70.0</ele><time>2026-04-04T12:38:31Z</time></trkpt><trkpt lat="43.53090479140187" lon="11.03908658421238"><ele>70.0</ele><time>2026-04-04T12:38:32Z</time></trkpt><trkpt lat="43.531030859822856" lon="11.039243553997382"><ele>70.0</ele><time>2026-04-04T12:38:33Z</time></trkpt><trkpt lat="43.531165369177764" lon="11.039400300161939"><ele>70.0</ele><time>2026-04-04T12:38:34Z</time></trkpt><trkpt lat="43.53130829593303" lon="11.039543063701625"><ele>70.0</ele><time>2026-04-04T12:38:35Z</time></trkpt><trkpt lat="43.53145240848147" lon="11.03969672386362"><ele>70.0</ele><time>2026-04-04T12:38:36Z</time></trkpt><trkpt lat="43.53161057729977" lon="11.039835655054588"><ele>70.0</ele><time>2026-04-04T12:38:37Z</time></trkpt><trkpt lat="43.53176997981751" lon="11.039967926904476"><ele>70.0</ele><time>2026-04-04T12:38:38Z</time></trkpt><trkpt lat="43.53194508704159" lon="11.04008383521424"><ele>68.66666666666666</ele><time>2026-04-04T12:38:39Z</time></trkpt><trkpt lat="43.532127792231336" lon="11.040178580085946"><ele>67.33333333333333</ele><time>2026-04-04T12:38:40Z</time></trkpt><trkpt lat="43.532306861746015" lon="11.04025992170731"><ele>66.0</ele><time>2026-04-04T12:38:41Z</time></trkpt><trkpt lat="43.53248211055216" lon="11.040312014684687"><ele>66.0</ele><time>2026-04-04T12:38:42Z</time></trkpt><trkpt lat="43.53264039227697" lon="11.040343776717052"><ele>66.0</ele><time>2026-04-04T12:38:43Z</time></trkpt><trkpt lat="43.53278554258948" lon="11.040369363402293"><ele>66.0</ele><time>2026-04-04T12:38:44Z</time></trkpt><trkpt lat="43.53292542892414" lon="11.040381693497736"><ele>66.0</ele><time>2026-04-04T12:38:45Z</time></trkpt><trkpt lat="43.53305563880362" lon="11.040377321433823"><ele>65.75</ele><time>2026-04-04T12:38:46Z</time></trkpt><trkpt lat="43.53317879105699" lon="11.040348387401226"><ele>65.5</ele><time>2026-04-04T12:38:47Z</time></trkpt><trkpt lat="43.533294915584406" lon="11.040318878514949"><ele>65.25</ele><time>2026-04-04T12:38:48Z</time></trkpt><trkpt lat="43.53340480146976" lon="11.040281089927845"><ele>65.0</ele><time>2026-04-04T12:38:49Z</time></trkpt><trkpt lat="43.53349599795772" lon="11.04023712033251"><ele>65.0</ele><time>2026-04-04T12:38:50Z</time></trkpt><trkpt lat="43.53356682205996" lon="11.04020111188714"><ele>65.0</ele><time>2026-04-04T12:38:51Z</time></trkpt><trkpt lat="43.53363638975061" lon="11.040189529150993"><ele>65.0</ele><time>2026-04-04T12:38:52Z</time></trkpt><trkpt lat="43.53372066478725" lon="11.040211308264489"><ele>65.0</ele><time>2026-04-04T12:38:53Z</time></trkpt><trkpt lat="43.53381487592372" lon="11.040267320329407"><ele>65.0</ele><time>2026-04-04T12:38:54Z</time></trkpt><trkpt lat="43.53393539386062" lon="11.040313828399205"><ele>65.25</ele><time>2026-04-04T12:38:55Z</time></trkpt><trkpt lat="43.53407472487346" lon="11.040338122237713"><ele>65.5</ele><time>2026-04-04T12:38:56Z</time></trkpt><trkpt lat="43.53420351634174" lon="11.040348789504497"><ele>65.75</ele><time>2026-04-04T12:38:57Z</time></trkpt><trkpt lat="43.53431451153095" lon="11.040390367055982"><ele>66.0</ele><time>2026-04-04T12:38:58Z</time></trkpt><trkpt lat="43.53441325395372" lon="11.040476739388469"><ele>66.0</ele><time>2026-04-04T12:38:59Z</time></trkpt><trkpt lat="43.53452064768415" lon="11.040613854293131"><ele>66.0</ele><time>2026-04-04T12:39:00Z</time></trkpt><trkpt lat="43.53464395179989" lon="11.040780987103407"><ele>66.0</ele><time>2026-04-04T12:39:01Z</time></trkpt><trkpt lat="43.53477859231535" lon="11.040950011293338"><ele>65.33333333333333</ele><time>2026-04-04T12:39:02Z</time></trkpt><trkpt lat="43.53491310880218" lon="11.041119889499006"><ele>64.66666666666666</ele><time>2026-04-04T12:39:03Z</time></trkpt><trkpt lat="43.53505781976099" lon="11.041298342142667"><ele>64.0</ele><time>2026-04-04T12:39:04Z</time></trkpt><trkpt lat="43.5352048280878" lon="11.041483482839995"><ele>64.33333333333333</ele><time>2026-04-04T12:39:05Z</time></trkpt><trkpt lat="43.535339593318675" lon="11.041648620948557"><ele>64.66666666666667</ele><time>2026-04-04T12:39:06Z</time></trkpt><trkpt lat="43.53545955214535" lon="11.041793453241258"><ele>65.0</ele><time>2026-04-04T12:39:07Z</time></trkpt><trkpt lat="43.53556690480888" lon="11.041931289519185"><ele>65.0</ele><time>2026-04-04T12:39:08Z</time></trkpt><trkpt lat="43.535663546199224" lon="11.042078569274532"><ele>65.0</ele><time>2026-04-04T12:39:09Z</time></trkpt><trkpt lat="43.53575303962127" lon="11.042248690437262"><ele>65.0</ele><time>2026-04-04T12:39:10Z</time></trkpt><trkpt lat="43.535830352808624" lon="11.042443790679785"><ele>65.0</ele><time>2026-04-04T12:39:11Z</time></trkpt><trkpt lat="43.53589360923874" lon="11.04265739516245"><ele>65.0</ele><time>2026-04-04T12:39:12Z</time></trkpt><trkpt lat="43.53593895882262" lon="11.042888788092615"><ele>65.0</ele><time>2026-04-04T12:39:13Z</time></trkpt><trkpt lat="43.53596882583353" lon="11.04312854797513"><ele>65.33333333333334</ele><time>2026-04-04T12:39:14Z</time></trkpt><trkpt lat="43.53597861085256" lon="11.043362543536599"><ele>65.66666666666667</ele><time>2026-04-04T12:39:15Z</time></trkpt><trkpt lat="43.53598115301932" lon="11.043585644712383"><ele>66.0</ele><time>2026-04-04T12:39:16Z</time></trkpt><trkpt lat="43.53598666708248" lon="11.043810916737325"><ele>66.0</ele><time>2026-04-04T12:39:17Z</time></trkpt><trkpt lat="43.535999011246595" lon="11.044041971901594"><ele>66.0</ele><time>2026-04-04T12:39:18Z</time></trkpt><trkpt lat="43.53601013294439" lon="11.044268032953804"><ele>66.0</ele><time>2026-04-04T12:39:19Z</time></trkpt><trkpt lat="43.53602366887385" lon="11.044500902600143"><ele>66.0</ele><time>2026-04-04T12:39:20Z</time></trkpt><trkpt lat="43.53603433665039" lon="11.044731822874141"><ele>66.0</ele><time>2026-04-04T12:39:21Z</time></trkpt><trkpt lat="43.53604512488049" lon="11.044963750217319"><ele>66.0</ele><time>2026-04-04T12:39:22Z</time></trkpt><trkpt lat="43.53605410971102" lon="11.045188027597455"><ele>66.25</ele><time>2026-04-04T12:39:23Z</time></trkpt><trkpt lat="43.536067119261034" lon="11.045404315978088"><ele>66.5</ele><time>2026-04-04T12:39:24Z</time></trkpt><trkpt lat="43.536087464941616" lon="11.045605304470824"><ele>66.75</ele><time>2026-04-04T12:39:25Z</time></trkpt><trkpt lat="43.536114355182306" lon="11.045792382860377"><ele>67.0</ele><time>2026-04-04T12:39:26Z</time></trkpt><trkpt lat="43.536162184648994" lon="11.04598586361729"><ele>67.33333333333333</ele><time>2026-04-04T12:39:27Z</time></trkpt><trkpt lat="43.53622769084431" lon="11.046175288825518"><ele>67.66666666666667</ele><time>2026-04-04T12:39:28Z</time></trkpt><trkpt lat="43.536310737638104" lon="11.046353214803302"><ele>68.0</ele><time>2026-04-04T12:39:29Z</time></trkpt><trkpt lat="43.536407610931825" lon="11.046525429559303"><ele>68.0</ele><time>2026-04-04T12:39:30Z</time></trkpt><trkpt lat="43.53651130766362" lon="11.046691423796306"><ele>68.0</ele><time>2026-04-04T12:39:31Z</time></trkpt><trkpt lat="43.53662418162435" lon="11.046847755198858"><ele>68.0</ele><time>2026-04-04T12:39:32Z</time></trkpt><trkpt lat="43.53672877028931" lon="11.046990024146972"><ele>68.0</ele><time>2026-04-04T12:39:33Z</time></trkpt><trkpt lat="43.53681989205666" lon="11.047133293967798"><ele>68.0</ele><time>2026-04-04T12:39:34Z</time></trkpt><trkpt lat="43.53691474584709" lon="11.047272690185798"><ele>68.0</ele><time>2026-04-04T12:39:35Z</time></trkpt><trkpt lat="43.53700228950336" lon="11.047400995727797"><ele>68.0</ele><time>2026-04-04T12:39:36Z</time></trkpt><trkpt lat="43.53708576040878" lon="11.047520566356194"><ele>68.25</ele><time>2026-04-04T12:39:37Z</time></trkpt><trkpt lat="43.537161688687874" lon="11.047640801310717"><ele>68.5</ele><time>2026-04-04T12:39:38Z</time></trkpt><trkpt lat="43.53723717573123" lon="11.047752885530535"><ele>68.75</ele><time>2026-04-04T12:39:39Z</time></trkpt><trkpt lat="43.53731845762112" lon="11.047881383171413"><ele>69.0</ele><time>2026-04-04T12:39:40Z</time></trkpt><trkpt lat="43.53739742899082" lon="11.04800771015112"><ele>69.0</ele><time>2026-04-04T12:39:41Z</time></trkpt><trkpt lat="43.53746721344311" lon="11.048129318573567"><ele>69.0</ele><time>2026-04-04T12:39:42Z</time></trkpt><trkpt lat="43.53752385666299" lon="11.048269238374084"><ele>69.0</ele><time>2026-04-04T12:39:43Z</time></trkpt><trkpt lat="43.537570213831614" lon="11.048428402069616"><ele>69.0</ele><time>2026-04-04T12:39:44Z</time></trkpt><trkpt lat="43.537597004867074" lon="11.048593208383897"><ele>69.0</ele><time>2026-04-04T12:39:45Z</time></trkpt><trkpt lat="43.53761099027088" lon="11.048753273285598"><ele>69.0</ele><time>2026-04-04T12:39:46Z</time></trkpt><trkpt lat="43.5376082794982" lon="11.048910385962769"><ele>69.0</ele><time>2026-04-04T12:39:47Z</time></trkpt><trkpt lat="43.5375859208572" lon="11.049064680989225"><ele>69.0</ele><time>2026-04-04T12:39:48Z</time></trkpt><trkpt lat="43.537545395217826" lon="11.049203110313195"><ele>69.8</ele><time>2026-04-04T12:39:49Z</time></trkpt><trkpt lat="43.537497237675964" lon="11.049303793553257"><ele>70.60000000000001</ele><time>2026-04-04T12:39:50Z</time></trkpt><trkpt lat="43.53744238501631" lon="11.049380368245439"><ele>71.4</ele><time>2026-04-04T12:39:51Z</time></trkpt><trkpt lat="43.537374936834965" lon="11.049407566647448"><ele>72.2</ele><time>2026-04-04T12:39:52Z</time></trkpt><trkpt lat="43.53723719400689" lon="11.049405360441899"><ele>73.0</ele><time>2026-04-04T12:39:54Z</time></trkpt><trkpt lat="43.53713882796993" lon="11.049370510630633"><ele>73.0</ele><time>2026-04-04T12:39:56Z</time></trkpt><trkpt lat="43.537064490782555" lon="11.049368907630964"><ele>73.0</ele><time>2026-04-04T12:39:59Z</time></trkpt><trkpt lat="43.537001310382294" lon="11.049390384767127"><ele>73.0</ele><time>2026-04-04T12:42:57Z</time></trkpt><trkpt lat="43.5369090172449" lon="11.049437005197326"><ele>73.0</ele><time>2026-04-04T12:42:59Z</time></trkpt><trkpt lat="43.5368684505167" lon="11.049574595208878"><ele>73.0</ele><time>2026-04-04T12:43:00Z</time></trkpt><trkpt lat="43.53683070206485" lon="11.049698112584872"><ele>73.0</ele><time>2026-04-04T12:43:01Z</time></trkpt><trkpt lat="43.53679189219684" lon="11.049834614158664"><ele>72.5</ele><time>2026-04-04T12:43:02Z</time></trkpt><trkpt lat="43.53675868697919" lon="11.049961274235525"><ele>72.0</ele><time>2026-04-04T12:43:03Z</time></trkpt><trkpt lat="43.53671750436002" lon="11.050062531717028"><ele>71.5</ele><time>2026-04-04T12:43:04Z</time></trkpt><trkpt lat="43.53667015532213" lon="11.050144783226921"><ele>71.0</ele><time>2026-04-04T12:43:05Z</time></trkpt><trkpt lat="43.536618645581385" lon="11.050246063914894"><ele>70.5</ele><time>2026-04-04T12:43:06Z</time></trkpt><trkpt lat="43.53658647806569" lon="11.050376236740696"><ele>70.0</ele><time>2026-04-04T12:43:07Z</time></trkpt><trkpt lat="43.53655146178959" lon="11.050568217775128"><ele>70.0</ele><time>2026-04-04T12:43:08Z</time></trkpt><trkpt lat="43.53650934979338" lon="11.05074366746809"><ele>70.0</ele><time>2026-04-04T12:43:09Z</time></trkpt><trkpt lat="43.536472701273176" lon="11.050932742087888"><ele>70.0</ele><time>2026-04-04T12:43:10Z</time></trkpt><trkpt lat="43.5364325357986" lon="11.051128939866132"><ele>70.0</ele><time>2026-04-04T12:43:11Z</time></trkpt><trkpt lat="43.53638931920511" lon="11.051328168175564"><ele>72.0</ele><time>2026-04-04T12:43:12Z</time></trkpt><trkpt lat="43.53635066872861" lon="11.051535456367919"><ele>74.0</ele><time>2026-04-04T12:43:13Z</time></trkpt><trkpt lat="43.5363228249521" lon="11.051754117724293"><ele>76.0</ele><time>2026-04-04T12:43:14Z</time></trkpt><trkpt lat="43.5363113520478" lon="11.051965241020204"><ele>77.25</ele><time>2026-04-04T12:43:15Z</time></trkpt><trkpt lat="43.536291239490005" lon="11.052165279929541"><ele>78.5</ele><time>2026-04-04T12:43:16Z</time></trkpt><trkpt lat="43.5363288954938" lon="11.052365219921453"><ele>79.75</ele><time>2026-04-04T12:43:17Z</time></trkpt><trkpt lat="43.53634396372765" lon="11.052543209833686"><ele>81.0</ele><time>2026-04-04T12:43:18Z</time></trkpt><trkpt lat="43.53635978595543" lon="11.05271963130258"><ele>81.0</ele><time>2026-04-04T12:43:19Z</time></trkpt><trkpt lat="43.53639509074643" lon="11.052897164718992"><ele>81.0</ele><time>2026-04-04T12:43:20Z</time></trkpt><trkpt lat="43.53627088083225" lon="11.05307970873771"><ele>81.0</ele><time>2026-04-04T12:43:21Z</time></trkpt><trkpt lat="43.53626628757757" lon="11.053259269974477"><ele>81.0</ele><time>2026-04-04T12:43:21.999Z</time></trkpt><trkpt lat="43.53625732733365" lon="11.053437969502378"><ele>78.75</ele><time>2026-04-04T12:43:22.999Z</time></trkpt><trkpt lat="43.53624627201143" lon="11.053611792740178"><ele>76.5</ele><time>2026-04-04T12:43:23.999Z</time></trkpt><trkpt lat="43.53623595700944" lon="11.053782468175132"><ele>74.25</ele><time>2026-04-04T12:43:24.999Z</time></trkpt><trkpt lat="43.5362171892885" lon="11.053952666087904"><ele>72.0</ele><time>2026-04-04T12:43:25.999Z</time></trkpt><trkpt lat="43.536187327022255" lon="11.054112458253387"><ele>71.0</ele><time>2026-04-04T12:43:26.999Z</time></trkpt><trkpt lat="43.536141901223395" lon="11.054282753758512"><ele>70.0</ele><time>2026-04-04T12:43:27.999Z</time></trkpt><trkpt lat="43.5360578454261" lon="11.054432274210182"><ele>69.0</ele><time>2026-04-04T12:43:28.999Z</time></trkpt><trkpt lat="43.53598246357889" lon="11.05459416848496"><ele>68.0</ele><time>2026-04-04T12:43:29.999Z</time></trkpt><trkpt lat="43.53590914311031" lon="11.054744661623834"><ele>68.0</ele><time>2026-04-04T12:43:30.999Z</time></trkpt><trkpt lat="43.535845894797426" lon="11.05487721585174"><ele>68.0</ele><time>2026-04-04T12:43:31.999Z</time></trkpt><trkpt lat="43.53578340089675" lon="11.055000958682125"><ele>68.0</ele><time>2026-04-04T12:43:32.999Z</time></trkpt><trkpt lat="43.53572043102312" lon="11.05512145510516"><ele>68.0</ele><time>2026-04-04T12:43:33.999Z</time></trkpt><trkpt lat="43.53563870832294" lon="11.055218460248117"><ele>68.0</ele><time>2026-04-04T12:43:35Z</time></trkpt><trkpt lat="43.53555709120353" lon="11.055303404550312"><ele>68.0</ele><time>2026-04-04T12:43:36Z</time></trkpt><trkpt lat="43.53546862813033" lon="11.055394171046906"><ele>68.0</ele><time>2026-04-04T12:43:37Z</time></trkpt><trkpt lat="43.5353890231758" lon="11.055494126123746"><ele>68.0</ele><time>2026-04-04T12:43:38Z</time></trkpt><trkpt lat="43.53530727055046" lon="11.05558212543066"><ele>68.0</ele><time>2026-04-04T12:43:39Z</time></trkpt><trkpt lat="43.53521822211818" lon="11.055674270434013"><ele>68.0</ele><time>2026-04-04T12:43:40Z</time></trkpt><trkpt lat="43.53512325637725" lon="11.055769352838302"><ele>68.2</ele><time>2026-04-04T12:43:41Z</time></trkpt><trkpt lat="43.535042599104365" lon="11.055856566628963"><ele>68.4</ele><time>2026-04-04T12:43:42Z</time></trkpt><trkpt lat="43.53495890611891" lon="11.055937762117722"><ele>68.60000000000001</ele><time>2026-04-04T12:43:43Z</time></trkpt><trkpt lat="43.534868742300795" lon="11.056037283132415"><ele>68.8</ele><time>2026-04-04T12:43:44Z</time></trkpt><trkpt lat="43.53477933420378" lon="11.056141559622855"><ele>69.0</ele><time>2026-04-04T12:43:45Z</time></trkpt><trkpt lat="43.53470463519624" lon="11.056238473077004"><ele>69.0</ele><time>2026-04-04T12:43:46Z</time></trkpt><trkpt lat="43.53462262377066" lon="11.056335604579923"><ele>69.0</ele><time>2026-04-04T12:43:47Z</time></trkpt><trkpt lat="43.53453271896736" lon="11.056455799813646"><ele>69.0</ele><time>2026-04-04T12:43:48Z</time></trkpt><trkpt lat="43.53443142681955" lon="11.056556489542478"><ele>69.0</ele><time>2026-04-04T12:43:49Z</time></trkpt><trkpt lat="43.53434273911696" lon="11.05667149303086"><ele>69.0</ele><time>2026-04-04T12:43:50Z</time></trkpt><trkpt lat="43.53426838125669" lon="11.056803529417234"><ele>69.0</ele><time>2026-04-04T12:43:51Z</time></trkpt><trkpt lat="43.53419510739925" lon="11.05692010143897"><ele>69.0</ele><time>2026-04-04T12:43:52Z</time></trkpt><trkpt lat="43.53413552346153" lon="11.057039103554354"><ele>69.0</ele><time>2026-04-04T12:43:53Z</time></trkpt><trkpt lat="43.53407446660459" lon="11.057175275646964"><ele>69.0</ele><time>2026-04-04T12:43:54Z</time></trkpt><trkpt lat="43.53402077412499" lon="11.057323779421385"><ele>69.0</ele><time>2026-04-04T12:43:55Z</time></trkpt><trkpt lat="43.53396079007208" lon="11.057453910901756"><ele>69.0</ele><time>2026-04-04T12:43:56Z</time></trkpt><trkpt lat="43.53391620090321" lon="11.057580208226131"><ele>69.0</ele><time>2026-04-04T12:43:57Z</time></trkpt><trkpt lat="43.53386415449817" lon="11.057713665177682"><ele>69.0</ele><time>2026-04-04T12:43:58Z</time></trkpt><trkpt lat="43.533810732682646" lon="11.05783504137113"><ele>69.0</ele><time>2026-04-04T12:43:59Z</time></trkpt><trkpt lat="43.533743340170695" lon="11.0579608165374"><ele>69.0</ele><time>2026-04-04T12:44:00Z</time></trkpt><trkpt lat="43.533663403220594" lon="11.058094011517822"><ele>69.0</ele><time>2026-04-04T12:44:01Z</time></trkpt><trkpt lat="43.53359206606182" lon="11.05819752177621"><ele>69.0</ele><time>2026-04-04T12:44:02Z</time></trkpt><trkpt lat="43.53354431980479" lon="11.058264908333577"><ele>69.0</ele><time>2026-04-04T12:44:03Z</time></trkpt><trkpt lat="43.5334602204611" lon="11.058376311850331"><ele>69.25</ele><time>2026-04-04T12:44:05Z</time></trkpt><trkpt lat="43.533374999049016" lon="11.05848781197307"><ele>69.5</ele><time>2026-04-04T12:44:07Z</time></trkpt><trkpt lat="43.53331817152625" lon="11.058548767535168"><ele>69.75</ele><time>2026-04-04T12:44:08Z</time></trkpt><trkpt lat="43.53321635788553" lon="11.058690192494371"><ele>70.0</ele><time>2026-04-04T12:44:10Z</time></trkpt><trkpt lat="43.53313601058286" lon="11.058814379430187"><ele>70.0</ele><time>2026-04-04T12:44:11Z</time></trkpt><trkpt lat="43.53302485244722" lon="11.0589389462249"><ele>70.0</ele><time>2026-04-04T12:44:12Z</time></trkpt><trkpt lat="43.53290694217795" lon="11.059094546332883"><ele>70.0</ele><time>2026-04-04T12:44:13Z</time></trkpt><trkpt lat="43.532781283763164" lon="11.059263514739238"><ele>70.33333333333333</ele><time>2026-04-04T12:44:14Z</time></trkpt><trkpt lat="43.53264204742985" lon="11.059456160776191"><ele>70.66666666666667</ele><time>2026-04-04T12:44:15Z</time></trkpt><trkpt lat="43.53249691173245" lon="11.059637576294643"><ele>71.0</ele><time>2026-04-04T12:44:16Z</time></trkpt><trkpt lat="43.532362758468224" lon="11.059803738109874"><ele>71.0</ele><time>2026-04-04T12:44:17Z</time></trkpt><trkpt lat="43.53223145035206" lon="11.05994973456111"><ele>71.0</ele><time>2026-04-04T12:44:18Z</time></trkpt><trkpt lat="43.5321030546283" lon="11.060099476157422"><ele>71.0</ele><time>2026-04-04T12:44:19Z</time></trkpt><trkpt lat="43.53196684809225" lon="11.060258217836404"><ele>71.0</ele><time>2026-04-04T12:44:20Z</time></trkpt><trkpt lat="43.53182159775582" lon="11.060424208096643"><ele>71.0</ele><time>2026-04-04T12:44:21Z</time></trkpt><trkpt lat="43.53167527357245" lon="11.060592159948701"><ele>71.0</ele><time>2026-04-04T12:44:22Z</time></trkpt><trkpt lat="43.53152544954654" lon="11.06075871104791"><ele>71.66666666666667</ele><time>2026-04-04T12:44:23Z</time></trkpt><trkpt lat="43.5313836036655" lon="11.060923284702367"><ele>72.33333333333333</ele><time>2026-04-04T12:44:24Z</time></trkpt><trkpt lat="43.53124271461327" lon="11.061088950818117"><ele>73.0</ele><time>2026-04-04T12:44:25Z</time></trkpt><trkpt lat="43.53110466554419" lon="11.061248183210385"><ele>73.0</ele><time>2026-04-04T12:44:26Z</time></trkpt><trkpt lat="43.530977926911234" lon="11.061396294409509"><ele>73.0</ele><time>2026-04-04T12:44:27Z</time></trkpt><trkpt lat="43.530852319313325" lon="11.061536587858063"><ele>73.0</ele><time>2026-04-04T12:44:28Z</time></trkpt><trkpt lat="43.53072628859811" lon="11.061673657426205"><ele>73.0</ele><time>2026-04-04T12:44:29Z</time></trkpt><trkpt lat="43.53060933056455" lon="11.06181009207122"><ele>73.0</ele><time>2026-04-04T12:44:30Z</time></trkpt><trkpt lat="43.530503565761386" lon="11.061929660146255"><ele>73.0</ele><time>2026-04-04T12:44:31Z</time></trkpt><trkpt lat="43.530403156722116" lon="11.062053820322499"><ele>73.0</ele><time>2026-04-04T12:44:32Z</time></trkpt><trkpt lat="43.530308309391025" lon="11.062198751248783"><ele>73.0</ele><time>2026-04-04T12:44:33Z</time></trkpt><trkpt lat="43.530219138788" lon="11.062370579996083"><ele>73.0</ele><time>2026-04-04T12:44:34Z</time></trkpt><trkpt lat="43.53014452133433" lon="11.062566522565689"><ele>73.0</ele><time>2026-04-04T12:44:35Z</time></trkpt><trkpt lat="43.530089343885976" lon="11.062747295229954"><ele>74.0</ele><time>2026-04-04T12:44:36Z</time></trkpt><trkpt lat="43.530046727917366" lon="11.062937016858836"><ele>75.0</ele><time>2026-04-04T12:44:37Z</time></trkpt><trkpt lat="43.530011781869646" lon="11.06314327193547"><ele>76.0</ele><time>2026-04-04T12:44:38Z</time></trkpt><trkpt lat="43.53000728805284" lon="11.063352595020175"><ele>77.0</ele><time>2026-04-04T12:44:39Z</time></trkpt><trkpt lat="43.530024531193156" lon="11.06353962153751"><ele>78.0</ele><time>2026-04-04T12:44:40Z</time></trkpt><trkpt lat="43.530048519215256" lon="11.063719938344777"><ele>79.0</ele><time>2026-04-04T12:44:41Z</time></trkpt><trkpt lat="43.53007731825487" lon="11.063912825221795"><ele>80.0</ele><time>2026-04-04T12:44:42Z</time></trkpt><trkpt lat="43.53011225501354" lon="11.06410363233333"><ele>81.0</ele><time>2026-04-04T12:44:43Z</time></trkpt><trkpt lat="43.53015718575396" lon="11.064301010400913"><ele>81.66666666666667</ele><time>2026-04-04T12:44:44Z</time></trkpt><trkpt lat="43.53020588099329" lon="11.06450376813099"><ele>82.33333333333334</ele><time>2026-04-04T12:44:45Z</time></trkpt><trkpt lat="43.530251911272686" lon="11.064715855741868"><ele>83.0</ele><time>2026-04-04T12:44:46Z</time></trkpt><trkpt lat="43.5303022519499" lon="11.064933758104763"><ele>82.66666666666667</ele><time>2026-04-04T12:44:47Z</time></trkpt><trkpt lat="43.53034687530754" lon="11.06516608431566"><ele>82.33333333333333</ele><time>2026-04-04T12:44:48Z</time></trkpt><trkpt lat="43.530397847711114" lon="11.06542011587924"><ele>82.0</ele><time>2026-04-04T12:44:49Z</time></trkpt><trkpt lat="43.53043562232014" lon="11.065686900890086"><ele>84.33333333333333</ele><time>2026-04-04T12:44:50Z</time></trkpt><trkpt lat="43.530470829381976" lon="11.065960305819816"><ele>86.66666666666667</ele><time>2026-04-04T12:44:51Z</time></trkpt><trkpt lat="43.53047755946742" lon="11.066258629627704"><ele>89.0</ele><time>2026-04-04T12:44:52Z</time></trkpt><trkpt lat="43.53047754638017" lon="11.066556061273857"><ele>87.66666666666667</ele><time>2026-04-04T12:44:53Z</time></trkpt><trkpt lat="43.53048188865513" lon="11.066838300822027"><ele>86.33333333333333</ele><time>2026-04-04T12:44:54Z</time></trkpt><trkpt lat="43.53048830023866" lon="11.067119125520849"><ele>85.0</ele><time>2026-04-04T12:44:55Z</time></trkpt><trkpt lat="43.53049646849842" lon="11.06740855065957"><ele>84.33333333333333</ele><time>2026-04-04T12:44:56Z</time></trkpt><trkpt lat="43.53050875695796" lon="11.067699997869033"><ele>83.66666666666667</ele><time>2026-04-04T12:44:57Z</time></trkpt><trkpt lat="43.530519856089725" lon="11.06799248182717"><ele>83.0</ele><time>2026-04-04T12:44:58Z</time></trkpt><trkpt lat="43.53052548515786" lon="11.06827613157428"><ele>82.33333333333334</ele><time>2026-04-04T12:44:59Z</time></trkpt><trkpt lat="43.53053372659465" lon="11.068565113483366"><ele>81.66666666666667</ele><time>2026-04-04T12:45:00Z</time></trkpt><trkpt lat="43.53054582830431" lon="11.068851275556328"><ele>81.0</ele><time>2026-04-04T12:45:01Z</time></trkpt><trkpt lat="43.53053795810304" lon="11.069128410438246"><ele>79.33333333333333</ele><time>2026-04-04T12:45:02Z</time></trkpt><trkpt lat="43.530541713014074" lon="11.069392211495954"><ele>77.66666666666666</ele><time>2026-04-04T12:45:03Z</time></trkpt><trkpt lat="43.53055867002506" lon="11.069643775105908"><ele>76.0</ele><time>2026-04-04T12:45:04Z</time></trkpt><trkpt lat="43.53055604218429" lon="11.069890864473548"><ele>75.66666666666666</ele><time>2026-04-04T12:45:05Z</time></trkpt><trkpt lat="43.530542025862985" lon="11.070140426354326"><ele>75.33333333333333</ele><time>2026-04-04T12:45:06Z</time></trkpt><trkpt lat="43.53048956946507" lon="11.07036832001879"><ele>75.0</ele><time>2026-04-04T12:45:07Z</time></trkpt><trkpt lat="43.53039964114857" lon="11.070617039661254"><ele>74.66666666666667</ele><time>2026-04-04T12:45:08Z</time></trkpt><trkpt lat="43.530275778695945" lon="11.070867103061342"><ele>74.33333333333334</ele><time>2026-04-04T12:45:09Z</time></trkpt><trkpt lat="43.5301512043339" lon="11.071131793478287"><ele>74.0</ele><time>2026-04-04T12:45:10Z</time></trkpt><trkpt lat="43.53001748948969" lon="11.071384318356644"><ele>73.66666666666667</ele><time>2026-04-04T12:45:11Z</time></trkpt><trkpt lat="43.52989459886652" lon="11.07163661518877"><ele>73.33333333333333</ele><time>2026-04-04T12:45:12Z</time></trkpt><trkpt lat="43.529770403737395" lon="11.071897474450994"><ele>73.0</ele><time>2026-04-04T12:45:12.999Z</time></trkpt><trkpt lat="43.52964363227032" lon="11.072163378202356"><ele>73.0</ele><time>2026-04-04T12:45:13.999Z</time></trkpt><trkpt lat="43.529507763121174" lon="11.072447954115841"><ele>73.0</ele><time>2026-04-04T12:45:14.999Z</time></trkpt><trkpt lat="43.52935961409381" lon="11.072746049822811"><ele>73.0</ele><time>2026-04-04T12:45:15.999Z</time></trkpt><trkpt lat="43.52921648906192" lon="11.073076586794791"><ele>73.0</ele><time>2026-04-04T12:45:16.999Z</time></trkpt><trkpt lat="43.5290679948872" lon="11.073423676697754"><ele>73.5</ele><time>2026-04-04T12:45:17.999Z</time></trkpt><trkpt lat="43.52891024261292" lon="11.073773832864573"><ele>74.0</ele><time>2026-04-04T12:45:18.999Z</time></trkpt><trkpt lat="43.52876092733224" lon="11.074101128790344"><ele>73.0</ele><time>2026-04-04T12:45:19.999Z</time></trkpt><trkpt lat="43.52862470180373" lon="11.074407940747832"><ele>72.0</ele><time>2026-04-04T12:45:20.999Z</time></trkpt><trkpt lat="43.52849026204087" lon="11.07470731454722"><ele>72.5</ele><time>2026-04-04T12:45:21.999Z</time></trkpt><trkpt lat="43.52835901903961" lon="11.074994851804009"><ele>73.0</ele><time>2026-04-04T12:45:22.999Z</time></trkpt><trkpt lat="43.528242754868785" lon="11.075262140617337"><ele>73.0</ele><time>2026-04-04T12:45:23.999Z</time></trkpt><trkpt lat="43.52813335790921" lon="11.07550625017984"><ele>73.0</ele><time>2026-04-04T12:45:24.999Z</time></trkpt><trkpt lat="43.5280282128291" lon="11.075731263467736"><ele>73.0</ele><time>2026-04-04T12:45:25.999Z</time></trkpt><trkpt lat="43.52791606124821" lon="11.075936776750178"><ele>73.0</ele><time>2026-04-04T12:45:26.999Z</time></trkpt><trkpt lat="43.52780385270362" lon="11.076138704311893"><ele>73.0</ele><time>2026-04-04T12:45:27.999Z</time></trkpt><trkpt lat="43.52766573997814" lon="11.076325211000492"><ele>73.0</ele><time>2026-04-04T12:45:28.999Z</time></trkpt><trkpt lat="43.527510774655596" lon="11.076505956472872"><ele>73.0</ele><time>2026-04-04T12:45:29.999Z</time></trkpt><trkpt lat="43.527354345834404" lon="11.07670034627109"><ele>73.0</ele><time>2026-04-04T12:45:30.999Z</time></trkpt><trkpt lat="43.52718472881748" lon="11.07687915873115"><ele>73.0</ele><time>2026-04-04T12:45:31.999Z</time></trkpt><trkpt lat="43.52702474936156" lon="11.077060394512337"><ele>73.0</ele><time>2026-04-04T12:45:32.999Z</time></trkpt><trkpt lat="43.52687248814129" lon="11.077234500627885"><ele>73.0</ele><time>2026-04-04T12:45:33.999Z</time></trkpt><trkpt lat="43.526714371904326" lon="11.077406187988874"><ele>73.0</ele><time>2026-04-04T12:45:34.999Z</time></trkpt><trkpt lat="43.52656500141918" lon="11.077571844161744"><ele>73.0</ele><time>2026-04-04T12:45:35.999Z</time></trkpt><trkpt lat="43.52641824251532" lon="11.077736706231034"><ele>73.0</ele><time>2026-04-04T12:45:36.999Z</time></trkpt><trkpt lat="43.52625854821464" lon="11.077896691065071"><ele>73.0</ele><time>2026-04-04T12:45:37.999Z</time></trkpt><trkpt lat="43.52609715647747" lon="11.078047771199289"><ele>73.33333333333333</ele><time>2026-04-04T12:45:38.999Z</time></trkpt><trkpt lat="43.525928324565434" lon="11.078198647431707"><ele>73.66666666666667</ele><time>2026-04-04T12:45:39.999Z</time></trkpt><trkpt lat="43.52575707527954" lon="11.078340154212883"><ele>74.0</ele><time>2026-04-04T12:45:40.999Z</time></trkpt><trkpt lat="43.525585310976716" lon="11.078482200762886"><ele>74.0</ele><time>2026-04-04T12:45:41.999Z</time></trkpt><trkpt lat="43.52541010111983" lon="11.078629648842782"><ele>74.0</ele><time>2026-04-04T12:45:42.999Z</time></trkpt><trkpt lat="43.52523427721276" lon="11.078777446124876"><ele>74.0</ele><time>2026-04-04T12:45:43.999Z</time></trkpt><trkpt lat="43.52505711552714" lon="11.07892833181331"><ele>74.0</ele><time>2026-04-04T12:45:44.999Z</time></trkpt><trkpt lat="43.52488158777777" lon="11.079079033937122"><ele>74.0</ele><time>2026-04-04T12:45:45.999Z</time></trkpt><trkpt lat="43.52469667378726" lon="11.07922547111355"><ele>74.0</ele><time>2026-04-04T12:45:46.999Z</time></trkpt><trkpt lat="43.52451511052478" lon="11.079368885472382"><ele>74.0</ele><time>2026-04-04T12:45:47.999Z</time></trkpt><trkpt lat="43.524342527486176" lon="11.079506055309807"><ele>74.0</ele><time>2026-04-04T12:45:48.999Z</time></trkpt><trkpt lat="43.52416555158984" lon="11.079647692770095"><ele>74.0</ele><time>2026-04-04T12:45:49.999Z</time></trkpt><trkpt lat="43.52398027738371" lon="11.079796042273532"><ele>73.5</ele><time>2026-04-04T12:45:50.999Z</time></trkpt><trkpt lat="43.52378348362561" lon="11.079959019083303"><ele>73.0</ele><time>2026-04-04T12:45:51.999Z</time></trkpt><trkpt lat="43.52358462431422" lon="11.080124112917735"><ele>72.5</ele><time>2026-04-04T12:45:52.999Z</time></trkpt><trkpt lat="43.52338277423514" lon="11.080292580616279"><ele>72.0</ele><time>2026-04-04T12:45:53.999Z</time></trkpt><trkpt lat="43.52318671235371" lon="11.080454152464593"><ele>72.0</ele><time>2026-04-04T12:45:54.999Z</time></trkpt><trkpt lat="43.523003005101856" lon="11.080607549183519"><ele>72.0</ele><time>2026-04-04T12:45:55.999Z</time></trkpt><trkpt lat="43.522829273790165" lon="11.080748617664764"><ele>72.0</ele><time>2026-04-04T12:45:56.999Z</time></trkpt><trkpt lat="43.522660592668906" lon="11.08088794234568"><ele>72.33333333333333</ele><time>2026-04-04T12:45:57.999Z</time></trkpt><trkpt lat="43.522510247768736" lon="11.081013773343543"><ele>72.66666666666666</ele><time>2026-04-04T12:45:58.999Z</time></trkpt><trkpt lat="43.522370829918856" lon="11.081135636436214"><ele>73.0</ele><time>2026-04-04T12:45:59.999Z</time></trkpt><trkpt lat="43.522235198164154" lon="11.08124688276528"><ele>73.0</ele><time>2026-04-04T12:46:00.999Z</time></trkpt><trkpt lat="43.522102761500186" lon="11.081349114068598"><ele>73.0</ele><time>2026-04-04T12:46:01.999Z</time></trkpt><trkpt lat="43.521981756382594" lon="11.08145619648272"><ele>73.0</ele><time>2026-04-04T12:46:02.999Z</time></trkpt><trkpt lat="43.521854879058104" lon="11.081570441388726"><ele>73.0</ele><time>2026-04-04T12:46:03.999Z</time></trkpt><trkpt lat="43.52172535245403" lon="11.08167985770537"><ele>73.33333333333333</ele><time>2026-04-04T12:46:04.999Z</time></trkpt><trkpt lat="43.52158719196675" lon="11.08179267619091"><ele>73.66666666666667</ele><time>2026-04-04T12:46:05.999Z</time></trkpt><trkpt lat="43.52144801795117" lon="11.081904894315635"><ele>74.0</ele><time>2026-04-04T12:46:06.999Z</time></trkpt><trkpt lat="43.52131140344772" lon="11.082011707711587"><ele>73.33333333333334</ele><time>2026-04-04T12:46:07.999Z</time></trkpt><trkpt lat="43.52117064854188" lon="11.082125281615921"><ele>72.66666666666667</ele><time>2026-04-04T12:46:08.999Z</time></trkpt><trkpt lat="43.52101760621623" lon="11.082243548195226"><ele>72.0</ele><time>2026-04-04T12:46:09.999Z</time></trkpt><trkpt lat="43.52086230323492" lon="11.08233641814425"><ele>72.0</ele><time>2026-04-04T12:46:10.999Z</time></trkpt><trkpt lat="43.520712540830516" lon="11.082418508356762"><ele>72.0</ele><time>2026-04-04T12:46:11.999Z</time></trkpt><trkpt lat="43.52058064823331" lon="11.08249165144958"><ele>72.0</ele><time>2026-04-04T12:46:12.999Z</time></trkpt><trkpt lat="43.520451172396236" lon="11.082548997620464"><ele>72.0</ele><time>2026-04-04T12:46:13.999Z</time></trkpt><trkpt lat="43.52033144211065" lon="11.082603363762312"><ele>72.25</ele><time>2026-04-04T12:46:14.999Z</time></trkpt><trkpt lat="43.52021820821155" lon="11.082652650647265"><ele>72.5</ele><time>2026-04-04T12:46:15.999Z</time></trkpt><trkpt lat="43.52010676308938" lon="11.08270576245166"><ele>72.75</ele><time>2026-04-04T12:46:16.999Z</time></trkpt><trkpt lat="43.519998482475216" lon="11.08276282928228"><ele>73.0</ele><time>2026-04-04T12:46:17.999Z</time></trkpt><trkpt lat="43.519898518205615" lon="11.082815697906273"><ele>73.0</ele><time>2026-04-04T12:46:18.999Z</time></trkpt><trkpt lat="43.51980274576798" lon="11.082868330340753"><ele>73.0</ele><time>2026-04-04T12:46:19.999Z</time></trkpt><trkpt lat="43.519712011521605" lon="11.082932303785494"><ele>73.0</ele><time>2026-04-04T12:46:20.999Z</time></trkpt><trkpt lat="43.51961929431271" lon="11.083003159173716"><ele>73.0</ele><time>2026-04-04T12:46:21.999Z</time></trkpt><trkpt lat="43.51953609683745" lon="11.08307648455696"><ele>73.0</ele><time>2026-04-04T12:46:22.999Z</time></trkpt><trkpt lat="43.51945929146319" lon="11.083151112237397"><ele>73.16666666666666</ele><time>2026-04-04T12:46:23.999Z</time></trkpt><trkpt lat="43.51938848484863" lon="11.083221130106255"><ele>73.33333333333333</ele><time>2026-04-04T12:46:24.999Z</time></trkpt><trkpt lat="43.519318932681756" lon="11.083286649684242"><ele>73.5</ele><time>2026-04-04T12:46:25.999Z</time></trkpt><trkpt lat="43.51924926134699" lon="11.083340081946416"><ele>73.66666666666667</ele><time>2026-04-04T12:46:26.999Z</time></trkpt><trkpt lat="43.51917909837324" lon="11.083372468723784"><ele>73.83333333333334</ele><time>2026-04-04T12:46:27.999Z</time></trkpt><trkpt lat="43.519107181380924" lon="11.083378535381401"><ele>74.0</ele><time>2026-04-04T12:46:28.999Z</time></trkpt><trkpt lat="43.51903804261891" lon="11.083363425406276"><ele>74.0</ele><time>2026-04-04T12:46:29.999Z</time></trkpt><trkpt lat="43.51896179507586" lon="11.083322085467564"><ele>74.0</ele><time>2026-04-04T12:46:30.999Z</time></trkpt><trkpt lat="43.51888570415136" lon="11.083250867887282"><ele>74.0</ele><time>2026-04-04T12:46:31.999Z</time></trkpt><trkpt lat="43.51881495522482" lon="11.08315324896374"><ele>74.0</ele><time>2026-04-04T12:46:32.999Z</time></trkpt><trkpt lat="43.518733075234785" lon="11.08305982185588"><ele>74.0</ele><time>2026-04-04T12:46:33.999Z</time></trkpt><trkpt lat="43.51864052889317" lon="11.082993421669284"><ele>74.0</ele><time>2026-04-04T12:46:34.999Z</time></trkpt><trkpt lat="43.518542594117285" lon="11.082964395704906"><ele>74.0</ele><time>2026-04-04T12:46:35.999Z</time></trkpt><trkpt lat="43.518428107744874" lon="11.082972252603367"><ele>74.0</ele><time>2026-04-04T12:46:36.999Z</time></trkpt><trkpt lat="43.51830984260162" lon="11.083030555390359"><ele>74.0</ele><time>2026-04-04T12:46:37.999Z</time></trkpt><trkpt lat="43.51818893050274" lon="11.083117294716986"><ele>74.0</ele><time>2026-04-04T12:46:38.999Z</time></trkpt><trkpt lat="43.51806682509029" lon="11.083229944306796"><ele>74.0</ele><time>2026-04-04T12:46:39.999Z</time></trkpt><trkpt lat="43.51793347978347" lon="11.083360041535162"><ele>74.0</ele><time>2026-04-04T12:46:40.999Z</time></trkpt><trkpt lat="43.517801150655444" lon="11.083498686704303"><ele>74.33333333333334</ele><time>2026-04-04T12:46:41.999Z</time></trkpt><trkpt lat="43.517622738822105" lon="11.083590541567952"><ele>74.66666666666667</ele><time>2026-04-04T12:46:42.999Z</time></trkpt><trkpt lat="43.51746356030897" lon="11.083768606710615"><ele>75.0</ele><time>2026-04-04T12:46:43.999Z</time></trkpt><trkpt lat="43.51731248318659" lon="11.08394370380546"><ele>75.0</ele><time>2026-04-04T12:46:44.999Z</time></trkpt><trkpt lat="43.517177410959384" lon="11.084103169499995"><ele>75.0</ele><time>2026-04-04T12:46:45.999Z</time></trkpt><trkpt lat="43.51705183099232" lon="11.084249883993001"><ele>75.0</ele><time>2026-04-04T12:46:46.999Z</time></trkpt><trkpt lat="43.51695135520626" lon="11.084370234898637"><ele>75.0</ele><time>2026-04-04T12:46:47.999Z</time></trkpt><trkpt lat="43.516857279866464" lon="11.084478154382877"><ele>75.0</ele><time>2026-04-04T12:46:48.999Z</time></trkpt><trkpt lat="43.51677087304174" lon="11.084577027111823"><ele>75.0</ele><time>2026-04-04T12:46:49.999Z</time></trkpt><trkpt lat="43.5166760470673" lon="11.08466487473815"><ele>75.0</ele><time>2026-04-04T12:46:50.999Z</time></trkpt><trkpt lat="43.51656214429168" lon="11.084703016064049"><ele>75.0</ele><time>2026-04-04T12:46:51.999Z</time></trkpt><trkpt lat="43.51643513492625" lon="11.084694586490404"><ele>75.0</ele><time>2026-04-04T12:46:52.999Z</time></trkpt><trkpt lat="43.51630856956741" lon="11.084647066935435"><ele>75.0</ele><time>2026-04-04T12:46:53.999Z</time></trkpt><trkpt lat="43.51617344637509" lon="11.084567635888186"><ele>75.0</ele><time>2026-04-04T12:46:54.999Z</time></trkpt><trkpt lat="43.5160611640115" lon="11.084455846621323"><ele>75.0</ele><time>2026-04-04T12:46:55.999Z</time></trkpt><trkpt lat="43.515964452580505" lon="11.0842953371049"><ele>75.0</ele><time>2026-04-04T12:46:56.999Z</time></trkpt><trkpt lat="43.51587015104856" lon="11.084110655782817"><ele>75.0</ele><time>2026-04-04T12:46:57.999Z</time></trkpt><trkpt lat="43.515784403420405" lon="11.083944270596499"><ele>74.75</ele><time>2026-04-04T12:46:58.999Z</time></trkpt><trkpt lat="43.51573038328445" lon="11.083777295118528"><ele>74.5</ele><time>2026-04-04T12:46:59.999Z</time></trkpt><trkpt lat="43.51566427290385" lon="11.083616021601038"><ele>74.25</ele><time>2026-04-04T12:47:00.999Z</time></trkpt><trkpt lat="43.5156036199972" lon="11.083466479809433"><ele>74.0</ele><time>2026-04-04T12:47:01.999Z</time></trkpt><trkpt lat="43.51554373135722" lon="11.08334055476624"><ele>74.0</ele><time>2026-04-04T12:47:02.999Z</time></trkpt><trkpt lat="43.51549155521931" lon="11.083203860170263"><ele>74.0</ele><time>2026-04-04T12:47:03.999Z</time></trkpt><trkpt lat="43.51544763053618" lon="11.083074938625648"><ele>74.0</ele><time>2026-04-04T12:47:04.999Z</time></trkpt><trkpt lat="43.51540671299832" lon="11.08296388175408"><ele>74.0</ele><time>2026-04-04T12:47:05.999Z</time></trkpt><trkpt lat="43.515381789791356" lon="11.08286303976948"><ele>74.0</ele><time>2026-04-04T12:47:06.999Z</time></trkpt><trkpt lat="43.51536645767301" lon="11.08275934334175"><ele>73.83333333333334</ele><time>2026-04-04T12:47:07.999Z</time></trkpt><trkpt lat="43.5153678791331" lon="11.082667500937415"><ele>73.66666666666667</ele><time>2026-04-04T12:47:08.999Z</time></trkpt><trkpt lat="43.51538531780816" lon="11.082562531598407"><ele>73.5</ele><time>2026-04-04T12:47:09.999Z</time></trkpt><trkpt lat="43.51537908019157" lon="11.082471741319099"><ele>73.33333333333333</ele><time>2026-04-04T12:47:10.999Z</time></trkpt><trkpt lat="43.515308507832536" lon="11.082336616545481"><ele>73.16666666666666</ele><time>2026-04-04T12:47:12.999Z</time></trkpt><trkpt lat="43.515238221270835" lon="11.082310854387154"><ele>73.0</ele><time>2026-04-04T12:47:13.999Z</time></trkpt><trkpt lat="43.51516410685266" lon="11.082321550017227"><ele>73.0</ele><time>2026-04-04T12:47:14.999Z</time></trkpt><trkpt lat="43.51508786890506" lon="11.08237519633983"><ele>73.0</ele><time>2026-04-04T12:47:15.999Z</time></trkpt><trkpt lat="43.51501100733935" lon="11.082456399275822"><ele>73.0</ele><time>2026-04-04T12:47:16.999Z</time></trkpt><trkpt lat="43.51491868381128" lon="11.082534504580867"><ele>73.0</ele><time>2026-04-04T12:47:17.999Z</time></trkpt><trkpt lat="43.514796220830235" lon="11.082583303402888"><ele>73.0</ele><time>2026-04-04T12:47:18.999Z</time></trkpt><trkpt lat="43.51465163713097" lon="11.082612007674571"><ele>73.66666666666666</ele><time>2026-04-04T12:47:19.999Z</time></trkpt><trkpt lat="43.51448297386726" lon="11.082641977048366"><ele>74.33333333333333</ele><time>2026-04-04T12:47:20.999Z</time></trkpt><trkpt lat="43.51426010911491" lon="11.08268399859241"><ele>75.0</ele><time>2026-04-04T12:47:21.999Z</time></trkpt><trkpt lat="43.514028487150476" lon="11.082719608790306"><ele>75.0</ele><time>2026-04-04T12:47:22.999Z</time></trkpt><trkpt lat="43.513792608759445" lon="11.08274744794724"><ele>75.0</ele><time>2026-04-04T12:47:23.999Z</time></trkpt><trkpt lat="43.513551041113836" lon="11.082781626683499"><ele>74.5</ele><time>2026-04-04T12:47:24.999Z</time></trkpt><trkpt lat="43.51331572138528" lon="11.08281868436722"><ele>74.0</ele><time>2026-04-04T12:47:25.999Z</time></trkpt><trkpt lat="43.51309427239066" lon="11.082852132429114"><ele>74.33333333333334</ele><time>2026-04-04T12:47:26.999Z</time></trkpt><trkpt lat="43.51288626963415" lon="11.082880400528227"><ele>74.66666666666667</ele><time>2026-04-04T12:47:27.999Z</time></trkpt><trkpt lat="43.5126837288477" lon="11.08290659720766"><ele>75.0</ele><time>2026-04-04T12:47:28.999Z</time></trkpt><trkpt lat="43.51247254012617" lon="11.082933327958514"><ele>75.0</ele><time>2026-04-04T12:47:29.999Z</time></trkpt><trkpt lat="43.51224811040133" lon="11.082963899678463"><ele>75.0</ele><time>2026-04-04T12:47:30.999Z</time></trkpt><trkpt lat="43.512033789200544" lon="11.08299322250643"><ele>75.0</ele><time>2026-04-04T12:47:31.999Z</time></trkpt><trkpt lat="43.51183288158159" lon="11.083033531124215"><ele>74.66666666666667</ele><time>2026-04-04T12:47:32.999Z</time></trkpt><trkpt lat="43.51162818754384" lon="11.083073610775466"><ele>74.33333333333334</ele><time>2026-04-04T12:47:33.999Z</time></trkpt><trkpt lat="43.51140677652642" lon="11.083140284402825"><ele>74.0</ele><time>2026-04-04T12:47:34.999Z</time></trkpt><trkpt lat="43.511169345229675" lon="11.083229988830526"><ele>73.5</ele><time>2026-04-04T12:47:35.999Z</time></trkpt><trkpt lat="43.510934009522934" lon="11.083320090200848"><ele>73.0</ele><time>2026-04-04T12:47:36.999Z</time></trkpt><trkpt lat="43.5107005626359" lon="11.08341894739223"><ele>73.0</ele><time>2026-04-04T12:47:37.999Z</time></trkpt><trkpt lat="43.51046809708791" lon="11.083527174419478"><ele>73.0</ele><time>2026-04-04T12:47:38.999Z</time></trkpt><trkpt lat="43.510232199341075" lon="11.083648033958113"><ele>74.5</ele><time>2026-04-04T12:47:39.999Z</time></trkpt><trkpt lat="43.50999101753234" lon="11.083781177996611"><ele>76.0</ele><time>2026-04-04T12:47:40.999Z</time></trkpt><trkpt lat="43.509746027860466" lon="11.083906910091082"><ele>75.0</ele><time>2026-04-04T12:47:41.999Z</time></trkpt><trkpt lat="43.509489216770774" lon="11.084034358225068"><ele>74.0</ele><time>2026-04-04T12:47:42.999Z</time></trkpt><trkpt lat="43.50923766547133" lon="11.084165829104936"><ele>74.0</ele><time>2026-04-04T12:47:43.999Z</time></trkpt><trkpt lat="43.50897648365758" lon="11.084274016812806"><ele>74.0</ele><time>2026-04-04T12:47:44.999Z</time></trkpt><trkpt lat="43.50872467844917" lon="11.084420937105477"><ele>74.5</ele><time>2026-04-04T12:47:45.999Z</time></trkpt><trkpt lat="43.50846394347301" lon="11.084549033993225"><ele>75.0</ele><time>2026-04-04T12:47:46.999Z</time></trkpt><trkpt lat="43.50820513893218" lon="11.084679816023977"><ele>75.0</ele><time>2026-04-04T12:47:47.999Z</time></trkpt><trkpt lat="43.507939669825674" lon="11.084813259324017"><ele>75.0</ele><time>2026-04-04T12:47:48.999Z</time></trkpt><trkpt lat="43.507664458393556" lon="11.084949734484697"><ele>75.0</ele><time>2026-04-04T12:47:49.999Z</time></trkpt><trkpt lat="43.50739356894246" lon="11.085082504284989"><ele>75.0</ele><time>2026-04-04T12:47:50.999Z</time></trkpt><trkpt lat="43.50714223841898" lon="11.085212511735346"><ele>75.5</ele><time>2026-04-04T12:47:51.999Z</time></trkpt><trkpt lat="43.50689102027982" lon="11.085313155918266"><ele>76.0</ele><time>2026-04-04T12:47:52.999Z</time></trkpt><trkpt lat="43.506643342798675" lon="11.085437847145505"><ele>76.0</ele><time>2026-04-04T12:47:53.999Z</time></trkpt><trkpt lat="43.506393382949064" lon="11.085568886254139"><ele>76.0</ele><time>2026-04-04T12:47:54.999Z</time></trkpt><trkpt lat="43.50616424727295" lon="11.085723134766223"><ele>76.0</ele><time>2026-04-04T12:47:55.999Z</time></trkpt><trkpt lat="43.5059335724891" lon="11.085864158432795"><ele>76.0</ele><time>2026-04-04T12:47:56.999Z</time></trkpt><trkpt lat="43.505716552747984" lon="11.086034747720745"><ele>76.0</ele><time>2026-04-04T12:47:57.999Z</time></trkpt><trkpt lat="43.50552872039999" lon="11.086209407681059"><ele>76.0</ele><time>2026-04-04T12:47:58.999Z</time></trkpt><trkpt lat="43.50537151961778" lon="11.086366492768096"><ele>76.0</ele><time>2026-04-04T12:47:59.999Z</time></trkpt><trkpt lat="43.50523010736083" lon="11.086510938680986"><ele>76.5</ele><time>2026-04-04T12:48:00.999Z</time></trkpt><trkpt lat="43.505110635564876" lon="11.086631041806873"><ele>77.0</ele><time>2026-04-04T12:48:01.999Z</time></trkpt><trkpt lat="43.505007876369746" lon="11.086744776956209"><ele>77.5</ele><time>2026-04-04T12:48:02.999Z</time></trkpt><trkpt lat="43.50490496703054" lon="11.086844104730602"><ele>78.0</ele><time>2026-04-04T12:48:03.999Z</time></trkpt><trkpt lat="43.50480988864504" lon="11.086927769012853"><ele>78.0</ele><time>2026-04-04T12:48:04.999Z</time></trkpt><trkpt lat="43.504707903137614" lon="11.086995358788505"><ele>78.0</ele><time>2026-04-04T12:48:05.999Z</time></trkpt><trkpt lat="43.504605658853556" lon="11.087040353006213"><ele>78.0</ele><time>2026-04-04T12:48:06.999Z</time></trkpt><trkpt lat="43.50451847822144" lon="11.087098521291951"><ele>78.0</ele><time>2026-04-04T12:48:07.999Z</time></trkpt><trkpt lat="43.50444434929596" lon="11.087195672629694"><ele>78.0</ele><time>2026-04-04T12:48:09Z</time></trkpt><trkpt lat="43.50439166656803" lon="11.08734610266257"><ele>77.66666666666667</ele><time>2026-04-04T12:48:10Z</time></trkpt><trkpt lat="43.50432913188986" lon="11.08752937269438"><ele>77.33333333333334</ele><time>2026-04-04T12:48:11Z</time></trkpt><trkpt lat="43.50423114921527" lon="11.087713646875686"><ele>77.0</ele><time>2026-04-04T12:48:12Z</time></trkpt><trkpt lat="43.50410096359892" lon="11.08789953177418"><ele>77.0</ele><time>2026-04-04T12:48:13Z</time></trkpt><trkpt lat="43.50394898743754" lon="11.088095542200746"><ele>77.0</ele><time>2026-04-04T12:48:14Z</time></trkpt><trkpt lat="43.503790254667656" lon="11.08829915182506"><ele>77.0</ele><time>2026-04-04T12:48:15Z</time></trkpt><trkpt lat="43.5036221856788" lon="11.088520640029197"><ele>77.0</ele><time>2026-04-04T12:48:16Z</time></trkpt><trkpt lat="43.50344090845724" lon="11.088762061491598"><ele>77.0</ele><time>2026-04-04T12:48:17Z</time></trkpt><trkpt lat="43.50324815238527" lon="11.089013925137136"><ele>76.0</ele><time>2026-04-04T12:48:18Z</time></trkpt><trkpt lat="43.50305209891873" lon="11.08927013082139"><ele>75.0</ele><time>2026-04-04T12:48:19Z</time></trkpt><trkpt lat="43.5028412853948" lon="11.08954926477306"><ele>76.0</ele><time>2026-04-04T12:48:20Z</time></trkpt><trkpt lat="43.50262400891255" lon="11.089821817828318"><ele>77.0</ele><time>2026-04-04T12:48:21Z</time></trkpt><trkpt lat="43.50242235493777" lon="11.090081349470996"><ele>77.0</ele><time>2026-04-04T12:48:22Z</time></trkpt><trkpt lat="43.50223397316691" lon="11.09032767291138"><ele>77.0</ele><time>2026-04-04T12:48:23Z</time></trkpt><trkpt lat="43.5020555985314" lon="11.090560017424739"><ele>77.0</ele><time>2026-04-04T12:48:24Z</time></trkpt><trkpt lat="43.501883551366845" lon="11.090783499647952"><ele>77.0</ele><time>2026-04-04T12:48:25Z</time></trkpt><trkpt lat="43.50170508878421" lon="11.091023610102452"><ele>77.0</ele><time>2026-04-04T12:48:26Z</time></trkpt><trkpt lat="43.501499621717805" lon="11.091268488999145"><ele>77.0</ele><time>2026-04-04T12:48:27Z</time></trkpt><trkpt lat="43.50129505514684" lon="11.091533921005121"><ele>78.0</ele><time>2026-04-04T12:48:28Z</time></trkpt><trkpt lat="43.501085969149784" lon="11.091805217111082"><ele>79.0</ele><time>2026-04-04T12:48:29Z</time></trkpt><trkpt lat="43.50087235904159" lon="11.092082383398862"><ele>79.0</ele><time>2026-04-04T12:48:30Z</time></trkpt><trkpt lat="43.50066554706941" lon="11.092381830326202"><ele>79.0</ele><time>2026-04-04T12:48:31Z</time></trkpt><trkpt lat="43.500434270759285" lon="11.092663612748154"><ele>79.0</ele><time>2026-04-04T12:48:32Z</time></trkpt><trkpt lat="43.50019829021421" lon="11.09295876440076"><ele>79.0</ele><time>2026-04-04T12:48:33Z</time></trkpt><trkpt lat="43.49996835201599" lon="11.093256377347416"><ele>78.5</ele><time>2026-04-04T12:48:34Z</time></trkpt><trkpt lat="43.499745636322345" lon="11.093543721089814"><ele>78.0</ele><time>2026-04-04T12:48:35Z</time></trkpt><trkpt lat="43.499543239005085" lon="11.093824922522835"><ele>78.5</ele><time>2026-04-04T12:48:36Z</time></trkpt><trkpt lat="43.499363141389715" lon="11.094102937801281"><ele>79.0</ele><time>2026-04-04T12:48:37Z</time></trkpt><trkpt lat="43.49919396291791" lon="11.09439388276918"><ele>79.0</ele><time>2026-04-04T12:48:38Z</time></trkpt><trkpt lat="43.4990423822588" lon="11.094689999178312"><ele>79.0</ele><time>2026-04-04T12:48:39Z</time></trkpt><trkpt lat="43.498909151570295" lon="11.09498947751929"><ele>79.0</ele><time>2026-04-04T12:48:40Z</time></trkpt><trkpt lat="43.4987752126965" lon="11.095297056837893"><ele>79.0</ele><time>2026-04-04T12:48:41Z</time></trkpt><trkpt lat="43.498647229906155" lon="11.095631696276065"><ele>80.0</ele><time>2026-04-04T12:48:42Z</time></trkpt><trkpt lat="43.498526867515956" lon="11.095994889093424"><ele>81.0</ele><time>2026-04-04T12:48:43Z</time></trkpt><trkpt lat="43.49841397263449" lon="11.096377395038754"><ele>80.5</ele><time>2026-04-04T12:48:44Z</time></trkpt><trkpt lat="43.49830982968595" lon="11.096768614076002"><ele>80.0</ele><time>2026-04-04T12:48:45Z</time></trkpt><trkpt lat="43.49821026013328" lon="11.09715873711875"><ele>79.0</ele><time>2026-04-04T12:48:46Z</time></trkpt><trkpt lat="43.49810169099303" lon="11.097550807555196"><ele>78.0</ele><time>2026-04-04T12:48:47Z</time></trkpt><trkpt lat="43.49799685455322" lon="11.097924435209505"><ele>77.5</ele><time>2026-04-04T12:48:48Z</time></trkpt><trkpt lat="43.49789866035887" lon="11.098274947284803"><ele>77.0</ele><time>2026-04-04T12:48:49Z</time></trkpt><trkpt lat="43.49780692553556" lon="11.09860744488874"><ele>77.0</ele><time>2026-04-04T12:48:50Z</time></trkpt><trkpt lat="43.497718989602056" lon="11.09892807609708"><ele>77.0</ele><time>2026-04-04T12:48:51Z</time></trkpt><trkpt lat="43.49762849586991" lon="11.099232068510085"><ele>77.0</ele><time>2026-04-04T12:48:52Z</time></trkpt><trkpt lat="43.49753209024851" lon="11.099522362824384"><ele>77.0</ele><time>2026-04-04T12:48:53Z</time></trkpt><trkpt lat="43.497420612859514" lon="11.099818255832316"><ele>77.5</ele><time>2026-04-04T12:48:54Z</time></trkpt><trkpt lat="43.49729593086969" lon="11.100111830527208"><ele>78.0</ele><time>2026-04-04T12:48:55Z</time></trkpt><trkpt lat="43.49716236041779" lon="11.100402747878332"><ele>78.0</ele><time>2026-04-04T12:48:56Z</time></trkpt><trkpt lat="43.49702476494379" lon="11.100682611387294"><ele>78.0</ele><time>2026-04-04T12:48:57Z</time></trkpt><trkpt lat="43.496884611912485" lon="11.100943419768674"><ele>78.0</ele><time>2026-04-04T12:48:58Z</time></trkpt><trkpt lat="43.49674401697099" lon="11.10117863390747"><ele>78.0</ele><time>2026-04-04T12:48:59Z</time></trkpt><trkpt lat="43.49660143606746" lon="11.101390235634263"><ele>78.0</ele><time>2026-04-04T12:49:00Z</time></trkpt><trkpt lat="43.49646140225123" lon="11.101595321545542"><ele>78.66666666666667</ele><time>2026-04-04T12:49:01Z</time></trkpt><trkpt lat="43.49633045462546" lon="11.10178981992989"><ele>79.33333333333334</ele><time>2026-04-04T12:49:02Z</time></trkpt><trkpt lat="43.49620313402151" lon="11.10197529701781"><ele>80.0</ele><time>2026-04-04T12:49:03Z</time></trkpt><trkpt lat="43.49608746119019" lon="11.102143563356758"><ele>80.25</ele><time>2026-04-04T12:49:04Z</time></trkpt><trkpt lat="43.49597670433855" lon="11.102302239391229"><ele>80.5</ele><time>2026-04-04T12:49:05Z</time></trkpt><trkpt lat="43.495870718104015" lon="11.102448941680127"><ele>80.75</ele><time>2026-04-04T12:49:06Z</time></trkpt><trkpt lat="43.49577541289239" lon="11.102570693988877"><ele>81.0</ele><time>2026-04-04T12:49:07Z</time></trkpt><trkpt lat="43.49568699438277" lon="11.102674119173788"><ele>81.0</ele><time>2026-04-04T12:49:08Z</time></trkpt><trkpt lat="43.49561524557546" lon="11.102755739804426"><ele>81.0</ele><time>2026-04-04T12:49:09Z</time></trkpt><trkpt lat="43.49556100266144" lon="11.102817257345833"><ele>81.0</ele><time>2026-04-04T12:49:10Z</time></trkpt><trkpt lat="43.49548580568786" lon="11.102884569736299"><ele>81.0</ele><time>2026-04-04T12:49:12Z</time></trkpt><trkpt lat="43.495367189111064" lon="11.10295407702596"><ele>81.0</ele><time>2026-04-04T12:49:15Z</time></trkpt><trkpt lat="43.49530277078428" lon="11.103004752239832"><ele>81.6</ele><time>2026-04-04T12:49:16Z</time></trkpt><trkpt lat="43.4952510762445" lon="11.103076808041987"><ele>82.19999999999999</ele><time>2026-04-04T12:49:17Z</time></trkpt><trkpt lat="43.49520961336281" lon="11.10317109460514"><ele>82.80000000000001</ele><time>2026-04-04T12:49:18Z</time></trkpt><trkpt lat="43.495181879228504" lon="11.103293491986415"><ele>83.4</ele><time>2026-04-04T12:49:19Z</time></trkpt><trkpt lat="43.495140136691155" lon="11.103428176931631"><ele>84.0</ele><time>2026-04-04T12:49:20Z</time></trkpt><trkpt lat="43.49507725263301" lon="11.103561224404247"><ele>84.0</ele><time>2026-04-04T12:49:21Z</time></trkpt><trkpt lat="43.49499253604214" lon="11.10371874859181"><ele>84.0</ele><time>2026-04-04T12:49:22Z</time></trkpt><trkpt lat="43.494884783205556" lon="11.103897284251481"><ele>84.0</ele><time>2026-04-04T12:49:23Z</time></trkpt><trkpt lat="43.49475965622314" lon="11.10409110413749"><ele>84.0</ele><time>2026-04-04T12:49:24Z</time></trkpt><trkpt lat="43.4946135885143" lon="11.104303104335168"><ele>84.0</ele><time>2026-04-04T12:49:25Z</time></trkpt><trkpt lat="43.494436821357525" lon="11.104547622036598"><ele>84.0</ele><time>2026-04-04T12:49:26Z</time></trkpt><trkpt lat="43.494246773831485" lon="11.104796666785784"><ele>84.0</ele><time>2026-04-04T12:49:27Z</time></trkpt><trkpt lat="43.4940637419976" lon="11.105073304718278"><ele>82.5</ele><time>2026-04-04T12:49:28Z</time></trkpt><trkpt lat="43.49386451472281" lon="11.105372053435332"><ele>81.0</ele><time>2026-04-04T12:49:29Z</time></trkpt><trkpt lat="43.49366672056329" lon="11.105666806336874"><ele>82.5</ele><time>2026-04-04T12:49:30Z</time></trkpt><trkpt lat="43.49344112549937" lon="11.105969700675635"><ele>84.0</ele><time>2026-04-04T12:49:31Z</time></trkpt><trkpt lat="43.49321362873423" lon="11.106300401644884"><ele>84.0</ele><time>2026-04-04T12:49:32Z</time></trkpt><trkpt lat="43.49297415647004" lon="11.106648036119168"><ele>84.0</ele><time>2026-04-04T12:49:33Z</time></trkpt><trkpt lat="43.492752355962" lon="11.106994561999706"><ele>84.0</ele><time>2026-04-04T12:49:34Z</time></trkpt><trkpt lat="43.49250626261443" lon="11.107345213535215"><ele>84.0</ele><time>2026-04-04T12:49:35Z</time></trkpt><trkpt lat="43.492257145423274" lon="11.107712524924096"><ele>83.5</ele><time>2026-04-04T12:49:36Z</time></trkpt><trkpt lat="43.49200146717907" lon="11.108081681096444"><ele>83.0</ele><time>2026-04-04T12:49:37Z</time></trkpt><trkpt lat="43.491741754418776" lon="11.108434929697067"><ele>83.0</ele><time>2026-04-04T12:49:38Z</time></trkpt><trkpt lat="43.49147327989733" lon="11.108775582658224"><ele>83.0</ele><time>2026-04-04T12:49:39Z</time></trkpt><trkpt lat="43.49119490864821" lon="11.109102651766086"><ele>85.0</ele><time>2026-04-04T12:49:40Z</time></trkpt><trkpt lat="43.49091014201169" lon="11.109420633766458"><ele>87.0</ele><time>2026-04-04T12:49:41Z</time></trkpt><trkpt lat="43.490619141325645" lon="11.109736655934256"><ele>86.5</ele><time>2026-04-04T12:49:42Z</time></trkpt><trkpt lat="43.4903312534962" lon="11.110046004551323"><ele>86.0</ele><time>2026-04-04T12:49:43Z</time></trkpt><trkpt lat="43.490067396022326" lon="11.11032233332889"><ele>86.0</ele><time>2026-04-04T12:49:44Z</time></trkpt><trkpt lat="43.48981483895113" lon="11.110573463645512"><ele>86.0</ele><time>2026-04-04T12:49:45Z</time></trkpt><trkpt lat="43.48957680441266" lon="11.110813041305034"><ele>87.0</ele><time>2026-04-04T12:49:46Z</time></trkpt><trkpt lat="43.489335533682556" lon="11.111067165593287"><ele>88.0</ele><time>2026-04-04T12:49:47Z</time></trkpt><trkpt lat="43.48907594102806" lon="11.111328013415514"><ele>88.0</ele><time>2026-04-04T12:49:48Z</time></trkpt><trkpt lat="43.48882104553288" lon="11.111587215529196"><ele>88.0</ele><time>2026-04-04T12:49:49Z</time></trkpt><trkpt lat="43.48858566984951" lon="11.111825469392777"><ele>88.0</ele><time>2026-04-04T12:49:50Z</time></trkpt><trkpt lat="43.48838379568488" lon="11.112042549063032"><ele>88.0</ele><time>2026-04-04T12:49:51Z</time></trkpt><trkpt lat="43.48820689476674" lon="11.112239281944106"><ele>87.66666666666666</ele><time>2026-04-04T12:49:52Z</time></trkpt><trkpt lat="43.4880432320264" lon="11.11241426934273"><ele>87.33333333333333</ele><time>2026-04-04T12:49:53Z</time></trkpt><trkpt lat="43.487895459034036" lon="11.112582006595842"><ele>87.0</ele><time>2026-04-04T12:49:54Z</time></trkpt><trkpt lat="43.487753085057705" lon="11.112745155005667"><ele>87.0</ele><time>2026-04-04T12:49:55Z</time></trkpt><trkpt lat="43.487619798841976" lon="11.112905445846067"><ele>87.0</ele><time>2026-04-04T12:49:56Z</time></trkpt><trkpt lat="43.48748556523462" lon="11.113073604067896"><ele>87.0</ele><time>2026-04-04T12:49:57Z</time></trkpt><trkpt lat="43.48736237523718" lon="11.113252881511302"><ele>87.0</ele><time>2026-04-04T12:49:58Z</time></trkpt><trkpt lat="43.487240213700225" lon="11.113434991834428"><ele>87.0</ele><time>2026-04-04T12:49:59Z</time></trkpt><trkpt lat="43.48712344874734" lon="11.11362345330734"><ele>87.0</ele><time>2026-04-04T12:50:00Z</time></trkpt><trkpt lat="43.48701750005541" lon="11.113819180192037"><ele>87.0</ele><time>2026-04-04T12:50:01Z</time></trkpt><trkpt lat="43.486918625871304" lon="11.114012587278262"><ele>87.0</ele><time>2026-04-04T12:50:02Z</time></trkpt><trkpt lat="43.48681704695665" lon="11.114212557776892"><ele>87.0</ele><time>2026-04-04T12:50:03Z</time></trkpt><trkpt lat="43.48673408083537" lon="11.114413493453194"><ele>86.0</ele><time>2026-04-04T12:50:04Z</time></trkpt><trkpt lat="43.486651132850525" lon="11.114597278787846"><ele>85.0</ele><time>2026-04-04T12:50:05Z</time></trkpt><trkpt lat="43.486569189314196" lon="11.11479721742549"><ele>84.0</ele><time>2026-04-04T12:50:06Z</time></trkpt><trkpt lat="43.48649634988331" lon="11.114986782994317"><ele>84.0</ele><time>2026-04-04T12:50:07Z</time></trkpt><trkpt lat="43.486428930207815" lon="11.115167339664154"><ele>84.0</ele><time>2026-04-04T12:50:08Z</time></trkpt><trkpt lat="43.48636829495974" lon="11.115336505530092"><ele>84.0</ele><time>2026-04-04T12:50:09Z</time></trkpt><trkpt lat="43.486303820982776" lon="11.11552296511318"><ele>84.0</ele><time>2026-04-04T12:50:10Z</time></trkpt><trkpt lat="43.4862222740819" lon="11.115732231501246"><ele>84.66666666666667</ele><time>2026-04-04T12:50:11Z</time></trkpt><trkpt lat="43.48614159912083" lon="11.115959099872319"><ele>85.33333333333334</ele><time>2026-04-04T12:50:12Z</time></trkpt><trkpt lat="43.48605967080489" lon="11.116207157309173"><ele>86.0</ele><time>2026-04-04T12:50:13Z</time></trkpt><trkpt lat="43.48596813896845" lon="11.116466019763399"><ele>84.66666666666667</ele><time>2026-04-04T12:50:14Z</time></trkpt><trkpt lat="43.485874929757486" lon="11.11672922306369"><ele>83.33333333333333</ele><time>2026-04-04T12:50:15Z</time></trkpt><trkpt lat="43.485778595987846" lon="11.117000656078659"><ele>82.0</ele><time>2026-04-04T12:50:16Z</time></trkpt><trkpt lat="43.4856727659777" lon="11.117290329336019"><ele>82.0</ele><time>2026-04-04T12:50:17Z</time></trkpt><trkpt lat="43.48555787358971" lon="11.117582702091815"><ele>82.0</ele><time>2026-04-04T12:50:18Z</time></trkpt><trkpt lat="43.48542372859709" lon="11.11787655260441"><ele>83.0</ele><time>2026-04-04T12:50:19Z</time></trkpt><trkpt lat="43.485274007945456" lon="11.11816123873047"><ele>84.0</ele><time>2026-04-04T12:50:20Z</time></trkpt><trkpt lat="43.48512520161401" lon="11.118451141638772"><ele>84.5</ele><time>2026-04-04T12:50:21Z</time></trkpt><trkpt lat="43.48497722876793" lon="11.1187320370145"><ele>85.0</ele><time>2026-04-04T12:50:22Z</time></trkpt><trkpt lat="43.48482929194151" lon="11.11898294114965"><ele>84.33333333333333</ele><time>2026-04-04T12:50:23Z</time></trkpt><trkpt lat="43.4846785974973" lon="11.119200008069832"><ele>83.66666666666667</ele><time>2026-04-04T12:50:24Z</time></trkpt><trkpt lat="43.484554869105594" lon="11.119427814557456"><ele>83.0</ele><time>2026-04-04T12:50:25Z</time></trkpt><trkpt lat="43.48440595148739" lon="11.119619967708186"><ele>82.66666666666667</ele><time>2026-04-04T12:50:26Z</time></trkpt><trkpt lat="43.4842719457699" lon="11.119809831032692"><ele>82.33333333333333</ele><time>2026-04-04T12:50:27Z</time></trkpt><trkpt lat="43.484142164356776" lon="11.120003960609656"><ele>82.0</ele><time>2026-04-04T12:50:28Z</time></trkpt><trkpt lat="43.484007186631686" lon="11.120206212649714"><ele>82.5</ele><time>2026-04-04T12:50:29Z</time></trkpt><trkpt lat="43.48384990396522" lon="11.120431043978362"><ele>83.0</ele><time>2026-04-04T12:50:30Z</time></trkpt><trkpt lat="43.4836880172314" lon="11.120663424461732"><ele>83.0</ele><time>2026-04-04T12:50:31Z</time></trkpt><trkpt lat="43.48353991468659" lon="11.120882870291862"><ele>83.0</ele><time>2026-04-04T12:50:32Z</time></trkpt><trkpt lat="43.48340205298998" lon="11.121094473471244"><ele>83.0</ele><time>2026-04-04T12:50:33Z</time></trkpt><trkpt lat="43.483266868829276" lon="11.121324403425424"><ele>83.33333333333334</ele><time>2026-04-04T12:50:34Z</time></trkpt><trkpt lat="43.483138900245606" lon="11.121574482841863"><ele>83.66666666666667</ele><time>2026-04-04T12:50:35Z</time></trkpt><trkpt lat="43.48302127308405" lon="11.121828335407137"><ele>84.0</ele><time>2026-04-04T12:50:36Z</time></trkpt><trkpt lat="43.482909600879026" lon="11.122087242946707"><ele>84.0</ele><time>2026-04-04T12:50:37Z</time></trkpt><trkpt lat="43.48280053138777" lon="11.122357689571821"><ele>84.0</ele><time>2026-04-04T12:50:38Z</time></trkpt><trkpt lat="43.48270330171357" lon="11.12263356487274"><ele>84.0</ele><time>2026-04-04T12:50:39Z</time></trkpt><trkpt lat="43.48261807089299" lon="11.122895880186064"><ele>84.0</ele><time>2026-04-04T12:50:40Z</time></trkpt><trkpt lat="43.48254556027088" lon="11.123149364239422"><ele>84.0</ele><time>2026-04-04T12:50:41Z</time></trkpt><trkpt lat="43.48248657535727" lon="11.123397922548586"><ele>84.0</ele><time>2026-04-04T12:50:42Z</time></trkpt><trkpt lat="43.482439190972855" lon="11.123638085570079"><ele>84.33333333333333</ele><time>2026-04-04T12:50:43Z</time></trkpt><trkpt lat="43.48239974560832" lon="11.123867097497989"><ele>84.66666666666666</ele><time>2026-04-04T12:50:44Z</time></trkpt><trkpt lat="43.482362605986765" lon="11.124085437203249"><ele>85.0</ele><time>2026-04-04T12:50:45Z</time></trkpt><trkpt lat="43.48233340518913" lon="11.124301329612527"><ele>85.25</ele><time>2026-04-04T12:50:46Z</time></trkpt><trkpt lat="43.48231019692817" lon="11.12452018057582"><ele>85.5</ele><time>2026-04-04T12:50:47Z</time></trkpt><trkpt lat="43.48229501749662" lon="11.124716640747769"><ele>85.75</ele><time>2026-04-04T12:50:48Z</time></trkpt><trkpt lat="43.48227999909552" lon="11.124906827014645"><ele>86.0</ele><time>2026-04-04T12:50:49Z</time></trkpt><trkpt lat="43.48226952472694" lon="11.125097887851052"><ele>86.0</ele><time>2026-04-04T12:50:50Z</time></trkpt><trkpt lat="43.48226400575805" lon="11.125299093812904"><ele>86.0</ele><time>2026-04-04T12:50:51Z</time></trkpt><trkpt lat="43.48226000521225" lon="11.125528958256904"><ele>86.0</ele><time>2026-04-04T12:50:52Z</time></trkpt><trkpt lat="43.48224812530827" lon="11.125771660051813"><ele>86.0</ele><time>2026-04-04T12:50:53Z</time></trkpt><trkpt lat="43.48223918870742" lon="11.12603078832624"><ele>86.0</ele><time>2026-04-04T12:50:54Z</time></trkpt><trkpt lat="43.48223555517338" lon="11.12632043695586"><ele>86.0</ele><time>2026-04-04T12:50:55Z</time></trkpt><trkpt lat="43.48223529443688" lon="11.12662128731686"><ele>86.0</ele><time>2026-04-04T12:50:56Z</time></trkpt><trkpt lat="43.48223609324309" lon="11.126922120487972"><ele>86.0</ele><time>2026-04-04T12:50:57Z</time></trkpt><trkpt lat="43.482238236615146" lon="11.127213154542389"><ele>86.0</ele><time>2026-04-04T12:50:58Z</time></trkpt><trkpt lat="43.48224044797242" lon="11.127487944037956"><ele>85.66666666666667</ele><time>2026-04-04T12:50:59Z</time></trkpt><trkpt lat="43.48224439787262" lon="11.12778896725412"><ele>85.33333333333333</ele><time>2026-04-04T12:51:00Z</time></trkpt><trkpt lat="43.48224869888927" lon="11.128094184640926"><ele>85.0</ele><time>2026-04-04T12:51:01Z</time></trkpt><trkpt lat="43.48226483519907" lon="11.128428562558291"><ele>84.5</ele><time>2026-04-04T12:51:02Z</time></trkpt><trkpt lat="43.482283986927314" lon="11.128766150411643"><ele>84.0</ele><time>2026-04-04T12:51:03Z</time></trkpt><trkpt lat="43.4823034187257" lon="11.129079614473342"><ele>85.0</ele><time>2026-04-04T12:51:04Z</time></trkpt><trkpt lat="43.482317910940544" lon="11.129358727748047"><ele>86.0</ele><time>2026-04-04T12:51:05Z</time></trkpt><trkpt lat="43.48233016197121" lon="11.129626041221007"><ele>87.0</ele><time>2026-04-04T12:51:06Z</time></trkpt><trkpt lat="43.482349733741145" lon="11.129906944914147"><ele>88.0</ele><time>2026-04-04T12:51:07Z</time></trkpt><trkpt lat="43.4823691648212" lon="11.130192166347863"><ele>89.0</ele><time>2026-04-04T12:51:08Z</time></trkpt><trkpt lat="43.482391670973655" lon="11.130469789261321"><ele>90.0</ele><time>2026-04-04T12:51:09Z</time></trkpt><trkpt lat="43.48240961945806" lon="11.13072580837225"><ele>92.0</ele><time>2026-04-04T12:51:10Z</time></trkpt><trkpt lat="43.48242240820519" lon="11.130972705498658"><ele>94.0</ele><time>2026-04-04T12:51:11Z</time></trkpt><trkpt lat="43.48244261094337" lon="11.13124376551353"><ele>96.0</ele><time>2026-04-04T12:51:12Z</time></trkpt><trkpt lat="43.482460809377585" lon="11.131524657221636"><ele>96.66666666666666</ele><time>2026-04-04T12:51:13Z</time></trkpt><trkpt lat="43.48247886807077" lon="11.131803450344108"><ele>97.33333333333333</ele><time>2026-04-04T12:51:14Z</time></trkpt><trkpt lat="43.482496937864674" lon="11.132071667609654"><ele>98.0</ele><time>2026-04-04T12:51:15Z</time></trkpt><trkpt lat="43.48251392543168" lon="11.132363287252511"><ele>99.0</ele><time>2026-04-04T12:51:16Z</time></trkpt><trkpt lat="43.4825330706618" lon="11.132665503988946"><ele>100.0</ele><time>2026-04-04T12:51:17Z</time></trkpt><trkpt lat="43.48255391383233" lon="11.132999139450963"><ele>100.66666666666667</ele><time>2026-04-04T12:51:18Z</time></trkpt><trkpt lat="43.482569026370335" lon="11.133319259779842"><ele>101.33333333333334</ele><time>2026-04-04T12:51:19Z</time></trkpt><trkpt lat="43.48258563798892" lon="11.133614943552725"><ele>102.0</ele><time>2026-04-04T12:51:20Z</time></trkpt><trkpt lat="43.482579981697924" lon="11.133916714160785"><ele>103.0</ele><time>2026-04-04T12:51:21Z</time></trkpt><trkpt lat="43.482600949643654" lon="11.13425454619776"><ele>104.0</ele><time>2026-04-04T12:51:22Z</time></trkpt><trkpt lat="43.48262432267959" lon="11.134629027056253"><ele>104.0</ele><time>2026-04-04T12:51:23Z</time></trkpt><trkpt lat="43.48264922901451" lon="11.135028074300902"><ele>104.0</ele><time>2026-04-04T12:51:24Z</time></trkpt><trkpt lat="43.482673441955676" lon="11.135417116210109"><ele>104.0</ele><time>2026-04-04T12:51:25Z</time></trkpt><trkpt lat="43.48269498683857" lon="11.135764443444609"><ele>104.0</ele><time>2026-04-04T12:51:26Z</time></trkpt><trkpt lat="43.482715517336715" lon="11.136095417671607"><ele>104.0</ele><time>2026-04-04T12:51:27Z</time></trkpt><trkpt lat="43.482733997119894" lon="11.136402720942545"><ele>104.0</ele><time>2026-04-04T12:51:28Z</time></trkpt><trkpt lat="43.48275270266321" lon="11.13670022041261"><ele>104.0</ele><time>2026-04-04T12:51:29Z</time></trkpt><trkpt lat="43.48277028589405" lon="11.136982309288019"><ele>104.0</ele><time>2026-04-04T12:51:30Z</time></trkpt><trkpt lat="43.48280354573992" lon="11.1372526073602"><ele>104.0</ele><time>2026-04-04T12:51:31Z</time></trkpt><trkpt lat="43.482817882996656" lon="11.137526578421108"><ele>104.0</ele><time>2026-04-04T12:51:32Z</time></trkpt><trkpt lat="43.48283199267865" lon="11.137785916335451"><ele>103.66666666666666</ele><time>2026-04-04T12:51:33Z</time></trkpt><trkpt lat="43.482843834615245" lon="11.138027527334033"><ele>103.33333333333334</ele><time>2026-04-04T12:51:34Z</time></trkpt><trkpt lat="43.482855554803905" lon="11.138259981871286"><ele>103.0</ele><time>2026-04-04T12:51:35Z</time></trkpt><trkpt lat="43.482871562742595" lon="11.138480110258987"><ele>102.75</ele><time>2026-04-04T12:51:36Z</time></trkpt><trkpt lat="43.48288461201858" lon="11.138681020112108"><ele>102.5</ele><time>2026-04-04T12:51:37Z</time></trkpt><trkpt lat="43.482895767493076" lon="11.138868819256283"><ele>102.25</ele><time>2026-04-04T12:51:38Z</time></trkpt><trkpt lat="43.482908274690224" lon="11.139041487315094"><ele>102.0</ele><time>2026-04-04T12:51:39Z</time></trkpt><trkpt lat="43.482922246176784" lon="11.139211149282797"><ele>102.5</ele><time>2026-04-04T12:51:40Z</time></trkpt><trkpt lat="43.48293001203014" lon="11.139373706561175"><ele>103.0</ele><time>2026-04-04T12:51:41Z</time></trkpt><trkpt lat="43.4829383188572" lon="11.139527383547067"><ele>103.5</ele><time>2026-04-04T12:51:42Z</time></trkpt><trkpt lat="43.48295925546457" lon="11.139673505528668"><ele>104.0</ele><time>2026-04-04T12:51:43Z</time></trkpt><trkpt lat="43.48298051263327" lon="11.139834155954764"><ele>104.25</ele><time>2026-04-04T12:51:44Z</time></trkpt><trkpt lat="43.48300818212407" lon="11.139985996737828"><ele>104.5</ele><time>2026-04-04T12:51:45Z</time></trkpt><trkpt lat="43.48303723923682" lon="11.140148700166739"><ele>104.75</ele><time>2026-04-04T12:51:46Z</time></trkpt><trkpt lat="43.48306987833921" lon="11.14031849687938"><ele>105.0</ele><time>2026-04-04T12:51:47Z</time></trkpt><trkpt lat="43.48310512607105" lon="11.14051505868183"><ele>104.33333333333334</ele><time>2026-04-04T12:51:48Z</time></trkpt><trkpt lat="43.483151010087774" lon="11.140725268562887"><ele>103.66666666666667</ele><time>2026-04-04T12:51:49Z</time></trkpt><trkpt lat="43.483199986717864" lon="11.140926209766423"><ele>103.0</ele><time>2026-04-04T12:51:50Z</time></trkpt><trkpt lat="43.48325377005552" lon="11.141105884246047"><ele>103.0</ele><time>2026-04-04T12:51:51Z</time></trkpt><trkpt lat="43.48331561834734" lon="11.141281141105544"><ele>103.0</ele><time>2026-04-04T12:51:52Z</time></trkpt><trkpt lat="43.483368215953554" lon="11.141434935428734"><ele>103.0</ele><time>2026-04-04T12:51:53Z</time></trkpt><trkpt lat="43.483404456694565" lon="11.141553136555258"><ele>103.0</ele><time>2026-04-04T12:51:54Z</time></trkpt><trkpt lat="43.48342726730786" lon="11.141642364035139"><ele>103.0</ele><time>2026-04-04T12:51:55Z</time></trkpt><trkpt lat="43.48345925564773" lon="11.141737584154393"><ele>102.80000000000001</ele><time>2026-04-04T12:51:57Z</time></trkpt><trkpt lat="43.483529421012136" lon="11.141860858771782"><ele>102.6</ele><time>2026-04-04T12:52:36Z</time></trkpt><trkpt lat="43.48357750998724" lon="11.141964197609214"><ele>102.4</ele><time>2026-04-04T12:52:37Z</time></trkpt><trkpt lat="43.48363182977508" lon="11.142073664061877"><ele>102.19999999999999</ele><time>2026-04-04T12:52:38Z</time></trkpt><trkpt lat="43.48366443265251" lon="11.142187756215485"><ele>102.0</ele><time>2026-04-04T12:52:39Z</time></trkpt><trkpt lat="43.48370962610511" lon="11.142290533423681"><ele>102.5</ele><time>2026-04-04T12:52:40Z</time></trkpt><trkpt lat="43.483783753875485" lon="11.142397856886532"><ele>103.0</ele><time>2026-04-04T12:52:41Z</time></trkpt><trkpt lat="43.48384389693535" lon="11.142527268621688"><ele>103.5</ele><time>2026-04-04T12:52:42Z</time></trkpt><trkpt lat="43.48392223595723" lon="11.14267326595171"><ele>104.0</ele><time>2026-04-04T12:52:43Z</time></trkpt><trkpt lat="43.484007970016364" lon="11.142842695124408"><ele>104.0</ele><time>2026-04-04T12:52:44Z</time></trkpt><trkpt lat="43.484106504773614" lon="11.143027575770263"><ele>104.0</ele><time>2026-04-04T12:52:45Z</time></trkpt><trkpt lat="43.484214157935014" lon="11.143230391975655"><ele>104.0</ele><time>2026-04-04T12:52:46Z</time></trkpt><trkpt lat="43.484334802071" lon="11.143446428205111"><ele>104.0</ele><time>2026-04-04T12:52:47Z</time></trkpt><trkpt lat="43.48446628768247" lon="11.143681999546441"><ele>104.0</ele><time>2026-04-04T12:52:48Z</time></trkpt><trkpt lat="43.48459759597212" lon="11.143924123932674"><ele>104.0</ele><time>2026-04-04T12:52:49Z</time></trkpt><trkpt lat="43.48472482830565" lon="11.144154557968251"><ele>104.0</ele><time>2026-04-04T12:52:50Z</time></trkpt><trkpt lat="43.484857470602066" lon="11.144394942237298"><ele>104.0</ele><time>2026-04-04T12:52:51Z</time></trkpt><trkpt lat="43.484996503296784" lon="11.144640514593178"><ele>104.0</ele><time>2026-04-04T12:52:52Z</time></trkpt><trkpt lat="43.485137314186915" lon="11.144897280784592"><ele>103.66666666666666</ele><time>2026-04-04T12:52:53Z</time></trkpt><trkpt lat="43.48526770500632" lon="11.145138357512172"><ele>103.33333333333334</ele><time>2026-04-04T12:52:54Z</time></trkpt><trkpt lat="43.48539438688255" lon="11.14537247465566"><ele>103.0</ele><time>2026-04-04T12:52:55Z</time></trkpt><trkpt lat="43.48552860409246" lon="11.145612808428577"><ele>104.0</ele><time>2026-04-04T12:52:56Z</time></trkpt><trkpt lat="43.485657016158" lon="11.145838867416543"><ele>105.0</ele><time>2026-04-04T12:52:57Z</time></trkpt><trkpt lat="43.48577979699089" lon="11.146055604450972"><ele>106.0</ele><time>2026-04-04T12:52:58Z</time></trkpt><trkpt lat="43.485896137936486" lon="11.146280277354151"><ele>106.0</ele><time>2026-04-04T12:52:59Z</time></trkpt><trkpt lat="43.486004417465324" lon="11.14651493758388"><ele>106.0</ele><time>2026-04-04T12:53:00Z</time></trkpt><trkpt lat="43.486098026345395" lon="11.146752474864122"><ele>106.0</ele><time>2026-04-04T12:53:01Z</time></trkpt><trkpt lat="43.48618528215292" lon="11.147007536399112"><ele>106.33333333333334</ele><time>2026-04-04T12:53:02Z</time></trkpt><trkpt lat="43.48626611861435" lon="11.147267477367127"><ele>106.66666666666666</ele><time>2026-04-04T12:53:03Z</time></trkpt><trkpt lat="43.48633396552855" lon="11.147536802791727"><ele>107.0</ele><time>2026-04-04T12:53:04Z</time></trkpt><trkpt lat="43.48639179923586" lon="11.147812171323494"><ele>106.66666666666666</ele><time>2026-04-04T12:53:05Z</time></trkpt><trkpt lat="43.48643697802259" lon="11.148074596834173"><ele>106.33333333333334</ele><time>2026-04-04T12:53:06Z</time></trkpt><trkpt lat="43.48646816220241" lon="11.148325254858404"><ele>106.0</ele><time>2026-04-04T12:53:07Z</time></trkpt><trkpt lat="43.48648491347588" lon="11.148565822921475"><ele>106.0</ele><time>2026-04-04T12:53:08Z</time></trkpt><trkpt lat="43.486495112430255" lon="11.148792603516355"><ele>106.0</ele><time>2026-04-04T12:53:09Z</time></trkpt><trkpt lat="43.48650275787364" lon="11.148996752773137"><ele>106.0</ele><time>2026-04-04T12:53:10Z</time></trkpt><trkpt lat="43.48650290695176" lon="11.149187993633529"><ele>106.19999999999999</ele><time>2026-04-04T12:53:11Z</time></trkpt><trkpt lat="43.4864979823017" lon="11.149365738110767"><ele>106.39999999999999</ele><time>2026-04-04T12:53:12Z</time></trkpt><trkpt lat="43.48648312932739" lon="11.149517702154823"><ele>106.6</ele><time>2026-04-04T12:53:13Z</time></trkpt><trkpt lat="43.48645452842411" lon="11.149652663192095"><ele>106.8</ele><time>2026-04-04T12:53:14Z</time></trkpt><trkpt lat="43.48641025698662" lon="11.149775635056676"><ele>107.0</ele><time>2026-04-04T12:53:15Z</time></trkpt><trkpt lat="43.486347780064605" lon="11.149877704274896"><ele>106.99999999999999</ele><time>2026-04-04T12:53:16Z</time></trkpt><trkpt lat="43.48632804235197" lon="11.150006911390234"><ele>107.0</ele><time>2026-04-04T12:53:17Z</time></trkpt><trkpt lat="43.48626144836964" lon="11.150082509847365"><ele>107.0</ele><time>2026-04-04T12:53:18Z</time></trkpt><trkpt lat="43.486196730267324" lon="11.150152851356937"><ele>107.0</ele><time>2026-04-04T12:53:19Z</time></trkpt><trkpt lat="43.486139333360974" lon="11.150238076529469"><ele>106.99999999999999</ele><time>2026-04-04T12:53:20Z</time></trkpt><trkpt lat="43.486089529702646" lon="11.150351735119155"><ele>107.0</ele><time>2026-04-04T12:53:21Z</time></trkpt><trkpt lat="43.48606952484031" lon="11.150466873109027"><ele>107.0</ele><time>2026-04-04T12:53:22Z</time></trkpt><trkpt lat="43.48606431621502" lon="11.150571687242989"><ele>106.99999999999999</ele><time>2026-04-04T12:53:23Z</time></trkpt><trkpt lat="43.48607179325043" lon="11.150682817681242"><ele>106.99999999999999</ele><time>2026-04-04T12:53:24Z</time></trkpt><trkpt lat="43.48610844423457" lon="11.150801624159094"><ele>107.0</ele><time>2026-04-04T12:53:25Z</time></trkpt><trkpt lat="43.486141937221106" lon="11.15092949709002"><ele>107.0</ele><time>2026-04-04T12:53:26Z</time></trkpt><trkpt lat="43.48615689979343" lon="11.151089800226266"><ele>107.0</ele><time>2026-04-04T12:53:27Z</time></trkpt><trkpt lat="43.48616342443024" lon="11.15125793974199"><ele>107.0</ele><time>2026-04-04T12:53:28Z</time></trkpt><trkpt lat="43.486162213851166" lon="11.151434380092658"><ele>107.0</ele><time>2026-04-04T12:53:29Z</time></trkpt><trkpt lat="43.486137638008984" lon="11.151603914642756"><ele>107.0</ele><time>2026-04-04T12:53:30Z</time></trkpt><trkpt lat="43.48608851408303" lon="11.151752312486366"><ele>107.0</ele><time>2026-04-04T12:53:31Z</time></trkpt><trkpt lat="43.48602516267445" lon="11.151931598979784"><ele>107.0</ele><time>2026-04-04T12:53:32Z</time></trkpt><trkpt lat="43.48594360345827" lon="11.15213729621095"><ele>107.0</ele><time>2026-04-04T12:53:33Z</time></trkpt><trkpt lat="43.485844715769844" lon="11.152361654325377"><ele>107.66666666666666</ele><time>2026-04-04T12:53:34Z</time></trkpt><trkpt lat="43.48573992502226" lon="11.152589877299143"><ele>108.33333333333334</ele><time>2026-04-04T12:53:35Z</time></trkpt><trkpt lat="43.48563668392334" lon="11.15284673511616"><ele>109.0</ele><time>2026-04-04T12:53:36Z</time></trkpt><trkpt lat="43.48553037986234" lon="11.153113030183805"><ele>109.66666666666667</ele><time>2026-04-04T12:53:37Z</time></trkpt><trkpt lat="43.48542415631611" lon="11.15338319957215"><ele>110.33333333333334</ele><time>2026-04-04T12:53:38Z</time></trkpt><trkpt lat="43.485325231762964" lon="11.153643688082107"><ele>111.0</ele><time>2026-04-04T12:53:39Z</time></trkpt><trkpt lat="43.48523112604346" lon="11.153863275154757"><ele>111.33333333333334</ele><time>2026-04-04T12:53:40Z</time></trkpt><trkpt lat="43.48513537904514" lon="11.154080194519402"><ele>111.66666666666667</ele><time>2026-04-04T12:53:41Z</time></trkpt><trkpt lat="43.48505025177732" lon="11.154274793579832"><ele>112.0</ele><time>2026-04-04T12:53:42Z</time></trkpt><trkpt lat="43.48497141713624" lon="11.154464084970478"><ele>112.0</ele><time>2026-04-04T12:53:43Z</time></trkpt><trkpt lat="43.484905215273606" lon="11.154624784690713"><ele>112.0</ele><time>2026-04-04T12:53:44Z</time></trkpt><trkpt lat="43.4848563228966" lon="11.154789679943491"><ele>112.0</ele><time>2026-04-04T12:53:45Z</time></trkpt><trkpt lat="43.48483235255349" lon="11.154979729909583"><ele>112.0</ele><time>2026-04-04T12:53:46Z</time></trkpt><trkpt lat="43.484859658845195" lon="11.155188096553832"><ele>112.25</ele><time>2026-04-04T12:53:47Z</time></trkpt><trkpt lat="43.48489497774267" lon="11.155379260632152"><ele>112.5</ele><time>2026-04-04T12:53:48Z</time></trkpt><trkpt lat="43.48495503294104" lon="11.155551664141967"><ele>112.75</ele><time>2026-04-04T12:53:49Z</time></trkpt><trkpt lat="43.4850530212006" lon="11.15570953024011"><ele>113.0</ele><time>2026-04-04T12:53:50Z</time></trkpt><trkpt lat="43.485164354467244" lon="11.155837580942563"><ele>112.66666666666666</ele><time>2026-04-04T12:53:51Z</time></trkpt><trkpt lat="43.48529958648001" lon="11.155926225646336"><ele>112.33333333333334</ele><time>2026-04-04T12:53:52Z</time></trkpt><trkpt lat="43.4854475711106" lon="11.155981171852195"><ele>112.0</ele><time>2026-04-04T12:53:53Z</time></trkpt><trkpt lat="43.48560175686664" lon="11.155999385657395"><ele>112.0</ele><time>2026-04-04T12:53:54Z</time></trkpt><trkpt lat="43.48574831795636" lon="11.156012215966665"><ele>112.0</ele><time>2026-04-04T12:53:55Z</time></trkpt><trkpt lat="43.48588147906613" lon="11.156040393411725"><ele>112.0</ele><time>2026-04-04T12:53:56Z</time></trkpt><trkpt lat="43.486012736684884" lon="11.156106381329268"><ele>112.0</ele><time>2026-04-04T12:53:57Z</time></trkpt><trkpt lat="43.48613319060471" lon="11.156194542158335"><ele>112.0</ele><time>2026-04-04T12:53:58Z</time></trkpt><trkpt lat="43.48625615909198" lon="11.156297253778328"><ele>112.0</ele><time>2026-04-04T12:53:59Z</time></trkpt><trkpt lat="43.48637051482524" lon="11.156427117063542"><ele>112.0</ele><time>2026-04-04T12:54:00Z</time></trkpt><trkpt lat="43.48649286794892" lon="11.15658219109875"><ele>115.0</ele><time>2026-04-04T12:54:01Z</time></trkpt><trkpt lat="43.48660750400907" lon="11.15677215957902"><ele>118.0</ele><time>2026-04-04T12:54:02Z</time></trkpt><trkpt lat="43.48669311246136" lon="11.15698070954819"><ele>121.0</ele><time>2026-04-04T12:54:03Z</time></trkpt><trkpt lat="43.48676444150296" lon="11.157205888545246"><ele>121.0</ele><time>2026-04-04T12:54:04Z</time></trkpt><trkpt lat="43.48681941241357" lon="11.157458440866957"><ele>121.0</ele><time>2026-04-04T12:54:05Z</time></trkpt><trkpt lat="43.48685959286883" lon="11.157731853522344"><ele>121.0</ele><time>2026-04-04T12:54:06Z</time></trkpt><trkpt lat="43.48689941871306" lon="11.15803041115636"><ele>120.5</ele><time>2026-04-04T12:54:07Z</time></trkpt><trkpt lat="43.4869510817181" lon="11.158347581722687"><ele>120.0</ele><time>2026-04-04T12:54:08Z</time></trkpt><trkpt lat="43.48700099994951" lon="11.158667994340643"><ele>120.0</ele><time>2026-04-04T12:54:09Z</time></trkpt><trkpt lat="43.4870477740023" lon="11.158990725047317"><ele>120.0</ele><time>2026-04-04T12:54:10Z</time></trkpt><trkpt lat="43.48709541932137" lon="11.159323883687232"><ele>123.0</ele><time>2026-04-04T12:54:11Z</time></trkpt><trkpt lat="43.487144705288415" lon="11.159656457366266"><ele>126.0</ele><time>2026-04-04T12:54:12Z</time></trkpt><trkpt lat="43.48719612989415" lon="11.16000116008796"><ele>126.0</ele><time>2026-04-04T12:54:13Z</time></trkpt><trkpt lat="43.48724415265856" lon="11.160359456792426"><ele>126.0</ele><time>2026-04-04T12:54:14Z</time></trkpt><trkpt lat="43.48729573782419" lon="11.16071208197529"><ele>126.5</ele><time>2026-04-04T12:54:15Z</time></trkpt><trkpt lat="43.48734542545014" lon="11.161051427916451"><ele>127.0</ele><time>2026-04-04T12:54:16Z</time></trkpt><trkpt lat="43.48738878984716" lon="11.16139185775332"><ele>126.0</ele><time>2026-04-04T12:54:17Z</time></trkpt><trkpt lat="43.48744150808452" lon="11.161743888536607"><ele>125.0</ele><time>2026-04-04T12:54:18Z</time></trkpt><trkpt lat="43.487490275493386" lon="11.16210498065972"><ele>125.0</ele><time>2026-04-04T12:54:19Z</time></trkpt><trkpt lat="43.48753757532524" lon="11.162467950386018"><ele>125.0</ele><time>2026-04-04T12:54:20Z</time></trkpt><trkpt lat="43.48758489423142" lon="11.162833242043096"><ele>124.0</ele><time>2026-04-04T12:54:21Z</time></trkpt><trkpt lat="43.48763052525228" lon="11.163211558145171"><ele>123.0</ele><time>2026-04-04T12:54:22Z</time></trkpt><trkpt lat="43.487684895654155" lon="11.163589302737359"><ele>123.0</ele><time>2026-04-04T12:54:23Z</time></trkpt><trkpt lat="43.48773983962841" lon="11.163978876579963"><ele>123.0</ele><time>2026-04-04T12:54:24Z</time></trkpt><trkpt lat="43.48779058522702" lon="11.164368950304262"><ele>123.5</ele><time>2026-04-04T12:54:25Z</time></trkpt><trkpt lat="43.487839905080236" lon="11.164751643387126"><ele>124.0</ele><time>2026-04-04T12:54:26Z</time></trkpt><trkpt lat="43.487891394479405" lon="11.1651360298297"><ele>126.0</ele><time>2026-04-04T12:54:27Z</time></trkpt><trkpt lat="43.48794272755051" lon="11.165521715366626"><ele>128.0</ele><time>2026-04-04T12:54:28Z</time></trkpt><trkpt lat="43.48799992835323" lon="11.165909565054646"><ele>128.0</ele><time>2026-04-04T12:54:29Z</time></trkpt><trkpt lat="43.48806437672363" lon="11.166306434793738"><ele>128.0</ele><time>2026-04-04T12:54:30Z</time></trkpt><trkpt lat="43.48813965989352" lon="11.16671425206066"><ele>129.5</ele><time>2026-04-04T12:54:31Z</time></trkpt><trkpt lat="43.48822491713251" lon="11.167135129364983"><ele>131.0</ele><time>2026-04-04T12:54:32Z</time></trkpt><trkpt lat="43.48832296515548" lon="11.167560915141912"><ele>131.0</ele><time>2026-04-04T12:54:33Z</time></trkpt><trkpt lat="43.488428197428384" lon="11.167994899204373"><ele>131.0</ele><time>2026-04-04T12:54:34Z</time></trkpt><trkpt lat="43.48853699704005" lon="11.168419860592376"><ele>131.0</ele><time>2026-04-04T12:54:35Z</time></trkpt><trkpt lat="43.4886516780461" lon="11.168834146116408"><ele>131.0</ele><time>2026-04-04T12:54:36Z</time></trkpt><trkpt lat="43.488771544640755" lon="11.169244718926947"><ele>134.5</ele><time>2026-04-04T12:54:37Z</time></trkpt><trkpt lat="43.48890085402216" lon="11.169638249255804"><ele>138.0</ele><time>2026-04-04T12:54:38Z</time></trkpt><trkpt lat="43.48903567760537" lon="11.170031432373541"><ele>138.0</ele><time>2026-04-04T12:54:39Z</time></trkpt><trkpt lat="43.4891721984293" lon="11.170419787151875"><ele>138.0</ele><time>2026-04-04T12:54:40Z</time></trkpt><trkpt lat="43.489315215363746" lon="11.170806607097926"><ele>137.5</ele><time>2026-04-04T12:54:41Z</time></trkpt><trkpt lat="43.48946297400166" lon="11.171187901788043"><ele>137.0</ele><time>2026-04-04T12:54:42Z</time></trkpt><trkpt lat="43.48961671401082" lon="11.171564289969773"><ele>139.0</ele><time>2026-04-04T12:54:43Z</time></trkpt><trkpt lat="43.48978184137642" lon="11.171929542783436"><ele>141.0</ele><time>2026-04-04T12:54:44Z</time></trkpt><trkpt lat="43.4899524872184" lon="11.172292789060485"><ele>139.5</ele><time>2026-04-04T12:54:45Z</time></trkpt><trkpt lat="43.49013082810798" lon="11.172648991303939"><ele>138.0</ele><time>2026-04-04T12:54:46Z</time></trkpt><trkpt lat="43.49031420589372" lon="11.172998211864678"><ele>139.5</ele><time>2026-04-04T12:54:47Z</time></trkpt><trkpt lat="43.49049526139727" lon="11.17334173599928"><ele>141.0</ele><time>2026-04-04T12:54:48Z</time></trkpt><trkpt lat="43.49067506175216" lon="11.17368563651745"><ele>141.5</ele><time>2026-04-04T12:54:49Z</time></trkpt><trkpt lat="43.49085046672969" lon="11.174027446560965"><ele>142.0</ele><time>2026-04-04T12:54:50Z</time></trkpt><trkpt lat="43.491028106348814" lon="11.174377309486337"><ele>142.0</ele><time>2026-04-04T12:54:51Z</time></trkpt><trkpt lat="43.491206367516426" lon="11.174729228213277"><ele>142.0</ele><time>2026-04-04T12:54:52Z</time></trkpt><trkpt lat="43.49138691555798" lon="11.175086227374218"><ele>145.5</ele><time>2026-04-04T12:54:53Z</time></trkpt><trkpt lat="43.49155919533336" lon="11.175418559644779"><ele>149.0</ele><time>2026-04-04T12:54:54Z</time></trkpt><trkpt lat="43.49171972073627" lon="11.175729319767035"><ele>149.0</ele><time>2026-04-04T12:54:55Z</time></trkpt><trkpt lat="43.49188001373727" lon="11.176034301311073"><ele>149.0</ele><time>2026-04-04T12:54:56Z</time></trkpt><trkpt lat="43.492040459901965" lon="11.176332960171852"><ele>153.5</ele><time>2026-04-04T12:54:57Z</time></trkpt><trkpt lat="43.49219816367732" lon="11.176616795599848"><ele>158.0</ele><time>2026-04-04T12:54:58Z</time></trkpt><trkpt lat="43.49237001788892" lon="11.17688990055414"><ele>158.0</ele><time>2026-04-04T12:54:59Z</time></trkpt><trkpt lat="43.49256466870804" lon="11.177163653229044"><ele>158.0</ele><time>2026-04-04T12:55:00Z</time></trkpt><trkpt lat="43.49276971695024" lon="11.177430262452084"><ele>156.5</ele><time>2026-04-04T12:55:01Z</time></trkpt><trkpt lat="43.49298699610402" lon="11.177689344101113"><ele>155.0</ele><time>2026-04-04T12:55:02Z</time></trkpt><trkpt lat="43.49321245803115" lon="11.177924230895679"><ele>155.0</ele><time>2026-04-04T12:55:03Z</time></trkpt><trkpt lat="43.49344782942887" lon="11.17813437219136"><ele>155.0</ele><time>2026-04-04T12:55:04Z</time></trkpt><trkpt lat="43.4936903654412" lon="11.17833177644858"><ele>155.0</ele><time>2026-04-04T12:55:05Z</time></trkpt><trkpt lat="43.4939394026443" lon="11.178509574298454"><ele>155.0</ele><time>2026-04-04T12:55:06Z</time></trkpt><trkpt lat="43.49419291937148" lon="11.17867128682889"><ele>155.0</ele><time>2026-04-04T12:55:07Z</time></trkpt><trkpt lat="43.49445069992624" lon="11.178813762746707"><ele>155.0</ele><time>2026-04-04T12:55:08Z</time></trkpt><trkpt lat="43.494713931183895" lon="11.178952258948808"><ele>159.5</ele><time>2026-04-04T12:55:09Z</time></trkpt><trkpt lat="43.49497701058523" lon="11.179088023569912"><ele>164.0</ele><time>2026-04-04T12:55:10Z</time></trkpt><trkpt lat="43.49524179482374" lon="11.179234765886282"><ele>163.0</ele><time>2026-04-04T12:55:11Z</time></trkpt><trkpt lat="43.495508046538134" lon="11.179395199531365"><ele>162.0</ele><time>2026-04-04T12:55:12Z</time></trkpt><trkpt lat="43.495771251097224" lon="11.179573940480612"><ele>162.0</ele><time>2026-04-04T12:55:13Z</time></trkpt><trkpt lat="43.49603024689774" lon="11.179766556409026"><ele>162.0</ele><time>2026-04-04T12:55:14Z</time></trkpt><trkpt lat="43.49628485655603" lon="11.179969936911322"><ele>164.5</ele><time>2026-04-04T12:55:15Z</time></trkpt><trkpt lat="43.49653747019602" lon="11.180182567956631"><ele>167.0</ele><time>2026-04-04T12:55:16Z</time></trkpt><trkpt lat="43.496782096538006" lon="11.180411086441767"><ele>167.0</ele><time>2026-04-04T12:55:17Z</time></trkpt><trkpt lat="43.49702141320059" lon="11.180656217499944"><ele>167.0</ele><time>2026-04-04T12:55:18Z</time></trkpt><trkpt lat="43.497255779399204" lon="11.180919046519543"><ele>168.0</ele><time>2026-04-04T12:55:19Z</time></trkpt><trkpt lat="43.497485982484626" lon="11.181187665219802"><ele>169.0</ele><time>2026-04-04T12:55:20Z</time></trkpt><trkpt lat="43.497705024417996" lon="11.181468767509582"><ele>172.5</ele><time>2026-04-04T12:55:21Z</time></trkpt><trkpt lat="43.49791048606136" lon="11.181747410561915"><ele>176.0</ele><time>2026-04-04T12:55:22Z</time></trkpt><trkpt lat="43.4981001372792" lon="11.182031698511759"><ele>176.0</ele><time>2026-04-04T12:55:23Z</time></trkpt><trkpt lat="43.498287956100945" lon="11.182330550121591"><ele>176.0</ele><time>2026-04-04T12:55:24Z</time></trkpt><trkpt lat="43.49847183926272" lon="11.182651505354595"><ele>177.0</ele><time>2026-04-04T12:55:25Z</time></trkpt><trkpt lat="43.49865036500755" lon="11.182981155512064"><ele>178.0</ele><time>2026-04-04T12:55:26Z</time></trkpt><trkpt lat="43.4988222970965" lon="11.183314753183359"><ele>178.0</ele><time>2026-04-04T12:55:27Z</time></trkpt><trkpt lat="43.498993262483594" lon="11.18365062102151"><ele>178.0</ele><time>2026-04-04T12:55:28Z</time></trkpt><trkpt lat="43.49916373995783" lon="11.183986694037197"><ele>182.0</ele><time>2026-04-04T12:55:29Z</time></trkpt><trkpt lat="43.49933352188384" lon="11.184317675016642"><ele>186.0</ele><time>2026-04-04T12:55:30Z</time></trkpt><trkpt lat="43.49950519235117" lon="11.184645484044076"><ele>184.0</ele><time>2026-04-04T12:55:31Z</time></trkpt><trkpt lat="43.49967368792109" lon="11.184965181312977"><ele>182.0</ele><time>2026-04-04T12:55:32Z</time></trkpt><trkpt lat="43.49983964374406" lon="11.185272422586559"><ele>182.0</ele><time>2026-04-04T12:55:33Z</time></trkpt><trkpt lat="43.50001669704297" lon="11.185570952768112"><ele>182.0</ele><time>2026-04-04T12:55:34Z</time></trkpt><trkpt lat="43.50021088513537" lon="11.185864319983269"><ele>182.5</ele><time>2026-04-04T12:55:35Z</time></trkpt><trkpt lat="43.50041732524209" lon="11.186134908303181"><ele>183.0</ele><time>2026-04-04T12:55:36Z</time></trkpt><trkpt lat="43.50063276056186" lon="11.186391960280861"><ele>185.5</ele><time>2026-04-04T12:55:37Z</time></trkpt><trkpt lat="43.50085752241871" lon="11.186622860202885"><ele>188.0</ele><time>2026-04-04T12:55:38Z</time></trkpt><trkpt lat="43.5010919911512" lon="11.186833913551032"><ele>185.5</ele><time>2026-04-04T12:55:39Z</time></trkpt><trkpt lat="43.50133241797438" lon="11.187026419477391"><ele>183.0</ele><time>2026-04-04T12:55:40Z</time></trkpt><trkpt lat="43.50158629330661" lon="11.187195258997376"><ele>188.5</ele><time>2026-04-04T12:55:41Z</time></trkpt><trkpt lat="43.50184817427724" lon="11.187348113569916"><ele>194.0</ele><time>2026-04-04T12:55:42Z</time></trkpt><trkpt lat="43.50212275187033" lon="11.18748827758794"><ele>194.0</ele><time>2026-04-04T12:55:43Z</time></trkpt><trkpt lat="43.502405986132594" lon="11.187624951969408"><ele>194.0</ele><time>2026-04-04T12:55:44Z</time></trkpt><trkpt lat="43.50269509205101" lon="11.187763663802167"><ele>192.5</ele><time>2026-04-04T12:55:45Z</time></trkpt><trkpt lat="43.502992498260525" lon="11.187900573299387"><ele>191.0</ele><time>2026-04-04T12:55:46Z</time></trkpt><trkpt lat="43.503294907038175" lon="11.188040248909921"><ele>194.0</ele><time>2026-04-04T12:55:47Z</time></trkpt><trkpt lat="43.503595467048605" lon="11.188180816132313"><ele>197.0</ele><time>2026-04-04T12:55:48Z</time></trkpt><trkpt lat="43.50388880898632" lon="11.188318599445871"><ele>197.0</ele><time>2026-04-04T12:55:49Z</time></trkpt><trkpt lat="43.50417649734106" lon="11.188453373361508"><ele>197.0</ele><time>2026-04-04T12:55:50Z</time></trkpt><trkpt lat="43.50446214743148" lon="11.188592512852527"><ele>195.5</ele><time>2026-04-04T12:55:51Z</time></trkpt><trkpt lat="43.504747580005734" lon="11.188723732434593"><ele>194.0</ele><time>2026-04-04T12:55:52Z</time></trkpt><trkpt lat="43.50503826262039" lon="11.188856609452802"><ele>194.0</ele><time>2026-04-04T12:55:53Z</time></trkpt><trkpt lat="43.50532753231525" lon="11.188986869827707"><ele>194.0</ele><time>2026-04-04T12:55:54Z</time></trkpt><trkpt lat="43.50562035775732" lon="11.189111020173533"><ele>200.5</ele><time>2026-04-04T12:55:55Z</time></trkpt><trkpt lat="43.505915376901" lon="11.189218890346602"><ele>207.0</ele><time>2026-04-04T12:55:56Z</time></trkpt><trkpt lat="43.50620897033668" lon="11.18930364189831"><ele>205.5</ele><time>2026-04-04T12:55:57Z</time></trkpt><trkpt lat="43.50650434101024" lon="11.189388156415996"><ele>204.0</ele><time>2026-04-04T12:55:58Z</time></trkpt><trkpt lat="43.506794939745916" lon="11.189471073482274"><ele>204.5</ele><time>2026-04-04T12:55:59Z</time></trkpt><trkpt lat="43.507098495051274" lon="11.189549172995537"><ele>205.0</ele><time>2026-04-04T12:56:00Z</time></trkpt><trkpt lat="43.50739060102709" lon="11.189643146705393"><ele>205.0</ele><time>2026-04-04T12:56:01Z</time></trkpt><trkpt lat="43.50769327165742" lon="11.189730598050515"><ele>205.0</ele><time>2026-04-04T12:56:02Z</time></trkpt><trkpt lat="43.50799842671676" lon="11.189821950422965"><ele>209.0</ele><time>2026-04-04T12:56:03Z</time></trkpt><trkpt lat="43.50830852959167" lon="11.189909446091407"><ele>213.0</ele><time>2026-04-04T12:56:04Z</time></trkpt><trkpt lat="43.5086029206026" lon="11.189994958039275"><ele>213.0</ele><time>2026-04-04T12:56:05Z</time></trkpt><trkpt lat="43.50888483852896" lon="11.190081615756778"><ele>213.0</ele><time>2026-04-04T12:56:06Z</time></trkpt><trkpt lat="43.509170715510834" lon="11.190173756027983"><ele>213.0</ele><time>2026-04-04T12:56:07Z</time></trkpt><trkpt lat="43.50945806480428" lon="11.190289473746049"><ele>213.0</ele><time>2026-04-04T12:56:08Z</time></trkpt><trkpt lat="43.50974763454434" lon="11.190429076900934"><ele>211.0</ele><time>2026-04-04T12:56:09Z</time></trkpt><trkpt lat="43.510034799994834" lon="11.190581673667838"><ele>209.0</ele><time>2026-04-04T12:56:10Z</time></trkpt><trkpt lat="43.51031530855166" lon="11.190746780821303"><ele>212.5</ele><time>2026-04-04T12:56:11.001Z</time></trkpt><trkpt lat="43.51057359761647" lon="11.190915555662135"><ele>216.0</ele><time>2026-04-04T12:56:12.001Z</time></trkpt><trkpt lat="43.51082763401806" lon="11.191102876616979"><ele>216.0</ele><time>2026-04-04T12:56:13.001Z</time></trkpt><trkpt lat="43.51107617687162" lon="11.191305464683499"><ele>216.0</ele><time>2026-04-04T12:56:14.001Z</time></trkpt><trkpt lat="43.51130764242223" lon="11.191504092330858"><ele>220.0</ele><time>2026-04-04T12:56:15.001Z</time></trkpt><trkpt lat="43.51152512990282" lon="11.191702827714094"><ele>224.0</ele><time>2026-04-04T12:56:16.001Z</time></trkpt><trkpt lat="43.51174194571313" lon="11.191906658903724"><ele>224.0</ele><time>2026-04-04T12:56:17.001Z</time></trkpt><trkpt lat="43.51196305261053" lon="11.192112711735405"><ele>224.0</ele><time>2026-04-04T12:56:18.001Z</time></trkpt><trkpt lat="43.5121773278639" lon="11.192326169032908"><ele>226.0</ele><time>2026-04-04T12:56:19.001Z</time></trkpt><trkpt lat="43.51238153815333" lon="11.192561382399035"><ele>228.0</ele><time>2026-04-04T12:56:20.001Z</time></trkpt><trkpt lat="43.5125683659438" lon="11.192814012174008"><ele>228.0</ele><time>2026-04-04T12:56:21.001Z</time></trkpt><trkpt lat="43.512747491795544" lon="11.193085868001745"><ele>228.0</ele><time>2026-04-04T12:56:22.001Z</time></trkpt><trkpt lat="43.51291200674035" lon="11.193377823935329"><ele>228.0</ele><time>2026-04-04T12:56:23.001Z</time></trkpt><trkpt lat="43.51306321822235" lon="11.193685177682848"><ele>228.0</ele><time>2026-04-04T12:56:24.001Z</time></trkpt><trkpt lat="43.51319972285303" lon="11.19399941882834"><ele>233.0</ele><time>2026-04-04T12:56:25.001Z</time></trkpt><trkpt lat="43.51333597817511" lon="11.19432054800054"><ele>238.0</ele><time>2026-04-04T12:56:26.001Z</time></trkpt><trkpt lat="43.51347847850175" lon="11.194631589133635"><ele>237.5</ele><time>2026-04-04T12:56:27.001Z</time></trkpt><trkpt lat="43.51363458932853" lon="11.194934461246145"><ele>237.0</ele><time>2026-04-04T12:56:28Z</time></trkpt><trkpt lat="43.513799784906226" lon="11.195213383075668"><ele>237.0</ele><time>2026-04-04T12:56:29Z</time></trkpt><trkpt lat="43.51397089944923" lon="11.195461378625293"><ele>237.0</ele><time>2026-04-04T12:56:30Z</time></trkpt><trkpt lat="43.51415660338763" lon="11.195704149465906"><ele>239.5</ele><time>2026-04-04T12:56:31Z</time></trkpt><trkpt lat="43.51434883849313" lon="11.195930597873106"><ele>242.0</ele><time>2026-04-04T12:56:32Z</time></trkpt><trkpt lat="43.51455478411385" lon="11.196136935389102"><ele>235.0</ele><time>2026-04-04T12:56:33Z</time></trkpt><trkpt lat="43.514771968536955" lon="11.196321722313192"><ele>228.0</ele><time>2026-04-04T12:56:34Z</time></trkpt><trkpt lat="43.5149926293444" lon="11.19648889196764"><ele>229.5</ele><time>2026-04-04T12:56:35Z</time></trkpt><trkpt lat="43.51521266357874" lon="11.19663259540971"><ele>231.0</ele><time>2026-04-04T12:56:36Z</time></trkpt><trkpt lat="43.515439561284694" lon="11.19675851494361"><ele>232.5</ele><time>2026-04-04T12:56:37Z</time></trkpt><trkpt lat="43.51567287810284" lon="11.196871810173361"><ele>234.0</ele><time>2026-04-04T12:56:38Z</time></trkpt><trkpt lat="43.51591434595047" lon="11.196956758259441"><ele>234.0</ele><time>2026-04-04T12:56:39Z</time></trkpt><trkpt lat="43.51616025647549" lon="11.197008387913304"><ele>234.0</ele><time>2026-04-04T12:56:40Z</time></trkpt><trkpt lat="43.51641087336786" lon="11.197044414179237"><ele>240.0</ele><time>2026-04-04T12:56:41Z</time></trkpt><trkpt lat="43.51666155520105" lon="11.197066707448167"><ele>246.0</ele><time>2026-04-04T12:56:42Z</time></trkpt><trkpt lat="43.51691524993965" lon="11.197083231505989"><ele>249.5</ele><time>2026-04-04T12:56:43Z</time></trkpt><trkpt lat="43.51716970428793" lon="11.197092042451697"><ele>253.0</ele><time>2026-04-04T12:56:44Z</time></trkpt><trkpt lat="43.51743134755169" lon="11.197094158483244"><ele>253.0</ele><time>2026-04-04T12:56:45Z</time></trkpt><trkpt lat="43.51770757543797" lon="11.197095755284584"><ele>253.0</ele><time>2026-04-04T12:56:46Z</time></trkpt><trkpt lat="43.51799002747135" lon="11.197103778603415"><ele>254.0</ele><time>2026-04-04T12:56:47Z</time></trkpt><trkpt lat="43.518281271838084" lon="11.19711131785873"><ele>255.0</ele><time>2026-04-04T12:56:48Z</time></trkpt><trkpt lat="43.51856830433357" lon="11.197128124234542"><ele>255.5</ele><time>2026-04-04T12:56:49Z</time></trkpt><trkpt lat="43.5188531728514" lon="11.197166256780939"><ele>256.0</ele><time>2026-04-04T12:56:50Z</time></trkpt><trkpt lat="43.51913913480408" lon="11.197229779355256"><ele>256.0</ele><time>2026-04-04T12:56:51Z</time></trkpt><trkpt lat="43.519425896858344" lon="11.197320764302257"><ele>256.0</ele><time>2026-04-04T12:56:52Z</time></trkpt><trkpt lat="43.519716074528446" lon="11.19742779682889"><ele>261.5</ele><time>2026-04-04T12:56:53Z</time></trkpt><trkpt lat="43.52001386267421" lon="11.197554734350867"><ele>267.0</ele><time>2026-04-04T12:56:54Z</time></trkpt><trkpt lat="43.520314996977895" lon="11.197698682718999"><ele>264.5</ele><time>2026-04-04T12:56:55Z</time></trkpt><trkpt lat="43.52061419809112" lon="11.197855593923112"><ele>262.0</ele><time>2026-04-04T12:56:56Z</time></trkpt><trkpt lat="43.52091464896683" lon="11.198018526599883"><ele>266.5</ele><time>2026-04-04T12:56:57Z</time></trkpt><trkpt lat="43.521202287439884" lon="11.198169280144727"><ele>271.0</ele><time>2026-04-04T12:56:58Z</time></trkpt><trkpt lat="43.52147596852744" lon="11.198318944552998"><ele>271.0</ele><time>2026-04-04T12:56:59Z</time></trkpt><trkpt lat="43.52174574520179" lon="11.19846451534792"><ele>271.0</ele><time>2026-04-04T12:57:00Z</time></trkpt><trkpt lat="43.52199707816319" lon="11.19860059391748"><ele>269.5</ele><time>2026-04-04T12:57:01Z</time></trkpt><trkpt lat="43.52225171849815" lon="11.198734088960409"><ele>268.0</ele><time>2026-04-04T12:57:02Z</time></trkpt><trkpt lat="43.52251165462242" lon="11.198879005884267"><ele>270.0</ele><time>2026-04-04T12:57:03Z</time></trkpt><trkpt lat="43.522769836036225" lon="11.19903476260361"><ele>272.0</ele><time>2026-04-04T12:57:04Z</time></trkpt><trkpt lat="43.52302251927739" lon="11.199202691528777"><ele>272.0</ele><time>2026-04-04T12:57:05Z</time></trkpt><trkpt lat="43.52327445275873" lon="11.199381748001173"><ele>272.0</ele><time>2026-04-04T12:57:06Z</time></trkpt><trkpt lat="43.523523785068235" lon="11.199573587310638"><ele>273.5</ele><time>2026-04-04T12:57:07Z</time></trkpt><trkpt lat="43.52376428222282" lon="11.199770506531658"><ele>275.0</ele><time>2026-04-04T12:57:08Z</time></trkpt><trkpt lat="43.523975303181636" lon="11.199957033444296"><ele>276.5</ele><time>2026-04-04T12:57:09Z</time></trkpt><trkpt lat="43.524181858810664" lon="11.20015227299129"><ele>278.0</ele><time>2026-04-04T12:57:10Z</time></trkpt><trkpt lat="43.52438121793408" lon="11.200353800359139"><ele>280.0</ele><time>2026-04-04T12:57:11Z</time></trkpt><trkpt lat="43.52457814963229" lon="11.200557674936128"><ele>282.0</ele><time>2026-04-04T12:57:12Z</time></trkpt><trkpt lat="43.52477028468063" lon="11.200766659743318"><ele>282.0</ele><time>2026-04-04T12:57:13Z</time></trkpt><trkpt lat="43.52495787501237" lon="11.200984790206011"><ele>282.0</ele><time>2026-04-04T12:57:14Z</time></trkpt><trkpt lat="43.52513749260353" lon="11.201211230237579"><ele>282.0</ele><time>2026-04-04T12:57:15Z</time></trkpt><trkpt lat="43.52530399749631" lon="11.201429381859018"><ele>282.0</ele><time>2026-04-04T12:57:16Z</time></trkpt><trkpt lat="43.52546291081246" lon="11.201644823617968"><ele>286.5</ele><time>2026-04-04T12:57:17Z</time></trkpt><trkpt lat="43.52562170736146" lon="11.201873480628354"><ele>291.0</ele><time>2026-04-04T12:57:18Z</time></trkpt><trkpt lat="43.52578356477107" lon="11.202114601826665"><ele>290.5</ele><time>2026-04-04T12:57:19Z</time></trkpt><trkpt lat="43.52594742076674" lon="11.202367398965599"><ele>290.0</ele><time>2026-04-04T12:57:20Z</time></trkpt><trkpt lat="43.52611434714797" lon="11.20263936677608"><ele>289.5</ele><time>2026-04-04T12:57:21Z</time></trkpt><trkpt lat="43.52627822158282" lon="11.202927945746909"><ele>289.0</ele><time>2026-04-04T12:57:22Z</time></trkpt><trkpt lat="43.52643732727184" lon="11.203241829672892"><ele>289.0</ele><time>2026-04-04T12:57:23Z</time></trkpt><trkpt lat="43.52658982127412" lon="11.203566579316368"><ele>289.0</ele><time>2026-04-04T12:57:24Z</time></trkpt><trkpt lat="43.52674447986259" lon="11.203903142489054"><ele>290.5</ele><time>2026-04-04T12:57:25Z</time></trkpt><trkpt lat="43.52689252123411" lon="11.204251405761177"><ele>292.0</ele><time>2026-04-04T12:57:26Z</time></trkpt><trkpt lat="43.52704522811447" lon="11.204611036627108"><ele>288.5</ele><time>2026-04-04T12:57:27Z</time></trkpt><trkpt lat="43.52720171374224" lon="11.204980925813446"><ele>285.0</ele><time>2026-04-04T12:57:28Z</time></trkpt><trkpt lat="43.52735705271216" lon="11.2053451405182"><ele>289.5</ele><time>2026-04-04T12:57:29Z</time></trkpt><trkpt lat="43.52751386214165" lon="11.205712016791917"><ele>294.0</ele><time>2026-04-04T12:57:30Z</time></trkpt><trkpt lat="43.527666988168086" lon="11.206074402682015"><ele>294.0</ele><time>2026-04-04T12:57:31Z</time></trkpt><trkpt lat="43.527807078240045" lon="11.206414001819049"><ele>294.0</ele><time>2026-04-04T12:57:32Z</time></trkpt><trkpt lat="43.52794046566709" lon="11.206731410944252"><ele>294.0</ele><time>2026-04-04T12:57:33Z</time></trkpt><trkpt lat="43.528072844537625" lon="11.20703679752501"><ele>294.0</ele><time>2026-04-04T12:57:34Z</time></trkpt><trkpt lat="43.52820707845711" lon="11.207347576287816"><ele>292.5</ele><time>2026-04-04T12:57:35Z</time></trkpt><trkpt lat="43.52834295013894" lon="11.207663077026785"><ele>291.0</ele><time>2026-04-04T12:57:36Z</time></trkpt><trkpt lat="43.52848380990936" lon="11.207981801616347"><ele>292.0</ele><time>2026-04-04T12:57:37Z</time></trkpt><trkpt lat="43.528639248501555" lon="11.20829978863818"><ele>293.0</ele><time>2026-04-04T12:57:38Z</time></trkpt><trkpt lat="43.52881669498873" lon="11.20860710886442"><ele>293.5</ele><time>2026-04-04T12:57:39Z</time></trkpt><trkpt lat="43.52901342259942" lon="11.208900997572123"><ele>294.0</ele><time>2026-04-04T12:57:40Z</time></trkpt><trkpt lat="43.529218110093936" lon="11.20917752202444"><ele>294.0</ele><time>2026-04-04T12:57:41Z</time></trkpt><trkpt lat="43.5294029513288" lon="11.20942434889453"><ele>294.0</ele><time>2026-04-04T12:57:42Z</time></trkpt><trkpt lat="43.529577783300205" lon="11.209670303923497"><ele>292.0</ele><time>2026-04-04T12:57:43Z</time></trkpt><trkpt lat="43.529744530171016" lon="11.209909363100385"><ele>290.0</ele><time>2026-04-04T12:57:44Z</time></trkpt><trkpt lat="43.52990771147187" lon="11.210160643257"><ele>290.0</ele><time>2026-04-04T12:57:45Z</time></trkpt><trkpt lat="43.53005913682049" lon="11.210435966576009"><ele>290.0</ele><time>2026-04-04T12:57:46Z</time></trkpt><trkpt lat="43.530201264881214" lon="11.210718565035952"><ele>286.0</ele><time>2026-04-04T12:57:47Z</time></trkpt><trkpt lat="43.530329955279676" lon="11.210999992719103"><ele>282.0</ele><time>2026-04-04T12:57:48Z</time></trkpt><trkpt lat="43.53043857373644" lon="11.21131131410698"><ele>285.0</ele><time>2026-04-04T12:57:49Z</time></trkpt><trkpt lat="43.530554872883144" lon="11.211639460332291"><ele>288.0</ele><time>2026-04-04T12:57:50Z</time></trkpt><trkpt lat="43.53066262887485" lon="11.211994863122676"><ele>290.0</ele><time>2026-04-04T12:57:51Z</time></trkpt><trkpt lat="43.53076484654199" lon="11.212374731499178"><ele>292.0</ele><time>2026-04-04T12:57:52Z</time></trkpt><trkpt lat="43.53086964407458" lon="11.212752958669673"><ele>292.0</ele><time>2026-04-04T12:57:53Z</time></trkpt><trkpt lat="43.53097286175588" lon="11.21311194965963"><ele>292.0</ele><time>2026-04-04T12:57:54Z</time></trkpt><trkpt lat="43.53106666205673" lon="11.213425303292762"><ele>292.5</ele><time>2026-04-04T12:57:55Z</time></trkpt><trkpt lat="43.5311626761023" lon="11.213717316147104"><ele>293.0</ele><time>2026-04-04T12:57:56Z</time></trkpt><trkpt lat="43.53127241181813" lon="11.214003605671492"><ele>285.0</ele><time>2026-04-04T12:57:57Z</time></trkpt><trkpt lat="43.53139938534308" lon="11.214291182451932"><ele>277.0</ele><time>2026-04-04T12:57:58Z</time></trkpt><trkpt lat="43.53154552733723" lon="11.214579908213965"><ele>278.0</ele><time>2026-04-04T12:57:59Z</time></trkpt><trkpt lat="43.53170428464174" lon="11.214857250043789"><ele>279.0</ele><time>2026-04-04T12:58:00Z</time></trkpt><trkpt lat="43.531868933986736" lon="11.215115946686005"><ele>279.0</ele><time>2026-04-04T12:58:01Z</time></trkpt><trkpt lat="43.53204067377132" lon="11.215377733413694"><ele>279.0</ele><time>2026-04-04T12:58:02Z</time></trkpt><trkpt lat="43.532220075071" lon="11.215649207186951"><ele>288.5</ele><time>2026-04-04T12:58:03Z</time></trkpt><trkpt lat="43.532400407168" lon="11.215933528451634"><ele>298.0</ele><time>2026-04-04T12:58:04Z</time></trkpt><trkpt lat="43.532582067426105" lon="11.216217295366075"><ele>297.0</ele><time>2026-04-04T12:58:05Z</time></trkpt><trkpt lat="43.53276218764096" lon="11.216503209742816"><ele>296.0</ele><time>2026-04-04T12:58:06Z</time></trkpt><trkpt lat="43.53294096008137" lon="11.216789178022726"><ele>300.5</ele><time>2026-04-04T12:58:07Z</time></trkpt><trkpt lat="43.53313175463092" lon="11.217083490409125"><ele>305.0</ele><time>2026-04-04T12:58:08Z</time></trkpt><trkpt lat="43.53332776695742" lon="11.217382841149258"><ele>305.0</ele><time>2026-04-04T12:58:09Z</time></trkpt><trkpt lat="43.533523551273305" lon="11.217693003146474"><ele>305.0</ele><time>2026-04-04T12:58:10Z</time></trkpt><trkpt lat="43.53372004925412" lon="11.217995645485484"><ele>307.5</ele><time>2026-04-04T12:58:11Z</time></trkpt><trkpt lat="43.53390451488304" lon="11.218273636183149"><ele>310.0</ele><time>2026-04-04T12:58:12Z</time></trkpt><trkpt lat="43.53408614981644" lon="11.21853337565533"><ele>310.0</ele><time>2026-04-04T12:58:13Z</time></trkpt><trkpt lat="43.53427922939002" lon="11.218778406849452"><ele>310.0</ele><time>2026-04-04T12:58:14Z</time></trkpt><trkpt lat="43.53448931170929" lon="11.219013774162335"><ele>312.5</ele><time>2026-04-04T12:58:15Z</time></trkpt><trkpt lat="43.53471221203661" lon="11.219239858431692"><ele>315.0</ele><time>2026-04-04T12:58:16Z</time></trkpt><trkpt lat="43.53495390317743" lon="11.219451464572431"><ele>315.0</ele><time>2026-04-04T12:58:17.001Z</time></trkpt><trkpt lat="43.53520100552624" lon="11.21965180763321"><ele>315.0</ele><time>2026-04-04T12:58:18.001Z</time></trkpt><trkpt lat="43.53545613167539" lon="11.219834317488429"><ele>316.5</ele><time>2026-04-04T12:58:19.001Z</time></trkpt><trkpt lat="43.5357180658275" lon="11.219991336879037"><ele>318.0</ele><time>2026-04-04T12:58:20.001Z</time></trkpt><trkpt lat="43.5359823507961" lon="11.220135704745223"><ele>320.0</ele><time>2026-04-04T12:58:21.001Z</time></trkpt><trkpt lat="43.53625044007525" lon="11.220261411564499"><ele>322.0</ele><time>2026-04-04T12:58:22.001Z</time></trkpt><trkpt lat="43.53652939886514" lon="11.22036660956703"><ele>322.0</ele><time>2026-04-04T12:58:23.001Z</time></trkpt><trkpt lat="43.53680342173742" lon="11.220452391389381"><ele>322.0</ele><time>2026-04-04T12:58:24.001Z</time></trkpt><trkpt lat="43.53707873906187" lon="11.220521841581627"><ele>320.0</ele><time>2026-04-04T12:58:25.001Z</time></trkpt><trkpt lat="43.537357639613674" lon="11.220567246929908"><ele>318.0</ele><time>2026-04-04T12:58:26.001Z</time></trkpt><trkpt lat="43.53764032582103" lon="11.220585175398623"><ele>315.0</ele><time>2026-04-04T12:58:27.001Z</time></trkpt><trkpt lat="43.537921552229406" lon="11.220583313728126"><ele>312.0</ele><time>2026-04-04T12:58:28.001Z</time></trkpt><trkpt lat="43.53820508522411" lon="11.220567357065965"><ele>312.0</ele><time>2026-04-04T12:58:29.001Z</time></trkpt><trkpt lat="43.538489077257445" lon="11.220533259861998"><ele>312.0</ele><time>2026-04-04T12:58:30.001Z</time></trkpt><trkpt lat="43.53877571470243" lon="11.22047436845677"><ele>311.5</ele><time>2026-04-04T12:58:31.001Z</time></trkpt><trkpt lat="43.5390637828237" lon="11.220398501515648"><ele>311.0</ele><time>2026-04-04T12:58:32.001Z</time></trkpt><trkpt lat="43.539347157420615" lon="11.220300313783396"><ele>312.5</ele><time>2026-04-04T12:58:33.001Z</time></trkpt><trkpt lat="43.53963187996353" lon="11.220175264804983"><ele>314.0</ele><time>2026-04-04T12:58:34.001Z</time></trkpt><trkpt lat="43.539908745227166" lon="11.220025647973452"><ele>314.0</ele><time>2026-04-04T12:58:35.001Z</time></trkpt><trkpt lat="43.54018280220619" lon="11.219855098475184"><ele>314.0</ele><time>2026-04-04T12:58:36.001Z</time></trkpt><trkpt lat="43.54045023531889" lon="11.21966865614023"><ele>311.5</ele><time>2026-04-04T12:58:37.001Z</time></trkpt><trkpt lat="43.5407063141434" lon="11.219457971267287"><ele>309.0</ele><time>2026-04-04T12:58:38.001Z</time></trkpt><trkpt lat="43.54094353289399" lon="11.21923853622907"><ele>309.0</ele><time>2026-04-04T12:58:39.001Z</time></trkpt><trkpt lat="43.54117071238532" lon="11.219005480802528"><ele>309.0</ele><time>2026-04-04T12:58:40.001Z</time></trkpt><trkpt lat="43.5413880133754" lon="11.218744875845871"><ele>306.0</ele><time>2026-04-04T12:58:41.001Z</time></trkpt><trkpt lat="43.54160616267154" lon="11.218468413398417"><ele>303.0</ele><time>2026-04-04T12:58:42.001Z</time></trkpt><trkpt lat="43.54181476342311" lon="11.218178016348295"><ele>303.0</ele><time>2026-04-04T12:58:43.001Z</time></trkpt><trkpt lat="43.54201502119054" lon="11.217867841611023"><ele>303.0</ele><time>2026-04-04T12:58:44.001Z</time></trkpt><trkpt lat="43.5422141172182" lon="11.217553122666061"><ele>299.0</ele><time>2026-04-04T12:58:45.001Z</time></trkpt><trkpt lat="43.542416995696726" lon="11.217230864875328"><ele>295.0</ele><time>2026-04-04T12:58:46.001Z</time></trkpt><trkpt lat="43.5426170723248" lon="11.216905535821327"><ele>295.0</ele><time>2026-04-04T12:58:47.001Z</time></trkpt><trkpt lat="43.54281893846854" lon="11.21657998128919"><ele>295.0</ele><time>2026-04-04T12:58:48.001Z</time></trkpt><trkpt lat="43.54301550153255" lon="11.216266806351799"><ele>293.5</ele><time>2026-04-04T12:58:49.001Z</time></trkpt><trkpt lat="43.54320225609431" lon="11.215973140579615"><ele>292.0</ele><time>2026-04-04T12:58:50.001Z</time></trkpt><trkpt lat="43.54338741006653" lon="11.215682040071426"><ele>290.5</ele><time>2026-04-04T12:58:51.001Z</time></trkpt><trkpt lat="43.54358219474868" lon="11.215376089630732"><ele>289.0</ele><time>2026-04-04T12:58:52Z</time></trkpt><trkpt lat="43.54377809363456" lon="11.2150722974807"><ele>292.5</ele><time>2026-04-04T12:58:53Z</time></trkpt><trkpt lat="43.54398260363148" lon="11.21476182221601"><ele>296.0</ele><time>2026-04-04T12:58:54Z</time></trkpt><trkpt lat="43.54419401320942" lon="11.214453638405056"><ele>296.0</ele><time>2026-04-04T12:58:55Z</time></trkpt><trkpt lat="43.54441077173485" lon="11.21414672492616"><ele>296.0</ele><time>2026-04-04T12:58:56Z</time></trkpt><trkpt lat="43.544633062144776" lon="11.213844490395736"><ele>296.0</ele><time>2026-04-04T12:58:57Z</time></trkpt><trkpt lat="43.54485970479049" lon="11.213545822544612"><ele>296.0</ele><time>2026-04-04T12:58:58Z</time></trkpt><trkpt lat="43.54508828818359" lon="11.213252441826661"><ele>295.0</ele><time>2026-04-04T12:58:59Z</time></trkpt><trkpt lat="43.54532134272171" lon="11.21297707719371"><ele>294.0</ele><time>2026-04-04T12:59:00Z</time></trkpt><trkpt lat="43.54554552877795" lon="11.212711423984569"><ele>294.0</ele><time>2026-04-04T12:59:01Z</time></trkpt><trkpt lat="43.54577678935053" lon="11.21245747737084"><ele>294.0</ele><time>2026-04-04T12:59:02Z</time></trkpt><trkpt lat="43.54600881746206" lon="11.212200407834954"><ele>294.5</ele><time>2026-04-04T12:59:03Z</time></trkpt><trkpt lat="43.54624983141705" lon="11.211901128680765"><ele>295.0</ele><time>2026-04-04T12:59:04Z</time></trkpt><trkpt lat="43.54649192170239" lon="11.211640369654365"><ele>294.5</ele><time>2026-04-04T12:59:05Z</time></trkpt><trkpt lat="43.54673026369213" lon="11.211402873785065"><ele>294.0</ele><time>2026-04-04T12:59:06Z</time></trkpt><trkpt lat="43.54697295187064" lon="11.211190140234777"><ele>301.0</ele><time>2026-04-04T12:59:07Z</time></trkpt><trkpt lat="43.5472273037578" lon="11.210995617605926"><ele>308.0</ele><time>2026-04-04T12:59:08Z</time></trkpt><trkpt lat="43.54749583782847" lon="11.210822474218627"><ele>308.0</ele><time>2026-04-04T12:59:09Z</time></trkpt><trkpt lat="43.54777395232151" lon="11.210672120240812"><ele>308.0</ele><time>2026-04-04T12:59:10Z</time></trkpt><trkpt lat="43.548061535027685" lon="11.210548378206653"><ele>305.5</ele><time>2026-04-04T12:59:11Z</time></trkpt><trkpt lat="43.54835087971496" lon="11.210456025341712"><ele>303.0</ele><time>2026-04-04T12:59:12Z</time></trkpt><trkpt lat="43.548649740450706" lon="11.210397628297168"><ele>307.0</ele><time>2026-04-04T12:59:13Z</time></trkpt><trkpt lat="43.54895157854084" lon="11.210366393983385"><ele>311.0</ele><time>2026-04-04T12:59:14Z</time></trkpt><trkpt lat="43.54925473044967" lon="11.210352962409953"><ele>310.5</ele><time>2026-04-04T12:59:15Z</time></trkpt><trkpt lat="43.5495595330133" lon="11.21034733712822"><ele>310.0</ele><time>2026-04-04T12:59:16Z</time></trkpt><trkpt lat="43.549858888664765" lon="11.210339007241112"><ele>310.0</ele><time>2026-04-04T12:59:17Z</time></trkpt><trkpt lat="43.550147967070444" lon="11.210334769699784"><ele>310.0</ele><time>2026-04-04T12:59:18Z</time></trkpt><trkpt lat="43.55044637309903" lon="11.210328043670117"><ele>305.0</ele><time>2026-04-04T12:59:19Z</time></trkpt><trkpt lat="43.5507473623776" lon="11.210318382953114"><ele>300.0</ele><time>2026-04-04T12:59:20Z</time></trkpt><trkpt lat="43.55105246767933" lon="11.21031072454406"><ele>303.0</ele><time>2026-04-04T12:59:21Z</time></trkpt><trkpt lat="43.55136049225079" lon="11.210305276317278"><ele>306.0</ele><time>2026-04-04T12:59:22Z</time></trkpt><trkpt lat="43.55167522310695" lon="11.210302950145056"><ele>306.0</ele><time>2026-04-04T12:59:23Z</time></trkpt><trkpt lat="43.55199912137754" lon="11.210293102868983"><ele>306.0</ele><time>2026-04-04T12:59:24Z</time></trkpt><trkpt lat="43.55233823738164" lon="11.210276859257739"><ele>310.0</ele><time>2026-04-04T12:59:25Z</time></trkpt><trkpt lat="43.552677214509124" lon="11.210264476366614"><ele>314.0</ele><time>2026-04-04T12:59:26Z</time></trkpt><trkpt lat="43.553000229561654" lon="11.210257448974312"><ele>314.5</ele><time>2026-04-04T12:59:27Z</time></trkpt><trkpt lat="43.55330819479695" lon="11.2102513489432"><ele>315.0</ele><time>2026-04-04T12:59:28Z</time></trkpt><trkpt lat="43.55358378213053" lon="11.210245805835493"><ele>316.5</ele><time>2026-04-04T12:59:29Z</time></trkpt><trkpt lat="43.55384521384167" lon="11.210240210554778"><ele>318.0</ele><time>2026-04-04T12:59:30Z</time></trkpt><trkpt lat="43.55409824387092" lon="11.21023439567463"><ele>318.0</ele><time>2026-04-04T12:59:31Z</time></trkpt><trkpt lat="43.55435408652534" lon="11.210233998161108"><ele>318.0</ele><time>2026-04-04T12:59:32Z</time></trkpt><trkpt lat="43.554614827253396" lon="11.210252172692478"><ele>315.0</ele><time>2026-04-04T12:59:33Z</time></trkpt><trkpt lat="43.554883423624176" lon="11.210298540029981"><ele>312.0</ele><time>2026-04-04T12:59:34Z</time></trkpt><trkpt lat="43.555156841873" lon="11.21037109338896"><ele>312.5</ele><time>2026-04-04T12:59:35Z</time></trkpt><trkpt lat="43.555425955128335" lon="11.210477653992788"><ele>313.0</ele><time>2026-04-04T12:59:36Z</time></trkpt><trkpt lat="43.55567842468639" lon="11.210602681522214"><ele>308.0</ele><time>2026-04-04T12:59:37Z</time></trkpt><trkpt lat="43.55591818248089" lon="11.210745535811276"><ele>303.0</ele><time>2026-04-04T12:59:38Z</time></trkpt><trkpt lat="43.55615270824761" lon="11.210903791230097"><ele>300.5</ele><time>2026-04-04T12:59:39Z</time></trkpt><trkpt lat="43.5563869561964" lon="11.211075735179804"><ele>298.0</ele><time>2026-04-04T12:59:40Z</time></trkpt><trkpt lat="43.556622379843056" lon="11.211265033221059"><ele>298.0</ele><time>2026-04-04T12:59:41Z</time></trkpt><trkpt lat="43.55685527446336" lon="11.211467007900605"><ele>298.0</ele><time>2026-04-04T12:59:42Z</time></trkpt><trkpt lat="43.557091179361635" lon="11.211666632961224"><ele>292.5</ele><time>2026-04-04T12:59:43Z</time></trkpt><trkpt lat="43.55731968368647" lon="11.211849130264396"><ele>287.0</ele><time>2026-04-04T12:59:44Z</time></trkpt><trkpt lat="43.557547637618434" lon="11.212025855808694"><ele>287.0</ele><time>2026-04-04T12:59:45Z</time></trkpt><trkpt lat="43.557791795756884" lon="11.212192863690857"><ele>287.0</ele><time>2026-04-04T12:59:46Z</time></trkpt><trkpt lat="43.55805950303432" lon="11.212333592261935"><ele>287.5</ele><time>2026-04-04T12:59:47Z</time></trkpt><trkpt lat="43.55833229918105" lon="11.212454929058898"><ele>288.0</ele><time>2026-04-04T12:59:48Z</time></trkpt><trkpt lat="43.55861328064435" lon="11.212556972385395"><ele>288.0</ele><time>2026-04-04T12:59:49Z</time></trkpt><trkpt lat="43.558904257639576" lon="11.212643877811967"><ele>288.0</ele><time>2026-04-04T12:59:50Z</time></trkpt><trkpt lat="43.559210634536214" lon="11.212704099516618"><ele>288.0</ele><time>2026-04-04T12:59:51Z</time></trkpt><trkpt lat="43.559522686849725" lon="11.212752154421576"><ele>288.0</ele><time>2026-04-04T12:59:52Z</time></trkpt><trkpt lat="43.55983365824041" lon="11.212791460024771"><ele>287.0</ele><time>2026-04-04T12:59:53Z</time></trkpt><trkpt lat="43.560147381823334" lon="11.212824889752"><ele>286.0</ele><time>2026-04-04T12:59:54Z</time></trkpt><trkpt lat="43.56045775118586" lon="11.212865227014"><ele>282.0</ele><time>2026-04-04T12:59:55Z</time></trkpt><trkpt lat="43.560766655080336" lon="11.212903399668631"><ele>278.0</ele><time>2026-04-04T12:59:56Z</time></trkpt><trkpt lat="43.56106191808048" lon="11.212947630316254"><ele>277.0</ele><time>2026-04-04T12:59:57Z</time></trkpt><trkpt lat="43.56135463687812" lon="11.21299087091096"><ele>276.0</ele><time>2026-04-04T12:59:58Z</time></trkpt><trkpt lat="43.561626613799824" lon="11.213026205075044"><ele>276.0</ele><time>2026-04-04T12:59:59Z</time></trkpt><trkpt lat="43.561881469091965" lon="11.213059574414308"><ele>276.0</ele><time>2026-04-04T13:00:00Z</time></trkpt><trkpt lat="43.56212963420823" lon="11.213091230409413"><ele>276.0</ele><time>2026-04-04T13:00:01Z</time></trkpt><trkpt lat="43.56236890555899" lon="11.213117548247483"><ele>276.0</ele><time>2026-04-04T13:00:02Z</time></trkpt><trkpt lat="43.562597959597845" lon="11.21314730509384"><ele>272.0</ele><time>2026-04-04T13:00:03Z</time></trkpt><trkpt lat="43.56282313694729" lon="11.213172869309835"><ele>268.0</ele><time>2026-04-04T13:00:04Z</time></trkpt><trkpt lat="43.563042738970985" lon="11.213200762713086"><ele>264.0</ele><time>2026-04-04T13:00:05Z</time></trkpt><trkpt lat="43.56325816276463" lon="11.213232222468205"><ele>264.6666666666667</ele><time>2026-04-04T13:00:06Z</time></trkpt><trkpt lat="43.563474860493585" lon="11.213262638925046"><ele>265.33333333333337</ele><time>2026-04-04T13:00:07Z</time></trkpt><trkpt lat="43.56368852102333" lon="11.213290694375523"><ele>266.0</ele><time>2026-04-04T13:00:08Z</time></trkpt><trkpt lat="43.56390676157589" lon="11.213317080871057"><ele>266.0</ele><time>2026-04-04T13:00:09Z</time></trkpt><trkpt lat="43.56412072673352" lon="11.213344331533815"><ele>266.0</ele><time>2026-04-04T13:00:10Z</time></trkpt><trkpt lat="43.56433568573154" lon="11.2133539515365"><ele>266.0</ele><time>2026-04-04T13:00:11Z</time></trkpt><trkpt lat="43.56454557020131" lon="11.213349874905996"><ele>267.0</ele><time>2026-04-04T13:00:12Z</time></trkpt><trkpt lat="43.564749806388164" lon="11.213330421949777"><ele>268.0</ele><time>2026-04-04T13:00:13Z</time></trkpt><trkpt lat="43.56495527318359" lon="11.213304827474573"><ele>269.0</ele><time>2026-04-04T13:00:14Z</time></trkpt><trkpt lat="43.565164013522605" lon="11.21326491042609"><ele>267.0</ele><time>2026-04-04T13:00:15Z</time></trkpt><trkpt lat="43.56537128228537" lon="11.213209694177005"><ele>265.0</ele><time>2026-04-04T13:00:16Z</time></trkpt><trkpt lat="43.56557683479793" lon="11.213147908372179"><ele>263.0</ele><time>2026-04-04T13:00:17Z</time></trkpt><trkpt lat="43.565781392705" lon="11.213067654111438"><ele>262.6666666666667</ele><time>2026-04-04T13:00:18Z</time></trkpt><trkpt lat="43.56598585182038" lon="11.212974952535797"><ele>262.3333333333333</ele><time>2026-04-04T13:00:19Z</time></trkpt><trkpt lat="43.56619207866473" lon="11.212860589273115"><ele>262.0</ele><time>2026-04-04T13:00:20Z</time></trkpt><trkpt lat="43.56639837146096" lon="11.212729198875797"><ele>262.0</ele><time>2026-04-04T13:00:21Z</time></trkpt><trkpt lat="43.566594673504554" lon="11.212592955001771"><ele>262.0</ele><time>2026-04-04T13:00:22Z</time></trkpt><trkpt lat="43.566783929600206" lon="11.21244086182513"><ele>262.0</ele><time>2026-04-04T13:00:23.001Z</time></trkpt><trkpt lat="43.56696164068772" lon="11.212280654234112"><ele>254.66666666666666</ele><time>2026-04-04T13:00:24.001Z</time></trkpt><trkpt lat="43.56712929093119" lon="11.212113437806948"><ele>247.33333333333331</ele><time>2026-04-04T13:00:25.001Z</time></trkpt><trkpt lat="43.567288807626646" lon="11.211942535206889"><ele>240.0</ele><time>2026-04-04T13:00:26.001Z</time></trkpt><trkpt lat="43.567441415626895" lon="11.211777878512551"><ele>240.0</ele><time>2026-04-04T13:00:27.001Z</time></trkpt><trkpt lat="43.56759865084627" lon="11.211602688236932"><ele>240.0</ele><time>2026-04-04T13:00:28.001Z</time></trkpt><trkpt lat="43.56775055302787" lon="11.211430603321817"><ele>240.0</ele><time>2026-04-04T13:00:29.001Z</time></trkpt><trkpt lat="43.567911933920264" lon="11.211257213083774"><ele>239.66666666666669</ele><time>2026-04-04T13:00:30.001Z</time></trkpt><trkpt lat="43.56808062226443" lon="11.211071624957402"><ele>239.33333333333334</ele><time>2026-04-04T13:00:31.001Z</time></trkpt><trkpt lat="43.5682498127029" lon="11.210875587085157"><ele>239.0</ele><time>2026-04-04T13:00:32.001Z</time></trkpt><trkpt lat="43.56842503473909" lon="11.210677803345822"><ele>238.0</ele><time>2026-04-04T13:00:33.001Z</time></trkpt><trkpt lat="43.56860380257248" lon="11.210487300586555"><ele>237.0</ele><time>2026-04-04T13:00:34.001Z</time></trkpt><trkpt lat="43.56878823099981" lon="11.210296736792879"><ele>237.0</ele><time>2026-04-04T13:00:35.001Z</time></trkpt><trkpt lat="43.56897748820169" lon="11.210090855751181"><ele>237.0</ele><time>2026-04-04T13:00:36.001Z</time></trkpt><trkpt lat="43.569182703595246" lon="11.209862772972235"><ele>234.0</ele><time>2026-04-04T13:00:37.001Z</time></trkpt><trkpt lat="43.56939998969116" lon="11.209617783786214"><ele>231.0</ele><time>2026-04-04T13:00:38.001Z</time></trkpt><trkpt lat="43.569627194782385" lon="11.20936712501191"><ele>231.0</ele><time>2026-04-04T13:00:39.001Z</time></trkpt><trkpt lat="43.569851580542085" lon="11.209112973154083"><ele>231.0</ele><time>2026-04-04T13:00:40.001Z</time></trkpt><trkpt lat="43.570080534351476" lon="11.208864794991092"><ele>229.5</ele><time>2026-04-04T13:00:41.001Z</time></trkpt><trkpt lat="43.570317567648246" lon="11.208604123213657"><ele>228.0</ele><time>2026-04-04T13:00:42.001Z</time></trkpt><trkpt lat="43.5705536339757" lon="11.208356844669641"><ele>233.0</ele><time>2026-04-04T13:00:43.001Z</time></trkpt><trkpt lat="43.5707980174551" lon="11.208127787229627"><ele>238.0</ele><time>2026-04-04T13:00:44.001Z</time></trkpt><trkpt lat="43.57105445137015" lon="11.207916326824726"><ele>228.5</ele><time>2026-04-04T13:00:45.001Z</time></trkpt><trkpt lat="43.571331791081086" lon="11.207719448351993"><ele>219.0</ele><time>2026-04-04T13:00:46.001Z</time></trkpt><trkpt lat="43.57161906886778" lon="11.20754963232291"><ele>219.0</ele><time>2026-04-04T13:00:47.001Z</time></trkpt><trkpt lat="43.57191272282268" lon="11.207394263634924"><ele>219.0</ele><time>2026-04-04T13:00:48.001Z</time></trkpt><trkpt lat="43.572198181361586" lon="11.20724790738218"><ele>217.0</ele><time>2026-04-04T13:00:49.001Z</time></trkpt><trkpt lat="43.57246639367993" lon="11.207100665686841"><ele>215.0</ele><time>2026-04-04T13:00:50.001Z</time></trkpt><trkpt lat="43.572729312729614" lon="11.206958158339416"><ele>217.0</ele><time>2026-04-04T13:00:51.001Z</time></trkpt><trkpt lat="43.57299577171981" lon="11.206810302479088"><ele>219.0</ele><time>2026-04-04T13:00:52.001Z</time></trkpt><trkpt lat="43.57327224841571" lon="11.20665156663998"><ele>224.5</ele><time>2026-04-04T13:00:53.001Z</time></trkpt><trkpt lat="43.573555506305894" lon="11.20649440299927"><ele>230.0</ele><time>2026-04-04T13:00:54Z</time></trkpt><trkpt lat="43.57384876693138" lon="11.20633391010139"><ele>230.0</ele><time>2026-04-04T13:00:55Z</time></trkpt><trkpt lat="43.57415282785357" lon="11.206163255482771"><ele>230.0</ele><time>2026-04-04T13:00:56Z</time></trkpt><trkpt lat="43.574467995351554" lon="11.20598652112818"><ele>224.0</ele><time>2026-04-04T13:00:57Z</time></trkpt><trkpt lat="43.57478306066833" lon="11.205815394109798"><ele>218.0</ele><time>2026-04-04T13:00:58Z</time></trkpt><trkpt lat="43.5751016383953" lon="11.205643110601676"><ele>213.5</ele><time>2026-04-04T13:00:59Z</time></trkpt><trkpt lat="43.57541320228233" lon="11.205470144784778"><ele>209.0</ele><time>2026-04-04T13:01:00Z</time></trkpt><trkpt lat="43.57570999430376" lon="11.205306954510377"><ele>209.0</ele><time>2026-04-04T13:01:01Z</time></trkpt><trkpt lat="43.57601046865996" lon="11.205155073529586"><ele>209.0</ele><time>2026-04-04T13:01:02Z</time></trkpt><trkpt lat="43.57631540438871" lon="11.205009170590985"><ele>208.5</ele><time>2026-04-04T13:01:03Z</time></trkpt><trkpt lat="43.57662791654561" lon="11.204871724998558"><ele>208.0</ele><time>2026-04-04T13:01:04Z</time></trkpt><trkpt lat="43.576944414900545" lon="11.204743011181627"><ele>205.0</ele><time>2026-04-04T13:01:05Z</time></trkpt><trkpt lat="43.577262055580654" lon="11.204618649774334"><ele>202.0</ele><time>2026-04-04T13:01:06Z</time></trkpt><trkpt lat="43.57758285237455" lon="11.204494821168149"><ele>199.0</ele><time>2026-04-04T13:01:07Z</time></trkpt><trkpt lat="43.57790747870618" lon="11.2043770268563"><ele>196.0</ele><time>2026-04-04T13:01:08Z</time></trkpt><trkpt lat="43.57823437535662" lon="11.20426729435825"><ele>196.0</ele><time>2026-04-04T13:01:09Z</time></trkpt><trkpt lat="43.57856181944346" lon="11.204165892142656"><ele>196.0</ele><time>2026-04-04T13:01:10Z</time></trkpt><trkpt lat="43.578893583875455" lon="11.204069770856703"><ele>195.0</ele><time>2026-04-04T13:01:11Z</time></trkpt><trkpt lat="43.5792120487216" lon="11.203972262013423"><ele>194.0</ele><time>2026-04-04T13:01:12Z</time></trkpt><trkpt lat="43.57951923338778" lon="11.203877326703875"><ele>194.0</ele><time>2026-04-04T13:01:13Z</time></trkpt><trkpt lat="43.579819850114895" lon="11.203788877905467"><ele>194.0</ele><time>2026-04-04T13:01:14Z</time></trkpt><trkpt lat="43.580118903474535" lon="11.203702148384362"><ele>189.5</ele><time>2026-04-04T13:01:15Z</time></trkpt><trkpt lat="43.58041562013855" lon="11.203613261505687"><ele>185.0</ele><time>2026-04-04T13:01:16Z</time></trkpt><trkpt lat="43.58071496295021" lon="11.203523321526555"><ele>185.0</ele><time>2026-04-04T13:01:17Z</time></trkpt><trkpt lat="43.5810131486288" lon="11.203433022284944"><ele>185.0</ele><time>2026-04-04T13:01:18Z</time></trkpt><trkpt lat="43.58129662248052" lon="11.203347795658944"><ele>182.5</ele><time>2026-04-04T13:01:19Z</time></trkpt><trkpt lat="43.58157338209682" lon="11.203266380364958"><ele>180.0</ele><time>2026-04-04T13:01:20Z</time></trkpt><trkpt lat="43.58184027545684" lon="11.203184849668581"><ele>181.0</ele><time>2026-04-04T13:01:21Z</time></trkpt><trkpt lat="43.582110273268114" lon="11.203102653178739"><ele>182.0</ele><time>2026-04-04T13:01:22Z</time></trkpt><trkpt lat="43.582378573924444" lon="11.203023717018171"><ele>182.0</ele><time>2026-04-04T13:01:23Z</time></trkpt><trkpt lat="43.58264598151488" lon="11.202946597827989"><ele>182.0</ele><time>2026-04-04T13:01:24Z</time></trkpt><trkpt lat="43.582910719368904" lon="11.202868877429369"><ele>179.0</ele><time>2026-04-04T13:01:25Z</time></trkpt><trkpt lat="43.58318355379714" lon="11.202788130341558"><ele>176.0</ele><time>2026-04-04T13:01:26Z</time></trkpt><trkpt lat="43.583463049272886" lon="11.202701427984646"><ele>175.0</ele><time>2026-04-04T13:01:27Z</time></trkpt><trkpt lat="43.5837497923229" lon="11.20260895615056"><ele>174.0</ele><time>2026-04-04T13:01:28Z</time></trkpt><trkpt lat="43.58404597850651" lon="11.202517880577503"><ele>174.0</ele><time>2026-04-04T13:01:29Z</time></trkpt><trkpt lat="43.58435938804977" lon="11.202425424641216"><ele>174.0</ele><time>2026-04-04T13:01:30Z</time></trkpt><trkpt lat="43.58467714285748" lon="11.202336821618582"><ele>174.5</ele><time>2026-04-04T13:01:31Z</time></trkpt><trkpt lat="43.58499727345352" lon="11.20224640673956"><ele>175.0</ele><time>2026-04-04T13:01:32Z</time></trkpt><trkpt lat="43.58532145302747" lon="11.202147108875934"><ele>175.0</ele><time>2026-04-04T13:01:33Z</time></trkpt><trkpt lat="43.58564977055501" lon="11.202044542375212"><ele>175.0</ele><time>2026-04-04T13:01:34Z</time></trkpt><trkpt lat="43.585979027985815" lon="11.20194201972229"><ele>172.5</ele><time>2026-04-04T13:01:35Z</time></trkpt><trkpt lat="43.58631278590392" lon="11.20183838709711"><ele>170.0</ele><time>2026-04-04T13:01:36Z</time></trkpt><trkpt lat="43.586645410152315" lon="11.201737126684497"><ele>170.0</ele><time>2026-04-04T13:01:37Z</time></trkpt><trkpt lat="43.58697308510949" lon="11.201638111676406"><ele>170.0</ele><time>2026-04-04T13:01:38Z</time></trkpt><trkpt lat="43.58730303602821" lon="11.201535810505051"><ele>169.5</ele><time>2026-04-04T13:01:39Z</time></trkpt><trkpt lat="43.58762408128574" lon="11.201427297899988"><ele>169.0</ele><time>2026-04-04T13:01:40Z</time></trkpt><trkpt lat="43.587944582098146" lon="11.201307595525325"><ele>167.0</ele><time>2026-04-04T13:01:41Z</time></trkpt><trkpt lat="43.58825836121496" lon="11.201175092751098"><ele>165.0</ele><time>2026-04-04T13:01:42Z</time></trkpt><trkpt lat="43.58856691208441" lon="11.20102407468136"><ele>163.5</ele><time>2026-04-04T13:01:43Z</time></trkpt><trkpt lat="43.58886876994724" lon="11.200861265111978"><ele>162.0</ele><time>2026-04-04T13:01:44Z</time></trkpt><trkpt lat="43.58916917952518" lon="11.200703553340409"><ele>161.5</ele><time>2026-04-04T13:01:45Z</time></trkpt><trkpt lat="43.58945138108254" lon="11.20056218485428"><ele>161.0</ele><time>2026-04-04T13:01:46Z</time></trkpt><trkpt lat="43.589726096586595" lon="11.20042743389015"><ele>161.0</ele><time>2026-04-04T13:01:47Z</time></trkpt><trkpt lat="43.58999933293929" lon="11.200290466267974"><ele>161.0</ele><time>2026-04-04T13:01:48Z</time></trkpt><trkpt lat="43.59026955682847" lon="11.200152644769787"><ele>160.5</ele><time>2026-04-04T13:01:49Z</time></trkpt><trkpt lat="43.590536989293284" lon="11.200018209897264"><ele>160.0</ele><time>2026-04-04T13:01:50Z</time></trkpt><trkpt lat="43.59080132333618" lon="11.199888488279443"><ele>160.5</ele><time>2026-04-04T13:01:51Z</time></trkpt><trkpt lat="43.59107029326754" lon="11.199758310386041"><ele>161.0</ele><time>2026-04-04T13:01:52Z</time></trkpt><trkpt lat="43.591338735706685" lon="11.199626988211232"><ele>161.0</ele><time>2026-04-04T13:01:53Z</time></trkpt><trkpt lat="43.59159440144885" lon="11.199498508788276"><ele>161.0</ele><time>2026-04-04T13:01:54Z</time></trkpt><trkpt lat="43.591843894879695" lon="11.199380405819168"><ele>161.0</ele><time>2026-04-04T13:01:55Z</time></trkpt><trkpt lat="43.59208779257014" lon="11.199269550981997"><ele>161.0</ele><time>2026-04-04T13:01:56Z</time></trkpt><trkpt lat="43.5923148500333" lon="11.19915307789908"><ele>161.0</ele><time>2026-04-04T13:01:57Z</time></trkpt><trkpt lat="43.592528949962144" lon="11.199037463284645"><ele>161.0</ele><time>2026-04-04T13:01:58Z</time></trkpt><trkpt lat="43.5927277377088" lon="11.198924167946542"><ele>161.0</ele><time>2026-04-04T13:01:59Z</time></trkpt><trkpt lat="43.59291828427881" lon="11.198807194701173"><ele>161.66666666666666</ele><time>2026-04-04T13:02:00Z</time></trkpt><trkpt lat="43.59310485740129" lon="11.1986839465462"><ele>162.33333333333334</ele><time>2026-04-04T13:02:01Z</time></trkpt><trkpt lat="43.59328268635128" lon="11.198556483078164"><ele>163.0</ele><time>2026-04-04T13:02:02Z</time></trkpt><trkpt lat="43.59345565358977" lon="11.198425085012635"><ele>163.0</ele><time>2026-04-04T13:02:03Z</time></trkpt><trkpt lat="43.59362826782022" lon="11.198293928494973"><ele>163.0</ele><time>2026-04-04T13:02:04Z</time></trkpt><trkpt lat="43.59380568427315" lon="11.198145640849003"><ele>163.0</ele><time>2026-04-04T13:02:05Z</time></trkpt><trkpt lat="43.5939864525501" lon="11.197987659552599"><ele>162.66666666666669</ele><time>2026-04-04T13:02:06Z</time></trkpt><trkpt lat="43.59415886278463" lon="11.197832367061542"><ele>162.33333333333334</ele><time>2026-04-04T13:02:07Z</time></trkpt><trkpt lat="43.59431547073286" lon="11.1976809142723"><ele>162.0</ele><time>2026-04-04T13:02:08Z</time></trkpt><trkpt lat="43.594463761737266" lon="11.197538375772416"><ele>161.33333333333334</ele><time>2026-04-04T13:02:09Z</time></trkpt><trkpt lat="43.594615429542166" lon="11.197398908668202"><ele>160.66666666666669</ele><time>2026-04-04T13:02:10Z</time></trkpt><trkpt lat="43.59477044238912" lon="11.197257125463345"><ele>160.0</ele><time>2026-04-04T13:02:11Z</time></trkpt><trkpt lat="43.59492797019909" lon="11.19711332953135"><ele>160.0</ele><time>2026-04-04T13:02:12Z</time></trkpt><trkpt lat="43.595091267556136" lon="11.196966708692871"><ele>160.0</ele><time>2026-04-04T13:02:13Z</time></trkpt><trkpt lat="43.5952586572921" lon="11.196811419106144"><ele>160.0</ele><time>2026-04-04T13:02:14Z</time></trkpt><trkpt lat="43.59544207316831" lon="11.196639211186639"><ele>160.5</ele><time>2026-04-04T13:02:15Z</time></trkpt><trkpt lat="43.59564312649481" lon="11.196456274801378"><ele>161.0</ele><time>2026-04-04T13:02:16Z</time></trkpt><trkpt lat="43.59586092648648" lon="11.196258132101114"><ele>161.0</ele><time>2026-04-04T13:02:17Z</time></trkpt><trkpt lat="43.59608801516186" lon="11.196051460539366"><ele>161.0</ele><time>2026-04-04T13:02:18Z</time></trkpt><trkpt lat="43.59632181854005" lon="11.195840918956465"><ele>162.0</ele><time>2026-04-04T13:02:19Z</time></trkpt><trkpt lat="43.59656665847076" lon="11.19561890569446"><ele>163.0</ele><time>2026-04-04T13:02:20Z</time></trkpt><trkpt lat="43.596811713220035" lon="11.195396188897062"><ele>159.0</ele><time>2026-04-04T13:02:21Z</time></trkpt><trkpt lat="43.59706082271116" lon="11.195163826795703"><ele>155.0</ele><time>2026-04-04T13:02:22Z</time></trkpt><trkpt lat="43.59731609242714" lon="11.194932158804319"><ele>154.0</ele><time>2026-04-04T13:02:23Z</time></trkpt><trkpt lat="43.59759279472949" lon="11.19470656765172"><ele>153.0</ele><time>2026-04-04T13:02:24Z</time></trkpt><trkpt lat="43.597882336529445" lon="11.194496390481175"><ele>153.0</ele><time>2026-04-04T13:02:25Z</time></trkpt><trkpt lat="43.59818601681396" lon="11.194302141615164"><ele>153.0</ele><time>2026-04-04T13:02:26Z</time></trkpt><trkpt lat="43.5984937985221" lon="11.19411526238075"><ele>152.0</ele><time>2026-04-04T13:02:27Z</time></trkpt><trkpt lat="43.59880207672972" lon="11.193941108006932"><ele>151.0</ele><time>2026-04-04T13:02:28Z</time></trkpt><trkpt lat="43.59911424255652" lon="11.193784823280023"><ele>151.0</ele><time>2026-04-04T13:02:29.001Z</time></trkpt><trkpt lat="43.599435543448685" lon="11.193646010509312"><ele>151.0</ele><time>2026-04-04T13:02:30.001Z</time></trkpt><trkpt lat="43.59976036699492" lon="11.193516779780836"><ele>151.5</ele><time>2026-04-04T13:02:31.001Z</time></trkpt><trkpt lat="43.60008420448378" lon="11.193392030638554"><ele>152.0</ele><time>2026-04-04T13:02:32.001Z</time></trkpt><trkpt lat="43.60040468573327" lon="11.193271798823387"><ele>152.0</ele><time>2026-04-04T13:02:33.001Z</time></trkpt><trkpt lat="43.600713059314195" lon="11.193160726829646"><ele>152.0</ele><time>2026-04-04T13:02:34.001Z</time></trkpt><trkpt lat="43.6010007236698" lon="11.193049555752063"><ele>151.5</ele><time>2026-04-04T13:02:35.001Z</time></trkpt><trkpt lat="43.60127676040553" lon="11.192938494893326"><ele>151.0</ele><time>2026-04-04T13:02:36.001Z</time></trkpt><trkpt lat="43.60155454777047" lon="11.192825796048103"><ele>151.0</ele><time>2026-04-04T13:02:37.001Z</time></trkpt><trkpt lat="43.60183434655299" lon="11.192712667138697"><ele>151.0</ele><time>2026-04-04T13:02:38.001Z</time></trkpt><trkpt lat="43.60210914426208" lon="11.192597578377484"><ele>150.0</ele><time>2026-04-04T13:02:39.001Z</time></trkpt><trkpt lat="43.60238477962596" lon="11.192484797152037"><ele>149.0</ele><time>2026-04-04T13:02:40.001Z</time></trkpt><trkpt lat="43.602654146640226" lon="11.192378105499728"><ele>150.0</ele><time>2026-04-04T13:02:41.001Z</time></trkpt><trkpt lat="43.60291929887925" lon="11.192272560223609"><ele>151.0</ele><time>2026-04-04T13:02:42.001Z</time></trkpt><trkpt lat="43.60318951925663" lon="11.192161841781957"><ele>151.0</ele><time>2026-04-04T13:02:43.001Z</time></trkpt><trkpt lat="43.60345783971535" lon="11.192051512193824"><ele>151.0</ele><time>2026-04-04T13:02:44Z</time></trkpt><trkpt lat="43.603731284453694" lon="11.19194208670337"><ele>151.0</ele><time>2026-04-04T13:02:45Z</time></trkpt><trkpt lat="43.60400207996365" lon="11.191838001389566"><ele>151.0</ele><time>2026-04-04T13:02:46Z</time></trkpt><trkpt lat="43.60427029642262" lon="11.191742907285295"><ele>151.0</ele><time>2026-04-04T13:02:47Z</time></trkpt><trkpt lat="43.60455266908711" lon="11.19166217423032"><ele>151.0</ele><time>2026-04-04T13:02:48Z</time></trkpt><trkpt lat="43.60483460619405" lon="11.191596073387242"><ele>151.0</ele><time>2026-04-04T13:02:49Z</time></trkpt><trkpt lat="43.6051147344197" lon="11.191544671390483"><ele>151.0</ele><time>2026-04-04T13:02:50Z</time></trkpt><trkpt lat="43.605394852192035" lon="11.191506482064705"><ele>149.0</ele><time>2026-04-04T13:02:51Z</time></trkpt><trkpt lat="43.60567038436452" lon="11.191475378443425"><ele>147.0</ele><time>2026-04-04T13:02:52Z</time></trkpt><trkpt lat="43.605932800589976" lon="11.191451100966773"><ele>146.5</ele><time>2026-04-04T13:02:53Z</time></trkpt><trkpt lat="43.606195427324664" lon="11.191423148600773"><ele>146.0</ele><time>2026-04-04T13:02:54Z</time></trkpt><trkpt lat="43.60645930225766" lon="11.191391368181"><ele>146.0</ele><time>2026-04-04T13:02:55Z</time></trkpt><trkpt lat="43.60672360598291" lon="11.19135872564096"><ele>146.0</ele><time>2026-04-04T13:02:56Z</time></trkpt><trkpt lat="43.60698829059153" lon="11.191329227168083"><ele>145.5</ele><time>2026-04-04T13:02:57Z</time></trkpt><trkpt lat="43.60725664838392" lon="11.191300059172423"><ele>145.0</ele><time>2026-04-04T13:02:58Z</time></trkpt><trkpt lat="43.607523792207" lon="11.191268350367299"><ele>145.0</ele><time>2026-04-04T13:02:59Z</time></trkpt><trkpt lat="43.60779605848023" lon="11.191236036185655"><ele>145.0</ele><time>2026-04-04T13:03:00Z</time></trkpt><trkpt lat="43.60806714491811" lon="11.191203186010613"><ele>146.0</ele><time>2026-04-04T13:03:01Z</time></trkpt><trkpt lat="43.60834244035727" lon="11.191170155178687"><ele>147.0</ele><time>2026-04-04T13:03:02Z</time></trkpt><trkpt lat="43.608627112650254" lon="11.19113601076865"><ele>147.0</ele><time>2026-04-04T13:03:03Z</time></trkpt><trkpt lat="43.60891134598838" lon="11.19109900313508"><ele>147.0</ele><time>2026-04-04T13:03:04Z</time></trkpt><trkpt lat="43.60920645949546" lon="11.191062697196315"><ele>145.5</ele><time>2026-04-04T13:03:05Z</time></trkpt><trkpt lat="43.60950599354377" lon="11.19102555146807"><ele>144.0</ele><time>2026-04-04T13:03:06Z</time></trkpt><trkpt lat="43.60980433495582" lon="11.19098466167621"><ele>144.0</ele><time>2026-04-04T13:03:07Z</time></trkpt><trkpt lat="43.6100944590985" lon="11.190948406213499"><ele>144.0</ele><time>2026-04-04T13:03:08Z</time></trkpt><trkpt lat="43.610370823029996" lon="11.190918193199867"><ele>143.5</ele><time>2026-04-04T13:03:09Z</time></trkpt><trkpt lat="43.610650017040825" lon="11.190887364835836"><ele>143.0</ele><time>2026-04-04T13:03:10Z</time></trkpt><trkpt lat="43.61093221990999" lon="11.190855921708808"><ele>143.5</ele><time>2026-04-04T13:03:11Z</time></trkpt><trkpt lat="43.611214452306946" lon="11.190825240278608"><ele>144.0</ele><time>2026-04-04T13:03:12Z</time></trkpt><trkpt lat="43.611501122914156" lon="11.190787096623136"><ele>144.0</ele><time>2026-04-04T13:03:13Z</time></trkpt><trkpt lat="43.61178541635623" lon="11.19074250715732"><ele>144.0</ele><time>2026-04-04T13:03:14Z</time></trkpt><trkpt lat="43.61207454849933" lon="11.190686615658228"><ele>143.5</ele><time>2026-04-04T13:03:15Z</time></trkpt><trkpt lat="43.61236522515467" lon="11.190611933596015"><ele>143.0</ele><time>2026-04-04T13:03:16Z</time></trkpt><trkpt lat="43.61265696719815" lon="11.190516988821686"><ele>143.5</ele><time>2026-04-04T13:03:17Z</time></trkpt><trkpt lat="43.61294520307154" lon="11.190410928765703"><ele>144.0</ele><time>2026-04-04T13:03:18Z</time></trkpt><trkpt lat="43.61322299185134" lon="11.190297996542865"><ele>144.0</ele><time>2026-04-04T13:03:19Z</time></trkpt><trkpt lat="43.613495060165356" lon="11.190176895321121"><ele>144.0</ele><time>2026-04-04T13:03:20Z</time></trkpt><trkpt lat="43.613766688672555" lon="11.190040161665138"><ele>144.0</ele><time>2026-04-04T13:03:21Z</time></trkpt><trkpt lat="43.61403737989769" lon="11.189892766449764"><ele>144.0</ele><time>2026-04-04T13:03:22Z</time></trkpt><trkpt lat="43.61430681893646" lon="11.189733644992394"><ele>142.5</ele><time>2026-04-04T13:03:23Z</time></trkpt><trkpt lat="43.61457888877313" lon="11.189570684707169"><ele>141.0</ele><time>2026-04-04T13:03:24Z</time></trkpt><trkpt lat="43.614837984854816" lon="11.189417504033083"><ele>141.0</ele><time>2026-04-04T13:03:25Z</time></trkpt><trkpt lat="43.615092396730184" lon="11.18927047609452"><ele>141.0</ele><time>2026-04-04T13:03:26Z</time></trkpt><trkpt lat="43.61535214059066" lon="11.189121509230672"><ele>141.5</ele><time>2026-04-04T13:03:27Z</time></trkpt><trkpt lat="43.61561650314795" lon="11.188966474938104"><ele>142.0</ele><time>2026-04-04T13:03:28Z</time></trkpt><trkpt lat="43.615881352778224" lon="11.188807047795164"><ele>142.0</ele><time>2026-04-04T13:03:29Z</time></trkpt><trkpt lat="43.61615137754341" lon="11.188646481407945"><ele>142.0</ele><time>2026-04-04T13:03:30Z</time></trkpt><trkpt lat="43.616411586902416" lon="11.188493312467548"><ele>143.0</ele><time>2026-04-04T13:03:31Z</time></trkpt><trkpt lat="43.6166723182283" lon="11.188345240590117"><ele>144.0</ele><time>2026-04-04T13:03:32Z</time></trkpt><trkpt lat="43.61693622759127" lon="11.188194321804358"><ele>142.5</ele><time>2026-04-04T13:03:33Z</time></trkpt><trkpt lat="43.617206849028925" lon="11.188036472182818"><ele>141.0</ele><time>2026-04-04T13:03:34Z</time></trkpt><trkpt lat="43.61747962409852" lon="11.187876699209886"><ele>141.0</ele><time>2026-04-04T13:03:35Z</time></trkpt><trkpt lat="43.617757229700004" lon="11.187712355332696"><ele>141.0</ele><time>2026-04-04T13:03:36Z</time></trkpt><trkpt lat="43.61803552517392" lon="11.187547232980982"><ele>140.5</ele><time>2026-04-04T13:03:37Z</time></trkpt><trkpt lat="43.61831773182368" lon="11.18738303187896"><ele>140.0</ele><time>2026-04-04T13:03:38Z</time></trkpt><trkpt lat="43.61860679060204" lon="11.187217538198752"><ele>138.5</ele><time>2026-04-04T13:03:39Z</time></trkpt><trkpt lat="43.61889937003126" lon="11.187045533189119"><ele>137.0</ele><time>2026-04-04T13:03:40Z</time></trkpt><trkpt lat="43.61919527318361" lon="11.186875658180913"><ele>137.5</ele><time>2026-04-04T13:03:41Z</time></trkpt><trkpt lat="43.61949112350891" lon="11.186701029883691"><ele>138.0</ele><time>2026-04-04T13:03:42Z</time></trkpt><trkpt lat="43.619788620910754" lon="11.18652644568669"><ele>137.0</ele><time>2026-04-04T13:03:43Z</time></trkpt><trkpt lat="43.62008834403005" lon="11.186352980710723"><ele>136.0</ele><time>2026-04-04T13:03:44Z</time></trkpt><trkpt lat="43.620391378536546" lon="11.186179722045475"><ele>136.0</ele><time>2026-04-04T13:03:45Z</time></trkpt><trkpt lat="43.62069825967116" lon="11.18600318896215"><ele>136.0</ele><time>2026-04-04T13:03:46Z</time></trkpt><trkpt lat="43.620996972493295" lon="11.185827844506878"><ele>135.5</ele><time>2026-04-04T13:03:47Z</time></trkpt><trkpt lat="43.621275269663336" lon="11.185668413945129"><ele>135.0</ele><time>2026-04-04T13:03:48Z</time></trkpt><trkpt lat="43.621555905939765" lon="11.185503693273324"><ele>135.0</ele><time>2026-04-04T13:03:49Z</time></trkpt><trkpt lat="43.6218393388086" lon="11.185336918958892"><ele>135.0</ele><time>2026-04-04T13:03:50Z</time></trkpt><trkpt lat="43.62212423862349" lon="11.185167660559268"><ele>135.0</ele><time>2026-04-04T13:03:51Z</time></trkpt><trkpt lat="43.622410019167745" lon="11.185000182391258"><ele>135.0</ele><time>2026-04-04T13:03:52Z</time></trkpt><trkpt lat="43.622694821629814" lon="11.18483433689602"><ele>136.0</ele><time>2026-04-04T13:03:53Z</time></trkpt><trkpt lat="43.622975159572505" lon="11.184670503711729"><ele>137.0</ele><time>2026-04-04T13:03:54Z</time></trkpt><trkpt lat="43.62324037589124" lon="11.184516998090151"><ele>137.0</ele><time>2026-04-04T13:03:55Z</time></trkpt><trkpt lat="43.62348767124418" lon="11.184373883141287"><ele>137.0</ele><time>2026-04-04T13:03:56Z</time></trkpt><trkpt lat="43.623738253079054" lon="11.184228811019596"><ele>136.5</ele><time>2026-04-04T13:03:57Z</time></trkpt><trkpt lat="43.62399138376251" lon="11.184079710875316"><ele>136.0</ele><time>2026-04-04T13:03:58Z</time></trkpt><trkpt lat="43.62425666614057" lon="11.18393380393053"><ele>137.0</ele><time>2026-04-04T13:03:59Z</time></trkpt><trkpt lat="43.62452344226135" lon="11.183797252384899"><ele>138.0</ele><time>2026-04-04T13:04:00Z</time></trkpt><trkpt lat="43.624799916684495" lon="11.18367630168109"><ele>138.0</ele><time>2026-04-04T13:04:01Z</time></trkpt><trkpt lat="43.62506509040347" lon="11.18357331650547"><ele>138.0</ele><time>2026-04-04T13:04:02Z</time></trkpt><trkpt lat="43.62532012731612" lon="11.183485858077466"><ele>139.0</ele><time>2026-04-04T13:04:03Z</time></trkpt><trkpt lat="43.625589282651774" lon="11.183404050852985"><ele>140.0</ele><time>2026-04-04T13:04:04Z</time></trkpt><trkpt lat="43.625863150740535" lon="11.183330369976034"><ele>140.0</ele><time>2026-04-04T13:04:05Z</time></trkpt><trkpt lat="43.62614113627787" lon="11.183267451964383"><ele>140.0</ele><time>2026-04-04T13:04:06Z</time></trkpt><trkpt lat="43.626421976598834" lon="11.183220204063984"><ele>139.0</ele><time>2026-04-04T13:04:07Z</time></trkpt><trkpt lat="43.62670947012629" lon="11.18318370329148"><ele>138.0</ele><time>2026-04-04T13:04:08Z</time></trkpt><trkpt lat="43.627000649792095" lon="11.18315891911449"><ele>135.5</ele><time>2026-04-04T13:04:09Z</time></trkpt><trkpt lat="43.627293434761505" lon="11.183144952023678"><ele>133.0</ele><time>2026-04-04T13:04:10Z</time></trkpt><trkpt lat="43.62758957621651" lon="11.183144066739741"><ele>133.0</ele><time>2026-04-04T13:04:11Z</time></trkpt><trkpt lat="43.62788707224672" lon="11.183155011069173"><ele>133.0</ele><time>2026-04-04T13:04:12Z</time></trkpt><trkpt lat="43.62818274800623" lon="11.183162898488582"><ele>133.0</ele><time>2026-04-04T13:04:13Z</time></trkpt><trkpt lat="43.62847405904077" lon="11.183172057911523"><ele>133.0</ele><time>2026-04-04T13:04:14Z</time></trkpt><trkpt lat="43.62877395147062" lon="11.18318032782558"><ele>136.5</ele><time>2026-04-04T13:04:15Z</time></trkpt><trkpt lat="43.629072403632605" lon="11.183190184720353"><ele>140.0</ele><time>2026-04-04T13:04:16Z</time></trkpt><trkpt lat="43.62936997171029" lon="11.183198659694423"><ele>141.5</ele><time>2026-04-04T13:04:17Z</time></trkpt><trkpt lat="43.62967319341464" lon="11.183207887912133"><ele>143.0</ele><time>2026-04-04T13:04:18Z</time></trkpt><trkpt lat="43.629973524276515" lon="11.183213857516378"><ele>143.0</ele><time>2026-04-04T13:04:19Z</time></trkpt><trkpt lat="43.63027202153685" lon="11.183218749318044"><ele>143.0</ele><time>2026-04-04T13:04:20Z</time></trkpt><trkpt lat="43.630572328490324" lon="11.18321794456362"><ele>145.0</ele><time>2026-04-04T13:04:21Z</time></trkpt><trkpt lat="43.63086998624807" lon="11.183196651085154"><ele>147.0</ele><time>2026-04-04T13:04:22Z</time></trkpt><trkpt lat="43.63115879962774" lon="11.183150083815422"><ele>142.0</ele><time>2026-04-04T13:04:23Z</time></trkpt><trkpt lat="43.63144544256944" lon="11.183088524752158"><ele>137.0</ele><time>2026-04-04T13:04:24Z</time></trkpt><trkpt lat="43.63173582822274" lon="11.18301087085801"><ele>141.0</ele><time>2026-04-04T13:04:25Z</time></trkpt><trkpt lat="43.632027791323715" lon="11.182915793871201"><ele>145.0</ele><time>2026-04-04T13:04:26Z</time></trkpt><trkpt lat="43.63231886231806" lon="11.182799679213504"><ele>145.0</ele><time>2026-04-04T13:04:27Z</time></trkpt><trkpt lat="43.63260592744847" lon="11.18266672272845"><ele>145.0</ele><time>2026-04-04T13:04:28Z</time></trkpt><trkpt lat="43.632905695097364" lon="11.182509195368787"><ele>143.0</ele><time>2026-04-04T13:04:29Z</time></trkpt><trkpt lat="43.633215088845255" lon="11.18232924264499"><ele>141.0</ele><time>2026-04-04T13:04:30Z</time></trkpt><trkpt lat="43.633528232225274" lon="11.182126022596142"><ele>138.5</ele><time>2026-04-04T13:04:31Z</time></trkpt><trkpt lat="43.63384780870804" lon="11.18191091768535"><ele>136.0</ele><time>2026-04-04T13:04:32Z</time></trkpt><trkpt lat="43.634168988807104" lon="11.181696850784133"><ele>138.0</ele><time>2026-04-04T13:04:33Z</time></trkpt><trkpt lat="43.634465185086" lon="11.181500766891416"><ele>140.0</ele><time>2026-04-04T13:04:34Z</time></trkpt><trkpt lat="43.63475865918281" lon="11.181309899590024"><ele>140.0</ele><time>2026-04-04T13:04:35Z</time></trkpt><trkpt lat="43.635057479105136" lon="11.18112121802946"><ele>140.0</ele><time>2026-04-04T13:04:36Z</time></trkpt><trkpt lat="43.63536673573029" lon="11.180922580319164"><ele>141.0</ele><time>2026-04-04T13:04:37Z</time></trkpt><trkpt lat="43.63567981913401" lon="11.180720267607938"><ele>142.0</ele><time>2026-04-04T13:04:38Z</time></trkpt><trkpt lat="43.63598959186632" lon="11.180528049243982"><ele>150.0</ele><time>2026-04-04T13:04:39Z</time></trkpt><trkpt lat="43.636302213770094" lon="11.180352011556279"><ele>158.0</ele><time>2026-04-04T13:04:40Z</time></trkpt><trkpt lat="43.63661550204061" lon="11.180193267978561"><ele>158.0</ele><time>2026-04-04T13:04:41Z</time></trkpt><trkpt lat="43.63693141037498" lon="11.1800496611449"><ele>158.0</ele><time>2026-04-04T13:04:42Z</time></trkpt><trkpt lat="43.637255195596026" lon="11.179922375569197"><ele>158.5</ele><time>2026-04-04T13:04:43Z</time></trkpt><trkpt lat="43.63757935863745" lon="11.179806785548426"><ele>159.0</ele><time>2026-04-04T13:04:44Z</time></trkpt><trkpt lat="43.63788535040671" lon="11.179695577204772"><ele>163.0</ele><time>2026-04-04T13:04:45Z</time></trkpt><trkpt lat="43.63818047156369" lon="11.179585046690399"><ele>167.0</ele><time>2026-04-04T13:04:46Z</time></trkpt><trkpt lat="43.6384788152854" lon="11.179473433039497"><ele>171.5</ele><time>2026-04-04T13:04:47Z</time></trkpt><trkpt lat="43.63878531403405" lon="11.179355482641055"><ele>176.0</ele><time>2026-04-04T13:04:48Z</time></trkpt><trkpt lat="43.63909177194309" lon="11.179234973551944"><ele>176.0</ele><time>2026-04-04T13:04:49Z</time></trkpt><trkpt lat="43.63940017142605" lon="11.179111811787527"><ele>176.0</ele><time>2026-04-04T13:04:50Z</time></trkpt><trkpt lat="43.639709040711" lon="11.178993027157595"><ele>175.0</ele><time>2026-04-04T13:04:51Z</time></trkpt><trkpt lat="43.64002463586174" lon="11.178873241204071"><ele>174.0</ele><time>2026-04-04T13:04:52Z</time></trkpt><trkpt lat="43.640338549043285" lon="11.178756134810305"><ele>174.0</ele><time>2026-04-04T13:04:53Z</time></trkpt><trkpt lat="43.64064866807619" lon="11.178636684711833"><ele>174.0</ele><time>2026-04-04T13:04:54Z</time></trkpt><trkpt lat="43.64095924398355" lon="11.178517835391574"><ele>180.0</ele><time>2026-04-04T13:04:55Z</time></trkpt><trkpt lat="43.64127033678312" lon="11.17840447984838"><ele>186.0</ele><time>2026-04-04T13:04:56Z</time></trkpt><trkpt lat="43.64157489976416" lon="11.17830166675858"><ele>186.0</ele><time>2026-04-04T13:04:57Z</time></trkpt><trkpt lat="43.64186556624067" lon="11.178221388033181"><ele>186.0</ele><time>2026-04-04T13:04:58Z</time></trkpt><trkpt lat="43.64215193380712" lon="11.178171553506104"><ele>186.0</ele><time>2026-04-04T13:04:59Z</time></trkpt><trkpt lat="43.642449141445034" lon="11.178147675734595"><ele>186.0</ele><time>2026-04-04T13:05:00Z</time></trkpt><trkpt lat="43.642748473575196" lon="11.178150296781423"><ele>184.0</ele><time>2026-04-04T13:05:01Z</time></trkpt><trkpt lat="43.64304491470288" lon="11.17817628077919"><ele>182.0</ele><time>2026-04-04T13:05:02Z</time></trkpt><trkpt lat="43.64333780062741" lon="11.178239601473479"><ele>184.0</ele><time>2026-04-04T13:05:03Z</time></trkpt><trkpt lat="43.64363334346938" lon="11.17832912018465"><ele>186.0</ele><time>2026-04-04T13:05:04Z</time></trkpt><trkpt lat="43.64392043078341" lon="11.17844407914903"><ele>186.0</ele><time>2026-04-04T13:05:05Z</time></trkpt><trkpt lat="43.644204535624375" lon="11.178592214833836"><ele>186.0</ele><time>2026-04-04T13:05:06Z</time></trkpt><trkpt lat="43.64448495487867" lon="11.17875264855296"><ele>189.5</ele><time>2026-04-04T13:05:07Z</time></trkpt><trkpt lat="43.64474253572161" lon="11.178940586214443"><ele>193.0</ele><time>2026-04-04T13:05:08Z</time></trkpt><trkpt lat="43.64496993423496" lon="11.179137510671971"><ele>193.0</ele><time>2026-04-04T13:05:09Z</time></trkpt><trkpt lat="43.64519063440169" lon="11.179345050367035"><ele>193.0</ele><time>2026-04-04T13:05:10Z</time></trkpt><trkpt lat="43.64539057069421" lon="11.179553650832123"><ele>194.5</ele><time>2026-04-04T13:05:11Z</time></trkpt><trkpt lat="43.64557281955066" lon="11.179757372326202"><ele>196.0</ele><time>2026-04-04T13:05:12Z</time></trkpt><trkpt lat="43.6457489732898" lon="11.179939495567746"><ele>196.0</ele><time>2026-04-04T13:05:13Z</time></trkpt><trkpt lat="43.645929371848304" lon="11.18012082839092"><ele>196.0</ele><time>2026-04-04T13:05:14Z</time></trkpt><trkpt lat="43.64610370804342" lon="11.180302702681098"><ele>196.0</ele><time>2026-04-04T13:05:15Z</time></trkpt><trkpt lat="43.64627567726141" lon="11.180485992122305"><ele>194.0</ele><time>2026-04-04T13:05:16Z</time></trkpt><trkpt lat="43.64644828209615" lon="11.180666612279277"><ele>192.0</ele><time>2026-04-04T13:05:17Z</time></trkpt><trkpt lat="43.64662206456241" lon="11.18084707799363"><ele>190.0</ele><time>2026-04-04T13:05:18Z</time></trkpt><trkpt lat="43.64680149348188" lon="11.181034386912875"><ele>193.0</ele><time>2026-04-04T13:05:19Z</time></trkpt><trkpt lat="43.64699324163451" lon="11.181232100355581"><ele>196.0</ele><time>2026-04-04T13:05:20Z</time></trkpt><trkpt lat="43.647183489100286" lon="11.181449164335968"><ele>201.0</ele><time>2026-04-04T13:05:21Z</time></trkpt><trkpt lat="43.64737583636534" lon="11.181681992431043"><ele>206.0</ele><time>2026-04-04T13:05:22Z</time></trkpt><trkpt lat="43.647551094466" lon="11.181907154975939"><ele>206.0</ele><time>2026-04-04T13:05:23Z</time></trkpt><trkpt lat="43.647718147019376" lon="11.18213728748609"><ele>206.0</ele><time>2026-04-04T13:05:24Z</time></trkpt><trkpt lat="43.647869349079315" lon="11.182367606153436"><ele>206.0</ele><time>2026-04-04T13:05:25Z</time></trkpt><trkpt lat="43.64800221269915" lon="11.182597237605403"><ele>206.0</ele><time>2026-04-04T13:05:26Z</time></trkpt><trkpt lat="43.64812769372554" lon="11.18282037994853"><ele>206.0</ele><time>2026-04-04T13:05:27Z</time></trkpt><trkpt lat="43.64824867131351" lon="11.183036372120833"><ele>211.66666666666669</ele><time>2026-04-04T13:05:28Z</time></trkpt><trkpt lat="43.64834602049365" lon="11.18323051641322"><ele>217.33333333333331</ele><time>2026-04-04T13:05:29Z</time></trkpt><trkpt lat="43.64842662397239" lon="11.183428906974118"><ele>223.0</ele><time>2026-04-04T13:05:30Z</time></trkpt><trkpt lat="43.648491590535436" lon="11.183616782022138"><ele>223.0</ele><time>2026-04-04T13:05:31Z</time></trkpt><trkpt lat="43.648551881298516" lon="11.183801429684767"><ele>223.0</ele><time>2026-04-04T13:05:32Z</time></trkpt><trkpt lat="43.64868800464973" lon="11.183934387307788"><ele>223.0</ele><time>2026-04-04T13:05:33Z</time></trkpt><trkpt lat="43.6487544709697" lon="11.184080857543046"><ele>223.0</ele><time>2026-04-04T13:05:34Z</time></trkpt><trkpt lat="43.648831050642535" lon="11.184231708268497"><ele>220.66666666666666</ele><time>2026-04-04T13:05:35Z</time></trkpt><trkpt lat="43.64890626574147" lon="11.184389210017804"><ele>218.33333333333331</ele><time>2026-04-04T13:05:36Z</time></trkpt><trkpt lat="43.64899355995454" lon="11.184582295449681"><ele>216.0</ele><time>2026-04-04T13:05:37Z</time></trkpt><trkpt lat="43.649092726205275" lon="11.184799427464661"><ele>219.66666666666669</ele><time>2026-04-04T13:05:38Z</time></trkpt><trkpt lat="43.64920424679889" lon="11.185024179592562"><ele>223.33333333333334</ele><time>2026-04-04T13:05:39Z</time></trkpt><trkpt lat="43.649325105357725" lon="11.185263409314631"><ele>227.0</ele><time>2026-04-04T13:05:40Z</time></trkpt><trkpt lat="43.64944189870494" lon="11.185507828448609"><ele>225.0</ele><time>2026-04-04T13:05:41Z</time></trkpt><trkpt lat="43.649563175938354" lon="11.185768274170767"><ele>223.0</ele><time>2026-04-04T13:05:42Z</time></trkpt><trkpt lat="43.6496669547724" lon="11.1860114873696"><ele>221.0</ele><time>2026-04-04T13:05:43Z</time></trkpt><trkpt lat="43.64976238592973" lon="11.186235471489027"><ele>221.0</ele><time>2026-04-04T13:05:44Z</time></trkpt><trkpt lat="43.6498676859825" lon="11.186466741398988"><ele>221.0</ele><time>2026-04-04T13:05:45Z</time></trkpt><trkpt lat="43.649977354856034" lon="11.186716559919777"><ele>221.0</ele><time>2026-04-04T13:05:46Z</time></trkpt><trkpt lat="43.6500916936558" lon="11.186976866867713"><ele>223.0</ele><time>2026-04-04T13:05:47Z</time></trkpt><trkpt lat="43.65021343560683" lon="11.187242957893025"><ele>225.0</ele><time>2026-04-04T13:05:48Z</time></trkpt><trkpt lat="43.65033310001789" lon="11.187512602417332"><ele>228.66666666666669</ele><time>2026-04-04T13:05:49Z</time></trkpt><trkpt lat="43.65043960444193" lon="11.187780901748324"><ele>232.33333333333334</ele><time>2026-04-04T13:05:50Z</time></trkpt><trkpt lat="43.65053413005722" lon="11.18802463276116"><ele>236.0</ele><time>2026-04-04T13:05:51Z</time></trkpt><trkpt lat="43.65062505115293" lon="11.188251445763344"><ele>236.0</ele><time>2026-04-04T13:05:52Z</time></trkpt><trkpt lat="43.65071991306744" lon="11.188481176559671"><ele>236.0</ele><time>2026-04-04T13:05:53Z</time></trkpt><trkpt lat="43.65080904914624" lon="11.188699955432805"><ele>236.0</ele><time>2026-04-04T13:05:54Z</time></trkpt><trkpt lat="43.65089461910547" lon="11.188903098760507"><ele>237.0</ele><time>2026-04-04T13:05:55Z</time></trkpt><trkpt lat="43.65097877811648" lon="11.189091349537103"><ele>238.0</ele><time>2026-04-04T13:05:56Z</time></trkpt><trkpt lat="43.65105168981782" lon="11.18927114560482"><ele>239.0</ele><time>2026-04-04T13:05:57Z</time></trkpt><trkpt lat="43.651116749012054" lon="11.189441718674125"><ele>240.0</ele><time>2026-04-04T13:05:58Z</time></trkpt><trkpt lat="43.65118011096543" lon="11.189581331795722"><ele>240.75</ele><time>2026-04-04T13:05:59Z</time></trkpt><trkpt lat="43.65123309886966" lon="11.189698136444127"><ele>241.5</ele><time>2026-04-04T13:06:00Z</time></trkpt><trkpt lat="43.65126301703969" lon="11.189817409628914"><ele>242.25</ele><time>2026-04-04T13:06:01Z</time></trkpt><trkpt lat="43.65138161897756" lon="11.189810387286782"><ele>243.0</ele><time>2026-04-04T13:06:02Z</time></trkpt><trkpt lat="43.65118394619501" lon="11.190040773048379"><ele>243.33333333333334</ele><time>2026-04-04T13:06:03Z</time></trkpt><trkpt lat="43.651116075637916" lon="11.190089132988192"><ele>243.66666666666669</ele><time>2026-04-04T13:06:04Z</time></trkpt><trkpt lat="43.651057211913646" lon="11.190136922615743"><ele>244.0</ele><time>2026-04-04T13:06:05Z</time></trkpt><trkpt lat="43.65098172932768" lon="11.190134943242498"><ele>244.33333333333334</ele><time>2026-04-04T13:06:06Z</time></trkpt><trkpt lat="43.650916596376966" lon="11.190081297767987"><ele>244.66666666666669</ele><time>2026-04-04T13:06:07Z</time></trkpt><trkpt lat="43.65084032730681" lon="11.190036136035078"><ele>245.0</ele><time>2026-04-04T13:06:08Z</time></trkpt><trkpt lat="43.65078878781923" lon="11.189836885326983"><ele>243.33333333333334</ele><time>2026-04-04T13:06:09Z</time></trkpt><trkpt lat="43.65072812943744" lon="11.189657583554773"><ele>241.66666666666669</ele><time>2026-04-04T13:06:10Z</time></trkpt><trkpt lat="43.65065775598558" lon="11.189483419370175"><ele>240.0</ele><time>2026-04-04T13:06:11Z</time></trkpt><trkpt lat="43.65057495917712" lon="11.189286968283005"><ele>240.0</ele><time>2026-04-04T13:06:12Z</time></trkpt><trkpt lat="43.65049606384573" lon="11.189120076178513"><ele>240.0</ele><time>2026-04-04T13:06:13Z</time></trkpt><trkpt lat="43.650427620422924" lon="11.188975762476147"><ele>240.0</ele><time>2026-04-04T13:06:14Z</time></trkpt><trkpt lat="43.650337348730226" lon="11.188886311128302"><ele>240.0</ele><time>2026-04-04T13:06:15Z</time></trkpt><trkpt lat="43.65028956833289" lon="11.188783122961695"><ele>240.83333333333334</ele><time>2026-04-04T13:06:16Z</time></trkpt><trkpt lat="43.65023061933089" lon="11.188704523803922"><ele>241.66666666666669</ele><time>2026-04-04T13:06:17Z</time></trkpt><trkpt lat="43.650163462211935" lon="11.188658703628207"><ele>242.5</ele><time>2026-04-04T13:06:18Z</time></trkpt><trkpt lat="43.65010208280498" lon="11.188634991538555"><ele>243.33333333333334</ele><time>2026-04-04T13:06:19Z</time></trkpt><trkpt lat="43.649995664314226" lon="11.18862122364663"><ele>244.16666666666669</ele><time>2026-04-04T13:06:21Z</time></trkpt><trkpt lat="43.64990604242767" lon="11.18864266094633"><ele>245.0</ele><time>2026-04-04T13:06:23Z</time></trkpt><trkpt lat="43.64984622479181" lon="11.188682342108509"><ele>245.0</ele><time>2026-04-04T13:07:32Z</time></trkpt><trkpt lat="43.649824541936226" lon="11.188864790422816"><ele>245.0</ele><time>2026-04-04T13:07:35Z</time></trkpt><trkpt lat="43.649864380495025" lon="11.188962409098949"><ele>245.0</ele><time>2026-04-04T13:07:48Z</time></trkpt><trkpt lat="43.64990621138063" lon="11.18906490921219"><ele>245.0</ele><time>2026-04-04T13:07:51Z</time></trkpt><trkpt lat="43.64993807141975" lon="11.189142977288432"><ele>245.0</ele><time>2026-04-04T13:07:55Z</time></trkpt><trkpt lat="43.6500001215369" lon="11.18931096435259"><ele>248.75</ele><time>2026-04-04T13:08:02Z</time></trkpt><trkpt lat="43.650074337042184" lon="11.189449975118842"><ele>252.5</ele><time>2026-04-04T13:08:03Z</time></trkpt><trkpt lat="43.65012817934835" lon="11.189589995782391"><ele>256.25</ele><time>2026-04-04T13:08:04Z</time></trkpt><trkpt lat="43.65018358542645" lon="11.189755559492172"><ele>260.0</ele><time>2026-04-04T13:08:05Z</time></trkpt><trkpt lat="43.65026166824799" lon="11.189917093734937"><ele>256.25</ele><time>2026-04-04T13:08:06Z</time></trkpt><trkpt lat="43.650291914757496" lon="11.190099327869703"><ele>252.5</ele><time>2026-04-04T13:08:07Z</time></trkpt><trkpt lat="43.650339897183805" lon="11.190267925646015"><ele>248.75</ele><time>2026-04-04T13:08:08Z</time></trkpt><trkpt lat="43.65036510908741" lon="11.190431917419234"><ele>245.0</ele><time>2026-04-04T13:08:09Z</time></trkpt><trkpt lat="43.65038725031459" lon="11.19058479997984"><ele>246.25</ele><time>2026-04-04T13:08:10Z</time></trkpt><trkpt lat="43.650417069753736" lon="11.190756672834594"><ele>247.5</ele><time>2026-04-04T13:08:11Z</time></trkpt><trkpt lat="43.6504466214886" lon="11.190934506242755"><ele>248.75</ele><time>2026-04-04T13:08:12Z</time></trkpt><trkpt lat="43.65047761851913" lon="11.191092521447523"><ele>250.0</ele><time>2026-04-04T13:08:13Z</time></trkpt><trkpt lat="43.65051869181801" lon="11.19123268708893"><ele>250.0</ele><time>2026-04-04T13:08:14Z</time></trkpt><trkpt lat="43.65056476748157" lon="11.191357925215318"><ele>250.0</ele><time>2026-04-04T13:08:15Z</time></trkpt><trkpt lat="43.65062869127539" lon="11.191453178943233"><ele>250.0</ele><time>2026-04-04T13:08:16Z</time></trkpt><trkpt lat="43.65072175999049" lon="11.191517607640264"><ele>250.0</ele><time>2026-04-04T13:08:17Z</time></trkpt><trkpt lat="43.650840214714385" lon="11.191541141134712"><ele>250.0</ele><time>2026-04-04T13:08:18Z</time></trkpt><trkpt lat="43.65095497053842" lon="11.191517130409986"><ele>250.0</ele><time>2026-04-04T13:08:19Z</time></trkpt><trkpt lat="43.65105856031008" lon="11.191424224909102"><ele>250.0</ele><time>2026-04-04T13:08:20Z</time></trkpt><trkpt lat="43.651164915995615" lon="11.191304165071791"><ele>250.0</ele><time>2026-04-04T13:08:21Z</time></trkpt><trkpt lat="43.65127700640929" lon="11.191208608122844"><ele>250.0</ele><time>2026-04-04T13:08:22Z</time></trkpt><trkpt lat="43.651393014597424" lon="11.191165531180205"><ele>249.75</ele><time>2026-04-04T13:08:23Z</time></trkpt><trkpt lat="43.651517512758254" lon="11.191181124265393"><ele>249.5</ele><time>2026-04-04T13:08:24Z</time></trkpt><trkpt lat="43.651637080777625" lon="11.191240441594497"><ele>249.25</ele><time>2026-04-04T13:08:25Z</time></trkpt><trkpt lat="43.651731062922686" lon="11.19137487740315"><ele>249.0</ele><time>2026-04-04T13:08:26Z</time></trkpt><trkpt lat="43.65180003905606" lon="11.191523967076371"><ele>250.25</ele><time>2026-04-04T13:08:27Z</time></trkpt><trkpt lat="43.65187802746983" lon="11.191676749404905"><ele>251.5</ele><time>2026-04-04T13:08:28Z</time></trkpt><trkpt lat="43.651967783144464" lon="11.191840626590368"><ele>252.75</ele><time>2026-04-04T13:08:29Z</time></trkpt><trkpt lat="43.652044982736456" lon="11.19202082589243"><ele>254.0</ele><time>2026-04-04T13:08:30Z</time></trkpt><trkpt lat="43.65213554894579" lon="11.192191176788516"><ele>258.6666666666667</ele><time>2026-04-04T13:08:31Z</time></trkpt><trkpt lat="43.652225527666126" lon="11.192377827352857"><ele>263.3333333333333</ele><time>2026-04-04T13:08:32Z</time></trkpt><trkpt lat="43.652308672662286" lon="11.192565724006663"><ele>268.0</ele><time>2026-04-04T13:08:33Z</time></trkpt><trkpt lat="43.65238228651555" lon="11.192725227668276"><ele>268.0</ele><time>2026-04-04T13:08:34Z</time></trkpt><trkpt lat="43.65245956394771" lon="11.192849760220637"><ele>268.0</ele><time>2026-04-04T13:08:35Z</time></trkpt><trkpt lat="43.65255193219665" lon="11.192945820718744"><ele>268.0</ele><time>2026-04-04T13:08:36Z</time></trkpt><trkpt lat="43.65266202611325" lon="11.193014802145226"><ele>268.0</ele><time>2026-04-04T13:08:37Z</time></trkpt><trkpt lat="43.65279317088517" lon="11.193033282951118"><ele>266.5</ele><time>2026-04-04T13:08:38Z</time></trkpt><trkpt lat="43.652915865367646" lon="11.193007813120978"><ele>265.0</ele><time>2026-04-04T13:08:39Z</time></trkpt><trkpt lat="43.65304132548381" lon="11.192932987637626"><ele>263.5</ele><time>2026-04-04T13:08:40Z</time></trkpt><trkpt lat="43.65316019746623" lon="11.192804800615768"><ele>262.0</ele><time>2026-04-04T13:08:40.999Z</time></trkpt><trkpt lat="43.65327697667658" lon="11.192630361947412"><ele>262.0</ele><time>2026-04-04T13:08:41.999Z</time></trkpt><trkpt lat="43.6533800425383" lon="11.192476129981996"><ele>262.0</ele><time>2026-04-04T13:08:42.999Z</time></trkpt><trkpt lat="43.65348124888527" lon="11.192342739280603"><ele>262.0</ele><time>2026-04-04T13:08:43.999Z</time></trkpt><trkpt lat="43.653573775368734" lon="11.192215690899221"><ele>262.0</ele><time>2026-04-04T13:08:44.999Z</time></trkpt><trkpt lat="43.653643815261745" lon="11.192071495958183"><ele>261.25</ele><time>2026-04-04T13:08:45.999Z</time></trkpt><trkpt lat="43.653674807035216" lon="11.191900918935252"><ele>260.5</ele><time>2026-04-04T13:08:47Z</time></trkpt><trkpt lat="43.65366548235956" lon="11.191720485966572"><ele>259.75</ele><time>2026-04-04T13:08:48Z</time></trkpt><trkpt lat="43.653621693121465" lon="11.191551238295702"><ele>259.0</ele><time>2026-04-04T13:08:49Z</time></trkpt><trkpt lat="43.653543699499245" lon="11.191390017931756"><ele>262.25</ele><time>2026-04-04T13:08:50Z</time></trkpt><trkpt lat="43.65343566123027" lon="11.19123817729239"><ele>265.5</ele><time>2026-04-04T13:08:51Z</time></trkpt><trkpt lat="43.65333351174764" lon="11.191102959096735"><ele>268.75</ele><time>2026-04-04T13:08:52Z</time></trkpt><trkpt lat="43.6532409536813" lon="11.190980722467042"><ele>272.0</ele><time>2026-04-04T13:08:53Z</time></trkpt><trkpt lat="43.65316096834948" lon="11.190856014877273"><ele>272.0</ele><time>2026-04-04T13:08:54Z</time></trkpt><trkpt lat="43.65309064144252" lon="11.190734939984553"><ele>272.0</ele><time>2026-04-04T13:08:55Z</time></trkpt><trkpt lat="43.65302854081851" lon="11.190605173918831"><ele>272.0</ele><time>2026-04-04T13:08:56Z</time></trkpt><trkpt lat="43.65297996860753" lon="11.190439251272533"><ele>272.0</ele><time>2026-04-04T13:08:57Z</time></trkpt><trkpt lat="43.65295350052488" lon="11.190239656136644"><ele>275.0</ele><time>2026-04-04T13:08:58Z</time></trkpt><trkpt lat="43.652941450040856" lon="11.190004582447921"><ele>278.0</ele><time>2026-04-04T13:08:59Z</time></trkpt><trkpt lat="43.652946707664476" lon="11.189764182801962"><ele>281.0</ele><time>2026-04-04T13:09:00Z</time></trkpt><trkpt lat="43.65294434789099" lon="11.189583723589429"><ele>281.75</ele><time>2026-04-04T13:09:01Z</time></trkpt><trkpt lat="43.65290978135522" lon="11.189397262011036"><ele>282.5</ele><time>2026-04-04T13:09:02Z</time></trkpt><trkpt lat="43.65282826112034" lon="11.189224483532286"><ele>283.25</ele><time>2026-04-04T13:09:03Z</time></trkpt><trkpt lat="43.65270890845169" lon="11.189098613474794"><ele>284.0</ele><time>2026-04-04T13:09:04Z</time></trkpt><trkpt lat="43.65256495878135" lon="11.189007278314147"><ele>284.0</ele><time>2026-04-04T13:09:05Z</time></trkpt><trkpt lat="43.652432151536395" lon="11.188955232919911"><ele>284.0</ele><time>2026-04-04T13:09:06Z</time></trkpt><trkpt lat="43.65231830223208" lon="11.18888654647769"><ele>284.0</ele><time>2026-04-04T13:09:07Z</time></trkpt><trkpt lat="43.65221777109471" lon="11.188832686573752"><ele>284.0</ele><time>2026-04-04T13:09:08Z</time></trkpt><trkpt lat="43.65213692998209" lon="11.188704231138415"><ele>284.0</ele><time>2026-04-04T13:09:09Z</time></trkpt><trkpt lat="43.652084934597326" lon="11.188539992958864"><ele>284.0</ele><time>2026-04-04T13:09:10Z</time></trkpt><trkpt lat="43.652070629627595" lon="11.188347465900996"><ele>284.0</ele><time>2026-04-04T13:09:11Z</time></trkpt><trkpt lat="43.652085152153745" lon="11.18817010050749"><ele>284.0</ele><time>2026-04-04T13:09:12Z</time></trkpt><trkpt lat="43.65212089111453" lon="11.187979344265097"><ele>285.6666666666667</ele><time>2026-04-04T13:09:13Z</time></trkpt><trkpt lat="43.65215109241571" lon="11.187772642078238"><ele>287.3333333333333</ele><time>2026-04-04T13:09:14Z</time></trkpt><trkpt lat="43.652189873598296" lon="11.187560906052713"><ele>289.0</ele><time>2026-04-04T13:09:15Z</time></trkpt><trkpt lat="43.65222455766901" lon="11.187372210415647"><ele>286.0</ele><time>2026-04-04T13:09:16Z</time></trkpt><trkpt lat="43.65227614224736" lon="11.187212310068375"><ele>283.0</ele><time>2026-04-04T13:09:17Z</time></trkpt><trkpt lat="43.65236262286535" lon="11.187092452804816"><ele>280.0</ele><time>2026-04-04T13:09:18Z</time></trkpt><trkpt lat="43.65246431142672" lon="11.187015167239622"><ele>277.0</ele><time>2026-04-04T13:09:19Z</time></trkpt><trkpt lat="43.65256687817795" lon="11.1869893277267"><ele>277.0</ele><time>2026-04-04T13:09:20Z</time></trkpt><trkpt lat="43.652673359292585" lon="11.187027889802067"><ele>277.0</ele><time>2026-04-04T13:09:21Z</time></trkpt><trkpt lat="43.652795365863" lon="11.187085079472649"><ele>277.0</ele><time>2026-04-04T13:09:22Z</time></trkpt><trkpt lat="43.65294194588376" lon="11.187144095753132"><ele>277.0</ele><time>2026-04-04T13:09:23Z</time></trkpt><trkpt lat="43.65309947638991" lon="11.187246385269516"><ele>277.3333333333333</ele><time>2026-04-04T13:09:24Z</time></trkpt><trkpt lat="43.65326291430385" lon="11.187325002519417"><ele>277.6666666666667</ele><time>2026-04-04T13:09:25Z</time></trkpt><trkpt lat="43.6534398416783" lon="11.187338747113468"><ele>278.0</ele><time>2026-04-04T13:09:26Z</time></trkpt><trkpt lat="43.653608371282736" lon="11.187317359326812"><ele>281.0</ele><time>2026-04-04T13:09:27Z</time></trkpt><trkpt lat="43.65379140369527" lon="11.187234278935518"><ele>284.0</ele><time>2026-04-04T13:09:28Z</time></trkpt><trkpt lat="43.65396196677344" lon="11.187146772654778"><ele>287.0</ele><time>2026-04-04T13:09:29Z</time></trkpt><trkpt lat="43.654118015505865" lon="11.187077811098844"><ele>287.0</ele><time>2026-04-04T13:09:30Z</time></trkpt><trkpt lat="43.654272631623925" lon="11.187016853671846"><ele>287.0</ele><time>2026-04-04T13:09:31Z</time></trkpt><trkpt lat="43.65441874741109" lon="11.186968351111938"><ele>287.0</ele><time>2026-04-04T13:09:32Z</time></trkpt><trkpt lat="43.65454000842427" lon="11.1869521855836"><ele>287.0</ele><time>2026-04-04T13:09:33Z</time></trkpt><trkpt lat="43.65464607967772" lon="11.186973550920248"><ele>290.0</ele><time>2026-04-04T13:09:34Z</time></trkpt><trkpt lat="43.654746218047315" lon="11.187022553265738"><ele>293.0</ele><time>2026-04-04T13:09:35Z</time></trkpt><trkpt lat="43.65485526355479" lon="11.18707900647529"><ele>296.0</ele><time>2026-04-04T13:09:36Z</time></trkpt><trkpt lat="43.654973212879135" lon="11.187148970074354"><ele>299.0</ele><time>2026-04-04T13:09:37Z</time></trkpt><trkpt lat="43.655083177855204" lon="11.187220016742277"><ele>299.0</ele><time>2026-04-04T13:09:38Z</time></trkpt><trkpt lat="43.65518134196333" lon="11.187281650174437"><ele>299.0</ele><time>2026-04-04T13:09:39Z</time></trkpt><trkpt lat="43.655291214529875" lon="11.187341268891036"><ele>299.0</ele><time>2026-04-04T13:09:40Z</time></trkpt><trkpt lat="43.65539127386949" lon="11.187400997997148"><ele>299.0</ele><time>2026-04-04T13:09:41Z</time></trkpt><trkpt lat="43.65548110303941" lon="11.18746185478057"><ele>299.0</ele><time>2026-04-04T13:09:42Z</time></trkpt><trkpt lat="43.6555389240529" lon="11.187514670787879"><ele>300.0</ele><time>2026-04-04T13:09:43Z</time></trkpt><trkpt lat="43.65560714866399" lon="11.187606460724629"><ele>301.0</ele><time>2026-04-04T13:09:45Z</time></trkpt><trkpt lat="43.65568090092079" lon="11.187669693619975"><ele>302.0</ele><time>2026-04-04T13:09:47Z</time></trkpt><trkpt lat="43.655804911616485" lon="11.187490750666514"><ele>303.0</ele><time>2026-04-04T13:09:48Z</time></trkpt><trkpt lat="43.65596405061795" lon="11.187475577678141"><ele>303.0</ele><time>2026-04-04T13:09:49Z</time></trkpt><trkpt lat="43.65610852925454" lon="11.18748431290039"><ele>303.0</ele><time>2026-04-04T13:09:50Z</time></trkpt><trkpt lat="43.65628261452798" lon="11.187522073229216"><ele>303.0</ele><time>2026-04-04T13:09:51Z</time></trkpt><trkpt lat="43.656452228027376" lon="11.187570036235057"><ele>304.0</ele><time>2026-04-04T13:09:52Z</time></trkpt><trkpt lat="43.656614446796745" lon="11.18763674076881"><ele>305.0</ele><time>2026-04-04T13:09:53Z</time></trkpt><trkpt lat="43.65678223592997" lon="11.187711389718809"><ele>306.0</ele><time>2026-04-04T13:09:54Z</time></trkpt><trkpt lat="43.656957484488984" lon="11.187805718206125"><ele>307.0</ele><time>2026-04-04T13:09:55Z</time></trkpt><trkpt lat="43.657137941812785" lon="11.187900634712147"><ele>308.0</ele><time>2026-04-04T13:09:56Z</time></trkpt><trkpt lat="43.65733160852429" lon="11.18799933180092"><ele>309.0</ele><time>2026-04-04T13:09:57Z</time></trkpt><trkpt lat="43.657509666292675" lon="11.188087853871687"><ele>309.0</ele><time>2026-04-04T13:09:58Z</time></trkpt><trkpt lat="43.6576666447697" lon="11.18816583498447"><ele>309.0</ele><time>2026-04-04T13:09:59Z</time></trkpt><trkpt lat="43.657809050017505" lon="11.188235132271943"><ele>309.0</ele><time>2026-04-04T13:10:00Z</time></trkpt><trkpt lat="43.65794430828658" lon="11.188298436238922"><ele>308.2</ele><time>2026-04-04T13:10:01Z</time></trkpt><trkpt lat="43.658059659624946" lon="11.188352538302414"><ele>307.4</ele><time>2026-04-04T13:10:02Z</time></trkpt><trkpt lat="43.658151534543414" lon="11.18842755219602"><ele>306.6</ele><time>2026-04-04T13:10:03Z</time></trkpt><trkpt lat="43.658235331217966" lon="11.18848727300729"><ele>305.8</ele><time>2026-04-04T13:10:04Z</time></trkpt><trkpt lat="43.65830384811277" lon="11.18856493516226"><ele>305.0</ele><time>2026-04-04T13:10:05Z</time></trkpt><trkpt lat="43.658371386162436" lon="11.188626435457842"><ele>305.0</ele><time>2026-04-04T13:10:06Z</time></trkpt><trkpt lat="43.65845515883395" lon="11.188693366211629"><ele>305.0</ele><time>2026-04-04T13:10:07Z</time></trkpt><trkpt lat="43.65852769911584" lon="11.188762362879155"><ele>305.0</ele><time>2026-04-04T13:10:08Z</time></trkpt><trkpt lat="43.65859101307851" lon="11.188823758171186"><ele>305.0</ele><time>2026-04-04T13:10:09Z</time></trkpt><trkpt lat="43.658645918142334" lon="11.188928596643644"><ele>305.0</ele><time>2026-04-04T13:10:10Z</time></trkpt><trkpt lat="43.658736925673345" lon="11.189033094945504"><ele>304.5</ele><time>2026-04-04T13:10:11Z</time></trkpt><trkpt lat="43.658850638104575" lon="11.189160805721826"><ele>304.0</ele><time>2026-04-04T13:10:12Z</time></trkpt><trkpt lat="43.65895928199626" lon="11.189264844518572"><ele>303.5</ele><time>2026-04-04T13:10:13Z</time></trkpt><trkpt lat="43.65908531197887" lon="11.189325311006531"><ele>303.0</ele><time>2026-04-04T13:10:14Z</time></trkpt><trkpt lat="43.65924687583143" lon="11.189428619405268"><ele>303.0</ele><time>2026-04-04T13:10:15Z</time></trkpt><trkpt lat="43.65941053993237" lon="11.189517025921594"><ele>303.0</ele><time>2026-04-04T13:10:16Z</time></trkpt><trkpt lat="43.65955758762975" lon="11.189603527177203"><ele>303.0</ele><time>2026-04-04T13:10:17Z</time></trkpt><trkpt lat="43.65968592272459" lon="11.189730121292996"><ele>302.0</ele><time>2026-04-04T13:10:18Z</time></trkpt><trkpt lat="43.659842975010335" lon="11.18986218171353"><ele>301.0</ele><time>2026-04-04T13:10:19Z</time></trkpt><trkpt lat="43.66001587076218" lon="11.189997816758078"><ele>300.0</ele><time>2026-04-04T13:10:20Z</time></trkpt><trkpt lat="43.660189074568" lon="11.190155829288061"><ele>297.0</ele><time>2026-04-04T13:10:21Z</time></trkpt><trkpt lat="43.66035184600751" lon="11.190293899328875"><ele>294.0</ele><time>2026-04-04T13:10:22Z</time></trkpt><trkpt lat="43.66051157492999" lon="11.190411456737358"><ele>291.0</ele><time>2026-04-04T13:10:23Z</time></trkpt><trkpt lat="43.66068550081647" lon="11.190502073173462"><ele>291.0</ele><time>2026-04-04T13:10:24Z</time></trkpt><trkpt lat="43.66088269351514" lon="11.190556977614696"><ele>291.0</ele><time>2026-04-04T13:10:25Z</time></trkpt><trkpt lat="43.661071366317486" lon="11.190590343012538"><ele>291.0</ele><time>2026-04-04T13:10:26Z</time></trkpt><trkpt lat="43.66122993673957" lon="11.19062206318948"><ele>291.25</ele><time>2026-04-04T13:10:27Z</time></trkpt><trkpt lat="43.6613493897903" lon="11.1906664863479"><ele>291.5</ele><time>2026-04-04T13:10:28Z</time></trkpt><trkpt lat="43.661473783485405" lon="11.190702849260672"><ele>291.75</ele><time>2026-04-04T13:10:29Z</time></trkpt><trkpt lat="43.66159659051351" lon="11.19072727247333"><ele>292.0</ele><time>2026-04-04T13:10:30Z</time></trkpt><trkpt lat="43.66170490288487" lon="11.190751465131031"><ele>292.0</ele><time>2026-04-04T13:10:31Z</time></trkpt><trkpt lat="43.661796947888064" lon="11.190784292902412"><ele>292.0</ele><time>2026-04-04T13:10:32Z</time></trkpt><trkpt lat="43.66188134149383" lon="11.19083327049725"><ele>292.0</ele><time>2026-04-04T13:10:33Z</time></trkpt><trkpt lat="43.66194890837866" lon="11.190881477625894"><ele>292.0</ele><time>2026-04-04T13:10:34Z</time></trkpt><trkpt lat="43.66200720739379" lon="11.190927361741736"><ele>292.0</ele><time>2026-04-04T13:10:35Z</time></trkpt><trkpt lat="43.66205497851016" lon="11.191005897978421"><ele>292.0</ele><time>2026-04-04T13:10:37Z</time></trkpt><trkpt lat="43.66208287478328" lon="11.191098602050069"><ele>291.0</ele><time>2026-04-04T13:10:39Z</time></trkpt><trkpt lat="43.66211907435932" lon="11.191218759703357"><ele>290.0</ele><time>2026-04-04T13:10:41Z</time></trkpt><trkpt lat="43.66216693778187" lon="11.191333758699644"><ele>289.0</ele><time>2026-04-04T13:10:43Z</time></trkpt><trkpt lat="43.66223511217989" lon="11.19140066250442"><ele>288.0</ele><time>2026-04-04T13:10:45Z</time></trkpt><trkpt lat="43.66230877660906" lon="11.191445428559954"><ele>287.0</ele><time>2026-04-04T13:10:46.999Z</time></trkpt><trkpt lat="43.66237443168374" lon="11.191475615129082"><ele>286.0</ele><time>2026-04-04T13:10:47.999Z</time></trkpt><trkpt lat="43.66245623497917" lon="11.191508403370932"><ele>286.0</ele><time>2026-04-04T13:10:48.999Z</time></trkpt><trkpt lat="43.662555589048054" lon="11.191540817752468"><ele>286.0</ele><time>2026-04-04T13:10:49.999Z</time></trkpt><trkpt lat="43.66267080050875" lon="11.191554770045796"><ele>286.0</ele><time>2026-04-04T13:10:50.999Z</time></trkpt><trkpt lat="43.662801912593125" lon="11.191536924035889"><ele>286.0</ele><time>2026-04-04T13:10:51.999Z</time></trkpt><trkpt lat="43.66294215998443" lon="11.191511458803703"><ele>284.3333333333333</ele><time>2026-04-04T13:10:53Z</time></trkpt><trkpt lat="43.66310124809546" lon="11.191525704232777"><ele>282.6666666666667</ele><time>2026-04-04T13:10:54Z</time></trkpt><trkpt lat="43.66328224065699" lon="11.191604151920787"><ele>281.0</ele><time>2026-04-04T13:10:55Z</time></trkpt><trkpt lat="43.6634645823637" lon="11.191689008714109"><ele>281.33333333333337</ele><time>2026-04-04T13:10:56Z</time></trkpt><trkpt lat="43.663634765168126" lon="11.191758534180627"><ele>281.6666666666667</ele><time>2026-04-04T13:10:57Z</time></trkpt><trkpt lat="43.66379847651723" lon="11.191833329874303"><ele>282.0</ele><time>2026-04-04T13:10:58Z</time></trkpt><trkpt lat="43.66395591056462" lon="11.191962570704273"><ele>282.0</ele><time>2026-04-04T13:10:59Z</time></trkpt><trkpt lat="43.66409094563657" lon="11.192180864734885"><ele>282.0</ele><time>2026-04-04T13:11:00Z</time></trkpt><trkpt lat="43.66424513147404" lon="11.192422700991244"><ele>282.0</ele><time>2026-04-04T13:11:01Z</time></trkpt><trkpt lat="43.6644064429037" lon="11.19263245433958"><ele>282.0</ele><time>2026-04-04T13:11:02Z</time></trkpt><trkpt lat="43.66455174657106" lon="11.192819339242519"><ele>282.0</ele><time>2026-04-04T13:11:03Z</time></trkpt><trkpt lat="43.66467584465423" lon="11.193005954827695"><ele>282.0</ele><time>2026-04-04T13:11:04Z</time></trkpt><trkpt lat="43.66479673863594" lon="11.19314872636332"><ele>278.6666666666667</ele><time>2026-04-04T13:11:05Z</time></trkpt><trkpt lat="43.664879120651314" lon="11.193337940008437"><ele>275.33333333333337</ele><time>2026-04-04T13:11:06Z</time></trkpt><trkpt lat="43.66492377521554" lon="11.193559930689723"><ele>272.0</ele><time>2026-04-04T13:11:07Z</time></trkpt><trkpt lat="43.664908619220355" lon="11.193794142745915"><ele>271.0</ele><time>2026-04-04T13:11:08Z</time></trkpt><trkpt lat="43.66489188866316" lon="11.194078067719165"><ele>270.0</ele><time>2026-04-04T13:11:09Z</time></trkpt><trkpt lat="43.6648567875066" lon="11.194380516097128"><ele>269.0</ele><time>2026-04-04T13:11:10Z</time></trkpt><trkpt lat="43.664832614079856" lon="11.194659768720765"><ele>267.6666666666667</ele><time>2026-04-04T13:11:11Z</time></trkpt><trkpt lat="43.664814853842415" lon="11.19492328964391"><ele>266.3333333333333</ele><time>2026-04-04T13:11:12Z</time></trkpt><trkpt lat="43.66482809509698" lon="11.195187653606041"><ele>265.0</ele><time>2026-04-04T13:11:13Z</time></trkpt><trkpt lat="43.664859338874805" lon="11.195465143600682"><ele>261.0</ele><time>2026-04-04T13:11:14Z</time></trkpt><trkpt lat="43.66495713730366" lon="11.195729478814332"><ele>257.0</ele><time>2026-04-04T13:11:15Z</time></trkpt><trkpt lat="43.66509972337338" lon="11.19596612135039"><ele>253.0</ele><time>2026-04-04T13:11:16Z</time></trkpt><trkpt lat="43.66524611951441" lon="11.196162920151773"><ele>255.0</ele><time>2026-04-04T13:11:17Z</time></trkpt><trkpt lat="43.66538595176001" lon="11.196345095594054"><ele>257.0</ele><time>2026-04-04T13:11:18Z</time></trkpt><trkpt lat="43.66547118443837" lon="11.196550646675256"><ele>259.0</ele><time>2026-04-04T13:11:19Z</time></trkpt><trkpt lat="43.66551427883559" lon="11.196760082522461"><ele>259.0</ele><time>2026-04-04T13:11:20Z</time></trkpt><trkpt lat="43.66552455198485" lon="11.197011538698819"><ele>259.0</ele><time>2026-04-04T13:11:21Z</time></trkpt><trkpt lat="43.665552586819736" lon="11.197251748770253"><ele>259.0</ele><time>2026-04-04T13:11:22Z</time></trkpt><trkpt lat="43.665599473575675" lon="11.19745410565992"><ele>255.66666666666666</ele><time>2026-04-04T13:11:23Z</time></trkpt><trkpt lat="43.665693381906216" lon="11.197651276467528"><ele>252.33333333333331</ele><time>2026-04-04T13:11:24Z</time></trkpt><trkpt lat="43.665830470539014" lon="11.197798070812937"><ele>249.0</ele><time>2026-04-04T13:11:25Z</time></trkpt><trkpt lat="43.66599120816697" lon="11.197879556797389"><ele>250.0</ele><time>2026-04-04T13:11:26Z</time></trkpt><trkpt lat="43.66615014188256" lon="11.197915010264984"><ele>251.0</ele><time>2026-04-04T13:11:27Z</time></trkpt><trkpt lat="43.66626503810659" lon="11.19801198611109"><ele>252.0</ele><time>2026-04-04T13:11:28Z</time></trkpt><trkpt lat="43.666358593814074" lon="11.198152720653326"><ele>253.0</ele><time>2026-04-04T13:11:29Z</time></trkpt><trkpt lat="43.666405236037285" lon="11.19834628402418"><ele>253.0</ele><time>2026-04-04T13:11:30Z</time></trkpt><trkpt lat="43.666409906980455" lon="11.198545697617867"><ele>253.0</ele><time>2026-04-04T13:11:31Z</time></trkpt><trkpt lat="43.66638547391512" lon="11.198758118615322"><ele>253.0</ele><time>2026-04-04T13:11:32Z</time></trkpt><trkpt lat="43.66631122878695" lon="11.198943697050618"><ele>253.66666666666666</ele><time>2026-04-04T13:11:33Z</time></trkpt><trkpt lat="43.666195476968944" lon="11.199133100706552"><ele>254.33333333333331</ele><time>2026-04-04T13:11:34Z</time></trkpt><trkpt lat="43.666057823970895" lon="11.199367230805079"><ele>255.0</ele><time>2026-04-04T13:11:35Z</time></trkpt><trkpt lat="43.66596616979795" lon="11.199604411798365"><ele>248.66666666666669</ele><time>2026-04-04T13:11:36Z</time></trkpt><trkpt lat="43.665902474731844" lon="11.199874028788672"><ele>242.33333333333334</ele><time>2026-04-04T13:11:37Z</time></trkpt><trkpt lat="43.66586032388835" lon="11.200184987637767"><ele>236.0</ele><time>2026-04-04T13:11:38Z</time></trkpt><trkpt lat="43.66574509985664" lon="11.200454774915409"><ele>237.66666666666669</ele><time>2026-04-04T13:11:39Z</time></trkpt><trkpt lat="43.66564590003981" lon="11.200713880951247"><ele>239.33333333333331</ele><time>2026-04-04T13:11:40Z</time></trkpt><trkpt lat="43.66559182767809" lon="11.200980660234492"><ele>241.0</ele><time>2026-04-04T13:11:41Z</time></trkpt><trkpt lat="43.66556039292168" lon="11.201279496337877"><ele>241.0</ele><time>2026-04-04T13:11:42Z</time></trkpt><trkpt lat="43.66556463650906" lon="11.201575461452528"><ele>241.0</ele><time>2026-04-04T13:11:43Z</time></trkpt><trkpt lat="43.66553946352444" lon="11.201852789117764"><ele>241.0</ele><time>2026-04-04T13:11:44Z</time></trkpt><trkpt lat="43.66548431289295" lon="11.202108139462107"><ele>241.0</ele><time>2026-04-04T13:11:45Z</time></trkpt><trkpt lat="43.6654034188475" lon="11.20236701670782"><ele>241.0</ele><time>2026-04-04T13:11:46Z</time></trkpt><trkpt lat="43.665324992321466" lon="11.20262954984769"><ele>241.0</ele><time>2026-04-04T13:11:47Z</time></trkpt><trkpt lat="43.665290001496906" lon="11.202881685229043"><ele>241.33333333333331</ele><time>2026-04-04T13:11:48Z</time></trkpt><trkpt lat="43.66525996757238" lon="11.203127601755448"><ele>241.66666666666669</ele><time>2026-04-04T13:11:49Z</time></trkpt><trkpt lat="43.66527002321165" lon="11.203377381020024"><ele>242.0</ele><time>2026-04-04T13:11:50Z</time></trkpt><trkpt lat="43.665317872487215" lon="11.203644377324508"><ele>242.0</ele><time>2026-04-04T13:11:51Z</time></trkpt><trkpt lat="43.66540578443732" lon="11.20392440302139"><ele>242.0</ele><time>2026-04-04T13:11:52Z</time></trkpt><trkpt lat="43.66550497751171" lon="11.204194310435433"><ele>242.0</ele><time>2026-04-04T13:11:53Z</time></trkpt><trkpt lat="43.66559106145451" lon="11.204437504083925"><ele>239.33333333333334</ele><time>2026-04-04T13:11:54Z</time></trkpt><trkpt lat="43.66563334178611" lon="11.204671909827201"><ele>236.66666666666669</ele><time>2026-04-04T13:11:55Z</time></trkpt><trkpt lat="43.665651383461" lon="11.204893401760469"><ele>234.0</ele><time>2026-04-04T13:11:56Z</time></trkpt><trkpt lat="43.6656386590898" lon="11.205135794811847"><ele>231.66666666666669</ele><time>2026-04-04T13:11:57Z</time></trkpt><trkpt lat="43.66560053452604" lon="11.2054066851458"><ele>229.33333333333334</ele><time>2026-04-04T13:11:58Z</time></trkpt><trkpt lat="43.665556844415164" lon="11.205692063400292"><ele>227.0</ele><time>2026-04-04T13:11:59Z</time></trkpt><trkpt lat="43.665551351925764" lon="11.205967716679865"><ele>225.33333333333334</ele><time>2026-04-04T13:12:00Z</time></trkpt><trkpt lat="43.66553693950708" lon="11.206257776831166"><ele>223.66666666666669</ele><time>2026-04-04T13:12:01Z</time></trkpt><trkpt lat="43.66556309088921" lon="11.206536055540148"><ele>222.0</ele><time>2026-04-04T13:12:02Z</time></trkpt><trkpt lat="43.66558786239129" lon="11.206794957562906"><ele>219.75</ele><time>2026-04-04T13:12:03Z</time></trkpt><trkpt lat="43.6656109867118" lon="11.207018547344322"><ele>217.5</ele><time>2026-04-04T13:12:04Z</time></trkpt><trkpt lat="43.66563582059035" lon="11.207209734986062"><ele>215.25</ele><time>2026-04-04T13:12:05Z</time></trkpt><trkpt lat="43.66568319762707" lon="11.207380029339491"><ele>213.0</ele><time>2026-04-04T13:12:06Z</time></trkpt><trkpt lat="43.665768898252395" lon="11.207523675878056"><ele>211.25</ele><time>2026-04-04T13:12:07Z</time></trkpt><trkpt lat="43.66588204389354" lon="11.207620373988233"><ele>209.5</ele><time>2026-04-04T13:12:08Z</time></trkpt><trkpt lat="43.6660244637173" lon="11.20767303726972"><ele>207.75</ele><time>2026-04-04T13:12:09Z</time></trkpt><trkpt lat="43.66617496297034" lon="11.207669463064816"><ele>206.0</ele><time>2026-04-04T13:12:10Z</time></trkpt><trkpt lat="43.66631979197402" lon="11.207599418821017"><ele>205.33333333333334</ele><time>2026-04-04T13:12:11Z</time></trkpt><trkpt lat="43.6664667103971" lon="11.207450595709163"><ele>204.66666666666669</ele><time>2026-04-04T13:12:12Z</time></trkpt><trkpt lat="43.666622440317234" lon="11.207268804253111"><ele>204.0</ele><time>2026-04-04T13:12:13Z</time></trkpt><trkpt lat="43.666783144794685" lon="11.207086196622528"><ele>200.33333333333331</ele><time>2026-04-04T13:12:14Z</time></trkpt><trkpt lat="43.666950454608504" lon="11.206898271970667"><ele>196.66666666666666</ele><time>2026-04-04T13:12:15Z</time></trkpt><trkpt lat="43.66712055407076" lon="11.206730458305307"><ele>193.0</ele><time>2026-04-04T13:12:16Z</time></trkpt><trkpt lat="43.66730591507715" lon="11.206591593898107"><ele>193.0</ele><time>2026-04-04T13:12:17Z</time></trkpt><trkpt lat="43.667512743167336" lon="11.206495817180096"><ele>193.0</ele><time>2026-04-04T13:12:18Z</time></trkpt><trkpt lat="43.667738478328985" lon="11.206423804931445"><ele>194.33333333333331</ele><time>2026-04-04T13:12:19Z</time></trkpt><trkpt lat="43.66796123281196" lon="11.206369675577108"><ele>195.66666666666669</ele><time>2026-04-04T13:12:20Z</time></trkpt><trkpt lat="43.66816588656135" lon="11.206306002939018"><ele>197.0</ele><time>2026-04-04T13:12:21Z</time></trkpt><trkpt lat="43.66836485507214" lon="11.206240988414358"><ele>197.0</ele><time>2026-04-04T13:12:22Z</time></trkpt><trkpt lat="43.6685597800234" lon="11.206214619193931"><ele>197.0</ele><time>2026-04-04T13:12:23Z</time></trkpt><trkpt lat="43.66876411389347" lon="11.206260044440794"><ele>197.0</ele><time>2026-04-04T13:12:24Z</time></trkpt><trkpt lat="43.668996149755635" lon="11.206298864921942"><ele>195.5</ele><time>2026-04-04T13:12:25Z</time></trkpt><trkpt lat="43.66923363118871" lon="11.206379350544994"><ele>194.0</ele><time>2026-04-04T13:12:26Z</time></trkpt><trkpt lat="43.66945352924287" lon="11.206456950978236"><ele>189.66666666666669</ele><time>2026-04-04T13:12:27Z</time></trkpt><trkpt lat="43.6696626026327" lon="11.20652321493008"><ele>185.33333333333334</ele><time>2026-04-04T13:12:28Z</time></trkpt><trkpt lat="43.66985822877455" lon="11.20658303086961"><ele>181.0</ele><time>2026-04-04T13:12:29Z</time></trkpt><trkpt lat="43.670040418495354" lon="11.206666686464054"><ele>181.0</ele><time>2026-04-04T13:12:30Z</time></trkpt><trkpt lat="43.67020348756312" lon="11.206754270752137"><ele>181.0</ele><time>2026-04-04T13:12:31Z</time></trkpt><trkpt lat="43.67033361703144" lon="11.206857872762336"><ele>181.0</ele><time>2026-04-04T13:12:32Z</time></trkpt><trkpt lat="43.670445075610466" lon="11.206967645393517"><ele>181.25</ele><time>2026-04-04T13:12:33Z</time></trkpt><trkpt lat="43.67048135850433" lon="11.207143077024677"><ele>181.5</ele><time>2026-04-04T13:12:34Z</time></trkpt><trkpt lat="43.67049770457735" lon="11.207325224139415"><ele>181.75</ele><time>2026-04-04T13:12:35Z</time></trkpt><trkpt lat="43.670461978728355" lon="11.207522047954336"><ele>182.0</ele><time>2026-04-04T13:12:36Z</time></trkpt><trkpt lat="43.670390481935385" lon="11.207712374802615"><ele>179.0</ele><time>2026-04-04T13:12:37Z</time></trkpt><trkpt lat="43.67027253126063" lon="11.207844429865277"><ele>176.0</ele><time>2026-04-04T13:12:38Z</time></trkpt><trkpt lat="43.67013596365099" lon="11.207925548640986"><ele>173.0</ele><time>2026-04-04T13:12:39Z</time></trkpt><trkpt lat="43.669961603897484" lon="11.207991493191969"><ele>173.0</ele><time>2026-04-04T13:12:40Z</time></trkpt><trkpt lat="43.66974426323379" lon="11.208060787294645"><ele>173.0</ele><time>2026-04-04T13:12:41Z</time></trkpt><trkpt lat="43.669525102774955" lon="11.20812033132588"><ele>173.0</ele><time>2026-04-04T13:12:42Z</time></trkpt><trkpt lat="43.669309631870995" lon="11.20817678178399"><ele>171.66666666666666</ele><time>2026-04-04T13:12:43Z</time></trkpt><trkpt lat="43.6691002219044" lon="11.208247945176408"><ele>170.33333333333334</ele><time>2026-04-04T13:12:44Z</time></trkpt><trkpt lat="43.668885778820965" lon="11.208304070991948"><ele>169.0</ele><time>2026-04-04T13:12:45Z</time></trkpt><trkpt lat="43.668665040539835" lon="11.208341844360051"><ele>168.66666666666669</ele><time>2026-04-04T13:12:46Z</time></trkpt><trkpt lat="43.66845045704255" lon="11.208406389461166"><ele>168.33333333333334</ele><time>2026-04-04T13:12:47Z</time></trkpt><trkpt lat="43.6682531661728" lon="11.208476341870906"><ele>168.0</ele><time>2026-04-04T13:12:48Z</time></trkpt><trkpt lat="43.66808167944989" lon="11.208577058081621"><ele>168.0</ele><time>2026-04-04T13:12:48.999Z</time></trkpt><trkpt lat="43.667925877850735" lon="11.208671698487088"><ele>168.0</ele><time>2026-04-04T13:12:49.999Z</time></trkpt><trkpt lat="43.66778801415188" lon="11.208781556089289"><ele>168.0</ele><time>2026-04-04T13:12:50.999Z</time></trkpt><trkpt lat="43.6676641360452" lon="11.208895690635488"><ele>168.25</ele><time>2026-04-04T13:12:51.999Z</time></trkpt><trkpt lat="43.66754805699511" lon="11.20901415922302"><ele>168.5</ele><time>2026-04-04T13:12:52.999Z</time></trkpt><trkpt lat="43.667424759198774" lon="11.2091061239571"><ele>168.75</ele><time>2026-04-04T13:12:53.999Z</time></trkpt><trkpt lat="43.66731975796008" lon="11.20922962187839"><ele>169.0</ele><time>2026-04-04T13:12:54.999Z</time></trkpt><trkpt lat="43.66724057452229" lon="11.209387136931872"><ele>169.0</ele><time>2026-04-04T13:12:55.999Z</time></trkpt><trkpt lat="43.66719630841918" lon="11.209555299525865"><ele>169.0</ele><time>2026-04-04T13:12:56.999Z</time></trkpt><trkpt lat="43.66718251855999" lon="11.20972403914387"><ele>169.0</ele><time>2026-04-04T13:12:57.999Z</time></trkpt><trkpt lat="43.667204646737396" lon="11.209883508922124"><ele>169.0</ele><time>2026-04-04T13:12:59Z</time></trkpt><trkpt lat="43.66728040264411" lon="11.210003729576602"><ele>166.25</ele><time>2026-04-04T13:13:00Z</time></trkpt><trkpt lat="43.667400448639235" lon="11.210094799435716"><ele>163.5</ele><time>2026-04-04T13:13:01Z</time></trkpt><trkpt lat="43.667538916331075" lon="11.210140698151905"><ele>160.75</ele><time>2026-04-04T13:13:02Z</time></trkpt><trkpt lat="43.667684364701444" lon="11.210143916937936"><ele>158.0</ele><time>2026-04-04T13:13:03Z</time></trkpt><trkpt lat="43.66786083638819" lon="11.210124343718727"><ele>157.33333333333331</ele><time>2026-04-04T13:13:04Z</time></trkpt><trkpt lat="43.66803007397915" lon="11.210123066356143"><ele>156.66666666666666</ele><time>2026-04-04T13:13:05Z</time></trkpt><trkpt lat="43.668185127036395" lon="11.210130907669242"><ele>156.0</ele><time>2026-04-04T13:13:06Z</time></trkpt><trkpt lat="43.6683422758844" lon="11.21014453239118"><ele>156.0</ele><time>2026-04-04T13:13:07Z</time></trkpt><trkpt lat="43.66850368792697" lon="11.210169849392674"><ele>156.0</ele><time>2026-04-04T13:13:08Z</time></trkpt><trkpt lat="43.66864590623181" lon="11.210205385538496"><ele>156.0</ele><time>2026-04-04T13:13:09Z</time></trkpt><trkpt lat="43.668772793737254" lon="11.210237992042202"><ele>156.0</ele><time>2026-04-04T13:13:10Z</time></trkpt><trkpt lat="43.66888190737456" lon="11.210268615625537"><ele>155.8</ele><time>2026-04-04T13:13:11Z</time></trkpt><trkpt lat="43.668969493342445" lon="11.210302649727993"><ele>155.6</ele><time>2026-04-04T13:13:12Z</time></trkpt><trkpt lat="43.66903844314212" lon="11.210361802124114"><ele>155.4</ele><time>2026-04-04T13:13:13Z</time></trkpt><trkpt lat="43.66910760004018" lon="11.210406993065432"><ele>155.2</ele><time>2026-04-04T13:13:14Z</time></trkpt><trkpt lat="43.66922164780014" lon="11.210308720379896"><ele>155.0</ele><time>2026-04-04T13:13:15Z</time></trkpt><trkpt lat="43.6693523118486" lon="11.210273208090712"><ele>154.66666666666666</ele><time>2026-04-04T13:13:16Z</time></trkpt><trkpt lat="43.66951151215717" lon="11.210256596195048"><ele>154.33333333333334</ele><time>2026-04-04T13:13:17Z</time></trkpt><trkpt lat="43.66967936210404" lon="11.210250541203868"><ele>154.0</ele><time>2026-04-04T13:13:18Z</time></trkpt><trkpt lat="43.669865793802394" lon="11.210280554279121"><ele>154.0</ele><time>2026-04-04T13:13:19Z</time></trkpt><trkpt lat="43.670068039812605" lon="11.2103168483844"><ele>154.0</ele><time>2026-04-04T13:13:20Z</time></trkpt><trkpt lat="43.67027183606744" lon="11.210346218107146"><ele>154.0</ele><time>2026-04-04T13:13:21Z</time></trkpt><trkpt lat="43.67047322077561" lon="11.210363637796775"><ele>154.0</ele><time>2026-04-04T13:13:22Z</time></trkpt><trkpt lat="43.67068631813198" lon="11.210380032235499"><ele>154.0</ele><time>2026-04-04T13:13:23Z</time></trkpt><trkpt lat="43.67091411361734" lon="11.210404079422025"><ele>154.0</ele><time>2026-04-04T13:13:24Z</time></trkpt><trkpt lat="43.67112993787987" lon="11.210426376453379"><ele>154.66666666666669</ele><time>2026-04-04T13:13:25Z</time></trkpt><trkpt lat="43.67133125939259" lon="11.210442319563375"><ele>155.33333333333334</ele><time>2026-04-04T13:13:26Z</time></trkpt><trkpt lat="43.67153203289914" lon="11.210454641628216"><ele>156.0</ele><time>2026-04-04T13:13:27Z</time></trkpt><trkpt lat="43.67174318606052" lon="11.210459871990846"><ele>153.0</ele><time>2026-04-04T13:13:28Z</time></trkpt><trkpt lat="43.671963552258795" lon="11.210447835594866"><ele>150.0</ele><time>2026-04-04T13:13:29Z</time></trkpt><trkpt lat="43.67216812478927" lon="11.21043059881854"><ele>147.0</ele><time>2026-04-04T13:13:30Z</time></trkpt><trkpt lat="43.67235179459868" lon="11.210410912868301"><ele>147.0</ele><time>2026-04-04T13:13:31Z</time></trkpt><trkpt lat="43.67252895703947" lon="11.21039262627843"><ele>147.0</ele><time>2026-04-04T13:13:32Z</time></trkpt><trkpt lat="43.67269752352068" lon="11.210384324677726"><ele>147.0</ele><time>2026-04-04T13:13:33Z</time></trkpt><trkpt lat="43.672849365311585" lon="11.210373658938174"><ele>147.0</ele><time>2026-04-04T13:13:34Z</time></trkpt><trkpt lat="43.67299624624544" lon="11.210363124335625"><ele>147.0</ele><time>2026-04-04T13:13:35Z</time></trkpt><trkpt lat="43.67314315909534" lon="11.210357638810493"><ele>147.0</ele><time>2026-04-04T13:13:36Z</time></trkpt><trkpt lat="43.673297708811056" lon="11.210343867324742"><ele>147.0</ele><time>2026-04-04T13:13:37Z</time></trkpt><trkpt lat="43.673455117207226" lon="11.210332755513486"><ele>146.5</ele><time>2026-04-04T13:13:38Z</time></trkpt><trkpt lat="43.67360692886427" lon="11.210322192322057"><ele>146.0</ele><time>2026-04-04T13:13:39Z</time></trkpt><trkpt lat="43.673755938285616" lon="11.210316616747296"><ele>145.5</ele><time>2026-04-04T13:13:40Z</time></trkpt><trkpt lat="43.67389345613486" lon="11.210309715800514"><ele>145.0</ele><time>2026-04-04T13:13:41Z</time></trkpt><trkpt lat="43.67403076336119" lon="11.210301141019793"><ele>145.0</ele><time>2026-04-04T13:13:42Z</time></trkpt><trkpt lat="43.67416857841608" lon="11.210293977494118"><ele>145.0</ele><time>2026-04-04T13:13:43Z</time></trkpt><trkpt lat="43.67431123705419" lon="11.210288136622701"><ele>145.0</ele><time>2026-04-04T13:13:44Z</time></trkpt><trkpt lat="43.67445707501779" lon="11.210282605704696"><ele>145.0</ele><time>2026-04-04T13:13:45Z</time></trkpt><trkpt lat="43.67460988832446" lon="11.21026826750033"><ele>138.33333333333334</ele><time>2026-04-04T13:13:46Z</time></trkpt><trkpt lat="43.6747772785418" lon="11.210257774476268"><ele>131.66666666666666</ele><time>2026-04-04T13:13:47Z</time></trkpt><trkpt lat="43.674948910388444" lon="11.210246870908506"><ele>125.0</ele><time>2026-04-04T13:13:48Z</time></trkpt><trkpt lat="43.675118796873996" lon="11.210238764835765"><ele>117.66666666666666</ele><time>2026-04-04T13:13:49Z</time></trkpt><trkpt lat="43.675281432258096" lon="11.210228235110163"><ele>110.33333333333334</ele><time>2026-04-04T13:13:50Z</time></trkpt><trkpt lat="43.67543060801595" lon="11.210224271995843"><ele>103.0</ele><time>2026-04-04T13:13:51Z</time></trkpt><trkpt lat="43.67558422718951" lon="11.210220986160678"><ele>103.0</ele><time>2026-04-04T13:13:52Z</time></trkpt><trkpt lat="43.675747486592826" lon="11.210210089385313"><ele>103.0</ele><time>2026-04-04T13:13:53Z</time></trkpt><trkpt lat="43.67590960312977" lon="11.210202665578192"><ele>103.0</ele><time>2026-04-04T13:13:54Z</time></trkpt><trkpt lat="43.676076379798204" lon="11.210201232125534"><ele>103.33333333333334</ele><time>2026-04-04T13:13:55Z</time></trkpt><trkpt lat="43.67624087128031" lon="11.21020354178269"><ele>103.66666666666666</ele><time>2026-04-04T13:13:56Z</time></trkpt><trkpt lat="43.67640373228918" lon="11.210218343972723"><ele>104.0</ele><time>2026-04-04T13:13:57Z</time></trkpt><trkpt lat="43.67656263090464" lon="11.210247862512709"><ele>104.0</ele><time>2026-04-04T13:13:58Z</time></trkpt><trkpt lat="43.67671494886981" lon="11.210280161337401"><ele>104.0</ele><time>2026-04-04T13:13:59Z</time></trkpt><trkpt lat="43.67687417340165" lon="11.210320891228747"><ele>104.0</ele><time>2026-04-04T13:14:00Z</time></trkpt><trkpt lat="43.67703017411864" lon="11.210369557969457"><ele>104.66666666666666</ele><time>2026-04-04T13:14:01Z</time></trkpt><trkpt lat="43.67718859796095" lon="11.210425656128043"><ele>105.33333333333334</ele><time>2026-04-04T13:14:02Z</time></trkpt><trkpt lat="43.677347836471654" lon="11.210491610673133"><ele>106.0</ele><time>2026-04-04T13:14:03Z</time></trkpt><trkpt lat="43.67750258244059" lon="11.210566607603313"><ele>106.0</ele><time>2026-04-04T13:14:04Z</time></trkpt><trkpt lat="43.67766446215783" lon="11.210651601062054"><ele>106.0</ele><time>2026-04-04T13:14:05Z</time></trkpt><trkpt lat="43.67784447739659" lon="11.21075606594492"><ele>106.0</ele><time>2026-04-04T13:14:06Z</time></trkpt><trkpt lat="43.67803435858983" lon="11.210884354385316"><ele>107.5</ele><time>2026-04-04T13:14:07Z</time></trkpt><trkpt lat="43.67823750023188" lon="11.211030798373734"><ele>109.0</ele><time>2026-04-04T13:14:08Z</time></trkpt><trkpt lat="43.678447123909194" lon="11.211188284885262"><ele>109.0</ele><time>2026-04-04T13:14:09Z</time></trkpt><trkpt lat="43.678658197763326" lon="11.211350151625057"><ele>109.0</ele><time>2026-04-04T13:14:10Z</time></trkpt><trkpt lat="43.678893404506404" lon="11.211510001512345"><ele>109.0</ele><time>2026-04-04T13:14:11Z</time></trkpt><trkpt lat="43.679133715592734" lon="11.21166767695363"><ele>109.0</ele><time>2026-04-04T13:14:12Z</time></trkpt><trkpt lat="43.67937860490189" lon="11.211810093551817"><ele>104.0</ele><time>2026-04-04T13:14:13Z</time></trkpt><trkpt lat="43.679624098157475" lon="11.21193404441632"><ele>99.0</ele><time>2026-04-04T13:14:14Z</time></trkpt><trkpt lat="43.679877073246885" lon="11.21203695250821"><ele>99.0</ele><time>2026-04-04T13:14:15Z</time></trkpt><trkpt lat="43.68013640995196" lon="11.21211664010506"><ele>99.0</ele><time>2026-04-04T13:14:16Z</time></trkpt><trkpt lat="43.680404701028145" lon="11.21217841307912"><ele>97.5</ele><time>2026-04-04T13:14:17Z</time></trkpt><trkpt lat="43.68067915674128" lon="11.212226860653761"><ele>96.0</ele><time>2026-04-04T13:14:18Z</time></trkpt><trkpt lat="43.68095904162885" lon="11.212253343716169"><ele>96.0</ele><time>2026-04-04T13:14:19Z</time></trkpt><trkpt lat="43.681244727407446" lon="11.212249269778457"><ele>96.0</ele><time>2026-04-04T13:14:20Z</time></trkpt><trkpt lat="43.681531179281876" lon="11.212218715198151"><ele>96.0</ele><time>2026-04-04T13:14:21Z</time></trkpt><trkpt lat="43.681821602535884" lon="11.212165188217906"><ele>96.0</ele><time>2026-04-04T13:14:22Z</time></trkpt><trkpt lat="43.682110806590906" lon="11.21210170229594"><ele>96.0</ele><time>2026-04-04T13:14:23Z</time></trkpt><trkpt lat="43.68240695084917" lon="11.212037899030781"><ele>96.0</ele><time>2026-04-04T13:14:24Z</time></trkpt><trkpt lat="43.68270553653751" lon="11.211978956025224"><ele>98.0</ele><time>2026-04-04T13:14:25Z</time></trkpt><trkpt lat="43.68300532760468" lon="11.211926352298365"><ele>100.0</ele><time>2026-04-04T13:14:26Z</time></trkpt><trkpt lat="43.68330498381152" lon="11.211870063374027"><ele>106.0</ele><time>2026-04-04T13:14:27Z</time></trkpt><trkpt lat="43.68360473265625" lon="11.211810697388245"><ele>112.0</ele><time>2026-04-04T13:14:28Z</time></trkpt><trkpt lat="43.683903661381265" lon="11.211751711526968"><ele>112.0</ele><time>2026-04-04T13:14:29Z</time></trkpt><trkpt lat="43.68420209026439" lon="11.211692754412555"><ele>112.0</ele><time>2026-04-04T13:14:30Z</time></trkpt><trkpt lat="43.68450255461011" lon="11.211635742131735"><ele>112.0</ele><time>2026-04-04T13:14:31Z</time></trkpt><trkpt lat="43.684798032032646" lon="11.211577994200457"><ele>112.0</ele><time>2026-04-04T13:14:32Z</time></trkpt><trkpt lat="43.68510164876104" lon="11.211515523409005"><ele>121.0</ele><time>2026-04-04T13:14:33Z</time></trkpt><trkpt lat="43.68540515899382" lon="11.211455701506663"><ele>130.0</ele><time>2026-04-04T13:14:34Z</time></trkpt><trkpt lat="43.68570463188746" lon="11.211397843232179"><ele>130.0</ele><time>2026-04-04T13:14:35Z</time></trkpt><trkpt lat="43.68600585977575" lon="11.211338649668408"><ele>130.0</ele><time>2026-04-04T13:14:36Z</time></trkpt><trkpt lat="43.68630447571311" lon="11.2112810269664"><ele>123.5</ele><time>2026-04-04T13:14:37Z</time></trkpt><trkpt lat="43.686602441700195" lon="11.211225369413501"><ele>117.0</ele><time>2026-04-04T13:14:38Z</time></trkpt><trkpt lat="43.686891349528366" lon="11.211172502353655"><ele>112.5</ele><time>2026-04-04T13:14:39Z</time></trkpt><trkpt lat="43.68716451835201" lon="11.21113224918989"><ele>108.0</ele><time>2026-04-04T13:14:40Z</time></trkpt><trkpt lat="43.68743215048721" lon="11.211121293915193"><ele>108.0</ele><time>2026-04-04T13:14:41Z</time></trkpt><trkpt lat="43.68771484200411" lon="11.211139843662899"><ele>108.0</ele><time>2026-04-04T13:14:42Z</time></trkpt><trkpt lat="43.688004516434766" lon="11.2111895713959"><ele>101.5</ele><time>2026-04-04T13:14:43Z</time></trkpt><trkpt lat="43.68829408241375" lon="11.211261089662584"><ele>95.0</ele><time>2026-04-04T13:14:44Z</time></trkpt><trkpt lat="43.68857580379315" lon="11.211371481006841"><ele>94.0</ele><time>2026-04-04T13:14:45Z</time></trkpt><trkpt lat="43.68884950270306" lon="11.211524555759297"><ele>93.0</ele><time>2026-04-04T13:14:46Z</time></trkpt><trkpt lat="43.68910932694085" lon="11.211720596390442"><ele>93.0</ele><time>2026-04-04T13:14:47Z</time></trkpt><trkpt lat="43.68937248440198" lon="11.211914383809981"><ele>93.0</ele><time>2026-04-04T13:14:48Z</time></trkpt><trkpt lat="43.68963173911966" lon="11.212113895978089"><ele>92.5</ele><time>2026-04-04T13:14:49Z</time></trkpt><trkpt lat="43.68989090601898" lon="11.212311805362921"><ele>92.0</ele><time>2026-04-04T13:14:50Z</time></trkpt><trkpt lat="43.69014972928279" lon="11.212498815919176"><ele>93.0</ele><time>2026-04-04T13:14:51Z</time></trkpt><trkpt lat="43.690409637061784" lon="11.212665475658058"><ele>94.0</ele><time>2026-04-04T13:14:52Z</time></trkpt><trkpt lat="43.69067367185905" lon="11.21280777218846"><ele>94.0</ele><time>2026-04-04T13:14:53Z</time></trkpt><trkpt lat="43.690945170209496" lon="11.212917545354648"><ele>94.0</ele><time>2026-04-04T13:14:54Z</time></trkpt><trkpt lat="43.69122288565946" lon="11.213004239821696"><ele>93.0</ele><time>2026-04-04T13:14:54.999Z</time></trkpt><trkpt lat="43.69150776391891" lon="11.213067449331122"><ele>92.0</ele><time>2026-04-04T13:14:55.999Z</time></trkpt><trkpt lat="43.69179778110992" lon="11.213109028125873"><ele>91.5</ele><time>2026-04-04T13:14:56.999Z</time></trkpt><trkpt lat="43.69209218456909" lon="11.213117781438436"><ele>91.0</ele><time>2026-04-04T13:14:57.999Z</time></trkpt><trkpt lat="43.69238869692177" lon="11.213090958930549"><ele>91.0</ele><time>2026-04-04T13:14:58.999Z</time></trkpt><trkpt lat="43.69268660730514" lon="11.213034594563707"><ele>91.0</ele><time>2026-04-04T13:14:59.999Z</time></trkpt><trkpt lat="43.69298065191546" lon="11.21295454127979"><ele>94.0</ele><time>2026-04-04T13:15:00.999Z</time></trkpt><trkpt lat="43.693276017515664" lon="11.212843485120697"><ele>97.0</ele><time>2026-04-04T13:15:01.999Z</time></trkpt><trkpt lat="43.693566751952375" lon="11.212705243432973"><ele>97.5</ele><time>2026-04-04T13:15:02.999Z</time></trkpt><trkpt lat="43.693856982754625" lon="11.212559987537432"><ele>98.0</ele><time>2026-04-04T13:15:03.999Z</time></trkpt><trkpt lat="43.69414749054284" lon="11.212420335783124"><ele>95.0</ele><time>2026-04-04T13:15:05Z</time></trkpt><trkpt lat="43.69443608889564" lon="11.21228658839864"><ele>92.0</ele><time>2026-04-04T13:15:06Z</time></trkpt><trkpt lat="43.69470625674532" lon="11.212161158076647"><ele>92.0</ele><time>2026-04-04T13:15:07Z</time></trkpt><trkpt lat="43.694966858259065" lon="11.212033423664453"><ele>92.0</ele><time>2026-04-04T13:15:08Z</time></trkpt><trkpt lat="43.6952163588328" lon="11.211911493093293"><ele>95.5</ele><time>2026-04-04T13:15:09Z</time></trkpt><trkpt lat="43.69546715548269" lon="11.211793189081448"><ele>99.0</ele><time>2026-04-04T13:15:10Z</time></trkpt><trkpt lat="43.695732933544114" lon="11.21169788214953"><ele>99.0</ele><time>2026-04-04T13:15:11Z</time></trkpt><trkpt lat="43.69600523277132" lon="11.211620993880178"><ele>99.0</ele><time>2026-04-04T13:15:12Z</time></trkpt><trkpt lat="43.69627172293455" lon="11.211570948291781"><ele>98.0</ele><time>2026-04-04T13:15:13Z</time></trkpt><trkpt lat="43.69654259262388" lon="11.211553767748313"><ele>97.0</ele><time>2026-04-04T13:15:14Z</time></trkpt><trkpt lat="43.69682669038004" lon="11.211565766361465"><ele>95.0</ele><time>2026-04-04T13:15:15Z</time></trkpt><trkpt lat="43.69711579320164" lon="11.211605124779515"><ele>93.0</ele><time>2026-04-04T13:15:16Z</time></trkpt><trkpt lat="43.69741024552076" lon="11.21167031360167"><ele>93.0</ele><time>2026-04-04T13:15:17Z</time></trkpt><trkpt lat="43.69769363040274" lon="11.211767343018476"><ele>93.0</ele><time>2026-04-04T13:15:18Z</time></trkpt><trkpt lat="43.697972039159325" lon="11.211887957788528"><ele>91.0</ele><time>2026-04-04T13:15:19Z</time></trkpt><trkpt lat="43.69824297518892" lon="11.212036659369096"><ele>89.0</ele><time>2026-04-04T13:15:20Z</time></trkpt><trkpt lat="43.69850490324754" lon="11.212214886038296"><ele>89.0</ele><time>2026-04-04T13:15:21Z</time></trkpt><trkpt lat="43.69875116426983" lon="11.212406355679178"><ele>89.0</ele><time>2026-04-04T13:15:22Z</time></trkpt><trkpt lat="43.69898145693578" lon="11.212601691362996"><ele>89.0</ele><time>2026-04-04T13:15:23Z</time></trkpt><trkpt lat="43.699209302254616" lon="11.212791617456586"><ele>89.0</ele><time>2026-04-04T13:15:24Z</time></trkpt><trkpt lat="43.69944457580687" lon="11.212975884981853"><ele>87.5</ele><time>2026-04-04T13:15:25Z</time></trkpt><trkpt lat="43.699668834147346" lon="11.2131414223328"><ele>86.0</ele><time>2026-04-04T13:15:26Z</time></trkpt><trkpt lat="43.69988353308419" lon="11.213300754645724"><ele>86.0</ele><time>2026-04-04T13:15:27Z</time></trkpt><trkpt lat="43.70009493507511" lon="11.213446780027079"><ele>86.0</ele><time>2026-04-04T13:15:28Z</time></trkpt><trkpt lat="43.700314332274814" lon="11.213576889395311"><ele>86.0</ele><time>2026-04-04T13:15:29Z</time></trkpt><trkpt lat="43.70054218235016" lon="11.213700416790626"><ele>86.0</ele><time>2026-04-04T13:15:30Z</time></trkpt><trkpt lat="43.70077776194203" lon="11.21381074918138"><ele>86.0</ele><time>2026-04-04T13:15:31Z</time></trkpt><trkpt lat="43.70102832885332" lon="11.21390071936172"><ele>86.0</ele><time>2026-04-04T13:15:32Z</time></trkpt><trkpt lat="43.70128760034832" lon="11.213975203165383"><ele>85.0</ele><time>2026-04-04T13:15:33Z</time></trkpt><trkpt lat="43.70155311230218" lon="11.214032974664857"><ele>84.0</ele><time>2026-04-04T13:15:34Z</time></trkpt><trkpt lat="43.70182130081739" lon="11.214077693091506"><ele>85.5</ele><time>2026-04-04T13:15:35Z</time></trkpt><trkpt lat="43.702091518186656" lon="11.21409635093905"><ele>87.0</ele><time>2026-04-04T13:15:36Z</time></trkpt><trkpt lat="43.70235794369553" lon="11.214091232714903"><ele>87.0</ele><time>2026-04-04T13:15:37Z</time></trkpt><trkpt lat="43.70262109597671" lon="11.214065226969735"><ele>87.0</ele><time>2026-04-04T13:15:38Z</time></trkpt><trkpt lat="43.70287818786773" lon="11.21402395010081"><ele>92.0</ele><time>2026-04-04T13:15:39Z</time></trkpt><trkpt lat="43.70312706967975" lon="11.21397308824912"><ele>97.0</ele><time>2026-04-04T13:15:40Z</time></trkpt><trkpt lat="43.703383504279834" lon="11.21391380996766"><ele>123.0</ele><time>2026-04-04T13:15:41Z</time></trkpt><trkpt lat="43.70364544144025" lon="11.213863951215481"><ele>149.0</ele><time>2026-04-04T13:15:42Z</time></trkpt><trkpt lat="43.70391489631594" lon="11.213815334138427"><ele>149.0</ele><time>2026-04-04T13:15:43Z</time></trkpt><trkpt lat="43.70418904522986" lon="11.213774687231806"><ele>149.0</ele><time>2026-04-04T13:15:44Z</time></trkpt><trkpt lat="43.704459054729824" lon="11.213734545318184"><ele>156.0</ele><time>2026-04-04T13:15:45Z</time></trkpt><trkpt lat="43.70473262702449" lon="11.213700545106462"><ele>163.0</ele><time>2026-04-04T13:15:46Z</time></trkpt><trkpt lat="43.70500813571102" lon="11.213669627168354"><ele>149.0</ele><time>2026-04-04T13:15:47Z</time></trkpt><trkpt lat="43.70528357159564" lon="11.213638783302812"><ele>135.0</ele><time>2026-04-04T13:15:48Z</time></trkpt><trkpt lat="43.70555862412672" lon="11.213607841766612"><ele>135.0</ele><time>2026-04-04T13:15:49Z</time></trkpt><trkpt lat="43.70585255469793" lon="11.213575805424524"><ele>135.0</ele><time>2026-04-04T13:15:50.07Z</time></trkpt><trkpt lat="43.70612765562477" lon="11.213545336517598"><ele>80.0</ele><time>2026-04-04T13:15:51.07Z</time></trkpt><trkpt lat="43.70755308409276" lon="11.21313265369179"><ele>77.5</ele><time>2026-04-04T13:15:56Z</time></trkpt><trkpt lat="43.70782878287587" lon="11.213086545161087"><ele>75.0</ele><time>2026-04-04T13:15:57Z</time></trkpt><trkpt lat="43.70813173007814" lon="11.213052065288313"><ele>75.0</ele><time>2026-04-04T13:15:58Z</time></trkpt><trkpt lat="43.708392015917774" lon="11.213062966097864"><ele>75.0</ele><time>2026-04-04T13:15:59Z</time></trkpt><trkpt lat="43.70864844559743" lon="11.213090772268725"><ele>74.5</ele><time>2026-04-04T13:16:00Z</time></trkpt><trkpt lat="43.708920813471536" lon="11.213119896008898"><ele>74.0</ele><time>2026-04-04T13:16:01Z</time></trkpt><trkpt lat="43.709216443131986" lon="11.213194901302414"><ele>73.5</ele><time>2026-04-04T13:16:02Z</time></trkpt><trkpt lat="43.709481938220804" lon="11.2132741936883"><ele>73.0</ele><time>2026-04-04T13:16:03Z</time></trkpt><trkpt lat="43.70973604445782" lon="11.213368162992587"><ele>73.0</ele><time>2026-04-04T13:16:04Z</time></trkpt><trkpt lat="43.70999644363859" lon="11.213484139303365"><ele>73.0</ele><time>2026-04-04T13:16:05Z</time></trkpt><trkpt lat="43.710254978114094" lon="11.21362009399586"><ele>72.5</ele><time>2026-04-04T13:16:06Z</time></trkpt><trkpt lat="43.71051165445631" lon="11.213779407137114"><ele>72.0</ele><time>2026-04-04T13:16:07Z</time></trkpt><trkpt lat="43.71076600898393" lon="11.213942817825437"><ele>72.0</ele><time>2026-04-04T13:16:08Z</time></trkpt><trkpt lat="43.71102374068582" lon="11.21411474201244"><ele>72.0</ele><time>2026-04-04T13:16:09Z</time></trkpt><trkpt lat="43.711285789274584" lon="11.214281728465842"><ele>73.5</ele><time>2026-04-04T13:16:10Z</time></trkpt><trkpt lat="43.71155145774566" lon="11.214450851123141"><ele>75.0</ele><time>2026-04-04T13:16:11Z</time></trkpt><trkpt lat="43.71181094496667" lon="11.214613295030137"><ele>74.0</ele><time>2026-04-04T13:16:12Z</time></trkpt><trkpt lat="43.71206775683662" lon="11.214777328011639"><ele>73.0</ele><time>2026-04-04T13:16:13Z</time></trkpt><trkpt lat="43.712310201288474" lon="11.21494130937565"><ele>73.0</ele><time>2026-04-04T13:16:14Z</time></trkpt><trkpt lat="43.71254826051274" lon="11.21511279005973"><ele>73.0</ele><time>2026-04-04T13:16:15Z</time></trkpt><trkpt lat="43.71278172288368" lon="11.215313398554983"><ele>71.5</ele><time>2026-04-04T13:16:16Z</time></trkpt><trkpt lat="43.713009178573074" lon="11.215544933163976"><ele>70.0</ele><time>2026-04-04T13:16:17Z</time></trkpt><trkpt lat="43.71322967880947" lon="11.2157976098937"><ele>70.0</ele><time>2026-04-04T13:16:18Z</time></trkpt><trkpt lat="43.71343478796439" lon="11.216093075168969"><ele>70.0</ele><time>2026-04-04T13:16:19Z</time></trkpt><trkpt lat="43.71362498817014" lon="11.216396178277149"><ele>72.5</ele><time>2026-04-04T13:16:20Z</time></trkpt><trkpt lat="43.71380116510253" lon="11.21669975492377"><ele>75.0</ele><time>2026-04-04T13:16:21Z</time></trkpt><trkpt lat="43.71395467187723" lon="11.21701108992924"><ele>73.5</ele><time>2026-04-04T13:16:22Z</time></trkpt><trkpt lat="43.714100950165104" lon="11.21732875826308"><ele>72.0</ele><time>2026-04-04T13:16:23Z</time></trkpt><trkpt lat="43.71423936020839" lon="11.217647001388645"><ele>72.0</ele><time>2026-04-04T13:16:24Z</time></trkpt><trkpt lat="43.71437925940528" lon="11.21796446247775"><ele>72.0</ele><time>2026-04-04T13:16:25Z</time></trkpt><trkpt lat="43.71452563553947" lon="11.218281493400744"><ele>77.5</ele><time>2026-04-04T13:16:26Z</time></trkpt><trkpt lat="43.71468778889757" lon="11.21858701262471"><ele>83.0</ele><time>2026-04-04T13:16:27Z</time></trkpt><trkpt lat="43.714877673140315" lon="11.218854297498936"><ele>84.5</ele><time>2026-04-04T13:16:28Z</time></trkpt><trkpt lat="43.71508451805846" lon="11.219107270139071"><ele>86.0</ele><time>2026-04-04T13:16:29Z</time></trkpt><trkpt lat="43.7152962414771" lon="11.219358963557525"><ele>86.0</ele><time>2026-04-04T13:16:30Z</time></trkpt><trkpt lat="43.71550646199364" lon="11.219575859866703"><ele>86.0</ele><time>2026-04-04T13:16:31Z</time></trkpt><trkpt lat="43.71572025426282" lon="11.219763707512685"><ele>83.5</ele><time>2026-04-04T13:16:32Z</time></trkpt><trkpt lat="43.71593118106609" lon="11.219921410449299"><ele>81.0</ele><time>2026-04-04T13:16:33Z</time></trkpt><trkpt lat="43.71615405566303" lon="11.22006170973519"><ele>81.0</ele><time>2026-04-04T13:16:34Z</time></trkpt><trkpt lat="43.716382853390414" lon="11.22018123102359"><ele>81.0</ele><time>2026-04-04T13:16:35Z</time></trkpt><trkpt lat="43.716617312705054" lon="11.220289626987274"><ele>81.0</ele><time>2026-04-04T13:16:36Z</time></trkpt><trkpt lat="43.71683817529766" lon="11.220369997840919"><ele>81.0</ele><time>2026-04-04T13:16:37Z</time></trkpt><trkpt lat="43.71705410797447" lon="11.220423161222104"><ele>81.0</ele><time>2026-04-04T13:16:38Z</time></trkpt><trkpt lat="43.71725201624639" lon="11.220455451063822"><ele>81.66666666666667</ele><time>2026-04-04T13:16:39Z</time></trkpt><trkpt lat="43.71744186652807" lon="11.22049012906144"><ele>82.33333333333334</ele><time>2026-04-04T13:16:40Z</time></trkpt><trkpt lat="43.717635540205016" lon="11.220526694455536"><ele>83.0</ele><time>2026-04-04T13:16:41Z</time></trkpt><trkpt lat="43.71784170687009" lon="11.220564384092212"><ele>83.0</ele><time>2026-04-04T13:16:42Z</time></trkpt><trkpt lat="43.71805609948369" lon="11.220603296837137"><ele>83.0</ele><time>2026-04-04T13:16:43Z</time></trkpt><trkpt lat="43.718277805402785" lon="11.220637697960372"><ele>83.0</ele><time>2026-04-04T13:16:44Z</time></trkpt><trkpt lat="43.71850769823444" lon="11.220667384415712"><ele>79.33333333333334</ele><time>2026-04-04T13:16:45Z</time></trkpt><trkpt lat="43.71873549012889" lon="11.220678658608467"><ele>75.66666666666667</ele><time>2026-04-04T13:16:46Z</time></trkpt><trkpt lat="43.718952632676675" lon="11.220673782432247"><ele>72.0</ele><time>2026-04-04T13:16:47Z</time></trkpt><trkpt lat="43.71915405460886" lon="11.220659876774972"><ele>72.66666666666667</ele><time>2026-04-04T13:16:48Z</time></trkpt><trkpt lat="43.719349778796236" lon="11.220647536562332"><ele>73.33333333333334</ele><time>2026-04-04T13:16:49Z</time></trkpt><trkpt lat="43.719533624736115" lon="11.22063220503877"><ele>74.0</ele><time>2026-04-04T13:16:50Z</time></trkpt><trkpt lat="43.71970316951146" lon="11.220595282162181"><ele>74.0</ele><time>2026-04-04T13:16:51Z</time></trkpt><trkpt lat="43.719885322437634" lon="11.220530398576882"><ele>74.0</ele><time>2026-04-04T13:16:52Z</time></trkpt><trkpt lat="43.72007675156173" lon="11.22041658015988"><ele>74.0</ele><time>2026-04-04T13:16:53Z</time></trkpt><trkpt lat="43.72027390532338" lon="11.22026953141506"><ele>73.0</ele><time>2026-04-04T13:16:54Z</time></trkpt><trkpt lat="43.72047436782518" lon="11.220084585349468"><ele>72.0</ele><time>2026-04-04T13:16:54.999Z</time></trkpt><trkpt lat="43.720675288150005" lon="11.219886978671184"><ele>80.5</ele><time>2026-04-04T13:16:55.999Z</time></trkpt><trkpt lat="43.72086608477342" lon="11.219710615644301"><ele>89.0</ele><time>2026-04-04T13:16:56.999Z</time></trkpt><trkpt lat="43.72106705127884" lon="11.219535242629522"><ele>90.0</ele><time>2026-04-04T13:16:57.999Z</time></trkpt><trkpt lat="43.72126453609532" lon="11.219359557118139"><ele>91.0</ele><time>2026-04-04T13:16:58.999Z</time></trkpt><trkpt lat="43.721461973190365" lon="11.219194091501237"><ele>91.0</ele><time>2026-04-04T13:16:59.999Z</time></trkpt><trkpt lat="43.72167551978026" lon="11.219029093205334"><ele>91.0</ele><time>2026-04-04T13:17:00.999Z</time></trkpt><trkpt lat="43.721886458998185" lon="11.218865501360487"><ele>87.5</ele><time>2026-04-04T13:17:01.999Z</time></trkpt><trkpt lat="43.72209905178746" lon="11.218699978569246"><ele>84.0</ele><time>2026-04-04T13:17:02.999Z</time></trkpt><trkpt lat="43.72231120602727" lon="11.218535073372303"><ele>84.0</ele><time>2026-04-04T13:17:03.999Z</time></trkpt><trkpt lat="43.72253886648645" lon="11.21837331866285"><ele>84.0</ele><time>2026-04-04T13:17:05.079Z</time></trkpt><trkpt lat="43.72275409235109" lon="11.218230829434106"><ele>81.0</ele><time>2026-04-04T13:17:06.075Z</time></trkpt><trkpt lat="43.7229757849791" lon="11.218073578925308"><ele>78.0</ele><time>2026-04-04T13:17:07.074Z</time></trkpt><trkpt lat="43.72733703714257" lon="11.218263292356008"><ele>78.0</ele><time>2026-04-04T13:17:26.999Z</time></trkpt><trkpt lat="43.727556421411464" lon="11.218275776172273"><ele>78.0</ele><time>2026-04-04T13:17:27.999Z</time></trkpt><trkpt lat="43.72769706238476" lon="11.218128697061438"><ele>78.0</ele><time>2026-04-04T13:17:28.999Z</time></trkpt><trkpt lat="43.72787723750737" lon="11.217962837897902"><ele>83.0</ele><time>2026-04-04T13:17:29.999Z</time></trkpt><trkpt lat="43.72805449745995" lon="11.217826505086386"><ele>88.0</ele><time>2026-04-04T13:17:30.999Z</time></trkpt><trkpt lat="43.728218835191655" lon="11.217679613519602"><ele>93.0</ele><time>2026-04-04T13:17:31.999Z</time></trkpt><trkpt lat="43.72839438790167" lon="11.2175149516626"><ele>95.5</ele><time>2026-04-04T13:17:33Z</time></trkpt><trkpt lat="43.72858206699796" lon="11.217322030127939"><ele>98.0</ele><time>2026-04-04T13:17:34.07Z</time></trkpt><trkpt lat="43.72875253599429" lon="11.217134948915833"><ele>98.0</ele><time>2026-04-04T13:17:35.071Z</time></trkpt><trkpt lat="43.72891302444412" lon="11.216955030474486"><ele>98.0</ele><time>2026-04-04T13:17:36.071Z</time></trkpt><trkpt lat="43.729089691720304" lon="11.216747969109539"><ele>98.0</ele><time>2026-04-04T13:17:37.071Z</time></trkpt><trkpt lat="43.73062825517545" lon="11.21494797565808"><ele>113.0</ele><time>2026-04-04T13:17:40.408Z</time></trkpt><trkpt lat="43.731161469924096" lon="11.214485803802491"><ele>113.0</ele><time>2026-04-04T13:17:41.407Z</time></trkpt><trkpt lat="43.731414" lon="11.2142954"><ele>113.0</ele><time>2026-04-04T13:17:42.407Z</time></trkpt><trkpt lat="43.73815651826956" lon="11.213792582184745"><ele>84.5</ele><time>2026-04-04T13:18:19Z</time></trkpt><trkpt lat="43.73838281118011" lon="11.21386097612222"><ele>56.0</ele><time>2026-04-04T13:18:20Z</time></trkpt><trkpt lat="43.738640683974175" lon="11.213908559349987"><ele>55.5</ele><time>2026-04-04T13:18:21Z</time></trkpt><trkpt lat="43.73889616787599" lon="11.213969448581471"><ele>55.0</ele><time>2026-04-04T13:18:22Z</time></trkpt><trkpt lat="43.739160146287816" lon="11.214033625968806"><ele>59.5</ele><time>2026-04-04T13:18:23Z</time></trkpt><trkpt lat="43.73942715347434" lon="11.214099106458374"><ele>64.0</ele><time>2026-04-04T13:18:24Z</time></trkpt><trkpt lat="43.7396932571761" lon="11.214159835687436"><ele>64.0</ele><time>2026-04-04T13:18:25Z</time></trkpt><trkpt lat="43.73995805491461" lon="11.214213479914017"><ele>64.0</ele><time>2026-04-04T13:18:26Z</time></trkpt><trkpt lat="43.74021791276031" lon="11.214265757453584"><ele>62.0</ele><time>2026-04-04T13:18:27Z</time></trkpt><trkpt lat="43.74046971066381" lon="11.21432064383341"><ele>60.0</ele><time>2026-04-04T13:18:28Z</time></trkpt><trkpt lat="43.74072377516802" lon="11.214374282269034"><ele>60.0</ele><time>2026-04-04T13:18:29Z</time></trkpt><trkpt lat="43.74098244757754" lon="11.214440915987998"><ele>60.0</ele><time>2026-04-04T13:18:30Z</time></trkpt><trkpt lat="43.74123701338076" lon="11.214537091508344"><ele>58.0</ele><time>2026-04-04T13:18:31Z</time></trkpt><trkpt lat="43.74147868561634" lon="11.214655911032164"><ele>56.0</ele><time>2026-04-04T13:18:32Z</time></trkpt><trkpt lat="43.74170512841254" lon="11.214810072456595"><ele>56.5</ele><time>2026-04-04T13:18:33Z</time></trkpt><trkpt lat="43.74191640363594" lon="11.215005284419188"><ele>57.0</ele><time>2026-04-04T13:18:34Z</time></trkpt><trkpt lat="43.74210460613361" lon="11.215241013027432"><ele>57.0</ele><time>2026-04-04T13:18:35Z</time></trkpt><trkpt lat="43.742276086331046" lon="11.215508771077971"><ele>57.0</ele><time>2026-04-04T13:18:36Z</time></trkpt><trkpt lat="43.74241482847044" lon="11.215801210111165"><ele>63.0</ele><time>2026-04-04T13:18:37Z</time></trkpt><trkpt lat="43.74252839558198" lon="11.216123287184748"><ele>69.0</ele><time>2026-04-04T13:18:38Z</time></trkpt><trkpt lat="43.74261977629497" lon="11.216470721998665"><ele>72.5</ele><time>2026-04-04T13:18:39Z</time></trkpt><trkpt lat="43.742655395245734" lon="11.216842543212254"><ele>76.0</ele><time>2026-04-04T13:18:40Z</time></trkpt><trkpt lat="43.74267649214086" lon="11.217219767219593"><ele>77.0</ele><time>2026-04-04T13:18:41Z</time></trkpt><trkpt lat="43.74267209820497" lon="11.217598735791803"><ele>78.0</ele><time>2026-04-04T13:18:42Z</time></trkpt><trkpt lat="43.74267109167619" lon="11.217943016920856"><ele>77.33333333333333</ele><time>2026-04-04T13:18:43Z</time></trkpt><trkpt lat="43.74265590279125" lon="11.21824220899836"><ele>76.66666666666666</ele><time>2026-04-04T13:18:44Z</time></trkpt><trkpt lat="43.7426375650959" lon="11.21851505823517"><ele>76.0</ele><time>2026-04-04T13:18:45Z</time></trkpt><trkpt lat="43.74261798668267" lon="11.218762152755744"><ele>76.0</ele><time>2026-04-04T13:18:46Z</time></trkpt><trkpt lat="43.74259506383074" lon="11.21895741668726"><ele>76.0</ele><time>2026-04-04T13:18:47Z</time></trkpt><trkpt lat="43.74256622098416" lon="11.219092987815616"><ele>76.0</ele><time>2026-04-04T13:18:48Z</time></trkpt><trkpt lat="43.7425176193972" lon="11.219202110578408"><ele>76.0</ele><time>2026-04-04T13:18:50Z</time></trkpt><trkpt lat="43.74245842204803" lon="11.21932085750636"><ele>76.0</ele><time>2026-04-04T13:18:52Z</time></trkpt><trkpt lat="43.74242010912295" lon="11.21943861000668"><ele>75.5</ele><time>2026-04-04T13:18:53Z</time></trkpt><trkpt lat="43.74243513857527" lon="11.21956569132206"><ele>75.0</ele><time>2026-04-04T13:18:54Z</time></trkpt><trkpt lat="43.74247317287024" lon="11.219654682719868"><ele>74.5</ele><time>2026-04-04T13:18:55Z</time></trkpt><trkpt lat="43.74253984838936" lon="11.219731787857643"><ele>74.0</ele><time>2026-04-04T13:18:56Z</time></trkpt><trkpt lat="43.742624698525894" lon="11.219759868224859"><ele>73.5</ele><time>2026-04-04T13:18:57Z</time></trkpt><trkpt lat="43.742715996060596" lon="11.219735296872043"><ele>73.0</ele><time>2026-04-04T13:18:58Z</time></trkpt><trkpt lat="43.74280113319347" lon="11.219665440990479"><ele>72.0</ele><time>2026-04-04T13:18:59Z</time></trkpt><trkpt lat="43.74287618660177" lon="11.21955275228737"><ele>71.0</ele><time>2026-04-04T13:19:00Z</time></trkpt><trkpt lat="43.74291975926434" lon="11.219403933467115"><ele>70.0</ele><time>2026-04-04T13:19:01Z</time></trkpt><trkpt lat="43.742991883910555" lon="11.219260974126119"><ele>69.0</ele><time>2026-04-04T13:19:02Z</time></trkpt><trkpt lat="43.7430648696229" lon="11.219111071773595"><ele>69.0</ele><time>2026-04-04T13:19:03Z</time></trkpt><trkpt lat="43.74311998549609" lon="11.218999422470494"><ele>69.0</ele><time>2026-04-04T13:19:04Z</time></trkpt><trkpt lat="43.74313151719893" lon="11.218870990825588"><ele>69.0</ele><time>2026-04-04T13:19:05Z</time></trkpt><trkpt lat="43.74312640187002" lon="11.218740758331286"><ele>69.0</ele><time>2026-04-04T13:19:06Z</time></trkpt><trkpt lat="43.7431228162498" lon="11.21863649802893"><ele>69.0</ele><time>2026-04-04T13:19:07Z</time></trkpt><trkpt lat="43.74312707257968" lon="11.218530251575917"><ele>69.0</ele><time>2026-04-04T13:19:08Z</time></trkpt><trkpt lat="43.74312327990597" lon="11.21840900632086"><ele>69.4</ele><time>2026-04-04T13:19:09Z</time></trkpt><trkpt lat="43.74311007159031" lon="11.218291449302367"><ele>69.80000000000001</ele><time>2026-04-04T13:19:10Z</time></trkpt><trkpt lat="43.743095109967456" lon="11.218179540907638"><ele>70.19999999999999</ele><time>2026-04-04T13:19:11Z</time></trkpt><trkpt lat="43.74308386062543" lon="11.218026668318396"><ele>70.6</ele><time>2026-04-04T13:19:12Z</time></trkpt><trkpt lat="43.74307547466439" lon="11.217887656815131"><ele>71.0</ele><time>2026-04-04T13:19:13Z</time></trkpt><trkpt lat="43.74306585109263" lon="11.217754921753489"><ele>71.39999999999999</ele><time>2026-04-04T13:19:14Z</time></trkpt><trkpt lat="43.74306213895744" lon="11.217625158164822"><ele>71.8</ele><time>2026-04-04T13:19:14.999Z</time></trkpt><trkpt lat="43.74305191249564" lon="11.21748945076893"><ele>72.19999999999999</ele><time>2026-04-04T13:19:15.999Z</time></trkpt><trkpt lat="43.743047770194735" lon="11.217333263592923"><ele>72.6</ele><time>2026-04-04T13:19:16.999Z</time></trkpt><trkpt lat="43.74305993545335" lon="11.217176912635875"><ele>73.0</ele><time>2026-04-04T13:19:17.999Z</time></trkpt><trkpt lat="43.743082107058875" lon="11.217021984995293"><ele>73.0</ele><time>2026-04-04T13:19:18.999Z</time></trkpt><trkpt lat="43.74309888689776" lon="11.216872428636114"><ele>73.0</ele><time>2026-04-04T13:19:19.999Z</time></trkpt><trkpt lat="43.743116113891496" lon="11.21672360172489"><ele>73.0</ele><time>2026-04-04T13:19:20.999Z</time></trkpt><trkpt lat="43.74313288681671" lon="11.216582650067107"><ele>73.0</ele><time>2026-04-04T13:19:21.999Z</time></trkpt><trkpt lat="43.743149426877864" lon="11.216441907882075"><ele>73.0</ele><time>2026-04-04T13:19:22.999Z</time></trkpt><trkpt lat="43.743163999809575" lon="11.216296601489052"><ele>72.0</ele><time>2026-04-04T13:19:23.999Z</time></trkpt><trkpt lat="43.743177887769434" lon="11.216155247486443"><ele>71.0</ele><time>2026-04-04T13:19:24.999Z</time></trkpt><trkpt lat="43.74318721858351" lon="11.216026248554613"><ele>70.0</ele><time>2026-04-04T13:19:25.999Z</time></trkpt><trkpt lat="43.743197083180696" lon="11.215904271806611"><ele>69.0</ele><time>2026-04-04T13:19:26.999Z</time></trkpt><trkpt lat="43.743206794721885" lon="11.215788134224628"><ele>68.0</ele><time>2026-04-04T13:19:27.999Z</time></trkpt><trkpt lat="43.74321631509955" lon="11.2156824921278"><ele>67.0</ele><time>2026-04-04T13:19:28.999Z</time></trkpt><trkpt lat="43.743223051831386" lon="11.215570616404436"><ele>65.8</ele><time>2026-04-04T13:19:29.999Z</time></trkpt><trkpt lat="43.74322275716385" lon="11.21545141952117"><ele>64.6</ele><time>2026-04-04T13:19:30.999Z</time></trkpt><trkpt lat="43.74321366416764" lon="11.215316155593985"><ele>63.39999999999999</ele><time>2026-04-04T13:19:31.999Z</time></trkpt><trkpt lat="43.74318528451872" lon="11.215184853374305"><ele>62.199999999999996</ele><time>2026-04-04T13:19:32.999Z</time></trkpt><trkpt lat="43.74315330590612" lon="11.215049117003026"><ele>61.0</ele><time>2026-04-04T13:19:33.999Z</time></trkpt><trkpt lat="43.743125318005845" lon="11.214926489030805"><ele>60.49999999999999</ele><time>2026-04-04T13:19:34.999Z</time></trkpt><trkpt lat="43.74309794971913" lon="11.214818422098485"><ele>60.0</ele><time>2026-04-04T13:19:35.999Z</time></trkpt><trkpt lat="43.743075767482054" lon="11.214704291997519"><ele>59.5</ele><time>2026-04-04T13:19:36.999Z</time></trkpt><trkpt lat="43.74304993113013" lon="11.214581647376944"><ele>59.0</ele><time>2026-04-04T13:19:38Z</time></trkpt><trkpt lat="43.74302523411549" lon="11.21447578978674"><ele>58.49999999999999</ele><time>2026-04-04T13:19:39Z</time></trkpt><trkpt lat="43.7430266576997" lon="11.214367590032118"><ele>58.0</ele><time>2026-04-04T13:19:40Z</time></trkpt><trkpt lat="43.74305695472601" lon="11.214250818282455"><ele>58.0</ele><time>2026-04-04T13:19:41Z</time></trkpt><trkpt lat="43.74314285682002" lon="11.214176071092274"><ele>58.0</ele><time>2026-04-04T13:19:42Z</time></trkpt><trkpt lat="43.74323248954948" lon="11.21408749366681"><ele>58.0</ele><time>2026-04-04T13:19:43Z</time></trkpt><trkpt lat="43.74332160921735" lon="11.213970173425169"><ele>58.0</ele><time>2026-04-04T13:19:44Z</time></trkpt><trkpt lat="43.74342127605205" lon="11.213852603071599"><ele>57.25</ele><time>2026-04-04T13:19:45Z</time></trkpt><trkpt lat="43.74349617130955" lon="11.21371919238016"><ele>56.5</ele><time>2026-04-04T13:19:46Z</time></trkpt><trkpt lat="43.7435718071425" lon="11.213601259332602"><ele>55.75</ele><time>2026-04-04T13:19:47Z</time></trkpt><trkpt lat="43.74364545030727" lon="11.213478738664694"><ele>55.0</ele><time>2026-04-04T13:19:48Z</time></trkpt><trkpt lat="43.74371202044891" lon="11.213345524021621"><ele>57.0</ele><time>2026-04-04T13:19:49Z</time></trkpt><trkpt lat="43.743775970615424" lon="11.21322360054976"><ele>59.0</ele><time>2026-04-04T13:19:50Z</time></trkpt><trkpt lat="43.74385091706179" lon="11.213084471568358"><ele>61.0</ele><time>2026-04-04T13:19:51Z</time></trkpt><trkpt lat="43.74392663183983" lon="11.212939312436932"><ele>63.0</ele><time>2026-04-04T13:19:52Z</time></trkpt><trkpt lat="43.74398915994876" lon="11.2128016276649"><ele>63.0</ele><time>2026-04-04T13:19:53Z</time></trkpt><trkpt lat="43.7440402832367" lon="11.212667730406228"><ele>63.0</ele><time>2026-04-04T13:19:54Z</time></trkpt><trkpt lat="43.74408857898049" lon="11.212534337898848"><ele>63.0</ele><time>2026-04-04T13:19:55Z</time></trkpt><trkpt lat="43.74413400836515" lon="11.212392513133468"><ele>63.0</ele><time>2026-04-04T13:19:56Z</time></trkpt><trkpt lat="43.74419101768517" lon="11.212225739497564"><ele>62.75</ele><time>2026-04-04T13:19:57Z</time></trkpt><trkpt lat="43.744245659620006" lon="11.212066803954404"><ele>62.5</ele><time>2026-04-04T13:19:58Z</time></trkpt><trkpt lat="43.74429819555911" lon="11.211910603416651"><ele>62.25</ele><time>2026-04-04T13:19:59Z</time></trkpt><trkpt lat="43.74434731930274" lon="11.211763902818625"><ele>62.0</ele><time>2026-04-04T13:20:00Z</time></trkpt><trkpt lat="43.74439655275493" lon="11.211617295549479"><ele>60.25</ele><time>2026-04-04T13:20:01Z</time></trkpt><trkpt lat="43.74444792856739" lon="11.211467724979034"><ele>58.5</ele><time>2026-04-04T13:20:02Z</time></trkpt><trkpt lat="43.744510206625684" lon="11.211306535752914"><ele>56.75</ele><time>2026-04-04T13:20:03Z</time></trkpt><trkpt lat="43.74457708030436" lon="11.211135784105759"><ele>55.0</ele><time>2026-04-04T13:20:04Z</time></trkpt><trkpt lat="43.74464941291252" lon="11.210949892035357"><ele>55.0</ele><time>2026-04-04T13:20:05Z</time></trkpt><trkpt lat="43.74472005551652" lon="11.210761528545811"><ele>55.0</ele><time>2026-04-04T13:20:06Z</time></trkpt><trkpt lat="43.74479703429347" lon="11.21057100389263"><ele>55.0</ele><time>2026-04-04T13:20:07Z</time></trkpt><trkpt lat="43.74487165983823" lon="11.210381344958575"><ele>54.25</ele><time>2026-04-04T13:20:08Z</time></trkpt><trkpt lat="43.744946707057764" lon="11.21019289193156"><ele>53.5</ele><time>2026-04-04T13:20:09Z</time></trkpt><trkpt lat="43.74501423336441" lon="11.21001386686109"><ele>52.75</ele><time>2026-04-04T13:20:10Z</time></trkpt><trkpt lat="43.74508056802339" lon="11.209838529449664"><ele>52.0</ele><time>2026-04-04T13:20:11Z</time></trkpt><trkpt lat="43.745144860506045" lon="11.209666010324487"><ele>51.75</ele><time>2026-04-04T13:20:12Z</time></trkpt><trkpt lat="43.74522459930585" lon="11.209485523418442"><ele>51.5</ele><time>2026-04-04T13:20:13Z</time></trkpt><trkpt lat="43.74531108604977" lon="11.209324150656393"><ele>51.25</ele><time>2026-04-04T13:20:14Z</time></trkpt><trkpt lat="43.74541750484825" lon="11.209182401843721"><ele>51.0</ele><time>2026-04-04T13:20:15Z</time></trkpt><trkpt lat="43.74554282823313" lon="11.209066766321165"><ele>51.33333333333333</ele><time>2026-04-04T13:20:16Z</time></trkpt><trkpt lat="43.74568272241781" lon="11.20896195197687"><ele>51.666666666666664</ele><time>2026-04-04T13:20:17Z</time></trkpt><trkpt lat="43.74582608819634" lon="11.20887652049531"><ele>52.0</ele><time>2026-04-04T13:20:18Z</time></trkpt><trkpt lat="43.745970330041814" lon="11.208797681933618"><ele>51.33333333333333</ele><time>2026-04-04T13:20:19Z</time></trkpt><trkpt lat="43.746116760879346" lon="11.208716078534858"><ele>50.66666666666667</ele><time>2026-04-04T13:20:20Z</time></trkpt><trkpt lat="43.746257301955396" lon="11.208646814442975"><ele>50.0</ele><time>2026-04-04T13:20:21Z</time></trkpt><trkpt lat="43.7464075834481" lon="11.208584376884577"><ele>50.0</ele><time>2026-04-04T13:20:22Z</time></trkpt><trkpt lat="43.74656589340001" lon="11.208549988286236"><ele>50.0</ele><time>2026-04-04T13:20:23Z</time></trkpt><trkpt lat="43.7467252727641" lon="11.208521145703195"><ele>50.0</ele><time>2026-04-04T13:20:24Z</time></trkpt><trkpt lat="43.74687197478818" lon="11.208493334476458"><ele>50.75</ele><time>2026-04-04T13:20:25Z</time></trkpt><trkpt lat="43.74700603495546" lon="11.208460502738617"><ele>51.5</ele><time>2026-04-04T13:20:26Z</time></trkpt><trkpt lat="43.74713726545502" lon="11.20842570807267"><ele>52.25</ele><time>2026-04-04T13:20:27Z</time></trkpt><trkpt lat="43.74726500642237" lon="11.208392700434166"><ele>53.0</ele><time>2026-04-04T13:20:28Z</time></trkpt><trkpt lat="43.7473896550392" lon="11.208356756746603"><ele>53.0</ele><time>2026-04-04T13:20:29Z</time></trkpt><trkpt lat="43.747529558739025" lon="11.208309930443564"><ele>53.0</ele><time>2026-04-04T13:20:30Z</time></trkpt><trkpt lat="43.747668334026656" lon="11.208271028258473"><ele>53.0</ele><time>2026-04-04T13:20:31Z</time></trkpt><trkpt lat="43.747806215934624" lon="11.20823471818291"><ele>53.0</ele><time>2026-04-04T13:20:32Z</time></trkpt><trkpt lat="43.7479396907408" lon="11.208201689087662"><ele>52.25</ele><time>2026-04-04T13:20:33Z</time></trkpt><trkpt lat="43.74807299626417" lon="11.208165776437722"><ele>51.5</ele><time>2026-04-04T13:20:34Z</time></trkpt><trkpt lat="43.74821189587061" lon="11.20812809129147"><ele>50.75</ele><time>2026-04-04T13:20:35Z</time></trkpt><trkpt lat="43.74834151877977" lon="11.208098120000773"><ele>50.0</ele><time>2026-04-04T13:20:36Z</time></trkpt><trkpt lat="43.748458524363194" lon="11.208071667952076"><ele>50.0</ele><time>2026-04-04T13:20:37Z</time></trkpt><trkpt lat="43.74856925756973" lon="11.208049701370163"><ele>50.0</ele><time>2026-04-04T13:20:38Z</time></trkpt><trkpt lat="43.74868573908547" lon="11.20802790752489"><ele>50.0</ele><time>2026-04-04T13:20:39Z</time></trkpt><trkpt lat="43.74880619219311" lon="11.20799117393146"><ele>50.0</ele><time>2026-04-04T13:20:40Z</time></trkpt><trkpt lat="43.74893948195884" lon="11.207958436423823"><ele>50.0</ele><time>2026-04-04T13:20:41Z</time></trkpt><trkpt lat="43.74906571776956" lon="11.207928278232298"><ele>50.0</ele><time>2026-04-04T13:20:42Z</time></trkpt><trkpt lat="43.749198800062345" lon="11.207882425768435"><ele>50.0</ele><time>2026-04-04T13:20:43Z</time></trkpt><trkpt lat="43.749334708205474" lon="11.207787133794334"><ele>50.0</ele><time>2026-04-04T13:20:44Z</time></trkpt><trkpt lat="43.74947526289519" lon="11.2076773096085"><ele>49.66666666666667</ele><time>2026-04-04T13:20:45Z</time></trkpt><trkpt lat="43.74963711563501" lon="11.207564960016061"><ele>49.33333333333333</ele><time>2026-04-04T13:20:46Z</time></trkpt><trkpt lat="43.749805759274444" lon="11.207443169148073"><ele>49.0</ele><time>2026-04-04T13:20:47Z</time></trkpt><trkpt lat="43.749986051051316" lon="11.207308485432252"><ele>49.0</ele><time>2026-04-04T13:20:48Z</time></trkpt><trkpt lat="43.75015491369738" lon="11.207180768167154"><ele>49.0</ele><time>2026-04-04T13:20:49Z</time></trkpt><trkpt lat="43.75031482948791" lon="11.207079827115248"><ele>49.0</ele><time>2026-04-04T13:20:50Z</time></trkpt><trkpt lat="43.75046886401373" lon="11.206970194956343"><ele>50.666666666666664</ele><time>2026-04-04T13:20:51Z</time></trkpt><trkpt lat="43.75062572528103" lon="11.206850937598654"><ele>52.33333333333333</ele><time>2026-04-04T13:20:52Z</time></trkpt><trkpt lat="43.75077774376633" lon="11.206757658662793"><ele>54.0</ele><time>2026-04-04T13:20:53Z</time></trkpt><trkpt lat="43.750924026579455" lon="11.206675391672846"><ele>55.66666666666667</ele><time>2026-04-04T13:20:54Z</time></trkpt><trkpt lat="43.75105754330964" lon="11.206568928427268"><ele>57.333333333333336</ele><time>2026-04-04T13:20:55Z</time></trkpt><trkpt lat="43.751173593073474" lon="11.206413395975412"><ele>59.0</ele><time>2026-04-04T13:20:56Z</time></trkpt><trkpt lat="43.75127770494903" lon="11.206215433902752"><ele>59.0</ele><time>2026-04-04T13:20:57Z</time></trkpt><trkpt lat="43.75137034949112" lon="11.206013027788323"><ele>59.0</ele><time>2026-04-04T13:20:58Z</time></trkpt><trkpt lat="43.75145622899492" lon="11.205831641382623"><ele>59.0</ele><time>2026-04-04T13:20:59Z</time></trkpt><trkpt lat="43.75153993157233" lon="11.205656539395504"><ele>57.5</ele><time>2026-04-04T13:21:00Z</time></trkpt><trkpt lat="43.75162419979669" lon="11.205476754431306"><ele>56.0</ele><time>2026-04-04T13:21:01Z</time></trkpt><trkpt lat="43.75170407070639" lon="11.205303404439945"><ele>54.5</ele><time>2026-04-04T13:21:02Z</time></trkpt><trkpt lat="43.75178163401319" lon="11.205135364797064"><ele>53.0</ele><time>2026-04-04T13:21:03Z</time></trkpt><trkpt lat="43.75185290087383" lon="11.204957006707806"><ele>55.0</ele><time>2026-04-04T13:21:04Z</time></trkpt><trkpt lat="43.751908750382945" lon="11.20476843465659"><ele>57.0</ele><time>2026-04-04T13:21:05Z</time></trkpt><trkpt lat="43.751952610533685" lon="11.204572622153497"><ele>59.0</ele><time>2026-04-04T13:21:06Z</time></trkpt><trkpt lat="43.75198270463332" lon="11.204375616048642"><ele>61.0</ele><time>2026-04-04T13:21:07Z</time></trkpt><trkpt lat="43.75200162239743" lon="11.204172723078548"><ele>59.25</ele><time>2026-04-04T13:21:08Z</time></trkpt><trkpt lat="43.75202211941615" lon="11.203975995464752"><ele>57.5</ele><time>2026-04-04T13:21:09Z</time></trkpt><trkpt lat="43.752056654182596" lon="11.20377963031556"><ele>55.75</ele><time>2026-04-04T13:21:10Z</time></trkpt><trkpt lat="43.75211425172735" lon="11.203590412075696"><ele>54.0</ele><time>2026-04-04T13:21:11Z</time></trkpt><trkpt lat="43.75217082805942" lon="11.203404736633841"><ele>54.0</ele><time>2026-04-04T13:21:12Z</time></trkpt><trkpt lat="43.7522278547329" lon="11.203232566325443"><ele>54.0</ele><time>2026-04-04T13:21:13Z</time></trkpt><trkpt lat="43.752293524391014" lon="11.203086516444845"><ele>54.0</ele><time>2026-04-04T13:21:14Z</time></trkpt><trkpt lat="43.75237616550612" lon="11.202974959003253"><ele>54.0</ele><time>2026-04-04T13:21:15Z</time></trkpt><trkpt lat="43.75247988850345" lon="11.202895518986603"><ele>54.25</ele><time>2026-04-04T13:21:16Z</time></trkpt><trkpt lat="43.752606637074436" lon="11.202821984306459"><ele>54.5</ele><time>2026-04-04T13:21:17Z</time></trkpt><trkpt lat="43.75272838049196" lon="11.202746088440916"><ele>54.75</ele><time>2026-04-04T13:21:18Z</time></trkpt><trkpt lat="43.75282929870977" lon="11.20265482708679"><ele>55.0</ele><time>2026-04-04T13:21:19Z</time></trkpt><trkpt lat="43.75290609255135" lon="11.202517269497953"><ele>55.0</ele><time>2026-04-04T13:21:20Z</time></trkpt><trkpt lat="43.752962985254705" lon="11.202324335240057"><ele>55.0</ele><time>2026-04-04T13:21:21Z</time></trkpt><trkpt lat="43.75301247941902" lon="11.202099665959844"><ele>55.0</ele><time>2026-04-04T13:21:22Z</time></trkpt><trkpt lat="43.75306013858978" lon="11.201882824405006"><ele>55.0</ele><time>2026-04-04T13:21:23Z</time></trkpt><trkpt lat="43.75310437392715" lon="11.20169317225572"><ele>55.0</ele><time>2026-04-04T13:21:24Z</time></trkpt><trkpt lat="43.75314933921439" lon="11.201524942185694"><ele>55.0</ele><time>2026-04-04T13:21:25Z</time></trkpt><trkpt lat="43.753188465444225" lon="11.201386472540957"><ele>55.0</ele><time>2026-04-04T13:21:26Z</time></trkpt><trkpt lat="43.75323572320603" lon="11.201264302630678"><ele>54.75</ele><time>2026-04-04T13:21:27Z</time></trkpt><trkpt lat="43.75330330710278" lon="11.201160314840886"><ele>54.5</ele><time>2026-04-04T13:21:28Z</time></trkpt><trkpt lat="43.75339563159113" lon="11.201053495807209"><ele>54.25</ele><time>2026-04-04T13:21:29Z</time></trkpt><trkpt lat="43.753514766170284" lon="11.20094858471977"><ele>54.0</ele><time>2026-04-04T13:21:30Z</time></trkpt><trkpt lat="43.75365120309393" lon="11.20085125926564"><ele>54.0</ele><time>2026-04-04T13:21:31Z</time></trkpt><trkpt lat="43.753790899607985" lon="11.200779554997004"><ele>54.0</ele><time>2026-04-04T13:21:32Z</time></trkpt><trkpt lat="43.753924451608675" lon="11.20073710020545"><ele>54.0</ele><time>2026-04-04T13:21:33Z</time></trkpt><trkpt lat="43.75405908936883" lon="11.200734317508926"><ele>54.0</ele><time>2026-04-04T13:21:34Z</time></trkpt><trkpt lat="43.7541975686793" lon="11.200749454866571"><ele>54.0</ele><time>2026-04-04T13:21:35Z</time></trkpt><trkpt lat="43.7543434588809" lon="11.200754671103741"><ele>54.0</ele><time>2026-04-04T13:21:36Z</time></trkpt><trkpt lat="43.75448907745916" lon="11.200742648359446"><ele>54.0</ele><time>2026-04-04T13:21:37Z</time></trkpt><trkpt lat="43.75462131528098" lon="11.200704610099663"><ele>54.0</ele><time>2026-04-04T13:21:38Z</time></trkpt><trkpt lat="43.75474578005432" lon="11.200631686148872"><ele>52.5</ele><time>2026-04-04T13:21:39Z</time></trkpt><trkpt lat="43.75485449344917" lon="11.200551685331083"><ele>51.0</ele><time>2026-04-04T13:21:40Z</time></trkpt><trkpt lat="43.7549565503724" lon="11.200473098299973"><ele>49.5</ele><time>2026-04-04T13:21:41Z</time></trkpt><trkpt lat="43.75506516352349" lon="11.200410626471275"><ele>48.0</ele><time>2026-04-04T13:21:42Z</time></trkpt><trkpt lat="43.755175640777445" lon="11.200353323549038"><ele>47.599999999999994</ele><time>2026-04-04T13:21:43Z</time></trkpt><trkpt lat="43.755279792203794" lon="11.200304890900533"><ele>47.199999999999996</ele><time>2026-04-04T13:21:44Z</time></trkpt><trkpt lat="43.75537682554267" lon="11.20025983745458"><ele>46.8</ele><time>2026-04-04T13:21:45Z</time></trkpt><trkpt lat="43.755478984904975" lon="11.20023545286857"><ele>46.4</ele><time>2026-04-04T13:21:46Z</time></trkpt><trkpt lat="43.7555593945631" lon="11.200181540608328"><ele>46.0</ele><time>2026-04-04T13:21:47Z</time></trkpt><trkpt lat="43.7556469590377" lon="11.200142218153717"><ele>46.0</ele><time>2026-04-04T13:21:48Z</time></trkpt><trkpt lat="43.75572917855238" lon="11.200098817414364"><ele>46.0</ele><time>2026-04-04T13:21:49Z</time></trkpt><trkpt lat="43.75580881709796" lon="11.20003492443891"><ele>46.0</ele><time>2026-04-04T13:21:50Z</time></trkpt><trkpt lat="43.755893693372684" lon="11.199952582252196"><ele>46.0</ele><time>2026-04-04T13:21:51Z</time></trkpt><trkpt lat="43.75597801577726" lon="11.199846694866697"><ele>46.0</ele><time>2026-04-04T13:21:52Z</time></trkpt><trkpt lat="43.75605944950112" lon="11.199729473275045"><ele>46.199999999999996</ele><time>2026-04-04T13:21:53Z</time></trkpt><trkpt lat="43.75613590075934" lon="11.199613859525975"><ele>46.4</ele><time>2026-04-04T13:21:54Z</time></trkpt><trkpt lat="43.75620165273605" lon="11.199524782569899"><ele>46.6</ele><time>2026-04-04T13:21:55Z</time></trkpt><trkpt lat="43.75627282444871" lon="11.199445386681797"><ele>46.8</ele><time>2026-04-04T13:21:56Z</time></trkpt><trkpt lat="43.75633062548706" lon="11.199362544705457"><ele>47.0</ele><time>2026-04-04T13:21:57Z</time></trkpt><trkpt lat="43.75639179960655" lon="11.199277153675865"><ele>47.0</ele><time>2026-04-04T13:21:58Z</time></trkpt><trkpt lat="43.75646534828658" lon="11.199177316197554"><ele>47.0</ele><time>2026-04-04T13:21:59Z</time></trkpt><trkpt lat="43.756577930471785" lon="11.199057361050793"><ele>47.0</ele><time>2026-04-04T13:22:00Z</time></trkpt><trkpt lat="43.756700748885045" lon="11.198922651433742"><ele>47.0</ele><time>2026-04-04T13:22:01Z</time></trkpt><trkpt lat="43.75681095859574" lon="11.198805232103552"><ele>47.25</ele><time>2026-04-04T13:22:02Z</time></trkpt><trkpt lat="43.75690347322773" lon="11.198692190624705"><ele>47.5</ele><time>2026-04-04T13:22:03Z</time></trkpt><trkpt lat="43.756992328113974" lon="11.198570363999606"><ele>47.75</ele><time>2026-04-04T13:22:04Z</time></trkpt><trkpt lat="43.7570835665665" lon="11.198436156862558"><ele>48.0</ele><time>2026-04-04T13:22:05Z</time></trkpt><trkpt lat="43.75718578341097" lon="11.198288480697103"><ele>47.25</ele><time>2026-04-04T13:22:06Z</time></trkpt><trkpt lat="43.75730880435733" lon="11.198149881018612"><ele>46.5</ele><time>2026-04-04T13:22:07Z</time></trkpt><trkpt lat="43.75743700147309" lon="11.198057135130405"><ele>45.75</ele><time>2026-04-04T13:22:08Z</time></trkpt><trkpt lat="43.757549153041836" lon="11.197964743472255"><ele>45.0</ele><time>2026-04-04T13:22:09Z</time></trkpt><trkpt lat="43.757664810891065" lon="11.197854762472918"><ele>45.6</ele><time>2026-04-04T13:22:10Z</time></trkpt><trkpt lat="43.7577599730271" lon="11.197746216362956"><ele>46.2</ele><time>2026-04-04T13:22:11Z</time></trkpt><trkpt lat="43.757834533746696" lon="11.197643435355566"><ele>46.8</ele><time>2026-04-04T13:22:12Z</time></trkpt><trkpt lat="43.757911131254474" lon="11.19754548697931"><ele>47.4</ele><time>2026-04-04T13:22:13Z</time></trkpt><trkpt lat="43.75799164213924" lon="11.19745983174458"><ele>48.0</ele><time>2026-04-04T13:22:14Z</time></trkpt><trkpt lat="43.75807861000372" lon="11.197350667048866"><ele>47.599999999999994</ele><time>2026-04-04T13:22:15Z</time></trkpt><trkpt lat="43.7581780469614" lon="11.197231874684954"><ele>47.199999999999996</ele><time>2026-04-04T13:22:16Z</time></trkpt><trkpt lat="43.75825660287574" lon="11.19712316697952"><ele>46.8</ele><time>2026-04-04T13:22:17Z</time></trkpt><trkpt lat="43.758317724062586" lon="11.1970295761392"><ele>46.4</ele><time>2026-04-04T13:22:18Z</time></trkpt><trkpt lat="43.75837998350899" lon="11.196921981645588"><ele>46.0</ele><time>2026-04-04T13:22:19Z</time></trkpt><trkpt lat="43.758457517449855" lon="11.196785910680198"><ele>46.0</ele><time>2026-04-04T13:22:20Z</time></trkpt><trkpt lat="43.75853199348966" lon="11.196646321576706"><ele>46.0</ele><time>2026-04-04T13:22:21Z</time></trkpt><trkpt lat="43.75858867785882" lon="11.196528814457663"><ele>46.0</ele><time>2026-04-04T13:22:22Z</time></trkpt><trkpt lat="43.75862858128965" lon="11.19644626511723"><ele>46.0</ele><time>2026-04-04T13:22:23Z</time></trkpt><trkpt lat="43.7586743812429" lon="11.196384738116347"><ele>46.0</ele><time>2026-04-04T13:22:24Z</time></trkpt><trkpt lat="43.75875593096132" lon="11.196349613766268"><ele>46.0</ele><time>2026-04-04T13:22:26Z</time></trkpt><trkpt lat="43.75882567465951" lon="11.196468715282927"><ele>46.0</ele><time>2026-04-04T13:22:27Z</time></trkpt><trkpt lat="43.75890354244883" lon="11.19652425375844"><ele>46.0</ele><time>2026-04-04T13:22:28Z</time></trkpt><trkpt lat="43.75899620740911" lon="11.196554931526304"><ele>46.0</ele><time>2026-04-04T13:22:29Z</time></trkpt><trkpt lat="43.75905454609101" lon="11.196614521808446"><ele>46.0</ele><time>2026-04-04T13:22:30Z</time></trkpt><trkpt lat="43.759210169251226" lon="11.196536113574155"><ele>46.0</ele><time>2026-04-04T13:22:32Z</time></trkpt><trkpt lat="43.759309024940926" lon="11.19650726236988"><ele>45.4</ele><time>2026-04-04T13:22:34Z</time></trkpt><trkpt lat="43.75937869789634" lon="11.19646659464116"><ele>44.8</ele><time>2026-04-04T13:22:37Z</time></trkpt><trkpt lat="43.75946998508565" lon="11.19639337430696"><ele>44.199999999999996</ele><time>2026-04-04T13:23:12Z</time></trkpt><trkpt lat="43.759551540520064" lon="11.196343236417558"><ele>43.599999999999994</ele><time>2026-04-04T13:23:13Z</time></trkpt><trkpt lat="43.759647186783184" lon="11.196283872925308"><ele>43.0</ele><time>2026-04-04T13:23:14Z</time></trkpt><trkpt lat="43.759759842094425" lon="11.196222374751093"><ele>43.0</ele><time>2026-04-04T13:23:15Z</time></trkpt><trkpt lat="43.759874025478645" lon="11.19615761012717"><ele>43.0</ele><time>2026-04-04T13:23:16Z</time></trkpt><trkpt lat="43.76000544869161" lon="11.196087476510908"><ele>43.0</ele><time>2026-04-04T13:23:17Z</time></trkpt><trkpt lat="43.760156033395084" lon="11.196018372856386"><ele>43.0</ele><time>2026-04-04T13:23:18Z</time></trkpt><trkpt lat="43.76029401454468" lon="11.195913626216033"><ele>42.333333333333336</ele><time>2026-04-04T13:23:19Z</time></trkpt><trkpt lat="43.76044585025654" lon="11.195793573995955"><ele>41.666666666666664</ele><time>2026-04-04T13:23:20Z</time></trkpt><trkpt lat="43.76059407723244" lon="11.195685131101543"><ele>41.0</ele><time>2026-04-04T13:23:21Z</time></trkpt><trkpt lat="43.760731795221055" lon="11.195586396332192"><ele>41.0</ele><time>2026-04-04T13:23:22Z</time></trkpt><trkpt lat="43.76086229730515" lon="11.19549141168976"><ele>41.0</ele><time>2026-04-04T13:23:23Z</time></trkpt><trkpt lat="43.760992179435306" lon="11.195385639073333"><ele>41.0</ele><time>2026-04-04T13:23:24Z</time></trkpt><trkpt lat="43.761105648938695" lon="11.195258503605382"><ele>41.0</ele><time>2026-04-04T13:23:25Z</time></trkpt><trkpt lat="43.76119719812375" lon="11.195091725688293"><ele>41.0</ele><time>2026-04-04T13:23:26Z</time></trkpt><trkpt lat="43.7612678248859" lon="11.19486879253929"><ele>41.0</ele><time>2026-04-04T13:23:27Z</time></trkpt><trkpt lat="43.76133568745019" lon="11.19461285834722"><ele>41.0</ele><time>2026-04-04T13:23:28Z</time></trkpt><trkpt lat="43.76140256057147" lon="11.194365159191499"><ele>41.0</ele><time>2026-04-04T13:23:29Z</time></trkpt><trkpt lat="43.76146734451666" lon="11.194127881357982"><ele>41.0</ele><time>2026-04-04T13:23:30Z</time></trkpt><trkpt lat="43.761528785065934" lon="11.193925555688278"><ele>41.0</ele><time>2026-04-04T13:23:31Z</time></trkpt><trkpt lat="43.76158430789409" lon="11.193731253178616"><ele>40.75</ele><time>2026-04-04T13:23:32Z</time></trkpt><trkpt lat="43.76163746003754" lon="11.193568165039375"><ele>40.5</ele><time>2026-04-04T13:23:33Z</time></trkpt><trkpt lat="43.761705904472194" lon="11.19347650590697"><ele>40.25</ele><time>2026-04-04T13:23:34Z</time></trkpt><trkpt lat="43.76180135151768" lon="11.19340534746238"><ele>40.0</ele><time>2026-04-04T13:23:35Z</time></trkpt><trkpt lat="43.7619328006468" lon="11.193358263818098"><ele>41.0</ele><time>2026-04-04T13:23:36Z</time></trkpt><trkpt lat="43.762060759529184" lon="11.193316844519542"><ele>42.0</ele><time>2026-04-04T13:23:37Z</time></trkpt><trkpt lat="43.76223964429865" lon="11.193238170142338"><ele>43.0</ele><time>2026-04-04T13:23:38Z</time></trkpt><trkpt lat="43.7624330000538" lon="11.193178864261379"><ele>42.333333333333336</ele><time>2026-04-04T13:23:39Z</time></trkpt><trkpt lat="43.76263260727912" lon="11.193101485978781"><ele>41.666666666666664</ele><time>2026-04-04T13:23:40Z</time></trkpt><trkpt lat="43.76283983711203" lon="11.193010877065804"><ele>41.0</ele><time>2026-04-04T13:23:41Z</time></trkpt><trkpt lat="43.76303087468176" lon="11.19290108559959"><ele>40.666666666666664</ele><time>2026-04-04T13:23:42Z</time></trkpt><trkpt lat="43.7632059032155" lon="11.192803725769396"><ele>40.333333333333336</ele><time>2026-04-04T13:23:43Z</time></trkpt><trkpt lat="43.76337899751103" lon="11.192703599652825"><ele>40.0</ele><time>2026-04-04T13:23:44Z</time></trkpt><trkpt lat="43.76352585104711" lon="11.19261315377664"><ele>40.75</ele><time>2026-04-04T13:23:45Z</time></trkpt><trkpt lat="43.76366772273067" lon="11.192529528118165"><ele>41.5</ele><time>2026-04-04T13:23:46Z</time></trkpt><trkpt lat="43.76378082123918" lon="11.1924537162552"><ele>42.25</ele><time>2026-04-04T13:23:46.999Z</time></trkpt><trkpt lat="43.7638968310569" lon="11.192386851505404"><ele>43.0</ele><time>2026-04-04T13:23:47.999Z</time></trkpt><trkpt lat="43.76400917043189" lon="11.192394074166495"><ele>43.0</ele><time>2026-04-04T13:23:48.999Z</time></trkpt><trkpt lat="43.76411632849451" lon="11.19245013900021"><ele>43.0</ele><time>2026-04-04T13:23:50Z</time></trkpt><trkpt lat="43.76423419482576" lon="11.192530190612047"><ele>43.0</ele><time>2026-04-04T13:23:51Z</time></trkpt><trkpt lat="43.76439250429965" lon="11.192624662409004"><ele>43.0</ele><time>2026-04-04T13:23:52Z</time></trkpt><trkpt lat="43.76451725196815" lon="11.192727058534253"><ele>43.2</ele><time>2026-04-04T13:23:53Z</time></trkpt><trkpt lat="43.76463737783696" lon="11.192812744776248"><ele>43.4</ele><time>2026-04-04T13:23:54Z</time></trkpt><trkpt lat="43.76473259897973" lon="11.192884763186688"><ele>43.6</ele><time>2026-04-04T13:23:55Z</time></trkpt><trkpt lat="43.76479417558928" lon="11.192936961010746"><ele>43.800000000000004</ele><time>2026-04-04T13:23:56Z</time></trkpt><trkpt lat="43.76485708733636" lon="11.193001759373066"><ele>44.0</ele><time>2026-04-04T13:23:57Z</time></trkpt><trkpt lat="43.76493317964012" lon="11.19312086188815"><ele>44.0</ele><time>2026-04-04T13:23:59Z</time></trkpt><trkpt lat="43.7649498434571" lon="11.19295382886406"><ele>44.0</ele><time>2026-04-04T13:24:02Z</time></trkpt><trkpt lat="43.76498178065748" lon="11.192849078952076"><ele>44.0</ele><time>2026-04-04T13:24:03Z</time></trkpt><trkpt lat="43.76502232226158" lon="11.192724721268188"><ele>44.0</ele><time>2026-04-04T13:24:04Z</time></trkpt><trkpt lat="43.76508733197888" lon="11.192584432188493"><ele>44.0</ele><time>2026-04-04T13:24:05Z</time></trkpt><trkpt lat="43.76516520366744" lon="11.192453564230238"><ele>43.666666666666664</ele><time>2026-04-04T13:24:06Z</time></trkpt><trkpt lat="43.76527048171923" lon="11.192323912312348"><ele>43.333333333333336</ele><time>2026-04-04T13:24:07Z</time></trkpt><trkpt lat="43.76539259467327" lon="11.192200219924358"><ele>43.0</ele><time>2026-04-04T13:24:08Z</time></trkpt><trkpt lat="43.76551353728934" lon="11.192059549114532"><ele>43.0</ele><time>2026-04-04T13:24:09Z</time></trkpt><trkpt lat="43.765611000072184" lon="11.191933572998009"><ele>43.0</ele><time>2026-04-04T13:24:10Z</time></trkpt><trkpt lat="43.76571033978854" lon="11.191822573865135"><ele>43.0</ele><time>2026-04-04T13:24:11Z</time></trkpt><trkpt lat="43.76580550394508" lon="11.19172397488862"><ele>43.0</ele><time>2026-04-04T13:24:12Z</time></trkpt><trkpt lat="43.76590714795281" lon="11.191655911528027"><ele>43.0</ele><time>2026-04-04T13:24:13Z</time></trkpt><trkpt lat="43.76600377161107" lon="11.191601471869523"><ele>43.0</ele><time>2026-04-04T13:24:14Z</time></trkpt><trkpt lat="43.7660860234405" lon="11.191552830645833"><ele>43.0</ele><time>2026-04-04T13:24:15Z</time></trkpt><trkpt lat="43.766168511263814" lon="11.191511236643423"><ele>43.0</ele><time>2026-04-04T13:24:16Z</time></trkpt><trkpt lat="43.7662527810479" lon="11.19149562118916"><ele>43.0</ele><time>2026-04-04T13:24:17Z</time></trkpt><trkpt lat="43.76635355427981" lon="11.19152875672533"><ele>42.8</ele><time>2026-04-04T13:24:18Z</time></trkpt><trkpt lat="43.7664686498962" lon="11.191553062241974"><ele>42.599999999999994</ele><time>2026-04-04T13:24:19Z</time></trkpt><trkpt lat="43.766556788028254" lon="11.19160983333668"><ele>42.400000000000006</ele><time>2026-04-04T13:24:20Z</time></trkpt><trkpt lat="43.766635069528775" lon="11.191658159362346"><ele>42.2</ele><time>2026-04-04T13:24:21Z</time></trkpt><trkpt lat="43.766709243143396" lon="11.191664379612037"><ele>42.0</ele><time>2026-04-04T13:24:22Z</time></trkpt><trkpt lat="43.766732997620444" lon="11.191518029745522"><ele>42.0</ele><time>2026-04-04T13:24:23Z</time></trkpt><trkpt lat="43.76677678031199" lon="11.191448754980835"><ele>42.0</ele><time>2026-04-04T13:24:24Z</time></trkpt><trkpt lat="43.76688847234861" lon="11.191256343026803"><ele>42.0</ele><time>2026-04-04T13:24:25Z</time></trkpt><trkpt lat="43.7669841028481" lon="11.19103748832132"><ele>42.0</ele><time>2026-04-04T13:24:26Z</time></trkpt><trkpt lat="43.76707951629177" lon="11.190883422489266"><ele>42.0</ele><time>2026-04-04T13:24:27Z</time></trkpt><trkpt lat="43.767164986583886" lon="11.19073685612829"><ele>42.0</ele><time>2026-04-04T13:24:28Z</time></trkpt><trkpt lat="43.767242754266434" lon="11.190607348737414"><ele>42.0</ele><time>2026-04-04T13:24:29Z</time></trkpt><trkpt lat="43.767317567923754" lon="11.190482362479083"><ele>42.0</ele><time>2026-04-04T13:24:30Z</time></trkpt><trkpt lat="43.76735966378013" lon="11.190409411292737"><ele>42.0</ele><time>2026-04-04T13:24:31Z</time></trkpt><trkpt lat="43.76741474446268" lon="11.190319298676675"><ele>42.0</ele><time>2026-04-04T13:24:32Z</time></trkpt><trkpt lat="43.767481964155984" lon="11.19022552537276"><ele>42.0</ele><time>2026-04-04T13:24:34Z</time></trkpt><trkpt lat="43.76753308816954" lon="11.190289797216218"><ele>42.0</ele><time>2026-04-04T13:24:36Z</time></trkpt><trkpt lat="43.76761556460581" lon="11.190444815744995"><ele>42.0</ele><time>2026-04-04T13:24:38Z</time></trkpt><trkpt lat="43.76768528908975" lon="11.19058766826464"><ele>42.0</ele><time>2026-04-04T13:24:39Z</time></trkpt><trkpt lat="43.76775638110338" lon="11.190724751650182"><ele>42.0</ele><time>2026-04-04T13:24:40Z</time></trkpt><trkpt lat="43.76781486163215" lon="11.190854815718486"><ele>42.0</ele><time>2026-04-04T13:24:41Z</time></trkpt><trkpt lat="43.767868643295586" lon="11.190964418868921"><ele>42.0</ele><time>2026-04-04T13:24:42Z</time></trkpt><trkpt lat="43.7679091585347" lon="11.1910402787466"><ele>42.0</ele><time>2026-04-04T13:24:43Z</time></trkpt><trkpt lat="43.76797852026334" lon="11.191166628245213"><ele>42.0</ele><time>2026-04-04T13:24:45Z</time></trkpt><trkpt lat="43.76803052627667" lon="11.191275505982349"><ele>42.0</ele><time>2026-04-04T13:24:48Z</time></trkpt><trkpt lat="43.76809030565896" lon="11.19138292675984"><ele>42.0</ele><time>2026-04-04T13:24:50Z</time></trkpt><trkpt lat="43.76812847321453" lon="11.191458765162745"><ele>42.0</ele><time>2026-04-04T13:24:52Z</time></trkpt><trkpt lat="43.76818730541433" lon="11.191554081506974"><ele>42.0</ele><time>2026-04-04T13:24:55Z</time></trkpt><trkpt lat="43.76824288626969" lon="11.191653452009225"><ele>42.0</ele><time>2026-04-04T13:24:57Z</time></trkpt><trkpt lat="43.76831001200299" lon="11.191761062097932"><ele>42.0</ele><time>2026-04-04T13:24:59Z</time></trkpt><trkpt lat="43.76837760443925" lon="11.1918741533365"><ele>42.0</ele><time>2026-04-04T13:25:01Z</time></trkpt><trkpt lat="43.76843806180105" lon="11.19196661744645"><ele>42.0</ele><time>2026-04-04T13:25:03Z</time></trkpt><trkpt lat="43.76849360651814" lon="11.192048241707663"><ele>42.0</ele><time>2026-04-04T13:25:05Z</time></trkpt><trkpt lat="43.768544711878675" lon="11.192134472621488"><ele>42.0</ele><time>2026-04-04T13:25:07Z</time></trkpt><trkpt lat="43.76860240871194" lon="11.192241708805764"><ele>42.0</ele><time>2026-04-04T13:25:09Z</time></trkpt><trkpt lat="43.76863801881761" lon="11.192342262476236"><ele>42.0</ele><time>2026-04-04T13:25:11Z</time></trkpt><trkpt lat="43.76873648903356" lon="11.19223665177982"><ele>42.0</ele><time>2026-04-04T13:25:13Z</time></trkpt><trkpt lat="43.76881951351121" lon="11.192166991818194"><ele>42.0</ele><time>2026-04-04T13:25:15Z</time></trkpt><trkpt lat="43.76888613785714" lon="11.192115105574754"><ele>42.0</ele><time>2026-04-04T13:25:17Z</time></trkpt><trkpt lat="43.76895528961202" lon="11.192066953928263"><ele>42.0</ele><time>2026-04-04T13:25:20Z</time></trkpt><trkpt lat="43.76906382957998" lon="11.191989975366532"><ele>42.0</ele><time>2026-04-04T13:26:12Z</time></trkpt><trkpt lat="43.76912171747755" lon="11.19171855265695"><ele>42.0</ele><time>2026-04-04T13:26:14Z</time></trkpt><trkpt lat="43.7691188976703" lon="11.19154551020023"><ele>42.0</ele><time>2026-04-04T13:26:15Z</time></trkpt><trkpt lat="43.769108904831796" lon="11.19135007236087"><ele>42.0</ele><time>2026-04-04T13:26:16Z</time></trkpt><trkpt lat="43.7690865457714" lon="11.19115104996657"><ele>42.0</ele><time>2026-04-04T13:26:17Z</time></trkpt><trkpt lat="43.7690547456704" lon="11.190974868746876"><ele>42.0</ele><time>2026-04-04T13:26:18Z</time></trkpt><trkpt lat="43.769033661760815" lon="11.190824505635192"><ele>42.0</ele><time>2026-04-04T13:26:19Z</time></trkpt><trkpt lat="43.76902137604795" lon="11.190704154159175"><ele>42.0</ele><time>2026-04-04T13:26:20Z</time></trkpt><trkpt lat="43.7690242969596" lon="11.190602459669183"><ele>42.0</ele><time>2026-04-04T13:26:21Z</time></trkpt><trkpt lat="43.769056334567495" lon="11.190496904953076"><ele>42.0</ele><time>2026-04-04T13:26:22Z</time></trkpt><trkpt lat="43.76908766324788" lon="11.190374613539312"><ele>42.0</ele><time>2026-04-04T13:26:23Z</time></trkpt><trkpt lat="43.769205698067516" lon="11.19026520109248"><ele>41.75</ele><time>2026-04-04T13:26:24Z</time></trkpt><trkpt lat="43.769275103451605" lon="11.190136815547445"><ele>41.5</ele><time>2026-04-04T13:26:25Z</time></trkpt><trkpt lat="43.7693046185942" lon="11.189981473408336"><ele>41.25</ele><time>2026-04-04T13:26:26Z</time></trkpt><trkpt lat="43.76923092595155" lon="11.189785180979962"><ele>41.0</ele><time>2026-04-04T13:26:27Z</time></trkpt><trkpt lat="43.76926155755681" lon="11.189600952616503"><ele>40.666666666666664</ele><time>2026-04-04T13:26:28Z</time></trkpt><trkpt lat="43.76926725369661" lon="11.189394745287032"><ele>40.333333333333336</ele><time>2026-04-04T13:26:29Z</time></trkpt><trkpt lat="43.76931129219631" lon="11.189186800805441"><ele>40.0</ele><time>2026-04-04T13:26:30Z</time></trkpt><trkpt lat="43.76939911480821" lon="11.188987573285875"><ele>39.0</ele><time>2026-04-04T13:26:31Z</time></trkpt><trkpt lat="43.769485960510146" lon="11.188784380745824"><ele>38.0</ele><time>2026-04-04T13:26:32Z</time></trkpt><trkpt lat="43.76959483730583" lon="11.1886321862083"><ele>37.0</ele><time>2026-04-04T13:26:33Z</time></trkpt><trkpt lat="43.769733717491384" lon="11.18849790905443"><ele>37.0</ele><time>2026-04-04T13:26:34Z</time></trkpt><trkpt lat="43.76989978455462" lon="11.188355725833869"><ele>37.0</ele><time>2026-04-04T13:26:35Z</time></trkpt><trkpt lat="43.77010121024598" lon="11.188252657181435"><ele>37.0</ele><time>2026-04-04T13:26:36Z</time></trkpt><trkpt lat="43.7703105512333" lon="11.18814717225077"><ele>37.333333333333336</ele><time>2026-04-04T13:26:37Z</time></trkpt><trkpt lat="43.770516252525375" lon="11.188031704609598"><ele>37.666666666666664</ele><time>2026-04-04T13:26:38Z</time></trkpt><trkpt lat="43.7707285119703" lon="11.187918330900967"><ele>38.0</ele><time>2026-04-04T13:26:39Z</time></trkpt><trkpt lat="43.77094239861946" lon="11.187802694118343"><ele>37.666666666666664</ele><time>2026-04-04T13:26:40Z</time></trkpt><trkpt lat="43.77114564320216" lon="11.187690409684294"><ele>37.333333333333336</ele><time>2026-04-04T13:26:41Z</time></trkpt><trkpt lat="43.77134823301512" lon="11.187569237827978"><ele>37.0</ele><time>2026-04-04T13:26:42Z</time></trkpt><trkpt lat="43.77154584762194" lon="11.187437491510726"><ele>37.5</ele><time>2026-04-04T13:26:43Z</time></trkpt><trkpt lat="43.77176802557609" lon="11.18731947875683"><ele>38.0</ele><time>2026-04-04T13:26:44Z</time></trkpt><trkpt lat="43.77199346067126" lon="11.187185077454608"><ele>38.0</ele><time>2026-04-04T13:26:45Z</time></trkpt><trkpt lat="43.77221595170891" lon="11.187050944928792"><ele>38.0</ele><time>2026-04-04T13:26:46Z</time></trkpt><trkpt lat="43.77243547571279" lon="11.186918601391445"><ele>38.0</ele><time>2026-04-04T13:26:47Z</time></trkpt><trkpt lat="43.77263656892627" lon="11.18677498457184"><ele>38.0</ele><time>2026-04-04T13:26:48Z</time></trkpt><trkpt lat="43.77283989091038" lon="11.186668258829869"><ele>38.0</ele><time>2026-04-04T13:26:49Z</time></trkpt><trkpt lat="43.77305586387752" lon="11.186623381462983"><ele>37.5</ele><time>2026-04-04T13:26:50Z</time></trkpt><trkpt lat="43.77329110010472" lon="11.186630092976918"><ele>37.0</ele><time>2026-04-04T13:26:51Z</time></trkpt><trkpt lat="43.77353871908701" lon="11.186651823496193"><ele>37.0</ele><time>2026-04-04T13:26:52Z</time></trkpt><trkpt lat="43.77379270095948" lon="11.186673813534691"><ele>37.0</ele><time>2026-04-04T13:26:53Z</time></trkpt><trkpt lat="43.77404561997496" lon="11.186704036262219"><ele>37.0</ele><time>2026-04-04T13:26:54Z</time></trkpt><trkpt lat="43.774302149246274" lon="11.18673511247102"><ele>37.0</ele><time>2026-04-04T13:26:55Z</time></trkpt><trkpt lat="43.77456168190555" lon="11.186763946828503"><ele>37.0</ele><time>2026-04-04T13:26:56Z</time></trkpt><trkpt lat="43.77482498062694" lon="11.186791087866794"><ele>37.0</ele><time>2026-04-04T13:26:57Z</time></trkpt><trkpt lat="43.77509308396212" lon="11.186819420326154"><ele>37.0</ele><time>2026-04-04T13:26:58Z</time></trkpt><trkpt lat="43.775368061024565" lon="11.186825390611173"><ele>37.0</ele><time>2026-04-04T13:26:59Z</time></trkpt><trkpt lat="43.7756478910152" lon="11.186850748482282"><ele>37.0</ele><time>2026-04-04T13:27:00Z</time></trkpt><trkpt lat="43.775931049122086" lon="11.18687640795029"><ele>37.0</ele><time>2026-04-04T13:27:01Z</time></trkpt><trkpt lat="43.77621516079549" lon="11.186897609215352"><ele>36.0</ele><time>2026-04-04T13:27:02Z</time></trkpt><trkpt lat="43.776488538577674" lon="11.186897596441538"><ele>35.0</ele><time>2026-04-04T13:27:03Z</time></trkpt><trkpt lat="43.776756311549185" lon="11.186865398275447"><ele>36.5</ele><time>2026-04-04T13:27:04Z</time></trkpt><trkpt lat="43.77702441155045" lon="11.186806876390378"><ele>38.0</ele><time>2026-04-04T13:27:05Z</time></trkpt><trkpt lat="43.77729137755431" lon="11.186722625832719"><ele>38.0</ele><time>2026-04-04T13:27:06Z</time></trkpt><trkpt lat="43.777559445377385" lon="11.18660313406787"><ele>38.0</ele><time>2026-04-04T13:27:07Z</time></trkpt><trkpt lat="43.77781478083061" lon="11.18646237780828"><ele>37.0</ele><time>2026-04-04T13:27:08Z</time></trkpt><trkpt lat="43.77807333842255" lon="11.186301806547101"><ele>36.0</ele><time>2026-04-04T13:27:09Z</time></trkpt><trkpt lat="43.77832348381569" lon="11.186148173162495"><ele>36.5</ele><time>2026-04-04T13:27:10Z</time></trkpt><trkpt lat="43.77855396115399" lon="11.18601274815301"><ele>37.0</ele><time>2026-04-04T13:27:11Z</time></trkpt><trkpt lat="43.77878738759263" lon="11.185897710646222"><ele>37.0</ele><time>2026-04-04T13:27:12Z</time></trkpt><trkpt lat="43.7790298460874" lon="11.185813107331397"><ele>37.0</ele><time>2026-04-04T13:27:13Z</time></trkpt><trkpt lat="43.77926173196328" lon="11.185743059046752"><ele>38.5</ele><time>2026-04-04T13:27:14Z</time></trkpt><trkpt lat="43.77949042245751" lon="11.185673987819449"><ele>40.0</ele><time>2026-04-04T13:27:15Z</time></trkpt><trkpt lat="43.77975445817427" lon="11.185796876520293"><ele>40.0</ele><time>2026-04-04T13:27:16Z</time></trkpt><trkpt lat="43.77999965332203" lon="11.185856790674613"><ele>40.0</ele><time>2026-04-04T13:27:17Z</time></trkpt><trkpt lat="43.780244443495526" lon="11.185953691489043"><ele>39.0</ele><time>2026-04-04T13:27:18Z</time></trkpt><trkpt lat="43.78047887524679" lon="11.186081941960609"><ele>38.0</ele><time>2026-04-04T13:27:19Z</time></trkpt><trkpt lat="43.780712675830486" lon="11.186247955957977"><ele>38.0</ele><time>2026-04-04T13:27:20Z</time></trkpt><trkpt lat="43.780948576234714" lon="11.186428768116397"><ele>38.0</ele><time>2026-04-04T13:27:21Z</time></trkpt><trkpt lat="43.78119034597314" lon="11.186627116802304"><ele>38.5</ele><time>2026-04-04T13:27:22Z</time></trkpt><trkpt lat="43.78144271880596" lon="11.186843483565978"><ele>39.0</ele><time>2026-04-04T13:27:23Z</time></trkpt><trkpt lat="43.78170258206356" lon="11.187066096545294"><ele>38.5</ele><time>2026-04-04T13:27:24Z</time></trkpt><trkpt lat="43.781966005024046" lon="11.187282004496822"><ele>38.0</ele><time>2026-04-04T13:27:25Z</time></trkpt><trkpt lat="43.782223755529905" lon="11.187493102130853"><ele>39.0</ele><time>2026-04-04T13:27:26Z</time></trkpt><trkpt lat="43.78246047614727" lon="11.187688990596962"><ele>40.0</ele><time>2026-04-04T13:27:27Z</time></trkpt><trkpt lat="43.78268403540573" lon="11.187871472977054"><ele>40.5</ele><time>2026-04-04T13:27:28Z</time></trkpt><trkpt lat="43.782895127417156" lon="11.188047296447317"><ele>41.0</ele><time>2026-04-04T13:27:29Z</time></trkpt><trkpt lat="43.783096208544286" lon="11.188218065697466"><ele>41.5</ele><time>2026-04-04T13:27:30Z</time></trkpt><trkpt lat="43.78329730252596" lon="11.188386485979606"><ele>42.0</ele><time>2026-04-04T13:27:31Z</time></trkpt><trkpt lat="43.78348915118924" lon="11.188550338338999"><ele>42.0</ele><time>2026-04-04T13:27:32Z</time></trkpt><trkpt lat="43.78367958163147" lon="11.188714111756584"><ele>42.0</ele><time>2026-04-04T13:27:33Z</time></trkpt><trkpt lat="43.78385866585458" lon="11.188895350229798"><ele>42.0</ele><time>2026-04-04T13:27:34Z</time></trkpt><trkpt lat="43.78403038208462" lon="11.189106585351684"><ele>41.5</ele><time>2026-04-04T13:27:35Z</time></trkpt><trkpt lat="43.78419696078421" lon="11.18934858408045"><ele>41.0</ele><time>2026-04-04T13:27:36Z</time></trkpt><trkpt lat="43.78434681959953" lon="11.189617978232135"><ele>39.5</ele><time>2026-04-04T13:27:37Z</time></trkpt><trkpt lat="43.78447433205416" lon="11.189893671382295"><ele>38.0</ele><time>2026-04-04T13:27:38Z</time></trkpt><trkpt lat="43.78458734993436" lon="11.1901690235812"><ele>38.0</ele><time>2026-04-04T13:27:39Z</time></trkpt><trkpt lat="43.78469563547805" lon="11.190441425573162"><ele>38.0</ele><time>2026-04-04T13:27:40Z</time></trkpt><trkpt lat="43.78480355890785" lon="11.190703009390544"><ele>38.0</ele><time>2026-04-04T13:27:41Z</time></trkpt><trkpt lat="43.78491755885889" lon="11.190974334821954"><ele>38.5</ele><time>2026-04-04T13:27:42Z</time></trkpt><trkpt lat="43.78504068106482" lon="11.191259012533335"><ele>39.0</ele><time>2026-04-04T13:27:43Z</time></trkpt><trkpt lat="43.785165988657646" lon="11.191560250518615"><ele>39.0</ele><time>2026-04-04T13:27:44Z</time></trkpt><trkpt lat="43.785298704799565" lon="11.191865613617288"><ele>39.0</ele><time>2026-04-04T13:27:45Z</time></trkpt><trkpt lat="43.785444888894" lon="11.192165791264484"><ele>39.0</ele><time>2026-04-04T13:27:46Z</time></trkpt><trkpt lat="43.78560704079354" lon="11.192448103478121"><ele>39.0</ele><time>2026-04-04T13:27:47Z</time></trkpt><trkpt lat="43.785781269297125" lon="11.19271977205187"><ele>39.0</ele><time>2026-04-04T13:27:48Z</time></trkpt><trkpt lat="43.785968541630695" lon="11.192977535943509"><ele>39.0</ele><time>2026-04-04T13:27:48.999Z</time></trkpt><trkpt lat="43.786171557036965" lon="11.193231690335937"><ele>38.5</ele><time>2026-04-04T13:27:49.999Z</time></trkpt><trkpt lat="43.78637530505551" lon="11.193473824671901"><ele>38.0</ele><time>2026-04-04T13:27:50.999Z</time></trkpt><trkpt lat="43.78657697256451" lon="11.19367958614257"><ele>38.0</ele><time>2026-04-04T13:27:51.999Z</time></trkpt><trkpt lat="43.78678752711236" lon="11.193857010924509"><ele>38.0</ele><time>2026-04-04T13:27:52.999Z</time></trkpt><trkpt lat="43.78701648891372" lon="11.194031398218506"><ele>38.0</ele><time>2026-04-04T13:27:53.999Z</time></trkpt><trkpt lat="43.787252167074605" lon="11.194199388026945"><ele>38.0</ele><time>2026-04-04T13:27:54.999Z</time></trkpt><trkpt lat="43.787491776711086" lon="11.194363290582666"><ele>38.5</ele><time>2026-04-04T13:27:55.999Z</time></trkpt><trkpt lat="43.787728735032076" lon="11.194538087006935"><ele>39.0</ele><time>2026-04-04T13:27:56.999Z</time></trkpt><trkpt lat="43.787961241394584" lon="11.19471499038684"><ele>40.0</ele><time>2026-04-04T13:27:57.999Z</time></trkpt><trkpt lat="43.788195896351134" lon="11.194890306964329"><ele>41.0</ele><time>2026-04-04T13:27:58.999Z</time></trkpt><trkpt lat="43.78842590678666" lon="11.195060514986997"><ele>41.0</ele><time>2026-04-04T13:27:59.999Z</time></trkpt><trkpt lat="43.788639870942525" lon="11.195221796884821"><ele>41.0</ele><time>2026-04-04T13:28:00.999Z</time></trkpt><trkpt lat="43.788844368752805" lon="11.195373171113873"><ele>41.0</ele><time>2026-04-04T13:28:02Z</time></trkpt><trkpt lat="43.78903667635296" lon="11.195514623779976"><ele>41.0</ele><time>2026-04-04T13:28:03Z</time></trkpt><trkpt lat="43.7892246482786" lon="11.195654684467579"><ele>41.0</ele><time>2026-04-04T13:28:04Z</time></trkpt><trkpt lat="43.789403224638356" lon="11.195783529241044"><ele>36.666666666666664</ele><time>2026-04-04T13:28:05Z</time></trkpt><trkpt lat="43.78957586230303" lon="11.195910859824453"><ele>32.333333333333336</ele><time>2026-04-04T13:28:06Z</time></trkpt><trkpt lat="43.78973939625895" lon="11.196034051540028"><ele>28.0</ele><time>2026-04-04T13:28:07Z</time></trkpt><trkpt lat="43.789895506528964" lon="11.196147687865247"><ele>28.0</ele><time>2026-04-04T13:28:08Z</time></trkpt><trkpt lat="43.790050856891966" lon="11.19625931854004"><ele>28.0</ele><time>2026-04-04T13:28:09Z</time></trkpt><trkpt lat="43.790198020702974" lon="11.19637009473111"><ele>28.0</ele><time>2026-04-04T13:28:10Z</time></trkpt><trkpt lat="43.79035483030306" lon="11.196482412714428"><ele>29.0</ele><time>2026-04-04T13:28:11Z</time></trkpt><trkpt lat="43.79051986885531" lon="11.196601570573682"><ele>30.0</ele><time>2026-04-04T13:28:12Z</time></trkpt><trkpt lat="43.7906858375101" lon="11.196721781130114"><ele>31.0</ele><time>2026-04-04T13:28:13Z</time></trkpt><trkpt lat="43.79084483754599" lon="11.196840965316074"><ele>31.0</ele><time>2026-04-04T13:28:14Z</time></trkpt><trkpt lat="43.79099114075901" lon="11.196950500702794"><ele>31.0</ele><time>2026-04-04T13:28:15Z</time></trkpt><trkpt lat="43.791139167375256" lon="11.197049686986087"><ele>31.0</ele><time>2026-04-04T13:28:16Z</time></trkpt><trkpt lat="43.79127501379206" lon="11.197154573846877"><ele>33.0</ele><time>2026-04-04T13:28:17Z</time></trkpt><trkpt lat="43.791410864107306" lon="11.197255238093252"><ele>35.0</ele><time>2026-04-04T13:28:18Z</time></trkpt><trkpt lat="43.791547220770944" lon="11.197365589601526"><ele>37.0</ele><time>2026-04-04T13:28:19Z</time></trkpt><trkpt lat="43.79165701201272" lon="11.19743639868847"><ele>39.0</ele><time>2026-04-04T13:28:20Z</time></trkpt><trkpt lat="43.79176577744242" lon="11.197512095468687"><ele>39.6</ele><time>2026-04-04T13:28:21Z</time></trkpt><trkpt lat="43.79186827724832" lon="11.197581800029377"><ele>40.2</ele><time>2026-04-04T13:28:22Z</time></trkpt><trkpt lat="43.791968749605026" lon="11.197652625532372"><ele>40.800000000000004</ele><time>2026-04-04T13:28:23Z</time></trkpt><trkpt lat="43.79206367800703" lon="11.197724183362585"><ele>41.4</ele><time>2026-04-04T13:28:24Z</time></trkpt><trkpt lat="43.79215548031538" lon="11.197785765926199"><ele>42.0</ele><time>2026-04-04T13:28:25Z</time></trkpt><trkpt lat="43.792241358961114" lon="11.197847820021055"><ele>42.0</ele><time>2026-04-04T13:28:26Z</time></trkpt><trkpt lat="43.792323654551446" lon="11.19790771090108"><ele>42.0</ele><time>2026-04-04T13:28:27Z</time></trkpt><trkpt lat="43.79240586042272" lon="11.19797044141154"><ele>42.0</ele><time>2026-04-04T13:28:28Z</time></trkpt><trkpt lat="43.792508394732415" lon="11.198044221249566"><ele>42.0</ele><time>2026-04-04T13:28:29Z</time></trkpt><trkpt lat="43.79263120912455" lon="11.198133426700075"><ele>42.0</ele><time>2026-04-04T13:28:30Z</time></trkpt><trkpt lat="43.79277480512347" lon="11.198235744709772"><ele>41.333333333333336</ele><time>2026-04-04T13:28:31Z</time></trkpt><trkpt lat="43.79293988979427" lon="11.198349261299253"><ele>40.66666666666667</ele><time>2026-04-04T13:28:32Z</time></trkpt><trkpt lat="43.793113444447336" lon="11.198473932836242"><ele>40.0</ele><time>2026-04-04T13:28:33Z</time></trkpt><trkpt lat="43.79329499357688" lon="11.198605725341942"><ele>40.0</ele><time>2026-04-04T13:28:34Z</time></trkpt><trkpt lat="43.79347953653209" lon="11.198746530462754"><ele>40.0</ele><time>2026-04-04T13:28:35Z</time></trkpt><trkpt lat="43.79366076084507" lon="11.198925225664501"><ele>40.0</ele><time>2026-04-04T13:28:36Z</time></trkpt><trkpt lat="43.793845363169005" lon="11.199108118023554"><ele>39.5</ele><time>2026-04-04T13:28:37Z</time></trkpt><trkpt lat="43.79402670969549" lon="11.199314721010722"><ele>39.0</ele><time>2026-04-04T13:28:38Z</time></trkpt><trkpt lat="43.7942013459717" lon="11.199544592727877"><ele>40.0</ele><time>2026-04-04T13:28:39Z</time></trkpt><trkpt lat="43.79436611564785" lon="11.199794765660636"><ele>41.0</ele><time>2026-04-04T13:28:40Z</time></trkpt><trkpt lat="43.79451055680905" lon="11.200050407782046"><ele>42.0</ele><time>2026-04-04T13:28:41Z</time></trkpt><trkpt lat="43.79464961203733" lon="11.200312506179477"><ele>43.0</ele><time>2026-04-04T13:28:42Z</time></trkpt><trkpt lat="43.79481609730432" lon="11.200566947841153"><ele>43.0</ele><time>2026-04-04T13:28:43Z</time></trkpt><trkpt lat="43.79495896813028" lon="11.200860568935221"><ele>43.0</ele><time>2026-04-04T13:28:44Z</time></trkpt><trkpt lat="43.79510272346823" lon="11.201138609512011"><ele>42.0</ele><time>2026-04-04T13:28:45Z</time></trkpt><trkpt lat="43.79523319538892" lon="11.20139524126798"><ele>41.0</ele><time>2026-04-04T13:28:46Z</time></trkpt><trkpt lat="43.795356343751166" lon="11.201641950159285"><ele>40.0</ele><time>2026-04-04T13:28:47Z</time></trkpt><trkpt lat="43.79546673376566" lon="11.201892176912446"><ele>40.0</ele><time>2026-04-04T13:28:48Z</time></trkpt><trkpt lat="43.795589131793164" lon="11.202132353358374"><ele>40.0</ele><time>2026-04-04T13:28:49Z</time></trkpt><trkpt lat="43.79572184705561" lon="11.202347444074794"><ele>40.0</ele><time>2026-04-04T13:28:50Z</time></trkpt><trkpt lat="43.795820381111824" lon="11.202577275404034"><ele>40.0</ele><time>2026-04-04T13:28:51Z</time></trkpt><trkpt lat="43.795932099498486" lon="11.20275958829419"><ele>40.0</ele><time>2026-04-04T13:28:52Z</time></trkpt><trkpt lat="43.796046330532036" lon="11.202936906134404"><ele>40.0</ele><time>2026-04-04T13:28:53Z</time></trkpt><trkpt lat="43.796182597669784" lon="11.203086515477358"><ele>40.333333333333336</ele><time>2026-04-04T13:28:54Z</time></trkpt><trkpt lat="43.79632774678541" lon="11.203210859456888"><ele>40.666666666666664</ele><time>2026-04-04T13:28:55Z</time></trkpt><trkpt lat="43.79650624612663" lon="11.203314405950167"><ele>41.0</ele><time>2026-04-04T13:28:56Z</time></trkpt><trkpt lat="43.79671326928162" lon="11.20339404710454"><ele>40.33333333333333</ele><time>2026-04-04T13:28:57Z</time></trkpt><trkpt lat="43.796903599225644" lon="11.20346522279615"><ele>39.666666666666664</ele><time>2026-04-04T13:28:58Z</time></trkpt><trkpt lat="43.797071344857756" lon="11.203538489014834"><ele>39.0</ele><time>2026-04-04T13:28:59Z</time></trkpt><trkpt lat="43.797226157073496" lon="11.203612371120474"><ele>39.0</ele><time>2026-04-04T13:29:00Z</time></trkpt><trkpt lat="43.79737533388131" lon="11.203683428022206"><ele>39.0</ele><time>2026-04-04T13:29:01Z</time></trkpt><trkpt lat="43.797512579754546" lon="11.20378711342005"><ele>39.0</ele><time>2026-04-04T13:29:02Z</time></trkpt><trkpt lat="43.7976523661186" lon="11.203927158947652"><ele>39.666666666666664</ele><time>2026-04-04T13:29:03Z</time></trkpt><trkpt lat="43.797796882895966" lon="11.204069430738793"><ele>40.33333333333333</ele><time>2026-04-04T13:29:04Z</time></trkpt><trkpt lat="43.79792170964594" lon="11.204179968549509"><ele>41.0</ele><time>2026-04-04T13:29:05Z</time></trkpt><trkpt lat="43.798031577908155" lon="11.204285452604267"><ele>41.0</ele><time>2026-04-04T13:29:06Z</time></trkpt><trkpt lat="43.79813683624177" lon="11.204380964620148"><ele>41.0</ele><time>2026-04-04T13:29:07Z</time></trkpt><trkpt lat="43.79824491011276" lon="11.204459600644158"><ele>41.0</ele><time>2026-04-04T13:29:08Z</time></trkpt><trkpt lat="43.79837024043998" lon="11.204460436509322"><ele>41.0</ele><time>2026-04-04T13:29:09Z</time></trkpt><trkpt lat="43.798496914154825" lon="11.204446944241724"><ele>40.75</ele><time>2026-04-04T13:29:10Z</time></trkpt><trkpt lat="43.79861698985823" lon="11.204370953331452"><ele>40.5</ele><time>2026-04-04T13:29:11Z</time></trkpt><trkpt lat="43.79876788635404" lon="11.204344481938147"><ele>40.25</ele><time>2026-04-04T13:29:12Z</time></trkpt><trkpt lat="43.79890703294084" lon="11.204319909764983"><ele>40.0</ele><time>2026-04-04T13:29:13Z</time></trkpt><trkpt lat="43.79904103967256" lon="11.204268272193966"><ele>40.0</ele><time>2026-04-04T13:29:14Z</time></trkpt><trkpt lat="43.79916330783147" lon="11.20421074087106"><ele>40.0</ele><time>2026-04-04T13:29:15Z</time></trkpt><trkpt lat="43.79927524712327" lon="11.204145824347492"><ele>40.0</ele><time>2026-04-04T13:29:16Z</time></trkpt><trkpt lat="43.799379839542226" lon="11.204072703424815"><ele>40.0</ele><time>2026-04-04T13:29:17Z</time></trkpt><trkpt lat="43.79948993011383" lon="11.203985224593813"><ele>39.6</ele><time>2026-04-04T13:29:18Z</time></trkpt><trkpt lat="43.799598616198885" lon="11.203892760059313"><ele>39.2</ele><time>2026-04-04T13:29:19Z</time></trkpt><trkpt lat="43.79969939270573" lon="11.203817701696028"><ele>38.8</ele><time>2026-04-04T13:29:20Z</time></trkpt><trkpt lat="43.799796361026814" lon="11.203762056793227"><ele>38.4</ele><time>2026-04-04T13:29:21Z</time></trkpt><trkpt lat="43.79988597687506" lon="11.20372964776971"><ele>38.0</ele><time>2026-04-04T13:29:22Z</time></trkpt><trkpt lat="43.79997160980205" lon="11.203730629966207"><ele>38.0</ele><time>2026-04-04T13:29:23Z</time></trkpt><trkpt lat="43.8000453131503" lon="11.203761048574641"><ele>38.0</ele><time>2026-04-04T13:29:24Z</time></trkpt><trkpt lat="43.80010032773693" lon="11.20382232942136"><ele>38.0</ele><time>2026-04-04T13:29:25Z</time></trkpt><trkpt lat="43.8001419724153" lon="11.203898712176848"><ele>38.0</ele><time>2026-04-04T13:29:26Z</time></trkpt><trkpt lat="43.80016167085596" lon="11.203994843094979"><ele>38.0</ele><time>2026-04-04T13:29:27Z</time></trkpt><trkpt lat="43.800197862188284" lon="11.204081021482716"><ele>38.0</ele><time>2026-04-04T13:29:28Z</time></trkpt><trkpt lat="43.80021624516334" lon="11.204187551610763"><ele>38.0</ele><time>2026-04-04T13:29:29Z</time></trkpt><trkpt lat="43.80022084575146" lon="11.204334137785322"><ele>38.5</ele><time>2026-04-04T13:29:30Z</time></trkpt><trkpt lat="43.800227214830564" lon="11.204453725854524"><ele>39.0</ele><time>2026-04-04T13:29:31Z</time></trkpt><trkpt lat="43.80023445596543" lon="11.20462809557411"><ele>39.5</ele><time>2026-04-04T13:29:32Z</time></trkpt><trkpt lat="43.80023573135672" lon="11.204850091345943"><ele>40.0</ele><time>2026-04-04T13:29:33Z</time></trkpt><trkpt lat="43.80023709803495" lon="11.205076177384376"><ele>40.0</ele><time>2026-04-04T13:29:34Z</time></trkpt><trkpt lat="43.80024313492784" lon="11.205335320284954"><ele>40.0</ele><time>2026-04-04T13:29:35Z</time></trkpt><trkpt lat="43.80025137690962" lon="11.205609545455061"><ele>40.0</ele><time>2026-04-04T13:29:36Z</time></trkpt><trkpt lat="43.8002629351184" lon="11.205899211278588"><ele>39.333333333333336</ele><time>2026-04-04T13:29:37Z</time></trkpt><trkpt lat="43.800262518597876" lon="11.206178714618208"><ele>38.666666666666664</ele><time>2026-04-04T13:29:38Z</time></trkpt><trkpt lat="43.80022391540173" lon="11.206440032170027"><ele>38.0</ele><time>2026-04-04T13:29:39Z</time></trkpt><trkpt lat="43.80015221440942" lon="11.206682618096197"><ele>38.0</ele><time>2026-04-04T13:29:40Z</time></trkpt><trkpt lat="43.800063981981914" lon="11.206923945489546"><ele>38.0</ele><time>2026-04-04T13:29:41Z</time></trkpt><trkpt lat="43.79996879321163" lon="11.20717530206791"><ele>38.0</ele><time>2026-04-04T13:29:42Z</time></trkpt><trkpt lat="43.79986320653978" lon="11.207450543908365"><ele>38.0</ele><time>2026-04-04T13:29:43Z</time></trkpt><trkpt lat="43.799732091388584" lon="11.207695976606765"><ele>38.0</ele><time>2026-04-04T13:29:44Z</time></trkpt><trkpt lat="43.79963565838118" lon="11.207958830629243"><ele>38.0</ele><time>2026-04-04T13:29:45Z</time></trkpt><trkpt lat="43.79954090989758" lon="11.20822697376964"><ele>38.0</ele><time>2026-04-04T13:29:46Z</time></trkpt><trkpt lat="43.799451763117666" lon="11.208483381799109"><ele>38.0</ele><time>2026-04-04T13:29:47Z</time></trkpt><trkpt lat="43.799373535667364" lon="11.208710713831431"><ele>38.0</ele><time>2026-04-04T13:29:48Z</time></trkpt><trkpt lat="43.79930488563547" lon="11.208912311216423"><ele>38.33333333333333</ele><time>2026-04-04T13:29:49Z</time></trkpt><trkpt lat="43.79923984299276" lon="11.2091182391331"><ele>38.666666666666664</ele><time>2026-04-04T13:29:50Z</time></trkpt><trkpt lat="43.7991660874917" lon="11.209299937404406"><ele>39.0</ele><time>2026-04-04T13:29:51Z</time></trkpt><trkpt lat="43.79913708068508" lon="11.209494320792935"><ele>39.0</ele><time>2026-04-04T13:29:52Z</time></trkpt><trkpt lat="43.79912413988817" lon="11.209646902835916"><ele>39.0</ele><time>2026-04-04T13:29:53Z</time></trkpt><trkpt lat="43.7991214149148" lon="11.209789227666434"><ele>39.0</ele><time>2026-04-04T13:29:53.999Z</time></trkpt><trkpt lat="43.79915292884566" lon="11.209935016983883"><ele>39.0</ele><time>2026-04-04T13:29:54.999Z</time></trkpt><trkpt lat="43.799209696481135" lon="11.210071912696089"><ele>39.0</ele><time>2026-04-04T13:29:55.999Z</time></trkpt><trkpt lat="43.79929992188388" lon="11.21018963832491"><ele>38.333333333333336</ele><time>2026-04-04T13:29:56.999Z</time></trkpt><trkpt lat="43.79943198743294" lon="11.210289555977537"><ele>37.66666666666667</ele><time>2026-04-04T13:29:57.999Z</time></trkpt><trkpt lat="43.79954941265977" lon="11.210462606345141"><ele>37.0</ele><time>2026-04-04T13:29:58.999Z</time></trkpt><trkpt lat="43.799746409407035" lon="11.210621875706046"><ele>37.0</ele><time>2026-04-04T13:29:59.999Z</time></trkpt><trkpt lat="43.799919845264725" lon="11.21076893012241"><ele>37.0</ele><time>2026-04-04T13:30:00.999Z</time></trkpt><trkpt lat="43.8001030212944" lon="11.210926169769992"><ele>37.0</ele><time>2026-04-04T13:30:01.999Z</time></trkpt><trkpt lat="43.80028076737057" lon="11.211099906654072"><ele>37.333333333333336</ele><time>2026-04-04T13:30:02.999Z</time></trkpt><trkpt lat="43.800442167240874" lon="11.211247961366315"><ele>37.666666666666664</ele><time>2026-04-04T13:30:03.999Z</time></trkpt><trkpt lat="43.80056581044994" lon="11.211419845450143"><ele>38.0</ele><time>2026-04-04T13:30:04.999Z</time></trkpt><trkpt lat="43.800698231631074" lon="11.21156858248867"><ele>38.0</ele><time>2026-04-04T13:30:05.999Z</time></trkpt><trkpt lat="43.80086486256438" lon="11.211627908071616"><ele>38.0</ele><time>2026-04-04T13:30:06.999Z</time></trkpt><trkpt lat="43.80100265355796" lon="11.211686774271657"><ele>38.0</ele><time>2026-04-04T13:30:08Z</time></trkpt><trkpt lat="43.80113951005292" lon="11.211703584220768"><ele>38.0</ele><time>2026-04-04T13:30:09Z</time></trkpt><trkpt lat="43.801265137434356" lon="11.211669156444131"><ele>38.0</ele><time>2026-04-04T13:30:10Z</time></trkpt><trkpt lat="43.801330842417954" lon="11.211507191781282"><ele>38.0</ele><time>2026-04-04T13:30:11Z</time></trkpt><trkpt lat="43.80139522787594" lon="11.211393787866568"><ele>38.0</ele><time>2026-04-04T13:30:12Z</time></trkpt><trkpt lat="43.8014335303846" lon="11.211252587218773"><ele>37.75</ele><time>2026-04-04T13:30:13Z</time></trkpt><trkpt lat="43.80144061535604" lon="11.211100854365387"><ele>37.5</ele><time>2026-04-04T13:30:14Z</time></trkpt><trkpt lat="43.80141889417755" lon="11.210880309050479"><ele>37.25</ele><time>2026-04-04T13:30:15Z</time></trkpt><trkpt lat="43.80137984834324" lon="11.210641313688901"><ele>37.0</ele><time>2026-04-04T13:30:16Z</time></trkpt><trkpt lat="43.801308013136904" lon="11.210370016434396"><ele>38.5</ele><time>2026-04-04T13:30:17Z</time></trkpt><trkpt lat="43.80123172985926" lon="11.21000027875736"><ele>40.0</ele><time>2026-04-04T13:30:18Z</time></trkpt><trkpt lat="43.80118806468181" lon="11.20972224409201"><ele>40.0</ele><time>2026-04-04T13:30:19Z</time></trkpt><trkpt lat="43.80115215607274" lon="11.209426760127256"><ele>40.0</ele><time>2026-04-04T13:30:20Z</time></trkpt><trkpt lat="43.801123917134525" lon="11.209130384057262"><ele>40.0</ele><time>2026-04-04T13:30:21Z</time></trkpt><trkpt lat="43.801098914546614" lon="11.20882590594693"><ele>39.0</ele><time>2026-04-04T13:30:22Z</time></trkpt><trkpt lat="43.80107399763915" lon="11.208502475710661"><ele>38.0</ele><time>2026-04-04T13:30:23Z</time></trkpt><trkpt lat="43.80105144171008" lon="11.208165050675918"><ele>39.5</ele><time>2026-04-04T13:30:24Z</time></trkpt><trkpt lat="43.80103130638855" lon="11.207817091153284"><ele>41.0</ele><time>2026-04-04T13:30:25Z</time></trkpt><trkpt lat="43.80101999550234" lon="11.207478276907613"><ele>42.5</ele><time>2026-04-04T13:30:26Z</time></trkpt><trkpt lat="43.80101871419404" lon="11.207136822995071"><ele>44.0</ele><time>2026-04-04T13:30:27Z</time></trkpt><trkpt lat="43.80099664383438" lon="11.206790508425696"><ele>40.0</ele><time>2026-04-04T13:30:28Z</time></trkpt><trkpt lat="43.800972355814444" lon="11.206449869208823"><ele>36.0</ele><time>2026-04-04T13:30:29Z</time></trkpt><trkpt lat="43.80096081868838" lon="11.20613318697656"><ele>36.0</ele><time>2026-04-04T13:30:30Z</time></trkpt><trkpt lat="43.80096550580768" lon="11.205830557671614"><ele>36.0</ele><time>2026-04-04T13:30:31Z</time></trkpt><trkpt lat="43.80097653055348" lon="11.20551924342929"><ele>36.0</ele><time>2026-04-04T13:30:32Z</time></trkpt><trkpt lat="43.801003692169054" lon="11.20518685111321"><ele>37.5</ele><time>2026-04-04T13:30:33Z</time></trkpt><trkpt lat="43.80102248853784" lon="11.204859663386772"><ele>39.0</ele><time>2026-04-04T13:30:34Z</time></trkpt><trkpt lat="43.80102558100158" lon="11.204552432170559"><ele>39.0</ele><time>2026-04-04T13:30:35Z</time></trkpt><trkpt lat="43.80102044587512" lon="11.204239920206108"><ele>39.0</ele><time>2026-04-04T13:30:36Z</time></trkpt><trkpt lat="43.80101362788636" lon="11.203919632870345"><ele>38.5</ele><time>2026-04-04T13:30:37Z</time></trkpt><trkpt lat="43.80100565475389" lon="11.203586189230371"><ele>38.0</ele><time>2026-04-04T13:30:38Z</time></trkpt><trkpt lat="43.800994143378055" lon="11.203247996981755"><ele>38.0</ele><time>2026-04-04T13:30:39Z</time></trkpt><trkpt lat="43.80098148423081" lon="11.20291554750302"><ele>38.0</ele><time>2026-04-04T13:30:40Z</time></trkpt><trkpt lat="43.80097162036962" lon="11.202605828098736"><ele>38.0</ele><time>2026-04-04T13:30:41Z</time></trkpt><trkpt lat="43.80096197083285" lon="11.202321228792897"><ele>38.0</ele><time>2026-04-04T13:30:42Z</time></trkpt><trkpt lat="43.80094559247504" lon="11.202054066465678"><ele>38.0</ele><time>2026-04-04T13:30:43Z</time></trkpt><trkpt lat="43.80093201950386" lon="11.201802543271189"><ele>38.0</ele><time>2026-04-04T13:30:44Z</time></trkpt><trkpt lat="43.80093006023323" lon="11.201563266522312"><ele>38.0</ele><time>2026-04-04T13:30:45Z</time></trkpt><trkpt lat="43.80095322982188" lon="11.201320960129758"><ele>38.0</ele><time>2026-04-04T13:30:46Z</time></trkpt><trkpt lat="43.80101099248994" lon="11.2010887936237"><ele>38.0</ele><time>2026-04-04T13:30:47Z</time></trkpt><trkpt lat="43.80110418761426" lon="11.20087436382986"><ele>38.0</ele><time>2026-04-04T13:30:48Z</time></trkpt><trkpt lat="43.801245889317784" lon="11.200651127463646"><ele>38.0</ele><time>2026-04-04T13:30:49Z</time></trkpt><trkpt lat="43.8014026076322" lon="11.200414270026295"><ele>38.0</ele><time>2026-04-04T13:30:50Z</time></trkpt><trkpt lat="43.801564242085874" lon="11.200165866568765"><ele>38.0</ele><time>2026-04-04T13:30:51Z</time></trkpt><trkpt lat="43.80173285282046" lon="11.19990344304774"><ele>38.5</ele><time>2026-04-04T13:30:52Z</time></trkpt><trkpt lat="43.80190715154206" lon="11.199624212030196"><ele>39.0</ele><time>2026-04-04T13:30:53Z</time></trkpt><trkpt lat="43.80208279528948" lon="11.199339277741075"><ele>39.0</ele><time>2026-04-04T13:30:54Z</time></trkpt><trkpt lat="43.80225877290115" lon="11.199055809747641"><ele>39.0</ele><time>2026-04-04T13:30:55Z</time></trkpt><trkpt lat="43.80244111091784" lon="11.198765662647551"><ele>38.0</ele><time>2026-04-04T13:30:56Z</time></trkpt><trkpt lat="43.80263051989228" lon="11.198471622649903"><ele>37.0</ele><time>2026-04-04T13:30:57Z</time></trkpt><trkpt lat="43.802831227116094" lon="11.198166629060156"><ele>37.0</ele><time>2026-04-04T13:30:58Z</time></trkpt><trkpt lat="43.80304205885561" lon="11.19783664590667"><ele>37.0</ele><time>2026-04-04T13:30:59Z</time></trkpt><trkpt lat="43.8032649014114" lon="11.197491596639825"><ele>37.5</ele><time>2026-04-04T13:31:00Z</time></trkpt><trkpt lat="43.803497683804125" lon="11.197138426928685"><ele>38.0</ele><time>2026-04-04T13:31:01Z</time></trkpt><trkpt lat="43.80373859923588" lon="11.196770895216655"><ele>38.0</ele><time>2026-04-04T13:31:02Z</time></trkpt><trkpt lat="43.80398275656354" lon="11.196396983181414"><ele>38.0</ele><time>2026-04-04T13:31:03Z</time></trkpt><trkpt lat="43.80422969942525" lon="11.196014734291472"><ele>36.5</ele><time>2026-04-04T13:31:04Z</time></trkpt><trkpt lat="43.80447809076029" lon="11.195628749930746"><ele>35.0</ele><time>2026-04-04T13:31:05Z</time></trkpt><trkpt lat="43.80472927760598" lon="11.195238526242388"><ele>35.0</ele><time>2026-04-04T13:31:06Z</time></trkpt><trkpt lat="43.80498111917628" lon="11.19484250788533"><ele>35.0</ele><time>2026-04-04T13:31:07Z</time></trkpt><trkpt lat="43.80523955471864" lon="11.194440468990873"><ele>35.5</ele><time>2026-04-04T13:31:08Z</time></trkpt><trkpt lat="43.805493740172004" lon="11.194046616800856"><ele>36.0</ele><time>2026-04-04T13:31:09Z</time></trkpt><trkpt lat="43.805729295109856" lon="11.193688105873132"><ele>36.0</ele><time>2026-04-04T13:31:10Z</time></trkpt><trkpt lat="43.805947126830404" lon="11.19335166759245"><ele>36.0</ele><time>2026-04-04T13:31:11Z</time></trkpt><trkpt lat="43.806161495648546" lon="11.193016294584956"><ele>36.0</ele><time>2026-04-04T13:31:12Z</time></trkpt><trkpt lat="43.80637932647434" lon="11.192674938445768"><ele>36.0</ele><time>2026-04-04T13:31:13Z</time></trkpt><trkpt lat="43.80660505065973" lon="11.192327808053067"><ele>36.0</ele><time>2026-04-04T13:31:14Z</time></trkpt><trkpt lat="43.806827093713345" lon="11.191992383615679"><ele>36.0</ele><time>2026-04-04T13:31:15Z</time></trkpt><trkpt lat="43.80702911673805" lon="11.191683110486174"><ele>37.0</ele><time>2026-04-04T13:31:16Z</time></trkpt><trkpt lat="43.8072162205426" lon="11.191384989907194"><ele>38.0</ele><time>2026-04-04T13:31:17Z</time></trkpt><trkpt lat="43.807397994030815" lon="11.191105592717745"><ele>38.0</ele><time>2026-04-04T13:31:18Z</time></trkpt><trkpt lat="43.80757420662085" lon="11.190846402631704"><ele>38.0</ele><time>2026-04-04T13:31:19Z</time></trkpt><trkpt lat="43.807736272281936" lon="11.190598135957876"><ele>38.0</ele><time>2026-04-04T13:31:20Z</time></trkpt><trkpt lat="43.807889347486636" lon="11.190357063307337"><ele>38.0</ele><time>2026-04-04T13:31:21Z</time></trkpt><trkpt lat="43.808038799918904" lon="11.190124998813678"><ele>38.0</ele><time>2026-04-04T13:31:22Z</time></trkpt><trkpt lat="43.80819537289696" lon="11.189882125684365"><ele>38.0</ele><time>2026-04-04T13:31:23Z</time></trkpt><trkpt lat="43.80835580015118" lon="11.189639976535101"><ele>37.0</ele><time>2026-04-04T13:31:24Z</time></trkpt><trkpt lat="43.808517526913235" lon="11.189400038013325"><ele>36.0</ele><time>2026-04-04T13:31:25Z</time></trkpt><trkpt lat="43.80867063012406" lon="11.189160582820094"><ele>36.666666666666664</ele><time>2026-04-04T13:31:26Z</time></trkpt><trkpt lat="43.80881395145496" lon="11.18893114389241"><ele>37.33333333333333</ele><time>2026-04-04T13:31:27Z</time></trkpt><trkpt lat="43.80895820555406" lon="11.188705374527595"><ele>38.0</ele><time>2026-04-04T13:31:28Z</time></trkpt><trkpt lat="43.809109573328875" lon="11.188479877504692"><ele>38.0</ele><time>2026-04-04T13:31:29Z</time></trkpt><trkpt lat="43.80926627462976" lon="11.188258747128485"><ele>38.0</ele><time>2026-04-04T13:31:30Z</time></trkpt><trkpt lat="43.80941946155531" lon="11.188047518207528"><ele>38.0</ele><time>2026-04-04T13:31:31Z</time></trkpt><trkpt lat="43.809567977273126" lon="11.187838651427688"><ele>37.666666666666664</ele><time>2026-04-04T13:31:32Z</time></trkpt><trkpt lat="43.809712918563825" lon="11.187626048536778"><ele>37.333333333333336</ele><time>2026-04-04T13:31:33Z</time></trkpt><trkpt lat="43.80985210517415" lon="11.187423126197581"><ele>37.0</ele><time>2026-04-04T13:31:34Z</time></trkpt><trkpt lat="43.809981117194056" lon="11.18722954359173"><ele>37.0</ele><time>2026-04-04T13:31:35Z</time></trkpt><trkpt lat="43.81010616849614" lon="11.187022131240022"><ele>37.0</ele><time>2026-04-04T13:31:36Z</time></trkpt><trkpt lat="43.810232714493566" lon="11.18681271305502"><ele>37.0</ele><time>2026-04-04T13:31:37Z</time></trkpt><trkpt lat="43.81037719314677" lon="11.186588062335476"><ele>36.66666666666667</ele><time>2026-04-04T13:31:38Z</time></trkpt><trkpt lat="43.81053296150165" lon="11.186376998632806"><ele>36.333333333333336</ele><time>2026-04-04T13:31:39Z</time></trkpt><trkpt lat="43.810687596074175" lon="11.186186959637944"><ele>36.0</ele><time>2026-04-04T13:31:40Z</time></trkpt><trkpt lat="43.81084857411144" lon="11.186018130532952"><ele>35.333333333333336</ele><time>2026-04-04T13:31:41Z</time></trkpt><trkpt lat="43.811011058801036" lon="11.18587872273056"><ele>34.66666666666667</ele><time>2026-04-04T13:31:42Z</time></trkpt><trkpt lat="43.81117922876391" lon="11.185766997714"><ele>34.0</ele><time>2026-04-04T13:31:43Z</time></trkpt><trkpt lat="43.811352723844365" lon="11.185700240274027"><ele>34.333333333333336</ele><time>2026-04-04T13:31:44Z</time></trkpt><trkpt lat="43.8115372281146" lon="11.185653184828682"><ele>34.666666666666664</ele><time>2026-04-04T13:31:45Z</time></trkpt><trkpt lat="43.81172712105707" lon="11.185634819464205"><ele>35.0</ele><time>2026-04-04T13:31:46Z</time></trkpt><trkpt lat="43.81193700198882" lon="11.185663557614106"><ele>34.666666666666664</ele><time>2026-04-04T13:31:47Z</time></trkpt><trkpt lat="43.81216280539745" lon="11.185715729813802"><ele>34.333333333333336</ele><time>2026-04-04T13:31:48Z</time></trkpt><trkpt lat="43.8123589399933" lon="11.185784412722883"><ele>34.0</ele><time>2026-04-04T13:31:49Z</time></trkpt><trkpt lat="43.81252024445814" lon="11.185847176728362"><ele>35.0</ele><time>2026-04-04T13:31:50Z</time></trkpt><trkpt lat="43.81267139271984" lon="11.185897885457045"><ele>36.0</ele><time>2026-04-04T13:31:51Z</time></trkpt><trkpt lat="43.81281850202449" lon="11.185939888175861"><ele>37.0</ele><time>2026-04-04T13:31:52Z</time></trkpt><trkpt lat="43.81295775487117" lon="11.185984580494937"><ele>38.0</ele><time>2026-04-04T13:31:53Z</time></trkpt><trkpt lat="43.81309741022766" lon="11.186030025127971"><ele>38.0</ele><time>2026-04-04T13:31:54Z</time></trkpt><trkpt lat="43.81322316894766" lon="11.186082227771509"><ele>38.0</ele><time>2026-04-04T13:31:55Z</time></trkpt><trkpt lat="43.8133424778175" lon="11.186138473900044"><ele>38.0</ele><time>2026-04-04T13:31:56Z</time></trkpt><trkpt lat="43.813459780756986" lon="11.186210757750956"><ele>38.0</ele><time>2026-04-04T13:31:56.999Z</time></trkpt><trkpt lat="43.81357635844802" lon="11.186283451104588"><ele>38.5</ele><time>2026-04-04T13:31:57.999Z</time></trkpt><trkpt lat="43.81369824233368" lon="11.18636775463951"><ele>39.0</ele><time>2026-04-04T13:31:58.999Z</time></trkpt><trkpt lat="43.81382635991205" lon="11.186460639029775"><ele>39.5</ele><time>2026-04-04T13:31:59.999Z</time></trkpt><trkpt lat="43.81394758478674" lon="11.186554916331"><ele>40.0</ele><time>2026-04-04T13:32:00.999Z</time></trkpt><trkpt lat="43.81405908521408" lon="11.186645163344386"><ele>40.0</ele><time>2026-04-04T13:32:01.999Z</time></trkpt><trkpt lat="43.81415666275761" lon="11.186728328852197"><ele>40.0</ele><time>2026-04-04T13:32:02.999Z</time></trkpt><trkpt lat="43.81425094630904" lon="11.186802197040176"><ele>40.0</ele><time>2026-04-04T13:32:03.999Z</time></trkpt><trkpt lat="43.81434467080615" lon="11.18687771130042"><ele>40.0</ele><time>2026-04-04T13:32:04.999Z</time></trkpt><trkpt lat="43.81444868275436" lon="11.186955054671047"><ele>40.0</ele><time>2026-04-04T13:32:05.999Z</time></trkpt><trkpt lat="43.81456598379718" lon="11.187030763793246"><ele>38.66666666666667</ele><time>2026-04-04T13:32:06.999Z</time></trkpt><trkpt lat="43.8147102798027" lon="11.187095776390432"><ele>37.333333333333336</ele><time>2026-04-04T13:32:07.999Z</time></trkpt><trkpt lat="43.81487275469703" lon="11.187148436817905"><ele>36.0</ele><time>2026-04-04T13:32:08.999Z</time></trkpt><trkpt lat="43.81504398733527" lon="11.187166989771644"><ele>37.333333333333336</ele><time>2026-04-04T13:32:09.999Z</time></trkpt><trkpt lat="43.815206520085745" lon="11.187162701549175"><ele>38.66666666666667</ele><time>2026-04-04T13:32:10.999Z</time></trkpt><trkpt lat="43.81538383920225" lon="11.187132557825723"><ele>40.0</ele><time>2026-04-04T13:32:11.999Z</time></trkpt><trkpt lat="43.815572169653535" lon="11.187082439254585"><ele>40.0</ele><time>2026-04-04T13:32:12.999Z</time></trkpt><trkpt lat="43.81575867786372" lon="11.186988229863132"><ele>40.0</ele><time>2026-04-04T13:32:14Z</time></trkpt><trkpt lat="43.81595183297046" lon="11.186949088373542"><ele>40.0</ele><time>2026-04-04T13:32:15Z</time></trkpt><trkpt lat="43.81613110841942" lon="11.186902450632392"><ele>39.333333333333336</ele><time>2026-04-04T13:32:16Z</time></trkpt><trkpt lat="43.81630780456753" lon="11.186886597944241"><ele>38.666666666666664</ele><time>2026-04-04T13:32:17Z</time></trkpt><trkpt lat="43.81648070644311" lon="11.186905523558625"><ele>38.0</ele><time>2026-04-04T13:32:18Z</time></trkpt><trkpt lat="43.81664673198415" lon="11.18693981376743"><ele>38.0</ele><time>2026-04-04T13:32:19Z</time></trkpt><trkpt lat="43.816799972025834" lon="11.186989534978453"><ele>38.0</ele><time>2026-04-04T13:32:20Z</time></trkpt><trkpt lat="43.81694371896374" lon="11.187063160010538"><ele>38.0</ele><time>2026-04-04T13:32:21Z</time></trkpt><trkpt lat="43.81706847212578" lon="11.187150008152752"><ele>37.75</ele><time>2026-04-04T13:32:22Z</time></trkpt><trkpt lat="43.8171878865406" lon="11.187238731412869"><ele>37.5</ele><time>2026-04-04T13:32:23Z</time></trkpt><trkpt lat="43.81730881482035" lon="11.187349959732783"><ele>37.25</ele><time>2026-04-04T13:32:24Z</time></trkpt><trkpt lat="43.8174488475348" lon="11.18747584831295"><ele>37.0</ele><time>2026-04-04T13:32:25Z</time></trkpt><trkpt lat="43.81760937376898" lon="11.18761316127056"><ele>36.66666666666667</ele><time>2026-04-04T13:32:26Z</time></trkpt><trkpt lat="43.817782659866566" lon="11.187761010391347"><ele>36.333333333333336</ele><time>2026-04-04T13:32:27Z</time></trkpt><trkpt lat="43.81796362027924" lon="11.18791837564972"><ele>36.0</ele><time>2026-04-04T13:32:28Z</time></trkpt><trkpt lat="43.81812400392148" lon="11.188085329831738"><ele>36.666666666666664</ele><time>2026-04-04T13:32:29Z</time></trkpt><trkpt lat="43.818283462033904" lon="11.188202381971276"><ele>37.33333333333333</ele><time>2026-04-04T13:32:30Z</time></trkpt><trkpt lat="43.818423004341774" lon="11.188352368522327"><ele>38.0</ele><time>2026-04-04T13:32:31Z</time></trkpt><trkpt lat="43.81859191927424" lon="11.188473087807598"><ele>38.0</ele><time>2026-04-04T13:32:32Z</time></trkpt><trkpt lat="43.81876875425688" lon="11.188639923768747"><ele>38.0</ele><time>2026-04-04T13:32:33Z</time></trkpt><trkpt lat="43.81895690136364" lon="11.188813688038685"><ele>38.0</ele><time>2026-04-04T13:32:34Z</time></trkpt><trkpt lat="43.81914793552285" lon="11.188982294966454"><ele>38.5</ele><time>2026-04-04T13:32:35Z</time></trkpt><trkpt lat="43.819347146291605" lon="11.189153340977747"><ele>39.0</ele><time>2026-04-04T13:32:36Z</time></trkpt><trkpt lat="43.81954625924923" lon="11.189321776239787"><ele>39.0</ele><time>2026-04-04T13:32:37Z</time></trkpt><trkpt lat="43.81973301713655" lon="11.189484951347476"><ele>39.0</ele><time>2026-04-04T13:32:38Z</time></trkpt><trkpt lat="43.81990973244657" lon="11.189645679926775"><ele>39.0</ele><time>2026-04-04T13:32:39Z</time></trkpt><trkpt lat="43.82008716048486" lon="11.189807546704987"><ele>39.666666666666664</ele><time>2026-04-04T13:32:40Z</time></trkpt><trkpt lat="43.82025628335994" lon="11.189960164218165"><ele>40.33333333333333</ele><time>2026-04-04T13:32:41Z</time></trkpt><trkpt lat="43.82042276142227" lon="11.190104831292166"><ele>41.0</ele><time>2026-04-04T13:32:42Z</time></trkpt><trkpt lat="43.820593602172856" lon="11.190249470661847"><ele>41.0</ele><time>2026-04-04T13:32:43Z</time></trkpt><trkpt lat="43.820749024666824" lon="11.19038687451324"><ele>41.0</ele><time>2026-04-04T13:32:44Z</time></trkpt><trkpt lat="43.82089200123207" lon="11.190516804922838"><ele>41.0</ele><time>2026-04-04T13:32:45Z</time></trkpt><trkpt lat="43.821029426556116" lon="11.190638504643106"><ele>40.0</ele><time>2026-04-04T13:32:46Z</time></trkpt><trkpt lat="43.821165074516415" lon="11.190754315941257"><ele>39.0</ele><time>2026-04-04T13:32:47Z</time></trkpt><trkpt lat="43.82130980767595" lon="11.190871207537851"><ele>38.0</ele><time>2026-04-04T13:32:48Z</time></trkpt><trkpt lat="43.821443893771416" lon="11.190980219183949"><ele>38.0</ele><time>2026-04-04T13:32:49Z</time></trkpt><trkpt lat="43.82156037115141" lon="11.191076969714308"><ele>38.0</ele><time>2026-04-04T13:32:50Z</time></trkpt><trkpt lat="43.8216665390823" lon="11.191165647286043"><ele>38.0</ele><time>2026-04-04T13:32:51Z</time></trkpt><trkpt lat="43.82176838481948" lon="11.191251646704695"><ele>38.0</ele><time>2026-04-04T13:32:52Z</time></trkpt><trkpt lat="43.821872821065284" lon="11.191338582109323"><ele>38.0</ele><time>2026-04-04T13:32:53Z</time></trkpt><trkpt lat="43.82199318931889" lon="11.191439708742363"><ele>38.0</ele><time>2026-04-04T13:32:54Z</time></trkpt><trkpt lat="43.82212256176206" lon="11.191546548860114"><ele>38.0</ele><time>2026-04-04T13:32:55Z</time></trkpt><trkpt lat="43.82226312278289" lon="11.191654105945776"><ele>37.666666666666664</ele><time>2026-04-04T13:32:56Z</time></trkpt><trkpt lat="43.82241740732994" lon="11.19176697967705"><ele>37.333333333333336</ele><time>2026-04-04T13:32:57Z</time></trkpt><trkpt lat="43.82256791404373" lon="11.191918538390526"><ele>37.0</ele><time>2026-04-04T13:32:58Z</time></trkpt><trkpt lat="43.82273271102248" lon="11.192055963265336"><ele>37.0</ele><time>2026-04-04T13:32:59Z</time></trkpt><trkpt lat="43.82289467506477" lon="11.192168489334186"><ele>37.0</ele><time>2026-04-04T13:33:00Z</time></trkpt><trkpt lat="43.82303757432557" lon="11.192282326145401"><ele>37.0</ele><time>2026-04-04T13:33:01Z</time></trkpt><trkpt lat="43.82318240899405" lon="11.192379552668928"><ele>37.66666666666667</ele><time>2026-04-04T13:33:02Z</time></trkpt><trkpt lat="43.823341074961476" lon="11.19244725009331"><ele>38.333333333333336</ele><time>2026-04-04T13:33:03Z</time></trkpt><trkpt lat="43.82348890202298" lon="11.192491806160843"><ele>39.0</ele><time>2026-04-04T13:33:04Z</time></trkpt><trkpt lat="43.823623535207865" lon="11.192526401937203"><ele>39.0</ele><time>2026-04-04T13:33:05Z</time></trkpt><trkpt lat="43.82374467615392" lon="11.192577830171823"><ele>39.0</ele><time>2026-04-04T13:33:06Z</time></trkpt><trkpt lat="43.82385353461843" lon="11.192667366089701"><ele>39.0</ele><time>2026-04-04T13:33:07Z</time></trkpt><trkpt lat="43.823933412926635" lon="11.192789595789545"><ele>39.0</ele><time>2026-04-04T13:33:08Z</time></trkpt><trkpt lat="43.824003461033854" lon="11.192898691868406"><ele>39.0</ele><time>2026-04-04T13:33:09Z</time></trkpt><trkpt lat="43.82408135809763" lon="11.192957139460953"><ele>39.0</ele><time>2026-04-04T13:33:10Z</time></trkpt><trkpt lat="43.82417035100787" lon="11.192956992633786"><ele>39.0</ele><time>2026-04-04T13:33:11Z</time></trkpt><trkpt lat="43.82426089715516" lon="11.192902302087413"><ele>39.0</ele><time>2026-04-04T13:33:12Z</time></trkpt><trkpt lat="43.82432303915228" lon="11.192793747165537"><ele>39.0</ele><time>2026-04-04T13:33:13Z</time></trkpt><trkpt lat="43.82436708794364" lon="11.192636510924638"><ele>39.0</ele><time>2026-04-04T13:33:14Z</time></trkpt><trkpt lat="43.82435465459627" lon="11.192450417792537"><ele>39.0</ele><time>2026-04-04T13:33:15Z</time></trkpt><trkpt lat="43.82438371754279" lon="11.19221860818603"><ele>39.0</ele><time>2026-04-04T13:33:16Z</time></trkpt><trkpt lat="43.824415355181046" lon="11.192008448153913"><ele>39.0</ele><time>2026-04-04T13:33:17Z</time></trkpt><trkpt lat="43.82453765813963" lon="11.191809847729386"><ele>39.0</ele><time>2026-04-04T13:33:18Z</time></trkpt><trkpt lat="43.82465524646586" lon="11.191611877115276"><ele>39.0</ele><time>2026-04-04T13:33:19Z</time></trkpt><trkpt lat="43.824789672178255" lon="11.19139834340442"><ele>38.666666666666664</ele><time>2026-04-04T13:33:20Z</time></trkpt><trkpt lat="43.824919761041684" lon="11.19116448710982"><ele>38.33333333333333</ele><time>2026-04-04T13:33:21Z</time></trkpt><trkpt lat="43.82504626783564" lon="11.190902195195346"><ele>38.0</ele><time>2026-04-04T13:33:22Z</time></trkpt><trkpt lat="43.825173718589305" lon="11.190623625974121"><ele>39.0</ele><time>2026-04-04T13:33:23Z</time></trkpt><trkpt lat="43.825295416078134" lon="11.19033357775251"><ele>40.0</ele><time>2026-04-04T13:33:24Z</time></trkpt><trkpt lat="43.825414198942745" lon="11.190035596980954"><ele>39.0</ele><time>2026-04-04T13:33:25Z</time></trkpt><trkpt lat="43.82554396734836" lon="11.18972109955224"><ele>38.0</ele><time>2026-04-04T13:33:26Z</time></trkpt><trkpt lat="43.82567193823737" lon="11.189418986467766"><ele>38.0</ele><time>2026-04-04T13:33:27Z</time></trkpt><trkpt lat="43.82579619680839" lon="11.18913014449417"><ele>38.0</ele><time>2026-04-04T13:33:28Z</time></trkpt><trkpt lat="43.82592175320291" lon="11.188841523440828"><ele>38.0</ele><time>2026-04-04T13:33:29Z</time></trkpt><trkpt lat="43.8260483739255" lon="11.1885405499153"><ele>38.0</ele><time>2026-04-04T13:33:30Z</time></trkpt><trkpt lat="43.826171774810135" lon="11.188235858013131"><ele>38.0</ele><time>2026-04-04T13:33:31Z</time></trkpt><trkpt lat="43.82629586439272" lon="11.187928446405648"><ele>38.0</ele><time>2026-04-04T13:33:32Z</time></trkpt><trkpt lat="43.82642126575428" lon="11.187621984283886"><ele>38.0</ele><time>2026-04-04T13:33:33Z</time></trkpt><trkpt lat="43.82654037315345" lon="11.18733601494059"><ele>38.0</ele><time>2026-04-04T13:33:34Z</time></trkpt><trkpt lat="43.826660595589146" lon="11.18705067532613"><ele>38.0</ele><time>2026-04-04T13:33:35Z</time></trkpt><trkpt lat="43.826781373294615" lon="11.186763894950339"><ele>38.0</ele><time>2026-04-04T13:33:36Z</time></trkpt><trkpt lat="43.8268954210317" lon="11.186486425165516"><ele>37.666666666666664</ele><time>2026-04-04T13:33:37Z</time></trkpt><trkpt lat="43.82700690965036" lon="11.186225001608758"><ele>37.333333333333336</ele><time>2026-04-04T13:33:38Z</time></trkpt><trkpt lat="43.827120391747385" lon="11.185957214980617"><ele>37.0</ele><time>2026-04-04T13:33:39Z</time></trkpt><trkpt lat="43.82724328432162" lon="11.185675404705169"><ele>38.0</ele><time>2026-04-04T13:33:40Z</time></trkpt><trkpt lat="43.82736807552149" lon="11.18538715888584"><ele>39.0</ele><time>2026-04-04T13:33:41Z</time></trkpt><trkpt lat="43.827482224012876" lon="11.18511985338851"><ele>39.0</ele><time>2026-04-04T13:33:42Z</time></trkpt><trkpt lat="43.82758904630579" lon="11.184863824048811"><ele>39.0</ele><time>2026-04-04T13:33:43Z</time></trkpt><trkpt lat="43.82769687291121" lon="11.184617504115332"><ele>39.0</ele><time>2026-04-04T13:33:44Z</time></trkpt><trkpt lat="43.82780211205466" lon="11.184377063914663"><ele>38.666666666666664</ele><time>2026-04-04T13:33:45Z</time></trkpt><trkpt lat="43.827896833526" lon="11.18414770998822"><ele>38.33333333333333</ele><time>2026-04-04T13:33:46Z</time></trkpt><trkpt lat="43.82798715856263" lon="11.1839280281514"><ele>38.0</ele><time>2026-04-04T13:33:47Z</time></trkpt><trkpt lat="43.82807407883104" lon="11.183714158946398"><ele>38.0</ele><time>2026-04-04T13:33:48Z</time></trkpt><trkpt lat="43.828159104911535" lon="11.18352515146404"><ele>38.0</ele><time>2026-04-04T13:33:49Z</time></trkpt><trkpt lat="43.82823879417209" lon="11.1833614694014"><ele>38.0</ele><time>2026-04-04T13:33:50Z</time></trkpt><trkpt lat="43.82832166041112" lon="11.1832177679513"><ele>38.0</ele><time>2026-04-04T13:33:51Z</time></trkpt><trkpt lat="43.82841554503312" lon="11.183112203768447"><ele>38.5</ele><time>2026-04-04T13:33:52Z</time></trkpt><trkpt lat="43.82851314953106" lon="11.182996164725497"><ele>39.0</ele><time>2026-04-04T13:33:53Z</time></trkpt><trkpt lat="43.82862351864749" lon="11.182963195167401"><ele>39.5</ele><time>2026-04-04T13:33:54Z</time></trkpt><trkpt lat="43.82871967353126" lon="11.182862552705021"><ele>40.0</ele><time>2026-04-04T13:33:55Z</time></trkpt><trkpt lat="43.8287891025886" lon="11.182724217921738"><ele>40.0</ele><time>2026-04-04T13:33:56Z</time></trkpt><trkpt lat="43.82878356081105" lon="11.182518830957006"><ele>40.0</ele><time>2026-04-04T13:33:57Z</time></trkpt><trkpt lat="43.828817086445085" lon="11.182320033645205"><ele>40.0</ele><time>2026-04-04T13:33:58Z</time></trkpt><trkpt lat="43.82896815014205" lon="11.18215713749924"><ele>39.66666666666667</ele><time>2026-04-04T13:33:59Z</time></trkpt><trkpt lat="43.82910127427618" lon="11.181976868170814"><ele>39.333333333333336</ele><time>2026-04-04T13:34:00Z</time></trkpt><trkpt lat="43.82926720940519" lon="11.181802380121372"><ele>39.0</ele><time>2026-04-04T13:34:01Z</time></trkpt><trkpt lat="43.82944464201345" lon="11.181613084747514"><ele>38.5</ele><time>2026-04-04T13:34:02Z</time></trkpt><trkpt lat="43.829612437740096" lon="11.1813920040608"><ele>38.0</ele><time>2026-04-04T13:34:03Z</time></trkpt><trkpt lat="43.8297849992744" lon="11.181152202557417"><ele>38.0</ele><time>2026-04-04T13:34:04Z</time></trkpt><trkpt lat="43.82997866329643" lon="11.180905234681672"><ele>38.0</ele><time>2026-04-04T13:34:05Z</time></trkpt><trkpt lat="43.83018580721526" lon="11.180639062761298"><ele>37.5</ele><time>2026-04-04T13:34:06Z</time></trkpt><trkpt lat="43.830411472375914" lon="11.180345388134286"><ele>37.0</ele><time>2026-04-04T13:34:07Z</time></trkpt><trkpt lat="43.830631473499736" lon="11.180050979282333"><ele>37.0</ele><time>2026-04-04T13:34:08Z</time></trkpt><trkpt lat="43.830869580435454" lon="11.179740706977752"><ele>37.0</ele><time>2026-04-04T13:34:09Z</time></trkpt><trkpt lat="43.83112741966832" lon="11.179410709821004"><ele>37.5</ele><time>2026-04-04T13:34:10Z</time></trkpt><trkpt lat="43.83139546280105" lon="11.179078974672692"><ele>38.0</ele><time>2026-04-04T13:34:11Z</time></trkpt><trkpt lat="43.83162340296187" lon="11.178781970341497"><ele>38.5</ele><time>2026-04-04T13:34:12Z</time></trkpt><trkpt lat="43.831837559162985" lon="11.17850709208897"><ele>39.0</ele><time>2026-04-04T13:34:13Z</time></trkpt><trkpt lat="43.83203786025506" lon="11.178251426052068"><ele>38.5</ele><time>2026-04-04T13:34:13.999Z</time></trkpt><trkpt lat="43.832225133403" lon="11.17800644541219"><ele>38.0</ele><time>2026-04-04T13:34:14.999Z</time></trkpt><trkpt lat="43.832407212748286" lon="11.177767789417345"><ele>38.0</ele><time>2026-04-04T13:34:15.999Z</time></trkpt><trkpt lat="43.83258487846548" lon="11.177525240175003"><ele>38.0</ele><time>2026-04-04T13:34:16.999Z</time></trkpt><trkpt lat="43.83276451355446" lon="11.177304727356141"><ele>38.0</ele><time>2026-04-04T13:34:17.999Z</time></trkpt><trkpt lat="43.83293886825972" lon="11.177079897422113"><ele>38.0</ele><time>2026-04-04T13:34:18.999Z</time></trkpt><trkpt lat="43.83312316068103" lon="11.176838352865927"><ele>38.0</ele><time>2026-04-04T13:34:20Z</time></trkpt><trkpt lat="43.833322351586425" lon="11.176600985077913"><ele>38.0</ele><time>2026-04-04T13:34:21Z</time></trkpt><trkpt lat="43.83353114496602" lon="11.176346762608539"><ele>37.5</ele><time>2026-04-04T13:34:22Z</time></trkpt><trkpt lat="43.833736145818854" lon="11.176088300144327"><ele>37.0</ele><time>2026-04-04T13:34:23Z</time></trkpt><trkpt lat="43.83392090670424" lon="11.175851389564427"><ele>38.0</ele><time>2026-04-04T13:34:24Z</time></trkpt><trkpt lat="43.83410171742826" lon="11.17562105836839"><ele>39.0</ele><time>2026-04-04T13:34:25Z</time></trkpt><trkpt lat="43.83427427053323" lon="11.17539556324391"><ele>39.0</ele><time>2026-04-04T13:34:26Z</time></trkpt><trkpt lat="43.834418044380854" lon="11.175203270737336"><ele>39.0</ele><time>2026-04-04T13:34:27Z</time></trkpt><trkpt lat="43.83457543694041" lon="11.175042024422138"><ele>39.0</ele><time>2026-04-04T13:34:28Z</time></trkpt><trkpt lat="43.83472739559662" lon="11.174884820542758"><ele>39.666666666666664</ele><time>2026-04-04T13:34:29Z</time></trkpt><trkpt lat="43.83486483419728" lon="11.174721394264482"><ele>40.33333333333333</ele><time>2026-04-04T13:34:30Z</time></trkpt><trkpt lat="43.834985420413275" lon="11.174575044253904"><ele>41.0</ele><time>2026-04-04T13:34:31Z</time></trkpt><trkpt lat="43.83510151383057" lon="11.174439144712112"><ele>40.75</ele><time>2026-04-04T13:34:32Z</time></trkpt><trkpt lat="43.835208382481085" lon="11.174308232737781"><ele>40.5</ele><time>2026-04-04T13:34:33Z</time></trkpt><trkpt lat="43.83530704402051" lon="11.174183815188092"><ele>40.25</ele><time>2026-04-04T13:34:34Z</time></trkpt><trkpt lat="43.835398171584686" lon="11.174067718789187"><ele>40.0</ele><time>2026-04-04T13:34:35Z</time></trkpt><trkpt lat="43.83548581132612" lon="11.173965996860854"><ele>39.8</ele><time>2026-04-04T13:34:36Z</time></trkpt><trkpt lat="43.8355701293392" lon="11.173868200910816"><ele>39.6</ele><time>2026-04-04T13:34:37Z</time></trkpt><trkpt lat="43.83564874772996" lon="11.173776136409806"><ele>39.4</ele><time>2026-04-04T13:34:38Z</time></trkpt><trkpt lat="43.835724152251345" lon="11.173680579201386"><ele>39.2</ele><time>2026-04-04T13:34:39Z</time></trkpt><trkpt lat="43.83578990155759" lon="11.173577542383677"><ele>39.0</ele><time>2026-04-04T13:34:40Z</time></trkpt><trkpt lat="43.83585276827461" lon="11.173471002082833"><ele>39.0</ele><time>2026-04-04T13:34:41Z</time></trkpt><trkpt lat="43.83591506563979" lon="11.173368718231416"><ele>39.0</ele><time>2026-04-04T13:34:42Z</time></trkpt><trkpt lat="43.83597359014393" lon="11.17326343541722"><ele>39.0</ele><time>2026-04-04T13:34:43Z</time></trkpt><trkpt lat="43.83603068890343" lon="11.173165075014385"><ele>39.0</ele><time>2026-04-04T13:34:44Z</time></trkpt><trkpt lat="43.836087122687395" lon="11.17308872176186"><ele>39.0</ele><time>2026-04-04T13:34:45Z</time></trkpt><trkpt lat="43.836146743242715" lon="11.173013059078508"><ele>39.0</ele><time>2026-04-04T13:34:46Z</time></trkpt><trkpt lat="43.83623086232002" lon="11.172951460416469"><ele>39.0</ele><time>2026-04-04T13:34:47Z</time></trkpt><trkpt lat="43.8363322219314" lon="11.172911848527301"><ele>39.0</ele><time>2026-04-04T13:34:48Z</time></trkpt><trkpt lat="43.83643944622054" lon="11.172883514381002"><ele>39.0</ele><time>2026-04-04T13:34:49Z</time></trkpt><trkpt lat="43.8365598825263" lon="11.172888127882276"><ele>39.0</ele><time>2026-04-04T13:34:50Z</time></trkpt><trkpt lat="43.836690089892635" lon="11.172934543812055"><ele>39.666666666666664</ele><time>2026-04-04T13:34:51Z</time></trkpt><trkpt lat="43.83682111558922" lon="11.173003090664363"><ele>40.33333333333333</ele><time>2026-04-04T13:34:52Z</time></trkpt><trkpt lat="43.836959690447415" lon="11.173103261142474"><ele>41.0</ele><time>2026-04-04T13:34:53Z</time></trkpt><trkpt lat="43.837105374111765" lon="11.173222911212719"><ele>41.0</ele><time>2026-04-04T13:34:54Z</time></trkpt><trkpt lat="43.83726471225933" lon="11.173368003840618"><ele>41.0</ele><time>2026-04-04T13:34:55Z</time></trkpt><trkpt lat="43.83744337045405" lon="11.173513851040864"><ele>41.0</ele><time>2026-04-04T13:34:56Z</time></trkpt><trkpt lat="43.83764207679047" lon="11.17367640056299"><ele>41.5</ele><time>2026-04-04T13:34:57Z</time></trkpt><trkpt lat="43.8378403530185" lon="11.173844040226992"><ele>42.0</ele><time>2026-04-04T13:34:58Z</time></trkpt><trkpt lat="43.838036353350645" lon="11.17401657145275"><ele>42.5</ele><time>2026-04-04T13:34:59Z</time></trkpt><trkpt lat="43.83823143579232" lon="11.174188311391829"><ele>43.0</ele><time>2026-04-04T13:35:00Z</time></trkpt><trkpt lat="43.83842145417444" lon="11.174359198887243"><ele>43.333333333333336</ele><time>2026-04-04T13:35:01Z</time></trkpt><trkpt lat="43.838594587630425" lon="11.174510930721867"><ele>43.666666666666664</ele><time>2026-04-04T13:35:02Z</time></trkpt><trkpt lat="43.838759549280326" lon="11.17465030489442"><ele>44.0</ele><time>2026-04-04T13:35:03Z</time></trkpt><trkpt lat="43.83890574558765" lon="11.17477628511725"><ele>44.0</ele><time>2026-04-04T13:35:04Z</time></trkpt><trkpt lat="43.83902696075324" lon="11.174895612292485"><ele>44.0</ele><time>2026-04-04T13:35:05Z</time></trkpt><trkpt lat="43.839143030226836" lon="11.175014398661999"><ele>44.0</ele><time>2026-04-04T13:35:06Z</time></trkpt><trkpt lat="43.8392431324606" lon="11.175152910235706"><ele>44.0</ele><time>2026-04-04T13:35:07Z</time></trkpt><trkpt lat="43.839329986465515" lon="11.175289043624206"><ele>44.0</ele><time>2026-04-04T13:35:08Z</time></trkpt><trkpt lat="43.83940547794821" lon="11.175424220433387"><ele>44.0</ele><time>2026-04-04T13:35:09Z</time></trkpt><trkpt lat="43.83947606887646" lon="11.175539411663653"><ele>44.0</ele><time>2026-04-04T13:35:10Z</time></trkpt><trkpt lat="43.83956683282488" lon="11.175606350761678"><ele>44.0</ele><time>2026-04-04T13:35:11Z</time></trkpt><trkpt lat="43.839668587539784" lon="11.175628614264948"><ele>44.0</ele><time>2026-04-04T13:35:12Z</time></trkpt><trkpt lat="43.839777471915184" lon="11.175623494479396"><ele>44.0</ele><time>2026-04-04T13:35:13Z</time></trkpt><trkpt lat="43.839883487644464" lon="11.175640508453126"><ele>44.0</ele><time>2026-04-04T13:35:14Z</time></trkpt><trkpt lat="43.84000248802669" lon="11.175702911096757"><ele>44.0</ele><time>2026-04-04T13:35:15Z</time></trkpt><trkpt lat="43.84012890286896" lon="11.175800297615423"><ele>44.0</ele><time>2026-04-04T13:35:16Z</time></trkpt><trkpt lat="43.84026887535504" lon="11.175943289259806"><ele>44.0</ele><time>2026-04-04T13:35:17Z</time></trkpt><trkpt lat="43.8404365698083" lon="11.176106064945596"><ele>44.0</ele><time>2026-04-04T13:35:18Z</time></trkpt><trkpt lat="43.84060728513916" lon="11.176260413451823"><ele>44.0</ele><time>2026-04-04T13:35:19Z</time></trkpt><trkpt lat="43.84076515201561" lon="11.176397755424814"><ele>44.666666666666664</ele><time>2026-04-04T13:35:20Z</time></trkpt><trkpt lat="43.840916415441406" lon="11.176529384374824"><ele>45.333333333333336</ele><time>2026-04-04T13:35:21Z</time></trkpt><trkpt lat="43.841053536859654" lon="11.176656004588592"><ele>46.0</ele><time>2026-04-04T13:35:22Z</time></trkpt><trkpt lat="43.84117857489529" lon="11.176798058414542"><ele>46.0</ele><time>2026-04-04T13:35:23Z</time></trkpt><trkpt lat="43.84126941763035" lon="11.176965492334933"><ele>46.0</ele><time>2026-04-04T13:35:24Z</time></trkpt><trkpt lat="43.84132161087873" lon="11.177152496649692"><ele>46.0</ele><time>2026-04-04T13:35:25Z</time></trkpt><trkpt lat="43.84134823017529" lon="11.177340019902797"><ele>46.0</ele><time>2026-04-04T13:35:26Z</time></trkpt><trkpt lat="43.841352975198255" lon="11.177526170724269"><ele>45.8</ele><time>2026-04-04T13:35:27Z</time></trkpt><trkpt lat="43.841357318440366" lon="11.177707354320457"><ele>45.599999999999994</ele><time>2026-04-04T13:35:28Z</time></trkpt><trkpt lat="43.84137068478286" lon="11.177872922597285"><ele>45.4</ele><time>2026-04-04T13:35:29Z</time></trkpt><trkpt lat="43.841401706237136" lon="11.178003837033364"><ele>45.2</ele><time>2026-04-04T13:35:30Z</time></trkpt><trkpt lat="43.841447171759356" lon="11.17811674428742"><ele>45.0</ele><time>2026-04-04T13:35:31Z</time></trkpt><trkpt lat="43.84149283177356" lon="11.178206742227756"><ele>45.6</ele><time>2026-04-04T13:35:32Z</time></trkpt><trkpt lat="43.84154557994686" lon="11.178289915306358"><ele>46.2</ele><time>2026-04-04T13:35:33Z</time></trkpt><trkpt lat="43.84161343297278" lon="11.178376016098666"><ele>46.8</ele><time>2026-04-04T13:35:34Z</time></trkpt><trkpt lat="43.84170318780999" lon="11.178469204025152"><ele>47.4</ele><time>2026-04-04T13:35:35Z</time></trkpt><trkpt lat="43.84180529312381" lon="11.17855265971266"><ele>48.0</ele><time>2026-04-04T13:35:36Z</time></trkpt><trkpt lat="43.84190838818921" lon="11.178619919209385"><ele>48.25</ele><time>2026-04-04T13:35:37Z</time></trkpt><trkpt lat="43.842010559970355" lon="11.178694868990435"><ele>48.5</ele><time>2026-04-04T13:35:38Z</time></trkpt><trkpt lat="43.84211712354605" lon="11.178769058066482"><ele>48.75</ele><time>2026-04-04T13:35:39Z</time></trkpt><trkpt lat="43.842211365712025" lon="11.17886140661715"><ele>49.0</ele><time>2026-04-04T13:35:40Z</time></trkpt><trkpt lat="43.842324143703195" lon="11.178975455704858"><ele>49.0</ele><time>2026-04-04T13:35:41Z</time></trkpt><trkpt lat="43.84247064355913" lon="11.179101613341517"><ele>49.0</ele><time>2026-04-04T13:35:42Z</time></trkpt><trkpt lat="43.8426296139835" lon="11.179235725205544"><ele>49.0</ele><time>2026-04-04T13:35:43Z</time></trkpt><trkpt lat="43.84278919506801" lon="11.179377180862653"><ele>49.0</ele><time>2026-04-04T13:35:44Z</time></trkpt><trkpt lat="43.84294089402503" lon="11.179526991749807"><ele>49.0</ele><time>2026-04-04T13:35:45Z</time></trkpt><trkpt lat="43.843078685576394" lon="11.179659382719619"><ele>49.0</ele><time>2026-04-04T13:35:46Z</time></trkpt><trkpt lat="43.843222673200884" lon="11.179787966518562"><ele>49.0</ele><time>2026-04-04T13:35:47Z</time></trkpt><trkpt lat="43.843351459090634" lon="11.17990154953857"><ele>49.0</ele><time>2026-04-04T13:35:48Z</time></trkpt><trkpt lat="43.843469560324515" lon="11.180011624328289"><ele>49.0</ele><time>2026-04-04T13:35:49Z</time></trkpt><trkpt lat="43.84358396778705" lon="11.180104975340152"><ele>49.0</ele><time>2026-04-04T13:35:50Z</time></trkpt><trkpt lat="43.84368350961565" lon="11.18019560490771"><ele>49.2</ele><time>2026-04-04T13:35:51Z</time></trkpt><trkpt lat="43.84375633763527" lon="11.180298612219058"><ele>49.400000000000006</ele><time>2026-04-04T13:35:52Z</time></trkpt><trkpt lat="43.843795185750416" lon="11.18042937372014"><ele>49.6</ele><time>2026-04-04T13:35:53Z</time></trkpt><trkpt lat="43.84381438041131" lon="11.18058678948053"><ele>49.8</ele><time>2026-04-04T13:35:54Z</time></trkpt><trkpt lat="43.8438137504506" lon="11.180738312812744"><ele>50.0</ele><time>2026-04-04T13:35:55Z</time></trkpt><trkpt lat="43.84380911363713" lon="11.180875194030056"><ele>50.16666666666667</ele><time>2026-04-04T13:35:56Z</time></trkpt><trkpt lat="43.8438163227367" lon="11.1809991787333"><ele>50.333333333333336</ele><time>2026-04-04T13:35:57Z</time></trkpt><trkpt lat="43.84383484317061" lon="11.181116940373716"><ele>50.5</ele><time>2026-04-04T13:35:58Z</time></trkpt><trkpt lat="43.84386366794401" lon="11.181218945748597"><ele>50.66666666666667</ele><time>2026-04-04T13:35:59Z</time></trkpt><trkpt lat="43.84388880520907" lon="11.181305878079161"><ele>50.833333333333336</ele><time>2026-04-04T13:36:00Z</time></trkpt><trkpt lat="43.843905246847065" lon="11.181393499555805"><ele>51.0</ele><time>2026-04-04T13:36:01Z</time></trkpt><trkpt lat="43.84391478257716" lon="11.18149307634912"><ele>51.333333333333336</ele><time>2026-04-04T13:36:02Z</time></trkpt><trkpt lat="43.843914039771576" lon="11.181604828639616"><ele>51.66666666666667</ele><time>2026-04-04T13:36:03Z</time></trkpt><trkpt lat="43.84388673012493" lon="11.181726944203398"><ele>52.0</ele><time>2026-04-04T13:36:04Z</time></trkpt><trkpt lat="43.84383258572101" lon="11.181821360145761"><ele>52.333333333333336</ele><time>2026-04-04T13:36:05Z</time></trkpt><trkpt lat="43.8437847360832" lon="11.181913509584529"><ele>52.66666666666667</ele><time>2026-04-04T13:36:06Z</time></trkpt><trkpt lat="43.84374280331869" lon="11.181994113198325"><ele>53.0</ele><time>2026-04-04T13:36:07Z</time></trkpt><trkpt lat="43.8437039639731" lon="11.182073148216602"><ele>53.00000000000001</ele><time>2026-04-04T13:36:19Z</time></trkpt><trkpt lat="43.84365787082757" lon="11.182168793978446"><ele>53.0</ele><time>2026-04-04T13:36:21Z</time></trkpt><trkpt lat="43.843620347176945" lon="11.182249886129126"><ele>53.0</ele><time>2026-04-04T13:36:22Z</time></trkpt><trkpt lat="43.843558715036316" lon="11.182383078991746"><ele>53.0</ele><time>2026-04-04T13:36:24Z</time></trkpt><trkpt lat="43.84351749712651" lon="11.182478348560815"><ele>53.00000000000001</ele><time>2026-04-04T13:36:25Z</time></trkpt><trkpt lat="43.84346673796588" lon="11.182596926912796"><ele>53.0</ele><time>2026-04-04T13:36:26Z</time></trkpt><trkpt lat="43.84340932131875" lon="11.182735449094407"><ele>52.599999999999994</ele><time>2026-04-04T13:36:27Z</time></trkpt><trkpt lat="43.84335597639438" lon="11.182863856880525"><ele>52.199999999999996</ele><time>2026-04-04T13:36:28Z</time></trkpt><trkpt lat="43.84330304007696" lon="11.182991281104622"><ele>51.8</ele><time>2026-04-04T13:36:29Z</time></trkpt><trkpt lat="43.84324966574279" lon="11.183119027864132"><ele>51.4</ele><time>2026-04-04T13:36:30Z</time></trkpt><trkpt lat="43.8431900590845" lon="11.183261342326965"><ele>51.0</ele><time>2026-04-04T13:36:31Z</time></trkpt><trkpt lat="43.843138283373236" lon="11.183388081106438"><ele>51.0</ele><time>2026-04-04T13:36:32Z</time></trkpt><trkpt lat="43.843092142570015" lon="11.183503714387454"><ele>51.0</ele><time>2026-04-04T13:36:33Z</time></trkpt><trkpt lat="43.84304993546423" lon="11.183609860233675"><ele>51.0</ele><time>2026-04-04T13:36:34Z</time></trkpt><trkpt lat="43.84301625748667" lon="11.183694556338885"><ele>51.0</ele><time>2026-04-04T13:36:35Z</time></trkpt><trkpt lat="43.84297921023298" lon="11.183785647318096"><ele>51.0</ele><time>2026-04-04T13:36:36Z</time></trkpt><trkpt lat="43.842916450897455" lon="11.183897719099965"><ele>51.0</ele><time>2026-04-04T13:36:38Z</time></trkpt><trkpt lat="43.842808682269514" lon="11.183869781714957"><ele>51.0</ele><time>2026-04-04T13:36:40Z</time></trkpt><trkpt lat="43.842745800131645" lon="11.183796807651355"><ele>51.0</ele><time>2026-04-04T13:36:41Z</time></trkpt><trkpt lat="43.84267457816236" lon="11.183721768141565"><ele>51.0</ele><time>2026-04-04T13:36:42Z</time></trkpt><trkpt lat="43.8425916485176" lon="11.183650073301965"><ele>51.0</ele><time>2026-04-04T13:36:43Z</time></trkpt><trkpt lat="43.84251826274025" lon="11.183589615126161"><ele>51.0</ele><time>2026-04-04T13:36:44Z</time></trkpt><trkpt lat="43.84245628475149" lon="11.18353319212384"><ele>51.0</ele><time>2026-04-04T13:36:45Z</time></trkpt><trkpt lat="43.84239457900022" lon="11.18348496060704"><ele>50.5</ele><time>2026-04-04T13:36:46Z</time></trkpt><trkpt lat="43.842304986720436" lon="11.183401452511577"><ele>50.0</ele><time>2026-04-04T13:36:48Z</time></trkpt><trkpt lat="43.84223960358585" lon="11.183346849505652"><ele>49.5</ele><time>2026-04-04T13:36:50Z</time></trkpt><trkpt lat="43.84217565452796" lon="11.183293856277777"><ele>49.0</ele><time>2026-04-04T13:37:45Z</time></trkpt><trkpt lat="43.84210000890319" lon="11.183546407508443"><ele>49.0</ele><time>2026-04-04T13:37:50Z</time></trkpt><trkpt lat="43.842186511232214" lon="11.183611562399026"><ele>49.0</ele><time>2026-04-04T13:40:51Z</time></trkpt></trkseg></trk></gpx>